<?xml version='1.0' encoding='UTF-8'?><gpx version="1.1" creator="JPX - https://github.com/jenetics/jpx" xmlns="http://www.topografix.com/GPX/1/1"><trk><trkseg><trkpt lat="44.73105869002034" lon="9.887238215710779"><ele>500.0</ele><time>2026-04-19T07:06:26.999Z</time></trkpt><trkpt lat="44.73104103381598" lon="9.887151330492397"><ele>500.0</ele><time>2026-04-19T07:06:59.999Z</time></trkpt><trkpt lat="44.73097405407319" lon="9.887157554526755"><ele>500.0</ele><time>2026-04-19T07:07:10.999Z</time></trkpt><trkpt lat="44.731049480319335" lon="9.887154366494126"><ele>500.0</ele><time>2026-04-19T07:07:47.999Z</time></trkpt><trkpt lat="44.73107563462016" lon="9.887237464254676"><ele>500.0</ele><time>2026-04-19T07:07:55.999Z</time></trkpt><trkpt lat="44.731056597106544" lon="9.887334833361004"><ele>500.0</ele><time>2026-04-19T07:11:04.999Z</time></trkpt><trkpt lat="44.731113226009455" lon="9.887232504332205"><ele>500.0</ele><time>2026-04-19T07:12:56Z</time></trkpt><trkpt lat="44.73115852768733" lon="9.887151909933602"><ele>499.99999999999994</ele><time>2026-04-19T07:12:58Z</time></trkpt><trkpt lat="44.73117349063877" lon="9.8872775093705"><ele>500.0</ele><time>2026-04-19T07:13:04Z</time></trkpt><trkpt lat="44.73116695752938" lon="9.887410599402969"><ele>500.0</ele><time>2026-04-19T07:13:06Z</time></trkpt><trkpt lat="44.7311594699152" lon="9.887526819489649"><ele>500.0</ele><time>2026-04-19T07:13:09Z</time></trkpt><trkpt lat="44.731131854555926" lon="9.887608621760863"><ele>499.99999999999994</ele><time>2026-04-19T07:13:11Z</time></trkpt><trkpt lat="44.731074050652076" lon="9.887702179878701"><ele>500.0</ele><time>2026-04-19T07:13:13Z</time></trkpt><trkpt lat="44.7310031490228" lon="9.887753538765471"><ele>502.4</ele><time>2026-04-19T07:13:15Z</time></trkpt><trkpt lat="44.73094517977226" lon="9.887871807546578"><ele>504.8</ele><time>2026-04-19T07:13:29.999Z</time></trkpt><trkpt lat="44.73093324973712" lon="9.887969979387917"><ele>507.20000000000005</ele><time>2026-04-19T07:13:30.999Z</time></trkpt><trkpt lat="44.73095573571663" lon="9.888133158573737"><ele>509.6</ele><time>2026-04-19T07:13:32.999Z</time></trkpt><trkpt lat="44.730964456388016" lon="9.888305366068806"><ele>512.0</ele><time>2026-04-19T07:13:34.999Z</time></trkpt><trkpt lat="44.73098253988606" lon="9.888448937642949"><ele>513.4</ele><time>2026-04-19T07:13:35.999Z</time></trkpt><trkpt lat="44.73098868599095" lon="9.888563517015534"><ele>514.8000000000001</ele><time>2026-04-19T07:13:36.999Z</time></trkpt><trkpt lat="44.73101209781774" lon="9.888723742033187"><ele>516.2</ele><time>2026-04-19T07:13:38.999Z</time></trkpt><trkpt lat="44.73105676801279" lon="9.88887923020336"><ele>517.6</ele><time>2026-04-19T07:13:40.999Z</time></trkpt><trkpt lat="44.73108793860545" lon="9.888977124163798"><ele>519.0</ele><time>2026-04-19T07:13:41.999Z</time></trkpt><trkpt lat="44.73111587659399" lon="9.88906576016884"><ele>518.5</ele><time>2026-04-19T07:13:42.999Z</time></trkpt><trkpt lat="44.73114362107509" lon="9.889160578781205"><ele>518.0</ele><time>2026-04-19T07:13:43.999Z</time></trkpt><trkpt lat="44.73117288892899" lon="9.88925759096269"><ele>517.5</ele><time>2026-04-19T07:13:44.999Z</time></trkpt><trkpt lat="44.73120217165666" lon="9.889352500954034"><ele>517.0</ele><time>2026-04-19T07:13:45.999Z</time></trkpt><trkpt lat="44.73124132020422" lon="9.889440457475247"><ele>516.5</ele><time>2026-04-19T07:13:46.999Z</time></trkpt><trkpt lat="44.7313114794673" lon="9.889607328000073"><ele>516.0</ele><time>2026-04-19T07:13:48.999Z</time></trkpt><trkpt lat="44.73135477966655" lon="9.889709126987212"><ele>516.0</ele><time>2026-04-19T07:13:49.999Z</time></trkpt><trkpt lat="44.731417547779884" lon="9.889839319228278"><ele>516.0</ele><time>2026-04-19T07:13:51.999Z</time></trkpt><trkpt lat="44.73147462445778" lon="9.889903519391096"><ele>516.0</ele><time>2026-04-19T07:13:52.999Z</time></trkpt><trkpt lat="44.731530286530855" lon="9.88997312176898"><ele>516.0</ele><time>2026-04-19T07:13:53.999Z</time></trkpt><trkpt lat="44.73157417403606" lon="9.890069838451472"><ele>516.0</ele><time>2026-04-19T07:13:54.999Z</time></trkpt><trkpt lat="44.731604606084645" lon="9.890174218334185"><ele>516.0</ele><time>2026-04-19T07:13:55.999Z</time></trkpt><trkpt lat="44.731625905963526" lon="9.890261756700285"><ele>517.3333333333334</ele><time>2026-04-19T07:13:56.999Z</time></trkpt><trkpt lat="44.73165646632048" lon="9.89039029542662"><ele>518.6666666666666</ele><time>2026-04-19T07:13:57.999Z</time></trkpt><trkpt lat="44.73169346571056" lon="9.890522405015048"><ele>520.0</ele><time>2026-04-19T07:13:58.999Z</time></trkpt><trkpt lat="44.73172999168243" lon="9.890605182014777"><ele>521.3333333333333</ele><time>2026-04-19T07:13:59.999Z</time></trkpt><trkpt lat="44.73176238039735" lon="9.890740166904688"><ele>522.6666666666666</ele><time>2026-04-19T07:14:01.999Z</time></trkpt><trkpt lat="44.73178907646554" lon="9.89082585141749"><ele>524.0</ele><time>2026-04-19T07:14:03.999Z</time></trkpt><trkpt lat="44.73182553882813" lon="9.890907220694398"><ele>524.75</ele><time>2026-04-19T07:14:11.999Z</time></trkpt><trkpt lat="44.73186449692339" lon="9.891039856963399"><ele>525.5</ele><time>2026-04-19T07:14:13.999Z</time></trkpt><trkpt lat="44.73189926163042" lon="9.891181966063142"><ele>526.25</ele><time>2026-04-19T07:14:15.999Z</time></trkpt><trkpt lat="44.731904918261655" lon="9.89135462239045"><ele>527.0</ele><time>2026-04-19T07:14:17.999Z</time></trkpt><trkpt lat="44.73189992026759" lon="9.89153531306415"><ele>526.6666666666666</ele><time>2026-04-19T07:14:19.999Z</time></trkpt><trkpt lat="44.731891098979034" lon="9.891635867939263"><ele>526.3333333333333</ele><time>2026-04-19T07:14:20.999Z</time></trkpt><trkpt lat="44.731894370887595" lon="9.891732884886641"><ele>526.0</ele><time>2026-04-19T07:14:21.999Z</time></trkpt><trkpt lat="44.731907476269754" lon="9.891831906672953"><ele>525.6666666666666</ele><time>2026-04-19T07:14:22.999Z</time></trkpt><trkpt lat="44.73192052584581" lon="9.891930121792585"><ele>525.3333333333334</ele><time>2026-04-19T07:14:23.999Z</time></trkpt><trkpt lat="44.73194081030669" lon="9.892042851386655"><ele>525.0</ele><time>2026-04-19T07:14:24.999Z</time></trkpt><trkpt lat="44.73196423899898" lon="9.89216359096322"><ele>525.0</ele><time>2026-04-19T07:14:25.999Z</time></trkpt><trkpt lat="44.731995454638394" lon="9.892282637622134"><ele>525.0</ele><time>2026-04-19T07:14:26.999Z</time></trkpt><trkpt lat="44.73203076707308" lon="9.892404221389251"><ele>525.0</ele><time>2026-04-19T07:14:27.999Z</time></trkpt><trkpt lat="44.73206372782081" lon="9.892507519909232"><ele>525.0</ele><time>2026-04-19T07:14:28.999Z</time></trkpt><trkpt lat="44.732103207693456" lon="9.892635138789379"><ele>525.0</ele><time>2026-04-19T07:14:29.999Z</time></trkpt><trkpt lat="44.732157650125" lon="9.892843015325795"><ele>526.6</ele><time>2026-04-19T07:14:30.999Z</time></trkpt><trkpt lat="44.732203520005356" lon="9.893024702854735"><ele>528.2</ele><time>2026-04-19T07:14:31.999Z</time></trkpt><trkpt lat="44.73224775030932" lon="9.893130512836835"><ele>529.8</ele><time>2026-04-19T07:14:32.999Z</time></trkpt><trkpt lat="44.73230511390139" lon="9.89324593470864"><ele>531.4</ele><time>2026-04-19T07:14:34.999Z</time></trkpt><trkpt lat="44.73233735448242" lon="9.893322524280357"><ele>533.0</ele><time>2026-04-19T07:14:35.999Z</time></trkpt><trkpt lat="44.732405005739125" lon="9.893460168356365"><ele>534.6666666666666</ele><time>2026-04-19T07:14:37.999Z</time></trkpt><trkpt lat="44.73243907856707" lon="9.89354323509347"><ele>536.3333333333333</ele><time>2026-04-19T07:14:39Z</time></trkpt><trkpt lat="44.73248062619633" lon="9.89362419146219"><ele>538.0</ele><time>2026-04-19T07:14:40Z</time></trkpt><trkpt lat="44.7325222211639" lon="9.893707626453551"><ele>539.6666666666666</ele><time>2026-04-19T07:14:41Z</time></trkpt><trkpt lat="44.73256243410573" lon="9.893791171609749"><ele>541.3333333333334</ele><time>2026-04-19T07:14:42Z</time></trkpt><trkpt lat="44.732600007679906" lon="9.893883985474375"><ele>543.0</ele><time>2026-04-19T07:14:43Z</time></trkpt><trkpt lat="44.73264077324283" lon="9.893999340740333"><ele>543.0</ele><time>2026-04-19T07:14:45Z</time></trkpt><trkpt lat="44.73271889803616" lon="9.894133542185633"><ele>543.0</ele><time>2026-04-19T07:14:47Z</time></trkpt><trkpt lat="44.732784012691155" lon="9.894258343259475"><ele>543.0</ele><time>2026-04-19T07:14:49Z</time></trkpt><trkpt lat="44.73284427546025" lon="9.894393572365894"><ele>543.0</ele><time>2026-04-19T07:14:51Z</time></trkpt><trkpt lat="44.732891459720605" lon="9.894527576416094"><ele>543.6</ele><time>2026-04-19T07:14:53Z</time></trkpt><trkpt lat="44.73294609687321" lon="9.894676447509308"><ele>544.1999999999999</ele><time>2026-04-19T07:14:55Z</time></trkpt><trkpt lat="44.73297431299989" lon="9.89476140215376"><ele>544.8</ele><time>2026-04-19T07:14:56Z</time></trkpt><trkpt lat="44.73302501210876" lon="9.8949108893899"><ele>545.4</ele><time>2026-04-19T07:14:58Z</time></trkpt><trkpt lat="44.73308169580353" lon="9.895050224545866"><ele>546.0</ele><time>2026-04-19T07:15:00Z</time></trkpt><trkpt lat="44.7331215485421" lon="9.89514729830541"><ele>547.6666666666666</ele><time>2026-04-19T07:15:01Z</time></trkpt><trkpt lat="44.73317017085798" lon="9.895250037142453"><ele>549.3333333333334</ele><time>2026-04-19T07:15:02Z</time></trkpt><trkpt lat="44.7332179362452" lon="9.895352531661073"><ele>551.0</ele><time>2026-04-19T07:15:03Z</time></trkpt><trkpt lat="44.73326514759074" lon="9.89545980922861"><ele>552.6666666666667</ele><time>2026-04-19T07:15:04Z</time></trkpt><trkpt lat="44.73330792213432" lon="9.895571471490577"><ele>554.3333333333334</ele><time>2026-04-19T07:15:05Z</time></trkpt><trkpt lat="44.73334501371734" lon="9.895671551879593"><ele>556.0</ele><time>2026-04-19T07:15:06Z</time></trkpt><trkpt lat="44.73338638839255" lon="9.895770240111826"><ele>556.0</ele><time>2026-04-19T07:15:07Z</time></trkpt><trkpt lat="44.73342632423805" lon="9.89587007734028"><ele>556.0</ele><time>2026-04-19T07:15:08Z</time></trkpt><trkpt lat="44.73345274478829" lon="9.895963415598077"><ele>556.0</ele><time>2026-04-19T07:15:09Z</time></trkpt><trkpt lat="44.73347414532329" lon="9.896056809758939"><ele>556.0</ele><time>2026-04-19T07:15:10Z</time></trkpt><trkpt lat="44.73346548673533" lon="9.8961550880285"><ele>556.0</ele><time>2026-04-19T07:15:11Z</time></trkpt><trkpt lat="44.7334530088248" lon="9.896253924255674"><ele>556.0</ele><time>2026-04-19T07:15:12Z</time></trkpt><trkpt lat="44.73342354428605" lon="9.896372948996893"><ele>557.0</ele><time>2026-04-19T07:15:13Z</time></trkpt><trkpt lat="44.73339432783063" lon="9.896457922451141"><ele>558.0</ele><time>2026-04-19T07:15:14Z</time></trkpt><trkpt lat="44.733372581439966" lon="9.896551654436875"><ele>559.0</ele><time>2026-04-19T07:15:16Z</time></trkpt><trkpt lat="44.733490277994704" lon="9.896639147734659"><ele>560.0</ele><time>2026-04-19T07:15:26Z</time></trkpt><trkpt lat="44.73361821193078" lon="9.89663440243011"><ele>561.0</ele><time>2026-04-19T07:15:28Z</time></trkpt><trkpt lat="44.733680952364914" lon="9.89664358802161"><ele>561.1666666666666</ele><time>2026-04-19T07:15:29Z</time></trkpt><trkpt lat="44.73374695387357" lon="9.896628347887866"><ele>561.3333333333334</ele><time>2026-04-19T07:15:30Z</time></trkpt><trkpt lat="44.73382602369673" lon="9.8966369541964"><ele>561.5</ele><time>2026-04-19T07:15:31Z</time></trkpt><trkpt lat="44.73390442936106" lon="9.896601957726373"><ele>561.6666666666667</ele><time>2026-04-19T07:15:32Z</time></trkpt><trkpt lat="44.73397038200139" lon="9.896592922311989"><ele>561.8333333333334</ele><time>2026-04-19T07:15:33Z</time></trkpt><trkpt lat="44.734052009046934" lon="9.896573694756258"><ele>562.0</ele><time>2026-04-19T07:15:34Z</time></trkpt><trkpt lat="44.73414637061919" lon="9.896556273191491"><ele>562.0</ele><time>2026-04-19T07:15:35Z</time></trkpt><trkpt lat="44.73425539914994" lon="9.89653722209113"><ele>562.0</ele><time>2026-04-19T07:15:36Z</time></trkpt><trkpt lat="44.734318284237254" lon="9.89649912911061"><ele>562.0</ele><time>2026-04-19T07:15:36.999Z</time></trkpt><trkpt lat="44.73441828492901" lon="9.896438504810346"><ele>562.0</ele><time>2026-04-19T07:15:38.999Z</time></trkpt><trkpt lat="44.73448109769129" lon="9.896398046145544"><ele>562.0</ele><time>2026-04-19T07:15:39.999Z</time></trkpt><trkpt lat="44.734594341623826" lon="9.896356941143482"><ele>561.8333333333334</ele><time>2026-04-19T07:15:41.999Z</time></trkpt><trkpt lat="44.73466453080309" lon="9.89631851362922"><ele>561.6666666666667</ele><time>2026-04-19T07:15:42.999Z</time></trkpt><trkpt lat="44.734734302281005" lon="9.896285484261497"><ele>561.5</ele><time>2026-04-19T07:15:43.999Z</time></trkpt><trkpt lat="44.734793300159666" lon="9.896246051305365"><ele>561.3333333333334</ele><time>2026-04-19T07:15:44.999Z</time></trkpt><trkpt lat="44.73487020189413" lon="9.89623109500826"><ele>561.1666666666666</ele><time>2026-04-19T07:15:45.999Z</time></trkpt><trkpt lat="44.73495808506403" lon="9.896219972452638"><ele>561.0</ele><time>2026-04-19T07:15:46.999Z</time></trkpt><trkpt lat="44.7350368521156" lon="9.89621998282868"><ele>561.0</ele><time>2026-04-19T07:15:47.999Z</time></trkpt><trkpt lat="44.73510396597053" lon="9.896240806969644"><ele>561.0</ele><time>2026-04-19T07:15:48.999Z</time></trkpt><trkpt lat="44.73518766669932" lon="9.896259385007546"><ele>561.0</ele><time>2026-04-19T07:15:50.999Z</time></trkpt><trkpt lat="44.73525765127452" lon="9.896228158321525"><ele>561.0</ele><time>2026-04-19T07:15:51.999Z</time></trkpt><trkpt lat="44.73533384314404" lon="9.896195809179776"><ele>561.0</ele><time>2026-04-19T07:15:52.999Z</time></trkpt><trkpt lat="44.73543515194973" lon="9.896175139645699"><ele>561.0</ele><time>2026-04-19T07:15:53.999Z</time></trkpt><trkpt lat="44.73555580352426" lon="9.896197735262723"><ele>561.0</ele><time>2026-04-19T07:15:54.999Z</time></trkpt><trkpt lat="44.73564741152036" lon="9.8962247031729"><ele>561.0</ele><time>2026-04-19T07:15:55.999Z</time></trkpt><trkpt lat="44.735751859408396" lon="9.896259683706381"><ele>561.0</ele><time>2026-04-19T07:15:56.999Z</time></trkpt><trkpt lat="44.73585876071372" lon="9.896320771293873"><ele>561.0</ele><time>2026-04-19T07:15:57.999Z</time></trkpt><trkpt lat="44.73596662819447" lon="9.896415586676042"><ele>561.0</ele><time>2026-04-19T07:15:58.999Z</time></trkpt><trkpt lat="44.73607152227686" lon="9.89652879415032"><ele>561.0</ele><time>2026-04-19T07:15:59.999Z</time></trkpt><trkpt lat="44.73616028202397" lon="9.896612373245409"><ele>561.0</ele><time>2026-04-19T07:16:00.999Z</time></trkpt><trkpt lat="44.73624984556304" lon="9.89667332260796"><ele>561.0</ele><time>2026-04-19T07:16:01.999Z</time></trkpt><trkpt lat="44.73635654791247" lon="9.896727642473696"><ele>561.0</ele><time>2026-04-19T07:16:02.999Z</time></trkpt><trkpt lat="44.736470638741565" lon="9.8967815121075"><ele>561.0</ele><time>2026-04-19T07:16:03.999Z</time></trkpt><trkpt lat="44.73657821391922" lon="9.896824149799079"><ele>560.0</ele><time>2026-04-19T07:16:04.999Z</time></trkpt><trkpt lat="44.73668072083994" lon="9.896842136765802"><ele>559.0</ele><time>2026-04-19T07:16:05.999Z</time></trkpt><trkpt lat="44.736766725082504" lon="9.896844038848654"><ele>558.0</ele><time>2026-04-19T07:16:06.999Z</time></trkpt><trkpt lat="44.73684019661456" lon="9.8968402146377"><ele>557.0</ele><time>2026-04-19T07:16:07.999Z</time></trkpt><trkpt lat="44.73691596159497" lon="9.896825880045858"><ele>556.0</ele><time>2026-04-19T07:16:08.999Z</time></trkpt><trkpt lat="44.73700523073267" lon="9.89680447044619"><ele>555.0</ele><time>2026-04-19T07:16:09.999Z</time></trkpt><trkpt lat="44.73709859867576" lon="9.89680189954326"><ele>558.6</ele><time>2026-04-19T07:16:10.999Z</time></trkpt><trkpt lat="44.737201305961705" lon="9.896811331835211"><ele>562.2</ele><time>2026-04-19T07:16:11.999Z</time></trkpt><trkpt lat="44.73730674680185" lon="9.89682401889588"><ele>565.8</ele><time>2026-04-19T07:16:12.999Z</time></trkpt><trkpt lat="44.73739633277811" lon="9.896842633510683"><ele>569.4</ele><time>2026-04-19T07:16:13.999Z</time></trkpt><trkpt lat="44.73747726202664" lon="9.896897893123196"><ele>573.0</ele><time>2026-04-19T07:16:15.999Z</time></trkpt><trkpt lat="44.737510180570645" lon="9.8970918016565"><ele>573.0</ele><time>2026-04-19T07:16:17.999Z</time></trkpt><trkpt lat="44.73751164663339" lon="9.89722506093329"><ele>573.0</ele><time>2026-04-19T07:16:18.999Z</time></trkpt><trkpt lat="44.73752773092663" lon="9.89732536436075"><ele>573.0</ele><time>2026-04-19T07:16:19.999Z</time></trkpt><trkpt lat="44.73755033533333" lon="9.897411117809183"><ele>573.0</ele><time>2026-04-19T07:16:20.999Z</time></trkpt><trkpt lat="44.73762342995716" lon="9.897525497336984"><ele>573.0</ele><time>2026-04-19T07:16:22.999Z</time></trkpt><trkpt lat="44.737713440732485" lon="9.89762266138732"><ele>567.0</ele><time>2026-04-19T07:16:24.999Z</time></trkpt><trkpt lat="44.73780621413849" lon="9.897685379439714"><ele>561.0</ele><time>2026-04-19T07:16:26.999Z</time></trkpt><trkpt lat="44.73790172562158" lon="9.897700376320545"><ele>555.0</ele><time>2026-04-19T07:16:28.999Z</time></trkpt><trkpt lat="44.73800160718335" lon="9.897675534898"><ele>549.0</ele><time>2026-04-19T07:16:30.999Z</time></trkpt><trkpt lat="44.73808016029993" lon="9.897636304149259"><ele>543.0</ele><time>2026-04-19T07:16:32.999Z</time></trkpt><trkpt lat="44.738142627999075" lon="9.897699582094232"><ele>543.0</ele><time>2026-04-19T07:16:35.999Z</time></trkpt><trkpt lat="44.73827092791506" lon="9.897697299198946"><ele>543.0</ele><time>2026-04-19T07:16:37.999Z</time></trkpt><trkpt lat="44.738393481290686" lon="9.897646044104363"><ele>543.0</ele><time>2026-04-19T07:16:39.999Z</time></trkpt><trkpt lat="44.73846412858373" lon="9.897623986695146"><ele>543.0</ele><time>2026-04-19T07:16:40.999Z</time></trkpt><trkpt lat="44.73853737389065" lon="9.897599839235907"><ele>543.0</ele><time>2026-04-19T07:16:41.999Z</time></trkpt><trkpt lat="44.738604538938176" lon="9.897570096265632"><ele>539.4</ele><time>2026-04-19T07:16:42.999Z</time></trkpt><trkpt lat="44.73866620537691" lon="9.897549467765453"><ele>535.8</ele><time>2026-04-19T07:16:43.999Z</time></trkpt><trkpt lat="44.73877551808385" lon="9.897570712197133"><ele>532.2</ele><time>2026-04-19T07:16:46Z</time></trkpt><trkpt lat="44.73887623605369" lon="9.897595244846"><ele>528.6</ele><time>2026-04-19T07:16:48Z</time></trkpt><trkpt lat="44.738970562522205" lon="9.89759970454358"><ele>525.0</ele><time>2026-04-19T07:16:50Z</time></trkpt><trkpt lat="44.73906090642633" lon="9.89755421760116"><ele>525.0</ele><time>2026-04-19T07:16:52Z</time></trkpt><trkpt lat="44.739166198665345" lon="9.897500363800837"><ele>525.0</ele><time>2026-04-19T07:16:54Z</time></trkpt><trkpt lat="44.7392840961649" lon="9.897513354039834"><ele>525.0</ele><time>2026-04-19T07:16:56Z</time></trkpt><trkpt lat="44.73935073231228" lon="9.897527849256297"><ele>525.0</ele><time>2026-04-19T07:16:57Z</time></trkpt><trkpt lat="44.73942444523657" lon="9.897509907871257"><ele>525.0</ele><time>2026-04-19T07:16:59Z</time></trkpt><trkpt lat="44.7394341111387" lon="9.897408792863182"><ele>525.0</ele><time>2026-04-19T07:17:01Z</time></trkpt><trkpt lat="44.73937489840784" lon="9.897279832693387"><ele>525.0</ele><time>2026-04-19T07:17:03Z</time></trkpt><trkpt lat="44.739351566874035" lon="9.897170518475168"><ele>525.0</ele><time>2026-04-19T07:17:04Z</time></trkpt><trkpt lat="44.739332929984116" lon="9.89704779114785"><ele>525.0</ele><time>2026-04-19T07:17:07Z</time></trkpt><trkpt lat="44.7393684149233" lon="9.896963171106739"><ele>525.0</ele><time>2026-04-19T07:17:09Z</time></trkpt><trkpt lat="44.73944813668834" lon="9.896837873198457"><ele>525.0</ele><time>2026-04-19T07:17:10Z</time></trkpt><trkpt lat="44.73949777280147" lon="9.896723666925238"><ele>518.6</ele><time>2026-04-19T07:17:12Z</time></trkpt><trkpt lat="44.73954321022306" lon="9.896639223570295"><ele>512.2</ele><time>2026-04-19T07:17:14Z</time></trkpt><trkpt lat="44.739600341783756" lon="9.896554028231773"><ele>505.79999999999995</ele><time>2026-04-19T07:17:16Z</time></trkpt><trkpt lat="44.73962067364582" lon="9.896426370409063"><ele>499.4</ele><time>2026-04-19T07:17:18Z</time></trkpt><trkpt lat="44.73961469431566" lon="9.896265643543682"><ele>493.0</ele><time>2026-04-19T07:17:20Z</time></trkpt><trkpt lat="44.73960783025488" lon="9.896123351217044"><ele>493.0</ele><time>2026-04-19T07:17:22Z</time></trkpt><trkpt lat="44.739622362813186" lon="9.89599398989051"><ele>492.99999999999994</ele><time>2026-04-19T07:17:24Z</time></trkpt><trkpt lat="44.7396416875285" lon="9.895854022230706"><ele>492.99999999999994</ele><time>2026-04-19T07:17:26Z</time></trkpt><trkpt lat="44.73967698839031" lon="9.895725094317928"><ele>493.0</ele><time>2026-04-19T07:17:28Z</time></trkpt><trkpt lat="44.73972283924521" lon="9.895622760595009"><ele>493.0</ele><time>2026-04-19T07:17:30Z</time></trkpt><trkpt lat="44.739784122827814" lon="9.8955026709003"><ele>489.2</ele><time>2026-04-19T07:17:32Z</time></trkpt><trkpt lat="44.73981899467706" lon="9.895386390625205"><ele>485.4</ele><time>2026-04-19T07:17:33Z</time></trkpt><trkpt lat="44.73987430051922" lon="9.895275851517829"><ele>481.59999999999997</ele><time>2026-04-19T07:17:34Z</time></trkpt><trkpt lat="44.73993270698866" lon="9.895144461149586"><ele>477.79999999999995</ele><time>2026-04-19T07:17:35Z</time></trkpt><trkpt lat="44.74001761192857" lon="9.895116850619582"><ele>474.0</ele><time>2026-04-19T07:17:37.999Z</time></trkpt><trkpt lat="44.74007446565505" lon="9.89503273900472"><ele>471.4</ele><time>2026-04-19T07:17:39.999Z</time></trkpt><trkpt lat="44.7401091169712" lon="9.894909322957803"><ele>468.79999999999995</ele><time>2026-04-19T07:17:41.999Z</time></trkpt><trkpt lat="44.74010084938016" lon="9.894791609489374"><ele>466.20000000000005</ele><time>2026-04-19T07:17:43.999Z</time></trkpt><trkpt lat="44.74006797419957" lon="9.894698352826127"><ele>463.6</ele><time>2026-04-19T07:17:44.999Z</time></trkpt><trkpt lat="44.73997820756691" lon="9.894556343198893"><ele>461.0</ele><time>2026-04-19T07:17:46.999Z</time></trkpt><trkpt lat="44.73990367449774" lon="9.894448869163456"><ele>461.0</ele><time>2026-04-19T07:17:48.999Z</time></trkpt><trkpt lat="44.73988746579903" lon="9.89433620978193"><ele>461.0</ele><time>2026-04-19T07:17:50.999Z</time></trkpt><trkpt lat="44.73996483200317" lon="9.894279507512168"><ele>461.0</ele><time>2026-04-19T07:17:53.999Z</time></trkpt><trkpt lat="44.74009284359167" lon="9.89409988469546"><ele>461.0</ele><time>2026-04-19T07:17:55.999Z</time></trkpt><trkpt lat="44.740162362993296" lon="9.894003278753718"><ele>461.0</ele><time>2026-04-19T07:17:57.999Z</time></trkpt><trkpt lat="44.74022687476748" lon="9.89392107845234"><ele>455.4</ele><time>2026-04-19T07:17:59.999Z</time></trkpt><trkpt lat="44.74032074605289" lon="9.89389981738469"><ele>449.8</ele><time>2026-04-19T07:18:01.999Z</time></trkpt><trkpt lat="44.740404230698275" lon="9.89379606181179"><ele>444.19999999999993</ele><time>2026-04-19T07:18:03.999Z</time></trkpt><trkpt lat="44.74048050203981" lon="9.893670551200955"><ele>438.59999999999997</ele><time>2026-04-19T07:18:05.999Z</time></trkpt><trkpt lat="44.740566324258744" lon="9.893560790312518"><ele>433.0</ele><time>2026-04-19T07:18:07.999Z</time></trkpt><trkpt lat="44.74062757011338" lon="9.893504768827714"><ele>433.0</ele><time>2026-04-19T07:18:08.999Z</time></trkpt><trkpt lat="44.7407372912771" lon="9.893484470290925"><ele>432.99999999999994</ele><time>2026-04-19T07:18:10.999Z</time></trkpt><trkpt lat="44.74080743849684" lon="9.893509156446909"><ele>432.99999999999994</ele><time>2026-04-19T07:18:12.999Z</time></trkpt><trkpt lat="44.740892570466" lon="9.893611035860344"><ele>433.0</ele><time>2026-04-19T07:18:14.999Z</time></trkpt><trkpt lat="44.74090742476972" lon="9.893727199685618"><ele>433.0</ele><time>2026-04-19T07:18:16.999Z</time></trkpt><trkpt lat="44.74095256308179" lon="9.89390165533346"><ele>433.00000000000006</ele><time>2026-04-19T07:18:18.999Z</time></trkpt><trkpt lat="44.74097696140022" lon="9.893992647636926"><ele>433.0</ele><time>2026-04-19T07:18:19.999Z</time></trkpt><trkpt lat="44.741043989524904" lon="9.894095107218712"><ele>433.0</ele><time>2026-04-19T07:18:21.999Z</time></trkpt><trkpt lat="44.74115334559009" lon="9.894152847121099"><ele>433.0</ele><time>2026-04-19T07:18:23.999Z</time></trkpt><trkpt lat="44.74123220389829" lon="9.894173524877363"><ele>433.00000000000006</ele><time>2026-04-19T07:18:24.999Z</time></trkpt><trkpt lat="44.741313333120665" lon="9.894178263963283"><ele>433.0</ele><time>2026-04-19T07:18:25.999Z</time></trkpt><trkpt lat="44.7413947145155" lon="9.894181353186612"><ele>430.50000000000006</ele><time>2026-04-19T07:18:26.999Z</time></trkpt><trkpt lat="44.741474394008634" lon="9.894195636947618"><ele>428.0</ele><time>2026-04-19T07:18:27.999Z</time></trkpt><trkpt lat="44.741561876316766" lon="9.894214256704295"><ele>425.5</ele><time>2026-04-19T07:18:28.999Z</time></trkpt><trkpt lat="44.74164744522581" lon="9.894231153409903"><ele>423.0</ele><time>2026-04-19T07:18:29.999Z</time></trkpt><trkpt lat="44.741726924251665" lon="9.894247084349663"><ele>420.50000000000006</ele><time>2026-04-19T07:18:30.999Z</time></trkpt><trkpt lat="44.741804470166265" lon="9.894270671941497"><ele>418.0</ele><time>2026-04-19T07:18:31.999Z</time></trkpt><trkpt lat="44.74187314541813" lon="9.894297052720981"><ele>415.33333333333337</ele><time>2026-04-19T07:18:32.999Z</time></trkpt><trkpt lat="44.74193363084792" lon="9.89432943244306"><ele>412.6666666666667</ele><time>2026-04-19T07:18:33.999Z</time></trkpt><trkpt lat="44.74200547534466" lon="9.894379885369627"><ele>410.0</ele><time>2026-04-19T07:18:34.999Z</time></trkpt><trkpt lat="44.74206222234202" lon="9.89443594559349"><ele>407.33333333333337</ele><time>2026-04-19T07:18:35.999Z</time></trkpt><trkpt lat="44.74213998489854" lon="9.894563168918305"><ele>404.6666666666667</ele><time>2026-04-19T07:18:37.999Z</time></trkpt><trkpt lat="44.74216845515346" lon="9.89464548245527"><ele>402.0</ele><time>2026-04-19T07:18:38.999Z</time></trkpt><trkpt lat="44.74220548629989" lon="9.894730914454373"><ele>402.0</ele><time>2026-04-19T07:18:39.999Z</time></trkpt><trkpt lat="44.74224388557832" lon="9.894806674831942"><ele>402.0</ele><time>2026-04-19T07:18:40.999Z</time></trkpt><trkpt lat="44.74227995151585" lon="9.894881586207742"><ele>402.0</ele><time>2026-04-19T07:18:41.999Z</time></trkpt><trkpt lat="44.742313376430985" lon="9.895055919119761"><ele>402.0</ele><time>2026-04-19T07:18:43.999Z</time></trkpt><trkpt lat="44.74232416199006" lon="9.895192067814838"><ele>402.0</ele><time>2026-04-19T07:18:44.999Z</time></trkpt><trkpt lat="44.742338340140826" lon="9.895319545717912"><ele>402.0</ele><time>2026-04-19T07:18:45.999Z</time></trkpt><trkpt lat="44.74240621937409" lon="9.895458740773032"><ele>403.0</ele><time>2026-04-19T07:18:47.999Z</time></trkpt><trkpt lat="44.742465768960834" lon="9.895505140088101"><ele>404.0</ele><time>2026-04-19T07:18:48.999Z</time></trkpt><trkpt lat="44.74252749762982" lon="9.895540644822539"><ele>405.0</ele><time>2026-04-19T07:18:49.999Z</time></trkpt><trkpt lat="44.74264011735067" lon="9.89561550611627"><ele>406.0</ele><time>2026-04-19T07:18:52Z</time></trkpt><trkpt lat="44.742731196025716" lon="9.895735303568285"><ele>407.0</ele><time>2026-04-19T07:18:54Z</time></trkpt><trkpt lat="44.742737066205144" lon="9.895915484499648"><ele>406.8333333333333</ele><time>2026-04-19T07:18:56Z</time></trkpt><trkpt lat="44.742714735562494" lon="9.896009549151525"><ele>406.66666666666663</ele><time>2026-04-19T07:18:57Z</time></trkpt><trkpt lat="44.74265935246398" lon="9.89611633274521"><ele>406.5</ele><time>2026-04-19T07:18:58Z</time></trkpt><trkpt lat="44.74261915826583" lon="9.896221459138639"><ele>406.33333333333337</ele><time>2026-04-19T07:18:59Z</time></trkpt><trkpt lat="44.742592109297725" lon="9.896316497995771"><ele>406.1666666666667</ele><time>2026-04-19T07:19:00Z</time></trkpt><trkpt lat="44.74256339565585" lon="9.896435015595399"><ele>406.0</ele><time>2026-04-19T07:19:02Z</time></trkpt><trkpt lat="44.742609324643986" lon="9.896516781392213"><ele>406.0</ele><time>2026-04-19T07:19:04Z</time></trkpt><trkpt lat="44.74267966011079" lon="9.896471359910198"><ele>406.0</ele><time>2026-04-19T07:19:09Z</time></trkpt><trkpt lat="44.742729299199205" lon="9.89641487238572"><ele>406.0</ele><time>2026-04-19T07:19:10Z</time></trkpt><trkpt lat="44.74278683996905" lon="9.896373859602717"><ele>406.0</ele><time>2026-04-19T07:19:11Z</time></trkpt><trkpt lat="44.74285032003081" lon="9.896344073889292"><ele>406.0</ele><time>2026-04-19T07:19:12Z</time></trkpt><trkpt lat="44.7429169438282" lon="9.896310285414062"><ele>406.0</ele><time>2026-04-19T07:19:13Z</time></trkpt><trkpt lat="44.74297602692195" lon="9.8962675567132"><ele>406.0</ele><time>2026-04-19T07:19:14Z</time></trkpt><trkpt lat="44.74302738295357" lon="9.89620486867678"><ele>401.83333333333337</ele><time>2026-04-19T07:19:15Z</time></trkpt><trkpt lat="44.74307760841688" lon="9.89612229332835"><ele>397.6666666666667</ele><time>2026-04-19T07:19:16Z</time></trkpt><trkpt lat="44.74311734450048" lon="9.896028418421539"><ele>393.5</ele><time>2026-04-19T07:19:17Z</time></trkpt><trkpt lat="44.74315517031089" lon="9.895916916292535"><ele>389.33333333333337</ele><time>2026-04-19T07:19:18Z</time></trkpt><trkpt lat="44.74318796796608" lon="9.895803297729223"><ele>385.1666666666667</ele><time>2026-04-19T07:19:19Z</time></trkpt><trkpt lat="44.74322002553878" lon="9.895696503420304"><ele>381.0</ele><time>2026-04-19T07:19:20Z</time></trkpt><trkpt lat="44.74324672537245" lon="9.895605041981531"><ele>380.1666666666667</ele><time>2026-04-19T07:19:21Z</time></trkpt><trkpt lat="44.74327137993765" lon="9.895517118044921"><ele>379.3333333333333</ele><time>2026-04-19T07:19:22Z</time></trkpt><trkpt lat="44.74329910397821" lon="9.895435952577857"><ele>378.5</ele><time>2026-04-19T07:19:23Z</time></trkpt><trkpt lat="44.74334769697697" lon="9.895275068343414"><ele>377.66666666666663</ele><time>2026-04-19T07:19:25Z</time></trkpt><trkpt lat="44.74337133935044" lon="9.895184136055038"><ele>376.8333333333333</ele><time>2026-04-19T07:19:26Z</time></trkpt><trkpt lat="44.74339698950414" lon="9.895093847487772"><ele>376.0</ele><time>2026-04-19T07:19:27Z</time></trkpt><trkpt lat="44.743425629909495" lon="9.894998131522296"><ele>373.4</ele><time>2026-04-19T07:19:28Z</time></trkpt><trkpt lat="44.74347410400632" lon="9.894884256699351"><ele>370.8</ele><time>2026-04-19T07:19:29Z</time></trkpt><trkpt lat="44.74354691291907" lon="9.894777021906672"><ele>368.2</ele><time>2026-04-19T07:19:30Z</time></trkpt><trkpt lat="44.74363165417084" lon="9.894698405090908"><ele>365.59999999999997</ele><time>2026-04-19T07:19:31Z</time></trkpt><trkpt lat="44.74372763104504" lon="9.894635771929687"><ele>363.0</ele><time>2026-04-19T07:19:32Z</time></trkpt><trkpt lat="44.743820331391866" lon="9.894572696724126"><ele>362.3333333333333</ele><time>2026-04-19T07:19:33Z</time></trkpt><trkpt lat="44.74389888056222" lon="9.894505007918468"><ele>361.6666666666667</ele><time>2026-04-19T07:19:34Z</time></trkpt><trkpt lat="44.743974389666604" lon="9.894434448247507"><ele>361.0</ele><time>2026-04-19T07:19:35Z</time></trkpt><trkpt lat="44.7440519217221" lon="9.894369005925759"><ele>360.33333333333337</ele><time>2026-04-19T07:19:36Z</time></trkpt><trkpt lat="44.74412166676134" lon="9.894343204174561"><ele>359.6666666666667</ele><time>2026-04-19T07:19:37Z</time></trkpt><trkpt lat="44.74420559407523" lon="9.894354227472968"><ele>359.0</ele><time>2026-04-19T07:19:38Z</time></trkpt><trkpt lat="44.74429849084666" lon="9.894395334186989"><ele>359.0</ele><time>2026-04-19T07:19:39Z</time></trkpt><trkpt lat="44.74435941688899" lon="9.894487940849976"><ele>359.0</ele><time>2026-04-19T07:19:40Z</time></trkpt><trkpt lat="44.74440499364734" lon="9.894602681616997"><ele>359.0</ele><time>2026-04-19T07:19:41Z</time></trkpt><trkpt lat="44.74445543147009" lon="9.89472571180234"><ele>359.0</ele><time>2026-04-19T07:19:42Z</time></trkpt><trkpt lat="44.74451389437613" lon="9.894828369946389"><ele>359.0</ele><time>2026-04-19T07:19:43Z</time></trkpt><trkpt lat="44.74457695243664" lon="9.894918463329084"><ele>359.4</ele><time>2026-04-19T07:19:44Z</time></trkpt><trkpt lat="44.74464217641756" lon="9.89500314710738"><ele>359.79999999999995</ele><time>2026-04-19T07:19:45Z</time></trkpt><trkpt lat="44.744710636474984" lon="9.895077572903672"><ele>360.20000000000005</ele><time>2026-04-19T07:19:46Z</time></trkpt><trkpt lat="44.744797903607655" lon="9.895128446440296"><ele>360.6</ele><time>2026-04-19T07:19:46.999Z</time></trkpt><trkpt lat="44.74490148065055" lon="9.895149170415179"><ele>361.0</ele><time>2026-04-19T07:19:47.999Z</time></trkpt><trkpt lat="44.74500456796281" lon="9.895146611387222"><ele>359.20000000000005</ele><time>2026-04-19T07:19:48.999Z</time></trkpt><trkpt lat="44.74509283014285" lon="9.895132902648355"><ele>357.40000000000003</ele><time>2026-04-19T07:19:49.999Z</time></trkpt><trkpt lat="44.74518520722672" lon="9.895112550391271"><ele>355.6</ele><time>2026-04-19T07:19:50.999Z</time></trkpt><trkpt lat="44.7452772060605" lon="9.895068329020114"><ele>353.8</ele><time>2026-04-19T07:19:51.999Z</time></trkpt><trkpt lat="44.7453564601267" lon="9.894980067986113"><ele>352.0</ele><time>2026-04-19T07:19:52.999Z</time></trkpt><trkpt lat="44.74541509317699" lon="9.894865847438007"><ele>352.0</ele><time>2026-04-19T07:19:53.999Z</time></trkpt><trkpt lat="44.74544464288795" lon="9.894745522844316"><ele>352.0</ele><time>2026-04-19T07:19:54.999Z</time></trkpt><trkpt lat="44.74544348250093" lon="9.89461191681568"><ele>352.0</ele><time>2026-04-19T07:19:55.999Z</time></trkpt><trkpt lat="44.745413629652774" lon="9.894463416717116"><ele>352.0</ele><time>2026-04-19T07:19:56.999Z</time></trkpt><trkpt lat="44.74538596464619" lon="9.894318822856844"><ele>352.0</ele><time>2026-04-19T07:19:57.999Z</time></trkpt><trkpt lat="44.74537965973616" lon="9.894202022958089"><ele>353.8</ele><time>2026-04-19T07:19:58.999Z</time></trkpt><trkpt lat="44.74539286641891" lon="9.89410407363588"><ele>355.6</ele><time>2026-04-19T07:19:59.999Z</time></trkpt><trkpt lat="44.74542931872147" lon="9.89401966121107"><ele>357.40000000000003</ele><time>2026-04-19T07:20:00.999Z</time></trkpt><trkpt lat="44.74549784866875" lon="9.893938378956756"><ele>359.20000000000005</ele><time>2026-04-19T07:20:01.999Z</time></trkpt><trkpt lat="44.74560265095849" lon="9.893884324573543"><ele>361.0</ele><time>2026-04-19T07:20:02.999Z</time></trkpt><trkpt lat="44.74572726334879" lon="9.893859304651096"><ele>361.0</ele><time>2026-04-19T07:20:03.999Z</time></trkpt><trkpt lat="44.745842696646335" lon="9.893834752933358"><ele>361.0</ele><time>2026-04-19T07:20:04.999Z</time></trkpt><trkpt lat="44.745946420948975" lon="9.8937991678044"><ele>361.0</ele><time>2026-04-19T07:20:05.999Z</time></trkpt><trkpt lat="44.746056499921394" lon="9.893747003191246"><ele>361.0</ele><time>2026-04-19T07:20:06.999Z</time></trkpt><trkpt lat="44.746155308400574" lon="9.893658369321004"><ele>359.4</ele><time>2026-04-19T07:20:07.999Z</time></trkpt><trkpt lat="44.74623005586523" lon="9.893546032696745"><ele>357.8</ele><time>2026-04-19T07:20:08.999Z</time></trkpt><trkpt lat="44.74629123044118" lon="9.893422804675206"><ele>356.2</ele><time>2026-04-19T07:20:09.999Z</time></trkpt><trkpt lat="44.74634880723296" lon="9.893306771962541"><ele>354.59999999999997</ele><time>2026-04-19T07:20:10.999Z</time></trkpt><trkpt lat="44.74641267489744" lon="9.893223844211944"><ele>353.0</ele><time>2026-04-19T07:20:11.999Z</time></trkpt><trkpt lat="44.74648933887336" lon="9.893186148644027"><ele>353.0</ele><time>2026-04-19T07:20:12.999Z</time></trkpt><trkpt lat="44.74657219338503" lon="9.893207206756419"><ele>353.0</ele><time>2026-04-19T07:20:13.999Z</time></trkpt><trkpt lat="44.746656270960344" lon="9.893290984664317"><ele>353.0</ele><time>2026-04-19T07:20:14.999Z</time></trkpt><trkpt lat="44.746733598077654" lon="9.893432641848703"><ele>353.0</ele><time>2026-04-19T07:20:15.999Z</time></trkpt><trkpt lat="44.746800066320596" lon="9.893604024647237"><ele>352.2</ele><time>2026-04-19T07:20:16.999Z</time></trkpt><trkpt lat="44.74685607587473" lon="9.893769375709315"><ele>351.4</ele><time>2026-04-19T07:20:17.999Z</time></trkpt><trkpt lat="44.74691371954515" lon="9.893901427088299"><ele>350.59999999999997</ele><time>2026-04-19T07:20:18.999Z</time></trkpt><trkpt lat="44.746965647188404" lon="9.89400467565068"><ele>349.79999999999995</ele><time>2026-04-19T07:20:19.999Z</time></trkpt><trkpt lat="44.746998378973096" lon="9.894089102655721"><ele>349.0</ele><time>2026-04-19T07:20:20.999Z</time></trkpt><trkpt lat="44.74701068518883" lon="9.894186929030022"><ele>352.6</ele><time>2026-04-19T07:20:21.999Z</time></trkpt><trkpt lat="44.74699528327598" lon="9.894286555740177"><ele>356.2</ele><time>2026-04-19T07:20:22.999Z</time></trkpt><trkpt lat="44.74695651529778" lon="9.894387073739724"><ele>359.8</ele><time>2026-04-19T07:20:23.999Z</time></trkpt><trkpt lat="44.7469256960578" lon="9.89447672040184"><ele>363.40000000000003</ele><time>2026-04-19T07:20:24.999Z</time></trkpt><trkpt lat="44.747015459597364" lon="9.894630760836694"><ele>367.0</ele><time>2026-04-19T07:20:26.999Z</time></trkpt><trkpt lat="44.747117262042536" lon="9.89468220294646"><ele>367.0</ele><time>2026-04-19T07:20:27.999Z</time></trkpt><trkpt lat="44.74722058569197" lon="9.894725537668402"><ele>367.0</ele><time>2026-04-19T07:20:28.999Z</time></trkpt><trkpt lat="44.74732853196773" lon="9.894809735771734"><ele>367.0</ele><time>2026-04-19T07:20:29.999Z</time></trkpt><trkpt lat="44.74741234029801" lon="9.894941603300438"><ele>367.0</ele><time>2026-04-19T07:20:30.999Z</time></trkpt><trkpt lat="44.74750875198773" lon="9.895045591978633"><ele>372.25</ele><time>2026-04-19T07:20:31.999Z</time></trkpt><trkpt lat="44.74761542512688" lon="9.895094508216157"><ele>377.5</ele><time>2026-04-19T07:20:32.999Z</time></trkpt><trkpt lat="44.747722427030254" lon="9.895106628928476"><ele>382.75</ele><time>2026-04-19T07:20:33.999Z</time></trkpt><trkpt lat="44.74783377958682" lon="9.895144322838254"><ele>388.0</ele><time>2026-04-19T07:20:34.999Z</time></trkpt><trkpt lat="44.74795290069416" lon="9.895161102429945"><ele>389.59999999999997</ele><time>2026-04-19T07:20:35.999Z</time></trkpt><trkpt lat="44.74807981147598" lon="9.8952017819648"><ele>391.2</ele><time>2026-04-19T07:20:36.999Z</time></trkpt><trkpt lat="44.74819360485405" lon="9.895232297520582"><ele>392.8</ele><time>2026-04-19T07:20:37.999Z</time></trkpt><trkpt lat="44.74829022169988" lon="9.89524335113358"><ele>394.4</ele><time>2026-04-19T07:20:38.999Z</time></trkpt><trkpt lat="44.74838930871939" lon="9.895226666385348"><ele>396.0</ele><time>2026-04-19T07:20:39.999Z</time></trkpt><trkpt lat="44.74849020385539" lon="9.895198456703513"><ele>397.20000000000005</ele><time>2026-04-19T07:20:40.999Z</time></trkpt><trkpt lat="44.74859568987415" lon="9.895180751652267"><ele>398.40000000000003</ele><time>2026-04-19T07:20:41.999Z</time></trkpt><trkpt lat="44.74869826449058" lon="9.895210038469875"><ele>399.6</ele><time>2026-04-19T07:20:42.999Z</time></trkpt><trkpt lat="44.74878645036568" lon="9.895223317268334"><ele>400.8</ele><time>2026-04-19T07:20:43.999Z</time></trkpt><trkpt lat="44.7488739564764" lon="9.895164341986488"><ele>402.0</ele><time>2026-04-19T07:20:44.999Z</time></trkpt><trkpt lat="44.74893946648571" lon="9.895055251757569"><ele>398.0</ele><time>2026-04-19T07:20:45.999Z</time></trkpt><trkpt lat="44.74898119007071" lon="9.894914676484179"><ele>394.0</ele><time>2026-04-19T07:20:46.999Z</time></trkpt><trkpt lat="44.74901755626754" lon="9.894762354103015"><ele>390.0</ele><time>2026-04-19T07:20:47.999Z</time></trkpt><trkpt lat="44.74907231361948" lon="9.894605780662843"><ele>386.0</ele><time>2026-04-19T07:20:48.999Z</time></trkpt><trkpt lat="44.749154137222426" lon="9.894461646171017"><ele>386.0</ele><time>2026-04-19T07:20:49.999Z</time></trkpt><trkpt lat="44.74925275294175" lon="9.894355530942038"><ele>386.0</ele><time>2026-04-19T07:20:50.999Z</time></trkpt><trkpt lat="44.74936297964734" lon="9.894267167562747"><ele>386.0</ele><time>2026-04-19T07:20:51.999Z</time></trkpt><trkpt lat="44.74948371098873" lon="9.894160941813169"><ele>386.0</ele><time>2026-04-19T07:20:52.999Z</time></trkpt><trkpt lat="44.749587731331935" lon="9.894046471817102"><ele>389.5</ele><time>2026-04-19T07:20:53.999Z</time></trkpt><trkpt lat="44.7496750245402" lon="9.89395103787512"><ele>393.0</ele><time>2026-04-19T07:20:54.999Z</time></trkpt><trkpt lat="44.74976818966341" lon="9.8938830806683"><ele>396.5</ele><time>2026-04-19T07:20:55.999Z</time></trkpt><trkpt lat="44.74987568062485" lon="9.893812762342067"><ele>400.0</ele><time>2026-04-19T07:20:57Z</time></trkpt><trkpt lat="44.74998966052848" lon="9.893744964537218"><ele>400.0</ele><time>2026-04-19T07:20:58Z</time></trkpt><trkpt lat="44.75008905636499" lon="9.893697277294645"><ele>400.0</ele><time>2026-04-19T07:20:59Z</time></trkpt><trkpt lat="44.75018530932926" lon="9.893666301653077"><ele>400.0</ele><time>2026-04-19T07:21:00Z</time></trkpt><trkpt lat="44.75030253502086" lon="9.893658885826177"><ele>400.0</ele><time>2026-04-19T07:21:01Z</time></trkpt><trkpt lat="44.750429168980084" lon="9.893651640298943"><ele>400.0</ele><time>2026-04-19T07:21:02Z</time></trkpt><trkpt lat="44.750546909421615" lon="9.893609956964458"><ele>398.0</ele><time>2026-04-19T07:21:03Z</time></trkpt><trkpt lat="44.750641681256695" lon="9.893527411591123"><ele>396.0</ele><time>2026-04-19T07:21:04Z</time></trkpt><trkpt lat="44.750728540153865" lon="9.89340630116723"><ele>394.0</ele><time>2026-04-19T07:21:05Z</time></trkpt><trkpt lat="44.75081485106916" lon="9.893292665560784"><ele>392.0</ele><time>2026-04-19T07:21:06Z</time></trkpt><trkpt lat="44.750910110796774" lon="9.893233228704466"><ele>392.0</ele><time>2026-04-19T07:21:07Z</time></trkpt><trkpt lat="44.750997502632266" lon="9.893214477752078"><ele>392.0</ele><time>2026-04-19T07:21:08Z</time></trkpt><trkpt lat="44.7510846027741" lon="9.89323622020533"><ele>392.0</ele><time>2026-04-19T07:21:09Z</time></trkpt><trkpt lat="44.751171069608866" lon="9.893294553561754"><ele>392.0</ele><time>2026-04-19T07:21:10Z</time></trkpt><trkpt lat="44.75124765686535" lon="9.893358836339843"><ele>392.0</ele><time>2026-04-19T07:21:11Z</time></trkpt><trkpt lat="44.751331038787555" lon="9.893405276916749"><ele>395.40000000000003</ele><time>2026-04-19T07:21:12Z</time></trkpt><trkpt lat="44.75142318953749" lon="9.893423400726565"><ele>398.8</ele><time>2026-04-19T07:21:13Z</time></trkpt><trkpt lat="44.75151381074008" lon="9.893408279517148"><ele>402.2</ele><time>2026-04-19T07:21:14Z</time></trkpt><trkpt lat="44.75159302386009" lon="9.89333813620251"><ele>405.6</ele><time>2026-04-19T07:21:15Z</time></trkpt><trkpt lat="44.75165625267837" lon="9.893225180133435"><ele>409.0</ele><time>2026-04-19T07:21:16Z</time></trkpt><trkpt lat="44.75171809501014" lon="9.893109598512948"><ele>409.0</ele><time>2026-04-19T07:21:17Z</time></trkpt><trkpt lat="44.75179864448227" lon="9.893063234697523"><ele>409.0</ele><time>2026-04-19T07:21:18Z</time></trkpt><trkpt lat="44.75189734242214" lon="9.893048458936057"><ele>409.0</ele><time>2026-04-19T07:21:19Z</time></trkpt><trkpt lat="44.75201117986159" lon="9.893039205569746"><ele>409.0</ele><time>2026-04-19T07:21:20Z</time></trkpt><trkpt lat="44.75212184040315" lon="9.892978908982588"><ele>409.0</ele><time>2026-04-19T07:21:21Z</time></trkpt><trkpt lat="44.752223475608744" lon="9.892857484829928"><ele>408.79999999999995</ele><time>2026-04-19T07:21:22Z</time></trkpt><trkpt lat="44.75231371162488" lon="9.892719501203333"><ele>408.59999999999997</ele><time>2026-04-19T07:21:23Z</time></trkpt><trkpt lat="44.75238464323525" lon="9.892583013615402"><ele>408.4</ele><time>2026-04-19T07:21:24Z</time></trkpt><trkpt lat="44.75245373851253" lon="9.892481917897108"><ele>408.2</ele><time>2026-04-19T07:21:25Z</time></trkpt><trkpt lat="44.75252645996467" lon="9.892402954171812"><ele>408.0</ele><time>2026-04-19T07:21:26Z</time></trkpt><trkpt lat="44.75261386191235" lon="9.892350316886052"><ele>408.75</ele><time>2026-04-19T07:21:27Z</time></trkpt><trkpt lat="44.752714499908365" lon="9.892339190413217"><ele>409.5</ele><time>2026-04-19T07:21:28Z</time></trkpt><trkpt lat="44.75282562091125" lon="9.89237899286402"><ele>410.25</ele><time>2026-04-19T07:21:29Z</time></trkpt><trkpt lat="44.752940681902224" lon="9.892433228682066"><ele>411.0</ele><time>2026-04-19T07:21:30Z</time></trkpt><trkpt lat="44.75306266515262" lon="9.892478790401379"><ele>411.0</ele><time>2026-04-19T07:21:31Z</time></trkpt><trkpt lat="44.753186175809226" lon="9.892518012738947"><ele>411.0</ele><time>2026-04-19T07:21:32Z</time></trkpt><trkpt lat="44.75328365508744" lon="9.892560670055559"><ele>411.0</ele><time>2026-04-19T07:21:33Z</time></trkpt><trkpt lat="44.753354616700875" lon="9.892626759206399"><ele>411.0</ele><time>2026-04-19T07:21:34Z</time></trkpt><trkpt lat="44.753419969135706" lon="9.892703277873181"><ele>411.0</ele><time>2026-04-19T07:21:35Z</time></trkpt><trkpt lat="44.75347697023261" lon="9.892766201829131"><ele>413.8</ele><time>2026-04-19T07:21:36Z</time></trkpt><trkpt lat="44.75353961513729" lon="9.892834291011882"><ele>416.6</ele><time>2026-04-19T07:21:38Z</time></trkpt><trkpt lat="44.75357041784708" lon="9.892929424907104"><ele>419.4</ele><time>2026-04-19T07:22:00.999Z</time></trkpt><trkpt lat="44.75349818468116" lon="9.8929486701014"><ele>422.2</ele><time>2026-04-19T07:22:02.999Z</time></trkpt><trkpt lat="44.75339207351666" lon="9.892804778169083"><ele>425.0</ele><time>2026-04-19T07:22:04.999Z</time></trkpt><trkpt lat="44.75331190518248" lon="9.89271209211305"><ele>427.2</ele><time>2026-04-19T07:22:05.999Z</time></trkpt><trkpt lat="44.75323570560958" lon="9.892666499318521"><ele>429.4</ele><time>2026-04-19T07:22:06.999Z</time></trkpt><trkpt lat="44.75315310455414" lon="9.892631754861357"><ele>431.6</ele><time>2026-04-19T07:22:07.999Z</time></trkpt><trkpt lat="44.753053296715585" lon="9.892598574594153"><ele>433.8</ele><time>2026-04-19T07:22:08.999Z</time></trkpt><trkpt lat="44.75294228381515" lon="9.892584759018684"><ele>436.0</ele><time>2026-04-19T07:22:09.999Z</time></trkpt><trkpt lat="44.752851818885624" lon="9.892580297421343"><ele>435.6</ele><time>2026-04-19T07:22:10.999Z</time></trkpt><trkpt lat="44.75278638994644" lon="9.892587524025423"><ele>435.20000000000005</ele><time>2026-04-19T07:22:11.999Z</time></trkpt><trkpt lat="44.75267279172779" lon="9.892645083318659"><ele>434.79999999999995</ele><time>2026-04-19T07:22:13.999Z</time></trkpt><trkpt lat="44.75262743711563" lon="9.892720669989663"><ele>434.4</ele><time>2026-04-19T07:22:14.999Z</time></trkpt><trkpt lat="44.752574050785356" lon="9.892840959357027"><ele>434.0</ele><time>2026-04-19T07:22:15.999Z</time></trkpt><trkpt lat="44.75250797942529" lon="9.89296195057589"><ele>434.0</ele><time>2026-04-19T07:22:16.999Z</time></trkpt><trkpt lat="44.75245110005264" lon="9.893063094003917"><ele>434.0</ele><time>2026-04-19T07:22:17.999Z</time></trkpt><trkpt lat="44.75239776929333" lon="9.893182637094046"><ele>434.0</ele><time>2026-04-19T07:22:18.999Z</time></trkpt><trkpt lat="44.75235645347493" lon="9.89334492682581"><ele>434.0</ele><time>2026-04-19T07:22:19.999Z</time></trkpt><trkpt lat="44.752311763748395" lon="9.893504109632678"><ele>434.0</ele><time>2026-04-19T07:22:20.999Z</time></trkpt><trkpt lat="44.75225935355052" lon="9.893616184494215"><ele>434.8333333333333</ele><time>2026-04-19T07:22:21.999Z</time></trkpt><trkpt lat="44.75219566785807" lon="9.893703039888042"><ele>435.66666666666663</ele><time>2026-04-19T07:22:22.999Z</time></trkpt><trkpt lat="44.75212270930842" lon="9.893760332335539"><ele>436.5</ele><time>2026-04-19T07:22:23.999Z</time></trkpt><trkpt lat="44.75205477097161" lon="9.893783995760694"><ele>437.33333333333337</ele><time>2026-04-19T07:22:24.999Z</time></trkpt><trkpt lat="44.7519695191452" lon="9.893796624064555"><ele>438.1666666666667</ele><time>2026-04-19T07:22:25.999Z</time></trkpt><trkpt lat="44.75186347054248" lon="9.893785225241068"><ele>439.0</ele><time>2026-04-19T07:22:26.999Z</time></trkpt><trkpt lat="44.75175979508832" lon="9.893778053981348"><ele>439.0</ele><time>2026-04-19T07:22:27.999Z</time></trkpt><trkpt lat="44.75168524144343" lon="9.893819173954661"><ele>439.0</ele><time>2026-04-19T07:22:28.999Z</time></trkpt><trkpt lat="44.7516026216527" lon="9.893898835752491"><ele>439.0</ele><time>2026-04-19T07:22:29.999Z</time></trkpt><trkpt lat="44.75152361287553" lon="9.89397058915536"><ele>439.0</ele><time>2026-04-19T07:22:30.999Z</time></trkpt><trkpt lat="44.751455810794525" lon="9.893998687938806"><ele>439.0</ele><time>2026-04-19T07:22:31.999Z</time></trkpt><trkpt lat="44.75135008903924" lon="9.893961855553613"><ele>439.0</ele><time>2026-04-19T07:22:32.999Z</time></trkpt><trkpt lat="44.75121691627731" lon="9.893886500473954"><ele>439.0</ele><time>2026-04-19T07:22:33.999Z</time></trkpt><trkpt lat="44.751136423207655" lon="9.893818749865995"><ele>439.0</ele><time>2026-04-19T07:22:34.999Z</time></trkpt><trkpt lat="44.751020496564365" lon="9.893854635339437"><ele>439.0</ele><time>2026-04-19T07:22:36.999Z</time></trkpt><trkpt lat="44.75095022222997" lon="9.89394428198274"><ele>436.6</ele><time>2026-04-19T07:22:37.999Z</time></trkpt><trkpt lat="44.750869845288804" lon="9.894094959348886"><ele>434.2</ele><time>2026-04-19T07:22:38.999Z</time></trkpt><trkpt lat="44.750780807701695" lon="9.894185847599712"><ele>431.80000000000007</ele><time>2026-04-19T07:22:39.999Z</time></trkpt><trkpt lat="44.750655507092574" lon="9.894177513012066"><ele>429.40000000000003</ele><time>2026-04-19T07:22:41.999Z</time></trkpt><trkpt lat="44.75058058362669" lon="9.89420084550674"><ele>427.0</ele><time>2026-04-19T07:22:42.999Z</time></trkpt><trkpt lat="44.75051035420749" lon="9.894276154877328"><ele>426.5</ele><time>2026-04-19T07:22:43.999Z</time></trkpt><trkpt lat="44.75045763973245" lon="9.894413993585951"><ele>426.0</ele><time>2026-04-19T07:22:44.999Z</time></trkpt><trkpt lat="44.750372513710694" lon="9.894551373433696"><ele>425.5</ele><time>2026-04-19T07:22:45.999Z</time></trkpt><trkpt lat="44.75028924685462" lon="9.894666940707609"><ele>425.0</ele><time>2026-04-19T07:22:46.999Z</time></trkpt><trkpt lat="44.75017851719634" lon="9.894765833994574"><ele>425.0</ele><time>2026-04-19T07:22:47.999Z</time></trkpt><trkpt lat="44.750095739247136" lon="9.894864663399956"><ele>425.0</ele><time>2026-04-19T07:22:48.999Z</time></trkpt><trkpt lat="44.75002045779579" lon="9.89497670657483"><ele>425.0</ele><time>2026-04-19T07:22:49.999Z</time></trkpt><trkpt lat="44.74994669152095" lon="9.895085240079604"><ele>425.0</ele><time>2026-04-19T07:22:50.999Z</time></trkpt><trkpt lat="44.74987979115149" lon="9.895214518670784"><ele>425.0</ele><time>2026-04-19T07:22:51.999Z</time></trkpt><trkpt lat="44.749834128524476" lon="9.895323039527645"><ele>428.25</ele><time>2026-04-19T07:22:52.999Z</time></trkpt><trkpt lat="44.74980184639963" lon="9.895432112964112"><ele>431.5</ele><time>2026-04-19T07:22:53.999Z</time></trkpt><trkpt lat="44.74978078340851" lon="9.89557354001399"><ele>434.75</ele><time>2026-04-19T07:22:54.999Z</time></trkpt><trkpt lat="44.749758114801864" lon="9.895752177547331"><ele>438.0</ele><time>2026-04-19T07:22:55.999Z</time></trkpt><trkpt lat="44.74974164430106" lon="9.89597114303744"><ele>439.0</ele><time>2026-04-19T07:22:56.999Z</time></trkpt><trkpt lat="44.74972816436697" lon="9.8961774391902"><ele>440.0</ele><time>2026-04-19T07:22:57.999Z</time></trkpt><trkpt lat="44.74971980523935" lon="9.896343061501868"><ele>441.0</ele><time>2026-04-19T07:22:58.999Z</time></trkpt><trkpt lat="44.74971434906962" lon="9.896479803741212"><ele>442.0</ele><time>2026-04-19T07:22:59.999Z</time></trkpt><trkpt lat="44.7497006375062" lon="9.896610321337361"><ele>442.0</ele><time>2026-04-19T07:23:00.999Z</time></trkpt><trkpt lat="44.749679468077" lon="9.896719814309709"><ele>442.00000000000006</ele><time>2026-04-19T07:23:02Z</time></trkpt><trkpt lat="44.74963852514533" lon="9.896817131097"><ele>442.00000000000006</ele><time>2026-04-19T07:23:03Z</time></trkpt><trkpt lat="44.74957736914888" lon="9.896922548332858"><ele>442.0</ele><time>2026-04-19T07:23:04Z</time></trkpt><trkpt lat="44.749512050407475" lon="9.896997806558709"><ele>442.0</ele><time>2026-04-19T07:23:05Z</time></trkpt><trkpt lat="44.74935633724138" lon="9.897032202273332"><ele>444.25</ele><time>2026-04-19T07:23:07Z</time></trkpt><trkpt lat="44.74923139214598" lon="9.897029143639074"><ele>446.5</ele><time>2026-04-19T07:23:08Z</time></trkpt><trkpt lat="44.749111271654485" lon="9.89698270365965"><ele>448.75</ele><time>2026-04-19T07:23:09Z</time></trkpt><trkpt lat="44.74899726948508" lon="9.896902575462416"><ele>451.0</ele><time>2026-04-19T07:23:10Z</time></trkpt><trkpt lat="44.7489093657946" lon="9.896839151768365"><ele>451.0</ele><time>2026-04-19T07:23:11Z</time></trkpt><trkpt lat="44.74881735969924" lon="9.89675408742565"><ele>451.0</ele><time>2026-04-19T07:23:12Z</time></trkpt><trkpt lat="44.748723167017125" lon="9.896672317705365"><ele>451.0</ele><time>2026-04-19T07:23:13Z</time></trkpt><trkpt lat="44.74864887013377" lon="9.896573298580993"><ele>451.0</ele><time>2026-04-19T07:23:14Z</time></trkpt><trkpt lat="44.748568549947386" lon="9.8964730742548"><ele>451.0</ele><time>2026-04-19T07:23:15Z</time></trkpt><trkpt lat="44.74847752715764" lon="9.896374624601178"><ele>446.83333333333337</ele><time>2026-04-19T07:23:16Z</time></trkpt><trkpt lat="44.74839227911762" lon="9.89627863276993"><ele>442.6666666666667</ele><time>2026-04-19T07:23:17Z</time></trkpt><trkpt lat="44.74831898095477" lon="9.896229256162789"><ele>438.5</ele><time>2026-04-19T07:23:18Z</time></trkpt><trkpt lat="44.74823239318215" lon="9.896213309713307"><ele>434.33333333333337</ele><time>2026-04-19T07:23:19Z</time></trkpt><trkpt lat="44.74815636589251" lon="9.896223037478402"><ele>430.1666666666667</ele><time>2026-04-19T07:23:20Z</time></trkpt><trkpt lat="44.748105884412524" lon="9.896296627268333"><ele>426.0</ele><time>2026-04-19T07:23:21Z</time></trkpt><trkpt lat="44.74807797593994" lon="9.896411251935605"><ele>426.0</ele><time>2026-04-19T07:23:22Z</time></trkpt><trkpt lat="44.74807835290257" lon="9.896542926232712"><ele>426.0</ele><time>2026-04-19T07:23:23Z</time></trkpt><trkpt lat="44.748092129654545" lon="9.896690624025835"><ele>426.0</ele><time>2026-04-19T07:23:24Z</time></trkpt><trkpt lat="44.74810861059209" lon="9.896846982322584"><ele>426.0</ele><time>2026-04-19T07:23:25Z</time></trkpt><trkpt lat="44.74810734504764" lon="9.896994205921297"><ele>426.0</ele><time>2026-04-19T07:23:26Z</time></trkpt><trkpt lat="44.748077802310505" lon="9.897138458227698"><ele>429.6</ele><time>2026-04-19T07:23:27Z</time></trkpt><trkpt lat="44.748050862737124" lon="9.897299249134296"><ele>433.20000000000005</ele><time>2026-04-19T07:23:28Z</time></trkpt><trkpt lat="44.7480500251342" lon="9.897440975067619"><ele>436.79999999999995</ele><time>2026-04-19T07:23:29Z</time></trkpt><trkpt lat="44.748076099858196" lon="9.897589431547146"><ele>440.4</ele><time>2026-04-19T07:23:30Z</time></trkpt><trkpt lat="44.74808987473473" lon="9.897726282064637"><ele>444.0</ele><time>2026-04-19T07:23:31Z</time></trkpt><trkpt lat="44.74810093894854" lon="9.897869209440692"><ele>444.0</ele><time>2026-04-19T07:23:32Z</time></trkpt><trkpt lat="44.74809932327815" lon="9.89798957306081"><ele>444.0</ele><time>2026-04-19T07:23:33Z</time></trkpt><trkpt lat="44.74807905138915" lon="9.898111828579248"><ele>444.0</ele><time>2026-04-19T07:23:34Z</time></trkpt><trkpt lat="44.74803572646126" lon="9.898258001411989"><ele>444.0</ele><time>2026-04-19T07:23:35Z</time></trkpt><trkpt lat="44.747991575498496" lon="9.898409539378966"><ele>444.0</ele><time>2026-04-19T07:23:36Z</time></trkpt><trkpt lat="44.7479433534154" lon="9.898562843623921"><ele>444.0</ele><time>2026-04-19T07:23:37Z</time></trkpt><trkpt lat="44.74791466229815" lon="9.898692068929657"><ele>444.0</ele><time>2026-04-19T07:23:38Z</time></trkpt><trkpt lat="44.747885066014405" lon="9.898830670602804"><ele>444.0</ele><time>2026-04-19T07:23:39Z</time></trkpt><trkpt lat="44.747851729810776" lon="9.898950274225562"><ele>444.0</ele><time>2026-04-19T07:23:40Z</time></trkpt><trkpt lat="44.74780362470531" lon="9.899057883835319"><ele>444.0</ele><time>2026-04-19T07:23:41Z</time></trkpt><trkpt lat="44.74778946468613" lon="9.89920796610738"><ele>444.0</ele><time>2026-04-19T07:23:42.999Z</time></trkpt><trkpt lat="44.747717525428456" lon="9.899190345459942"><ele>444.0</ele><time>2026-04-19T07:23:44.999Z</time></trkpt><trkpt lat="44.74766279243599" lon="9.89914028252066"><ele>444.0</ele><time>2026-04-19T07:23:45.999Z</time></trkpt><trkpt lat="44.747641785423404" lon="9.899048193860118"><ele>444.0</ele><time>2026-04-19T07:23:46.999Z</time></trkpt><trkpt lat="44.7476158132465" lon="9.8989143007561"><ele>444.0</ele><time>2026-04-19T07:23:48.999Z</time></trkpt><trkpt lat="44.747537458364846" lon="9.89891364808863"><ele>444.0</ele><time>2026-04-19T07:23:56.999Z</time></trkpt><trkpt lat="44.74745594636147" lon="9.898907926985835"><ele>443.6666666666667</ele><time>2026-04-19T07:23:59.999Z</time></trkpt><trkpt lat="44.74735643569782" lon="9.898871373303603"><ele>443.33333333333337</ele><time>2026-04-19T07:24:01.999Z</time></trkpt><trkpt lat="44.74726682567783" lon="9.898840189707979"><ele>443.0</ele><time>2026-04-19T07:24:03.999Z</time></trkpt><trkpt lat="44.747209273102115" lon="9.898745950986731"><ele>442.6666666666667</ele><time>2026-04-19T07:24:04.999Z</time></trkpt><trkpt lat="44.74716841666468" lon="9.898637152095674"><ele>442.33333333333337</ele><time>2026-04-19T07:24:05.999Z</time></trkpt><trkpt lat="44.747153044609774" lon="9.8985412866948"><ele>442.0</ele><time>2026-04-19T07:24:06.999Z</time></trkpt><trkpt lat="44.747097466784766" lon="9.898427677616482"><ele>440.83333333333337</ele><time>2026-04-19T07:24:07.999Z</time></trkpt><trkpt lat="44.74703564690898" lon="9.898342675582652"><ele>439.6666666666667</ele><time>2026-04-19T07:24:08.999Z</time></trkpt><trkpt lat="44.7469619585825" lon="9.898247117480986"><ele>438.5</ele><time>2026-04-19T07:24:09.999Z</time></trkpt><trkpt lat="44.74692283745455" lon="9.89816081567772"><ele>437.33333333333337</ele><time>2026-04-19T07:24:10.999Z</time></trkpt><trkpt lat="44.746902511765555" lon="9.898054856811255"><ele>436.1666666666667</ele><time>2026-04-19T07:24:11.999Z</time></trkpt><trkpt lat="44.74683187473902" lon="9.897983328720873"><ele>435.0</ele><time>2026-04-19T07:24:13.999Z</time></trkpt><trkpt lat="44.74668649908185" lon="9.898056144360895"><ele>435.0</ele><time>2026-04-19T07:24:15.999Z</time></trkpt><trkpt lat="44.746599842462295" lon="9.89813238981272"><ele>435.0</ele><time>2026-04-19T07:24:16.999Z</time></trkpt><trkpt lat="44.746518575501675" lon="9.898181071121291"><ele>435.0</ele><time>2026-04-19T07:24:17.999Z</time></trkpt><trkpt lat="44.746433673645505" lon="9.898235725882996"><ele>435.0</ele><time>2026-04-19T07:24:18.999Z</time></trkpt><trkpt lat="44.746365135723714" lon="9.898311744408417"><ele>435.0</ele><time>2026-04-19T07:24:19.999Z</time></trkpt><trkpt lat="44.74629081651924" lon="9.898393552359826"><ele>435.0</ele><time>2026-04-19T07:24:20.999Z</time></trkpt><trkpt lat="44.746239016533444" lon="9.898462879076229"><ele>435.0</ele><time>2026-04-19T07:24:21.999Z</time></trkpt><trkpt lat="44.74610795379122" lon="9.898471881198844"><ele>435.0</ele><time>2026-04-19T07:24:23.999Z</time></trkpt><trkpt lat="44.746032596019404" lon="9.898461128922806"><ele>435.0</ele><time>2026-04-19T07:24:24.999Z</time></trkpt><trkpt lat="44.7459606126156" lon="9.89849404756159"><ele>435.0</ele><time>2026-04-19T07:24:25.999Z</time></trkpt><trkpt lat="44.74588140937901" lon="9.898558218712987"><ele>435.0</ele><time>2026-04-19T07:24:26.999Z</time></trkpt><trkpt lat="44.74580340801708" lon="9.898631798047104"><ele>435.0</ele><time>2026-04-19T07:24:27.999Z</time></trkpt><trkpt lat="44.74573861791181" lon="9.898703981293533"><ele>435.0</ele><time>2026-04-19T07:24:28.999Z</time></trkpt><trkpt lat="44.745692416671446" lon="9.898765004590894"><ele>435.0</ele><time>2026-04-19T07:24:29.999Z</time></trkpt><trkpt lat="44.74566544842829" lon="9.898884920447031"><ele>435.0</ele><time>2026-04-19T07:24:31.999Z</time></trkpt><trkpt lat="44.745685696224676" lon="9.89898140910365"><ele>435.0</ele><time>2026-04-19T07:24:32.999Z</time></trkpt><trkpt lat="44.74572108901128" lon="9.899108361270228"><ele>435.0</ele><time>2026-04-19T07:24:33.999Z</time></trkpt><trkpt lat="44.74575609071025" lon="9.89921707862355"><ele>435.2</ele><time>2026-04-19T07:24:34.999Z</time></trkpt><trkpt lat="44.74580141141232" lon="9.899353490418958"><ele>435.4</ele><time>2026-04-19T07:24:35.999Z</time></trkpt><trkpt lat="44.74584058506368" lon="9.899479806613481"><ele>435.6</ele><time>2026-04-19T07:24:36.999Z</time></trkpt><trkpt lat="44.745870580592296" lon="9.899585187102364"><ele>435.8</ele><time>2026-04-19T07:24:37.999Z</time></trkpt><trkpt lat="44.74591340165363" lon="9.899687746355584"><ele>436.0</ele><time>2026-04-19T07:24:38.999Z</time></trkpt><trkpt lat="44.74595039067325" lon="9.899818630550596"><ele>436.00000000000006</ele><time>2026-04-19T07:24:39.999Z</time></trkpt><trkpt lat="44.74595714013153" lon="9.89994243757885"><ele>436.0</ele><time>2026-04-19T07:24:40.999Z</time></trkpt><trkpt lat="44.74596025400206" lon="9.900050497210042"><ele>436.0</ele><time>2026-04-19T07:24:41.999Z</time></trkpt><trkpt lat="44.745952186597485" lon="9.900154550988805"><ele>436.0</ele><time>2026-04-19T07:24:42.999Z</time></trkpt><trkpt lat="44.74594666189162" lon="9.900243292737244"><ele>436.00000000000006</ele><time>2026-04-19T07:24:43.999Z</time></trkpt><trkpt lat="44.74590331727089" lon="9.900351381524036"><ele>436.0</ele><time>2026-04-19T07:24:47.999Z</time></trkpt><trkpt lat="44.74588531790098" lon="9.900450425224195"><ele>438.50000000000006</ele><time>2026-04-19T07:24:48.999Z</time></trkpt><trkpt lat="44.74583237132275" lon="9.900519005141916"><ele>441.0</ele><time>2026-04-19T07:24:51.999Z</time></trkpt><trkpt lat="44.74579740253758" lon="9.900616572685815"><ele>443.5</ele><time>2026-04-19T07:24:53.999Z</time></trkpt><trkpt lat="44.74572660923409" lon="9.900660422745602"><ele>446.0</ele><time>2026-04-19T07:24:54.999Z</time></trkpt><trkpt lat="44.74561471244863" lon="9.900674225633454"><ele>448.50000000000006</ele><time>2026-04-19T07:24:56.999Z</time></trkpt><trkpt lat="44.74553238447678" lon="9.900666238243346"><ele>451.0</ele><time>2026-04-19T07:25:02.999Z</time></trkpt><trkpt lat="44.74536037733729" lon="9.900596581159562"><ele>451.00000000000006</ele><time>2026-04-19T07:25:04.999Z</time></trkpt><trkpt lat="44.74527495706718" lon="9.900548255609708"><ele>451.0</ele><time>2026-04-19T07:25:05.999Z</time></trkpt><trkpt lat="44.74519403762634" lon="9.900509249968527"><ele>451.0</ele><time>2026-04-19T07:25:06.999Z</time></trkpt><trkpt lat="44.7451115023183" lon="9.900484937044629"><ele>451.0</ele><time>2026-04-19T07:25:08Z</time></trkpt><trkpt lat="44.745047079329495" lon="9.900509512648688"><ele>451.00000000000006</ele><time>2026-04-19T07:25:09Z</time></trkpt><trkpt lat="44.74494562999699" lon="9.90051352756745"><ele>451.0</ele><time>2026-04-19T07:25:10Z</time></trkpt><trkpt lat="44.744875275979005" lon="9.900546148853921"><ele>450.6666666666667</ele><time>2026-04-19T07:25:11Z</time></trkpt><trkpt lat="44.744797539323194" lon="9.900637125268902"><ele>450.33333333333337</ele><time>2026-04-19T07:25:13Z</time></trkpt><trkpt lat="44.744754330278525" lon="9.900725744205616"><ele>450.0</ele><time>2026-04-19T07:25:14Z</time></trkpt><trkpt lat="44.74471860773742" lon="9.900831755293485"><ele>449.66666666666663</ele><time>2026-04-19T07:25:15Z</time></trkpt><trkpt lat="44.74466779444431" lon="9.900940199543292"><ele>449.3333333333333</ele><time>2026-04-19T07:25:16Z</time></trkpt><trkpt lat="44.74462148718871" lon="9.90104494379708"><ele>449.0</ele><time>2026-04-19T07:25:17Z</time></trkpt><trkpt lat="44.744579069442146" lon="9.901160925515507"><ele>451.79999999999995</ele><time>2026-04-19T07:25:18Z</time></trkpt><trkpt lat="44.74454259437176" lon="9.901265738402428"><ele>454.59999999999997</ele><time>2026-04-19T07:25:19Z</time></trkpt><trkpt lat="44.74449921813805" lon="9.901394221306347"><ele>457.4</ele><time>2026-04-19T07:25:21Z</time></trkpt><trkpt lat="44.744537484113536" lon="9.901589982716361"><ele>460.2</ele><time>2026-04-19T07:25:23Z</time></trkpt><trkpt lat="44.744590631990235" lon="9.901718106471359"><ele>463.0</ele><time>2026-04-19T07:25:24Z</time></trkpt><trkpt lat="44.74462868878572" lon="9.90182635897188"><ele>463.83333333333337</ele><time>2026-04-19T07:25:25Z</time></trkpt><trkpt lat="44.74467275182175" lon="9.901937752738352"><ele>464.6666666666667</ele><time>2026-04-19T07:25:26Z</time></trkpt><trkpt lat="44.74471624164488" lon="9.902053445815831"><ele>465.5</ele><time>2026-04-19T07:25:27Z</time></trkpt><trkpt lat="44.74473737639474" lon="9.902161050241185"><ele>466.33333333333337</ele><time>2026-04-19T07:25:28Z</time></trkpt><trkpt lat="44.74472766992119" lon="9.902261880993718"><ele>467.1666666666667</ele><time>2026-04-19T07:25:29Z</time></trkpt><trkpt lat="44.74470031451714" lon="9.902381097598282"><ele>468.0</ele><time>2026-04-19T07:25:30Z</time></trkpt><trkpt lat="44.74465473606396" lon="9.902497955852494"><ele>470.59999999999997</ele><time>2026-04-19T07:25:31Z</time></trkpt><trkpt lat="44.744611479195925" lon="9.902608240417912"><ele>473.19999999999993</ele><time>2026-04-19T07:25:32Z</time></trkpt><trkpt lat="44.744588013700735" lon="9.902705927927174"><ele>475.8</ele><time>2026-04-19T07:25:33Z</time></trkpt><trkpt lat="44.744526096622984" lon="9.902842305518513"><ele>478.4</ele><time>2026-04-19T07:25:35Z</time></trkpt><trkpt lat="44.74443371868349" lon="9.902920297528027"><ele>481.0</ele><time>2026-04-19T07:25:36Z</time></trkpt><trkpt lat="44.74436022629459" lon="9.903003549146433"><ele>476.1666666666667</ele><time>2026-04-19T07:25:37Z</time></trkpt><trkpt lat="44.74432993694174" lon="9.90309577869727"><ele>471.33333333333337</ele><time>2026-04-19T07:25:38Z</time></trkpt><trkpt lat="44.744288294555595" lon="9.90321887371108"><ele>466.5</ele><time>2026-04-19T07:25:39Z</time></trkpt><trkpt lat="44.744256629053396" lon="9.903356846817157"><ele>461.66666666666663</ele><time>2026-04-19T07:25:40Z</time></trkpt><trkpt lat="44.7442340626813" lon="9.903478613663843"><ele>456.8333333333333</ele><time>2026-04-19T07:25:41Z</time></trkpt><trkpt lat="44.74423601668193" lon="9.903568460078555"><ele>452.0</ele><time>2026-04-19T07:25:42Z</time></trkpt><trkpt lat="44.74424316769052" lon="9.903758808236583"><ele>451.99999999999994</ele><time>2026-04-19T07:25:43.999Z</time></trkpt><trkpt lat="44.744239963750786" lon="9.903884176008882"><ele>452.0</ele><time>2026-04-19T07:25:44.999Z</time></trkpt><trkpt lat="44.74423818297737" lon="9.9040225366617"><ele>452.0</ele><time>2026-04-19T07:25:45.999Z</time></trkpt><trkpt lat="44.744226765224255" lon="9.904150161197212"><ele>452.0</ele><time>2026-04-19T07:25:46.999Z</time></trkpt><trkpt lat="44.74422392235457" lon="9.904252570061741"><ele>451.99999999999994</ele><time>2026-04-19T07:25:47.999Z</time></trkpt><trkpt lat="44.74417799567863" lon="9.90437013538138"><ele>452.0</ele><time>2026-04-19T07:25:49.999Z</time></trkpt><trkpt lat="44.74409462318392" lon="9.904414651004837"><ele>454.49999999999994</ele><time>2026-04-19T07:25:50.999Z</time></trkpt><trkpt lat="44.74404286179719" lon="9.904498933581914"><ele>457.0</ele><time>2026-04-19T07:25:51.999Z</time></trkpt><trkpt lat="44.74402527744141" lon="9.904621201929304"><ele>459.5</ele><time>2026-04-19T07:25:52.999Z</time></trkpt><trkpt lat="44.74399734674024" lon="9.904761937301057"><ele>462.0</ele><time>2026-04-19T07:25:53.999Z</time></trkpt><trkpt lat="44.74396798412529" lon="9.904866073470407"><ele>464.49999999999994</ele><time>2026-04-19T07:25:54.999Z</time></trkpt><trkpt lat="44.74390816787278" lon="9.904940734814666"><ele>467.0</ele><time>2026-04-19T07:25:55.999Z</time></trkpt><trkpt lat="44.743830896273806" lon="9.90503450960566"><ele>464.66666666666663</ele><time>2026-04-19T07:25:56.999Z</time></trkpt><trkpt lat="44.743767243813735" lon="9.905108277188921"><ele>462.3333333333333</ele><time>2026-04-19T07:25:57.999Z</time></trkpt><trkpt lat="44.74370639442377" lon="9.905153561786848"><ele>460.0</ele><time>2026-04-19T07:25:58.999Z</time></trkpt><trkpt lat="44.743620138787406" lon="9.905176581759129"><ele>457.66666666666663</ele><time>2026-04-19T07:25:59.999Z</time></trkpt><trkpt lat="44.743538092800335" lon="9.905170736267317"><ele>455.3333333333333</ele><time>2026-04-19T07:26:00.999Z</time></trkpt><trkpt lat="44.74346095854904" lon="9.905192493746904"><ele>453.0</ele><time>2026-04-19T07:26:01.999Z</time></trkpt><trkpt lat="44.74341119275408" lon="9.90524847994016"><ele>453.0</ele><time>2026-04-19T07:26:02.999Z</time></trkpt><trkpt lat="44.74336208050292" lon="9.905380998087645"><ele>453.0</ele><time>2026-04-19T07:26:04.999Z</time></trkpt><trkpt lat="44.74336768904295" lon="9.905496428467158"><ele>453.0</ele><time>2026-04-19T07:26:05.999Z</time></trkpt><trkpt lat="44.74336362324836" lon="9.905636343018735"><ele>453.0</ele><time>2026-04-19T07:26:06.999Z</time></trkpt><trkpt lat="44.74334929323845" lon="9.905760852860142"><ele>453.0</ele><time>2026-04-19T07:26:07.999Z</time></trkpt><trkpt lat="44.74335221214887" lon="9.90585248484257"><ele>453.0</ele><time>2026-04-19T07:26:08.999Z</time></trkpt><trkpt lat="44.74327954007431" lon="9.90598138883745"><ele>455.0</ele><time>2026-04-19T07:26:10.999Z</time></trkpt><trkpt lat="44.74324251044234" lon="9.906100063044946"><ele>456.99999999999994</ele><time>2026-04-19T07:26:11.999Z</time></trkpt><trkpt lat="44.74322725510059" lon="9.906193202012073"><ele>458.99999999999994</ele><time>2026-04-19T07:26:12.999Z</time></trkpt><trkpt lat="44.74322767711301" lon="9.90636297926992"><ele>461.0</ele><time>2026-04-19T07:26:14.999Z</time></trkpt><trkpt lat="44.743134091343485" lon="9.906526217184812"><ele>463.0</ele><time>2026-04-19T07:26:16.999Z</time></trkpt><trkpt lat="44.743079248359216" lon="9.90661520669439"><ele>463.0</ele><time>2026-04-19T07:26:17.999Z</time></trkpt><trkpt lat="44.74299340984666" lon="9.90671787903017"><ele>462.99999999999994</ele><time>2026-04-19T07:26:19.999Z</time></trkpt><trkpt lat="44.74292731809846" lon="9.90688158390517"><ele>462.99999999999994</ele><time>2026-04-19T07:26:21.999Z</time></trkpt><trkpt lat="44.742876479711704" lon="9.906962409316334"><ele>463.0</ele><time>2026-04-19T07:26:22.999Z</time></trkpt><trkpt lat="44.74282160844389" lon="9.907005892294494"><ele>463.0</ele><time>2026-04-19T07:26:23.999Z</time></trkpt><trkpt lat="44.74274929467512" lon="9.907037455549888"><ele>462.50000000000006</ele><time>2026-04-19T07:26:24.999Z</time></trkpt><trkpt lat="44.742662345504435" lon="9.907051937425154"><ele>462.0</ele><time>2026-04-19T07:26:25.999Z</time></trkpt><trkpt lat="44.74258029990115" lon="9.9070382624139"><ele>461.5</ele><time>2026-04-19T07:26:26.999Z</time></trkpt><trkpt lat="44.742505306788715" lon="9.907004705028697"><ele>461.0</ele><time>2026-04-19T07:26:27.999Z</time></trkpt><trkpt lat="44.74242882411182" lon="9.907054701310766"><ele>460.50000000000006</ele><time>2026-04-19T07:26:29.999Z</time></trkpt><trkpt lat="44.74240363495909" lon="9.907143746290862"><ele>460.0</ele><time>2026-04-19T07:26:30.999Z</time></trkpt><trkpt lat="44.74238715764574" lon="9.907231951915989"><ele>460.00000000000006</ele><time>2026-04-19T07:26:31.999Z</time></trkpt><trkpt lat="44.74238390855562" lon="9.907362517978997"><ele>460.0</ele><time>2026-04-19T07:26:32.999Z</time></trkpt><trkpt lat="44.742370295039706" lon="9.907496434350879"><ele>460.0</ele><time>2026-04-19T07:26:33.999Z</time></trkpt><trkpt lat="44.74235934102425" lon="9.907616786306864"><ele>460.0</ele><time>2026-04-19T07:26:34.999Z</time></trkpt><trkpt lat="44.742348797423425" lon="9.907713541180417"><ele>460.00000000000006</ele><time>2026-04-19T07:26:35.999Z</time></trkpt><trkpt lat="44.74232761073629" lon="9.907826692459196"><ele>460.0</ele><time>2026-04-19T07:26:36.999Z</time></trkpt><trkpt lat="44.742310992730204" lon="9.907943536836076"><ele>463.8</ele><time>2026-04-19T07:26:37.999Z</time></trkpt><trkpt lat="44.742234830346696" lon="9.908106873935846"><ele>467.6</ele><time>2026-04-19T07:26:39.999Z</time></trkpt><trkpt lat="44.74220034680936" lon="9.908184959987814"><ele>471.4</ele><time>2026-04-19T07:26:40.999Z</time></trkpt><trkpt lat="44.742131523045664" lon="9.908360913911892"><ele>475.2</ele><time>2026-04-19T07:26:42.999Z</time></trkpt><trkpt lat="44.74205448796598" lon="9.908441997824145"><ele>479.0</ele><time>2026-04-19T07:26:43.999Z</time></trkpt><trkpt lat="44.741981032617204" lon="9.90851288608766"><ele>477.0</ele><time>2026-04-19T07:26:44.999Z</time></trkpt><trkpt lat="44.74191361574877" lon="9.908553164228264"><ele>475.0</ele><time>2026-04-19T07:26:45.999Z</time></trkpt><trkpt lat="44.74184897793783" lon="9.908609614901922"><ele>473.0</ele><time>2026-04-19T07:26:46.999Z</time></trkpt><trkpt lat="44.741798159516875" lon="9.908683141011917"><ele>471.0</ele><time>2026-04-19T07:26:47.999Z</time></trkpt><trkpt lat="44.74176112728448" lon="9.908772637386203"><ele>469.0</ele><time>2026-04-19T07:26:48.999Z</time></trkpt><trkpt lat="44.741725947053396" lon="9.908874983227873"><ele>467.0</ele><time>2026-04-19T07:26:49.999Z</time></trkpt><trkpt lat="44.74170113209698" lon="9.908964372663101"><ele>465.0</ele><time>2026-04-19T07:26:50.999Z</time></trkpt><trkpt lat="44.741580805177605" lon="9.90905648862555"><ele>465.0</ele><time>2026-04-19T07:26:52.999Z</time></trkpt><trkpt lat="44.741515438229094" lon="9.909075409175427"><ele>465.0</ele><time>2026-04-19T07:26:53.999Z</time></trkpt><trkpt lat="44.741456982068804" lon="9.909120664447064"><ele>465.0</ele><time>2026-04-19T07:26:54.999Z</time></trkpt><trkpt lat="44.74140466453621" lon="9.909201722461955"><ele>465.0</ele><time>2026-04-19T07:26:55.999Z</time></trkpt><trkpt lat="44.741365514814945" lon="9.90928000710377"><ele>465.0</ele><time>2026-04-19T07:26:56.999Z</time></trkpt><trkpt lat="44.74133241204063" lon="9.909389618787632"><ele>465.0</ele><time>2026-04-19T07:26:57.999Z</time></trkpt><trkpt lat="44.74128578602009" lon="9.90948523426174"><ele>465.0</ele><time>2026-04-19T07:26:58.999Z</time></trkpt><trkpt lat="44.74121650903987" lon="9.909560787910367"><ele>465.1666666666667</ele><time>2026-04-19T07:26:59.999Z</time></trkpt><trkpt lat="44.741128797968" lon="9.909625980358108"><ele>465.33333333333337</ele><time>2026-04-19T07:27:00.999Z</time></trkpt><trkpt lat="44.74105718776394" lon="9.909690225478066"><ele>465.5</ele><time>2026-04-19T07:27:01.999Z</time></trkpt><trkpt lat="44.74100789738769" lon="9.909755305693402"><ele>465.6666666666667</ele><time>2026-04-19T07:27:02.999Z</time></trkpt><trkpt lat="44.740998980872604" lon="9.909919021165797"><ele>465.83333333333337</ele><time>2026-04-19T07:27:04.999Z</time></trkpt><trkpt lat="44.74101646594251" lon="9.91002246766766"><ele>466.0</ele><time>2026-04-19T07:27:05.999Z</time></trkpt><trkpt lat="44.741080580828886" lon="9.910149742889176"><ele>466.00000000000006</ele><time>2026-04-19T07:27:07.999Z</time></trkpt><trkpt lat="44.7411349171411" lon="9.910222476789619"><ele>466.0</ele><time>2026-04-19T07:27:08.999Z</time></trkpt><trkpt lat="44.741195553934475" lon="9.910325807208052"><ele>466.0</ele><time>2026-04-19T07:27:09.999Z</time></trkpt><trkpt lat="44.7412559945889" lon="9.910420101459891"><ele>466.0</ele><time>2026-04-19T07:27:10.999Z</time></trkpt><trkpt lat="44.74129099112426" lon="9.910507922470995"><ele>466.00000000000006</ele><time>2026-04-19T07:27:11.999Z</time></trkpt><trkpt lat="44.74133344389273" lon="9.910633523259017"><ele>466.0</ele><time>2026-04-19T07:27:14Z</time></trkpt><trkpt lat="44.74143765626776" lon="9.910688916945292"><ele>466.0</ele><time>2026-04-19T07:27:16Z</time></trkpt><trkpt lat="44.74150710731352" lon="9.910681786685066"><ele>466.0</ele><time>2026-04-19T07:27:17Z</time></trkpt><trkpt lat="44.741571379753694" lon="9.910695781027847"><ele>466.0</ele><time>2026-04-19T07:27:19Z</time></trkpt><trkpt lat="44.741540806295625" lon="9.910541142171695"><ele>466.0</ele><time>2026-04-19T07:27:43Z</time></trkpt><trkpt lat="44.741496830063745" lon="9.910441212184617"><ele>466.0</ele><time>2026-04-19T07:27:45Z</time></trkpt><trkpt lat="44.74141891647143" lon="9.91027182535066"><ele>466.00000000000006</ele><time>2026-04-19T07:27:47Z</time></trkpt><trkpt lat="44.74135659536717" lon="9.910171284906996"><ele>466.0</ele><time>2026-04-19T07:27:48Z</time></trkpt><trkpt lat="44.7412941329589" lon="9.910081597870821"><ele>466.0</ele><time>2026-04-19T07:27:49Z</time></trkpt><trkpt lat="44.7412675733334" lon="9.9099825866432"><ele>466.0</ele><time>2026-04-19T07:27:51Z</time></trkpt><trkpt lat="44.74133288923257" lon="9.909891116584832"><ele>466.00000000000006</ele><time>2026-04-19T07:27:52.999Z</time></trkpt><trkpt lat="44.74142241330546" lon="9.909930612685471"><ele>466.0</ele><time>2026-04-19T07:27:54.999Z</time></trkpt><trkpt lat="44.74153798233323" lon="9.909949139132147"><ele>468.0</ele><time>2026-04-19T07:27:56.999Z</time></trkpt><trkpt lat="44.74163635742009" lon="9.909927025597915"><ele>470.0</ele><time>2026-04-19T07:27:58.999Z</time></trkpt><trkpt lat="44.74173929709375" lon="9.909926164081934"><ele>472.0</ele><time>2026-04-19T07:28:00.999Z</time></trkpt><trkpt lat="44.74179487754626" lon="9.90984858019496"><ele>474.0</ele><time>2026-04-19T07:28:02.999Z</time></trkpt><trkpt lat="44.741834137075585" lon="9.909764402942988"><ele>476.0</ele><time>2026-04-19T07:28:04.999Z</time></trkpt><trkpt lat="44.7419342394898" lon="9.90971041539731"><ele>480.8</ele><time>2026-04-19T07:28:07.999Z</time></trkpt><trkpt lat="44.74202564971647" lon="9.909736902898931"><ele>485.6</ele><time>2026-04-19T07:28:09.999Z</time></trkpt><trkpt lat="44.742121191315796" lon="9.909782202870277"><ele>490.4</ele><time>2026-04-19T07:28:12.999Z</time></trkpt><trkpt lat="44.742210936401534" lon="9.909880064007009"><ele>495.2</ele><time>2026-04-19T07:28:14.999Z</time></trkpt><trkpt lat="44.74233003639729" lon="9.909955432035424"><ele>500.0</ele><time>2026-04-19T07:28:16.999Z</time></trkpt><trkpt lat="44.7424103397306" lon="9.90997287294869"><ele>500.0</ele><time>2026-04-19T07:28:18.999Z</time></trkpt><trkpt lat="44.7424220957899" lon="9.909859869242762"><ele>500.0</ele><time>2026-04-19T07:28:20.999Z</time></trkpt><trkpt lat="44.74249062474514" lon="9.90978324878581"><ele>500.0</ele><time>2026-04-19T07:28:23.999Z</time></trkpt><trkpt lat="44.742615413718624" lon="9.909827074365387"><ele>500.0</ele><time>2026-04-19T07:28:25.999Z</time></trkpt><trkpt lat="44.742653679652136" lon="9.909753839022699"><ele>500.0</ele><time>2026-04-19T07:28:28.999Z</time></trkpt><trkpt lat="44.74266052988453" lon="9.909611038404636"><ele>502.71428571428567</ele><time>2026-04-19T07:28:30.999Z</time></trkpt><trkpt lat="44.74274597118215" lon="9.909521721192354"><ele>505.42857142857144</ele><time>2026-04-19T07:28:32.999Z</time></trkpt><trkpt lat="44.74280879698601" lon="9.909514639208016"><ele>508.1428571428571</ele><time>2026-04-19T07:28:33.999Z</time></trkpt><trkpt lat="44.74285209213276" lon="9.909417758585638"><ele>510.85714285714283</ele><time>2026-04-19T07:28:41.999Z</time></trkpt><trkpt lat="44.742906452018374" lon="9.909367078138116"><ele>513.5714285714286</ele><time>2026-04-19T07:28:42.999Z</time></trkpt><trkpt lat="44.74294936463678" lon="9.909297916614523"><ele>516.2857142857142</ele><time>2026-04-19T07:28:43.999Z</time></trkpt><trkpt lat="44.742993161622664" lon="9.909224251327723"><ele>519.0</ele><time>2026-04-19T07:28:44.999Z</time></trkpt><trkpt lat="44.74303044001053" lon="9.909112830903311"><ele>520.6</ele><time>2026-04-19T07:28:46.999Z</time></trkpt><trkpt lat="44.74305324202817" lon="9.909025000982597"><ele>522.2</ele><time>2026-04-19T07:28:48.999Z</time></trkpt><trkpt lat="44.743117791165346" lon="9.90894239695496"><ele>523.8000000000001</ele><time>2026-04-19T07:28:51.999Z</time></trkpt><trkpt lat="44.743183272254875" lon="9.9088014138441"><ele>525.4</ele><time>2026-04-19T07:28:53.999Z</time></trkpt><trkpt lat="44.743259838689056" lon="9.908739621819574"><ele>527.0</ele><time>2026-04-19T07:28:55.999Z</time></trkpt><trkpt lat="44.743358672215216" lon="9.908683363631482"><ele>527.0</ele><time>2026-04-19T07:28:57.999Z</time></trkpt><trkpt lat="44.74345427062737" lon="9.90869451625723"><ele>527.0</ele><time>2026-04-19T07:28:59.999Z</time></trkpt><trkpt lat="44.74352800316896" lon="9.908680788460781"><ele>527.0</ele><time>2026-04-19T07:29:01.999Z</time></trkpt><trkpt lat="44.74365455240746" lon="9.908602041025121"><ele>527.0</ele><time>2026-04-19T07:29:03.999Z</time></trkpt><trkpt lat="44.74372645192996" lon="9.908542272689674"><ele>527.0</ele><time>2026-04-19T07:29:05.999Z</time></trkpt><trkpt lat="44.7438230257986" lon="9.908503989417921"><ele>527.1666666666666</ele><time>2026-04-19T07:29:07.999Z</time></trkpt><trkpt lat="44.74389526763237" lon="9.908504429100532"><ele>527.3333333333333</ele><time>2026-04-19T07:29:09.999Z</time></trkpt><trkpt lat="44.743990947260365" lon="9.908505310313402"><ele>527.5</ele><time>2026-04-19T07:29:11.999Z</time></trkpt><trkpt lat="44.74405577984293" lon="9.908473607649098"><ele>527.6666666666666</ele><time>2026-04-19T07:29:14.999Z</time></trkpt><trkpt lat="44.74413046953678" lon="9.90839079243939"><ele>527.8333333333334</ele><time>2026-04-19T07:29:17.999Z</time></trkpt><trkpt lat="44.744182389322475" lon="9.908288440553195"><ele>528.0</ele><time>2026-04-19T07:29:20Z</time></trkpt><trkpt lat="44.74424354548988" lon="9.908233949691752"><ele>528.0</ele><time>2026-04-19T07:29:21Z</time></trkpt><trkpt lat="44.74430847636093" lon="9.908166211194459"><ele>528.0</ele><time>2026-04-19T07:29:22Z</time></trkpt><trkpt lat="44.744395623194315" lon="9.908082969647117"><ele>528.0</ele><time>2026-04-19T07:29:24Z</time></trkpt><trkpt lat="44.74448426498902" lon="9.908003317510659"><ele>528.0</ele><time>2026-04-19T07:29:26Z</time></trkpt><trkpt lat="44.744563733583945" lon="9.907964057420465"><ele>528.0</ele><time>2026-04-19T07:29:28Z</time></trkpt><trkpt lat="44.74466515219397" lon="9.907893990541307"><ele>531.1999999999999</ele><time>2026-04-19T07:29:31Z</time></trkpt><trkpt lat="44.744734901229265" lon="9.907828536784052"><ele>534.4</ele><time>2026-04-19T07:29:33Z</time></trkpt><trkpt lat="44.744792417411254" lon="9.907782312550685"><ele>537.5999999999999</ele><time>2026-04-19T07:29:34Z</time></trkpt><trkpt lat="44.744866348213264" lon="9.90766188865174"><ele>540.8</ele><time>2026-04-19T07:29:36Z</time></trkpt><trkpt lat="44.744892998238456" lon="9.907529592166812"><ele>544.0</ele><time>2026-04-19T07:29:38Z</time></trkpt><trkpt lat="44.74496282254464" lon="9.90743454177721"><ele>544.0</ele><time>2026-04-19T07:29:40Z</time></trkpt><trkpt lat="44.745026490950785" lon="9.90731368678383"><ele>544.0</ele><time>2026-04-19T07:29:42Z</time></trkpt><trkpt lat="44.74508260270324" lon="9.907188561557025"><ele>544.0</ele><time>2026-04-19T07:29:44Z</time></trkpt><trkpt lat="44.74508706304145" lon="9.907054268556683"><ele>544.0</ele><time>2026-04-19T07:29:46Z</time></trkpt><trkpt lat="44.74514616775528" lon="9.906949384866651"><ele>544.0</ele><time>2026-04-19T07:29:49Z</time></trkpt><trkpt lat="44.74522083310655" lon="9.906824504639056"><ele>551.0</ele><time>2026-04-19T07:29:51Z</time></trkpt><trkpt lat="44.74526593361161" lon="9.906716115222396"><ele>558.0</ele><time>2026-04-19T07:29:53Z</time></trkpt><trkpt lat="44.745308059068854" lon="9.906613044400736"><ele>565.0</ele><time>2026-04-19T07:29:55Z</time></trkpt><trkpt lat="44.74532759659409" lon="9.906499044457153"><ele>572.0</ele><time>2026-04-19T07:29:58.999Z</time></trkpt><trkpt lat="44.745309988531254" lon="9.906380365971698"><ele>579.0</ele><time>2026-04-19T07:30:00.999Z</time></trkpt><trkpt lat="44.745299254403285" lon="9.906253701788534"><ele>586.0</ele><time>2026-04-19T07:30:02.999Z</time></trkpt><trkpt lat="44.74532973578116" lon="9.906164384687594"><ele>586.0</ele><time>2026-04-19T07:30:03.999Z</time></trkpt><trkpt lat="44.74536428896285" lon="9.90608894699766"><ele>586.0</ele><time>2026-04-19T07:30:06.999Z</time></trkpt><trkpt lat="44.74537922236507" lon="9.905972281342269"><ele>586.0</ele><time>2026-04-19T07:30:08.999Z</time></trkpt><trkpt lat="44.74543277614256" lon="9.905846637648745"><ele>586.0</ele><time>2026-04-19T07:30:10.999Z</time></trkpt><trkpt lat="44.74546335715182" lon="9.9057130834265"><ele>586.0</ele><time>2026-04-19T07:30:12.999Z</time></trkpt><trkpt lat="44.74549601868879" lon="9.905623203831446"><ele>586.0</ele><time>2026-04-19T07:30:13.999Z</time></trkpt><trkpt lat="44.74553928870457" lon="9.905507549916459"><ele>584.8</ele><time>2026-04-19T07:30:15.999Z</time></trkpt><trkpt lat="44.74563544164822" lon="9.9053902252536"><ele>583.6</ele><time>2026-04-19T07:30:17.999Z</time></trkpt><trkpt lat="44.74568762426598" lon="9.905331943196103"><ele>582.4</ele><time>2026-04-19T07:30:18.999Z</time></trkpt><trkpt lat="44.74577444408667" lon="9.90518780517474"><ele>581.2</ele><time>2026-04-19T07:30:20.999Z</time></trkpt><trkpt lat="44.745820812222554" lon="9.905041401550788"><ele>580.0</ele><time>2026-04-19T07:30:22.999Z</time></trkpt><trkpt lat="44.74589868814485" lon="9.90487073268197"><ele>577.1666666666667</ele><time>2026-04-19T07:30:24.999Z</time></trkpt><trkpt lat="44.74591829811685" lon="9.904735690108588"><ele>574.3333333333334</ele><time>2026-04-19T07:30:26.999Z</time></trkpt><trkpt lat="44.74594009286237" lon="9.904591361013203"><ele>571.5</ele><time>2026-04-19T07:30:28.999Z</time></trkpt><trkpt lat="44.74596749615178" lon="9.904500547842702"><ele>568.6666666666666</ele><time>2026-04-19T07:30:29.999Z</time></trkpt><trkpt lat="44.74598570276354" lon="9.904409348403133"><ele>565.8333333333333</ele><time>2026-04-19T07:30:30.999Z</time></trkpt><trkpt lat="44.746007860985834" lon="9.904275252508477"><ele>563.0</ele><time>2026-04-19T07:30:32.999Z</time></trkpt><trkpt lat="44.746028048135926" lon="9.904143004823604"><ele>564.0</ele><time>2026-04-19T07:30:34.999Z</time></trkpt><trkpt lat="44.746093076956015" lon="9.904098826481977"><ele>565.0</ele><time>2026-04-19T07:30:36.999Z</time></trkpt><trkpt lat="44.74617234766357" lon="9.904133373721248"><ele>566.0</ele><time>2026-04-19T07:30:38.999Z</time></trkpt><trkpt lat="44.746268940965535" lon="9.904148598087938"><ele>567.0</ele><time>2026-04-19T07:30:40.999Z</time></trkpt><trkpt lat="44.746331917190815" lon="9.904163955468412"><ele>568.0</ele><time>2026-04-19T07:30:41.999Z</time></trkpt><trkpt lat="44.74645567929466" lon="9.904225007203474"><ele>569.0</ele><time>2026-04-19T07:30:43.999Z</time></trkpt><trkpt lat="44.746533206904395" lon="9.904217505123881"><ele>569.0</ele><time>2026-04-19T07:30:45.999Z</time></trkpt><trkpt lat="44.7466048210181" lon="9.904073279113472"><ele>569.0</ele><time>2026-04-19T07:30:47.999Z</time></trkpt><trkpt lat="44.74669500946738" lon="9.903928765677895"><ele>569.0</ele><time>2026-04-19T07:30:49.999Z</time></trkpt><trkpt lat="44.74672813466723" lon="9.903832085785309"><ele>569.0</ele><time>2026-04-19T07:30:50.999Z</time></trkpt><trkpt lat="44.74677336949419" lon="9.903695736500334"><ele>569.0</ele><time>2026-04-19T07:30:52.999Z</time></trkpt><trkpt lat="44.74681726505639" lon="9.903604196731068"><ele>569.0</ele><time>2026-04-19T07:30:53.999Z</time></trkpt><trkpt lat="44.746863876507135" lon="9.903515008990723"><ele>569.0</ele><time>2026-04-19T07:30:54.999Z</time></trkpt><trkpt lat="44.74691608650084" lon="9.90339565596779"><ele>569.0</ele><time>2026-04-19T07:30:56.999Z</time></trkpt><trkpt lat="44.7469825383276" lon="9.903296919614794"><ele>569.0</ele><time>2026-04-19T07:30:58.999Z</time></trkpt><trkpt lat="44.74704908863909" lon="9.903255100894132"><ele>569.0</ele><time>2026-04-19T07:31:00.999Z</time></trkpt><trkpt lat="44.74715638055396" lon="9.903242516351368"><ele>568.0</ele><time>2026-04-19T07:31:02.999Z</time></trkpt><trkpt lat="44.74723859552668" lon="9.903253769843438"><ele>567.0</ele><time>2026-04-19T07:31:03.999Z</time></trkpt><trkpt lat="44.74730366820894" lon="9.90328215156929"><ele>566.0</ele><time>2026-04-19T07:31:04.999Z</time></trkpt><trkpt lat="44.747433452281996" lon="9.903333077654667"><ele>565.0</ele><time>2026-04-19T07:31:06.999Z</time></trkpt><trkpt lat="44.747542959428635" lon="9.903366396448407"><ele>564.0</ele><time>2026-04-19T07:31:08.999Z</time></trkpt><trkpt lat="44.74765462847121" lon="9.903289653152394"><ele>562.8333333333334</ele><time>2026-04-19T07:31:10.999Z</time></trkpt><trkpt lat="44.747734022923076" lon="9.903236679611977"><ele>561.6666666666666</ele><time>2026-04-19T07:31:11.999Z</time></trkpt><trkpt lat="44.747796614593746" lon="9.90319323591409"><ele>560.5</ele><time>2026-04-19T07:31:12.999Z</time></trkpt><trkpt lat="44.74786615677593" lon="9.903111215655144"><ele>559.3333333333333</ele><time>2026-04-19T07:31:14.999Z</time></trkpt><trkpt lat="44.747940491269574" lon="9.90306235256924"><ele>558.1666666666666</ele><time>2026-04-19T07:31:16.999Z</time></trkpt><trkpt lat="44.74800877845076" lon="9.903073447233082"><ele>557.0</ele><time>2026-04-19T07:31:18.999Z</time></trkpt><trkpt lat="44.748103469175696" lon="9.903110082160541"><ele>557.0</ele><time>2026-04-19T07:31:20.999Z</time></trkpt><trkpt lat="44.74820336118345" lon="9.903142546642725"><ele>557.0</ele><time>2026-04-19T07:31:22.999Z</time></trkpt><trkpt lat="44.74826126303868" lon="9.903249150830906"><ele>557.0</ele><time>2026-04-19T07:31:24.999Z</time></trkpt><trkpt lat="44.74833591762367" lon="9.903370895739254"><ele>557.0</ele><time>2026-04-19T07:31:27Z</time></trkpt><trkpt lat="44.74844031060912" lon="9.903446209028113"><ele>557.0</ele><time>2026-04-19T07:31:29Z</time></trkpt><trkpt lat="44.74850532198284" lon="9.90348520525279"><ele>557.0</ele><time>2026-04-19T07:31:30Z</time></trkpt><trkpt lat="44.748577357621095" lon="9.9035532184974"><ele>557.0</ele><time>2026-04-19T07:31:32Z</time></trkpt><trkpt lat="44.748653666429725" lon="9.903548058921759"><ele>557.0</ele><time>2026-04-19T07:31:34Z</time></trkpt><trkpt lat="44.74873119048504" lon="9.903553198574052"><ele>557.0</ele><time>2026-04-19T07:31:35Z</time></trkpt><trkpt lat="44.748839842016295" lon="9.903560896633037"><ele>557.0</ele><time>2026-04-19T07:31:37Z</time></trkpt><trkpt lat="44.748962609193306" lon="9.903575911994098"><ele>557.0</ele><time>2026-04-19T07:31:39Z</time></trkpt><trkpt lat="44.749042454874086" lon="9.903572511692106"><ele>557.0</ele><time>2026-04-19T07:31:40Z</time></trkpt><trkpt lat="44.74912904993606" lon="9.903568409995104"><ele>557.0</ele><time>2026-04-19T07:31:41Z</time></trkpt><trkpt lat="44.74920238822577" lon="9.903588066134716"><ele>557.0</ele><time>2026-04-19T07:31:42Z</time></trkpt><trkpt lat="44.74927043671848" lon="9.903583191099106"><ele>557.0</ele><time>2026-04-19T07:31:43Z</time></trkpt><trkpt lat="44.74937222170993" lon="9.903548143617101"><ele>557.0</ele><time>2026-04-19T07:31:45Z</time></trkpt><trkpt lat="44.74945089715815" lon="9.903542203712806"><ele>557.2857142857143</ele><time>2026-04-19T07:31:46Z</time></trkpt><trkpt lat="44.74951647072874" lon="9.903517871447555"><ele>557.5714285714286</ele><time>2026-04-19T07:31:47Z</time></trkpt><trkpt lat="44.74958798906642" lon="9.90351160518315"><ele>557.8571428571429</ele><time>2026-04-19T07:31:48Z</time></trkpt><trkpt lat="44.74965269281643" lon="9.903524876944758"><ele>558.1428571428571</ele><time>2026-04-19T07:31:49Z</time></trkpt><trkpt lat="44.74974714655677" lon="9.90352269406394"><ele>558.4285714285714</ele><time>2026-04-19T07:31:50Z</time></trkpt><trkpt lat="44.74982426689197" lon="9.903519486888783"><ele>558.7142857142858</ele><time>2026-04-19T07:31:51Z</time></trkpt><trkpt lat="44.749887029002096" lon="9.903504033161944"><ele>559.0</ele><time>2026-04-19T07:31:52Z</time></trkpt><trkpt lat="44.74998065760315" lon="9.903428655015404"><ele>559.1666666666667</ele><time>2026-04-19T07:31:54Z</time></trkpt><trkpt lat="44.750026541225076" lon="9.903361535465683"><ele>559.3333333333334</ele><time>2026-04-19T07:31:55Z</time></trkpt><trkpt lat="44.750064395538125" lon="9.903272553857846"><ele>559.5</ele><time>2026-04-19T07:31:57Z</time></trkpt><trkpt lat="44.75010867934673" lon="9.903137556049803"><ele>559.6666666666666</ele><time>2026-04-19T07:31:59Z</time></trkpt><trkpt lat="44.75014233695858" lon="9.903038530588892"><ele>559.8333333333333</ele><time>2026-04-19T07:32:00Z</time></trkpt><trkpt lat="44.75021019150573" lon="9.902930436301917"><ele>560.0</ele><time>2026-04-19T07:32:02Z</time></trkpt><trkpt lat="44.75026726678567" lon="9.9028261943533"><ele>560.0</ele><time>2026-04-19T07:32:04Z</time></trkpt><trkpt lat="44.75027755192432" lon="9.902686403852456"><ele>560.0</ele><time>2026-04-19T07:32:05.999Z</time></trkpt><trkpt lat="44.75026444826362" lon="9.902588890317222"><ele>560.0</ele><time>2026-04-19T07:32:06.999Z</time></trkpt><trkpt lat="44.75029688563683" lon="9.902457083417964"><ele>560.0</ele><time>2026-04-19T07:32:08.999Z</time></trkpt><trkpt lat="44.75033567821555" lon="9.902327326929552"><ele>560.0</ele><time>2026-04-19T07:32:10.999Z</time></trkpt><trkpt lat="44.75037401272396" lon="9.902219544235205"><ele>558.8333333333333</ele><time>2026-04-19T07:32:12.999Z</time></trkpt><trkpt lat="44.75039764651981" lon="9.902071311145345"><ele>557.6666666666666</ele><time>2026-04-19T07:32:14.999Z</time></trkpt><trkpt lat="44.750416024910315" lon="9.901926925516289"><ele>556.5</ele><time>2026-04-19T07:32:16.999Z</time></trkpt><trkpt lat="44.750428403955965" lon="9.901825313436118"><ele>555.3333333333334</ele><time>2026-04-19T07:32:17.999Z</time></trkpt><trkpt lat="44.75044954797254" lon="9.901729643231171"><ele>554.1666666666667</ele><time>2026-04-19T07:32:18.999Z</time></trkpt><trkpt lat="44.750478792526586" lon="9.901646590862708"><ele>553.0</ele><time>2026-04-19T07:32:19.999Z</time></trkpt><trkpt lat="44.750547969607425" lon="9.90153030166838"><ele>552.1999999999999</ele><time>2026-04-19T07:32:21.999Z</time></trkpt><trkpt lat="44.750626076675566" lon="9.901424683443427"><ele>551.4</ele><time>2026-04-19T07:32:23.999Z</time></trkpt><trkpt lat="44.75071094242066" lon="9.901360037159678"><ele>550.5999999999999</ele><time>2026-04-19T07:32:25.999Z</time></trkpt><trkpt lat="44.7507836800896" lon="9.901254417944386"><ele>549.8</ele><time>2026-04-19T07:32:27.999Z</time></trkpt><trkpt lat="44.750820969134075" lon="9.90116616022342"><ele>549.0</ele><time>2026-04-19T07:32:30.999Z</time></trkpt><trkpt lat="44.750862786540445" lon="9.901084334485034"><ele>549.0</ele><time>2026-04-19T07:32:31.999Z</time></trkpt><trkpt lat="44.75092840648053" lon="9.90098486878534"><ele>549.0</ele><time>2026-04-19T07:32:32.999Z</time></trkpt><trkpt lat="44.75097464422303" lon="9.900922732964705"><ele>549.0</ele><time>2026-04-19T07:32:33.999Z</time></trkpt><trkpt lat="44.751085372878535" lon="9.900849658708278"><ele>549.0</ele><time>2026-04-19T07:32:35.999Z</time></trkpt><trkpt lat="44.75114599430334" lon="9.900786339728098"><ele>549.0</ele><time>2026-04-19T07:32:36.999Z</time></trkpt><trkpt lat="44.751209406173516" lon="9.90072159949627"><ele>549.0</ele><time>2026-04-19T07:32:37.999Z</time></trkpt><trkpt lat="44.75126115787356" lon="9.900626584941259"><ele>552.8</ele><time>2026-04-19T07:32:38.999Z</time></trkpt><trkpt lat="44.75130954463494" lon="9.900541432770934"><ele>556.5999999999999</ele><time>2026-04-19T07:32:39.999Z</time></trkpt><trkpt lat="44.751432207012044" lon="9.900429058251065"><ele>560.4</ele><time>2026-04-19T07:32:40.999Z</time></trkpt><trkpt lat="44.751481556342476" lon="9.900345431202538"><ele>564.1999999999999</ele><time>2026-04-19T07:32:41.999Z</time></trkpt><trkpt lat="44.75154504756564" lon="9.900285496575616"><ele>568.0</ele><time>2026-04-19T07:32:42.999Z</time></trkpt><trkpt lat="44.75149869681735" lon="9.900365219474915"><ele>568.0</ele><time>2026-04-19T07:33:00.999Z</time></trkpt><trkpt lat="44.75144718072574" lon="9.900545231342079"><ele>568.0</ele><time>2026-04-19T07:33:02.999Z</time></trkpt><trkpt lat="44.75140580410702" lon="9.900702137141023"><ele>568.0</ele><time>2026-04-19T07:33:04.999Z</time></trkpt><trkpt lat="44.75138534608756" lon="9.90080387961502"><ele>568.0</ele><time>2026-04-19T07:33:05.999Z</time></trkpt><trkpt lat="44.751391765506604" lon="9.900929611280734"><ele>568.0</ele><time>2026-04-19T07:33:07.999Z</time></trkpt><trkpt lat="44.751471600993696" lon="9.901048684520806"><ele>569.8</ele><time>2026-04-19T07:33:09.999Z</time></trkpt><trkpt lat="44.75156572223669" lon="9.901086416956717"><ele>571.5999999999999</ele><time>2026-04-19T07:33:11.999Z</time></trkpt><trkpt lat="44.751644975423176" lon="9.901123414254274"><ele>573.4000000000001</ele><time>2026-04-19T07:33:13.999Z</time></trkpt><trkpt lat="44.751694191775655" lon="9.901227946435592"><ele>575.2</ele><time>2026-04-19T07:33:15.999Z</time></trkpt><trkpt lat="44.75176158046065" lon="9.90125837420513"><ele>577.0</ele><time>2026-04-19T07:33:17.999Z</time></trkpt><trkpt lat="44.751817543968905" lon="9.90111500932412"><ele>577.0</ele><time>2026-04-19T07:33:19.999Z</time></trkpt><trkpt lat="44.75182742350245" lon="9.90102526325717"><ele>577.0</ele><time>2026-04-19T07:33:20.999Z</time></trkpt><trkpt lat="44.75190235377072" lon="9.900934618491169"><ele>577.0</ele><time>2026-04-19T07:33:22.999Z</time></trkpt><trkpt lat="44.75199122967664" lon="9.900841796259872"><ele>577.0</ele><time>2026-04-19T07:33:24.999Z</time></trkpt><trkpt lat="44.75207582156508" lon="9.900870152172264"><ele>577.0</ele><time>2026-04-19T07:33:26.999Z</time></trkpt><trkpt lat="44.75211554187913" lon="9.901042692619006"><ele>581.8000000000001</ele><time>2026-04-19T07:33:28.999Z</time></trkpt><trkpt lat="44.752143759577194" lon="9.901137064317439"><ele>586.6</ele><time>2026-04-19T07:33:29.999Z</time></trkpt><trkpt lat="44.75222568321498" lon="9.90126685873539"><ele>591.4000000000001</ele><time>2026-04-19T07:33:32Z</time></trkpt><trkpt lat="44.752310455403475" lon="9.901376960080574"><ele>596.2</ele><time>2026-04-19T07:33:34Z</time></trkpt><trkpt lat="44.75241104692717" lon="9.901420862815131"><ele>601.0</ele><time>2026-04-19T07:33:36Z</time></trkpt><trkpt lat="44.75252555185392" lon="9.901441268355175"><ele>601.0</ele><time>2026-04-19T07:33:38Z</time></trkpt><trkpt lat="44.752595074410024" lon="9.901468371852111"><ele>601.0</ele><time>2026-04-19T07:33:39Z</time></trkpt><trkpt lat="44.752646669998185" lon="9.901591441881294"><ele>601.0</ele><time>2026-04-19T07:33:42Z</time></trkpt><trkpt lat="44.75264229855938" lon="9.901698111158854"><ele>601.0</ele><time>2026-04-19T07:33:43Z</time></trkpt><trkpt lat="44.75266487486021" lon="9.901787712689174"><ele>601.0</ele><time>2026-04-19T07:33:44Z</time></trkpt><trkpt lat="44.75272760611302" lon="9.901875564937649"><ele>601.0</ele><time>2026-04-19T07:33:46Z</time></trkpt><trkpt lat="44.75277424925768" lon="9.901981062585442"><ele>604.5</ele><time>2026-04-19T07:33:48Z</time></trkpt><trkpt lat="44.752743102979586" lon="9.902123231213412"><ele>608.0</ele><time>2026-04-19T07:33:51Z</time></trkpt><trkpt lat="44.7527925809622" lon="9.902195300348025"><ele>611.5</ele><time>2026-04-19T07:33:53Z</time></trkpt><trkpt lat="44.752899565777675" lon="9.902267692181054"><ele>615.0</ele><time>2026-04-19T07:33:55Z</time></trkpt><trkpt lat="44.75294594434188" lon="9.902342958668699"><ele>618.5</ele><time>2026-04-19T07:33:56Z</time></trkpt><trkpt lat="44.75298529494297" lon="9.90242053504834"><ele>622.0</ele><time>2026-04-19T07:33:57Z</time></trkpt><trkpt lat="44.75302416114151" lon="9.90250474480052"><ele>624.0</ele><time>2026-04-19T07:33:58Z</time></trkpt><trkpt lat="44.753076744826025" lon="9.902586997068337"><ele>626.0</ele><time>2026-04-19T07:33:59Z</time></trkpt><trkpt lat="44.75314153889868" lon="9.902722713881653"><ele>628.0</ele><time>2026-04-19T07:34:01Z</time></trkpt><trkpt lat="44.75319180154552" lon="9.902840057342825"><ele>630.0</ele><time>2026-04-19T07:34:02Z</time></trkpt><trkpt lat="44.75324807698818" lon="9.902918448084394"><ele>632.0</ele><time>2026-04-19T07:34:03Z</time></trkpt><trkpt lat="44.75329754863839" lon="9.902985513965765"><ele>634.0</ele><time>2026-04-19T07:34:04Z</time></trkpt><trkpt lat="44.753390918354334" lon="9.903114832081032"><ele>634.0</ele><time>2026-04-19T07:34:06Z</time></trkpt><trkpt lat="44.75343349766504" lon="9.903197211594456"><ele>634.0</ele><time>2026-04-19T07:34:07Z</time></trkpt><trkpt lat="44.75346652574837" lon="9.903295867645355"><ele>634.0</ele><time>2026-04-19T07:34:08Z</time></trkpt><trkpt lat="44.75350318304372" lon="9.90338199903446"><ele>634.0</ele><time>2026-04-19T07:34:09Z</time></trkpt><trkpt lat="44.753548483514095" lon="9.903450539578076"><ele>634.0</ele><time>2026-04-19T07:34:10Z</time></trkpt><trkpt lat="44.753589374763955" lon="9.903612569444224"><ele>634.0</ele><time>2026-04-19T07:34:12Z</time></trkpt><trkpt lat="44.753587364544316" lon="9.903723581907046"><ele>634.8333333333334</ele><time>2026-04-19T07:34:13Z</time></trkpt><trkpt lat="44.75358988022424" lon="9.90383523489278"><ele>635.6666666666667</ele><time>2026-04-19T07:34:14Z</time></trkpt><trkpt lat="44.75360280779617" lon="9.903925659282876"><ele>636.5</ele><time>2026-04-19T07:34:15Z</time></trkpt><trkpt lat="44.753583952973756" lon="9.904013871615355"><ele>637.3333333333334</ele><time>2026-04-19T07:34:16Z</time></trkpt><trkpt lat="44.75357719437755" lon="9.904128883585713"><ele>638.1666666666666</ele><time>2026-04-19T07:34:16.999Z</time></trkpt><trkpt lat="44.75360511012054" lon="9.904243887623577"><ele>639.0</ele><time>2026-04-19T07:34:17.999Z</time></trkpt><trkpt lat="44.75365612201093" lon="9.904355572823274"><ele>640.3333333333334</ele><time>2026-04-19T07:34:18.999Z</time></trkpt><trkpt lat="44.75371093356683" lon="9.904464966396779"><ele>641.6666666666666</ele><time>2026-04-19T07:34:19.999Z</time></trkpt><trkpt lat="44.75375630397419" lon="9.904531383898227"><ele>643.0</ele><time>2026-04-19T07:34:20.999Z</time></trkpt><trkpt lat="44.75385328884316" lon="9.904597471097043"><ele>644.3333333333333</ele><time>2026-04-19T07:34:22.999Z</time></trkpt><trkpt lat="44.75389603901257" lon="9.904678329255157"><ele>645.6666666666666</ele><time>2026-04-19T07:34:23.999Z</time></trkpt><trkpt lat="44.75394976218365" lon="9.904810211635409"><ele>647.0</ele><time>2026-04-19T07:34:24.999Z</time></trkpt><trkpt lat="44.7540052102888" lon="9.90492471326116"><ele>647.0</ele><time>2026-04-19T07:34:25.999Z</time></trkpt><trkpt lat="44.75406219246546" lon="9.905010164656199"><ele>647.0</ele><time>2026-04-19T07:34:26.999Z</time></trkpt><trkpt lat="44.75409153017862" lon="9.905096608409794"><ele>647.0</ele><time>2026-04-19T07:34:27.999Z</time></trkpt><trkpt lat="44.7540987346928" lon="9.905184955577793"><ele>647.0</ele><time>2026-04-19T07:34:28.999Z</time></trkpt><trkpt lat="44.754095032925456" lon="9.905306912408921"><ele>647.0</ele><time>2026-04-19T07:34:29.999Z</time></trkpt><trkpt lat="44.75408419789729" lon="9.905442264488217"><ele>647.0</ele><time>2026-04-19T07:34:30.999Z</time></trkpt><trkpt lat="44.75410258826619" lon="9.905545790999271"><ele>647.8333333333333</ele><time>2026-04-19T07:34:31.999Z</time></trkpt><trkpt lat="44.7541636890746" lon="9.905698980653437"><ele>648.6666666666666</ele><time>2026-04-19T07:34:33.999Z</time></trkpt><trkpt lat="44.75420580216042" lon="9.905765202892535"><ele>649.5</ele><time>2026-04-19T07:34:34.999Z</time></trkpt><trkpt lat="44.754259805279126" lon="9.905885626333715"><ele>650.3333333333334</ele><time>2026-04-19T07:34:36.999Z</time></trkpt><trkpt lat="44.75429071985013" lon="9.905985725600903"><ele>651.1666666666667</ele><time>2026-04-19T07:34:37.999Z</time></trkpt><trkpt lat="44.75432490734945" lon="9.906074467542268"><ele>652.0</ele><time>2026-04-19T07:34:38.999Z</time></trkpt><trkpt lat="44.75435664315733" lon="9.906158003721389"><ele>653.1428571428572</ele><time>2026-04-19T07:34:39.999Z</time></trkpt><trkpt lat="44.754394096891446" lon="9.90624923928726"><ele>654.2857142857142</ele><time>2026-04-19T07:34:40.999Z</time></trkpt><trkpt lat="44.75443177793127" lon="9.906336493583689"><ele>655.4285714285714</ele><time>2026-04-19T07:34:41.999Z</time></trkpt><trkpt lat="44.754469606976755" lon="9.906426625886676"><ele>656.5714285714287</ele><time>2026-04-19T07:34:42.999Z</time></trkpt><trkpt lat="44.75450965076246" lon="9.906507586111765"><ele>657.7142857142858</ele><time>2026-04-19T07:34:43.999Z</time></trkpt><trkpt lat="44.75455032649239" lon="9.906587856285077"><ele>658.8571428571429</ele><time>2026-04-19T07:34:44.999Z</time></trkpt><trkpt lat="44.75459313484801" lon="9.90666527501829"><ele>660.0</ele><time>2026-04-19T07:34:45.999Z</time></trkpt><trkpt lat="44.7546347933617" lon="9.906750506440563"><ele>662.5</ele><time>2026-04-19T07:34:46.999Z</time></trkpt><trkpt lat="44.7546734831249" lon="9.906850890538935"><ele>665.0</ele><time>2026-04-19T07:34:47.999Z</time></trkpt><trkpt lat="44.75470806972058" lon="9.906950936100278"><ele>667.5</ele><time>2026-04-19T07:34:48.999Z</time></trkpt><trkpt lat="44.754740949816515" lon="9.907065556583236"><ele>670.0</ele><time>2026-04-19T07:34:49.999Z</time></trkpt><trkpt lat="44.75476702329665" lon="9.907177120622368"><ele>672.5</ele><time>2026-04-19T07:34:50.999Z</time></trkpt><trkpt lat="44.75482184427095" lon="9.907247901663377"><ele>675.0</ele><time>2026-04-19T07:34:58.999Z</time></trkpt><trkpt lat="44.75488126073017" lon="9.907207802517167"><ele>675.0</ele><time>2026-04-19T07:34:59.999Z</time></trkpt><trkpt lat="44.75496990058414" lon="9.907172364716006"><ele>675.0</ele><time>2026-04-19T07:35:01.999Z</time></trkpt><trkpt lat="44.75510600904725" lon="9.90712540125846"><ele>675.0</ele><time>2026-04-19T07:35:03.999Z</time></trkpt><trkpt lat="44.75517291642682" lon="9.90711189535827"><ele>675.0</ele><time>2026-04-19T07:35:04.999Z</time></trkpt><trkpt lat="44.75523923199537" lon="9.907105043819067"><ele>675.0</ele><time>2026-04-19T07:35:05.999Z</time></trkpt><trkpt lat="44.75530966162131" lon="9.907100966639197"><ele>675.0</ele><time>2026-04-19T07:35:06.999Z</time></trkpt><trkpt lat="44.7553889726871" lon="9.907088450989926"><ele>672.0</ele><time>2026-04-19T07:35:08.999Z</time></trkpt><trkpt lat="44.755470896803004" lon="9.907144425921187"><ele>669.0</ele><time>2026-04-19T07:35:10.999Z</time></trkpt><trkpt lat="44.75558320564883" lon="9.907277674915374"><ele>666.0</ele><time>2026-04-19T07:35:12.999Z</time></trkpt><trkpt lat="44.75567708354734" lon="9.907372383280455"><ele>663.0</ele><time>2026-04-19T07:35:13.999Z</time></trkpt><trkpt lat="44.755766938357404" lon="9.907443219619951"><ele>663.0</ele><time>2026-04-19T07:35:14.999Z</time></trkpt><trkpt lat="44.75583607597908" lon="9.907495052122394"><ele>663.0</ele><time>2026-04-19T07:35:15.999Z</time></trkpt><trkpt lat="44.75590226484354" lon="9.907536035523028"><ele>663.0</ele><time>2026-04-19T07:35:16.999Z</time></trkpt><trkpt lat="44.75597166829091" lon="9.907590760734182"><ele>663.0</ele><time>2026-04-19T07:35:17.999Z</time></trkpt><trkpt lat="44.756033527397825" lon="9.907673617447877"><ele>663.0</ele><time>2026-04-19T07:35:18.999Z</time></trkpt><trkpt lat="44.75609417252085" lon="9.907718001775637"><ele>663.0</ele><time>2026-04-19T07:35:19.999Z</time></trkpt><trkpt lat="44.75613768745824" lon="9.90778878487466"><ele>663.2</ele><time>2026-04-19T07:35:20.999Z</time></trkpt><trkpt lat="44.756233560438474" lon="9.907884152175424"><ele>663.4</ele><time>2026-04-19T07:35:22.999Z</time></trkpt><trkpt lat="44.756304103205004" lon="9.90789275198798"><ele>663.6</ele><time>2026-04-19T07:35:24.999Z</time></trkpt><trkpt lat="44.75642023751022" lon="9.907879074158089"><ele>663.8000000000001</ele><time>2026-04-19T07:35:26.999Z</time></trkpt><trkpt lat="44.75650188590077" lon="9.907884577707781"><ele>664.0</ele><time>2026-04-19T07:35:27.999Z</time></trkpt><trkpt lat="44.75656959799119" lon="9.907884195598488"><ele>664.0</ele><time>2026-04-19T07:35:28.999Z</time></trkpt><trkpt lat="44.75664486513996" lon="9.907892225811628"><ele>664.0</ele><time>2026-04-19T07:35:29.999Z</time></trkpt><trkpt lat="44.756734229209" lon="9.907858646601532"><ele>664.0</ele><time>2026-04-19T07:35:31.999Z</time></trkpt><trkpt lat="44.75681638866506" lon="9.907815926202982"><ele>664.0</ele><time>2026-04-19T07:35:33.999Z</time></trkpt><trkpt lat="44.75692443303135" lon="9.907860952105654"><ele>664.0</ele><time>2026-04-19T07:35:35.999Z</time></trkpt><trkpt lat="44.7569896358809" lon="9.907868635502684"><ele>664.0</ele><time>2026-04-19T07:35:36.999Z</time></trkpt><trkpt lat="44.757107930892104" lon="9.907851622704205"><ele>663.1666666666667</ele><time>2026-04-19T07:35:39Z</time></trkpt><trkpt lat="44.757190443177876" lon="9.907841695738137"><ele>662.3333333333334</ele><time>2026-04-19T07:35:40Z</time></trkpt><trkpt lat="44.75725751285496" lon="9.90779119793693"><ele>661.5</ele><time>2026-04-19T07:35:41Z</time></trkpt><trkpt lat="44.75733016044935" lon="9.90778527219642"><ele>660.6666666666666</ele><time>2026-04-19T07:35:42Z</time></trkpt><trkpt lat="44.757417578871234" lon="9.907770366337997"><ele>659.8333333333333</ele><time>2026-04-19T07:35:44Z</time></trkpt><trkpt lat="44.75750339780758" lon="9.907837810355476"><ele>659.0</ele><time>2026-04-19T07:35:46Z</time></trkpt><trkpt lat="44.757592321610225" lon="9.907889061978702"><ele>659.0</ele><time>2026-04-19T07:35:47Z</time></trkpt><trkpt lat="44.75767205917734" lon="9.90790274022649"><ele>659.0</ele><time>2026-04-19T07:35:48Z</time></trkpt><trkpt lat="44.757739345315734" lon="9.907919406068826"><ele>659.0</ele><time>2026-04-19T07:35:49Z</time></trkpt><trkpt lat="44.75780915634766" lon="9.907972698533698"><ele>659.0</ele><time>2026-04-19T07:35:51Z</time></trkpt><trkpt lat="44.757883501960244" lon="9.90803510065532"><ele>659.0</ele><time>2026-04-19T07:35:53Z</time></trkpt><trkpt lat="44.75795352423712" lon="9.908107533418278"><ele>659.0</ele><time>2026-04-19T07:35:55Z</time></trkpt><trkpt lat="44.75803000161417" lon="9.90812765661229"><ele>659.1666666666666</ele><time>2026-04-19T07:35:58Z</time></trkpt><trkpt lat="44.75810778050173" lon="9.908224974683291"><ele>659.3333333333333</ele><time>2026-04-19T07:36:01Z</time></trkpt><trkpt lat="44.75816437063898" lon="9.908299837413486"><ele>659.5</ele><time>2026-04-19T07:36:03Z</time></trkpt><trkpt lat="44.75822817132177" lon="9.90833032474296"><ele>659.6666666666666</ele><time>2026-04-19T07:37:24.999Z</time></trkpt><trkpt lat="44.75827865483415" lon="9.908390881675322"><ele>659.8333333333334</ele><time>2026-04-19T07:37:51Z</time></trkpt><trkpt lat="44.75831440173879" lon="9.908534318599045"><ele>660.0</ele><time>2026-04-19T07:37:53Z</time></trkpt><trkpt lat="44.75836023219703" lon="9.908640461587805"><ele>660.0</ele><time>2026-04-19T07:37:55Z</time></trkpt><trkpt lat="44.75835148928252" lon="9.90873000142676"><ele>660.0</ele><time>2026-04-19T07:37:57Z</time></trkpt><trkpt lat="44.7583295685797" lon="9.908847172653065"><ele>660.0</ele><time>2026-04-19T07:37:59Z</time></trkpt><trkpt lat="44.75833282284101" lon="9.908990140282215"><ele>660.0</ele><time>2026-04-19T07:38:01Z</time></trkpt><trkpt lat="44.758335333203355" lon="9.909112827941481"><ele>660.0</ele><time>2026-04-19T07:38:03Z</time></trkpt><trkpt lat="44.7583331847832" lon="9.909216260507876"><ele>660.0</ele><time>2026-04-19T07:38:06Z</time></trkpt><trkpt lat="44.75831890510052" lon="9.909338096283124"><ele>662.8333333333334</ele><time>2026-04-19T07:38:08Z</time></trkpt><trkpt lat="44.758334710666944" lon="9.909443522223734"><ele>665.6666666666666</ele><time>2026-04-19T07:38:10Z</time></trkpt><trkpt lat="44.75833176252786" lon="9.909564680877443"><ele>668.5</ele><time>2026-04-19T07:38:12Z</time></trkpt><trkpt lat="44.758342712506185" lon="9.909701409518853"><ele>671.3333333333333</ele><time>2026-04-19T07:38:14Z</time></trkpt><trkpt lat="44.75833720354082" lon="9.909807514567573"><ele>674.1666666666666</ele><time>2026-04-19T07:38:16Z</time></trkpt><trkpt lat="44.758292943638544" lon="9.909908521543471"><ele>677.0</ele><time>2026-04-19T07:38:18Z</time></trkpt><trkpt lat="44.75835087583538" lon="9.909952705884365"><ele>677.0</ele><time>2026-04-19T07:38:20Z</time></trkpt><trkpt lat="44.75843177567542" lon="9.910057142493194"><ele>677.0</ele><time>2026-04-19T07:38:22.999Z</time></trkpt><trkpt lat="44.75849634466332" lon="9.910139766860764"><ele>677.0</ele><time>2026-04-19T07:38:24.999Z</time></trkpt><trkpt lat="44.758555044618085" lon="9.910222642515947"><ele>677.0</ele><time>2026-04-19T07:38:33.999Z</time></trkpt><trkpt lat="44.758611631160164" lon="9.910262981080301"><ele>677.0</ele><time>2026-04-19T07:38:36.999Z</time></trkpt><trkpt lat="44.75865298114897" lon="9.910344645598439"><ele>677.0</ele><time>2026-04-19T07:38:43.999Z</time></trkpt><trkpt lat="44.758679275823" lon="9.910457541622295"><ele>676.2857142857142</ele><time>2026-04-19T07:38:46.999Z</time></trkpt><trkpt lat="44.75872400778129" lon="9.910544340305838"><ele>675.5714285714286</ele><time>2026-04-19T07:38:53.999Z</time></trkpt><trkpt lat="44.75878193529685" lon="9.910594273066772"><ele>674.8571428571429</ele><time>2026-04-19T07:38:57.999Z</time></trkpt><trkpt lat="44.7588416324928" lon="9.91063886291401"><ele>674.1428571428571</ele><time>2026-04-19T07:39:03.999Z</time></trkpt><trkpt lat="44.75889913919734" lon="9.910712509219875"><ele>673.4285714285714</ele><time>2026-04-19T07:39:07.999Z</time></trkpt><trkpt lat="44.75893838867848" lon="9.910783015327851"><ele>672.7142857142857</ele><time>2026-04-19T07:39:10.999Z</time></trkpt><trkpt lat="44.758998334898834" lon="9.910837846200776"><ele>672.0</ele><time>2026-04-19T07:39:17.999Z</time></trkpt><trkpt lat="44.759054482838906" lon="9.910882420692104"><ele>675.6666666666666</ele><time>2026-04-19T07:39:24.999Z</time></trkpt><trkpt lat="44.75910034726852" lon="9.910959950926168"><ele>679.3333333333334</ele><time>2026-04-19T07:40:17Z</time></trkpt><trkpt lat="44.759175585667705" lon="9.911004635690018"><ele>683.0</ele><time>2026-04-19T07:40:28.999Z</time></trkpt><trkpt lat="44.75923712932418" lon="9.910979838994084"><ele>686.6666666666667</ele><time>2026-04-19T07:40:31.999Z</time></trkpt><trkpt lat="44.759315931723826" lon="9.91096706621342"><ele>690.3333333333334</ele><time>2026-04-19T07:40:33.999Z</time></trkpt><trkpt lat="44.75939356940441" lon="9.911021971269552"><ele>694.0</ele><time>2026-04-19T07:40:35.999Z</time></trkpt><trkpt lat="44.75946896446431" lon="9.91109933774287"><ele>694.2</ele><time>2026-04-19T07:40:37.999Z</time></trkpt><trkpt lat="44.75957251987638" lon="9.91113445907639"><ele>694.4000000000001</ele><time>2026-04-19T07:40:39.999Z</time></trkpt><trkpt lat="44.75968275779616" lon="9.911067658826063"><ele>694.6</ele><time>2026-04-19T07:40:44.999Z</time></trkpt><trkpt lat="44.75978116077749" lon="9.910951576223923"><ele>694.8</ele><time>2026-04-19T07:40:47.999Z</time></trkpt><trkpt lat="44.7598482650776" lon="9.910922612684185"><ele>695.0</ele><time>2026-04-19T07:40:48.999Z</time></trkpt><trkpt lat="44.759941816778834" lon="9.910986356166713"><ele>695.0</ele><time>2026-04-19T07:40:50.999Z</time></trkpt><trkpt lat="44.760010483362315" lon="9.911054379617076"><ele>695.0</ele><time>2026-04-19T07:40:52.999Z</time></trkpt><trkpt lat="44.76007709217787" lon="9.91110097283008"><ele>695.0</ele><time>2026-04-19T07:40:53.999Z</time></trkpt><trkpt lat="44.76014164876779" lon="9.911127614299698"><ele>695.0</ele><time>2026-04-19T07:40:54.999Z</time></trkpt><trkpt lat="44.760220892663625" lon="9.911066067700311"><ele>695.0</ele><time>2026-04-19T07:40:56.999Z</time></trkpt><trkpt lat="44.760435029913126" lon="9.911082594318886"><ele>698.4</ele><time>2026-04-19T07:41:00.999Z</time></trkpt><trkpt lat="44.760553054465205" lon="9.911195511153414"><ele>701.8</ele><time>2026-04-19T07:41:02.999Z</time></trkpt><trkpt lat="44.76061559360042" lon="9.91126058542235"><ele>705.2</ele><time>2026-04-19T07:41:03.999Z</time></trkpt><trkpt lat="44.760680662922766" lon="9.911318791573688"><ele>708.6</ele><time>2026-04-19T07:41:04.999Z</time></trkpt><trkpt lat="44.76074127812486" lon="9.911374715129819"><ele>712.0</ele><time>2026-04-19T07:41:05.999Z</time></trkpt><trkpt lat="44.760832718634354" lon="9.911487769797223"><ele>712.0</ele><time>2026-04-19T07:41:07.999Z</time></trkpt><trkpt lat="44.76087929847298" lon="9.911582921997164"><ele>712.0</ele><time>2026-04-19T07:41:09.999Z</time></trkpt><trkpt lat="44.76092206492246" lon="9.911662607379226"><ele>712.0</ele><time>2026-04-19T07:41:11.999Z</time></trkpt><trkpt lat="44.76098390559234" lon="9.911775794459832"><ele>712.0</ele><time>2026-04-19T07:41:13.999Z</time></trkpt><trkpt lat="44.76107623955316" lon="9.911863863212655"><ele>712.0</ele><time>2026-04-19T07:41:15.999Z</time></trkpt><trkpt lat="44.76113128323707" lon="9.911921625310654"><ele>712.0</ele><time>2026-04-19T07:41:16.999Z</time></trkpt><trkpt lat="44.761229563367664" lon="9.911984505553242"><ele>715.8333333333334</ele><time>2026-04-19T07:41:18.999Z</time></trkpt><trkpt lat="44.76131980931982" lon="9.911989826630599"><ele>719.6666666666667</ele><time>2026-04-19T07:41:20.999Z</time></trkpt><trkpt lat="44.76138670446962" lon="9.912003415685772"><ele>723.5</ele><time>2026-04-19T07:41:22.999Z</time></trkpt><trkpt lat="44.76138383155346" lon="9.91188962846511"><ele>727.3333333333334</ele><time>2026-04-19T07:41:26.999Z</time></trkpt><trkpt lat="44.76136144432824" lon="9.911791085636521"><ele>731.1666666666666</ele><time>2026-04-19T07:41:28.999Z</time></trkpt><trkpt lat="44.761354163767905" lon="9.911657607576869"><ele>735.0</ele><time>2026-04-19T07:41:30.999Z</time></trkpt><trkpt lat="44.761355006051325" lon="9.911548256961265"><ele>735.0</ele><time>2026-04-19T07:41:31.999Z</time></trkpt><trkpt lat="44.76135394545938" lon="9.911432976894922"><ele>735.0</ele><time>2026-04-19T07:41:33.999Z</time></trkpt><trkpt lat="44.76136206628" lon="9.91123702768754"><ele>735.0</ele><time>2026-04-19T07:41:35.999Z</time></trkpt><trkpt lat="44.76138261395636" lon="9.911071891009124"><ele>735.0</ele><time>2026-04-19T07:41:37.999Z</time></trkpt><trkpt lat="44.761418939434286" lon="9.9109358860073"><ele>735.0</ele><time>2026-04-19T07:41:39.999Z</time></trkpt><trkpt lat="44.761486477469596" lon="9.910844370972903"><ele>734.5714285714286</ele><time>2026-04-19T07:41:41.999Z</time></trkpt><trkpt lat="44.76155449017685" lon="9.910851052529681"><ele>734.1428571428571</ele><time>2026-04-19T07:41:42.999Z</time></trkpt><trkpt lat="44.76164570920979" lon="9.910849417463533"><ele>733.7142857142858</ele><time>2026-04-19T07:41:43.999Z</time></trkpt><trkpt lat="44.76171075941749" lon="9.910820588783702"><ele>733.2857142857142</ele><time>2026-04-19T07:41:44.999Z</time></trkpt><trkpt lat="44.76176957644673" lon="9.910737718755847"><ele>732.8571428571429</ele><time>2026-04-19T07:41:45.999Z</time></trkpt><trkpt lat="44.761819242861975" lon="9.910679855107235"><ele>732.4285714285714</ele><time>2026-04-19T07:41:46.999Z</time></trkpt><trkpt lat="44.761878213876635" lon="9.910645416055932"><ele>732.0</ele><time>2026-04-19T07:41:47.999Z</time></trkpt><trkpt lat="44.7619249808708" lon="9.910577233860693"><ele>732.6666666666666</ele><time>2026-04-19T07:41:48.999Z</time></trkpt><trkpt lat="44.76194385867076" lon="9.910438741096188"><ele>733.3333333333334</ele><time>2026-04-19T07:41:51.999Z</time></trkpt><trkpt lat="44.76197588727559" lon="9.910343249759551"><ele>734.0</ele><time>2026-04-19T07:41:52.999Z</time></trkpt><trkpt lat="44.762051964218024" lon="9.910232825089214"><ele>734.6666666666667</ele><time>2026-04-19T07:41:53.999Z</time></trkpt><trkpt lat="44.76208202222962" lon="9.910148997080075"><ele>735.3333333333334</ele><time>2026-04-19T07:41:54.999Z</time></trkpt><trkpt lat="44.76211791548503" lon="9.910073892623357"><ele>736.0</ele><time>2026-04-19T07:41:55.999Z</time></trkpt><trkpt lat="44.76218293360342" lon="9.909939226292977"><ele>736.0</ele><time>2026-04-19T07:41:57.999Z</time></trkpt><trkpt lat="44.76225701740449" lon="9.90983276789398"><ele>736.0</ele><time>2026-04-19T07:41:59.999Z</time></trkpt><trkpt lat="44.76231398232612" lon="9.909724604854325"><ele>736.0</ele><time>2026-04-19T07:42:01.999Z</time></trkpt><trkpt lat="44.762361976091974" lon="9.90964885668957"><ele>736.0</ele><time>2026-04-19T07:42:03.999Z</time></trkpt><trkpt lat="44.76240521043813" lon="9.909566017847329"><ele>736.0</ele><time>2026-04-19T07:42:06Z</time></trkpt><trkpt lat="44.76244404950656" lon="9.909447399453928"><ele>736.0</ele><time>2026-04-19T07:42:08Z</time></trkpt><trkpt lat="44.762508023575904" lon="9.909298432577401"><ele>733.1999999999999</ele><time>2026-04-19T07:42:10Z</time></trkpt><trkpt lat="44.76257662667235" lon="9.909154714371596"><ele>730.4</ele><time>2026-04-19T07:42:11.999Z</time></trkpt><trkpt lat="44.76266300429614" lon="9.908993620271243"><ele>727.6</ele><time>2026-04-19T07:42:13.999Z</time></trkpt><trkpt lat="44.762694884841835" lon="9.9088956982621"><ele>724.8</ele><time>2026-04-19T07:42:15.999Z</time></trkpt><trkpt lat="44.76270335295473" lon="9.908757538254022"><ele>722.0</ele><time>2026-04-19T07:42:17.999Z</time></trkpt><trkpt lat="44.76278765668645" lon="9.908614130249344"><ele>722.0</ele><time>2026-04-19T07:42:19.999Z</time></trkpt><trkpt lat="44.76283535412451" lon="9.908551085951636"><ele>722.0</ele><time>2026-04-19T07:42:21.999Z</time></trkpt><trkpt lat="44.762816872854884" lon="9.908455765273848"><ele>722.0</ele><time>2026-04-19T07:42:23.999Z</time></trkpt><trkpt lat="44.762870634454835" lon="9.908350303280875"><ele>722.0</ele><time>2026-04-19T07:42:25.999Z</time></trkpt><trkpt lat="44.762905264642484" lon="9.90825972863851"><ele>722.0</ele><time>2026-04-19T07:42:28.999Z</time></trkpt><trkpt lat="44.76291858999345" lon="9.90813080091378"><ele>722.0</ele><time>2026-04-19T07:42:30.999Z</time></trkpt><trkpt lat="44.76288533062417" lon="9.908047971001572"><ele>717.6666666666666</ele><time>2026-04-19T07:42:32.999Z</time></trkpt><trkpt lat="44.76283831152743" lon="9.907988728141037"><ele>713.3333333333333</ele><time>2026-04-19T07:42:34.999Z</time></trkpt><trkpt lat="44.762744827767456" lon="9.90793584367241"><ele>709.0</ele><time>2026-04-19T07:42:36.999Z</time></trkpt><trkpt lat="44.7627506892263" lon="9.907834197276479"><ele>704.6666666666666</ele><time>2026-04-19T07:42:40.999Z</time></trkpt><trkpt lat="44.762781467848995" lon="9.90774557773973"><ele>700.3333333333334</ele><time>2026-04-19T07:44:34.999Z</time></trkpt><trkpt lat="44.762773664566474" lon="9.907617024488921"><ele>696.0</ele><time>2026-04-19T07:44:38.999Z</time></trkpt><trkpt lat="44.76278353092158" lon="9.907512149571994"><ele>692.2857142857142</ele><time>2026-04-19T07:44:44.999Z</time></trkpt><trkpt lat="44.762804338109234" lon="9.907423490221518"><ele>688.5714285714286</ele><time>2026-04-19T07:44:47.999Z</time></trkpt><trkpt lat="44.76282875425361" lon="9.907339389903255"><ele>684.8571428571429</ele><time>2026-04-19T07:44:50.999Z</time></trkpt><trkpt lat="44.762833093345776" lon="9.907217281746115"><ele>681.1428571428571</ele><time>2026-04-19T07:44:54.999Z</time></trkpt><trkpt lat="44.76284335077725" lon="9.907123494054344"><ele>677.4285714285714</ele><time>2026-04-19T07:44:58.999Z</time></trkpt><trkpt lat="44.762864580691144" lon="9.906988456559253"><ele>673.7142857142857</ele><time>2026-04-19T07:45:14.999Z</time></trkpt><trkpt lat="44.76286671894356" lon="9.906898689660618"><ele>670.0</ele><time>2026-04-19T07:45:16.999Z</time></trkpt><trkpt lat="44.76286073404858" lon="9.906767316230866"><ele>666.8333333333334</ele><time>2026-04-19T07:45:19.999Z</time></trkpt><trkpt lat="44.76288297478485" lon="9.906649677936462"><ele>663.6666666666667</ele><time>2026-04-19T07:45:29.999Z</time></trkpt><trkpt lat="44.762897513865106" lon="9.906520382436907"><ele>660.5</ele><time>2026-04-19T07:45:31.999Z</time></trkpt><trkpt lat="44.76291550471369" lon="9.906411509538469"><ele>657.3333333333334</ele><time>2026-04-19T07:45:33.999Z</time></trkpt><trkpt lat="44.76293090106093" lon="9.906319232750425"><ele>654.1666666666666</ele><time>2026-04-19T07:45:35.999Z</time></trkpt><trkpt lat="44.76294913620634" lon="9.906204328854935"><ele>651.0</ele><time>2026-04-19T07:45:38.999Z</time></trkpt><trkpt lat="44.762947794190026" lon="9.906073636594089"><ele>648.1999999999999</ele><time>2026-04-19T07:45:40.999Z</time></trkpt><trkpt lat="44.762947561052556" lon="9.905909792663266"><ele>645.4</ele><time>2026-04-19T07:45:42.999Z</time></trkpt><trkpt lat="44.76298514478755" lon="9.905779884638623"><ele>642.6</ele><time>2026-04-19T07:45:44.999Z</time></trkpt><trkpt lat="44.762994621413064" lon="9.905659769815522"><ele>639.8</ele><time>2026-04-19T07:45:46.999Z</time></trkpt><trkpt lat="44.76301765342005" lon="9.905488196040869"><ele>637.0</ele><time>2026-04-19T07:45:48.999Z</time></trkpt><trkpt lat="44.76304542820292" lon="9.905359400805228"><ele>637.0</ele><time>2026-04-19T07:45:50.999Z</time></trkpt><trkpt lat="44.763047361466555" lon="9.905240453091064"><ele>637.0</ele><time>2026-04-19T07:45:52.999Z</time></trkpt><trkpt lat="44.76301247804365" lon="9.905145715818996"><ele>637.0</ele><time>2026-04-19T07:45:54.999Z</time></trkpt><trkpt lat="44.763011759919266" lon="9.905023397532627"><ele>637.0</ele><time>2026-04-19T07:45:56.999Z</time></trkpt><trkpt lat="44.7629860018466" lon="9.904888168448814"><ele>637.0</ele><time>2026-04-19T07:45:58.999Z</time></trkpt><trkpt lat="44.76297476599133" lon="9.904770856816278"><ele>637.0</ele><time>2026-04-19T07:46:00.999Z</time></trkpt><trkpt lat="44.76296924111078" lon="9.904642969733525"><ele>635.1666666666667</ele><time>2026-04-19T07:46:02.999Z</time></trkpt><trkpt lat="44.76294429445839" lon="9.904526356631724"><ele>633.3333333333334</ele><time>2026-04-19T07:46:04.999Z</time></trkpt><trkpt lat="44.762934757846736" lon="9.904420653174755"><ele>631.5</ele><time>2026-04-19T07:46:06.999Z</time></trkpt><trkpt lat="44.762924065495234" lon="9.904316145170949"><ele>629.6666666666666</ele><time>2026-04-19T07:46:09Z</time></trkpt><trkpt lat="44.76287055901546" lon="9.90422708095431"><ele>627.8333333333333</ele><time>2026-04-19T07:46:17Z</time></trkpt><trkpt lat="44.76284641968098" lon="9.904100111366054"><ele>626.0</ele><time>2026-04-19T07:46:19Z</time></trkpt><trkpt lat="44.7628253260958" lon="9.90398507089796"><ele>624.1666666666666</ele><time>2026-04-19T07:46:21Z</time></trkpt><trkpt lat="44.7627685794399" lon="9.903882828685454"><ele>622.3333333333333</ele><time>2026-04-19T07:46:23Z</time></trkpt><trkpt lat="44.76269997153836" lon="9.90380495744876"><ele>620.5</ele><time>2026-04-19T07:46:25Z</time></trkpt><trkpt lat="44.76264803223122" lon="9.90375430185392"><ele>618.6666666666666</ele><time>2026-04-19T07:46:29Z</time></trkpt><trkpt lat="44.762593522475306" lon="9.903670254939819"><ele>616.8333333333334</ele><time>2026-04-19T07:47:33.999Z</time></trkpt><trkpt lat="44.76265172922504" lon="9.903610647222195"><ele>615.0</ele><time>2026-04-19T07:47:47.999Z</time></trkpt><trkpt lat="44.76271653159026" lon="9.903585174750527"><ele>614.4</ele><time>2026-04-19T07:47:49.999Z</time></trkpt><trkpt lat="44.762837134380725" lon="9.903615429376691"><ele>613.8</ele><time>2026-04-19T07:47:51.999Z</time></trkpt><trkpt lat="44.762952961005055" lon="9.903614269953293"><ele>613.2</ele><time>2026-04-19T07:47:53.999Z</time></trkpt><trkpt lat="44.76301954970227" lon="9.903587533408325"><ele>612.6</ele><time>2026-04-19T07:47:54.999Z</time></trkpt><trkpt lat="44.763108086632776" lon="9.903544514343569"><ele>612.0</ele><time>2026-04-19T07:47:56.999Z</time></trkpt><trkpt lat="44.763172265632306" lon="9.903540845253966"><ele>612.0</ele><time>2026-04-19T07:47:58.999Z</time></trkpt><trkpt lat="44.763233178310664" lon="9.903495430674552"><ele>612.0</ele><time>2026-04-19T07:48:06.999Z</time></trkpt><trkpt lat="44.76331278236769" lon="9.903560529259375"><ele>612.0</ele><time>2026-04-19T07:48:10.999Z</time></trkpt><trkpt lat="44.763388115219776" lon="9.90358482342465"><ele>612.0</ele><time>2026-04-19T07:48:14Z</time></trkpt><trkpt lat="44.76344940657772" lon="9.903664094140163"><ele>612.0</ele><time>2026-04-19T07:48:16Z</time></trkpt><trkpt lat="44.76350952254167" lon="9.9037603232044"><ele>612.0</ele><time>2026-04-19T07:48:18Z</time></trkpt><trkpt lat="44.763547520110144" lon="9.903882076616135"><ele>613.0</ele><time>2026-04-19T07:48:20Z</time></trkpt><trkpt lat="44.76359458920481" lon="9.904012096437855"><ele>614.0</ele><time>2026-04-19T07:48:22Z</time></trkpt><trkpt lat="44.76366901553249" lon="9.904138550465923"><ele>615.0</ele><time>2026-04-19T07:48:24Z</time></trkpt><trkpt lat="44.76370145684587" lon="9.90425600285194"><ele>616.0</ele><time>2026-04-19T07:48:26Z</time></trkpt><trkpt lat="44.763738133649696" lon="9.90434330580893"><ele>617.0</ele><time>2026-04-19T07:48:28Z</time></trkpt><trkpt lat="44.76381134593456" lon="9.904246211836877"><ele>613.8333333333333</ele><time>2026-04-19T07:48:33Z</time></trkpt><trkpt lat="44.76388097793679" lon="9.9040841714737"><ele>610.6666666666666</ele><time>2026-04-19T07:48:35Z</time></trkpt><trkpt lat="44.76391703285569" lon="9.903978541189037"><ele>607.5</ele><time>2026-04-19T07:48:36Z</time></trkpt><trkpt lat="44.76396197959603" lon="9.903914745911816"><ele>604.3333333333334</ele><time>2026-04-19T07:48:37Z</time></trkpt><trkpt lat="44.76400875912019" lon="9.903825014616775"><ele>601.1666666666667</ele><time>2026-04-19T07:48:38Z</time></trkpt><trkpt lat="44.76404207590683" lon="9.903730238744565"><ele>598.0</ele><time>2026-04-19T07:48:39Z</time></trkpt><trkpt lat="44.76407696452131" lon="9.903641844031988"><ele>598.0</ele><time>2026-04-19T07:48:40Z</time></trkpt><trkpt lat="44.76412443834216" lon="9.903565410278732"><ele>598.0</ele><time>2026-04-19T07:48:41Z</time></trkpt><trkpt lat="44.764165850559635" lon="9.90347868213175"><ele>598.0</ele><time>2026-04-19T07:48:42Z</time></trkpt><trkpt lat="44.76420548065046" lon="9.903409286699462"><ele>598.0</ele><time>2026-04-19T07:48:43Z</time></trkpt><trkpt lat="44.76424599352601" lon="9.90333577459378"><ele>598.0</ele><time>2026-04-19T07:48:44Z</time></trkpt><trkpt lat="44.764307441488185" lon="9.903262663677"><ele>598.0</ele><time>2026-04-19T07:48:45Z</time></trkpt><trkpt lat="44.76437881512245" lon="9.903169363155955"><ele>598.6666666666667</ele><time>2026-04-19T07:48:47Z</time></trkpt><trkpt lat="44.76448251605042" lon="9.903132043832281"><ele>599.3333333333334</ele><time>2026-04-19T07:48:49Z</time></trkpt><trkpt lat="44.76455139775032" lon="9.903109105172136"><ele>600.0</ele><time>2026-04-19T07:48:50Z</time></trkpt><trkpt lat="44.764602501653144" lon="9.903056894160297"><ele>600.6666666666666</ele><time>2026-04-19T07:48:51Z</time></trkpt><trkpt lat="44.764659954726014" lon="9.902977293607256"><ele>601.3333333333333</ele><time>2026-04-19T07:48:51.999Z</time></trkpt><trkpt lat="44.76470674715817" lon="9.902908174871493"><ele>602.0</ele><time>2026-04-19T07:48:52.999Z</time></trkpt><trkpt lat="44.76480521446723" lon="9.902808227655914"><ele>602.0</ele><time>2026-04-19T07:48:54.999Z</time></trkpt><trkpt lat="44.76484830955538" lon="9.902741143241103"><ele>602.0</ele><time>2026-04-19T07:48:55.999Z</time></trkpt><trkpt lat="44.764885536993" lon="9.902655799943355"><ele>602.0</ele><time>2026-04-19T07:48:56.999Z</time></trkpt><trkpt lat="44.764932387578035" lon="9.90255747883426"><ele>602.0</ele><time>2026-04-19T07:48:57.999Z</time></trkpt><trkpt lat="44.76498010850224" lon="9.902479364784448"><ele>602.0</ele><time>2026-04-19T07:48:58.999Z</time></trkpt><trkpt lat="44.765061297449876" lon="9.902393510300634"><ele>602.0</ele><time>2026-04-19T07:49:00.999Z</time></trkpt><trkpt lat="44.765172769774026" lon="9.902380693314301"><ele>598.5</ele><time>2026-04-19T07:49:02.999Z</time></trkpt><trkpt lat="44.7652429470257" lon="9.902380509948951"><ele>595.0</ele><time>2026-04-19T07:49:03.999Z</time></trkpt><trkpt lat="44.7653141478119" lon="9.90235941094747"><ele>591.5</ele><time>2026-04-19T07:49:04.999Z</time></trkpt><trkpt lat="44.76543809348471" lon="9.902403096533698"><ele>588.0</ele><time>2026-04-19T07:49:06.999Z</time></trkpt><trkpt lat="44.76550167939825" lon="9.90242334549239"><ele>584.5</ele><time>2026-04-19T07:49:07.999Z</time></trkpt><trkpt lat="44.765574349985556" lon="9.902425173140825"><ele>581.0</ele><time>2026-04-19T07:49:08.999Z</time></trkpt><trkpt lat="44.76569175001503" lon="9.902465679804346"><ele>581.0</ele><time>2026-04-19T07:49:10.999Z</time></trkpt><trkpt lat="44.76576981544061" lon="9.902519642488526"><ele>581.0</ele><time>2026-04-19T07:49:11.999Z</time></trkpt><trkpt lat="44.76583339894597" lon="9.902560396400858"><ele>581.0</ele><time>2026-04-19T07:49:12.999Z</time></trkpt><trkpt lat="44.76591315123237" lon="9.90261667379459"><ele>581.0</ele><time>2026-04-19T07:49:13.999Z</time></trkpt><trkpt lat="44.76599741010054" lon="9.902693824445233"><ele>581.0</ele><time>2026-04-19T07:49:14.999Z</time></trkpt><trkpt lat="44.7660777047144" lon="9.902775412353336"><ele>581.0</ele><time>2026-04-19T07:49:15.999Z</time></trkpt><trkpt lat="44.76616664092115" lon="9.902861274094967"><ele>583.0</ele><time>2026-04-19T07:49:16.999Z</time></trkpt><trkpt lat="44.766234341859565" lon="9.902941274266398"><ele>585.0</ele><time>2026-04-19T07:49:17.999Z</time></trkpt><trkpt lat="44.76634714879323" lon="9.903007798137114"><ele>587.0</ele><time>2026-04-19T07:49:19.999Z</time></trkpt><trkpt lat="44.76648600153322" lon="9.903023711569103"><ele>589.0</ele><time>2026-04-19T07:49:21.999Z</time></trkpt><trkpt lat="44.76658414430739" lon="9.903018008784834"><ele>591.0</ele><time>2026-04-19T07:49:23.999Z</time></trkpt><trkpt lat="44.76665530130166" lon="9.9029163614729"><ele>591.0</ele><time>2026-04-19T07:49:25.999Z</time></trkpt><trkpt lat="44.76676945740608" lon="9.902822470588452"><ele>591.0</ele><time>2026-04-19T07:49:27.999Z</time></trkpt><trkpt lat="44.766831999870035" lon="9.902783557540383"><ele>591.0</ele><time>2026-04-19T07:49:28.999Z</time></trkpt><trkpt lat="44.76689075530294" lon="9.902744959738984"><ele>591.0</ele><time>2026-04-19T07:49:29.999Z</time></trkpt><trkpt lat="44.76697068092675" lon="9.902676562453676"><ele>591.0</ele><time>2026-04-19T07:49:31.999Z</time></trkpt><trkpt lat="44.767012311322475" lon="9.902605038541871"><ele>591.0</ele><time>2026-04-19T07:49:33.999Z</time></trkpt><trkpt lat="44.7670348682459" lon="9.902492248663382"><ele>588.5</ele><time>2026-04-19T07:49:35.999Z</time></trkpt><trkpt lat="44.767076574463985" lon="9.90238547097899"><ele>586.0</ele><time>2026-04-19T07:49:36.999Z</time></trkpt><trkpt lat="44.76707959409893" lon="9.902294434158595"><ele>583.5</ele><time>2026-04-19T07:49:37.999Z</time></trkpt><trkpt lat="44.76711190246611" lon="9.902140779522886"><ele>581.0</ele><time>2026-04-19T07:49:39.999Z</time></trkpt><trkpt lat="44.76714028499503" lon="9.90199950728235"><ele>578.5</ele><time>2026-04-19T07:49:41.999Z</time></trkpt><trkpt lat="44.7671705318246" lon="9.90191392922331"><ele>576.0</ele><time>2026-04-19T07:49:43.999Z</time></trkpt><trkpt lat="44.76722867315618" lon="9.901850468651864"><ele>576.0</ele><time>2026-04-19T07:49:45.999Z</time></trkpt><trkpt lat="44.76729020646624" lon="9.901760666482618"><ele>576.0</ele><time>2026-04-19T07:49:47.999Z</time></trkpt><trkpt lat="44.76734691449677" lon="9.901624067060919"><ele>576.0</ele><time>2026-04-19T07:49:49.999Z</time></trkpt><trkpt lat="44.76739971390339" lon="9.901525808657185"><ele>576.0</ele><time>2026-04-19T07:49:51.999Z</time></trkpt><trkpt lat="44.767475263216156" lon="9.901411690828652"><ele>576.0</ele><time>2026-04-19T07:49:53.999Z</time></trkpt><trkpt lat="44.767544795694754" lon="9.901338301877919"><ele>573.1666666666666</ele><time>2026-04-19T07:49:54.999Z</time></trkpt><trkpt lat="44.76761297007405" lon="9.901266225387342"><ele>570.3333333333334</ele><time>2026-04-19T07:49:55.999Z</time></trkpt><trkpt lat="44.76766700044123" lon="9.90117115535111"><ele>567.5</ele><time>2026-04-19T07:49:56.999Z</time></trkpt><trkpt lat="44.76773084283311" lon="9.901115631419469"><ele>564.6666666666667</ele><time>2026-04-19T07:49:57.999Z</time></trkpt><trkpt lat="44.767822510641146" lon="9.901063000657716"><ele>561.8333333333334</ele><time>2026-04-19T07:49:59.999Z</time></trkpt><trkpt lat="44.76791285454503" lon="9.901042972322172"><ele>559.0</ele><time>2026-04-19T07:50:01.999Z</time></trkpt><trkpt lat="44.76799367586718" lon="9.90093224978678"><ele>556.5</ele><time>2026-04-19T07:50:03.999Z</time></trkpt><trkpt lat="44.76804071704166" lon="9.900831195826683"><ele>554.0</ele><time>2026-04-19T07:50:04.999Z</time></trkpt><trkpt lat="44.768087728957696" lon="9.900731231306132"><ele>551.5</ele><time>2026-04-19T07:50:05.999Z</time></trkpt><trkpt lat="44.768124815747264" lon="9.900629169221892"><ele>549.0</ele><time>2026-04-19T07:50:06.999Z</time></trkpt><trkpt lat="44.76815422666096" lon="9.900547159565237"><ele>546.5</ele><time>2026-04-19T07:50:07.999Z</time></trkpt><trkpt lat="44.768170760205216" lon="9.900459136345187"><ele>544.0</ele><time>2026-04-19T07:50:08.999Z</time></trkpt><trkpt lat="44.76818753535175" lon="9.900319734083462"><ele>544.0</ele><time>2026-04-19T07:50:10.999Z</time></trkpt><trkpt lat="44.76827831709238" lon="9.900414399435713"><ele>544.0</ele><time>2026-04-19T07:50:24Z</time></trkpt><trkpt lat="44.76831304630644" lon="9.900773003287263"><ele>544.0</ele><time>2026-04-19T07:50:27Z</time></trkpt><trkpt lat="44.76828366029002" lon="9.900926339497484"><ele>545.2</ele><time>2026-04-19T07:50:28Z</time></trkpt><trkpt lat="44.768249341025125" lon="9.901054187623156"><ele>546.4</ele><time>2026-04-19T07:50:29Z</time></trkpt><trkpt lat="44.76823069503507" lon="9.901189303996874"><ele>547.6</ele><time>2026-04-19T07:50:30Z</time></trkpt><trkpt lat="44.768241617910284" lon="9.901338161258863"><ele>548.8</ele><time>2026-04-19T07:50:31Z</time></trkpt><trkpt lat="44.76827907642268" lon="9.901480964858205"><ele>550.0</ele><time>2026-04-19T07:50:32Z</time></trkpt><trkpt lat="44.76833015106986" lon="9.901617204568586"><ele>553.0</ele><time>2026-04-19T07:50:33Z</time></trkpt><trkpt lat="44.76838736797954" lon="9.901752771658076"><ele>556.0</ele><time>2026-04-19T07:50:34Z</time></trkpt><trkpt lat="44.76843267665765" lon="9.901888048439604"><ele>559.0</ele><time>2026-04-19T07:50:35Z</time></trkpt><trkpt lat="44.76847755596971" lon="9.90204259400348"><ele>562.0</ele><time>2026-04-19T07:50:36Z</time></trkpt><trkpt lat="44.7684992493621" lon="9.902190710095264"><ele>565.0</ele><time>2026-04-19T07:50:37Z</time></trkpt><trkpt lat="44.76852986746484" lon="9.902333348954738"><ele>558.6</ele><time>2026-04-19T07:50:38Z</time></trkpt><trkpt lat="44.76856999391276" lon="9.902499540046751"><ele>552.2</ele><time>2026-04-19T07:50:39Z</time></trkpt><trkpt lat="44.76859254373036" lon="9.902633626875174"><ele>545.8</ele><time>2026-04-19T07:50:40Z</time></trkpt><trkpt lat="44.76860368714784" lon="9.902749925302935"><ele>539.4</ele><time>2026-04-19T07:50:41Z</time></trkpt><trkpt lat="44.76859092761027" lon="9.9028525588442"><ele>533.0</ele><time>2026-04-19T07:50:42Z</time></trkpt><trkpt lat="44.76856071164322" lon="9.902981921088836"><ele>533.0</ele><time>2026-04-19T07:50:43Z</time></trkpt><trkpt lat="44.768527682631536" lon="9.903111499143792"><ele>533.0</ele><time>2026-04-19T07:50:44Z</time></trkpt><trkpt lat="44.768490524537086" lon="9.903237040403436"><ele>533.0</ele><time>2026-04-19T07:50:45Z</time></trkpt><trkpt lat="44.7684523346463" lon="9.903376119220107"><ele>533.0</ele><time>2026-04-19T07:50:45.999Z</time></trkpt><trkpt lat="44.768423884846996" lon="9.903529288631049"><ele>533.0</ele><time>2026-04-19T07:50:46.999Z</time></trkpt><trkpt lat="44.768409241272614" lon="9.903650634678563"><ele>536.8</ele><time>2026-04-19T07:50:47.999Z</time></trkpt><trkpt lat="44.768401526324446" lon="9.903775025047654"><ele>540.5999999999999</ele><time>2026-04-19T07:50:48.999Z</time></trkpt><trkpt lat="44.76841914711089" lon="9.903918422627775"><ele>544.4000000000001</ele><time>2026-04-19T07:50:49.999Z</time></trkpt><trkpt lat="44.76845469445637" lon="9.904057064756856"><ele>548.2</ele><time>2026-04-19T07:50:50.999Z</time></trkpt><trkpt lat="44.7684995967005" lon="9.904189965267044"><ele>552.0</ele><time>2026-04-19T07:50:51.999Z</time></trkpt><trkpt lat="44.768551614548976" lon="9.904293950975855"><ele>552.0</ele><time>2026-04-19T07:50:52.999Z</time></trkpt><trkpt lat="44.7686038260472" lon="9.904396233348578"><ele>552.0</ele><time>2026-04-19T07:50:53.999Z</time></trkpt><trkpt lat="44.768658293284076" lon="9.9045204426838"><ele>552.0</ele><time>2026-04-19T07:50:54.999Z</time></trkpt><trkpt lat="44.76870547414324" lon="9.904662803032451"><ele>552.0</ele><time>2026-04-19T07:50:55.999Z</time></trkpt><trkpt lat="44.76872265382664" lon="9.904821565570987"><ele>552.0</ele><time>2026-04-19T07:50:56.999Z</time></trkpt><trkpt lat="44.76872025031376" lon="9.90500000989122"><ele>553.0</ele><time>2026-04-19T07:50:57.999Z</time></trkpt><trkpt lat="44.7687184564463" lon="9.905243779269266"><ele>554.0</ele><time>2026-04-19T07:50:58.999Z</time></trkpt><trkpt lat="44.76871813749363" lon="9.90546604929291"><ele>555.0</ele><time>2026-04-19T07:50:59.999Z</time></trkpt><trkpt lat="44.768721339590364" lon="9.905657777846848"><ele>555.0</ele><time>2026-04-19T07:51:00.999Z</time></trkpt><trkpt lat="44.76872661732097" lon="9.905824028912129"><ele>555.0</ele><time>2026-04-19T07:51:01.999Z</time></trkpt><trkpt lat="44.76873183543193" lon="9.905979786884552"><ele>555.0</ele><time>2026-04-19T07:51:02.999Z</time></trkpt><trkpt lat="44.76873049674159" lon="9.906145132132334"><ele>555.0</ele><time>2026-04-19T07:51:03.999Z</time></trkpt><trkpt lat="44.76874217853308" lon="9.906316262757297"><ele>555.75</ele><time>2026-04-19T07:51:04.999Z</time></trkpt><trkpt lat="44.768786785505284" lon="9.906489149320619"><ele>556.5</ele><time>2026-04-19T07:51:05.999Z</time></trkpt><trkpt lat="44.76886726384435" lon="9.906646314371665"><ele>557.25</ele><time>2026-04-19T07:51:06.999Z</time></trkpt><trkpt lat="44.768983733792396" lon="9.90678188260695"><ele>558.0</ele><time>2026-04-19T07:51:07.999Z</time></trkpt><trkpt lat="44.76908467862276" lon="9.90688295650902"><ele>555.6</ele><time>2026-04-19T07:51:08.999Z</time></trkpt><trkpt lat="44.76916585570566" lon="9.906968991353905"><ele>553.1999999999999</ele><time>2026-04-19T07:51:09.999Z</time></trkpt><trkpt lat="44.76923631320633" lon="9.907045691696666"><ele>550.8</ele><time>2026-04-19T07:51:10.999Z</time></trkpt><trkpt lat="44.76929572016794" lon="9.907104528782332"><ele>548.4</ele><time>2026-04-19T07:51:11.999Z</time></trkpt><trkpt lat="44.769385325203295" lon="9.907207318453532"><ele>546.0</ele><time>2026-04-19T07:51:13.999Z</time></trkpt><trkpt lat="44.76943535151977" lon="9.90727829131574"><ele>546.0</ele><time>2026-04-19T07:51:15.999Z</time></trkpt><trkpt lat="44.76946445110333" lon="9.907372439547006"><ele>546.0</ele><time>2026-04-19T07:51:18.999Z</time></trkpt><trkpt lat="44.769494109769674" lon="9.90756347202328"><ele>546.0</ele><time>2026-04-19T07:51:20.999Z</time></trkpt><trkpt lat="44.76950610841783" lon="9.907722623693136"><ele>546.0</ele><time>2026-04-19T07:51:21.999Z</time></trkpt><trkpt lat="44.76953363703091" lon="9.907865307762938"><ele>546.0</ele><time>2026-04-19T07:51:22.999Z</time></trkpt><trkpt lat="44.76952542411994" lon="9.90802415627509"><ele>546.8</ele><time>2026-04-19T07:51:23.999Z</time></trkpt><trkpt lat="44.76947516835991" lon="9.908191991759667"><ele>547.6</ele><time>2026-04-19T07:51:24.999Z</time></trkpt><trkpt lat="44.76943578569613" lon="9.90834222396432"><ele>548.4</ele><time>2026-04-19T07:51:25.999Z</time></trkpt><trkpt lat="44.769453621077986" lon="9.908466768920437"><ele>549.2</ele><time>2026-04-19T07:51:26.999Z</time></trkpt><trkpt lat="44.76943101741216" lon="9.908613185560208"><ele>550.0</ele><time>2026-04-19T07:51:27.999Z</time></trkpt><trkpt lat="44.7694427974224" lon="9.908776560249423"><ele>551.0</ele><time>2026-04-19T07:51:28.999Z</time></trkpt><trkpt lat="44.76945903208009" lon="9.908918181592009"><ele>552.0</ele><time>2026-04-19T07:51:29.999Z</time></trkpt><trkpt lat="44.76949072366122" lon="9.909090404977789"><ele>553.0</ele><time>2026-04-19T07:51:30.999Z</time></trkpt><trkpt lat="44.76952144445429" lon="9.909234119976892"><ele>554.0</ele><time>2026-04-19T07:51:31.999Z</time></trkpt><trkpt lat="44.769537635831085" lon="9.909371028363326"><ele>555.0</ele><time>2026-04-19T07:51:32.999Z</time></trkpt><trkpt lat="44.769545613413015" lon="9.909528951799476"><ele>556.8</ele><time>2026-04-19T07:51:33.999Z</time></trkpt><trkpt lat="44.76954757260915" lon="9.909697951018403"><ele>558.6</ele><time>2026-04-19T07:51:34.999Z</time></trkpt><trkpt lat="44.769542970616605" lon="9.909861188430867"><ele>560.4</ele><time>2026-04-19T07:51:35.999Z</time></trkpt><trkpt lat="44.769535877558575" lon="9.909995296448857"><ele>562.2</ele><time>2026-04-19T07:51:36.999Z</time></trkpt><trkpt lat="44.769560089077196" lon="9.91010634273316"><ele>564.0</ele><time>2026-04-19T07:51:37.999Z</time></trkpt><trkpt lat="44.769616459986985" lon="9.910182440563286"><ele>566.2</ele><time>2026-04-19T07:51:38.999Z</time></trkpt><trkpt lat="44.76970356182476" lon="9.910228705046755"><ele>568.4</ele><time>2026-04-19T07:51:39.999Z</time></trkpt><trkpt lat="44.76981777203185" lon="9.910229883501435"><ele>570.6</ele><time>2026-04-19T07:51:40.999Z</time></trkpt><trkpt lat="44.76994635317822" lon="9.910198827684153"><ele>572.8</ele><time>2026-04-19T07:51:41.999Z</time></trkpt><trkpt lat="44.770055635214234" lon="9.910172864065409"><ele>575.0</ele><time>2026-04-19T07:51:42.999Z</time></trkpt><trkpt lat="44.77014504086311" lon="9.910163256796215"><ele>577.5</ele><time>2026-04-19T07:51:43.999Z</time></trkpt><trkpt lat="44.770237495994685" lon="9.910155808637866"><ele>580.0</ele><time>2026-04-19T07:51:44.999Z</time></trkpt><trkpt lat="44.77031895619385" lon="9.910139117467871"><ele>582.5</ele><time>2026-04-19T07:51:45.999Z</time></trkpt><trkpt lat="44.77038699013902" lon="9.910126894116543"><ele>585.0</ele><time>2026-04-19T07:51:46.999Z</time></trkpt><trkpt lat="44.77045731673466" lon="9.910127884056559"><ele>587.5</ele><time>2026-04-19T07:51:47.999Z</time></trkpt><trkpt lat="44.770532009370115" lon="9.91013277692893"><ele>590.0</ele><time>2026-04-19T07:51:48.999Z</time></trkpt><trkpt lat="44.77061110564692" lon="9.910132147758858"><ele>590.0</ele><time>2026-04-19T07:51:50.999Z</time></trkpt><trkpt lat="44.77068610636172" lon="9.910166792414135"><ele>590.0</ele><time>2026-04-19T07:51:53.999Z</time></trkpt><trkpt lat="44.770784653142805" lon="9.910138446313017"><ele>590.0</ele><time>2026-04-19T07:51:55.999Z</time></trkpt><trkpt lat="44.77090013040824" lon="9.910048560225691"><ele>590.0</ele><time>2026-04-19T07:51:57.999Z</time></trkpt><trkpt lat="44.77094505375867" lon="9.909982673268207"><ele>590.0</ele><time>2026-04-19T07:51:58.999Z</time></trkpt><trkpt lat="44.770978686443925" lon="9.90989993437278"><ele>590.0</ele><time>2026-04-19T07:51:59.999Z</time></trkpt><trkpt lat="44.7710169749791" lon="9.909804810372055"><ele>589.8</ele><time>2026-04-19T07:52:00.999Z</time></trkpt><trkpt lat="44.77104959427709" lon="9.909695202289557"><ele>589.6</ele><time>2026-04-19T07:52:01.999Z</time></trkpt><trkpt lat="44.771072171738666" lon="9.909592325261317"><ele>589.4</ele><time>2026-04-19T07:52:02.999Z</time></trkpt><trkpt lat="44.771105948522504" lon="9.909487830065636"><ele>589.2</ele><time>2026-04-19T07:52:03.999Z</time></trkpt><trkpt lat="44.77117057835438" lon="9.90938679298761"><ele>589.0</ele><time>2026-04-19T07:52:04.999Z</time></trkpt><trkpt lat="44.771254956087745" lon="9.909275359531605"><ele>586.8</ele><time>2026-04-19T07:52:05.999Z</time></trkpt><trkpt lat="44.77135342091397" lon="9.909192509173971"><ele>584.5999999999999</ele><time>2026-04-19T07:52:06.999Z</time></trkpt><trkpt lat="44.77142511295939" lon="9.909129551032207"><ele>582.4</ele><time>2026-04-19T07:52:07.999Z</time></trkpt><trkpt lat="44.7715013994768" lon="9.909088802802849"><ele>580.1999999999999</ele><time>2026-04-19T07:52:08.999Z</time></trkpt><trkpt lat="44.77160718797501" lon="9.909072324821956"><ele>578.0</ele><time>2026-04-19T07:52:09.999Z</time></trkpt><trkpt lat="44.771711704109336" lon="9.909014614845399"><ele>578.0</ele><time>2026-04-19T07:52:10.999Z</time></trkpt><trkpt lat="44.77180177548766" lon="9.908986318715797"><ele>578.0</ele><time>2026-04-19T07:52:11.999Z</time></trkpt><trkpt lat="44.771876760787585" lon="9.908917940252158"><ele>578.0</ele><time>2026-04-19T07:52:12.999Z</time></trkpt><trkpt lat="44.77194758452642" lon="9.908805231046628"><ele>578.0</ele><time>2026-04-19T07:52:13.999Z</time></trkpt><trkpt lat="44.77201095878596" lon="9.908676157754755"><ele>578.0</ele><time>2026-04-19T07:52:14.999Z</time></trkpt><trkpt lat="44.77206501299506" lon="9.90858150857536"><ele>576.1666666666666</ele><time>2026-04-19T07:52:15.999Z</time></trkpt><trkpt lat="44.77212706103531" lon="9.90851363764491"><ele>574.3333333333333</ele><time>2026-04-19T07:52:16.999Z</time></trkpt><trkpt lat="44.77219541005428" lon="9.908480486755197"><ele>572.5</ele><time>2026-04-19T07:52:17.999Z</time></trkpt><trkpt lat="44.7722721587033" lon="9.908485568623517"><ele>570.6666666666666</ele><time>2026-04-19T07:52:19.999Z</time></trkpt><trkpt lat="44.77233678635681" lon="9.90852916162128"><ele>568.8333333333334</ele><time>2026-04-19T07:52:22.999Z</time></trkpt><trkpt lat="44.77234219637294" lon="9.908649745823391"><ele>567.0</ele><time>2026-04-19T07:52:26Z</time></trkpt><trkpt lat="44.7724197519653" lon="9.90863159263391"><ele>567.0</ele><time>2026-04-19T07:52:27Z</time></trkpt><trkpt lat="44.77242060139621" lon="9.908751895991463"><ele>567.0</ele><time>2026-04-19T07:52:29Z</time></trkpt><trkpt lat="44.772445734696916" lon="9.9088351016051"><ele>567.0</ele><time>2026-04-19T07:52:39Z</time></trkpt><trkpt lat="44.772502379991316" lon="9.908912502313244"><ele>567.0</ele><time>2026-04-19T07:52:42Z</time></trkpt><trkpt lat="44.77255429144575" lon="9.908999455371031"><ele>567.0</ele><time>2026-04-19T07:52:44Z</time></trkpt><trkpt lat="44.77260984889689" lon="9.90906007109875"><ele>567.0</ele><time>2026-04-19T07:52:46Z</time></trkpt><trkpt lat="44.772671913643904" lon="9.909112008535374"><ele>564.3333333333334</ele><time>2026-04-19T07:52:47.999Z</time></trkpt><trkpt lat="44.772747645271316" lon="9.909130205394918"><ele>561.6666666666666</ele><time>2026-04-19T07:52:49.999Z</time></trkpt><trkpt lat="44.772821827042996" lon="9.909149972328327"><ele>559.0</ele><time>2026-04-19T07:52:51.999Z</time></trkpt><trkpt lat="44.77290186874617" lon="9.90918565514905"><ele>556.3333333333333</ele><time>2026-04-19T07:52:53.999Z</time></trkpt><trkpt lat="44.773006656270624" lon="9.909246428634836"><ele>553.6666666666666</ele><time>2026-04-19T07:52:55.999Z</time></trkpt><trkpt lat="44.77306692303192" lon="9.90931500100331"><ele>551.0</ele><time>2026-04-19T07:52:58.999Z</time></trkpt><trkpt lat="44.773156770686434" lon="9.909394215069241"><ele>551.0</ele><time>2026-04-19T07:53:01.999Z</time></trkpt><trkpt lat="44.77322490955775" lon="9.909429521812292"><ele>551.0</ele><time>2026-04-19T07:53:02.999Z</time></trkpt><trkpt lat="44.773296959839584" lon="9.909434087117285"><ele>551.0</ele><time>2026-04-19T07:53:03.999Z</time></trkpt><trkpt lat="44.77336020779966" lon="9.909442986178343"><ele>551.0</ele><time>2026-04-19T07:53:04.999Z</time></trkpt><trkpt lat="44.77342745851043" lon="9.909456794707742"><ele>551.0</ele><time>2026-04-19T07:53:05.999Z</time></trkpt><trkpt lat="44.77352439397555" lon="9.909461384972285"><ele>551.0</ele><time>2026-04-19T07:53:06.999Z</time></trkpt><trkpt lat="44.773623016856675" lon="9.909439484596362"><ele>549.7142857142857</ele><time>2026-04-19T07:53:07.999Z</time></trkpt><trkpt lat="44.77369649759702" lon="9.909409065947482"><ele>548.4285714285714</ele><time>2026-04-19T07:53:08.999Z</time></trkpt><trkpt lat="44.77375824009625" lon="9.909365844630347"><ele>547.1428571428571</ele><time>2026-04-19T07:53:09.999Z</time></trkpt><trkpt lat="44.773806161004025" lon="9.909307785856468"><ele>545.8571428571429</ele><time>2026-04-19T07:53:10.999Z</time></trkpt><trkpt lat="44.77386167690972" lon="9.909233108571419"><ele>544.5714285714286</ele><time>2026-04-19T07:53:11.999Z</time></trkpt><trkpt lat="44.77392244339651" lon="9.909150817365871"><ele>543.2857142857142</ele><time>2026-04-19T07:53:12.999Z</time></trkpt><trkpt lat="44.77397405647403" lon="9.909083371323144"><ele>542.0</ele><time>2026-04-19T07:53:13.999Z</time></trkpt><trkpt lat="44.77401483275548" lon="9.909015798771538"><ele>542.0</ele><time>2026-04-19T07:53:14.999Z</time></trkpt><trkpt lat="44.77406636944934" lon="9.908931801078287"><ele>542.0</ele><time>2026-04-19T07:53:15.999Z</time></trkpt><trkpt lat="44.77413731896562" lon="9.90884191887347"><ele>542.0</ele><time>2026-04-19T07:53:16.999Z</time></trkpt><trkpt lat="44.774205466741094" lon="9.908751485294026"><ele>542.0</ele><time>2026-04-19T07:53:17.999Z</time></trkpt><trkpt lat="44.77426404215505" lon="9.908669203129714"><ele>542.0</ele><time>2026-04-19T07:53:18.999Z</time></trkpt><trkpt lat="44.77432167001085" lon="9.90859602964246"><ele>542.0</ele><time>2026-04-19T07:53:19.999Z</time></trkpt><trkpt lat="44.774385104057316" lon="9.908515769319816"><ele>539.6</ele><time>2026-04-19T07:53:20.999Z</time></trkpt><trkpt lat="44.774445203263106" lon="9.908406205767326"><ele>537.2</ele><time>2026-04-19T07:53:21.999Z</time></trkpt><trkpt lat="44.774493441613835" lon="9.908283519677486"><ele>534.8</ele><time>2026-04-19T07:53:22.999Z</time></trkpt><trkpt lat="44.77452399414288" lon="9.908155933141005"><ele>532.4</ele><time>2026-04-19T07:53:23.999Z</time></trkpt><trkpt lat="44.77454764374356" lon="9.908032973647146"><ele>530.0</ele><time>2026-04-19T07:53:24.999Z</time></trkpt><trkpt lat="44.77458678206346" lon="9.907922868977131"><ele>530.0</ele><time>2026-04-19T07:53:25.999Z</time></trkpt><trkpt lat="44.77463793782062" lon="9.907821603867182"><ele>530.0</ele><time>2026-04-19T07:53:26.999Z</time></trkpt><trkpt lat="44.774690286877025" lon="9.907723529262974"><ele>530.0</ele><time>2026-04-19T07:53:27.999Z</time></trkpt><trkpt lat="44.77475178908424" lon="9.907608825612403"><ele>530.0</ele><time>2026-04-19T07:53:28.999Z</time></trkpt><trkpt lat="44.774805590821686" lon="9.907487801146258"><ele>530.0</ele><time>2026-04-19T07:53:29.999Z</time></trkpt><trkpt lat="44.77486375269187" lon="9.907380184976837"><ele>531.0</ele><time>2026-04-19T07:53:30.999Z</time></trkpt><trkpt lat="44.77493169807145" lon="9.907266109839222"><ele>532.0</ele><time>2026-04-19T07:53:31.999Z</time></trkpt><trkpt lat="44.77499505456818" lon="9.907148248816604"><ele>533.0</ele><time>2026-04-19T07:53:32.999Z</time></trkpt><trkpt lat="44.77507057058082" lon="9.9070248410317"><ele>534.0</ele><time>2026-04-19T07:53:33.999Z</time></trkpt><trkpt lat="44.775151988148785" lon="9.906893346544802"><ele>531.8</ele><time>2026-04-19T07:53:34.999Z</time></trkpt><trkpt lat="44.77523138031999" lon="9.906767134081708"><ele>529.5999999999999</ele><time>2026-04-19T07:53:35.999Z</time></trkpt><trkpt lat="44.77531777385501" lon="9.906673529770506"><ele>527.4</ele><time>2026-04-19T07:53:36.999Z</time></trkpt><trkpt lat="44.77539061148773" lon="9.906578982950071"><ele>525.1999999999999</ele><time>2026-04-19T07:53:37.999Z</time></trkpt><trkpt lat="44.775472897224134" lon="9.906488219121675"><ele>523.0</ele><time>2026-04-19T07:53:38.999Z</time></trkpt><trkpt lat="44.775570565247996" lon="9.906397232250784"><ele>523.0</ele><time>2026-04-19T07:53:39.999Z</time></trkpt><trkpt lat="44.77567494530924" lon="9.90629770799638"><ele>523.0</ele><time>2026-04-19T07:53:40.999Z</time></trkpt><trkpt lat="44.77577164497816" lon="9.906157607175889"><ele>523.0</ele><time>2026-04-19T07:53:41.999Z</time></trkpt><trkpt lat="44.7758958269265" lon="9.906005959896323"><ele>523.0</ele><time>2026-04-19T07:53:42.999Z</time></trkpt><trkpt lat="44.77600774209635" lon="9.905832715106932"><ele>522.6</ele><time>2026-04-19T07:53:43.999Z</time></trkpt><trkpt lat="44.77607335655179" lon="9.905700320729787"><ele>522.1999999999999</ele><time>2026-04-19T07:53:44.999Z</time></trkpt><trkpt lat="44.776140071600906" lon="9.905599267871612"><ele>521.8</ele><time>2026-04-19T07:53:45.999Z</time></trkpt><trkpt lat="44.77621303540852" lon="9.90551809448676"><ele>521.4</ele><time>2026-04-19T07:53:46.999Z</time></trkpt><trkpt lat="44.77628190828875" lon="9.905450648477556"><ele>521.0</ele><time>2026-04-19T07:53:47.999Z</time></trkpt><trkpt lat="44.77636156563571" lon="9.905389566408122"><ele>521.0</ele><time>2026-04-19T07:53:48.999Z</time></trkpt><trkpt lat="44.77645790622662" lon="9.905334513704302"><ele>521.0</ele><time>2026-04-19T07:53:49.999Z</time></trkpt><trkpt lat="44.77656623411409" lon="9.905276535761015"><ele>521.0</ele><time>2026-04-19T07:53:50.999Z</time></trkpt><trkpt lat="44.776675878856814" lon="9.905254612501901"><ele>521.0</ele><time>2026-04-19T07:53:51.999Z</time></trkpt><trkpt lat="44.776776303820384" lon="9.905185624788837"><ele>521.0</ele><time>2026-04-19T07:53:52.999Z</time></trkpt><trkpt lat="44.776873722897655" lon="9.905126839911702"><ele>521.75</ele><time>2026-04-19T07:53:53.999Z</time></trkpt><trkpt lat="44.776985132134236" lon="9.905069574838967"><ele>522.5</ele><time>2026-04-19T07:53:54.999Z</time></trkpt><trkpt lat="44.77709216096535" lon="9.904973191882496"><ele>523.25</ele><time>2026-04-19T07:53:55.999Z</time></trkpt><trkpt lat="44.77718067287856" lon="9.904871710854655"><ele>524.0</ele><time>2026-04-19T07:53:56.999Z</time></trkpt><trkpt lat="44.77725886472893" lon="9.90472526678067"><ele>524.0</ele><time>2026-04-19T07:53:57.999Z</time></trkpt><trkpt lat="44.777340459379225" lon="9.904595421841769"><ele>524.0</ele><time>2026-04-19T07:53:58.999Z</time></trkpt><trkpt lat="44.77742655324237" lon="9.904433813393794"><ele>524.0</ele><time>2026-04-19T07:53:59.999Z</time></trkpt><trkpt lat="44.77752179428371" lon="9.904281833693682"><ele>524.0</ele><time>2026-04-19T07:54:00.999Z</time></trkpt><trkpt lat="44.77760491788927" lon="9.904155663832421"><ele>521.0</ele><time>2026-04-19T07:54:01.999Z</time></trkpt><trkpt lat="44.77768741060558" lon="9.904037117746755"><ele>518.0</ele><time>2026-04-19T07:54:02.999Z</time></trkpt><trkpt lat="44.777771730982224" lon="9.90392315802997"><ele>515.0</ele><time>2026-04-19T07:54:03.999Z</time></trkpt><trkpt lat="44.77786254450033" lon="9.903792778739719"><ele>512.0</ele><time>2026-04-19T07:54:04.999Z</time></trkpt><trkpt lat="44.7779556473916" lon="9.903655084509763"><ele>512.0</ele><time>2026-04-19T07:54:05.999Z</time></trkpt><trkpt lat="44.77803516329829" lon="9.903527215488937"><ele>512.0</ele><time>2026-04-19T07:54:06.999Z</time></trkpt><trkpt lat="44.77809762505523" lon="9.903400529272925"><ele>512.0</ele><time>2026-04-19T07:54:07.999Z</time></trkpt><trkpt lat="44.778145958729475" lon="9.903271123440684"><ele>512.0</ele><time>2026-04-19T07:54:08.999Z</time></trkpt><trkpt lat="44.77818674218265" lon="9.903121977681714"><ele>512.0</ele><time>2026-04-19T07:54:09.999Z</time></trkpt><trkpt lat="44.778215034954684" lon="9.90295407361954"><ele>513.25</ele><time>2026-04-19T07:54:10.999Z</time></trkpt><trkpt lat="44.77822699044005" lon="9.90277052071478"><ele>514.5</ele><time>2026-04-19T07:54:11.999Z</time></trkpt><trkpt lat="44.77824599762161" lon="9.90259397703608"><ele>515.75</ele><time>2026-04-19T07:54:12.999Z</time></trkpt><trkpt lat="44.77826473266001" lon="9.90243626031243"><ele>517.0</ele><time>2026-04-19T07:54:13.999Z</time></trkpt><trkpt lat="44.778296878620914" lon="9.902290614997229"><ele>517.0</ele><time>2026-04-19T07:54:14.999Z</time></trkpt><trkpt lat="44.77833652350201" lon="9.902148097991114"><ele>517.0</ele><time>2026-04-19T07:54:15.999Z</time></trkpt><trkpt lat="44.77838549354671" lon="9.902016510195361"><ele>517.0</ele><time>2026-04-19T07:54:16.999Z</time></trkpt><trkpt lat="44.77845270911477" lon="9.901906135488556"><ele>517.0</ele><time>2026-04-19T07:54:17.999Z</time></trkpt><trkpt lat="44.77855437858203" lon="9.90182144261029"><ele>517.0</ele><time>2026-04-19T07:54:18.999Z</time></trkpt><trkpt lat="44.778653732948484" lon="9.901666236528055"><ele>514.25</ele><time>2026-04-19T07:54:19.999Z</time></trkpt><trkpt lat="44.77876658313754" lon="9.901523375689695"><ele>511.5</ele><time>2026-04-19T07:54:20.999Z</time></trkpt><trkpt lat="44.77886054907332" lon="9.901392031804505"><ele>508.75</ele><time>2026-04-19T07:54:21.999Z</time></trkpt><trkpt lat="44.77896151378475" lon="9.901281632645134"><ele>506.0</ele><time>2026-04-19T07:54:22.999Z</time></trkpt><trkpt lat="44.779059478552" lon="9.90113690949739"><ele>506.0</ele><time>2026-04-19T07:54:23.999Z</time></trkpt><trkpt lat="44.779144990067586" lon="9.900957605405894"><ele>506.0</ele><time>2026-04-19T07:54:24.999Z</time></trkpt><trkpt lat="44.779243668501245" lon="9.900776905867069"><ele>506.0</ele><time>2026-04-19T07:54:25.999Z</time></trkpt><trkpt lat="44.77936259323185" lon="9.900581884948778"><ele>506.25</ele><time>2026-04-19T07:54:26.999Z</time></trkpt><trkpt lat="44.77946258717595" lon="9.900378050304491"><ele>506.5</ele><time>2026-04-19T07:54:27.999Z</time></trkpt><trkpt lat="44.779542709220244" lon="9.900213713098857"><ele>506.75</ele><time>2026-04-19T07:54:28.999Z</time></trkpt><trkpt lat="44.77961115056504" lon="9.900069045257162"><ele>507.0</ele><time>2026-04-19T07:54:29.999Z</time></trkpt><trkpt lat="44.77965957938727" lon="9.899955751490278"><ele>507.0</ele><time>2026-04-19T07:54:30.999Z</time></trkpt><trkpt lat="44.77969056683171" lon="9.899825116454606"><ele>507.00000000000006</ele><time>2026-04-19T07:54:32Z</time></trkpt><trkpt lat="44.779738643313856" lon="9.899729387832716"><ele>507.00000000000006</ele><time>2026-04-19T07:54:33Z</time></trkpt><trkpt lat="44.779773443477204" lon="9.899609660823394"><ele>507.0</ele><time>2026-04-19T07:54:35Z</time></trkpt><trkpt lat="44.77980796018397" lon="9.899468803151557"><ele>507.0</ele><time>2026-04-19T07:54:38Z</time></trkpt><trkpt lat="44.77983194443343" lon="9.899366903201372"><ele>507.3333333333333</ele><time>2026-04-19T07:54:39Z</time></trkpt><trkpt lat="44.77986535726037" lon="9.899234627210404"><ele>507.66666666666663</ele><time>2026-04-19T07:54:40Z</time></trkpt><trkpt lat="44.779895881625414" lon="9.89911910662732"><ele>508.0</ele><time>2026-04-19T07:54:41Z</time></trkpt><trkpt lat="44.77992360053675" lon="9.899016668048704"><ele>508.3333333333333</ele><time>2026-04-19T07:54:42Z</time></trkpt><trkpt lat="44.77995530543666" lon="9.898931404375501"><ele>508.66666666666663</ele><time>2026-04-19T07:54:43Z</time></trkpt><trkpt lat="44.78001328491006" lon="9.898789683770415"><ele>509.0</ele><time>2026-04-19T07:54:45Z</time></trkpt><trkpt lat="44.78004992049997" lon="9.898705578433999"><ele>509.0</ele><time>2026-04-19T07:54:47Z</time></trkpt><trkpt lat="44.77984152092358" lon="9.898482448605943"><ele>509.0</ele><time>2026-04-19T07:54:51Z</time></trkpt><trkpt lat="44.779777238454685" lon="9.898398174229802"><ele>509.0</ele><time>2026-04-19T07:54:53Z</time></trkpt><trkpt lat="44.779708837771274" lon="9.898335669614722"><ele>509.0</ele><time>2026-04-19T07:54:54.999Z</time></trkpt><trkpt lat="44.77962115085066" lon="9.898221900274995"><ele>508.79999999999995</ele><time>2026-04-19T07:54:56.999Z</time></trkpt><trkpt lat="44.77955290704267" lon="9.898120046265664"><ele>508.59999999999997</ele><time>2026-04-19T07:54:58.999Z</time></trkpt><trkpt lat="44.77949132192915" lon="9.89801631809745"><ele>508.4</ele><time>2026-04-19T07:55:00.999Z</time></trkpt><trkpt lat="44.7793972374326" lon="9.897926648340933"><ele>508.2</ele><time>2026-04-19T07:55:02.999Z</time></trkpt><trkpt lat="44.779295572216384" lon="9.897870628522924"><ele>508.0</ele><time>2026-04-19T07:55:04.999Z</time></trkpt><trkpt lat="44.77923259118772" lon="9.897787097315097"><ele>506.33333333333337</ele><time>2026-04-19T07:55:06.999Z</time></trkpt><trkpt lat="44.77918081668512" lon="9.89771781475039"><ele>504.6666666666667</ele><time>2026-04-19T07:55:08.999Z</time></trkpt><trkpt lat="44.779111204927176" lon="9.897654600928004"><ele>503.0</ele><time>2026-04-19T07:55:12.999Z</time></trkpt><trkpt lat="44.77904459222151" lon="9.897573948088302"><ele>501.33333333333337</ele><time>2026-04-19T07:55:15.999Z</time></trkpt><trkpt lat="44.77899285250634" lon="9.897516725919461"><ele>499.6666666666667</ele><time>2026-04-19T07:55:17.999Z</time></trkpt><trkpt lat="44.7789207172055" lon="9.897454705507368"><ele>498.0</ele><time>2026-04-19T07:55:20.999Z</time></trkpt><trkpt lat="44.778851344294814" lon="9.89739287403751"><ele>496.5</ele><time>2026-04-19T07:55:23.999Z</time></trkpt><trkpt lat="44.77878659203702" lon="9.897337906566348"><ele>495.0</ele><time>2026-04-19T07:55:26.999Z</time></trkpt><trkpt lat="44.77872047481421" lon="9.897257331669826"><ele>493.5</ele><time>2026-04-19T07:55:29.999Z</time></trkpt><trkpt lat="44.7786527147239" lon="9.897170056755561"><ele>492.0</ele><time>2026-04-19T07:55:31.999Z</time></trkpt><trkpt lat="44.77850289959325" lon="9.896985610111974"><ele>489.5</ele><time>2026-04-19T07:55:34.999Z</time></trkpt><trkpt lat="44.77843241832557" lon="9.896921392009924"><ele>487.0</ele><time>2026-04-19T07:55:36.999Z</time></trkpt><trkpt lat="44.77837373536821" lon="9.896862804670594"><ele>484.5</ele><time>2026-04-19T07:55:42.999Z</time></trkpt><trkpt lat="44.77829644198726" lon="9.89675668226147"><ele>482.0</ele><time>2026-04-19T07:55:44.999Z</time></trkpt><trkpt lat="44.77825065301023" lon="9.896688078123661"><ele>479.5</ele><time>2026-04-19T07:55:46.999Z</time></trkpt><trkpt lat="44.778183124851815" lon="9.896611650940265"><ele>477.0</ele><time>2026-04-19T07:55:49.999Z</time></trkpt><trkpt lat="44.7781129746779" lon="9.896582840318093"><ele>476.0</ele><time>2026-04-19T07:55:52.999Z</time></trkpt><trkpt lat="44.77806307924094" lon="9.89651660652998"><ele>474.99999999999994</ele><time>2026-04-19T07:55:55.999Z</time></trkpt><trkpt lat="44.77804252336611" lon="9.896423273216225"><ele>474.0</ele><time>2026-04-19T07:55:58.999Z</time></trkpt><trkpt lat="44.77803846828049" lon="9.896327958848358"><ele>473.0</ele><time>2026-04-19T07:56:03.999Z</time></trkpt><trkpt lat="44.778050378074816" lon="9.896217885408142"><ele>471.99999999999994</ele><time>2026-04-19T07:56:07.999Z</time></trkpt><trkpt lat="44.77804734430891" lon="9.89611276149998"><ele>471.0</ele><time>2026-04-19T07:56:10.999Z</time></trkpt><trkpt lat="44.77804697201052" lon="9.8960051799435"><ele>470.0</ele><time>2026-04-19T07:56:16.999Z</time></trkpt><trkpt lat="44.77802354163463" lon="9.895903834543528"><ele>468.1428571428571</ele><time>2026-04-19T07:56:21.999Z</time></trkpt><trkpt lat="44.77798643929128" lon="9.895830157464331"><ele>466.2857142857142</ele><time>2026-04-19T07:56:25.999Z</time></trkpt><trkpt lat="44.777930568069166" lon="9.89578797000089"><ele>464.42857142857144</ele><time>2026-04-19T07:56:29.999Z</time></trkpt><trkpt lat="44.77786172417073" lon="9.895751429999027"><ele>462.57142857142856</ele><time>2026-04-19T07:57:33Z</time></trkpt><trkpt lat="44.777793920122726" lon="9.895708029720781"><ele>460.7142857142857</ele><time>2026-04-19T07:57:38Z</time></trkpt><trkpt lat="44.77774377682195" lon="9.895646262937769"><ele>458.8571428571429</ele><time>2026-04-19T07:57:44Z</time></trkpt><trkpt lat="44.77768342566095" lon="9.895607344279584"><ele>457.00000000000006</ele><time>2026-04-19T07:57:48Z</time></trkpt><trkpt lat="44.77762440334391" lon="9.895538984102545"><ele>454.6666666666667</ele><time>2026-04-19T07:57:51Z</time></trkpt><trkpt lat="44.77755302358948" lon="9.895487406396738"><ele>452.33333333333337</ele><time>2026-04-19T07:57:55Z</time></trkpt><trkpt lat="44.77750601524053" lon="9.89540480051275"><ele>450.0</ele><time>2026-04-19T07:57:59Z</time></trkpt><trkpt lat="44.77743955308217" lon="9.895361118153348"><ele>447.66666666666663</ele><time>2026-04-19T07:58:01Z</time></trkpt><trkpt lat="44.77737906264409" lon="9.895289964961743"><ele>445.3333333333333</ele><time>2026-04-19T07:58:48.001Z</time></trkpt><trkpt lat="44.777364005786595" lon="9.895179882739502"><ele>443.0</ele><time>2026-04-19T07:58:50.001Z</time></trkpt><trkpt lat="44.77732351641232" lon="9.895082592435067"><ele>440.8333333333333</ele><time>2026-04-19T07:58:53.001Z</time></trkpt><trkpt lat="44.77728771700314" lon="9.894989436381627"><ele>438.66666666666663</ele><time>2026-04-19T07:58:57.001Z</time></trkpt><trkpt lat="44.77722424048204" lon="9.894925964551462"><ele>436.5</ele><time>2026-04-19T07:59:01.001Z</time></trkpt><trkpt lat="44.77716400983571" lon="9.894971362396564"><ele>434.33333333333337</ele><time>2026-04-19T07:59:04Z</time></trkpt><trkpt lat="44.77709095502428" lon="9.89503350161631"><ele>432.1666666666667</ele><time>2026-04-19T07:59:08Z</time></trkpt><trkpt lat="44.777016245553796" lon="9.895057351792511"><ele>430.0</ele><time>2026-04-19T07:59:37Z</time></trkpt><trkpt lat="44.77695472721221" lon="9.895004275013283"><ele>430.0</ele><time>2026-04-19T07:59:40Z</time></trkpt><trkpt lat="44.77695733062093" lon="9.894908039642887"><ele>430.0</ele><time>2026-04-19T07:59:51Z</time></trkpt><trkpt lat="44.77699407862548" lon="9.894812530157692"><ele>430.0</ele><time>2026-04-19T07:59:55Z</time></trkpt><trkpt lat="44.77696074077956" lon="9.894715988140105"><ele>430.0</ele><time>2026-04-19T07:59:58Z</time></trkpt><trkpt lat="44.77693711541779" lon="9.894630783525166"><ele>430.0</ele><time>2026-04-19T08:00:07Z</time></trkpt><trkpt lat="44.776927028435246" lon="9.894529179091203"><ele>430.0</ele><time>2026-04-19T08:00:12Z</time></trkpt><trkpt lat="44.7769292592312" lon="9.894430172753747"><ele>430.0</ele><time>2026-04-19T08:00:21Z</time></trkpt><trkpt lat="44.7769234904992" lon="9.894327312760783"><ele>427.33333333333337</ele><time>2026-04-19T08:00:26Z</time></trkpt><trkpt lat="44.77691660469591" lon="9.894225648197288"><ele>424.6666666666667</ele><time>2026-04-19T08:00:30Z</time></trkpt><trkpt lat="44.77685213055901" lon="9.894233709259273"><ele>422.0</ele><time>2026-04-19T08:00:35Z</time></trkpt><trkpt lat="44.77676284901919" lon="9.894270893529809"><ele>419.33333333333337</ele><time>2026-04-19T08:00:44Z</time></trkpt><trkpt lat="44.776693950427955" lon="9.894301695294775"><ele>416.6666666666667</ele><time>2026-04-19T08:00:46Z</time></trkpt><trkpt lat="44.77662608311948" lon="9.894307845923741"><ele>414.0</ele><time>2026-04-19T08:00:50Z</time></trkpt><trkpt lat="44.77654519118851" lon="9.894304508997969"><ele>413.1666666666667</ele><time>2026-04-19T08:00:55Z</time></trkpt><trkpt lat="44.776499868412145" lon="9.894392817093895"><ele>412.33333333333337</ele><time>2026-04-19T08:00:58Z</time></trkpt><trkpt lat="44.7764429476112" lon="9.89444258938438"><ele>411.5</ele><time>2026-04-19T08:01:02Z</time></trkpt><trkpt lat="44.77638501685977" lon="9.89452285163674"><ele>410.6666666666667</ele><time>2026-04-19T08:01:06Z</time></trkpt><trkpt lat="44.776309519776504" lon="9.894489613945073"><ele>409.83333333333337</ele><time>2026-04-19T08:01:11Z</time></trkpt><trkpt lat="44.77632339729648" lon="9.894377321594627"><ele>409.0</ele><time>2026-04-19T08:01:14Z</time></trkpt><trkpt lat="44.776319165488545" lon="9.89427658171883"><ele>406.57142857142856</ele><time>2026-04-19T08:01:17Z</time></trkpt><trkpt lat="44.776310796595766" lon="9.894164355176557"><ele>404.14285714285717</ele><time>2026-04-19T08:01:20Z</time></trkpt><trkpt lat="44.77631838945805" lon="9.894075087041687"><ele>401.7142857142857</ele><time>2026-04-19T08:01:22Z</time></trkpt><trkpt lat="44.77634730163909" lon="9.893990841763543"><ele>399.2857142857143</ele><time>2026-04-19T08:01:25Z</time></trkpt><trkpt lat="44.776280816131425" lon="9.893936928137714"><ele>396.8571428571429</ele><time>2026-04-19T08:01:30Z</time></trkpt><trkpt lat="44.77621432699042" lon="9.893997854777014"><ele>394.42857142857144</ele><time>2026-04-19T08:01:34Z</time></trkpt><trkpt lat="44.776142377908435" lon="9.89402400842236"><ele>392.0</ele><time>2026-04-19T08:01:35Z</time></trkpt><trkpt lat="44.77608182049605" lon="9.89406178087706"><ele>388.16666666666663</ele><time>2026-04-19T08:01:37Z</time></trkpt><trkpt lat="44.77601437801714" lon="9.89407960836616"><ele>384.3333333333333</ele><time>2026-04-19T08:01:40Z</time></trkpt><trkpt lat="44.775996729457084" lon="9.893987271407939"><ele>380.5</ele><time>2026-04-19T08:01:43Z</time></trkpt><trkpt lat="44.775986580398424" lon="9.893873887026643"><ele>376.66666666666663</ele><time>2026-04-19T08:01:47Z</time></trkpt><trkpt lat="44.77599118359928" lon="9.893756889256082"><ele>372.8333333333333</ele><time>2026-04-19T08:01:50Z</time></trkpt><trkpt lat="44.77599521504989" lon="9.89363275215113"><ele>369.0</ele><time>2026-04-19T08:01:55Z</time></trkpt><trkpt lat="44.77601622590415" lon="9.893503728884344"><ele>369.85714285714283</ele><time>2026-04-19T08:02:08Z</time></trkpt><trkpt lat="44.77603051253894" lon="9.893403696472884"><ele>370.71428571428567</ele><time>2026-04-19T08:02:16Z</time></trkpt><trkpt lat="44.776026162828174" lon="9.893310500343727"><ele>371.57142857142856</ele><time>2026-04-19T08:02:22Z</time></trkpt><trkpt lat="44.77601426238491" lon="9.893223121647416"><ele>372.42857142857144</ele><time>2026-04-19T08:02:26Z</time></trkpt><trkpt lat="44.77603900918396" lon="9.893131366304674"><ele>373.2857142857143</ele><time>2026-04-19T08:02:30Z</time></trkpt><trkpt lat="44.77607409465848" lon="9.893052858482058"><ele>374.14285714285717</ele><time>2026-04-19T08:02:34Z</time></trkpt><trkpt lat="44.77604180085977" lon="9.892952148785968"><ele>375.0</ele><time>2026-04-19T08:02:37Z</time></trkpt><trkpt lat="44.77599427075962" lon="9.892860501527"><ele>371.6</ele><time>2026-04-19T08:02:39Z</time></trkpt><trkpt lat="44.775931825041084" lon="9.892753840154857"><ele>368.2</ele><time>2026-04-19T08:02:41Z</time></trkpt><trkpt lat="44.775861982696604" lon="9.89265995166053"><ele>364.79999999999995</ele><time>2026-04-19T08:02:43Z</time></trkpt><trkpt lat="44.77576637843868" lon="9.892591921784126"><ele>361.4</ele><time>2026-04-19T08:02:45Z</time></trkpt><trkpt lat="44.77569848348674" lon="9.892489277841213"><ele>358.0</ele><time>2026-04-19T08:02:47Z</time></trkpt><trkpt lat="44.775617334611056" lon="9.892397324920143"><ele>356.5</ele><time>2026-04-19T08:02:49Z</time></trkpt><trkpt lat="44.77553134943264" lon="9.892316209687182"><ele>355.0</ele><time>2026-04-19T08:02:51Z</time></trkpt><trkpt lat="44.7755007547401" lon="9.892202220772534"><ele>353.5</ele><time>2026-04-19T08:02:53Z</time></trkpt><trkpt lat="44.77552198168697" lon="9.89207181111284"><ele>352.0</ele><time>2026-04-19T08:02:55Z</time></trkpt><trkpt lat="44.77548705385455" lon="9.89197735627763"><ele>350.5</ele><time>2026-04-19T08:02:57Z</time></trkpt><trkpt lat="44.775489042225246" lon="9.891860807338421"><ele>349.0</ele><time>2026-04-19T08:02:59Z</time></trkpt><trkpt lat="44.77554591895671" lon="9.891709721224975"><ele>348.66666666666663</ele><time>2026-04-19T08:03:01Z</time></trkpt><trkpt lat="44.77558094033494" lon="9.891624907535743"><ele>348.3333333333333</ele><time>2026-04-19T08:03:03Z</time></trkpt><trkpt lat="44.775559639113276" lon="9.891490542625688"><ele>348.0</ele><time>2026-04-19T08:03:06Z</time></trkpt><trkpt lat="44.77550809549179" lon="9.891415847104081"><ele>347.6666666666667</ele><time>2026-04-19T08:03:08Z</time></trkpt><trkpt lat="44.775450541011026" lon="9.891329288897555"><ele>347.33333333333337</ele><time>2026-04-19T08:03:10Z</time></trkpt><trkpt lat="44.775361349344706" lon="9.891316260854353"><ele>347.0</ele><time>2026-04-19T08:03:12Z</time></trkpt><trkpt lat="44.77530680603949" lon="9.891225779805284"><ele>347.0</ele><time>2026-04-19T08:03:14Z</time></trkpt><trkpt lat="44.77529586339721" lon="9.891071983656147"><ele>347.0</ele><time>2026-04-19T08:03:16Z</time></trkpt><trkpt lat="44.775283945028455" lon="9.890977699255679"><ele>347.0</ele><time>2026-04-19T08:03:17Z</time></trkpt><trkpt lat="44.775268670568636" lon="9.890890437877326"><ele>347.0</ele><time>2026-04-19T08:03:18Z</time></trkpt><trkpt lat="44.77525172039305" lon="9.890794489275226"><ele>347.0</ele><time>2026-04-19T08:03:19Z</time></trkpt><trkpt lat="44.77519335360432" lon="9.890676371199591"><ele>347.0</ele><time>2026-04-19T08:03:21Z</time></trkpt><trkpt lat="44.7751555808632" lon="9.890530486081289"><ele>346.6</ele><time>2026-04-19T08:03:23Z</time></trkpt><trkpt lat="44.77515308837375" lon="9.890355285746491"><ele>346.20000000000005</ele><time>2026-04-19T08:03:25Z</time></trkpt><trkpt lat="44.77518704142199" lon="9.890181296452303"><ele>345.8</ele><time>2026-04-19T08:03:27Z</time></trkpt><trkpt lat="44.77520503432184" lon="9.890093758646259"><ele>345.4</ele><time>2026-04-19T08:03:28Z</time></trkpt><trkpt lat="44.775228987570166" lon="9.889949283221693"><ele>345.0</ele><time>2026-04-19T08:03:30Z</time></trkpt><trkpt lat="44.775188876263485" lon="9.889806078688547"><ele>344.2</ele><time>2026-04-19T08:03:32Z</time></trkpt><trkpt lat="44.77512107279968" lon="9.889655038492549"><ele>343.4</ele><time>2026-04-19T08:03:34Z</time></trkpt><trkpt lat="44.77507658567469" lon="9.889564183934345"><ele>342.6</ele><time>2026-04-19T08:03:35Z</time></trkpt><trkpt lat="44.77501409864999" lon="9.889402016243071"><ele>341.8</ele><time>2026-04-19T08:03:37Z</time></trkpt><trkpt lat="44.77498801101239" lon="9.889303053899098"><ele>341.0</ele><time>2026-04-19T08:03:38Z</time></trkpt><trkpt lat="44.774969381238364" lon="9.88916026643945"><ele>341.0</ele><time>2026-04-19T08:03:40Z</time></trkpt><trkpt lat="44.77498147038536" lon="9.889067093495266"><ele>341.0</ele><time>2026-04-19T08:03:41Z</time></trkpt><trkpt lat="44.77498881924402" lon="9.888952584767893"><ele>341.0</ele><time>2026-04-19T08:03:42Z</time></trkpt><trkpt lat="44.77496988498721" lon="9.888855607462792"><ele>341.0</ele><time>2026-04-19T08:03:43Z</time></trkpt><trkpt lat="44.77490514891543" lon="9.888776458501358"><ele>341.0</ele><time>2026-04-19T08:03:45Z</time></trkpt><trkpt lat="44.774858337413555" lon="9.888698304158142"><ele>341.0</ele><time>2026-04-19T08:03:50Z</time></trkpt><trkpt lat="44.77483215827117" lon="9.888600174512277"><ele>341.0</ele><time>2026-04-19T08:03:51Z</time></trkpt><trkpt lat="44.774839013610695" lon="9.888485178837765"><ele>341.0</ele><time>2026-04-19T08:03:52Z</time></trkpt><trkpt lat="44.774824136954486" lon="9.888364299891627"><ele>341.0</ele><time>2026-04-19T08:03:53Z</time></trkpt><trkpt lat="44.77479841146222" lon="9.888260301235816"><ele>341.0</ele><time>2026-04-19T08:03:54Z</time></trkpt><trkpt lat="44.774755739597325" lon="9.88816381081611"><ele>341.0</ele><time>2026-04-19T08:03:55Z</time></trkpt><trkpt lat="44.7747412128295" lon="9.888076894090508"><ele>341.0</ele><time>2026-04-19T08:03:56Z</time></trkpt><trkpt lat="44.77474805697664" lon="9.887929894763705"><ele>343.20000000000005</ele><time>2026-04-19T08:03:57Z</time></trkpt><trkpt lat="44.77475263067405" lon="9.887791317958525"><ele>345.40000000000003</ele><time>2026-04-19T08:03:58Z</time></trkpt><trkpt lat="44.77478579273722" lon="9.887607967911235"><ele>347.6</ele><time>2026-04-19T08:04:00Z</time></trkpt><trkpt lat="44.77479170796597" lon="9.88748184445412"><ele>349.8</ele><time>2026-04-19T08:04:01Z</time></trkpt><trkpt lat="44.77479370028249" lon="9.887390709475579"><ele>352.0</ele><time>2026-04-19T08:04:02Z</time></trkpt><trkpt lat="44.7747964981684" lon="9.887225048259927"><ele>353.40000000000003</ele><time>2026-04-19T08:04:04Z</time></trkpt><trkpt lat="44.7749472984547" lon="9.887147534965534"><ele>354.8</ele><time>2026-04-19T08:04:05Z</time></trkpt><trkpt lat="44.774942765594034" lon="9.887010314080744"><ele>356.2</ele><time>2026-04-19T08:04:07Z</time></trkpt><trkpt lat="44.774939777500784" lon="9.88691985639483"><ele>357.6</ele><time>2026-04-19T08:04:08Z</time></trkpt><trkpt lat="44.77492677156012" lon="9.886780128231107"><ele>359.0</ele><time>2026-04-19T08:04:10Z</time></trkpt><trkpt lat="44.774964456636646" lon="9.886670742305698"><ele>359.0</ele><time>2026-04-19T08:04:25Z</time></trkpt><trkpt lat="44.77500078012949" lon="9.886576653094698"><ele>359.0</ele><time>2026-04-19T08:04:26Z</time></trkpt><trkpt lat="44.77504940249542" lon="9.886464245225573"><ele>359.0</ele><time>2026-04-19T08:04:27Z</time></trkpt><trkpt lat="44.775083143578236" lon="9.88636093430727"><ele>359.0</ele><time>2026-04-19T08:04:28Z</time></trkpt><trkpt lat="44.775114473459745" lon="9.886264172302628"><ele>359.0</ele><time>2026-04-19T08:04:29Z</time></trkpt><trkpt lat="44.77514842805949" lon="9.886184796431177"><ele>359.0</ele><time>2026-04-19T08:04:30Z</time></trkpt><trkpt lat="44.775176075386995" lon="9.886050454998767"><ele>364.0</ele><time>2026-04-19T08:04:32Z</time></trkpt><trkpt lat="44.77524780131585" lon="9.886167602798192"><ele>369.0</ele><time>2026-04-19T08:04:36Z</time></trkpt><trkpt lat="44.77524954373837" lon="9.88627748561411"><ele>374.0</ele><time>2026-04-19T08:04:37Z</time></trkpt><trkpt lat="44.77534363848" lon="9.886366999188294"><ele>379.0</ele><time>2026-04-19T08:04:39Z</time></trkpt><trkpt lat="44.77540552631938" lon="9.886507204755969"><ele>384.0</ele><time>2026-04-19T08:04:41Z</time></trkpt><trkpt lat="44.7754473564688" lon="9.886652079394247"><ele>383.99999999999994</ele><time>2026-04-19T08:04:43Z</time></trkpt><trkpt lat="44.77543016153104" lon="9.886563134707808"><ele>384.0</ele><time>2026-04-19T08:04:54Z</time></trkpt><trkpt lat="44.77542089440467" lon="9.886468581866728"><ele>384.0</ele><time>2026-04-19T08:04:55Z</time></trkpt><trkpt lat="44.77538688143032" lon="9.88639206243303"><ele>384.0</ele><time>2026-04-19T08:04:56Z</time></trkpt><trkpt lat="44.77535647544752" lon="9.886294526395407"><ele>384.0</ele><time>2026-04-19T08:04:57Z</time></trkpt><trkpt lat="44.7753346466121" lon="9.886172547950352"><ele>383.99999999999994</ele><time>2026-04-19T08:04:58Z</time></trkpt><trkpt lat="44.7753333408536" lon="9.886064335871463"><ele>384.0</ele><time>2026-04-19T08:04:59Z</time></trkpt><trkpt lat="44.77535089149755" lon="9.885973741094924"><ele>383.2</ele><time>2026-04-19T08:05:00Z</time></trkpt><trkpt lat="44.77539803902755" lon="9.885811360304393"><ele>382.4</ele><time>2026-04-19T08:05:02Z</time></trkpt><trkpt lat="44.77542885919976" lon="9.885688371591193"><ele>381.6</ele><time>2026-04-19T08:05:03Z</time></trkpt><trkpt lat="44.77545514272771" lon="9.885560647487653"><ele>380.8</ele><time>2026-04-19T08:05:04Z</time></trkpt><trkpt lat="44.77547102267946" lon="9.885445474110012"><ele>380.0</ele><time>2026-04-19T08:05:05Z</time></trkpt><trkpt lat="44.77547110451085" lon="9.885330527889872"><ele>380.0</ele><time>2026-04-19T08:05:06Z</time></trkpt><trkpt lat="44.775470189658876" lon="9.885198499759928"><ele>380.0</ele><time>2026-04-19T08:05:07Z</time></trkpt><trkpt lat="44.77546224244561" lon="9.885080701093244"><ele>380.0</ele><time>2026-04-19T08:05:08Z</time></trkpt><trkpt lat="44.77544706258048" lon="9.884977270431714"><ele>380.0</ele><time>2026-04-19T08:05:09Z</time></trkpt><trkpt lat="44.77543354339424" lon="9.884881669830058"><ele>380.0</ele><time>2026-04-19T08:05:10Z</time></trkpt><trkpt lat="44.77542875405403" lon="9.884773399861082"><ele>380.0</ele><time>2026-04-19T08:05:11Z</time></trkpt><trkpt lat="44.77539982723713" lon="9.884654124759233"><ele>379.6</ele><time>2026-04-19T08:05:12Z</time></trkpt><trkpt lat="44.77533965273589" lon="9.884558702058984"><ele>379.2</ele><time>2026-04-19T08:05:13Z</time></trkpt><trkpt lat="44.77526386953868" lon="9.884488293202889"><ele>378.79999999999995</ele><time>2026-04-19T08:05:14Z</time></trkpt><trkpt lat="44.775186731471074" lon="9.884420557762672"><ele>378.4</ele><time>2026-04-19T08:05:15Z</time></trkpt><trkpt lat="44.77510257394059" lon="9.884373576745473"><ele>378.0</ele><time>2026-04-19T08:05:16Z</time></trkpt><trkpt lat="44.77501427655096" lon="9.884347733288148"><ele>374.8333333333333</ele><time>2026-04-19T08:05:17Z</time></trkpt><trkpt lat="44.77492451027219" lon="9.88434647864155"><ele>371.6666666666667</ele><time>2026-04-19T08:05:18Z</time></trkpt><trkpt lat="44.77482950621301" lon="9.884336954911829"><ele>368.5</ele><time>2026-04-19T08:05:19Z</time></trkpt><trkpt lat="44.774738885072225" lon="9.884317119358066"><ele>365.33333333333337</ele><time>2026-04-19T08:05:20Z</time></trkpt><trkpt lat="44.774652341644334" lon="9.884288631947193"><ele>362.1666666666667</ele><time>2026-04-19T08:05:21Z</time></trkpt><trkpt lat="44.774588730407785" lon="9.884242468023757"><ele>359.0</ele><time>2026-04-19T08:05:22Z</time></trkpt><trkpt lat="44.77455924744605" lon="9.884157500408339"><ele>359.0</ele><time>2026-04-19T08:05:23Z</time></trkpt><trkpt lat="44.774556852945615" lon="9.88404759155"><ele>359.0</ele><time>2026-04-19T08:05:24Z</time></trkpt><trkpt lat="44.77455912849401" lon="9.883920813267073"><ele>359.0</ele><time>2026-04-19T08:05:25Z</time></trkpt><trkpt lat="44.77456100894695" lon="9.883792599300657"><ele>359.0</ele><time>2026-04-19T08:05:26Z</time></trkpt><trkpt lat="44.774559878864764" lon="9.883678716431486"><ele>359.0</ele><time>2026-04-19T08:05:27Z</time></trkpt><trkpt lat="44.77454226916759" lon="9.883586058651925"><ele>359.0</ele><time>2026-04-19T08:05:28Z</time></trkpt><trkpt lat="44.77450185246994" lon="9.883517367642703"><ele>359.0</ele><time>2026-04-19T08:05:29Z</time></trkpt><trkpt lat="44.774432625358585" lon="9.88349261149389"><ele>359.0</ele><time>2026-04-19T08:05:30Z</time></trkpt><trkpt lat="44.77435843708157" lon="9.883507503614691"><ele>359.0</ele><time>2026-04-19T08:05:31Z</time></trkpt><trkpt lat="44.77428611999671" lon="9.883538455855668"><ele>359.0</ele><time>2026-04-19T08:05:32Z</time></trkpt><trkpt lat="44.7742013317567" lon="9.883568830357072"><ele>359.0</ele><time>2026-04-19T08:05:33Z</time></trkpt><trkpt lat="44.77410411672908" lon="9.883597549498624"><ele>359.0</ele><time>2026-04-19T08:05:34Z</time></trkpt><trkpt lat="44.774005108082136" lon="9.88361800154656"><ele>356.1666666666667</ele><time>2026-04-19T08:05:35Z</time></trkpt><trkpt lat="44.77392551265699" lon="9.883602007754318"><ele>353.33333333333337</ele><time>2026-04-19T08:05:36Z</time></trkpt><trkpt lat="44.77385824740593" lon="9.883558439505396"><ele>350.5</ele><time>2026-04-19T08:05:37Z</time></trkpt><trkpt lat="44.77379648588805" lon="9.883489247079421"><ele>347.6666666666667</ele><time>2026-04-19T08:05:38Z</time></trkpt><trkpt lat="44.773759601746676" lon="9.883394994400192"><ele>344.8333333333333</ele><time>2026-04-19T08:05:39Z</time></trkpt><trkpt lat="44.77375500790024" lon="9.883287640221646"><ele>342.0</ele><time>2026-04-19T08:05:40Z</time></trkpt><trkpt lat="44.773783837899565" lon="9.88318146790011"><ele>341.6</ele><time>2026-04-19T08:05:41Z</time></trkpt><trkpt lat="44.7738466603104" lon="9.883095237039322"><ele>341.20000000000005</ele><time>2026-04-19T08:05:42Z</time></trkpt><trkpt lat="44.77392999725579" lon="9.88301277801908"><ele>340.8</ele><time>2026-04-19T08:05:43Z</time></trkpt><trkpt lat="44.77400411303425" lon="9.882930956437999"><ele>340.4</ele><time>2026-04-19T08:05:44Z</time></trkpt><trkpt lat="44.77404471842994" lon="9.882850431417902"><ele>340.0</ele><time>2026-04-19T08:05:45Z</time></trkpt><trkpt lat="44.774015482698545" lon="9.882695188031104"><ele>340.0</ele><time>2026-04-19T08:05:47Z</time></trkpt><trkpt lat="44.77395731887335" lon="9.88265790329867"><ele>340.0</ele><time>2026-04-19T08:05:48Z</time></trkpt><trkpt lat="44.77388227257038" lon="9.88267251733786"><ele>340.0</ele><time>2026-04-19T08:05:49Z</time></trkpt><trkpt lat="44.773795381383216" lon="9.882735454494338"><ele>340.0</ele><time>2026-04-19T08:05:50Z</time></trkpt><trkpt lat="44.77369561898057" lon="9.882853788912467"><ele>340.0</ele><time>2026-04-19T08:05:51Z</time></trkpt><trkpt lat="44.77361520928273" lon="9.882936209159931"><ele>340.0</ele><time>2026-04-19T08:05:52Z</time></trkpt><trkpt lat="44.77355675737492" lon="9.882974214487005"><ele>340.0</ele><time>2026-04-19T08:05:53Z</time></trkpt><trkpt lat="44.77349235118805" lon="9.88301803204084"><ele>340.0</ele><time>2026-04-19T08:05:54Z</time></trkpt><trkpt lat="44.773430332625864" lon="9.883066554472995"><ele>340.0</ele><time>2026-04-19T08:05:55Z</time></trkpt><trkpt lat="44.773323676822905" lon="9.883085157097211"><ele>340.0</ele><time>2026-04-19T08:05:57Z</time></trkpt><trkpt lat="44.77327475908321" lon="9.883025365068299"><ele>340.0</ele><time>2026-04-19T08:05:58Z</time></trkpt><trkpt lat="44.77322687027509" lon="9.882911478588051"><ele>336.3333333333333</ele><time>2026-04-19T08:05:59Z</time></trkpt><trkpt lat="44.77321056668316" lon="9.882797968083965"><ele>332.66666666666663</ele><time>2026-04-19T08:06:00Z</time></trkpt><trkpt lat="44.77322495703593" lon="9.882692425056005"><ele>329.0</ele><time>2026-04-19T08:06:01Z</time></trkpt><trkpt lat="44.77327230226272" lon="9.882608616406811"><ele>325.3333333333333</ele><time>2026-04-19T08:06:02Z</time></trkpt><trkpt lat="44.77335132034921" lon="9.882517785015386"><ele>321.6666666666667</ele><time>2026-04-19T08:06:03Z</time></trkpt><trkpt lat="44.77344111997155" lon="9.882443780428341"><ele>318.0</ele><time>2026-04-19T08:06:04Z</time></trkpt><trkpt lat="44.77350819612542" lon="9.882363222921594"><ele>320.4</ele><time>2026-04-19T08:06:05Z</time></trkpt><trkpt lat="44.77357098188529" lon="9.882278816028345"><ele>322.8</ele><time>2026-04-19T08:06:06Z</time></trkpt><trkpt lat="44.77363510332877" lon="9.882212801463448"><ele>325.2</ele><time>2026-04-19T08:06:07Z</time></trkpt><trkpt lat="44.7736997937893" lon="9.882114499362844"><ele>327.6</ele><time>2026-04-19T08:06:08Z</time></trkpt><trkpt lat="44.77377044609366" lon="9.882025269732546"><ele>330.0</ele><time>2026-04-19T08:06:09Z</time></trkpt><trkpt lat="44.773849244821875" lon="9.881907481264399"><ele>324.5</ele><time>2026-04-19T08:06:10Z</time></trkpt><trkpt lat="44.77394019148676" lon="9.881745427901532"><ele>319.0</ele><time>2026-04-19T08:06:11Z</time></trkpt><trkpt lat="44.77398076056712" lon="9.881578267942942"><ele>313.5</ele><time>2026-04-19T08:06:12Z</time></trkpt><trkpt lat="44.77404356120286" lon="9.88147171661725"><ele>308.0</ele><time>2026-04-19T08:06:13Z</time></trkpt><trkpt lat="44.77411332908224" lon="9.88139870158886"><ele>308.0</ele><time>2026-04-19T08:06:14Z</time></trkpt><trkpt lat="44.774178118055325" lon="9.88134013488154"><ele>308.0</ele><time>2026-04-19T08:06:15Z</time></trkpt><trkpt lat="44.77423381081468" lon="9.881292974914063"><ele>308.0</ele><time>2026-04-19T08:06:16Z</time></trkpt><trkpt lat="44.77431088639507" lon="9.881188531341763"><ele>308.0</ele><time>2026-04-19T08:06:18Z</time></trkpt><trkpt lat="44.774344009325766" lon="9.881109351712093"><ele>308.0</ele><time>2026-04-19T08:06:21Z</time></trkpt><trkpt lat="44.7742584161878" lon="9.881068274482645"><ele>308.0</ele><time>2026-04-19T08:06:24Z</time></trkpt><trkpt lat="44.77418419063615" lon="9.881137307680657"><ele>308.0</ele><time>2026-04-19T08:06:25Z</time></trkpt><trkpt lat="44.774086693854805" lon="9.881207550664248"><ele>308.0</ele><time>2026-04-19T08:06:26Z</time></trkpt><trkpt lat="44.7740143923625" lon="9.881257737412485"><ele>308.0</ele><time>2026-04-19T08:06:27Z</time></trkpt><trkpt lat="44.77394969681036" lon="9.881305233068831"><ele>308.0</ele><time>2026-04-19T08:06:28Z</time></trkpt><trkpt lat="44.77386550292277" lon="9.881365597596291"><ele>308.0</ele><time>2026-04-19T08:06:29Z</time></trkpt><trkpt lat="44.773765195676994" lon="9.881439626193403"><ele>308.0</ele><time>2026-04-19T08:06:30Z</time></trkpt><trkpt lat="44.7736667879433" lon="9.88151674473566"><ele>308.0</ele><time>2026-04-19T08:06:31Z</time></trkpt><trkpt lat="44.773573812924546" lon="9.881581096475372"><ele>308.0</ele><time>2026-04-19T08:06:32Z</time></trkpt><trkpt lat="44.77347898068908" lon="9.881646913943658"><ele>308.0</ele><time>2026-04-19T08:06:33Z</time></trkpt><trkpt lat="44.77338532148774" lon="9.881712952712938"><ele>308.0</ele><time>2026-04-19T08:06:34Z</time></trkpt><trkpt lat="44.77328342062392" lon="9.881786739593808"><ele>308.75</ele><time>2026-04-19T08:06:35Z</time></trkpt><trkpt lat="44.7731768397636" lon="9.88185860249527"><ele>309.5</ele><time>2026-04-19T08:06:36Z</time></trkpt><trkpt lat="44.7730625373281" lon="9.881932956015444"><ele>310.25</ele><time>2026-04-19T08:06:37Z</time></trkpt><trkpt lat="44.77294728146614" lon="9.882019634236963"><ele>311.0</ele><time>2026-04-19T08:06:38Z</time></trkpt><trkpt lat="44.77283821006628" lon="9.882100325298431"><ele>311.0</ele><time>2026-04-19T08:06:39Z</time></trkpt><trkpt lat="44.77273918840474" lon="9.88216598463339"><ele>311.0</ele><time>2026-04-19T08:06:40Z</time></trkpt><trkpt lat="44.77263462163999" lon="9.882238620321075"><ele>311.0</ele><time>2026-04-19T08:06:41Z</time></trkpt><trkpt lat="44.77252465613719" lon="9.882321910075628"><ele>311.0</ele><time>2026-04-19T08:06:42Z</time></trkpt><trkpt lat="44.772405700810005" lon="9.882402786700851"><ele>308.0</ele><time>2026-04-19T08:06:43Z</time></trkpt><trkpt lat="44.772280329776855" lon="9.88248302774979"><ele>305.0</ele><time>2026-04-19T08:06:44Z</time></trkpt><trkpt lat="44.77215169092947" lon="9.88256974311141"><ele>302.0</ele><time>2026-04-19T08:06:45Z</time></trkpt><trkpt lat="44.772027659042614" lon="9.882647120201785"><ele>299.0</ele><time>2026-04-19T08:06:46Z</time></trkpt><trkpt lat="44.771916185160215" lon="9.882702407492738"><ele>300.83333333333337</ele><time>2026-04-19T08:06:47Z</time></trkpt><trkpt lat="44.771817995472894" lon="9.88273974903929"><ele>302.6666666666667</ele><time>2026-04-19T08:06:48Z</time></trkpt><trkpt lat="44.77173673936594" lon="9.882756055209864"><ele>304.5</ele><time>2026-04-19T08:06:49Z</time></trkpt><trkpt lat="44.771673278285455" lon="9.882753160918847"><ele>306.3333333333333</ele><time>2026-04-19T08:06:50Z</time></trkpt><trkpt lat="44.77158776719215" lon="9.882738481312112"><ele>308.16666666666663</ele><time>2026-04-19T08:06:52Z</time></trkpt><trkpt lat="44.77151901039962" lon="9.88272831850901"><ele>310.0</ele><time>2026-04-19T08:06:55Z</time></trkpt><trkpt lat="44.77145710787216" lon="9.882658376367464"><ele>307.66666666666663</ele><time>2026-04-19T08:06:57Z</time></trkpt><trkpt lat="44.77152173652467" lon="9.882593170099753"><ele>305.3333333333333</ele><time>2026-04-19T08:06:59Z</time></trkpt><trkpt lat="44.77159327123937" lon="9.882584695512376"><ele>303.0</ele><time>2026-04-19T08:07:00Z</time></trkpt><trkpt lat="44.77167484918471" lon="9.882562440553164"><ele>300.6666666666667</ele><time>2026-04-19T08:07:01Z</time></trkpt><trkpt lat="44.7717460197331" lon="9.882524642164553"><ele>298.33333333333337</ele><time>2026-04-19T08:07:02Z</time></trkpt><trkpt lat="44.77182769418429" lon="9.882413253956402"><ele>296.0</ele><time>2026-04-19T08:07:04Z</time></trkpt><trkpt lat="44.77184843463248" lon="9.882312835540457"><ele>296.0</ele><time>2026-04-19T08:07:07Z</time></trkpt><trkpt lat="44.77179550955454" lon="9.882263557165997"><ele>296.0</ele><time>2026-04-19T08:07:09Z</time></trkpt><trkpt lat="44.771728336360795" lon="9.882249148187555"><ele>296.0</ele><time>2026-04-19T08:07:10Z</time></trkpt><trkpt lat="44.77165300028603" lon="9.882233923666728"><ele>296.0</ele><time>2026-04-19T08:07:11Z</time></trkpt><trkpt lat="44.77158839641316" lon="9.882215546213777"><ele>296.0</ele><time>2026-04-19T08:07:12Z</time></trkpt><trkpt lat="44.77152719736194" lon="9.882119890294017"><ele>296.0</ele><time>2026-04-19T08:07:14Z</time></trkpt><trkpt lat="44.771483520687745" lon="9.882040369919034"><ele>296.0</ele><time>2026-04-19T08:07:15Z</time></trkpt><trkpt lat="44.77144980741315" lon="9.881949944220565"><ele>296.0</ele><time>2026-04-19T08:07:16Z</time></trkpt><trkpt lat="44.771426318395136" lon="9.881867648165304"><ele>296.0</ele><time>2026-04-19T08:07:17Z</time></trkpt><trkpt lat="44.77140039506113" lon="9.881775686142552"><ele>296.0</ele><time>2026-04-19T08:07:18Z</time></trkpt><trkpt lat="44.77136514085596" lon="9.88166105755099"><ele>296.0</ele><time>2026-04-19T08:07:20Z</time></trkpt><trkpt lat="44.77130817771759" lon="9.881614863879102"><ele>296.0</ele><time>2026-04-19T08:07:22Z</time></trkpt><trkpt lat="44.77119799259012" lon="9.881560063625317"><ele>296.0</ele><time>2026-04-19T08:07:24Z</time></trkpt><trkpt lat="44.77112433554543" lon="9.881557376427724"><ele>294.83333333333337</ele><time>2026-04-19T08:07:25Z</time></trkpt><trkpt lat="44.771000828861325" lon="9.88157989960494"><ele>293.6666666666667</ele><time>2026-04-19T08:07:27Z</time></trkpt><trkpt lat="44.77093464860218" lon="9.88162788750664"><ele>292.5</ele><time>2026-04-19T08:07:28Z</time></trkpt><trkpt lat="44.77086041815946" lon="9.881674921608129"><ele>291.3333333333333</ele><time>2026-04-19T08:07:29Z</time></trkpt><trkpt lat="44.77078897059533" lon="9.881687511981639"><ele>290.16666666666663</ele><time>2026-04-19T08:07:30Z</time></trkpt><trkpt lat="44.770725882066785" lon="9.881696968504984"><ele>289.0</ele><time>2026-04-19T08:07:31Z</time></trkpt><trkpt lat="44.770612846493215" lon="9.881678990666929"><ele>289.0</ele><time>2026-04-19T08:07:33Z</time></trkpt><trkpt lat="44.77049176955451" lon="9.881656522757613"><ele>289.0</ele><time>2026-04-19T08:07:35Z</time></trkpt><trkpt lat="44.77037867083192" lon="9.881623034445898"><ele>289.0</ele><time>2026-04-19T08:07:37Z</time></trkpt><trkpt lat="44.77033559747186" lon="9.881531795248268"><ele>289.0</ele><time>2026-04-19T08:07:39Z</time></trkpt><trkpt lat="44.770271936287784" lon="9.881470317285292"><ele>289.0</ele><time>2026-04-19T08:07:43Z</time></trkpt><trkpt lat="44.77019512292605" lon="9.881455546630988"><ele>289.4</ele><time>2026-04-19T08:07:53Z</time></trkpt><trkpt lat="44.77010661885015" lon="9.881393217305355"><ele>289.79999999999995</ele><time>2026-04-19T08:07:55Z</time></trkpt><trkpt lat="44.77003070394578" lon="9.881360984055378"><ele>290.20000000000005</ele><time>2026-04-19T08:07:57Z</time></trkpt><trkpt lat="44.76990376891363" lon="9.881254302078984"><ele>290.6</ele><time>2026-04-19T08:07:59Z</time></trkpt><trkpt lat="44.7698374826426" lon="9.881207513250233"><ele>291.0</ele><time>2026-04-19T08:08:00Z</time></trkpt><trkpt lat="44.769776112815244" lon="9.88117101210923"><ele>291.0</ele><time>2026-04-19T08:08:01Z</time></trkpt><trkpt lat="44.76966255153055" lon="9.88111077295734"><ele>291.0</ele><time>2026-04-19T08:08:03Z</time></trkpt><trkpt lat="44.7695630018528" lon="9.881058846055149"><ele>291.0</ele><time>2026-04-19T08:08:05Z</time></trkpt><trkpt lat="44.76948351294491" lon="9.881110997709097"><ele>291.0</ele><time>2026-04-19T08:08:07Z</time></trkpt><trkpt lat="44.769417417838" lon="9.881155063836081"><ele>291.0</ele><time>2026-04-19T08:08:08Z</time></trkpt><trkpt lat="44.769306502587185" lon="9.881138077985375"><ele>292.0</ele><time>2026-04-19T08:08:10Z</time></trkpt><trkpt lat="44.76923766792121" lon="9.881078240612618"><ele>293.0</ele><time>2026-04-19T08:08:11Z</time></trkpt><trkpt lat="44.76917915574373" lon="9.881036395336638"><ele>294.0</ele><time>2026-04-19T08:08:12Z</time></trkpt><trkpt lat="44.769093429837284" lon="9.881033573144153"><ele>295.0</ele><time>2026-04-19T08:08:13Z</time></trkpt><trkpt lat="44.76900849492196" lon="9.88102358905206"><ele>296.0</ele><time>2026-04-19T08:08:14Z</time></trkpt><trkpt lat="44.76892673794255" lon="9.88102036963234"><ele>297.0</ele><time>2026-04-19T08:08:15Z</time></trkpt><trkpt lat="44.7688522986954" lon="9.881006628220483"><ele>297.0</ele><time>2026-04-19T08:08:16Z</time></trkpt><trkpt lat="44.76876125723881" lon="9.880990291447924"><ele>297.0</ele><time>2026-04-19T08:08:17Z</time></trkpt><trkpt lat="44.76868513506325" lon="9.880978937107033"><ele>297.0</ele><time>2026-04-19T08:08:18Z</time></trkpt><trkpt lat="44.768600108643206" lon="9.880953839843349"><ele>297.0</ele><time>2026-04-19T08:08:20Z</time></trkpt><trkpt lat="44.768528734282626" lon="9.881008781063827"><ele>297.0</ele><time>2026-04-19T08:08:22Z</time></trkpt><trkpt lat="44.768428817739164" lon="9.881141303403636"><ele>296.6666666666667</ele><time>2026-04-19T08:08:24Z</time></trkpt><trkpt lat="44.76836716966671" lon="9.881208020072943"><ele>296.3333333333333</ele><time>2026-04-19T08:08:25Z</time></trkpt><trkpt lat="44.768333018569315" lon="9.881285822225014"><ele>296.0</ele><time>2026-04-19T08:08:27Z</time></trkpt><trkpt lat="44.768273938765105" lon="9.88135840619358"><ele>295.66666666666663</ele><time>2026-04-19T08:08:31Z</time></trkpt><trkpt lat="44.76821327946941" lon="9.88145935677035"><ele>295.3333333333333</ele><time>2026-04-19T08:08:33Z</time></trkpt><trkpt lat="44.76816991713775" lon="9.881563086385418"><ele>295.0</ele><time>2026-04-19T08:08:35Z</time></trkpt><trkpt lat="44.76813935695103" lon="9.881469208546504"><ele>295.0</ele><time>2026-04-19T08:08:50Z</time></trkpt><trkpt lat="44.76805528213907" lon="9.881329505818764"><ele>295.0</ele><time>2026-04-19T08:08:53Z</time></trkpt><trkpt lat="44.76807288091659" lon="9.881178485537403"><ele>295.0</ele><time>2026-04-19T08:08:56Z</time></trkpt><trkpt lat="44.76808679782611" lon="9.881050237818613"><ele>295.0</ele><time>2026-04-19T08:08:58Z</time></trkpt><trkpt lat="44.768111835414025" lon="9.880919765735268"><ele>295.0</ele><time>2026-04-19T08:09:00Z</time></trkpt><trkpt lat="44.76811391840567" lon="9.880772028615985"><ele>294.66666666666663</ele><time>2026-04-19T08:09:02Z</time></trkpt><trkpt lat="44.768109770381145" lon="9.88063517340779"><ele>294.3333333333333</ele><time>2026-04-19T08:09:04Z</time></trkpt><trkpt lat="44.76811960277799" lon="9.88054641060886"><ele>294.0</ele><time>2026-04-19T08:09:05Z</time></trkpt><trkpt lat="44.76811141671732" lon="9.880443153357705"><ele>293.6666666666667</ele><time>2026-04-19T08:09:08Z</time></trkpt><trkpt lat="44.76808828219556" lon="9.880346860235532"><ele>293.33333333333337</ele><time>2026-04-19T08:09:09Z</time></trkpt><trkpt lat="44.76808441483729" lon="9.880237841132637"><ele>293.0</ele><time>2026-04-19T08:09:10Z</time></trkpt><trkpt lat="44.76807140704846" lon="9.880111135583006"><ele>292.83333333333337</ele><time>2026-04-19T08:09:11Z</time></trkpt><trkpt lat="44.76807724975575" lon="9.880020549221738"><ele>292.6666666666667</ele><time>2026-04-19T08:09:12Z</time></trkpt><trkpt lat="44.76809085065241" lon="9.879926057418121"><ele>292.5</ele><time>2026-04-19T08:09:13Z</time></trkpt><trkpt lat="44.768136320809866" lon="9.879782716963167"><ele>292.3333333333333</ele><time>2026-04-19T08:09:15Z</time></trkpt><trkpt lat="44.76818468201307" lon="9.879700184411355"><ele>292.16666666666663</ele><time>2026-04-19T08:09:16Z</time></trkpt><trkpt lat="44.76822105878615" lon="9.879620084578121"><ele>292.0</ele><time>2026-04-19T08:09:17Z</time></trkpt><trkpt lat="44.7682586260048" lon="9.8795324021021"><ele>292.0</ele><time>2026-04-19T08:09:18Z</time></trkpt><trkpt lat="44.768291164676825" lon="9.87945503474332"><ele>292.0</ele><time>2026-04-19T08:09:19Z</time></trkpt><trkpt lat="44.76834376348859" lon="9.879294709806116"><ele>292.0</ele><time>2026-04-19T08:09:21Z</time></trkpt><trkpt lat="44.76837912899019" lon="9.87919700796115"><ele>292.0</ele><time>2026-04-19T08:09:22Z</time></trkpt><trkpt lat="44.768399880542795" lon="9.879103497796315"><ele>292.0</ele><time>2026-04-19T08:09:23Z</time></trkpt><trkpt lat="44.768445567624006" lon="9.878944559165133"><ele>293.0</ele><time>2026-04-19T08:09:25Z</time></trkpt><trkpt lat="44.768459114146204" lon="9.878748901823268"><ele>294.0</ele><time>2026-04-19T08:09:27Z</time></trkpt><trkpt lat="44.7684672993961" lon="9.878650895717028"><ele>295.0</ele><time>2026-04-19T08:09:28Z</time></trkpt><trkpt lat="44.768482089400884" lon="9.878563665250585"><ele>296.0</ele><time>2026-04-19T08:09:29Z</time></trkpt><trkpt lat="44.76849940581878" lon="9.878442508235688"><ele>297.0</ele><time>2026-04-19T08:09:31Z</time></trkpt><trkpt lat="44.768441346619134" lon="9.878542788923264"><ele>297.0</ele><time>2026-04-19T08:09:38Z</time></trkpt><trkpt lat="44.768364900769654" lon="9.87868006895316"><ele>297.0</ele><time>2026-04-19T08:09:40Z</time></trkpt><trkpt lat="44.76831045824654" lon="9.87872735773063"><ele>297.0</ele><time>2026-04-19T08:09:41Z</time></trkpt><trkpt lat="44.7682366584578" lon="9.878828121773198"><ele>297.0</ele><time>2026-04-19T08:09:43Z</time></trkpt><trkpt lat="44.768133059444004" lon="9.8789141604634"><ele>297.0</ele><time>2026-04-19T08:09:45Z</time></trkpt><trkpt lat="44.76807838708207" lon="9.87904548451938"><ele>297.0</ele><time>2026-04-19T08:09:47Z</time></trkpt><trkpt lat="44.76803283407471" lon="9.879124345426906"><ele>297.0</ele><time>2026-04-19T08:09:48Z</time></trkpt><trkpt lat="44.76794677036915" lon="9.8791850385304"><ele>297.0</ele><time>2026-04-19T08:09:50Z</time></trkpt><trkpt lat="44.76789112627634" lon="9.879290148191988"><ele>297.0</ele><time>2026-04-19T08:09:54Z</time></trkpt><trkpt lat="44.76784319921028" lon="9.879384957494388"><ele>297.0</ele><time>2026-04-19T08:09:57Z</time></trkpt><trkpt lat="44.76777266082664" lon="9.8794371048016"><ele>297.0</ele><time>2026-04-19T08:10:01Z</time></trkpt><trkpt lat="44.7676802583879" lon="9.87948628779534"><ele>302.3333333333333</ele><time>2026-04-19T08:10:04Z</time></trkpt><trkpt lat="44.767626008312895" lon="9.879533392435732"><ele>307.66666666666663</ele><time>2026-04-19T08:10:06Z</time></trkpt><trkpt lat="44.76755676606603" lon="9.87956960557475"><ele>313.0</ele><time>2026-04-19T08:10:09Z</time></trkpt><trkpt lat="44.767317725884254" lon="9.879911067535378"><ele>313.0</ele><time>2026-04-19T08:10:11Z</time></trkpt><trkpt lat="44.767293592238005" lon="9.879995348624007"><ele>313.0</ele><time>2026-04-19T08:10:12Z</time></trkpt><trkpt lat="44.76723000696814" lon="9.880117191118279"><ele>313.0</ele><time>2026-04-19T08:10:14Z</time></trkpt><trkpt lat="44.76716102601531" lon="9.880171332239076"><ele>313.0</ele><time>2026-04-19T08:10:18Z</time></trkpt><trkpt lat="44.767158980894656" lon="9.88007712692989"><ele>313.0</ele><time>2026-04-19T08:10:22Z</time></trkpt><trkpt lat="44.76710576128837" lon="9.880028119489673"><ele>313.0</ele><time>2026-04-19T08:10:28Z</time></trkpt><trkpt lat="44.76704376734939" lon="9.879987161565309"><ele>313.0</ele><time>2026-04-19T08:10:29Z</time></trkpt><trkpt lat="44.76705776576606" lon="9.87984718708411"><ele>313.0</ele><time>2026-04-19T08:10:31Z</time></trkpt><trkpt lat="44.76705191774851" lon="9.879728503035372"><ele>313.0</ele><time>2026-04-19T08:10:33Z</time></trkpt><trkpt lat="44.76703562561683" lon="9.879614499694087"><ele>313.0</ele><time>2026-04-19T08:10:36Z</time></trkpt><trkpt lat="44.76703657854194" lon="9.879511910814209"><ele>313.0</ele><time>2026-04-19T08:10:38Z</time></trkpt><trkpt lat="44.76698647713791" lon="9.879381596849974"><ele>313.0</ele><time>2026-04-19T08:10:44Z</time></trkpt><trkpt lat="44.766965991183945" lon="9.879259865374515"><ele>313.5</ele><time>2026-04-19T08:10:46Z</time></trkpt><trkpt lat="44.766883689592305" lon="9.879256636351194"><ele>314.0</ele><time>2026-04-19T08:10:49Z</time></trkpt><trkpt lat="44.766847691353234" lon="9.879349874673352"><ele>314.5</ele><time>2026-04-19T08:10:54Z</time></trkpt><trkpt lat="44.76679051239353" lon="9.879475566734802"><ele>315.0</ele><time>2026-04-19T08:10:57Z</time></trkpt><trkpt lat="44.766716708857075" lon="9.879497329219273"><ele>315.5</ele><time>2026-04-19T08:10:59Z</time></trkpt><trkpt lat="44.766657911164344" lon="9.879439114407516"><ele>316.0</ele><time>2026-04-19T08:11:02Z</time></trkpt><trkpt lat="44.76660222574634" lon="9.879378324200477"><ele>323.25</ele><time>2026-04-19T08:11:04Z</time></trkpt><trkpt lat="44.76644015296329" lon="9.879135565200924"><ele>330.5</ele><time>2026-04-19T08:11:07Z</time></trkpt><trkpt lat="44.76642816426835" lon="9.879045946018751"><ele>337.75</ele><time>2026-04-19T08:11:08Z</time></trkpt><trkpt lat="44.76641277094457" lon="9.878953429250748"><ele>345.0</ele><time>2026-04-19T08:11:09Z</time></trkpt><trkpt lat="44.766369667666275" lon="9.87881665570422"><ele>345.0</ele><time>2026-04-19T08:11:11Z</time></trkpt><trkpt lat="44.76628704967711" lon="9.878750594453997"><ele>345.0</ele><time>2026-04-19T08:11:34Z</time></trkpt><trkpt lat="44.766214017958134" lon="9.87871019582664"><ele>345.0</ele><time>2026-04-19T08:11:35Z</time></trkpt><trkpt lat="44.76618194236138" lon="9.878615801449829"><ele>345.0</ele><time>2026-04-19T08:11:37Z</time></trkpt><trkpt lat="44.766197052169005" lon="9.87847379773631"><ele>345.0</ele><time>2026-04-19T08:11:39Z</time></trkpt><trkpt lat="44.76611671748843" lon="9.87837041610202"><ele>344.6666666666667</ele><time>2026-04-19T08:11:41Z</time></trkpt><trkpt lat="44.766043401339985" lon="9.878292652687884"><ele>344.3333333333333</ele><time>2026-04-19T08:11:42Z</time></trkpt><trkpt lat="44.7659974783641" lon="9.878206159286357"><ele>344.0</ele><time>2026-04-19T08:11:43Z</time></trkpt><trkpt lat="44.76596186529845" lon="9.878110850250684"><ele>343.66666666666663</ele><time>2026-04-19T08:11:44Z</time></trkpt><trkpt lat="44.76593207204575" lon="9.877990313953203"><ele>343.3333333333333</ele><time>2026-04-19T08:11:45Z</time></trkpt><trkpt lat="44.76589910690339" lon="9.877865868204491"><ele>343.0</ele><time>2026-04-19T08:11:46Z</time></trkpt><trkpt lat="44.76587674850666" lon="9.87776092004068"><ele>347.16666666666663</ele><time>2026-04-19T08:11:47Z</time></trkpt><trkpt lat="44.76580369336546" lon="9.877633628083963"><ele>351.3333333333333</ele><time>2026-04-19T08:11:49Z</time></trkpt><trkpt lat="44.765742725132284" lon="9.87759285824414"><ele>355.5</ele><time>2026-04-19T08:11:50Z</time></trkpt><trkpt lat="44.76569069697262" lon="9.877531609987868"><ele>359.6666666666667</ele><time>2026-04-19T08:11:51Z</time></trkpt><trkpt lat="44.76564234972493" lon="9.877456503014812"><ele>363.83333333333337</ele><time>2026-04-19T08:11:52Z</time></trkpt><trkpt lat="44.76560229020923" lon="9.877373391049458"><ele>368.0</ele><time>2026-04-19T08:11:53Z</time></trkpt><trkpt lat="44.76556351927723" lon="9.87725956491389"><ele>368.83333333333337</ele><time>2026-04-19T08:11:54Z</time></trkpt><trkpt lat="44.765540781722564" lon="9.877170780829145"><ele>369.6666666666667</ele><time>2026-04-19T08:11:55Z</time></trkpt><trkpt lat="44.765523819376064" lon="9.877079913883906"><ele>370.5</ele><time>2026-04-19T08:11:56Z</time></trkpt><trkpt lat="44.76549386753785" lon="9.876908601422068"><ele>371.3333333333333</ele><time>2026-04-19T08:11:58Z</time></trkpt><trkpt lat="44.76548326562871" lon="9.876819746933142"><ele>372.16666666666663</ele><time>2026-04-19T08:11:59Z</time></trkpt><trkpt lat="44.76542106924398" lon="9.876687839318597"><ele>373.0</ele><time>2026-04-19T08:12:01Z</time></trkpt><trkpt lat="44.76538105691853" lon="9.876572693232653"><ele>374.59999999999997</ele><time>2026-04-19T08:12:02Z</time></trkpt><trkpt lat="44.765362910002324" lon="9.876464910808595"><ele>376.2</ele><time>2026-04-19T08:12:03Z</time></trkpt><trkpt lat="44.765288059749494" lon="9.876338817953021"><ele>377.8</ele><time>2026-04-19T08:12:05Z</time></trkpt><trkpt lat="44.76519925013585" lon="9.876349377390456"><ele>379.4</ele><time>2026-04-19T08:12:08Z</time></trkpt><trkpt lat="44.765107995378045" lon="9.876438497995053"><ele>381.0</ele><time>2026-04-19T08:12:11Z</time></trkpt><trkpt lat="44.764949871492014" lon="9.876516206949361"><ele>385.5</ele><time>2026-04-19T08:12:13Z</time></trkpt><trkpt lat="44.76484419254278" lon="9.876589828451227"><ele>390.0</ele><time>2026-04-19T08:12:15Z</time></trkpt><trkpt lat="44.764734324773386" lon="9.876666326997295"><ele>394.5</ele><time>2026-04-19T08:12:17Z</time></trkpt><trkpt lat="44.764633293873885" lon="9.876734062736427"><ele>399.0</ele><time>2026-04-19T08:12:19Z</time></trkpt><trkpt lat="44.764521548711635" lon="9.876823162313325"><ele>399.0</ele><time>2026-04-19T08:12:21Z</time></trkpt><trkpt lat="44.76444897479322" lon="9.876850052495744"><ele>399.0</ele><time>2026-04-19T08:12:23Z</time></trkpt><trkpt lat="44.764395019360194" lon="9.876799758301956"><ele>399.0</ele><time>2026-04-19T08:12:25Z</time></trkpt><trkpt lat="44.76436715992963" lon="9.876712026449868"><ele>399.0</ele><time>2026-04-19T08:12:26Z</time></trkpt><trkpt lat="44.764327422030284" lon="9.87658177620057"><ele>399.0</ele><time>2026-04-19T08:12:28Z</time></trkpt><trkpt lat="44.76427555346305" lon="9.876428341324427"><ele>399.0</ele><time>2026-04-19T08:12:30Z</time></trkpt><trkpt lat="44.764205212151985" lon="9.876287510304392"><ele>403.3333333333333</ele><time>2026-04-19T08:12:32Z</time></trkpt><trkpt lat="44.76413999753358" lon="9.876285503593204"><ele>407.66666666666663</ele><time>2026-04-19T08:12:34Z</time></trkpt><trkpt lat="44.76412934001824" lon="9.876383260442086"><ele>412.0</ele><time>2026-04-19T08:12:35Z</time></trkpt><trkpt lat="44.76416355384545" lon="9.8765261679939"><ele>416.3333333333333</ele><time>2026-04-19T08:12:37Z</time></trkpt><trkpt lat="44.76414686664766" lon="9.876683892467357"><ele>420.66666666666663</ele><time>2026-04-19T08:12:39Z</time></trkpt><trkpt lat="44.76411423320866" lon="9.876790649506257"><ele>425.0</ele><time>2026-04-19T08:12:40Z</time></trkpt><trkpt lat="44.7640966391095" lon="9.876878602744751"><ele>425.0</ele><time>2026-04-19T08:12:41Z</time></trkpt><trkpt lat="44.764039567941474" lon="9.877045366482049"><ele>425.0</ele><time>2026-04-19T08:12:43Z</time></trkpt><trkpt lat="44.76395256756317" lon="9.877110715940887"><ele>425.0</ele><time>2026-04-19T08:12:45Z</time></trkpt><trkpt lat="44.76388035518835" lon="9.87708841051952"><ele>425.0</ele><time>2026-04-19T08:12:47Z</time></trkpt><trkpt lat="44.76381057919586" lon="9.87699765963266"><ele>425.0</ele><time>2026-04-19T08:12:48Z</time></trkpt><trkpt lat="44.763799490339814" lon="9.876864187346646"><ele>425.2</ele><time>2026-04-19T08:12:49Z</time></trkpt><trkpt lat="44.763781143291006" lon="9.876721729967338"><ele>425.4</ele><time>2026-04-19T08:12:50Z</time></trkpt><trkpt lat="44.763756726707214" lon="9.876567963915068"><ele>425.6</ele><time>2026-04-19T08:12:51Z</time></trkpt><trkpt lat="44.76372332071748" lon="9.876429927549056"><ele>425.8</ele><time>2026-04-19T08:12:52Z</time></trkpt><trkpt lat="44.7636863971598" lon="9.876305495729586"><ele>426.0</ele><time>2026-04-19T08:12:53Z</time></trkpt><trkpt lat="44.763636777471575" lon="9.876196983723158"><ele>426.0</ele><time>2026-04-19T08:12:54Z</time></trkpt><trkpt lat="44.76358560686079" lon="9.876079151386078"><ele>426.0</ele><time>2026-04-19T08:12:55Z</time></trkpt><trkpt lat="44.763528989456184" lon="9.875971892778011"><ele>426.0</ele><time>2026-04-19T08:12:56Z</time></trkpt><trkpt lat="44.76347152771661" lon="9.875891864156817"><ele>426.0</ele><time>2026-04-19T08:12:57Z</time></trkpt><trkpt lat="44.76341149485999" lon="9.875857258205881"><ele>426.0</ele><time>2026-04-19T08:12:58Z</time></trkpt><trkpt lat="44.76328452800771" lon="9.875866313940898"><ele>428.0</ele><time>2026-04-19T08:13:00Z</time></trkpt><trkpt lat="44.76319716738226" lon="9.875901116495147"><ele>430.0</ele><time>2026-04-19T08:13:01Z</time></trkpt><trkpt lat="44.76310399155212" lon="9.875946035125786"><ele>432.0</ele><time>2026-04-19T08:13:02Z</time></trkpt><trkpt lat="44.76300943623468" lon="9.875975106372369"><ele>434.0</ele><time>2026-04-19T08:13:03Z</time></trkpt><trkpt lat="44.7629349449524" lon="9.875957602259094"><ele>436.0</ele><time>2026-04-19T08:13:04Z</time></trkpt><trkpt lat="44.76287247604378" lon="9.875905917551394"><ele>438.0</ele><time>2026-04-19T08:13:05Z</time></trkpt><trkpt lat="44.76281537676604" lon="9.87584292291043"><ele>440.75</ele><time>2026-04-19T08:13:06Z</time></trkpt><trkpt lat="44.76273392480857" lon="9.875833580677867"><ele>443.5</ele><time>2026-04-19T08:13:07Z</time></trkpt><trkpt lat="44.762629754098434" lon="9.87584253741907"><ele>446.25</ele><time>2026-04-19T08:13:08Z</time></trkpt><trkpt lat="44.76253919001805" lon="9.875728389067937"><ele>449.0</ele><time>2026-04-19T08:13:10Z</time></trkpt><trkpt lat="44.76248785881073" lon="9.875532484079214"><ele>449.6</ele><time>2026-04-19T08:13:12Z</time></trkpt><trkpt lat="44.762453255668966" lon="9.875397582370958"><ele>450.2</ele><time>2026-04-19T08:13:13Z</time></trkpt><trkpt lat="44.76240460616454" lon="9.875313025599596"><ele>450.80000000000007</ele><time>2026-04-19T08:13:14Z</time></trkpt><trkpt lat="44.76235206564526" lon="9.87523733721038"><ele>451.40000000000003</ele><time>2026-04-19T08:13:15Z</time></trkpt><trkpt lat="44.76227228927932" lon="9.875144207996263"><ele>452.0</ele><time>2026-04-19T08:13:16Z</time></trkpt><trkpt lat="44.76219450961606" lon="9.87505655450329"><ele>453.8</ele><time>2026-04-19T08:13:17Z</time></trkpt><trkpt lat="44.76211743993021" lon="9.874993004141873"><ele>455.6</ele><time>2026-04-19T08:13:18Z</time></trkpt><trkpt lat="44.76201556322387" lon="9.874966702225295"><ele>457.40000000000003</ele><time>2026-04-19T08:13:19Z</time></trkpt><trkpt lat="44.7619026920281" lon="9.874975285207697"><ele>459.20000000000005</ele><time>2026-04-19T08:13:20Z</time></trkpt><trkpt lat="44.76184711135776" lon="9.874926007850798"><ele>461.0</ele><time>2026-04-19T08:13:24Z</time></trkpt><trkpt lat="44.76191936254127" lon="9.874847604937251"><ele>460.99999999999994</ele><time>2026-04-19T08:13:26Z</time></trkpt><trkpt lat="44.76198230511581" lon="9.874801182639867"><ele>461.0</ele><time>2026-04-19T08:13:27Z</time></trkpt><trkpt lat="44.76200180498976" lon="9.87466511778857"><ele>461.0</ele><time>2026-04-19T08:13:29Z</time></trkpt><trkpt lat="44.76202080465929" lon="9.874568290250725"><ele>461.0</ele><time>2026-04-19T08:13:30Z</time></trkpt><trkpt lat="44.762024892350716" lon="9.874479775218786"><ele>460.99999999999994</ele><time>2026-04-19T08:13:31Z</time></trkpt><trkpt lat="44.76203881820918" lon="9.874369847352218"><ele>461.0</ele><time>2026-04-19T08:13:32Z</time></trkpt><trkpt lat="44.762050599622114" lon="9.874239712810326"><ele>460.16666666666663</ele><time>2026-04-19T08:13:33Z</time></trkpt><trkpt lat="44.762034668865084" lon="9.874100924294934"><ele>459.3333333333333</ele><time>2026-04-19T08:13:34Z</time></trkpt><trkpt lat="44.7620034165677" lon="9.873956078332206"><ele>458.5</ele><time>2026-04-19T08:13:35Z</time></trkpt><trkpt lat="44.761966653848056" lon="9.873847688880847"><ele>457.66666666666663</ele><time>2026-04-19T08:13:36Z</time></trkpt><trkpt lat="44.761915057474326" lon="9.873758572761608"><ele>456.8333333333333</ele><time>2026-04-19T08:13:37Z</time></trkpt><trkpt lat="44.761867739686096" lon="9.873697818781743"><ele>456.0</ele><time>2026-04-19T08:13:38Z</time></trkpt><trkpt lat="44.7618191313844" lon="9.873558450916462"><ele>459.6</ele><time>2026-04-19T08:13:40Z</time></trkpt><trkpt lat="44.76179858037632" lon="9.873456398230198"><ele>463.20000000000005</ele><time>2026-04-19T08:13:41Z</time></trkpt><trkpt lat="44.76178029906958" lon="9.873332565499656"><ele>466.79999999999995</ele><time>2026-04-19T08:13:42Z</time></trkpt><trkpt lat="44.7617924138495" lon="9.87322190906298"><ele>470.4</ele><time>2026-04-19T08:13:43Z</time></trkpt><trkpt lat="44.76184231377421" lon="9.873079779161776"><ele>474.0</ele><time>2026-04-19T08:13:45Z</time></trkpt><trkpt lat="44.76179879287723" lon="9.872944212516863"><ele>474.1666666666667</ele><time>2026-04-19T08:13:48Z</time></trkpt><trkpt lat="44.76175864133351" lon="9.872808612757867"><ele>474.33333333333337</ele><time>2026-04-19T08:13:49Z</time></trkpt><trkpt lat="44.76173952314382" lon="9.872688196103265"><ele>474.5</ele><time>2026-04-19T08:13:50Z</time></trkpt><trkpt lat="44.76169077233127" lon="9.87257377466254"><ele>474.6666666666667</ele><time>2026-04-19T08:13:51Z</time></trkpt><trkpt lat="44.761638377362466" lon="9.872498034407382"><ele>474.83333333333337</ele><time>2026-04-19T08:13:52Z</time></trkpt><trkpt lat="44.76157097250216" lon="9.872427043316703"><ele>475.0</ele><time>2026-04-19T08:13:53Z</time></trkpt><trkpt lat="44.76146860585496" lon="9.87237418615246"><ele>474.0</ele><time>2026-04-19T08:13:54Z</time></trkpt><trkpt lat="44.761367379254196" lon="9.872341877919135"><ele>473.0</ele><time>2026-04-19T08:13:55Z</time></trkpt><trkpt lat="44.76125212610868" lon="9.872339450309143"><ele>472.0</ele><time>2026-04-19T08:13:56Z</time></trkpt><trkpt lat="44.76111797907165" lon="9.872364436317607"><ele>471.0</ele><time>2026-04-19T08:13:57Z</time></trkpt><trkpt lat="44.76103216111454" lon="9.872385585098405"><ele>470.0</ele><time>2026-04-19T08:13:58Z</time></trkpt><trkpt lat="44.760954992732586" lon="9.872391571721291"><ele>474.4</ele><time>2026-04-19T08:13:59Z</time></trkpt><trkpt lat="44.76085010227346" lon="9.872363588314547"><ele>478.8</ele><time>2026-04-19T08:14:00Z</time></trkpt><trkpt lat="44.76074310434363" lon="9.87237288778685"><ele>483.20000000000005</ele><time>2026-04-19T08:14:01Z</time></trkpt><trkpt lat="44.76067360142501" lon="9.872343823329754"><ele>487.6</ele><time>2026-04-19T08:14:02Z</time></trkpt><trkpt lat="44.76059505591894" lon="9.872299252931052"><ele>492.0</ele><time>2026-04-19T08:14:03Z</time></trkpt><trkpt lat="44.76050911355279" lon="9.872272301658251"><ele>492.0</ele><time>2026-04-19T08:14:04Z</time></trkpt><trkpt lat="44.76039954056725" lon="9.872250189065847"><ele>492.00000000000006</ele><time>2026-04-19T08:14:05Z</time></trkpt><trkpt lat="44.76030839924875" lon="9.872213706954794"><ele>492.00000000000006</ele><time>2026-04-19T08:14:06Z</time></trkpt><trkpt lat="44.76022724254078" lon="9.872168963366287"><ele>492.0</ele><time>2026-04-19T08:14:07Z</time></trkpt><trkpt lat="44.76013512520906" lon="9.87212929385144"><ele>492.0</ele><time>2026-04-19T08:14:08Z</time></trkpt><trkpt lat="44.76003399473575" lon="9.872077371879374"><ele>494.6666666666667</ele><time>2026-04-19T08:14:09Z</time></trkpt><trkpt lat="44.75996082637657" lon="9.87205169096574"><ele>497.33333333333337</ele><time>2026-04-19T08:14:10Z</time></trkpt><trkpt lat="44.759888696631506" lon="9.87202549057115"><ele>500.0</ele><time>2026-04-19T08:14:11Z</time></trkpt><trkpt lat="44.75981206984366" lon="9.872007969044173"><ele>502.6666666666667</ele><time>2026-04-19T08:14:12Z</time></trkpt><trkpt lat="44.75973401794267" lon="9.872007204576253"><ele>505.33333333333337</ele><time>2026-04-19T08:14:13Z</time></trkpt><trkpt lat="44.75965370577243" lon="9.872024285512152"><ele>508.0</ele><time>2026-04-19T08:14:14Z</time></trkpt><trkpt lat="44.759562787480775" lon="9.872026178981837"><ele>508.0</ele><time>2026-04-19T08:14:15Z</time></trkpt><trkpt lat="44.75947666322363" lon="9.872040635613535"><ele>507.99999999999994</ele><time>2026-04-19T08:14:16Z</time></trkpt><trkpt lat="44.75937835061331" lon="9.87208049763012"><ele>507.99999999999994</ele><time>2026-04-19T08:14:17Z</time></trkpt><trkpt lat="44.75927665722981" lon="9.872133747963828"><ele>508.0</ele><time>2026-04-19T08:14:18Z</time></trkpt><trkpt lat="44.75919223645017" lon="9.872184473214928"><ele>508.0</ele><time>2026-04-19T08:14:19Z</time></trkpt><trkpt lat="44.75910074787824" lon="9.872187160861658"><ele>508.33333333333337</ele><time>2026-04-19T08:14:20Z</time></trkpt><trkpt lat="44.75901346164177" lon="9.87220477757693"><ele>508.6666666666667</ele><time>2026-04-19T08:14:21Z</time></trkpt><trkpt lat="44.75892701084876" lon="9.872244761351581"><ele>509.0</ele><time>2026-04-19T08:14:22Z</time></trkpt><trkpt lat="44.7588435897479" lon="9.872251584348245"><ele>509.33333333333337</ele><time>2026-04-19T08:14:23Z</time></trkpt><trkpt lat="44.75875780061403" lon="9.87226593440901"><ele>509.6666666666667</ele><time>2026-04-19T08:14:24Z</time></trkpt><trkpt lat="44.758678200541084" lon="9.872290007955266"><ele>510.0</ele><time>2026-04-19T08:14:25Z</time></trkpt><trkpt lat="44.758602880171466" lon="9.872306094712185"><ele>511.2</ele><time>2026-04-19T08:14:26Z</time></trkpt><trkpt lat="44.75851370807012" lon="9.87233303083348"><ele>512.4</ele><time>2026-04-19T08:14:27Z</time></trkpt><trkpt lat="44.7584138906766" lon="9.872366667102566"><ele>513.6</ele><time>2026-04-19T08:14:28Z</time></trkpt><trkpt lat="44.75829415313163" lon="9.872414630815678"><ele>514.8</ele><time>2026-04-19T08:14:29Z</time></trkpt><trkpt lat="44.75817958131429" lon="9.872467633747718"><ele>516.0</ele><time>2026-04-19T08:14:30Z</time></trkpt><trkpt lat="44.758099293646914" lon="9.872513880641707"><ele>516.0</ele><time>2026-04-19T08:14:31Z</time></trkpt><trkpt lat="44.75804242152581" lon="9.872564330533992"><ele>516.0</ele><time>2026-04-19T08:14:32Z</time></trkpt><trkpt lat="44.75799106868981" lon="9.872617780291007"><ele>516.0</ele><time>2026-04-19T08:14:33Z</time></trkpt><trkpt lat="44.75791583387877" lon="9.872680944654915"><ele>516.0</ele><time>2026-04-19T08:14:34Z</time></trkpt><trkpt lat="44.75782948519211" lon="9.87272915325453"><ele>516.0</ele><time>2026-04-19T08:14:35Z</time></trkpt><trkpt lat="44.75775544746097" lon="9.872773193752971"><ele>516.0</ele><time>2026-04-19T08:14:36Z</time></trkpt><trkpt lat="44.75767318194791" lon="9.872822244172038"><ele>517.2</ele><time>2026-04-19T08:14:37Z</time></trkpt><trkpt lat="44.75757555258649" lon="9.872886771591133"><ele>518.4000000000001</ele><time>2026-04-19T08:14:38Z</time></trkpt><trkpt lat="44.75748942205321" lon="9.872943049738684"><ele>519.6</ele><time>2026-04-19T08:14:39Z</time></trkpt><trkpt lat="44.75741357435542" lon="9.872989176342703"><ele>520.8000000000001</ele><time>2026-04-19T08:14:40Z</time></trkpt><trkpt lat="44.75732718381515" lon="9.87304224986028"><ele>522.0</ele><time>2026-04-19T08:14:41Z</time></trkpt><trkpt lat="44.757228281513285" lon="9.8731055162133"><ele>522.0</ele><time>2026-04-19T08:14:42Z</time></trkpt><trkpt lat="44.75714570016225" lon="9.873164054930863"><ele>522.0</ele><time>2026-04-19T08:14:43Z</time></trkpt><trkpt lat="44.757081143198185" lon="9.873206417737148"><ele>522.0</ele><time>2026-04-19T08:14:44Z</time></trkpt><trkpt lat="44.757017664349654" lon="9.87323793567892"><ele>522.0</ele><time>2026-04-19T08:14:45Z</time></trkpt><trkpt lat="44.75695291181249" lon="9.87324789958053"><ele>522.0</ele><time>2026-04-19T08:14:46Z</time></trkpt><trkpt lat="44.7568636950151" lon="9.873222744703211"><ele>522.0</ele><time>2026-04-19T08:14:48Z</time></trkpt><trkpt lat="44.756793950870744" lon="9.873197765082542"><ele>522.1666666666666</ele><time>2026-04-19T08:14:49Z</time></trkpt><trkpt lat="44.75671547741986" lon="9.873165155807047"><ele>522.3333333333334</ele><time>2026-04-19T08:14:50Z</time></trkpt><trkpt lat="44.75663871486637" lon="9.873127583551888"><ele>522.5</ele><time>2026-04-19T08:14:51Z</time></trkpt><trkpt lat="44.75657395146137" lon="9.87308525221578"><ele>522.6666666666667</ele><time>2026-04-19T08:14:52Z</time></trkpt><trkpt lat="44.756462758926155" lon="9.872980773911165"><ele>522.8333333333334</ele><time>2026-04-19T08:14:54Z</time></trkpt><trkpt lat="44.75639427209356" lon="9.872920727630246"><ele>523.0</ele><time>2026-04-19T08:14:55Z</time></trkpt><trkpt lat="44.756323766946146" lon="9.872873327545213"><ele>523.0</ele><time>2026-04-19T08:14:56Z</time></trkpt><trkpt lat="44.75624181875084" lon="9.872823572038843"><ele>523.0</ele><time>2026-04-19T08:14:57Z</time></trkpt><trkpt lat="44.756164707423885" lon="9.872783895065004"><ele>523.0</ele><time>2026-04-19T08:14:58Z</time></trkpt><trkpt lat="44.75609366656821" lon="9.872729959590625"><ele>523.0</ele><time>2026-04-19T08:14:59Z</time></trkpt><trkpt lat="44.75600257899112" lon="9.872669297917966"><ele>523.0</ele><time>2026-04-19T08:15:00Z</time></trkpt><trkpt lat="44.755914862026124" lon="9.872625803478602"><ele>523.0</ele><time>2026-04-19T08:15:01Z</time></trkpt><trkpt lat="44.75583790016278" lon="9.87259224498894"><ele>522.8333333333334</ele><time>2026-04-19T08:15:02Z</time></trkpt><trkpt lat="44.75574903119965" lon="9.872558584494914"><ele>522.6666666666667</ele><time>2026-04-19T08:15:03Z</time></trkpt><trkpt lat="44.75565646829401" lon="9.872520774245872"><ele>522.5</ele><time>2026-04-19T08:15:04Z</time></trkpt><trkpt lat="44.75559572147987" lon="9.872494341934258"><ele>522.3333333333334</ele><time>2026-04-19T08:15:05Z</time></trkpt><trkpt lat="44.75549788947886" lon="9.872475416646255"><ele>522.1666666666666</ele><time>2026-04-19T08:15:07Z</time></trkpt><trkpt lat="44.75543240223014" lon="9.872523165934478"><ele>522.0</ele><time>2026-04-19T08:15:08Z</time></trkpt><trkpt lat="44.75535126829383" lon="9.872512335303503"><ele>522.0</ele><time>2026-04-19T08:15:10Z</time></trkpt><trkpt lat="44.755279263859705" lon="9.872431742098144"><ele>522.0</ele><time>2026-04-19T08:15:12Z</time></trkpt><trkpt lat="44.75520095037571" lon="9.872311555739259"><ele>522.0</ele><time>2026-04-19T08:15:14Z</time></trkpt><trkpt lat="44.75514603312498" lon="9.872180551194688"><ele>522.0</ele><time>2026-04-19T08:15:16Z</time></trkpt><trkpt lat="44.75509686809844" lon="9.872091203295701"><ele>522.0</ele><time>2026-04-19T08:15:17Z</time></trkpt><trkpt lat="44.75500794782297" lon="9.872029496764986"><ele>523.1666666666666</ele><time>2026-04-19T08:15:19Z</time></trkpt><trkpt lat="44.754942765124646" lon="9.871992575708195"><ele>524.3333333333334</ele><time>2026-04-19T08:15:20Z</time></trkpt><trkpt lat="44.754890574281724" lon="9.871932223232717"><ele>525.5</ele><time>2026-04-19T08:15:21Z</time></trkpt><trkpt lat="44.75484576715859" lon="9.871865879323206"><ele>526.6666666666667</ele><time>2026-04-19T08:15:22Z</time></trkpt><trkpt lat="44.75480656238578" lon="9.871769569228814"><ele>527.8333333333334</ele><time>2026-04-19T08:15:23Z</time></trkpt><trkpt lat="44.75476423998529" lon="9.871673804035689"><ele>529.0</ele><time>2026-04-19T08:15:24Z</time></trkpt><trkpt lat="44.75472039450809" lon="9.871551538373893"><ele>529.0</ele><time>2026-04-19T08:15:25Z</time></trkpt><trkpt lat="44.75467742893805" lon="9.87143539966852"><ele>529.0</ele><time>2026-04-19T08:15:26Z</time></trkpt><trkpt lat="44.75466999660054" lon="9.871337381970038"><ele>529.0</ele><time>2026-04-19T08:15:27Z</time></trkpt><trkpt lat="44.754651609731575" lon="9.871211643342672"><ele>529.0</ele><time>2026-04-19T08:15:28Z</time></trkpt><trkpt lat="44.75461625273525" lon="9.871091719109971"><ele>529.0</ele><time>2026-04-19T08:15:29Z</time></trkpt><trkpt lat="44.754587211452275" lon="9.871011149727781"><ele>529.0</ele><time>2026-04-19T08:15:30Z</time></trkpt><trkpt lat="44.754542019699464" lon="9.870922538105663"><ele>528.0</ele><time>2026-04-19T08:15:31Z</time></trkpt><trkpt lat="44.7544902821535" lon="9.870796586732954"><ele>527.0</ele><time>2026-04-19T08:15:33Z</time></trkpt><trkpt lat="44.75440339196807" lon="9.870729777050189"><ele>526.0</ele><time>2026-04-19T08:15:35Z</time></trkpt><trkpt lat="44.75432129919945" lon="9.870622255689891"><ele>525.0</ele><time>2026-04-19T08:15:37Z</time></trkpt><trkpt lat="44.754288507681956" lon="9.870515276192553"><ele>524.0</ele><time>2026-04-19T08:15:39Z</time></trkpt><trkpt lat="44.754301532280174" lon="9.870401118971603"><ele>522.8571428571429</ele><time>2026-04-19T08:15:41Z</time></trkpt><trkpt lat="44.7542993459896" lon="9.870288303470282"><ele>521.7142857142858</ele><time>2026-04-19T08:15:44Z</time></trkpt><trkpt lat="44.754310174025086" lon="9.870183981273742"><ele>520.5714285714286</ele><time>2026-04-19T08:15:56Z</time></trkpt><trkpt lat="44.75433184175932" lon="9.870099843469823"><ele>519.4285714285714</ele><time>2026-04-19T08:16:00Z</time></trkpt><trkpt lat="44.754357119054944" lon="9.870016097833107"><ele>518.2857142857142</ele><time>2026-04-19T08:16:04Z</time></trkpt><trkpt lat="44.754382028134685" lon="9.86991875694164"><ele>517.1428571428571</ele><time>2026-04-19T08:16:08Z</time></trkpt><trkpt lat="44.75439127898683" lon="9.869817051197355"><ele>516.0</ele><time>2026-04-19T08:16:11Z</time></trkpt><trkpt lat="44.75436632151246" lon="9.8696680209172"><ele>515.1666666666666</ele><time>2026-04-19T08:16:14Z</time></trkpt><trkpt lat="44.75435695128282" lon="9.869576409289419"><ele>514.3333333333334</ele><time>2026-04-19T08:16:15Z</time></trkpt><trkpt lat="44.75433710257058" lon="9.8694431529368"><ele>513.5</ele><time>2026-04-19T08:16:17Z</time></trkpt><trkpt lat="44.754371083373805" lon="9.869363916661413"><ele>512.6666666666667</ele><time>2026-04-19T08:16:19Z</time></trkpt><trkpt lat="44.75440925902596" lon="9.869237577182803"><ele>511.83333333333337</ele><time>2026-04-19T08:16:21Z</time></trkpt><trkpt lat="44.754381460368386" lon="9.869116910739724"><ele>511.0</ele><time>2026-04-19T08:16:23Z</time></trkpt><trkpt lat="44.75429172781026" lon="9.869039531422635"><ele>518.4</ele><time>2026-04-19T08:16:25Z</time></trkpt><trkpt lat="44.75423841751586" lon="9.86894694618998"><ele>525.8</ele><time>2026-04-19T08:16:26Z</time></trkpt><trkpt lat="44.75421503171923" lon="9.86885914862791"><ele>533.1999999999999</ele><time>2026-04-19T08:16:27Z</time></trkpt><trkpt lat="44.75417562598651" lon="9.868690488046987"><ele>540.6</ele><time>2026-04-19T08:16:29Z</time></trkpt><trkpt lat="44.75414121594229" lon="9.868538528187646"><ele>548.0</ele><time>2026-04-19T08:16:31Z</time></trkpt><trkpt lat="44.7541039554809" lon="9.86843684615093"><ele>548.0</ele><time>2026-04-19T08:16:32Z</time></trkpt><trkpt lat="44.75407666357937" lon="9.868356646696343"><ele>548.0</ele><time>2026-04-19T08:16:33Z</time></trkpt><trkpt lat="44.75403944899392" lon="9.868267885626508"><ele>548.0</ele><time>2026-04-19T08:16:35Z</time></trkpt><trkpt lat="44.75409471385901" lon="9.868125389828466"><ele>548.0</ele><time>2026-04-19T08:16:38Z</time></trkpt><trkpt lat="44.75409782423866" lon="9.867998970654146"><ele>548.0</ele><time>2026-04-19T08:16:40Z</time></trkpt><trkpt lat="44.75411315810779" lon="9.867851660995914"><ele>548.0</ele><time>2026-04-19T08:16:41Z</time></trkpt><trkpt lat="44.754132925554" lon="9.867757677498473"><ele>548.0</ele><time>2026-04-19T08:16:42Z</time></trkpt><trkpt lat="44.75413700387217" lon="9.867668057241287"><ele>548.0</ele><time>2026-04-19T08:16:43Z</time></trkpt><trkpt lat="44.75410803625532" lon="9.86755500727533"><ele>548.0</ele><time>2026-04-19T08:16:46Z</time></trkpt><trkpt lat="44.754084918328175" lon="9.867437969048808"><ele>548.0</ele><time>2026-04-19T08:16:48Z</time></trkpt><trkpt lat="44.75403797756374" lon="9.86736358835991"><ele>548.0</ele><time>2026-04-19T08:16:50Z</time></trkpt><trkpt lat="44.75395693464088" lon="9.867278226213983"><ele>548.0</ele><time>2026-04-19T08:16:54Z</time></trkpt><trkpt lat="44.753865887523965" lon="9.867299997413598"><ele>548.1666666666666</ele><time>2026-04-19T08:16:56Z</time></trkpt><trkpt lat="44.75379317600646" lon="9.867346217664137"><ele>548.3333333333333</ele><time>2026-04-19T08:16:59Z</time></trkpt><trkpt lat="44.753709150491936" lon="9.867375477978342"><ele>548.5</ele><time>2026-04-19T08:17:02Z</time></trkpt><trkpt lat="44.75361677587645" lon="9.867365177969477"><ele>548.6666666666666</ele><time>2026-04-19T08:17:04Z</time></trkpt><trkpt lat="44.75355254390888" lon="9.867385070923392"><ele>548.8333333333334</ele><time>2026-04-19T08:17:06Z</time></trkpt><trkpt lat="44.753478881277374" lon="9.867421877943265"><ele>549.0</ele><time>2026-04-19T08:17:08Z</time></trkpt><trkpt lat="44.753368957108385" lon="9.867437826137932"><ele>551.8</ele><time>2026-04-19T08:17:10Z</time></trkpt><trkpt lat="44.75327679654894" lon="9.867433241490557"><ele>554.5999999999999</ele><time>2026-04-19T08:17:12Z</time></trkpt><trkpt lat="44.75320634404555" lon="9.867431017495297"><ele>557.4</ele><time>2026-04-19T08:17:14Z</time></trkpt><trkpt lat="44.753063808073435" lon="9.867414136673833"><ele>560.1999999999999</ele><time>2026-04-19T08:17:16Z</time></trkpt><trkpt lat="44.75300088959425" lon="9.867400256794886"><ele>563.0</ele><time>2026-04-19T08:17:17Z</time></trkpt><trkpt lat="44.75289079187465" lon="9.8673645753902"><ele>563.0</ele><time>2026-04-19T08:17:19Z</time></trkpt><trkpt lat="44.75280205678053" lon="9.867285810527799"><ele>563.0</ele><time>2026-04-19T08:17:21Z</time></trkpt><trkpt lat="44.752735135119764" lon="9.867165830186645"><ele>563.0</ele><time>2026-04-19T08:17:23Z</time></trkpt><trkpt lat="44.75268412421718" lon="9.867041219188783"><ele>563.0</ele><time>2026-04-19T08:17:26Z</time></trkpt><trkpt lat="44.75264729831865" lon="9.866951031467538"><ele>563.0</ele><time>2026-04-19T08:17:27Z</time></trkpt><trkpt lat="44.75258269796744" lon="9.866798712353988"><ele>560.6666666666666</ele><time>2026-04-19T08:17:29Z</time></trkpt><trkpt lat="44.752548159410914" lon="9.866709311607076"><ele>558.3333333333333</ele><time>2026-04-19T08:17:30Z</time></trkpt><trkpt lat="44.752507857658124" lon="9.866608941114874"><ele>556.0</ele><time>2026-04-19T08:17:31Z</time></trkpt><trkpt lat="44.75247067525179" lon="9.866520117759139"><ele>553.6666666666666</ele><time>2026-04-19T08:17:32Z</time></trkpt><trkpt lat="44.752429103118246" lon="9.866428146773833"><ele>551.3333333333334</ele><time>2026-04-19T08:17:33Z</time></trkpt><trkpt lat="44.752387902823074" lon="9.866338075243743"><ele>549.0</ele><time>2026-04-19T08:17:34Z</time></trkpt><trkpt lat="44.75232729222113" lon="9.866236422359723"><ele>549.0</ele><time>2026-04-19T08:17:35Z</time></trkpt><trkpt lat="44.7522810424263" lon="9.866150345022286"><ele>549.0</ele><time>2026-04-19T08:17:36Z</time></trkpt><trkpt lat="44.75224124665953" lon="9.866081273246019"><ele>549.0</ele><time>2026-04-19T08:17:37Z</time></trkpt><trkpt lat="44.75219418116375" lon="9.866009372800239"><ele>549.0</ele><time>2026-04-19T08:17:38Z</time></trkpt><trkpt lat="44.75214874459438" lon="9.865941870934474"><ele>549.0</ele><time>2026-04-19T08:17:39Z</time></trkpt><trkpt lat="44.75209725721509" lon="9.865858553903292"><ele>549.0</ele><time>2026-04-19T08:17:40Z</time></trkpt><trkpt lat="44.752034795278924" lon="9.865754267805253"><ele>547.6</ele><time>2026-04-19T08:17:41Z</time></trkpt><trkpt lat="44.751948719403075" lon="9.865694906361778"><ele>546.2</ele><time>2026-04-19T08:17:43Z</time></trkpt><trkpt lat="44.75183123915662" lon="9.865674304285777"><ele>544.8000000000001</ele><time>2026-04-19T08:17:45Z</time></trkpt><trkpt lat="44.75171035582137" lon="9.865666968611194"><ele>543.4</ele><time>2026-04-19T08:17:47Z</time></trkpt><trkpt lat="44.75162814331572" lon="9.865625375803967"><ele>542.0</ele><time>2026-04-19T08:17:49Z</time></trkpt><trkpt lat="44.75155722732074" lon="9.865553557626896"><ele>542.0</ele><time>2026-04-19T08:17:51Z</time></trkpt><trkpt lat="44.75145116799321" lon="9.86548227894763"><ele>542.0</ele><time>2026-04-19T08:17:53Z</time></trkpt><trkpt lat="44.75135660267554" lon="9.865407281611514"><ele>542.0</ele><time>2026-04-19T08:17:55Z</time></trkpt><trkpt lat="44.75132461067559" lon="9.865324747182045"><ele>542.0</ele><time>2026-04-19T08:17:57Z</time></trkpt><trkpt lat="44.75135064274494" lon="9.865222919656196"><ele>542.0</ele><time>2026-04-19T08:17:59Z</time></trkpt><trkpt lat="44.75139523725315" lon="9.865158396315158"><ele>542.0</ele><time>2026-04-19T08:18:12Z</time></trkpt><trkpt lat="44.75144090020842" lon="9.865060563898563"><ele>540.8333333333333</ele><time>2026-04-19T08:18:15Z</time></trkpt><trkpt lat="44.75151923344404" lon="9.864942159895705"><ele>539.6666666666666</ele><time>2026-04-19T08:18:17Z</time></trkpt><trkpt lat="44.751566923058164" lon="9.864854948207084"><ele>538.5</ele><time>2026-04-19T08:18:18Z</time></trkpt><trkpt lat="44.75158106247884" lon="9.864768295732393"><ele>537.3333333333334</ele><time>2026-04-19T08:18:19Z</time></trkpt><trkpt lat="44.75157202213508" lon="9.864645311737997"><ele>536.1666666666667</ele><time>2026-04-19T08:18:20Z</time></trkpt><trkpt lat="44.75154894575333" lon="9.864513495659605"><ele>535.0</ele><time>2026-04-19T08:18:21Z</time></trkpt><trkpt lat="44.751524198952616" lon="9.864408660686195"><ele>534.0</ele><time>2026-04-19T08:18:22Z</time></trkpt><trkpt lat="44.75152712490862" lon="9.864247949070883"><ele>533.0</ele><time>2026-04-19T08:18:24Z</time></trkpt><trkpt lat="44.7515959709937" lon="9.864121393761133"><ele>532.0</ele><time>2026-04-19T08:18:26Z</time></trkpt><trkpt lat="44.751672255590556" lon="9.864023234767128"><ele>531.0</ele><time>2026-04-19T08:18:28Z</time></trkpt><trkpt lat="44.751770999092834" lon="9.863967122428924"><ele>530.0</ele><time>2026-04-19T08:18:30Z</time></trkpt><trkpt lat="44.751841118818724" lon="9.86383190312211"><ele>530.0</ele><time>2026-04-19T08:18:32Z</time></trkpt><trkpt lat="44.75186092134753" lon="9.863664622487146"><ele>530.0</ele><time>2026-04-19T08:18:34Z</time></trkpt><trkpt lat="44.75184262498541" lon="9.86355591855344"><ele>530.0</ele><time>2026-04-19T08:18:36Z</time></trkpt><trkpt lat="44.75184658875255" lon="9.863419405592087"><ele>530.0</ele><time>2026-04-19T08:18:38Z</time></trkpt><trkpt lat="44.75193595954475" lon="9.863323009317062"><ele>530.0</ele><time>2026-04-19T08:18:40Z</time></trkpt><trkpt lat="44.75199471521675" lon="9.863203810423405"><ele>524.8333333333333</ele><time>2026-04-19T08:18:42Z</time></trkpt><trkpt lat="44.75200210852033" lon="9.86309088568445"><ele>519.6666666666666</ele><time>2026-04-19T08:18:43Z</time></trkpt><trkpt lat="44.75197953081245" lon="9.86297501834799"><ele>514.5</ele><time>2026-04-19T08:18:44Z</time></trkpt><trkpt lat="44.751966179674525" lon="9.862858054066677"><ele>509.33333333333337</ele><time>2026-04-19T08:18:45Z</time></trkpt><trkpt lat="44.75194624072467" lon="9.86275088575159"><ele>504.1666666666667</ele><time>2026-04-19T08:18:46Z</time></trkpt><trkpt lat="44.751933361306456" lon="9.862649820314337"><ele>499.0</ele><time>2026-04-19T08:18:47Z</time></trkpt><trkpt lat="44.75190215475738" lon="9.862552315271538"><ele>498.0</ele><time>2026-04-19T08:18:49Z</time></trkpt><trkpt lat="44.75187112673911" lon="9.862404630896124"><ele>497.0</ele><time>2026-04-19T08:18:52Z</time></trkpt><trkpt lat="44.75186556824595" lon="9.862248704399184"><ele>496.0</ele><time>2026-04-19T08:18:54Z</time></trkpt><trkpt lat="44.75190162518828" lon="9.862157033642406"><ele>495.0</ele><time>2026-04-19T08:18:56Z</time></trkpt><trkpt lat="44.75196051189909" lon="9.862027367084377"><ele>494.0</ele><time>2026-04-19T08:18:58Z</time></trkpt><trkpt lat="44.75204221913158" lon="9.861927471396596"><ele>493.99999999999994</ele><time>2026-04-19T08:19:00Z</time></trkpt><trkpt lat="44.75213602908456" lon="9.861848247353809"><ele>494.0</ele><time>2026-04-19T08:19:02Z</time></trkpt><trkpt lat="44.75220752562744" lon="9.861766069214811"><ele>494.0</ele><time>2026-04-19T08:19:04Z</time></trkpt><trkpt lat="44.752240778631275" lon="9.861678857554542"><ele>494.0</ele><time>2026-04-19T08:19:06Z</time></trkpt><trkpt lat="44.75232596175741" lon="9.86163537989045"><ele>493.99999999999994</ele><time>2026-04-19T08:19:08Z</time></trkpt><trkpt lat="44.752392529184604" lon="9.861614143837594"><ele>494.0</ele><time>2026-04-19T08:19:10Z</time></trkpt><trkpt lat="44.752461551596866" lon="9.86153934890279"><ele>492.0</ele><time>2026-04-19T08:19:24Z</time></trkpt><trkpt lat="44.752532064319546" lon="9.861453854125738"><ele>490.0</ele><time>2026-04-19T08:19:27Z</time></trkpt><trkpt lat="44.75259254315928" lon="9.861401121586017"><ele>488.0</ele><time>2026-04-19T08:19:29Z</time></trkpt><trkpt lat="44.75248174832361" lon="9.86139936967599"><ele>486.0</ele><time>2026-04-19T08:21:03Z</time></trkpt><trkpt lat="44.75238036755846" lon="9.861474286395053"><ele>484.0</ele><time>2026-04-19T08:21:04Z</time></trkpt><trkpt lat="44.7523028204485" lon="9.86152286854654"><ele>484.00000000000006</ele><time>2026-04-19T08:21:05Z</time></trkpt><trkpt lat="44.75223781015229" lon="9.861531887138732"><ele>484.0</ele><time>2026-04-19T08:21:06Z</time></trkpt><trkpt lat="44.75216555488385" lon="9.861530700890524"><ele>484.0</ele><time>2026-04-19T08:21:07Z</time></trkpt><trkpt lat="44.752075107042494" lon="9.861527796232632"><ele>484.0</ele><time>2026-04-19T08:21:08Z</time></trkpt><trkpt lat="44.75199174852273" lon="9.861526974285676"><ele>484.00000000000006</ele><time>2026-04-19T08:21:09Z</time></trkpt><trkpt lat="44.7519245835286" lon="9.861533815841048"><ele>484.0</ele><time>2026-04-19T08:21:10Z</time></trkpt><trkpt lat="44.75180934420946" lon="9.861543391043924"><ele>487.2</ele><time>2026-04-19T08:21:12Z</time></trkpt><trkpt lat="44.751711509098975" lon="9.861541511322478"><ele>490.4</ele><time>2026-04-19T08:21:14Z</time></trkpt><trkpt lat="44.75164942306601" lon="9.861398282782273"><ele>493.6</ele><time>2026-04-19T08:21:16Z</time></trkpt><trkpt lat="44.751646566962506" lon="9.861272862904434"><ele>496.8</ele><time>2026-04-19T08:21:17Z</time></trkpt><trkpt lat="44.75164844674851" lon="9.861162092725678"><ele>500.0</ele><time>2026-04-19T08:21:18Z</time></trkpt><trkpt lat="44.751666580335396" lon="9.861046313354768"><ele>497.2</ele><time>2026-04-19T08:21:19Z</time></trkpt><trkpt lat="44.75170810699164" lon="9.860924370335358"><ele>494.4</ele><time>2026-04-19T08:21:20Z</time></trkpt><trkpt lat="44.751740352368884" lon="9.860831951090587"><ele>491.6</ele><time>2026-04-19T08:21:21Z</time></trkpt><trkpt lat="44.751810218902875" lon="9.860722389278907"><ele>488.8</ele><time>2026-04-19T08:21:23Z</time></trkpt><trkpt lat="44.7518307305302" lon="9.860601130166856"><ele>486.0</ele><time>2026-04-19T08:21:25Z</time></trkpt><trkpt lat="44.75179757558645" lon="9.860448856616319"><ele>486.0</ele><time>2026-04-19T08:21:27Z</time></trkpt><trkpt lat="44.75177877254624" lon="9.860356871602129"><ele>486.0</ele><time>2026-04-19T08:21:28Z</time></trkpt><trkpt lat="44.75175335494779" lon="9.860251441065165"><ele>486.0</ele><time>2026-04-19T08:21:29Z</time></trkpt><trkpt lat="44.75172909497019" lon="9.86015113604723"><ele>486.0</ele><time>2026-04-19T08:21:30Z</time></trkpt><trkpt lat="44.75169569547365" lon="9.860054608986419"><ele>486.0</ele><time>2026-04-19T08:21:31Z</time></trkpt><trkpt lat="44.751646857078256" lon="9.859957506749993"><ele>486.0</ele><time>2026-04-19T08:21:32Z</time></trkpt><trkpt lat="44.75159648239475" lon="9.859865231878894"><ele>483.4</ele><time>2026-04-19T08:21:33Z</time></trkpt><trkpt lat="44.75154594930712" lon="9.859794156639587"><ele>480.8</ele><time>2026-04-19T08:21:34Z</time></trkpt><trkpt lat="44.75145999926362" lon="9.859643208351168"><ele>478.19999999999993</ele><time>2026-04-19T08:21:36Z</time></trkpt><trkpt lat="44.751427266718146" lon="9.85954031707991"><ele>475.59999999999997</ele><time>2026-04-19T08:21:37Z</time></trkpt><trkpt lat="44.751369897180645" lon="9.859411036036278"><ele>473.0</ele><time>2026-04-19T08:21:38Z</time></trkpt><trkpt lat="44.751324365334696" lon="9.85927224567268"><ele>469.4</ele><time>2026-04-19T08:21:39Z</time></trkpt><trkpt lat="44.751292786549094" lon="9.859175957151873"><ele>465.79999999999995</ele><time>2026-04-19T08:21:40Z</time></trkpt><trkpt lat="44.75127607775488" lon="9.859054134133078"><ele>462.2</ele><time>2026-04-19T08:21:42Z</time></trkpt><trkpt lat="44.751313727616996" lon="9.858925961130552"><ele>458.6</ele><time>2026-04-19T08:21:44Z</time></trkpt><trkpt lat="44.75132826077123" lon="9.858825309726635"><ele>455.0</ele><time>2026-04-19T08:21:45Z</time></trkpt><trkpt lat="44.751364413997656" lon="9.858649806033256"><ele>455.0</ele><time>2026-04-19T08:21:47Z</time></trkpt><trkpt lat="44.751382143279606" lon="9.85856446945873"><ele>455.0</ele><time>2026-04-19T08:21:48Z</time></trkpt><trkpt lat="44.75139348853922" lon="9.858452624931106"><ele>455.0</ele><time>2026-04-19T08:21:49Z</time></trkpt><trkpt lat="44.75143526665815" lon="9.858357028956657"><ele>455.0</ele><time>2026-04-19T08:21:50Z</time></trkpt><trkpt lat="44.75149277798459" lon="9.85828616629908"><ele>455.0</ele><time>2026-04-19T08:21:51Z</time></trkpt><trkpt lat="44.75154600889353" lon="9.85822888632481"><ele>455.0</ele><time>2026-04-19T08:21:52Z</time></trkpt><trkpt lat="44.751595849406314" lon="9.85816623088096"><ele>455.0</ele><time>2026-04-19T08:21:53Z</time></trkpt><trkpt lat="44.75164627628449" lon="9.858013465070314"><ele>455.49999999999994</ele><time>2026-04-19T08:21:55Z</time></trkpt><trkpt lat="44.751696676490404" lon="9.857923482868244"><ele>456.0</ele><time>2026-04-19T08:21:56Z</time></trkpt><trkpt lat="44.75174836444529" lon="9.857852529890723"><ele>456.5</ele><time>2026-04-19T08:21:57Z</time></trkpt><trkpt lat="44.7518139510755" lon="9.857792957821735"><ele>457.0</ele><time>2026-04-19T08:21:58Z</time></trkpt><trkpt lat="44.751879984461105" lon="9.857734388640687"><ele>457.49999999999994</ele><time>2026-04-19T08:21:59Z</time></trkpt><trkpt lat="44.75193790185114" lon="9.857670897480428"><ele>458.0</ele><time>2026-04-19T08:22:00Z</time></trkpt><trkpt lat="44.751974034543636" lon="9.857579979378698"><ele>452.99999999999994</ele><time>2026-04-19T08:22:01Z</time></trkpt><trkpt lat="44.751998135093686" lon="9.857481316235633"><ele>448.0</ele><time>2026-04-19T08:22:02Z</time></trkpt><trkpt lat="44.75198516097379" lon="9.85733915943607"><ele>443.0</ele><time>2026-04-19T08:22:04Z</time></trkpt><trkpt lat="44.75196885427245" lon="9.857232087210978"><ele>438.0</ele><time>2026-04-19T08:22:05Z</time></trkpt><trkpt lat="44.751939411027436" lon="9.85713500334489"><ele>432.99999999999994</ele><time>2026-04-19T08:22:06Z</time></trkpt><trkpt lat="44.751898519077216" lon="9.857022595500716"><ele>428.0</ele><time>2026-04-19T08:22:07Z</time></trkpt><trkpt lat="44.751886095810534" lon="9.856904738804788"><ele>431.66666666666663</ele><time>2026-04-19T08:22:08Z</time></trkpt><trkpt lat="44.7518607137273" lon="9.856810801976353"><ele>435.3333333333333</ele><time>2026-04-19T08:22:09Z</time></trkpt><trkpt lat="44.75180071011588" lon="9.856678512920475"><ele>439.0</ele><time>2026-04-19T08:22:11Z</time></trkpt><trkpt lat="44.75175276058115" lon="9.856601219449816"><ele>442.66666666666663</ele><time>2026-04-19T08:22:12Z</time></trkpt><trkpt lat="44.751695278254076" lon="9.856527331053531"><ele>446.3333333333333</ele><time>2026-04-19T08:22:13Z</time></trkpt><trkpt lat="44.751641972012074" lon="9.856470283131591"><ele>450.0</ele><time>2026-04-19T08:22:14Z</time></trkpt><trkpt lat="44.751586387826364" lon="9.856407089835416"><ele>450.0</ele><time>2026-04-19T08:22:15Z</time></trkpt><trkpt lat="44.751532681939544" lon="9.85632243996195"><ele>450.0</ele><time>2026-04-19T08:22:16Z</time></trkpt><trkpt lat="44.75148895892841" lon="9.85622408094831"><ele>450.0</ele><time>2026-04-19T08:22:17Z</time></trkpt><trkpt lat="44.75145474925939" lon="9.856139998469878"><ele>450.0</ele><time>2026-04-19T08:22:18Z</time></trkpt><trkpt lat="44.75141774795835" lon="9.85604685603117"><ele>450.0</ele><time>2026-04-19T08:22:19Z</time></trkpt><trkpt lat="44.75138256721772" lon="9.855936343354038"><ele>450.0</ele><time>2026-04-19T08:22:20Z</time></trkpt><trkpt lat="44.75133876808908" lon="9.855812974384504"><ele>451.8333333333333</ele><time>2026-04-19T08:22:21Z</time></trkpt><trkpt lat="44.751296957793386" lon="9.855741024668387"><ele>453.66666666666663</ele><time>2026-04-19T08:22:22Z</time></trkpt><trkpt lat="44.751231943096975" lon="9.855689420233473"><ele>455.5</ele><time>2026-04-19T08:22:23Z</time></trkpt><trkpt lat="44.75116266603307" lon="9.855650050172574"><ele>457.3333333333333</ele><time>2026-04-19T08:22:24Z</time></trkpt><trkpt lat="44.75110591828027" lon="9.855591781534214"><ele>459.16666666666663</ele><time>2026-04-19T08:22:25Z</time></trkpt><trkpt lat="44.75107418986459" lon="9.8555105959247"><ele>461.0</ele><time>2026-04-19T08:22:26Z</time></trkpt><trkpt lat="44.75100907493158" lon="9.855385547600248"><ele>460.99999999999994</ele><time>2026-04-19T08:22:28Z</time></trkpt><trkpt lat="44.7509721130818" lon="9.855285362559687"><ele>461.0</ele><time>2026-04-19T08:22:29Z</time></trkpt><trkpt lat="44.75097262244483" lon="9.85514937874887"><ele>461.0</ele><time>2026-04-19T08:22:31Z</time></trkpt><trkpt lat="44.7509992882426" lon="9.855040265791528"><ele>461.0</ele><time>2026-04-19T08:22:32Z</time></trkpt><trkpt lat="44.75103097533844" lon="9.854927810219234"><ele>460.99999999999994</ele><time>2026-04-19T08:22:33Z</time></trkpt><trkpt lat="44.75104031062398" lon="9.854836990196276"><ele>461.0</ele><time>2026-04-19T08:22:34Z</time></trkpt><trkpt lat="44.75105755923857" lon="9.8546989858379"><ele>450.20000000000005</ele><time>2026-04-19T08:22:36Z</time></trkpt><trkpt lat="44.751061841718425" lon="9.854603172455782"><ele>439.40000000000003</ele><time>2026-04-19T08:22:37Z</time></trkpt><trkpt lat="44.75107085923962" lon="9.854479205009405"><ele>428.6</ele><time>2026-04-19T08:22:38Z</time></trkpt><trkpt lat="44.75106968783594" lon="9.854331692853387"><ele>417.8</ele><time>2026-04-19T08:22:40Z</time></trkpt><trkpt lat="44.751068674875405" lon="9.854152807724759"><ele>407.0</ele><time>2026-04-19T08:22:42Z</time></trkpt><trkpt lat="44.751045362342325" lon="9.854055364396169"><ele>408.49999999999994</ele><time>2026-04-19T08:22:43Z</time></trkpt><trkpt lat="44.75102026964328" lon="9.853956799188785"><ele>410.0</ele><time>2026-04-19T08:22:44Z</time></trkpt><trkpt lat="44.75099574174675" lon="9.85385955340992"><ele>411.5</ele><time>2026-04-19T08:22:45Z</time></trkpt><trkpt lat="44.75096936497769" lon="9.8537542824261"><ele>413.0</ele><time>2026-04-19T08:22:46Z</time></trkpt><trkpt lat="44.75094463893531" lon="9.853644652721465"><ele>414.49999999999994</ele><time>2026-04-19T08:22:47Z</time></trkpt><trkpt lat="44.750926498262075" lon="9.853559452633448"><ele>416.0</ele><time>2026-04-19T08:22:48Z</time></trkpt><trkpt lat="44.75088750753653" lon="9.853413483312591"><ele>416.0</ele><time>2026-04-19T08:22:50Z</time></trkpt><trkpt lat="44.750817725493825" lon="9.853248184348777"><ele>416.0</ele><time>2026-04-19T08:22:52Z</time></trkpt><trkpt lat="44.750759949243495" lon="9.853128144089673"><ele>416.0</ele><time>2026-04-19T08:22:54Z</time></trkpt><trkpt lat="44.75076106929224" lon="9.853036900011205"><ele>416.0</ele><time>2026-04-19T08:22:56Z</time></trkpt><trkpt lat="44.75084350960332" lon="9.85295503382806"><ele>416.0</ele><time>2026-04-19T08:22:58Z</time></trkpt><trkpt lat="44.75095139876127" lon="9.85288880462173"><ele>412.66666666666663</ele><time>2026-04-19T08:23:00Z</time></trkpt><trkpt lat="44.75104101210295" lon="9.852845642126644"><ele>409.3333333333333</ele><time>2026-04-19T08:23:01Z</time></trkpt><trkpt lat="44.75111671342156" lon="9.852799056942898"><ele>406.0</ele><time>2026-04-19T08:23:02Z</time></trkpt><trkpt lat="44.75117961027428" lon="9.852744436610765"><ele>402.66666666666663</ele><time>2026-04-19T08:23:03Z</time></trkpt><trkpt lat="44.7512391771767" lon="9.852677128340408"><ele>399.3333333333333</ele><time>2026-04-19T08:23:04Z</time></trkpt><trkpt lat="44.75130306593771" lon="9.852600833199624"><ele>396.0</ele><time>2026-04-19T08:23:05Z</time></trkpt><trkpt lat="44.75134185454996" lon="9.852519357153593"><ele>395.6666666666667</ele><time>2026-04-19T08:23:06Z</time></trkpt><trkpt lat="44.751348665379965" lon="9.852420773749053"><ele>395.33333333333337</ele><time>2026-04-19T08:23:07Z</time></trkpt><trkpt lat="44.75135707511477" lon="9.852329249011227"><ele>395.0</ele><time>2026-04-19T08:23:08Z</time></trkpt><trkpt lat="44.75139636831389" lon="9.85223735503133"><ele>394.6666666666667</ele><time>2026-04-19T08:23:10Z</time></trkpt><trkpt lat="44.7514563524245" lon="9.85228572803058"><ele>394.33333333333337</ele><time>2026-04-19T08:23:12Z</time></trkpt><trkpt lat="44.751458599574924" lon="9.852426931009699"><ele>394.0</ele><time>2026-04-19T08:23:14Z</time></trkpt><trkpt lat="44.75144861954261" lon="9.852557008794555"><ele>394.4</ele><time>2026-04-19T08:23:15Z</time></trkpt><trkpt lat="44.75144093365045" lon="9.852700346858487"><ele>394.79999999999995</ele><time>2026-04-19T08:23:16Z</time></trkpt><trkpt lat="44.75143291134256" lon="9.852858507719395"><ele>395.20000000000005</ele><time>2026-04-19T08:23:17Z</time></trkpt><trkpt lat="44.751428561624344" lon="9.85300801900203"><ele>395.6</ele><time>2026-04-19T08:23:18Z</time></trkpt><trkpt lat="44.75144451965217" lon="9.85313980990082"><ele>396.0</ele><time>2026-04-19T08:23:19Z</time></trkpt><trkpt lat="44.75148084263185" lon="9.853250538728886"><ele>396.0</ele><time>2026-04-19T08:23:20Z</time></trkpt><trkpt lat="44.7515318508753" lon="9.853347512916777"><ele>396.0</ele><time>2026-04-19T08:23:21Z</time></trkpt><trkpt lat="44.751587136255836" lon="9.853442473190194"><ele>396.0</ele><time>2026-04-19T08:23:22Z</time></trkpt><trkpt lat="44.75165465087399" lon="9.853550542143486"><ele>396.0</ele><time>2026-04-19T08:23:23Z</time></trkpt><trkpt lat="44.75171660607592" lon="9.853657734088632"><ele>396.0</ele><time>2026-04-19T08:23:24Z</time></trkpt><trkpt lat="44.75177210693197" lon="9.853743481780707"><ele>397.4</ele><time>2026-04-19T08:23:25Z</time></trkpt><trkpt lat="44.75185217712092" lon="9.853801615496739"><ele>398.8</ele><time>2026-04-19T08:23:27Z</time></trkpt><trkpt lat="44.75194957078612" lon="9.853687507787601"><ele>400.2</ele><time>2026-04-19T08:23:29Z</time></trkpt><trkpt lat="44.75199363812694" lon="9.853594681615423"><ele>401.59999999999997</ele><time>2026-04-19T08:23:30Z</time></trkpt><trkpt lat="44.75206290868332" lon="9.853570609956535"><ele>403.0</ele><time>2026-04-19T08:23:32Z</time></trkpt><trkpt lat="44.752116046349606" lon="9.853693459933043"><ele>397.0</ele><time>2026-04-19T08:23:34Z</time></trkpt><trkpt lat="44.752121258147" lon="9.853807363274852"><ele>391.0</ele><time>2026-04-19T08:23:35Z</time></trkpt><trkpt lat="44.75212868669635" lon="9.853944489253564"><ele>385.0</ele><time>2026-04-19T08:23:36Z</time></trkpt><trkpt lat="44.75213563186279" lon="9.85409762867077"><ele>379.0</ele><time>2026-04-19T08:23:37Z</time></trkpt><trkpt lat="44.75215298260743" lon="9.854231591570977"><ele>373.0</ele><time>2026-04-19T08:23:38Z</time></trkpt><trkpt lat="44.75216963130842" lon="9.854357381931214"><ele>372.59999999999997</ele><time>2026-04-19T08:23:39Z</time></trkpt><trkpt lat="44.752182275645524" lon="9.854483763781346"><ele>372.2</ele><time>2026-04-19T08:23:40Z</time></trkpt><trkpt lat="44.752201567513445" lon="9.85460690527653"><ele>371.8</ele><time>2026-04-19T08:23:41Z</time></trkpt><trkpt lat="44.752216483044" lon="9.854745248092067"><ele>371.4</ele><time>2026-04-19T08:23:42Z</time></trkpt><trkpt lat="44.75224365521341" lon="9.85488797114401"><ele>371.0</ele><time>2026-04-19T08:23:43Z</time></trkpt><trkpt lat="44.75227187517271" lon="9.855019723838256"><ele>373.6</ele><time>2026-04-19T08:23:44Z</time></trkpt><trkpt lat="44.75229001677742" lon="9.855146802173868"><ele>376.20000000000005</ele><time>2026-04-19T08:23:45Z</time></trkpt><trkpt lat="44.75230763238293" lon="9.855271621841458"><ele>378.79999999999995</ele><time>2026-04-19T08:23:46Z</time></trkpt><trkpt lat="44.752333015562634" lon="9.855392955327012"><ele>381.4</ele><time>2026-04-19T08:23:47Z</time></trkpt><trkpt lat="44.752367773862126" lon="9.855506715688787"><ele>384.0</ele><time>2026-04-19T08:23:48Z</time></trkpt><trkpt lat="44.75241032182725" lon="9.855621042004033"><ele>384.0</ele><time>2026-04-19T08:23:49Z</time></trkpt><trkpt lat="44.752477082452664" lon="9.855745258856924"><ele>384.0</ele><time>2026-04-19T08:23:50Z</time></trkpt><trkpt lat="44.752550033400624" lon="9.855838750510294"><ele>384.0</ele><time>2026-04-19T08:23:51Z</time></trkpt><trkpt lat="44.75263719966557" lon="9.855926360982378"><ele>384.0</ele><time>2026-04-19T08:23:52Z</time></trkpt><trkpt lat="44.75272488007614" lon="9.85598358510843"><ele>384.0</ele><time>2026-04-19T08:23:53Z</time></trkpt><trkpt lat="44.75282191238926" lon="9.856034840836816"><ele>381.79999999999995</ele><time>2026-04-19T08:23:54Z</time></trkpt><trkpt lat="44.75292416047991" lon="9.85608534826831"><ele>379.59999999999997</ele><time>2026-04-19T08:23:55Z</time></trkpt><trkpt lat="44.75301729081736" lon="9.856156556065562"><ele>377.4</ele><time>2026-04-19T08:23:56Z</time></trkpt><trkpt lat="44.753105473998325" lon="9.856230663160373"><ele>375.2</ele><time>2026-04-19T08:23:57Z</time></trkpt><trkpt lat="44.75319551426311" lon="9.856303570690395"><ele>373.0</ele><time>2026-04-19T08:23:58Z</time></trkpt><trkpt lat="44.753275210368315" lon="9.856370915469375"><ele>373.0</ele><time>2026-04-19T08:23:59Z</time></trkpt><trkpt lat="44.75333961210131" lon="9.85644018508959"><ele>373.0</ele><time>2026-04-19T08:24:00Z</time></trkpt><trkpt lat="44.75340992427539" lon="9.856467712818661"><ele>373.0</ele><time>2026-04-19T08:24:02Z</time></trkpt><trkpt lat="44.753497870798284" lon="9.856347379963767"><ele>373.0</ele><time>2026-04-19T08:24:04Z</time></trkpt><trkpt lat="44.753554205385576" lon="9.856236575087179"><ele>373.0</ele><time>2026-04-19T08:24:06Z</time></trkpt><trkpt lat="44.7535840440076" lon="9.856134566841604"><ele>373.0</ele><time>2026-04-19T08:24:09Z</time></trkpt><trkpt lat="44.753541521009595" lon="9.856052473501391"><ele>373.0</ele><time>2026-04-19T08:24:10Z</time></trkpt><trkpt lat="44.75348192186224" lon="9.855968605797532"><ele>373.0</ele><time>2026-04-19T08:24:11Z</time></trkpt><trkpt lat="44.753434139579724" lon="9.855870303204668"><ele>373.0</ele><time>2026-04-19T08:24:12Z</time></trkpt><trkpt lat="44.75338191411633" lon="9.85579133103693"><ele>373.0</ele><time>2026-04-19T08:24:13Z</time></trkpt><trkpt lat="44.75332878468128" lon="9.855698612892892"><ele>373.0</ele><time>2026-04-19T08:24:14Z</time></trkpt><trkpt lat="44.75327321345589" lon="9.85559393288277"><ele>373.2</ele><time>2026-04-19T08:24:15Z</time></trkpt><trkpt lat="44.75320842595798" lon="9.855473934931682"><ele>373.4</ele><time>2026-04-19T08:24:16Z</time></trkpt><trkpt lat="44.75313494596988" lon="9.8553659844816"><ele>373.59999999999997</ele><time>2026-04-19T08:24:17Z</time></trkpt><trkpt lat="44.75306803908266" lon="9.85529848586145"><ele>373.79999999999995</ele><time>2026-04-19T08:24:18Z</time></trkpt><trkpt lat="44.75301415696834" lon="9.855207909954848"><ele>374.0</ele><time>2026-04-19T08:24:20Z</time></trkpt><trkpt lat="44.753089781613774" lon="9.855099541983604"><ele>374.0</ele><time>2026-04-19T08:24:22Z</time></trkpt><trkpt lat="44.753170832565246" lon="9.855094091571473"><ele>374.0</ele><time>2026-04-19T08:24:23Z</time></trkpt><trkpt lat="44.753271657193906" lon="9.85512541156684"><ele>374.0</ele><time>2026-04-19T08:24:24Z</time></trkpt><trkpt lat="44.753387271183975" lon="9.855162862171799"><ele>374.0</ele><time>2026-04-19T08:24:25Z</time></trkpt><trkpt lat="44.753507771611865" lon="9.855186077957557"><ele>374.0</ele><time>2026-04-19T08:24:26Z</time></trkpt><trkpt lat="44.75357801489319" lon="9.855255304092303"><ele>375.4</ele><time>2026-04-19T08:24:27Z</time></trkpt><trkpt lat="44.75363761642475" lon="9.855364039984115"><ele>376.79999999999995</ele><time>2026-04-19T08:24:28Z</time></trkpt><trkpt lat="44.7536868672852" lon="9.855471113927113"><ele>378.20000000000005</ele><time>2026-04-19T08:24:29Z</time></trkpt><trkpt lat="44.75376084040979" lon="9.855539785337063"><ele>379.6</ele><time>2026-04-19T08:24:30Z</time></trkpt><trkpt lat="44.75386944919769" lon="9.855578725979852"><ele>381.0</ele><time>2026-04-19T08:24:31Z</time></trkpt><trkpt lat="44.75398628156583" lon="9.855586832452897"><ele>381.0</ele><time>2026-04-19T08:24:32Z</time></trkpt><trkpt lat="44.75408716238775" lon="9.855587432418352"><ele>381.0</ele><time>2026-04-19T08:24:33Z</time></trkpt><trkpt lat="44.754185661098596" lon="9.855625311692684"><ele>381.0</ele><time>2026-04-19T08:24:34Z</time></trkpt><trkpt lat="44.75428343653396" lon="9.8556846518944"><ele>381.0</ele><time>2026-04-19T08:24:35Z</time></trkpt><trkpt lat="44.75436611889327" lon="9.855720791673905"><ele>381.0</ele><time>2026-04-19T08:24:36Z</time></trkpt><trkpt lat="44.75444863097237" lon="9.855739871428225"><ele>382.5</ele><time>2026-04-19T08:24:37Z</time></trkpt><trkpt lat="44.75452610550221" lon="9.855745717609627"><ele>384.0</ele><time>2026-04-19T08:24:38Z</time></trkpt><trkpt lat="44.75459018854828" lon="9.855733428718068"><ele>385.5</ele><time>2026-04-19T08:24:39Z</time></trkpt><trkpt lat="44.75466556354954" lon="9.855700786612651"><ele>387.0</ele><time>2026-04-19T08:24:40Z</time></trkpt><trkpt lat="44.75475325179009" lon="9.855643494661798"><ele>388.5</ele><time>2026-04-19T08:24:41Z</time></trkpt><trkpt lat="44.75485695017308" lon="9.85557496807942"><ele>390.0</ele><time>2026-04-19T08:24:42Z</time></trkpt><trkpt lat="44.75497409278878" lon="9.855514158133085"><ele>390.0</ele><time>2026-04-19T08:24:43Z</time></trkpt><trkpt lat="44.75506317176787" lon="9.855447004123254"><ele>390.0</ele><time>2026-04-19T08:24:44Z</time></trkpt><trkpt lat="44.75513727987431" lon="9.855339579452146"><ele>390.0</ele><time>2026-04-19T08:24:45Z</time></trkpt><trkpt lat="44.75522217490995" lon="9.85519842446384"><ele>390.0</ele><time>2026-04-19T08:24:46Z</time></trkpt><trkpt lat="44.75531811007871" lon="9.855080390713045"><ele>394.0</ele><time>2026-04-19T08:24:47Z</time></trkpt><trkpt lat="44.755416114899404" lon="9.854983466238943"><ele>398.0</ele><time>2026-04-19T08:24:48Z</time></trkpt><trkpt lat="44.75550759242687" lon="9.854902320009993"><ele>402.0</ele><time>2026-04-19T08:24:49Z</time></trkpt><trkpt lat="44.75559140099624" lon="9.854854337951624"><ele>406.0</ele><time>2026-04-19T08:24:50Z</time></trkpt><trkpt lat="44.75567259809747" lon="9.854843783950468"><ele>410.0</ele><time>2026-04-19T08:24:51Z</time></trkpt><trkpt lat="44.75575026287651" lon="9.854869019992035"><ele>410.0</ele><time>2026-04-19T08:24:52Z</time></trkpt><trkpt lat="44.75582829620113" lon="9.854951037421614"><ele>410.0</ele><time>2026-04-19T08:24:53Z</time></trkpt><trkpt lat="44.75591335566617" lon="9.855061332266352"><ele>410.0</ele><time>2026-04-19T08:24:54Z</time></trkpt><trkpt lat="44.756008603956154" lon="9.855202110780436"><ele>410.0</ele><time>2026-04-19T08:24:55Z</time></trkpt><trkpt lat="44.7560881565907" lon="9.855361590713834"><ele>411.2</ele><time>2026-04-19T08:24:56Z</time></trkpt><trkpt lat="44.75613973161101" lon="9.855505472149085"><ele>412.4</ele><time>2026-04-19T08:24:57Z</time></trkpt><trkpt lat="44.75618645396461" lon="9.855629989534476"><ele>413.6</ele><time>2026-04-19T08:24:58Z</time></trkpt><trkpt lat="44.75623803140915" lon="9.855752788959794"><ele>414.8</ele><time>2026-04-19T08:24:59Z</time></trkpt><trkpt lat="44.756278319229594" lon="9.855871004809876"><ele>416.0</ele><time>2026-04-19T08:25:00Z</time></trkpt><trkpt lat="44.756329303319696" lon="9.85597502248792"><ele>412.25</ele><time>2026-04-19T08:25:01Z</time></trkpt><trkpt lat="44.75641038117242" lon="9.856081428786787"><ele>408.5</ele><time>2026-04-19T08:25:02Z</time></trkpt><trkpt lat="44.756513575148404" lon="9.856188951541684"><ele>404.75</ele><time>2026-04-19T08:25:03Z</time></trkpt><trkpt lat="44.75661831312602" lon="9.856290445125337"><ele>401.0</ele><time>2026-04-19T08:25:04Z</time></trkpt><trkpt lat="44.75671123066193" lon="9.856359020850457"><ele>400.99999999999994</ele><time>2026-04-19T08:25:05Z</time></trkpt><trkpt lat="44.7567947109552" lon="9.856390934834767"><ele>401.0</ele><time>2026-04-19T08:25:06Z</time></trkpt><trkpt lat="44.75687380753235" lon="9.856391611661929"><ele>401.0</ele><time>2026-04-19T08:25:07Z</time></trkpt><trkpt lat="44.75694329466276" lon="9.856366966649755"><ele>401.0</ele><time>2026-04-19T08:25:08Z</time></trkpt><trkpt lat="44.757009060699914" lon="9.85631768331448"><ele>400.99999999999994</ele><time>2026-04-19T08:25:09Z</time></trkpt><trkpt lat="44.75708501719878" lon="9.856227971273995"><ele>401.0</ele><time>2026-04-19T08:25:10Z</time></trkpt><trkpt lat="44.757173572788865" lon="9.856138515147281"><ele>400.66666666666663</ele><time>2026-04-19T08:25:11Z</time></trkpt><trkpt lat="44.75724333200314" lon="9.856041328736103"><ele>400.3333333333333</ele><time>2026-04-19T08:25:12Z</time></trkpt><trkpt lat="44.75730433973644" lon="9.855962983995573"><ele>400.0</ele><time>2026-04-19T08:25:13Z</time></trkpt><trkpt lat="44.7573575504657" lon="9.855889226611373"><ele>399.66666666666663</ele><time>2026-04-19T08:25:14Z</time></trkpt><trkpt lat="44.75740862551246" lon="9.855819954368165"><ele>399.3333333333333</ele><time>2026-04-19T08:25:15Z</time></trkpt><trkpt lat="44.75746945246014" lon="9.855748184827217"><ele>399.0</ele><time>2026-04-19T08:25:16Z</time></trkpt><trkpt lat="44.757538600861444" lon="9.855659429120575"><ele>401.0</ele><time>2026-04-19T08:25:17Z</time></trkpt><trkpt lat="44.757605238131205" lon="9.855559828982596"><ele>403.0</ele><time>2026-04-19T08:25:18Z</time></trkpt><trkpt lat="44.757664476863305" lon="9.855446107755398"><ele>405.0</ele><time>2026-04-19T08:25:19Z</time></trkpt><trkpt lat="44.757716121195976" lon="9.855321918484684"><ele>407.0</ele><time>2026-04-19T08:25:20Z</time></trkpt><trkpt lat="44.757759439014755" lon="9.855187412120237"><ele>409.0</ele><time>2026-04-19T08:25:21Z</time></trkpt><trkpt lat="44.757799730903066" lon="9.85503238055547"><ele>414.0</ele><time>2026-04-19T08:25:22Z</time></trkpt><trkpt lat="44.75784976583591" lon="9.854862670715972"><ele>419.0</ele><time>2026-04-19T08:25:23Z</time></trkpt><trkpt lat="44.75789043237692" lon="9.854717583378621"><ele>424.0</ele><time>2026-04-19T08:25:24Z</time></trkpt><trkpt lat="44.757922558563656" lon="9.854607824528644"><ele>429.0</ele><time>2026-04-19T08:25:25Z</time></trkpt><trkpt lat="44.757993955216776" lon="9.854510971151438"><ele>434.0</ele><time>2026-04-19T08:25:27Z</time></trkpt><trkpt lat="44.75809171493299" lon="9.854565321745481"><ele>434.0</ele><time>2026-04-19T08:25:29Z</time></trkpt><trkpt lat="44.758124897068974" lon="9.854669914307204"><ele>434.0</ele><time>2026-04-19T08:25:30Z</time></trkpt><trkpt lat="44.75814011189264" lon="9.85480897031774"><ele>434.0</ele><time>2026-04-19T08:25:31Z</time></trkpt><trkpt lat="44.75814322801439" lon="9.854987083968426"><ele>434.0</ele><time>2026-04-19T08:25:32Z</time></trkpt><trkpt lat="44.75814661286995" lon="9.85521241210607"><ele>431.0</ele><time>2026-04-19T08:25:33Z</time></trkpt><trkpt lat="44.758160409889996" lon="9.855418481348929"><ele>428.0</ele><time>2026-04-19T08:25:34Z</time></trkpt><trkpt lat="44.75817869707697" lon="9.855614914661466"><ele>425.0</ele><time>2026-04-19T08:25:35Z</time></trkpt><trkpt lat="44.75819166980073" lon="9.855767844145221"><ele>422.0</ele><time>2026-04-19T08:25:36Z</time></trkpt><trkpt lat="44.758211601056786" lon="9.855875978046592"><ele>421.2857142857143</ele><time>2026-04-19T08:25:37Z</time></trkpt><trkpt lat="44.75824528861586" lon="9.85596386193794"><ele>420.57142857142856</ele><time>2026-04-19T08:25:38Z</time></trkpt><trkpt lat="44.75830181217638" lon="9.856031028887319"><ele>419.8571428571429</ele><time>2026-04-19T08:25:39Z</time></trkpt><trkpt lat="44.75836191056355" lon="9.856095479140068"><ele>419.1428571428571</ele><time>2026-04-19T08:25:40Z</time></trkpt><trkpt lat="44.75842476037278" lon="9.856125975878411"><ele>418.4285714285714</ele><time>2026-04-19T08:25:41Z</time></trkpt><trkpt lat="44.758487040687406" lon="9.856163571649155"><ele>417.7142857142857</ele><time>2026-04-19T08:25:42Z</time></trkpt><trkpt lat="44.758541441077725" lon="9.856226078776253"><ele>417.0</ele><time>2026-04-19T08:25:43Z</time></trkpt><trkpt lat="44.75856664529149" lon="9.856309178616508"><ele>417.0</ele><time>2026-04-19T08:25:44Z</time></trkpt><trkpt lat="44.75856694305069" lon="9.856398146045795"><ele>417.0</ele><time>2026-04-19T08:25:45Z</time></trkpt><trkpt lat="44.758488231357205" lon="9.856543047263534"><ele>417.0</ele><time>2026-04-19T08:25:47Z</time></trkpt><trkpt lat="44.7584111815934" lon="9.856623658008452"><ele>417.0</ele><time>2026-04-19T08:25:48Z</time></trkpt><trkpt lat="44.75833884594352" lon="9.856721235384958"><ele>417.0</ele><time>2026-04-19T08:25:49Z</time></trkpt><trkpt lat="44.758312028007126" lon="9.856839358475202"><ele>418.40000000000003</ele><time>2026-04-19T08:25:50Z</time></trkpt><trkpt lat="44.75829103944827" lon="9.856952449583495"><ele>419.8</ele><time>2026-04-19T08:25:51Z</time></trkpt><trkpt lat="44.75826587856195" lon="9.857082375491373"><ele>421.2</ele><time>2026-04-19T08:25:52Z</time></trkpt><trkpt lat="44.75823796284164" lon="9.857221665290371"><ele>422.6</ele><time>2026-04-19T08:25:53Z</time></trkpt><trkpt lat="44.758212878510456" lon="9.857368140755217"><ele>424.0</ele><time>2026-04-19T08:25:54Z</time></trkpt><trkpt lat="44.75819216247332" lon="9.857522426824424"><ele>423.4</ele><time>2026-04-19T08:25:55Z</time></trkpt><trkpt lat="44.7581712544157" lon="9.85767666226504"><ele>422.79999999999995</ele><time>2026-04-19T08:25:56Z</time></trkpt><trkpt lat="44.758157041273826" lon="9.85782240800367"><ele>422.20000000000005</ele><time>2026-04-19T08:25:56.999Z</time></trkpt><trkpt lat="44.75815410403192" lon="9.857943984667507"><ele>421.6</ele><time>2026-04-19T08:25:57.999Z</time></trkpt><trkpt lat="44.758160534474335" lon="9.858066905195438"><ele>421.0</ele><time>2026-04-19T08:25:58.999Z</time></trkpt><trkpt lat="44.75816908711111" lon="9.85818497284272"><ele>421.00000000000006</ele><time>2026-04-19T08:26:00Z</time></trkpt><trkpt lat="44.75819525698441" lon="9.85827350172409"><ele>421.0</ele><time>2026-04-19T08:26:01Z</time></trkpt><trkpt lat="44.758245778914485" lon="9.858344665578615"><ele>421.0</ele><time>2026-04-19T08:26:02Z</time></trkpt><trkpt lat="44.758326792393504" lon="9.858421223207571"><ele>421.0</ele><time>2026-04-19T08:26:04Z</time></trkpt><trkpt lat="44.75839645311919" lon="9.858386894393528"><ele>421.00000000000006</ele><time>2026-04-19T08:26:08Z</time></trkpt><trkpt lat="44.75836423399329" lon="9.858245870375676"><ele>421.0</ele><time>2026-04-19T08:26:11Z</time></trkpt><trkpt lat="44.75837789099375" lon="9.85813665155638"><ele>421.0</ele><time>2026-04-19T08:26:13Z</time></trkpt><trkpt lat="44.75842749111668" lon="9.85807079732882"><ele>421.0</ele><time>2026-04-19T08:26:14Z</time></trkpt><trkpt lat="44.758500340244744" lon="9.858045032082007"><ele>421.0</ele><time>2026-04-19T08:26:17Z</time></trkpt><trkpt lat="44.758595935903344" lon="9.858117638375884"><ele>421.0</ele><time>2026-04-19T08:26:19Z</time></trkpt><trkpt lat="44.75868291557723" lon="9.858144166913183"><ele>421.0</ele><time>2026-04-19T08:26:21Z</time></trkpt><trkpt lat="44.75880093490332" lon="9.858151204466017"><ele>424.6666666666667</ele><time>2026-04-19T08:26:23Z</time></trkpt><trkpt lat="44.7588974059461" lon="9.858204268385887"><ele>428.33333333333337</ele><time>2026-04-19T08:26:25Z</time></trkpt><trkpt lat="44.75895270295249" lon="9.85826092358746"><ele>432.0</ele><time>2026-04-19T08:26:26Z</time></trkpt><trkpt lat="44.759028240870954" lon="9.858263853752616"><ele>435.66666666666663</ele><time>2026-04-19T08:26:28Z</time></trkpt><trkpt lat="44.75910176005266" lon="9.85821910098946"><ele>439.3333333333333</ele><time>2026-04-19T08:26:30Z</time></trkpt><trkpt lat="44.75916309465107" lon="9.85815619419325"><ele>443.0</ele><time>2026-04-19T08:26:32Z</time></trkpt><trkpt lat="44.7592107431547" lon="9.858096251794171"><ele>443.0</ele><time>2026-04-19T08:26:33Z</time></trkpt><trkpt lat="44.75932814744153" lon="9.858057515438855"><ele>442.99999999999994</ele><time>2026-04-19T08:26:35Z</time></trkpt><trkpt lat="44.75944588231055" lon="9.858062551555852"><ele>442.99999999999994</ele><time>2026-04-19T08:26:37Z</time></trkpt><trkpt lat="44.759510864853745" lon="9.858039591183463"><ele>443.0</ele><time>2026-04-19T08:26:38Z</time></trkpt><trkpt lat="44.75957943939503" lon="9.857985850481308"><ele>443.0</ele><time>2026-04-19T08:26:39Z</time></trkpt><trkpt lat="44.75964756876632" lon="9.857917723266448"><ele>445.66666666666663</ele><time>2026-04-19T08:26:40Z</time></trkpt><trkpt lat="44.75971806581972" lon="9.857849071186868"><ele>448.3333333333333</ele><time>2026-04-19T08:26:41Z</time></trkpt><trkpt lat="44.75979118872427" lon="9.857795225856632"><ele>451.0</ele><time>2026-04-19T08:26:42Z</time></trkpt><trkpt lat="44.759857773283905" lon="9.85773932684935"><ele>453.66666666666663</ele><time>2026-04-19T08:26:43Z</time></trkpt><trkpt lat="44.759923645799375" lon="9.857695213324385"><ele>456.3333333333333</ele><time>2026-04-19T08:26:44Z</time></trkpt><trkpt lat="44.75999034115693" lon="9.857661283031403"><ele>459.0</ele><time>2026-04-19T08:26:45Z</time></trkpt><trkpt lat="44.760056815995426" lon="9.85763394242994"><ele>459.0</ele><time>2026-04-19T08:26:47Z</time></trkpt><trkpt lat="44.76013950013085" lon="9.857628627090335"><ele>459.0</ele><time>2026-04-19T08:26:49Z</time></trkpt><trkpt lat="44.76024692525722" lon="9.857557400146922"><ele>459.0</ele><time>2026-04-19T08:26:51Z</time></trkpt><trkpt lat="44.76035550920933" lon="9.857518749166411"><ele>459.0</ele><time>2026-04-19T08:26:53Z</time></trkpt><trkpt lat="44.76046197526372" lon="9.85747354302301"><ele>459.0</ele><time>2026-04-19T08:26:55Z</time></trkpt><trkpt lat="44.760565861249624" lon="9.857380718667427"><ele>465.4</ele><time>2026-04-19T08:26:57Z</time></trkpt><trkpt lat="44.76061717808664" lon="9.857305065369102"><ele>471.79999999999995</ele><time>2026-04-19T08:26:58Z</time></trkpt><trkpt lat="44.760693047144905" lon="9.85722491104338"><ele>478.20000000000005</ele><time>2026-04-19T08:27:00Z</time></trkpt><trkpt lat="44.760754555348534" lon="9.857124450012973"><ele>484.6</ele><time>2026-04-19T08:27:01Z</time></trkpt><trkpt lat="44.76081154909754" lon="9.857062641569911"><ele>491.0</ele><time>2026-04-19T08:27:02Z</time></trkpt><trkpt lat="44.760925402095616" lon="9.856988445163571"><ele>490.99999999999994</ele><time>2026-04-19T08:27:04Z</time></trkpt><trkpt lat="44.760990411401345" lon="9.856942778481175"><ele>491.0</ele><time>2026-04-19T08:27:05Z</time></trkpt><trkpt lat="44.761031677983645" lon="9.856858784775484"><ele>491.0</ele><time>2026-04-19T08:27:06Z</time></trkpt><trkpt lat="44.76108142331897" lon="9.856746282085343"><ele>491.0</ele><time>2026-04-19T08:27:07Z</time></trkpt><trkpt lat="44.76113909348977" lon="9.85668347025925"><ele>490.99999999999994</ele><time>2026-04-19T08:27:08Z</time></trkpt><trkpt lat="44.76121427129278" lon="9.856607906928113"><ele>491.0</ele><time>2026-04-19T08:27:10Z</time></trkpt><trkpt lat="44.76126058098805" lon="9.856518949946427"><ele>495.20000000000005</ele><time>2026-04-19T08:27:11Z</time></trkpt><trkpt lat="44.76130473999246" lon="9.856405098396698"><ele>499.40000000000003</ele><time>2026-04-19T08:27:13Z</time></trkpt><trkpt lat="44.76135359221101" lon="9.856274976503265"><ele>503.6</ele><time>2026-04-19T08:27:16Z</time></trkpt><trkpt lat="44.7614219144233" lon="9.856239068241752"><ele>507.8</ele><time>2026-04-19T08:27:18Z</time></trkpt><trkpt lat="44.76149179709613" lon="9.85619085269871"><ele>512.0</ele><time>2026-04-19T08:27:20Z</time></trkpt><trkpt lat="44.761599307807224" lon="9.856243112278618"><ele>512.0</ele><time>2026-04-19T08:27:22Z</time></trkpt><trkpt lat="44.76170890590828" lon="9.856237456490904"><ele>512.0</ele><time>2026-04-19T08:27:24Z</time></trkpt><trkpt lat="44.76179448048187" lon="9.856125463176307"><ele>512.0</ele><time>2026-04-19T08:27:26Z</time></trkpt><trkpt lat="44.76186109014296" lon="9.856011932908809"><ele>512.0</ele><time>2026-04-19T08:27:27Z</time></trkpt><trkpt lat="44.761935739617726" lon="9.855935366823768"><ele>512.0</ele><time>2026-04-19T08:27:28Z</time></trkpt><trkpt lat="44.762001507808684" lon="9.855887998997957"><ele>516.8333333333333</ele><time>2026-04-19T08:27:29Z</time></trkpt><trkpt lat="44.76207775395043" lon="9.855807078662915"><ele>521.6666666666666</ele><time>2026-04-19T08:27:31Z</time></trkpt><trkpt lat="44.762141480773934" lon="9.855722097356589"><ele>526.5</ele><time>2026-04-19T08:27:32Z</time></trkpt><trkpt lat="44.762212309184385" lon="9.855646058502057"><ele>531.3333333333334</ele><time>2026-04-19T08:27:33Z</time></trkpt><trkpt lat="44.762296313594206" lon="9.855566246209628"><ele>536.1666666666667</ele><time>2026-04-19T08:27:35Z</time></trkpt><trkpt lat="44.76236255166764" lon="9.855519648719758"><ele>541.0</ele><time>2026-04-19T08:27:36Z</time></trkpt><trkpt lat="44.76244071158168" lon="9.855466955294085"><ele>541.0000000000001</ele><time>2026-04-19T08:27:37Z</time></trkpt><trkpt lat="44.762509757841286" lon="9.855478607485644"><ele>541.0</ele><time>2026-04-19T08:27:38Z</time></trkpt><trkpt lat="44.76258520266587" lon="9.855524537008755"><ele>541.0</ele><time>2026-04-19T08:27:39Z</time></trkpt><trkpt lat="44.76263327961203" lon="9.855587462988451"><ele>541.0</ele><time>2026-04-19T08:27:40Z</time></trkpt><trkpt lat="44.76267867632291" lon="9.855653719603868"><ele>541.0</ele><time>2026-04-19T08:27:41Z</time></trkpt><trkpt lat="44.7627455674244" lon="9.855678872678226"><ele>541.0000000000001</ele><time>2026-04-19T08:27:42Z</time></trkpt><trkpt lat="44.76282314068196" lon="9.855658067973573"><ele>541.0</ele><time>2026-04-19T08:27:43Z</time></trkpt><trkpt lat="44.76293217034299" lon="9.855588157363453"><ele>541.3333333333334</ele><time>2026-04-19T08:27:45Z</time></trkpt><trkpt lat="44.76301362571091" lon="9.855589418921916"><ele>541.6666666666667</ele><time>2026-04-19T08:27:46Z</time></trkpt><trkpt lat="44.7630901633858" lon="9.855603210669372"><ele>542.0</ele><time>2026-04-19T08:27:47Z</time></trkpt><trkpt lat="44.76314915351737" lon="9.85551827132645"><ele>542.3333333333334</ele><time>2026-04-19T08:27:50Z</time></trkpt><trkpt lat="44.76316578128942" lon="9.855432033665005"><ele>542.6666666666666</ele><time>2026-04-19T08:27:51Z</time></trkpt><trkpt lat="44.76319227046673" lon="9.855334740402897"><ele>543.0</ele><time>2026-04-19T08:27:53Z</time></trkpt><trkpt lat="44.763191508974245" lon="9.855223323863902"><ele>546.3333333333334</ele><time>2026-04-19T08:28:10Z</time></trkpt><trkpt lat="44.763174458975" lon="9.85508700967579"><ele>549.6666666666666</ele><time>2026-04-19T08:28:12Z</time></trkpt><trkpt lat="44.763166536040224" lon="9.854952983351026"><ele>553.0</ele><time>2026-04-19T08:28:14Z</time></trkpt><trkpt lat="44.76320196105307" lon="9.854864780781554"><ele>556.3333333333333</ele><time>2026-04-19T08:28:18Z</time></trkpt><trkpt lat="44.76323576734544" lon="9.854750006013145"><ele>559.6666666666666</ele><time>2026-04-19T08:28:29Z</time></trkpt><trkpt lat="44.763301255900096" lon="9.854655970391423"><ele>563.0</ele><time>2026-04-19T08:28:33Z</time></trkpt><trkpt lat="44.763348606612226" lon="9.854565063909337"><ele>563.0</ele><time>2026-04-19T08:28:36Z</time></trkpt><trkpt lat="44.76336845070627" lon="9.854463848008924"><ele>563.0</ele><time>2026-04-19T08:28:38Z</time></trkpt><trkpt lat="44.76331333019125" lon="9.854390536380023"><ele>563.0</ele><time>2026-04-19T08:28:40Z</time></trkpt><trkpt lat="44.76326777398865" lon="9.85427884986922"><ele>563.0</ele><time>2026-04-19T08:28:42Z</time></trkpt><trkpt lat="44.76324830333115" lon="9.854187208705806"><ele>563.0</ele><time>2026-04-19T08:28:44Z</time></trkpt><trkpt lat="44.76322999356578" lon="9.85407812763537"><ele>563.0</ele><time>2026-04-19T08:28:47Z</time></trkpt><trkpt lat="44.763203583442085" lon="9.853985032333066"><ele>568.0</ele><time>2026-04-19T08:28:50Z</time></trkpt><trkpt lat="44.763189065303834" lon="9.853871878041032"><ele>573.0</ele><time>2026-04-19T08:28:53Z</time></trkpt><trkpt lat="44.76318030113946" lon="9.853783849828499"><ele>578.0</ele><time>2026-04-19T08:28:56Z</time></trkpt><trkpt lat="44.763166922975664" lon="9.853520076995393"><ele>583.0</ele><time>2026-04-19T08:28:59Z</time></trkpt><trkpt lat="44.76318179634317" lon="9.853412072001403"><ele>588.0</ele><time>2026-04-19T08:29:01Z</time></trkpt><trkpt lat="44.76323083568467" lon="9.853290000223812"><ele>592.3333333333334</ele><time>2026-04-19T08:29:03Z</time></trkpt><trkpt lat="44.763300745595444" lon="9.853155834014073"><ele>596.6666666666666</ele><time>2026-04-19T08:29:05Z</time></trkpt><trkpt lat="44.76334457736843" lon="9.853085429469148"><ele>601.0</ele><time>2026-04-19T08:29:06Z</time></trkpt><trkpt lat="44.76341830390333" lon="9.852966430237405"><ele>605.3333333333333</ele><time>2026-04-19T08:29:08Z</time></trkpt><trkpt lat="44.76343454225868" lon="9.852864570148245"><ele>609.6666666666666</ele><time>2026-04-19T08:29:11Z</time></trkpt><trkpt lat="44.76349552562118" lon="9.852888936871711"><ele>614.0</ele><time>2026-04-19T08:29:15Z</time></trkpt><trkpt lat="44.76363895877509" lon="9.852754576702095"><ele>614.5</ele><time>2026-04-19T08:29:18Z</time></trkpt><trkpt lat="44.76369537976928" lon="9.852671856411437"><ele>615.0</ele><time>2026-04-19T08:29:19Z</time></trkpt><trkpt lat="44.76375860724789" lon="9.852592416632454"><ele>615.5</ele><time>2026-04-19T08:29:20Z</time></trkpt><trkpt lat="44.76385087186682" lon="9.852572970691408"><ele>616.0</ele><time>2026-04-19T08:29:22Z</time></trkpt><trkpt lat="44.76396598686744" lon="9.852560462787546"><ele>616.5</ele><time>2026-04-19T08:29:24Z</time></trkpt><trkpt lat="44.763974644791695" lon="9.852471509734118"><ele>617.0</ele><time>2026-04-19T08:29:26Z</time></trkpt><trkpt lat="44.76397171660348" lon="9.852382742181106"><ele>619.4285714285714</ele><time>2026-04-19T08:29:28Z</time></trkpt><trkpt lat="44.763979373252006" lon="9.852293473759895"><ele>621.8571428571428</ele><time>2026-04-19T08:29:30Z</time></trkpt><trkpt lat="44.76392612150059" lon="9.852234377988943"><ele>624.2857142857142</ele><time>2026-04-19T08:29:32Z</time></trkpt><trkpt lat="44.763879671856735" lon="9.85212366015792"><ele>626.7142857142858</ele><time>2026-04-19T08:29:34Z</time></trkpt><trkpt lat="44.763905148947494" lon="9.852036369087434"><ele>629.1428571428571</ele><time>2026-04-19T08:29:36Z</time></trkpt><trkpt lat="44.76391608230057" lon="9.851929033653716"><ele>631.5714285714286</ele><time>2026-04-19T08:29:39Z</time></trkpt><trkpt lat="44.76393293217204" lon="9.851819144754923"><ele>634.0</ele><time>2026-04-19T08:29:42Z</time></trkpt><trkpt lat="44.76393138856774" lon="9.851726999924708"><ele>638.3333333333334</ele><time>2026-04-19T08:29:44Z</time></trkpt><trkpt lat="44.76386998450897" lon="9.851702287265814"><ele>642.6666666666667</ele><time>2026-04-19T08:29:46Z</time></trkpt><trkpt lat="44.76381385265908" lon="9.851594091534375"><ele>647.0</ele><time>2026-04-19T08:29:49Z</time></trkpt><trkpt lat="44.763793464192695" lon="9.851487937887246"><ele>651.3333333333334</ele><time>2026-04-19T08:29:51Z</time></trkpt><trkpt lat="44.76373163980544" lon="9.851439257730904"><ele>655.6666666666666</ele><time>2026-04-19T08:29:53Z</time></trkpt><trkpt lat="44.76365855827998" lon="9.851453302788304"><ele>660.0</ele><time>2026-04-19T08:29:55Z</time></trkpt><trkpt lat="44.763591921750674" lon="9.851500326060515"><ele>660.75</ele><time>2026-04-19T08:29:58Z</time></trkpt><trkpt lat="44.763527954422095" lon="9.851493441794002"><ele>661.5</ele><time>2026-04-19T08:30:00Z</time></trkpt><trkpt lat="44.76349095460169" lon="9.851568487767842"><ele>662.25</ele><time>2026-04-19T08:30:03Z</time></trkpt><trkpt lat="44.763261724921676" lon="9.85173034361379"><ele>663.0</ele><time>2026-04-19T08:30:05Z</time></trkpt><trkpt lat="44.763211094129325" lon="9.851827952073158"><ele>663.0</ele><time>2026-04-19T08:30:07Z</time></trkpt><trkpt lat="44.76312212975455" lon="9.851831357267963"><ele>663.0</ele><time>2026-04-19T08:30:09Z</time></trkpt><trkpt lat="44.76305028380627" lon="9.85176863584975"><ele>663.0</ele><time>2026-04-19T08:30:11Z</time></trkpt><trkpt lat="44.762983796146735" lon="9.851701005030277"><ele>663.0</ele><time>2026-04-19T08:30:13Z</time></trkpt><trkpt lat="44.76290681877029" lon="9.851583881982108"><ele>663.0</ele><time>2026-04-19T08:30:15Z</time></trkpt><trkpt lat="44.76285592163672" lon="9.851421070065905"><ele>663.0</ele><time>2026-04-19T08:30:17Z</time></trkpt><trkpt lat="44.762819014315404" lon="9.851271933993957"><ele>663.0</ele><time>2026-04-19T08:30:19Z</time></trkpt><trkpt lat="44.76279568507458" lon="9.851140420216765"><ele>663.0</ele><time>2026-04-19T08:30:21Z</time></trkpt><trkpt lat="44.762770997615476" lon="9.85098997973481"><ele>663.0</ele><time>2026-04-19T08:30:23Z</time></trkpt><trkpt lat="44.76275631863158" lon="9.85085163847983"><ele>663.0</ele><time>2026-04-19T08:30:26Z</time></trkpt><trkpt lat="44.762747740928496" lon="9.85073851022738"><ele>666.3333333333334</ele><time>2026-04-19T08:30:28Z</time></trkpt><trkpt lat="44.76269408230403" lon="9.85068345006106"><ele>669.6666666666666</ele><time>2026-04-19T08:30:30Z</time></trkpt><trkpt lat="44.76261246703077" lon="9.85061868277482"><ele>673.0</ele><time>2026-04-19T08:30:32Z</time></trkpt><trkpt lat="44.76254695377962" lon="9.85056132120479"><ele>676.3333333333333</ele><time>2026-04-19T08:30:34Z</time></trkpt><trkpt lat="44.76248930266277" lon="9.850464807485487"><ele>679.6666666666666</ele><time>2026-04-19T08:30:36Z</time></trkpt><trkpt lat="44.762439614476506" lon="9.850370269779468"><ele>683.0</ele><time>2026-04-19T08:30:41Z</time></trkpt><trkpt lat="44.76236902677469" lon="9.850335882556802"><ele>683.0</ele><time>2026-04-19T08:30:44Z</time></trkpt><trkpt lat="44.7622881960814" lon="9.850271491871457"><ele>683.0</ele><time>2026-04-19T08:30:47Z</time></trkpt><trkpt lat="44.76221039804471" lon="9.850269901930837"><ele>683.0</ele><time>2026-04-19T08:30:48Z</time></trkpt><trkpt lat="44.76211045752453" lon="9.850199192714479"><ele>683.0</ele><time>2026-04-19T08:30:49Z</time></trkpt><trkpt lat="44.76201397281074" lon="9.850162908708734"><ele>683.0</ele><time>2026-04-19T08:30:51Z</time></trkpt><trkpt lat="44.761962121933685" lon="9.850103523396728"><ele>683.0</ele><time>2026-04-19T08:30:53Z</time></trkpt><trkpt lat="44.76196105140369" lon="9.849999507375069"><ele>688.4</ele><time>2026-04-19T08:31:01Z</time></trkpt><trkpt lat="44.76193198023244" lon="9.849903162482688"><ele>693.8</ele><time>2026-04-19T08:31:02Z</time></trkpt><trkpt lat="44.76191763470494" lon="9.84973829567731"><ele>699.2</ele><time>2026-04-19T08:31:04Z</time></trkpt><trkpt lat="44.76192770403492" lon="9.849615346055707"><ele>704.6</ele><time>2026-04-19T08:31:06Z</time></trkpt><trkpt lat="44.76200788669928" lon="9.849525600296342"><ele>710.0</ele><time>2026-04-19T08:31:08Z</time></trkpt><trkpt lat="44.762050037647235" lon="9.849416931963178"><ele>712.5</ele><time>2026-04-19T08:31:10Z</time></trkpt><trkpt lat="44.76199843584742" lon="9.849241405674634"><ele>715.0</ele><time>2026-04-19T08:31:12Z</time></trkpt><trkpt lat="44.7620524242736" lon="9.849108543190006"><ele>717.5</ele><time>2026-04-19T08:31:14Z</time></trkpt><trkpt lat="44.76206187951005" lon="9.84901965380233"><ele>720.0</ele><time>2026-04-19T08:31:15Z</time></trkpt><trkpt lat="44.76202425763681" lon="9.848941958305165"><ele>722.5</ele><time>2026-04-19T08:31:18Z</time></trkpt><trkpt lat="44.761987227356805" lon="9.848862228910056"><ele>725.0</ele><time>2026-04-19T08:31:20Z</time></trkpt><trkpt lat="44.76183995621943" lon="9.848636200235953"><ele>725.0</ele><time>2026-04-19T08:31:22Z</time></trkpt><trkpt lat="44.7617846036389" lon="9.848572003276923"><ele>725.0</ele><time>2026-04-19T08:31:23Z</time></trkpt><trkpt lat="44.76173661495332" lon="9.848513612056564"><ele>725.0</ele><time>2026-04-19T08:31:24Z</time></trkpt><trkpt lat="44.76166682549165" lon="9.848411151188424"><ele>725.0</ele><time>2026-04-19T08:31:26Z</time></trkpt><trkpt lat="44.76161143105265" lon="9.848342103807598"><ele>725.0</ele><time>2026-04-19T08:31:29Z</time></trkpt><trkpt lat="44.76154935980236" lon="9.848265121155663"><ele>725.0</ele><time>2026-04-19T08:31:32Z</time></trkpt><trkpt lat="44.76150643209424" lon="9.848162608721607"><ele>727.6666666666666</ele><time>2026-04-19T08:31:35Z</time></trkpt><trkpt lat="44.76150967714034" lon="9.848027409202766"><ele>730.3333333333333</ele><time>2026-04-19T08:31:37Z</time></trkpt><trkpt lat="44.76158308657005" lon="9.848001072666825"><ele>733.0</ele><time>2026-04-19T08:31:39Z</time></trkpt><trkpt lat="44.76164652014652" lon="9.847894296976591"><ele>735.6666666666666</ele><time>2026-04-19T08:31:41Z</time></trkpt><trkpt lat="44.761692734027704" lon="9.847804095428094"><ele>738.3333333333334</ele><time>2026-04-19T08:31:42Z</time></trkpt><trkpt lat="44.76170522128009" lon="9.847716443250647"><ele>741.0</ele><time>2026-04-19T08:31:43Z</time></trkpt><trkpt lat="44.7617273765502" lon="9.847632520142632"><ele>741.3333333333334</ele><time>2026-04-19T08:31:44Z</time></trkpt><trkpt lat="44.761770070095736" lon="9.847497404530783"><ele>741.6666666666666</ele><time>2026-04-19T08:31:46Z</time></trkpt><trkpt lat="44.76182856959649" lon="9.847447349190407"><ele>742.0</ele><time>2026-04-19T08:31:48Z</time></trkpt><trkpt lat="44.761872613618124" lon="9.847376772659922"><ele>742.3333333333333</ele><time>2026-04-19T08:31:50Z</time></trkpt><trkpt lat="44.761974568488114" lon="9.847292274746533"><ele>742.6666666666666</ele><time>2026-04-19T08:32:40Z</time></trkpt><trkpt lat="44.762027458228395" lon="9.847233888395218"><ele>743.0</ele><time>2026-04-19T08:32:42Z</time></trkpt><trkpt lat="44.76206218595485" lon="9.847328920387316"><ele>748.5</ele><time>2026-04-19T08:32:44Z</time></trkpt><trkpt lat="44.762030383155015" lon="9.847446885845452"><ele>754.0</ele><time>2026-04-19T08:32:46Z</time></trkpt><trkpt lat="44.76201930679276" lon="9.847536346863912"><ele>759.5</ele><time>2026-04-19T08:32:48Z</time></trkpt><trkpt lat="44.76211070701618" lon="9.847526462786666"><ele>765.0</ele><time>2026-04-19T08:32:50Z</time></trkpt><trkpt lat="44.76217463316409" lon="9.847413619522014"><ele>770.5000000000001</ele><time>2026-04-19T08:32:52Z</time></trkpt><trkpt lat="44.76227541768305" lon="9.847400303545204"><ele>776.0</ele><time>2026-04-19T08:32:54Z</time></trkpt><trkpt lat="44.762341354957805" lon="9.847414445081158"><ele>776.0</ele><time>2026-04-19T08:32:55Z</time></trkpt><trkpt lat="44.762461015077996" lon="9.847362206440954"><ele>776.0</ele><time>2026-04-19T08:32:57Z</time></trkpt><trkpt lat="44.76256680952455" lon="9.847444913201352"><ele>776.0</ele><time>2026-04-19T08:32:59Z</time></trkpt><trkpt lat="44.76265944820329" lon="9.84747527178975"><ele>776.0</ele><time>2026-04-19T08:33:01Z</time></trkpt><trkpt lat="44.76272952406899" lon="9.847496290196993"><ele>776.0</ele><time>2026-04-19T08:37:43Z</time></trkpt><trkpt lat="44.762743799419916" lon="9.847408747226565"><ele>775.0</ele><time>2026-04-19T08:37:52Z</time></trkpt><trkpt lat="44.762780741377355" lon="9.84727276841395"><ele>774.0</ele><time>2026-04-19T08:37:56Z</time></trkpt><trkpt lat="44.76282303261213" lon="9.847184097392812"><ele>773.0</ele><time>2026-04-19T08:37:57Z</time></trkpt><trkpt lat="44.76286013956396" lon="9.847030445630242"><ele>772.0</ele><time>2026-04-19T08:37:59Z</time></trkpt><trkpt lat="44.762876893134404" lon="9.846927816850341"><ele>771.0</ele><time>2026-04-19T08:38:00Z</time></trkpt><trkpt lat="44.762888059863776" lon="9.846771443457495"><ele>771.0</ele><time>2026-04-19T08:38:02Z</time></trkpt><trkpt lat="44.762897730296494" lon="9.846644253463147"><ele>771.0</ele><time>2026-04-19T08:38:03Z</time></trkpt><trkpt lat="44.76288828302695" lon="9.846530058622466"><ele>771.0</ele><time>2026-04-19T08:38:04Z</time></trkpt><trkpt lat="44.76288687560774" lon="9.84643403494408"><ele>771.0</ele><time>2026-04-19T08:38:05Z</time></trkpt><trkpt lat="44.762888575282105" lon="9.846332214685788"><ele>771.0</ele><time>2026-04-19T08:38:06Z</time></trkpt><trkpt lat="44.76286763959613" lon="9.846198539756367"><ele>771.0</ele><time>2026-04-19T08:38:07Z</time></trkpt><trkpt lat="44.762847347836114" lon="9.846095690339348"><ele>771.0</ele><time>2026-04-19T08:38:08Z</time></trkpt><trkpt lat="44.762809664200155" lon="9.845978399709473"><ele>771.0</ele><time>2026-04-19T08:38:10Z</time></trkpt><trkpt lat="44.76278676740665" lon="9.845892859368993"><ele>771.0</ele><time>2026-04-19T08:38:13Z</time></trkpt><trkpt lat="44.76276272706462" lon="9.84580936373769"><ele>771.0</ele><time>2026-04-19T08:38:14Z</time></trkpt><trkpt lat="44.762727096710464" lon="9.84570385455357"><ele>771.0</ele><time>2026-04-19T08:38:15Z</time></trkpt><trkpt lat="44.76268678879746" lon="9.845601299699458"><ele>771.0</ele><time>2026-04-19T08:38:16Z</time></trkpt><trkpt lat="44.76264094860021" lon="9.84550359895639"><ele>771.0</ele><time>2026-04-19T08:38:17Z</time></trkpt><trkpt lat="44.76260751313027" lon="9.845416137422832"><ele>771.0</ele><time>2026-04-19T08:38:18Z</time></trkpt><trkpt lat="44.762568918225114" lon="9.845270572934583"><ele>771.0</ele><time>2026-04-19T08:38:20Z</time></trkpt><trkpt lat="44.76250130882349" lon="9.845164527405526"><ele>771.0</ele><time>2026-04-19T08:38:22Z</time></trkpt><trkpt lat="44.762439173926374" lon="9.845093281924667"><ele>771.0</ele><time>2026-04-19T08:38:24Z</time></trkpt><trkpt lat="44.762420011743735" lon="9.844977740806812"><ele>771.0</ele><time>2026-04-19T08:38:26Z</time></trkpt><trkpt lat="44.762434621283774" lon="9.844870531041252"><ele>772.6666666666666</ele><time>2026-04-19T08:38:27Z</time></trkpt><trkpt lat="44.76243018623659" lon="9.844768461434137"><ele>774.3333333333333</ele><time>2026-04-19T08:38:28Z</time></trkpt><trkpt lat="44.762422982228" lon="9.84462998263839"><ele>776.0</ele><time>2026-04-19T08:38:30Z</time></trkpt><trkpt lat="44.762398023704826" lon="9.844528606562955"><ele>777.6666666666666</ele><time>2026-04-19T08:38:35Z</time></trkpt><trkpt lat="44.76235281276489" lon="9.844432765649922"><ele>779.3333333333333</ele><time>2026-04-19T08:38:38Z</time></trkpt><trkpt lat="44.762313268776" lon="9.844326177358308"><ele>781.0</ele><time>2026-04-19T08:38:42Z</time></trkpt><trkpt lat="44.762245027357295" lon="9.844191736594135"><ele>781.3333333333333</ele><time>2026-04-19T08:38:44Z</time></trkpt><trkpt lat="44.76220587266104" lon="9.844117534355718"><ele>781.6666666666666</ele><time>2026-04-19T08:38:45Z</time></trkpt><trkpt lat="44.762152662090784" lon="9.843991681738807"><ele>782.0</ele><time>2026-04-19T08:38:47Z</time></trkpt><trkpt lat="44.762074756426074" lon="9.843901341199889"><ele>782.3333333333333</ele><time>2026-04-19T08:38:49Z</time></trkpt><trkpt lat="44.76201171111945" lon="9.84386615178233"><ele>782.6666666666666</ele><time>2026-04-19T08:38:50Z</time></trkpt><trkpt lat="44.76192982995381" lon="9.843819545608264"><ele>783.0</ele><time>2026-04-19T08:38:51Z</time></trkpt><trkpt lat="44.761859522789166" lon="9.843795948257611"><ele>784.6666666666666</ele><time>2026-04-19T08:38:52Z</time></trkpt><trkpt lat="44.76178143382595" lon="9.843757455228374"><ele>786.3333333333333</ele><time>2026-04-19T08:38:53Z</time></trkpt><trkpt lat="44.76171787315332" lon="9.843708741493272"><ele>788.0</ele><time>2026-04-19T08:38:54Z</time></trkpt><trkpt lat="44.761653159348576" lon="9.843619542557445"><ele>789.6666666666666</ele><time>2026-04-19T08:38:56Z</time></trkpt><trkpt lat="44.76159149705885" lon="9.843533972326666"><ele>791.3333333333333</ele><time>2026-04-19T08:38:58Z</time></trkpt><trkpt lat="44.76154623480513" lon="9.843441024729785"><ele>793.0</ele><time>2026-04-19T08:39:00Z</time></trkpt><trkpt lat="44.76151939559539" lon="9.843360746243974"><ele>793.0000000000001</ele><time>2026-04-19T08:39:02Z</time></trkpt><trkpt lat="44.76147864712395" lon="9.843260698312989"><ele>793.0</ele><time>2026-04-19T08:39:04Z</time></trkpt><trkpt lat="44.761443381875104" lon="9.843172313991941"><ele>793.0</ele><time>2026-04-19T08:39:06Z</time></trkpt><trkpt lat="44.76141733548296" lon="9.843081120124651"><ele>793.0</ele><time>2026-04-19T08:39:08Z</time></trkpt><trkpt lat="44.76139544492843" lon="9.842981798510694"><ele>793.0</ele><time>2026-04-19T08:39:10Z</time></trkpt><trkpt lat="44.76136904524647" lon="9.84288027294548"><ele>793.0000000000001</ele><time>2026-04-19T08:39:11Z</time></trkpt><trkpt lat="44.76135204360484" lon="9.842793123640153"><ele>793.0</ele><time>2026-04-19T08:39:12Z</time></trkpt><trkpt lat="44.761361473298486" lon="9.842653015293443"><ele>790.2</ele><time>2026-04-19T08:39:13Z</time></trkpt><trkpt lat="44.76137379058787" lon="9.842511745908515"><ele>787.4</ele><time>2026-04-19T08:39:15Z</time></trkpt><trkpt lat="44.76133380092976" lon="9.84236378039996"><ele>784.6</ele><time>2026-04-19T08:39:17Z</time></trkpt><trkpt lat="44.76129002524506" lon="9.842243804642962"><ele>781.8000000000001</ele><time>2026-04-19T08:39:19Z</time></trkpt><trkpt lat="44.76125186885675" lon="9.842158930427725"><ele>779.0</ele><time>2026-04-19T08:39:20Z</time></trkpt><trkpt lat="44.761191985901114" lon="9.842077172475367"><ele>779.0000000000001</ele><time>2026-04-19T08:39:21Z</time></trkpt><trkpt lat="44.761140390042236" lon="9.842008888345335"><ele>779.0</ele><time>2026-04-19T08:39:22Z</time></trkpt><trkpt lat="44.76107026407285" lon="9.841913347451346"><ele>779.0</ele><time>2026-04-19T08:39:24Z</time></trkpt><trkpt lat="44.76100504826147" lon="9.841881756264383"><ele>779.0</ele><time>2026-04-19T08:39:25Z</time></trkpt><trkpt lat="44.760899877745196" lon="9.841832860092275"><ele>779.0000000000001</ele><time>2026-04-19T08:39:27Z</time></trkpt><trkpt lat="44.76083625532786" lon="9.84178825102156"><ele>779.0</ele><time>2026-04-19T08:39:28Z</time></trkpt><trkpt lat="44.76076936341432" lon="9.841694932005774"><ele>780.8000000000001</ele><time>2026-04-19T08:39:30Z</time></trkpt><trkpt lat="44.76079340034807" lon="9.841574759073048"><ele>782.6</ele><time>2026-04-19T08:39:33Z</time></trkpt><trkpt lat="44.76079934678892" lon="9.841377292236686"><ele>784.4</ele><time>2026-04-19T08:39:35Z</time></trkpt><trkpt lat="44.760791432358296" lon="9.84126652118961"><ele>786.2</ele><time>2026-04-19T08:39:36Z</time></trkpt><trkpt lat="44.7607954604686" lon="9.841162974671757"><ele>788.0</ele><time>2026-04-19T08:39:37Z</time></trkpt><trkpt lat="44.760811400443764" lon="9.841058743916868"><ele>785.8</ele><time>2026-04-19T08:39:54Z</time></trkpt><trkpt lat="44.76075687292177" lon="9.840956449125999"><ele>783.5999999999999</ele><time>2026-04-19T08:39:57Z</time></trkpt><trkpt lat="44.76066773619216" lon="9.840905157851934"><ele>781.4000000000001</ele><time>2026-04-19T08:39:59Z</time></trkpt><trkpt lat="44.76058405077101" lon="9.840922478470036"><ele>779.2</ele><time>2026-04-19T08:40:01Z</time></trkpt><trkpt lat="44.76047107074077" lon="9.840920676935102"><ele>777.0</ele><time>2026-04-19T08:40:03Z</time></trkpt><trkpt lat="44.760355831630854" lon="9.84088505473011"><ele>777.0</ele><time>2026-04-19T08:40:05Z</time></trkpt><trkpt lat="44.76030145520646" lon="9.840828447056916"><ele>777.0</ele><time>2026-04-19T08:40:06Z</time></trkpt><trkpt lat="44.76025196583622" lon="9.840698556905908"><ele>777.0</ele><time>2026-04-19T08:40:08Z</time></trkpt><trkpt lat="44.7601654085641" lon="9.840642528651513"><ele>777.0</ele><time>2026-04-19T08:40:11Z</time></trkpt><trkpt lat="44.76009037346701" lon="9.840657489251283"><ele>777.0</ele><time>2026-04-19T08:40:12Z</time></trkpt><trkpt lat="44.76002423478173" lon="9.84066213982839"><ele>777.0</ele><time>2026-04-19T08:40:13Z</time></trkpt><trkpt lat="44.759922979977986" lon="9.840516102940674"><ele>777.4000000000001</ele><time>2026-04-19T08:40:16Z</time></trkpt><trkpt lat="44.75985185189732" lon="9.840370789852056"><ele>777.8000000000001</ele><time>2026-04-19T08:40:17Z</time></trkpt><trkpt lat="44.75978111761501" lon="9.840264436815414"><ele>778.2</ele><time>2026-04-19T08:40:18Z</time></trkpt><trkpt lat="44.759737859501016" lon="9.840185128934955"><ele>778.6</ele><time>2026-04-19T08:40:19Z</time></trkpt><trkpt lat="44.75969185145798" lon="9.840095535569883"><ele>779.0</ele><time>2026-04-19T08:40:20Z</time></trkpt><trkpt lat="44.75964092424719" lon="9.83999077038258"><ele>779.0</ele><time>2026-04-19T08:40:21Z</time></trkpt><trkpt lat="44.75957733292094" lon="9.839891673296636"><ele>779.0</ele><time>2026-04-19T08:40:22Z</time></trkpt><trkpt lat="44.759529907327746" lon="9.839813577053585"><ele>779.0</ele><time>2026-04-19T08:40:23Z</time></trkpt><trkpt lat="44.7594854951895" lon="9.839732410680416"><ele>779.0</ele><time>2026-04-19T08:40:24Z</time></trkpt><trkpt lat="44.759424473402845" lon="9.839589958152564"><ele>779.0</ele><time>2026-04-19T08:40:26Z</time></trkpt><trkpt lat="44.75935602052734" lon="9.839494098838596"><ele>778.6</ele><time>2026-04-19T08:40:28Z</time></trkpt><trkpt lat="44.75927310052493" lon="9.839432175466143"><ele>778.2</ele><time>2026-04-19T08:40:30Z</time></trkpt><trkpt lat="44.759183133841475" lon="9.839365294717194"><ele>777.8000000000001</ele><time>2026-04-19T08:40:32Z</time></trkpt><trkpt lat="44.759110230708195" lon="9.839251232680814"><ele>777.4000000000001</ele><time>2026-04-19T08:40:34Z</time></trkpt><trkpt lat="44.75906577613996" lon="9.839176788763034"><ele>777.0</ele><time>2026-04-19T08:40:36Z</time></trkpt><trkpt lat="44.7589985796248" lon="9.839072302314975"><ele>777.0</ele><time>2026-04-19T08:40:38Z</time></trkpt><trkpt lat="44.75895968305892" lon="9.838980289016156"><ele>777.0</ele><time>2026-04-19T08:40:39Z</time></trkpt><trkpt lat="44.75891924189292" lon="9.83887648537744"><ele>777.0</ele><time>2026-04-19T08:40:40Z</time></trkpt><trkpt lat="44.758872522160836" lon="9.838741362706791"><ele>777.0</ele><time>2026-04-19T08:40:41Z</time></trkpt><trkpt lat="44.75883063439946" lon="9.838646804832608"><ele>777.0</ele><time>2026-04-19T08:40:42Z</time></trkpt><trkpt lat="44.75878352418593" lon="9.83856983015703"><ele>777.0</ele><time>2026-04-19T08:40:43Z</time></trkpt><trkpt lat="44.75874801648892" lon="9.838481558913152"><ele>776.0</ele><time>2026-04-19T08:40:44Z</time></trkpt><trkpt lat="44.75870526502172" lon="9.838396170176924"><ele>775.0</ele><time>2026-04-19T08:40:46Z</time></trkpt><trkpt lat="44.75865370254169" lon="9.838249406721573"><ele>774.0</ele><time>2026-04-19T08:40:48Z</time></trkpt><trkpt lat="44.75859118710534" lon="9.83813215514084"><ele>773.0</ele><time>2026-04-19T08:40:50Z</time></trkpt><trkpt lat="44.75852422397911" lon="9.83808106934597"><ele>772.0</ele><time>2026-04-19T08:40:53Z</time></trkpt><trkpt lat="44.75843546196617" lon="9.83801948519808"><ele>772.0</ele><time>2026-04-19T08:40:58Z</time></trkpt><trkpt lat="44.758350564703676" lon="9.837952420740887"><ele>772.0</ele><time>2026-04-19T08:40:59Z</time></trkpt><trkpt lat="44.7582703264562" lon="9.837882829283492"><ele>772.0</ele><time>2026-04-19T08:41:00Z</time></trkpt><trkpt lat="44.75821483561666" lon="9.837818246123328"><ele>772.0</ele><time>2026-04-19T08:41:01Z</time></trkpt><trkpt lat="44.75814896427533" lon="9.837655197617535"><ele>772.0</ele><time>2026-04-19T08:41:03Z</time></trkpt><trkpt lat="44.7581091290689" lon="9.837535400903601"><ele>771.9999999999999</ele><time>2026-04-19T08:41:04Z</time></trkpt><trkpt lat="44.75805473602022" lon="9.837436221894242"><ele>772.0</ele><time>2026-04-19T08:41:05Z</time></trkpt><trkpt lat="44.75799480009822" lon="9.837345685129225"><ele>772.0</ele><time>2026-04-19T08:41:06Z</time></trkpt><trkpt lat="44.75791983005926" lon="9.837280719272389"><ele>772.0</ele><time>2026-04-19T08:41:07Z</time></trkpt><trkpt lat="44.757853048090375" lon="9.837222542925831"><ele>771.9999999999999</ele><time>2026-04-19T08:41:08Z</time></trkpt><trkpt lat="44.75779891529536" lon="9.837152326646203"><ele>772.0</ele><time>2026-04-19T08:41:09Z</time></trkpt><trkpt lat="44.75774849909074" lon="9.837095532458685"><ele>771.4000000000001</ele><time>2026-04-19T08:41:10Z</time></trkpt><trkpt lat="44.757610762546605" lon="9.837024432917104"><ele>770.8000000000001</ele><time>2026-04-19T08:41:12Z</time></trkpt><trkpt lat="44.757541849454235" lon="9.836977736694234"><ele>770.2</ele><time>2026-04-19T08:41:13Z</time></trkpt><trkpt lat="44.757477857963394" lon="9.836917252620983"><ele>769.6</ele><time>2026-04-19T08:41:14Z</time></trkpt><trkpt lat="44.757402460814646" lon="9.83684497236018"><ele>769.0</ele><time>2026-04-19T08:41:15Z</time></trkpt><trkpt lat="44.75734596578668" lon="9.836786303439299"><ele>768.9999999999999</ele><time>2026-04-19T08:41:16Z</time></trkpt><trkpt lat="44.75728748344019" lon="9.836737455473395"><ele>769.0</ele><time>2026-04-19T08:41:17Z</time></trkpt><trkpt lat="44.75721496771562" lon="9.83670284729584"><ele>769.0</ele><time>2026-04-19T08:41:18Z</time></trkpt><trkpt lat="44.75712007897765" lon="9.836689949034598"><ele>769.0</ele><time>2026-04-19T08:41:19Z</time></trkpt><trkpt lat="44.75704616999916" lon="9.836693713636386"><ele>768.9999999999999</ele><time>2026-04-19T08:41:20Z</time></trkpt><trkpt lat="44.756966553280755" lon="9.836667756976334"><ele>769.0</ele><time>2026-04-19T08:41:22Z</time></trkpt><trkpt lat="44.756863555994" lon="9.83658657327341"><ele>767.0</ele><time>2026-04-19T08:41:24Z</time></trkpt><trkpt lat="44.75676687245641" lon="9.836456648594684"><ele>765.0</ele><time>2026-04-19T08:41:26Z</time></trkpt><trkpt lat="44.75671974946436" lon="9.83634034028341"><ele>763.0</ele><time>2026-04-19T08:41:27Z</time></trkpt><trkpt lat="44.756665398909774" lon="9.83622752425987"><ele>761.0</ele><time>2026-04-19T08:41:28Z</time></trkpt><trkpt lat="44.75659408192491" lon="9.83609894347602"><ele>759.0</ele><time>2026-04-19T08:41:29Z</time></trkpt><trkpt lat="44.75651500404382" lon="9.836004583927519"><ele>759.3333333333334</ele><time>2026-04-19T08:41:30Z</time></trkpt><trkpt lat="44.75644230066913" lon="9.83595201601344"><ele>759.6666666666666</ele><time>2026-04-19T08:41:31Z</time></trkpt><trkpt lat="44.756380581911706" lon="9.835934125092612"><ele>760.0</ele><time>2026-04-19T08:41:32Z</time></trkpt><trkpt lat="44.75631779922719" lon="9.835901018552713"><ele>760.3333333333333</ele><time>2026-04-19T08:41:34Z</time></trkpt><trkpt lat="44.75627801505609" lon="9.835820221075227"><ele>760.6666666666666</ele><time>2026-04-19T08:41:35Z</time></trkpt><trkpt lat="44.75619736818257" lon="9.835686517700761"><ele>761.0</ele><time>2026-04-19T08:41:36Z</time></trkpt><trkpt lat="44.75613276636374" lon="9.83559485466369"><ele>761.0</ele><time>2026-04-19T08:41:37Z</time></trkpt><trkpt lat="44.75606314697633" lon="9.835508357533211"><ele>761.0</ele><time>2026-04-19T08:41:38Z</time></trkpt><trkpt lat="44.75597975192106" lon="9.835439321063026"><ele>761.0</ele><time>2026-04-19T08:41:39Z</time></trkpt><trkpt lat="44.75590583205407" lon="9.835398970531795"><ele>761.0</ele><time>2026-04-19T08:41:40Z</time></trkpt><trkpt lat="44.755817889771656" lon="9.83537696524221"><ele>761.0</ele><time>2026-04-19T08:41:41Z</time></trkpt><trkpt lat="44.755726322860276" lon="9.835350826857727"><ele>759.8</ele><time>2026-04-19T08:41:42Z</time></trkpt><trkpt lat="44.755617860451274" lon="9.835263470471293"><ele>758.5999999999999</ele><time>2026-04-19T08:41:44Z</time></trkpt><trkpt lat="44.75556618693789" lon="9.83518604565257"><ele>757.4</ele><time>2026-04-19T08:41:45Z</time></trkpt><trkpt lat="44.755510108540015" lon="9.835080258031388"><ele>756.2</ele><time>2026-04-19T08:41:46Z</time></trkpt><trkpt lat="44.755450372196975" lon="9.834938751104067"><ele>755.0</ele><time>2026-04-19T08:41:47Z</time></trkpt><trkpt lat="44.755380473348914" lon="9.834800561413472"><ele>755.0</ele><time>2026-04-19T08:41:48Z</time></trkpt><trkpt lat="44.75531190216486" lon="9.83468349211568"><ele>755.0</ele><time>2026-04-19T08:41:49Z</time></trkpt><trkpt lat="44.75524995065057" lon="9.834573519567906"><ele>755.0</ele><time>2026-04-19T08:41:50Z</time></trkpt><trkpt lat="44.755186698142744" lon="9.834497425382898"><ele>755.0</ele><time>2026-04-19T08:41:51Z</time></trkpt><trkpt lat="44.755132634097734" lon="9.83444055422922"><ele>755.0</ele><time>2026-04-19T08:41:52Z</time></trkpt><trkpt lat="44.75506949058162" lon="9.834366521888064"><ele>755.0</ele><time>2026-04-19T08:41:53Z</time></trkpt><trkpt lat="44.75500825957381" lon="9.834291156838475"><ele>754.6666666666666</ele><time>2026-04-19T08:41:54Z</time></trkpt><trkpt lat="44.754952744461555" lon="9.834213244896212"><ele>754.3333333333333</ele><time>2026-04-19T08:41:55Z</time></trkpt><trkpt lat="44.7549020246961" lon="9.834131191095262"><ele>754.0</ele><time>2026-04-19T08:41:56Z</time></trkpt><trkpt lat="44.75485286975144" lon="9.834066657477383"><ele>753.6666666666666</ele><time>2026-04-19T08:41:57Z</time></trkpt><trkpt lat="44.75477506661127" lon="9.833978528171963"><ele>753.3333333333334</ele><time>2026-04-19T08:41:59Z</time></trkpt><trkpt lat="44.75471315319696" lon="9.833885669544731"><ele>753.0</ele><time>2026-04-19T08:42:00Z</time></trkpt><trkpt lat="44.754646711738175" lon="9.833755590996189"><ele>753.0</ele><time>2026-04-19T08:42:02Z</time></trkpt><trkpt lat="44.754630129257805" lon="9.833669086065072"><ele>753.0</ele><time>2026-04-19T08:42:03Z</time></trkpt><trkpt lat="44.7545931485876" lon="9.833503226968025"><ele>753.0</ele><time>2026-04-19T08:42:05Z</time></trkpt><trkpt lat="44.754521370050306" lon="9.833435651663866"><ele>753.0</ele><time>2026-04-19T08:42:08Z</time></trkpt><trkpt lat="44.75438899122317" lon="9.833308205280538"><ele>753.0</ele><time>2026-04-19T08:42:10Z</time></trkpt><trkpt lat="44.754318816075" lon="9.833234589751756"><ele>756.0</ele><time>2026-04-19T08:42:11Z</time></trkpt><trkpt lat="44.754169116096705" lon="9.833227293539673"><ele>759.0</ele><time>2026-04-19T08:42:13Z</time></trkpt><trkpt lat="44.75408130529636" lon="9.833264067031566"><ele>762.0</ele><time>2026-04-19T08:42:14Z</time></trkpt><trkpt lat="44.75401041835732" lon="9.833290874312867"><ele>765.0</ele><time>2026-04-19T08:42:15Z</time></trkpt><trkpt lat="44.753931889129916" lon="9.833312871123614"><ele>768.0</ele><time>2026-04-19T08:42:17Z</time></trkpt><trkpt lat="44.75382491810632" lon="9.833321197140515"><ele>768.0</ele><time>2026-04-19T08:42:19Z</time></trkpt><trkpt lat="44.7537151949967" lon="9.833360444130877"><ele>768.0</ele><time>2026-04-19T08:42:21Z</time></trkpt><trkpt lat="44.753650538682336" lon="9.833378913782447"><ele>768.0</ele><time>2026-04-19T08:42:22Z</time></trkpt><trkpt lat="44.75357423848502" lon="9.833386369063948"><ele>768.0</ele><time>2026-04-19T08:42:23Z</time></trkpt><trkpt lat="44.753482799548046" lon="9.833380235787365"><ele>768.0</ele><time>2026-04-19T08:42:24Z</time></trkpt><trkpt lat="44.75338344748191" lon="9.833378942219921"><ele>768.0</ele><time>2026-04-19T08:42:25Z</time></trkpt><trkpt lat="44.75329672851128" lon="9.83336776158922"><ele>769.5999999999999</ele><time>2026-04-19T08:42:26Z</time></trkpt><trkpt lat="44.75319784476295" lon="9.833354541372605"><ele>771.1999999999999</ele><time>2026-04-19T08:42:27Z</time></trkpt><trkpt lat="44.75312386431349" lon="9.833332450849795"><ele>772.8</ele><time>2026-04-19T08:42:28Z</time></trkpt><trkpt lat="44.752999964402136" lon="9.83336998895439"><ele>774.4</ele><time>2026-04-19T08:42:30Z</time></trkpt><trkpt lat="44.75293306935984" lon="9.833464900043683"><ele>776.0</ele><time>2026-04-19T08:42:32Z</time></trkpt><trkpt lat="44.752858986561144" lon="9.83353465886223"><ele>772.0000000000001</ele><time>2026-04-19T08:42:34Z</time></trkpt><trkpt lat="44.7527736195182" lon="9.83358368170179"><ele>768.0</ele><time>2026-04-19T08:42:36Z</time></trkpt><trkpt lat="44.75271245161378" lon="9.83360634303538"><ele>764.0</ele><time>2026-04-19T08:42:37Z</time></trkpt><trkpt lat="44.75264595931562" lon="9.833618969375026"><ele>760.0</ele><time>2026-04-19T08:42:38Z</time></trkpt><trkpt lat="44.7525749227402" lon="9.83364689971018"><ele>756.0</ele><time>2026-04-19T08:42:39Z</time></trkpt><trkpt lat="44.75249230949058" lon="9.833673735036664"><ele>752.0</ele><time>2026-04-19T08:42:41Z</time></trkpt><trkpt lat="44.75241792034933" lon="9.833572915502007"><ele>755.8333333333333</ele><time>2026-04-19T08:42:43Z</time></trkpt><trkpt lat="44.752389601439646" lon="9.833444777565301"><ele>759.6666666666666</ele><time>2026-04-19T08:42:44Z</time></trkpt><trkpt lat="44.752363272641134" lon="9.83330821540871"><ele>763.5</ele><time>2026-04-19T08:42:45Z</time></trkpt><trkpt lat="44.752320102208664" lon="9.833210141346417"><ele>767.3333333333333</ele><time>2026-04-19T08:42:46Z</time></trkpt><trkpt lat="44.75228094514385" lon="9.833122975285164"><ele>771.1666666666666</ele><time>2026-04-19T08:42:47Z</time></trkpt><trkpt lat="44.75226601766136" lon="9.83302970793039"><ele>775.0</ele><time>2026-04-19T08:42:48Z</time></trkpt><trkpt lat="44.75225887279862" lon="9.832889382012823"><ele>775.0</ele><time>2026-04-19T08:42:49Z</time></trkpt><trkpt lat="44.75225131075518" lon="9.832772764144396"><ele>775.0</ele><time>2026-04-19T08:42:50Z</time></trkpt><trkpt lat="44.75225329052161" lon="9.83260639061977"><ele>775.0</ele><time>2026-04-19T08:42:52Z</time></trkpt><trkpt lat="44.75221352391662" lon="9.832515657170338"><ele>775.0</ele><time>2026-04-19T08:42:53Z</time></trkpt><trkpt lat="44.752155144533205" lon="9.832409484406904"><ele>775.0</ele><time>2026-04-19T08:42:54Z</time></trkpt><trkpt lat="44.75210612016981" lon="9.832324968903345"><ele>774.9999999999999</ele><time>2026-04-19T08:42:55Z</time></trkpt><trkpt lat="44.75208008287732" lon="9.832229184096537"><ele>775.0</ele><time>2026-04-19T08:42:56Z</time></trkpt><trkpt lat="44.752042222183285" lon="9.832122093688316"><ele>775.0</ele><time>2026-04-19T08:42:57Z</time></trkpt><trkpt lat="44.751978698894234" lon="9.83205006152324"><ele>775.0</ele><time>2026-04-19T08:42:58Z</time></trkpt><trkpt lat="44.751907602430904" lon="9.832013637950391"><ele>774.9999999999999</ele><time>2026-04-19T08:42:59Z</time></trkpt><trkpt lat="44.75184161191286" lon="9.832012565683556"><ele>775.0</ele><time>2026-04-19T08:43:00Z</time></trkpt><trkpt lat="44.751757627529464" lon="9.83205960358275"><ele>775.0</ele><time>2026-04-19T08:43:01Z</time></trkpt><trkpt lat="44.75168636873122" lon="9.832109202993964"><ele>775.0</ele><time>2026-04-19T08:43:02Z</time></trkpt><trkpt lat="44.75157781040347" lon="9.831977811936158"><ele>775.0</ele><time>2026-04-19T08:43:05Z</time></trkpt><trkpt lat="44.751504718783195" lon="9.831906306855965"><ele>775.0</ele><time>2026-04-19T08:43:06Z</time></trkpt><trkpt lat="44.751436589807305" lon="9.831852676470183"><ele>775.0</ele><time>2026-04-19T08:43:07Z</time></trkpt><trkpt lat="44.75137240259927" lon="9.831848240189585"><ele>774.9999999999999</ele><time>2026-04-19T08:43:08Z</time></trkpt><trkpt lat="44.751258623733044" lon="9.831825100545034"><ele>775.0</ele><time>2026-04-19T08:43:10Z</time></trkpt><trkpt lat="44.75119380554452" lon="9.831832936941183"><ele>775.0</ele><time>2026-04-19T08:43:11Z</time></trkpt><trkpt lat="44.751121369066716" lon="9.831854911216766"><ele>775.0</ele><time>2026-04-19T08:43:13Z</time></trkpt><trkpt lat="44.75104138852275" lon="9.8319774994302"><ele>774.9999999999999</ele><time>2026-04-19T08:43:19Z</time></trkpt><trkpt lat="44.75097669812254" lon="9.8320078373309"><ele>775.0</ele><time>2026-04-19T08:43:21Z</time></trkpt><trkpt lat="44.75090404404617" lon="9.83208006426908"><ele>777.4</ele><time>2026-04-19T08:43:23Z</time></trkpt><trkpt lat="44.75081438581146" lon="9.832136332760424"><ele>779.8</ele><time>2026-04-19T08:43:24Z</time></trkpt><trkpt lat="44.75074287756813" lon="9.832182749534221"><ele>782.2</ele><time>2026-04-19T08:43:25Z</time></trkpt><trkpt lat="44.750670933492955" lon="9.832292773207115"><ele>784.6</ele><time>2026-04-19T08:43:27Z</time></trkpt><trkpt lat="44.750591580364286" lon="9.8323912337532"><ele>787.0</ele><time>2026-04-19T08:43:29Z</time></trkpt><trkpt lat="44.75052445754188" lon="9.832563047779505"><ele>786.9999999999999</ele><time>2026-04-19T08:43:31Z</time></trkpt><trkpt lat="44.75048743709599" lon="9.832640117010637"><ele>787.0</ele><time>2026-04-19T08:43:32Z</time></trkpt><trkpt lat="44.750414373417776" lon="9.832747689529649"><ele>787.0</ele><time>2026-04-19T08:43:34Z</time></trkpt><trkpt lat="44.750332075911324" lon="9.83275989932634"><ele>787.0</ele><time>2026-04-19T08:43:45Z</time></trkpt><trkpt lat="44.75029021283248" lon="9.832687589511146"><ele>786.9999999999999</ele><time>2026-04-19T08:43:50Z</time></trkpt><trkpt lat="44.750315747559874" lon="9.832511730672607"><ele>787.0</ele><time>2026-04-19T08:43:52Z</time></trkpt><trkpt lat="44.75037528326733" lon="9.832377298517951"><ele>787.0</ele><time>2026-04-19T08:43:54Z</time></trkpt><trkpt lat="44.75039244048828" lon="9.832279274996674"><ele>787.0</ele><time>2026-04-19T08:43:55Z</time></trkpt><trkpt lat="44.75038966919137" lon="9.83214012039739"><ele>787.0</ele><time>2026-04-19T08:43:57Z</time></trkpt><trkpt lat="44.75048138373612" lon="9.832071811800853"><ele>787.0</ele><time>2026-04-19T08:43:59Z</time></trkpt><trkpt lat="44.75055995858718" lon="9.831958251460579"><ele>787.0</ele><time>2026-04-19T08:44:00Z</time></trkpt><trkpt lat="44.75061656353024" lon="9.831817702271563"><ele>792.6666666666666</ele><time>2026-04-19T08:44:01Z</time></trkpt><trkpt lat="44.75064184273516" lon="9.831711495192085"><ele>798.3333333333333</ele><time>2026-04-19T08:44:02Z</time></trkpt><trkpt lat="44.75065691059682" lon="9.831619979362488"><ele>804.0</ele><time>2026-04-19T08:44:03Z</time></trkpt><trkpt lat="44.75066955752161" lon="9.831525467829804"><ele>809.6666666666667</ele><time>2026-04-19T08:44:04Z</time></trkpt><trkpt lat="44.75070624425149" lon="9.831425273199153"><ele>815.3333333333334</ele><time>2026-04-19T08:44:05Z</time></trkpt><trkpt lat="44.75072917953135" lon="9.831329478883058"><ele>821.0</ele><time>2026-04-19T08:44:06Z</time></trkpt><trkpt lat="44.7507622354522" lon="9.831176579047655"><ele>821.0</ele><time>2026-04-19T08:44:08Z</time></trkpt><trkpt lat="44.750782013928976" lon="9.831089907926284"><ele>821.0</ele><time>2026-04-19T08:44:09Z</time></trkpt><trkpt lat="44.75082086298074" lon="9.830945489494464"><ele>821.0</ele><time>2026-04-19T08:44:11Z</time></trkpt><trkpt lat="44.750904567642685" lon="9.830801906035354"><ele>821.0</ele><time>2026-04-19T08:44:13Z</time></trkpt><trkpt lat="44.75096024785718" lon="9.830727078521013"><ele>821.0</ele><time>2026-04-19T08:44:14Z</time></trkpt><trkpt lat="44.751002475028" lon="9.830611014815217"><ele>827.4</ele><time>2026-04-19T08:44:16Z</time></trkpt><trkpt lat="44.750914605898075" lon="9.830606154046622"><ele>833.8</ele><time>2026-04-19T08:44:18Z</time></trkpt><trkpt lat="44.75082908561306" lon="9.83061574238527"><ele>840.1999999999999</ele><time>2026-04-19T08:44:20Z</time></trkpt><trkpt lat="44.7508005766936" lon="9.830762881847185"><ele>846.5999999999999</ele><time>2026-04-19T08:44:49Z</time></trkpt><trkpt lat="44.75076773009169" lon="9.830859607919846"><ele>853.0</ele><time>2026-04-19T08:44:50Z</time></trkpt><trkpt lat="44.75067693985931" lon="9.830908293005919"><ele>847.6666666666666</ele><time>2026-04-19T08:44:51Z</time></trkpt><trkpt lat="44.75062292115212" lon="9.830975377949997"><ele>842.3333333333333</ele><time>2026-04-19T08:44:52Z</time></trkpt><trkpt lat="44.750530379047404" lon="9.831050789315865"><ele>837.0</ele><time>2026-04-19T08:44:54Z</time></trkpt><trkpt lat="44.75042043942173" lon="9.831040328412758"><ele>831.6666666666667</ele><time>2026-04-19T08:44:56Z</time></trkpt><trkpt lat="44.750347052957416" lon="9.831038274019265"><ele>826.3333333333334</ele><time>2026-04-19T08:44:57Z</time></trkpt><trkpt lat="44.750279929854365" lon="9.831076400322251"><ele>821.0</ele><time>2026-04-19T08:44:58Z</time></trkpt><trkpt lat="44.75023904662675" lon="9.831148019812135"><ele>824.1999999999999</ele><time>2026-04-19T08:45:00Z</time></trkpt><trkpt lat="44.750134176974974" lon="9.831152134694937"><ele>827.4</ele><time>2026-04-19T08:45:03Z</time></trkpt><trkpt lat="44.750071994767424" lon="9.83110969555003"><ele>830.6</ele><time>2026-04-19T08:45:06Z</time></trkpt><trkpt lat="44.75006139542776" lon="9.831015420001902"><ele>833.8</ele><time>2026-04-19T08:45:08Z</time></trkpt><trkpt lat="44.75010641118089" lon="9.830858836652409"><ele>837.0</ele><time>2026-04-19T08:45:10Z</time></trkpt><trkpt lat="44.750115510491625" lon="9.830729203474293"><ele>839.4000000000001</ele><time>2026-04-19T08:45:11Z</time></trkpt><trkpt lat="44.75012006600481" lon="9.830603712591703"><ele>841.8000000000001</ele><time>2026-04-19T08:45:12Z</time></trkpt><trkpt lat="44.75012836761102" lon="9.830508849398026"><ele>844.2</ele><time>2026-04-19T08:45:13Z</time></trkpt><trkpt lat="44.75013644919443" lon="9.8303689851026"><ele>846.6</ele><time>2026-04-19T08:45:15Z</time></trkpt><trkpt lat="44.75011166086724" lon="9.83024758581691"><ele>849.0</ele><time>2026-04-19T08:45:17Z</time></trkpt><trkpt lat="44.75008646299719" lon="9.830081543393932"><ele>849.5</ele><time>2026-04-19T08:45:19Z</time></trkpt><trkpt lat="44.75005907389619" lon="9.829934223242287"><ele>850.0</ele><time>2026-04-19T08:45:21Z</time></trkpt><trkpt lat="44.750044537107094" lon="9.829842573367191"><ele>850.5</ele><time>2026-04-19T08:45:22Z</time></trkpt><trkpt lat="44.75002551695455" lon="9.829677443327192"><ele>851.0</ele><time>2026-04-19T08:45:24Z</time></trkpt><trkpt lat="44.750004643055625" lon="9.829587463114862"><ele>851.5</ele><time>2026-04-19T08:45:25Z</time></trkpt><trkpt lat="44.74998437865044" lon="9.829486879845744"><ele>852.0</ele><time>2026-04-19T08:45:26Z</time></trkpt><trkpt lat="44.749965731699135" lon="9.829369178064281"><ele>853.1666666666666</ele><time>2026-04-19T08:45:27Z</time></trkpt><trkpt lat="44.74994273208369" lon="9.829267109822258"><ele>854.3333333333333</ele><time>2026-04-19T08:45:28Z</time></trkpt><trkpt lat="44.74990639961329" lon="9.829118238555443"><ele>855.5</ele><time>2026-04-19T08:45:30Z</time></trkpt><trkpt lat="44.74989868115378" lon="9.829014582414391"><ele>856.6666666666666</ele><time>2026-04-19T08:45:31Z</time></trkpt><trkpt lat="44.74990316135456" lon="9.828884559292316"><ele>857.8333333333333</ele><time>2026-04-19T08:45:32Z</time></trkpt><trkpt lat="44.74992381222159" lon="9.82879302166414"><ele>859.0</ele><time>2026-04-19T08:45:33Z</time></trkpt><trkpt lat="44.74994907506394" lon="9.828673494620906"><ele>858.9999999999999</ele><time>2026-04-19T08:45:34Z</time></trkpt><trkpt lat="44.74996810184751" lon="9.828556689912482"><ele>859.0</ele><time>2026-04-19T08:45:35Z</time></trkpt><trkpt lat="44.74998434630137" lon="9.828407643853154"><ele>859.0</ele><time>2026-04-19T08:45:37Z</time></trkpt><trkpt lat="44.750025272515984" lon="9.82830572324458"><ele>859.0</ele><time>2026-04-19T08:45:38Z</time></trkpt><trkpt lat="44.750087118519055" lon="9.828211052431541"><ele>858.9999999999999</ele><time>2026-04-19T08:45:39Z</time></trkpt><trkpt lat="44.750137282740354" lon="9.82813463900011"><ele>859.0</ele><time>2026-04-19T08:45:40Z</time></trkpt><trkpt lat="44.75015239857064" lon="9.828025909186572"><ele>857.6</ele><time>2026-04-19T08:45:42Z</time></trkpt><trkpt lat="44.750166677626034" lon="9.827862470786126"><ele>856.2</ele><time>2026-04-19T08:45:44Z</time></trkpt><trkpt lat="44.75015771384437" lon="9.82776845862324"><ele>854.8000000000001</ele><time>2026-04-19T08:45:45Z</time></trkpt><trkpt lat="44.75010832825473" lon="9.827643132847742"><ele>853.4000000000001</ele><time>2026-04-19T08:45:47Z</time></trkpt><trkpt lat="44.75002636286282" lon="9.827540360456378"><ele>852.0</ele><time>2026-04-19T08:45:49Z</time></trkpt><trkpt lat="44.74997657226615" lon="9.827466331992792"><ele>851.8</ele><time>2026-04-19T08:45:50Z</time></trkpt><trkpt lat="44.749916358734005" lon="9.827397691058245"><ele>851.6</ele><time>2026-04-19T08:45:51Z</time></trkpt><trkpt lat="44.74985915768753" lon="9.827349787440257"><ele>851.4</ele><time>2026-04-19T08:45:52Z</time></trkpt><trkpt lat="44.749757577926935" lon="9.827252560839673"><ele>851.1999999999999</ele><time>2026-04-19T08:45:54Z</time></trkpt><trkpt lat="44.74968947006624" lon="9.82711473336176"><ele>851.0</ele><time>2026-04-19T08:45:56Z</time></trkpt><trkpt lat="44.749636465953465" lon="9.827042967014414"><ele>851.0000000000001</ele><time>2026-04-19T08:45:57Z</time></trkpt><trkpt lat="44.7495888933236" lon="9.826971328854885"><ele>851.0</ele><time>2026-04-19T08:45:58Z</time></trkpt><trkpt lat="44.74949032488777" lon="9.826938943851298"><ele>851.0</ele><time>2026-04-19T08:46:00Z</time></trkpt><trkpt lat="44.749427513336045" lon="9.826920280292033"><ele>851.0</ele><time>2026-04-19T08:46:03Z</time></trkpt><trkpt lat="44.74936178196839" lon="9.826931596254742"><ele>851.0000000000001</ele><time>2026-04-19T08:46:10Z</time></trkpt><trkpt lat="44.749295903784116" lon="9.826931211986112"><ele>851.0</ele><time>2026-04-19T08:46:12Z</time></trkpt><trkpt lat="44.749204382883164" lon="9.826912702208508"><ele>850.8333333333334</ele><time>2026-04-19T08:46:13Z</time></trkpt><trkpt lat="44.74912849442339" lon="9.82689640041777"><ele>850.6666666666667</ele><time>2026-04-19T08:46:14Z</time></trkpt><trkpt lat="44.74906499468783" lon="9.826880458108956"><ele>850.5</ele><time>2026-04-19T08:46:15Z</time></trkpt><trkpt lat="44.74897879829612" lon="9.826859344810657"><ele>850.3333333333333</ele><time>2026-04-19T08:46:17Z</time></trkpt><trkpt lat="44.74890960152529" lon="9.826854917575005"><ele>850.1666666666666</ele><time>2026-04-19T08:46:18Z</time></trkpt><trkpt lat="44.748836637955534" lon="9.826821017445354"><ele>850.0</ele><time>2026-04-19T08:46:19Z</time></trkpt><trkpt lat="44.748762082233334" lon="9.82679535971974"><ele>849.9999999999999</ele><time>2026-04-19T08:46:20Z</time></trkpt><trkpt lat="44.748689040332366" lon="9.82673650040175"><ele>850.0</ele><time>2026-04-19T08:46:21Z</time></trkpt><trkpt lat="44.74862729722422" lon="9.826693704515218"><ele>850.0</ele><time>2026-04-19T08:46:22Z</time></trkpt><trkpt lat="44.74856929705209" lon="9.82665237927049"><ele>850.0</ele><time>2026-04-19T08:46:23Z</time></trkpt><trkpt lat="44.74848833267686" lon="9.82656853560508"><ele>849.9999999999999</ele><time>2026-04-19T08:46:25Z</time></trkpt><trkpt lat="44.74847929547052" lon="9.826445645922503"><ele>850.0</ele><time>2026-04-19T08:46:27Z</time></trkpt><trkpt lat="44.748492708608154" lon="9.826300633622267"><ele>844.3333333333333</ele><time>2026-04-19T08:46:29Z</time></trkpt><trkpt lat="44.74848618776462" lon="9.826138383845484"><ele>838.6666666666666</ele><time>2026-04-19T08:46:31Z</time></trkpt><trkpt lat="44.74846729056666" lon="9.826047403517972"><ele>833.0</ele><time>2026-04-19T08:46:32Z</time></trkpt><trkpt lat="44.74846676255585" lon="9.8259363164822"><ele>827.3333333333333</ele><time>2026-04-19T08:46:33Z</time></trkpt><trkpt lat="44.74846379334178" lon="9.82584368889563"><ele>821.6666666666666</ele><time>2026-04-19T08:46:34Z</time></trkpt><trkpt lat="44.74845039216762" lon="9.82568075397984"><ele>816.0</ele><time>2026-04-19T08:46:36Z</time></trkpt><trkpt lat="44.748484994866764" lon="9.825585812018463"><ele>816.0</ele><time>2026-04-19T08:46:38Z</time></trkpt><trkpt lat="44.748533750586255" lon="9.825485534538805"><ele>816.0</ele><time>2026-04-19T08:46:40Z</time></trkpt><trkpt lat="44.74853191294624" lon="9.825379029201919"><ele>816.0</ele><time>2026-04-19T08:46:41Z</time></trkpt><trkpt lat="44.748515704264136" lon="9.82528644092348"><ele>816.0</ele><time>2026-04-19T08:46:42Z</time></trkpt><trkpt lat="44.748440137404565" lon="9.82519175416364"><ele>816.0</ele><time>2026-04-19T08:46:44Z</time></trkpt><trkpt lat="44.74846138594605" lon="9.824999052268078"><ele>815.5</ele><time>2026-04-19T08:46:46Z</time></trkpt><trkpt lat="44.74848284897362" lon="9.824910742241782"><ele>815.0</ele><time>2026-04-19T08:46:47Z</time></trkpt><trkpt lat="44.748555451949635" lon="9.824816920897401"><ele>814.5</ele><time>2026-04-19T08:46:49Z</time></trkpt><trkpt lat="44.74860305290937" lon="9.824755446225199"><ele>814.0</ele><time>2026-04-19T08:46:50Z</time></trkpt><trkpt lat="44.74862792405581" lon="9.82459665636659"><ele>813.5</ele><time>2026-04-19T08:46:52Z</time></trkpt><trkpt lat="44.74862147190352" lon="9.824507944666955"><ele>813.0</ele><time>2026-04-19T08:46:53Z</time></trkpt><trkpt lat="44.74861648961959" lon="9.824417418934592"><ele>822.4</ele><time>2026-04-19T08:46:54Z</time></trkpt><trkpt lat="44.74861527788142" lon="9.82424275615625"><ele>831.8</ele><time>2026-04-19T08:46:56Z</time></trkpt><trkpt lat="44.748576591270464" lon="9.82405462917046"><ele>841.2</ele><time>2026-04-19T08:46:58Z</time></trkpt><trkpt lat="44.74855948371554" lon="9.823935813333113"><ele>850.6</ele><time>2026-04-19T08:46:59Z</time></trkpt><trkpt lat="44.74856341305802" lon="9.823840281073812"><ele>860.0</ele><time>2026-04-19T08:47:00Z</time></trkpt><trkpt lat="44.74857292326727" lon="9.823746861533017"><ele>850.2</ele><time>2026-04-19T08:47:01Z</time></trkpt><trkpt lat="44.748505046129424" lon="9.823558922092808"><ele>840.4</ele><time>2026-04-19T08:47:03Z</time></trkpt><trkpt lat="44.748458868385335" lon="9.823416341707738"><ele>830.5999999999999</ele><time>2026-04-19T08:47:04Z</time></trkpt><trkpt lat="44.7484403583347" lon="9.823316317383947"><ele>820.8</ele><time>2026-04-19T08:47:05Z</time></trkpt><trkpt lat="44.74840777406676" lon="9.82319571567149"><ele>811.0</ele><time>2026-04-19T08:47:07Z</time></trkpt><trkpt lat="44.74836171093864" lon="9.823023284223094"><ele>810.9999999999999</ele><time>2026-04-19T08:47:09Z</time></trkpt><trkpt lat="44.748389251738075" lon="9.822892024202838"><ele>811.0</ele><time>2026-04-19T08:47:11Z</time></trkpt><trkpt lat="44.74842679671982" lon="9.822804727878477"><ele>811.0</ele><time>2026-04-19T08:47:12Z</time></trkpt><trkpt lat="44.748462848190556" lon="9.822693203013698"><ele>811.0</ele><time>2026-04-19T08:47:13Z</time></trkpt><trkpt lat="44.74850100650649" lon="9.822597441658264"><ele>810.9999999999999</ele><time>2026-04-19T08:47:14Z</time></trkpt><trkpt lat="44.74852394711017" lon="9.822459568821648"><ele>811.0</ele><time>2026-04-19T08:47:16Z</time></trkpt><trkpt lat="44.748509975463215" lon="9.822291468692388"><ele>816.0</ele><time>2026-04-19T08:47:18Z</time></trkpt><trkpt lat="44.748579541253754" lon="9.822190089120026"><ele>821.0</ele><time>2026-04-19T08:47:20Z</time></trkpt><trkpt lat="44.748606372073624" lon="9.822070610377724"><ele>826.0</ele><time>2026-04-19T08:47:23Z</time></trkpt><trkpt lat="44.74862086422975" lon="9.821961519837224"><ele>831.0</ele><time>2026-04-19T08:47:24Z</time></trkpt><trkpt lat="44.748626739171556" lon="9.821828085264677"><ele>836.0</ele><time>2026-04-19T08:47:25Z</time></trkpt><trkpt lat="44.748695122164484" lon="9.821680731413538"><ele>836.0</ele><time>2026-04-19T08:47:27Z</time></trkpt><trkpt lat="44.748717244412546" lon="9.821487736848322"><ele>836.0</ele><time>2026-04-19T08:47:29Z</time></trkpt><trkpt lat="44.74871147433735" lon="9.821396019544562"><ele>836.0</ele><time>2026-04-19T08:47:30Z</time></trkpt><trkpt lat="44.74871253613657" lon="9.821290834970643"><ele>836.0</ele><time>2026-04-19T08:47:32Z</time></trkpt><trkpt lat="44.748633912868435" lon="9.821157154049546"><ele>836.0</ele><time>2026-04-19T08:47:35Z</time></trkpt><trkpt lat="44.748562923509695" lon="9.8210742165909"><ele>832.0000000000001</ele><time>2026-04-19T08:47:36Z</time></trkpt><trkpt lat="44.748486204546346" lon="9.821015585774603"><ele>828.0</ele><time>2026-04-19T08:47:37Z</time></trkpt><trkpt lat="44.748503810954254" lon="9.820921399864837"><ele>824.0</ele><time>2026-04-19T08:47:39Z</time></trkpt><trkpt lat="44.74851565349851" lon="9.82079979400085"><ele>820.0</ele><time>2026-04-19T08:47:40Z</time></trkpt><trkpt lat="44.74850712998397" lon="9.820664183196238"><ele>816.0000000000001</ele><time>2026-04-19T08:47:41Z</time></trkpt><trkpt lat="44.74846112525777" lon="9.820549628453735"><ele>812.0</ele><time>2026-04-19T08:47:44Z</time></trkpt><trkpt lat="44.74841306860234" lon="9.820423056686387"><ele>812.0</ele><time>2026-04-19T08:47:46Z</time></trkpt><trkpt lat="44.748360580139035" lon="9.8202993889178"><ele>812.0</ele><time>2026-04-19T08:47:48Z</time></trkpt><trkpt lat="44.74835866002329" lon="9.820171012351175"><ele>812.0</ele><time>2026-04-19T08:47:50Z</time></trkpt><trkpt lat="44.74834989048224" lon="9.820069695441171"><ele>812.0</ele><time>2026-04-19T08:47:52Z</time></trkpt><trkpt lat="44.74835076945125" lon="9.819962814575478"><ele>812.0</ele><time>2026-04-19T08:47:54Z</time></trkpt><trkpt lat="44.74835581886726" lon="9.81980717892207"><ele>813.8</ele><time>2026-04-19T08:47:56Z</time></trkpt><trkpt lat="44.74838061004466" lon="9.819694871328636"><ele>815.6</ele><time>2026-04-19T08:47:58Z</time></trkpt><trkpt lat="44.748464523476116" lon="9.81958054603781"><ele>817.4</ele><time>2026-04-19T08:48:00Z</time></trkpt><trkpt lat="44.74855390996939" lon="9.81947871476854"><ele>819.1999999999999</ele><time>2026-04-19T08:48:02Z</time></trkpt><trkpt lat="44.74864219194934" lon="9.819376825045262"><ele>821.0</ele><time>2026-04-19T08:48:04Z</time></trkpt><trkpt lat="44.748713871797996" lon="9.819266763966642"><ele>821.0</ele><time>2026-04-19T08:48:06Z</time></trkpt><trkpt lat="44.74878669999328" lon="9.81920025397989"><ele>821.0</ele><time>2026-04-19T08:48:08Z</time></trkpt><trkpt lat="44.74888448332964" lon="9.819138606052018"><ele>821.0</ele><time>2026-04-19T08:48:10Z</time></trkpt><trkpt lat="44.74895766924228" lon="9.819112451027978"><ele>821.0</ele><time>2026-04-19T08:48:13Z</time></trkpt><trkpt lat="44.748944597099076" lon="9.818968106471761"><ele>821.0</ele><time>2026-04-19T08:48:16Z</time></trkpt><trkpt lat="44.748938954111146" lon="9.818856700995093"><ele>821.0000000000001</ele><time>2026-04-19T08:48:18Z</time></trkpt><trkpt lat="44.7489157925396" lon="9.818744648049845"><ele>821.0</ele><time>2026-04-19T08:48:21Z</time></trkpt><trkpt lat="44.74887478505375" lon="9.81864335610767"><ele>821.0</ele><time>2026-04-19T08:48:24Z</time></trkpt><trkpt lat="44.74886324311587" lon="9.818520033580477"><ele>821.0</ele><time>2026-04-19T08:49:03Z</time></trkpt><trkpt lat="44.74881453495959" lon="9.818433327861126"><ele>821.0000000000001</ele><time>2026-04-19T08:49:10Z</time></trkpt><trkpt lat="44.74883138242369" lon="9.818339818368647"><ele>821.0</ele><time>2026-04-19T08:49:17Z</time></trkpt><trkpt lat="44.748821691613784" lon="9.818237484031778"><ele>819.3333333333334</ele><time>2026-04-19T08:49:40Z</time></trkpt><trkpt lat="44.74885154644382" lon="9.818150366859149"><ele>817.6666666666667</ele><time>2026-04-19T08:49:45Z</time></trkpt><trkpt lat="44.74888406459541" lon="9.818074114076746"><ele>816.0</ele><time>2026-04-19T08:49:49Z</time></trkpt><trkpt lat="44.74893113021302" lon="9.817985943150958"><ele>814.3333333333333</ele><time>2026-04-19T08:49:53Z</time></trkpt><trkpt lat="44.74893381254527" lon="9.81787546590797"><ele>812.6666666666666</ele><time>2026-04-19T08:49:56Z</time></trkpt><trkpt lat="44.748979678680584" lon="9.817776763748448"><ele>811.0</ele><time>2026-04-19T08:50:00Z</time></trkpt><trkpt lat="44.74904837045435" lon="9.817717368416378"><ele>810.9999999999999</ele><time>2026-04-19T08:50:03Z</time></trkpt><trkpt lat="44.74912567721921" lon="9.817657852196925"><ele>811.0</ele><time>2026-04-19T08:50:06Z</time></trkpt><trkpt lat="44.749198452998115" lon="9.817626018077991"><ele>811.0</ele><time>2026-04-19T08:50:08Z</time></trkpt><trkpt lat="44.749244647507695" lon="9.817565553472448"><ele>811.0</ele><time>2026-04-19T08:50:11Z</time></trkpt><trkpt lat="44.74925269572668" lon="9.817474228948795"><ele>810.9999999999999</ele><time>2026-04-19T08:50:18Z</time></trkpt><trkpt lat="44.74921744700945" lon="9.81736341911464"><ele>811.0</ele><time>2026-04-19T08:50:23Z</time></trkpt><trkpt lat="44.74920003715802" lon="9.817255933415291"><ele>809.9999999999999</ele><time>2026-04-19T08:50:26Z</time></trkpt><trkpt lat="44.749200826240475" lon="9.817136690312907"><ele>809.0</ele><time>2026-04-19T08:50:29Z</time></trkpt><trkpt lat="44.7492218888595" lon="9.817029357865147"><ele>808.0</ele><time>2026-04-19T08:50:31Z</time></trkpt><trkpt lat="44.749245745718326" lon="9.816911897113512"><ele>807.0</ele><time>2026-04-19T08:50:33Z</time></trkpt><trkpt lat="44.74924680318199" lon="9.81680020363145"><ele>805.9999999999999</ele><time>2026-04-19T08:50:37Z</time></trkpt><trkpt lat="44.74924567049304" lon="9.816707929381339"><ele>805.0</ele><time>2026-04-19T08:50:40Z</time></trkpt><trkpt lat="44.74926771381869" lon="9.816622799606742"><ele>803.4285714285714</ele><time>2026-04-19T08:50:43Z</time></trkpt><trkpt lat="44.74926838823725" lon="9.81650875485433"><ele>801.8571428571429</ele><time>2026-04-19T08:50:51Z</time></trkpt><trkpt lat="44.74927682271195" lon="9.81642006606192"><ele>800.2857142857142</ele><time>2026-04-19T08:50:56Z</time></trkpt><trkpt lat="44.74928229827486" lon="9.816321190099954"><ele>798.7142857142858</ele><time>2026-04-19T08:51:01Z</time></trkpt><trkpt lat="44.74928218740457" lon="9.816227103071258"><ele>797.1428571428571</ele><time>2026-04-19T08:51:05Z</time></trkpt><trkpt lat="44.74928426134503" lon="9.816132233112006"><ele>795.5714285714286</ele><time>2026-04-19T08:51:08Z</time></trkpt><trkpt lat="44.74929613973057" lon="9.816043899610525"><ele>794.0</ele><time>2026-04-19T08:51:11Z</time></trkpt><trkpt lat="44.749297664103366" lon="9.815931846306084"><ele>792.0</ele><time>2026-04-19T08:51:14Z</time></trkpt><trkpt lat="44.749304628500866" lon="9.815840209086444"><ele>790.0</ele><time>2026-04-19T08:51:16Z</time></trkpt><trkpt lat="44.74931741690364" lon="9.815738391903873"><ele>788.0</ele><time>2026-04-19T08:51:20Z</time></trkpt><trkpt lat="44.74933676784748" lon="9.815650921856312"><ele>786.0</ele><time>2026-04-19T08:51:23Z</time></trkpt><trkpt lat="44.749382355663805" lon="9.815551777041314"><ele>784.0</ele><time>2026-04-19T08:51:26Z</time></trkpt><trkpt lat="44.74942329689646" lon="9.815467701007274"><ele>782.0</ele><time>2026-04-19T08:51:33Z</time></trkpt><trkpt lat="44.7494929135611" lon="9.81541379178257"><ele>780.0</ele><time>2026-04-19T08:51:36Z</time></trkpt><trkpt lat="44.74953743577843" lon="9.815350583957308"><ele>780.0</ele><time>2026-04-19T08:51:39Z</time></trkpt><trkpt lat="44.74957918404853" lon="9.815257795476231"><ele>780.0</ele><time>2026-04-19T08:51:42Z</time></trkpt><trkpt lat="44.74960584237906" lon="9.815158782579934"><ele>780.0</ele><time>2026-04-19T08:51:45Z</time></trkpt><trkpt lat="44.7496605372295" lon="9.81505096911567"><ele>780.0</ele><time>2026-04-19T08:52:38Z</time></trkpt><trkpt lat="44.74974947604097" lon="9.815098598724616"><ele>780.0</ele><time>2026-04-19T08:52:40Z</time></trkpt><trkpt lat="44.74982279599416" lon="9.815100150432837"><ele>780.0</ele><time>2026-04-19T08:52:42Z</time></trkpt><trkpt lat="44.74988326923604" lon="9.815049830203568"><ele>778.8333333333334</ele><time>2026-04-19T08:52:44Z</time></trkpt><trkpt lat="44.7499373107431" lon="9.814965964999583"><ele>777.6666666666667</ele><time>2026-04-19T08:52:46Z</time></trkpt><trkpt lat="44.7500166505192" lon="9.81486753662726"><ele>776.5</ele><time>2026-04-19T08:52:48Z</time></trkpt><trkpt lat="44.75008516035315" lon="9.814815150544208"><ele>775.3333333333334</ele><time>2026-04-19T08:52:49Z</time></trkpt><trkpt lat="44.750144783312535" lon="9.814781024193593"><ele>774.1666666666667</ele><time>2026-04-19T08:52:50Z</time></trkpt><trkpt lat="44.7502195428429" lon="9.814763408767313"><ele>773.0</ele><time>2026-04-19T08:52:51Z</time></trkpt><trkpt lat="44.750302146828005" lon="9.814726547356262"><ele>771.2</ele><time>2026-04-19T08:52:53Z</time></trkpt><trkpt lat="44.75034102442554" lon="9.814589463172865"><ele>769.4</ele><time>2026-04-19T08:52:55Z</time></trkpt><trkpt lat="44.75032816947474" lon="9.814500350535239"><ele>767.6</ele><time>2026-04-19T08:52:56Z</time></trkpt><trkpt lat="44.75031398015859" lon="9.81433580916797"><ele>765.8000000000001</ele><time>2026-04-19T08:52:58Z</time></trkpt><trkpt lat="44.75029781981059" lon="9.814196355136868"><ele>764.0</ele><time>2026-04-19T08:53:00Z</time></trkpt><trkpt lat="44.75028014481251" lon="9.814068916545144"><ele>761.8000000000001</ele><time>2026-04-19T08:53:02Z</time></trkpt><trkpt lat="44.75035026460188" lon="9.813956101383695"><ele>759.6</ele><time>2026-04-19T08:53:04Z</time></trkpt><trkpt lat="44.75044782868009" lon="9.813877478407697"><ele>757.4</ele><time>2026-04-19T08:53:06Z</time></trkpt><trkpt lat="44.75055356921121" lon="9.813812192239684"><ele>755.2</ele><time>2026-04-19T08:53:08Z</time></trkpt><trkpt lat="44.75057204186981" lon="9.813711350124295"><ele>753.0</ele><time>2026-04-19T08:53:09Z</time></trkpt><trkpt lat="44.7505646547483" lon="9.813597261287129"><ele>753.0</ele><time>2026-04-19T08:53:09.999Z</time></trkpt><trkpt lat="44.750630385292794" lon="9.813516307618109"><ele>753.0</ele><time>2026-04-19T08:53:11.999Z</time></trkpt><trkpt lat="44.7507148554576" lon="9.813467942251744"><ele>753.0</ele><time>2026-04-19T08:53:13.999Z</time></trkpt><trkpt lat="44.75077762942457" lon="9.813402741620083"><ele>753.0</ele><time>2026-04-19T08:53:14.999Z</time></trkpt><trkpt lat="44.750848214145925" lon="9.813349667581909"><ele>753.0</ele><time>2026-04-19T08:53:15.999Z</time></trkpt><trkpt lat="44.75094657316542" lon="9.813272083929753"><ele>753.0</ele><time>2026-04-19T08:53:18Z</time></trkpt><trkpt lat="44.75093058000885" lon="9.813154249818037"><ele>751.5</ele><time>2026-04-19T08:53:21Z</time></trkpt><trkpt lat="44.75086812224437" lon="9.8131296813021"><ele>750.0</ele><time>2026-04-19T08:53:23Z</time></trkpt><trkpt lat="44.750804011034475" lon="9.813078218095207"><ele>748.5</ele><time>2026-04-19T08:53:26Z</time></trkpt><trkpt lat="44.750848986420245" lon="9.812982611727048"><ele>747.0</ele><time>2026-04-19T08:53:29Z</time></trkpt><trkpt lat="44.75090086933647" lon="9.812929378326047"><ele>745.5</ele><time>2026-04-19T08:54:57Z</time></trkpt><trkpt lat="44.75099176173014" lon="9.812871452020511"><ele>744.0</ele><time>2026-04-19T08:55:29Z</time></trkpt><trkpt lat="44.751060100274564" lon="9.8128538350846"><ele>742.2</ele><time>2026-04-19T08:55:30Z</time></trkpt><trkpt lat="44.75114145662216" lon="9.812852194026625"><ele>740.4000000000001</ele><time>2026-04-19T08:55:32Z</time></trkpt><trkpt lat="44.75121571190273" lon="9.812866933722166"><ele>738.6</ele><time>2026-04-19T08:55:35Z</time></trkpt><trkpt lat="44.7513232003754" lon="9.8128290379138"><ele>736.8</ele><time>2026-04-19T08:55:37Z</time></trkpt><trkpt lat="44.751381751472834" lon="9.812782146236728"><ele>735.0</ele><time>2026-04-19T08:55:38Z</time></trkpt><trkpt lat="44.75147852661771" lon="9.812659387825981"><ele>735.6</ele><time>2026-04-19T08:55:40Z</time></trkpt><trkpt lat="44.751521995933324" lon="9.812565921085403"><ele>736.2</ele><time>2026-04-19T08:55:41Z</time></trkpt><trkpt lat="44.75159153736723" lon="9.812489973024933"><ele>736.8</ele><time>2026-04-19T08:55:43Z</time></trkpt><trkpt lat="44.75168253545911" lon="9.812446113584949"><ele>737.4</ele><time>2026-04-19T08:55:45Z</time></trkpt><trkpt lat="44.75173115483645" lon="9.812318837620946"><ele>738.0</ele><time>2026-04-19T08:55:47Z</time></trkpt><trkpt lat="44.751797944312976" lon="9.812244127057838"><ele>738.0</ele><time>2026-04-19T08:55:49Z</time></trkpt><trkpt lat="44.75183498009638" lon="9.812110425698432"><ele>738.0</ele><time>2026-04-19T08:55:51Z</time></trkpt><trkpt lat="44.75189101744913" lon="9.812027704364832"><ele>738.0</ele><time>2026-04-19T08:55:53Z</time></trkpt><trkpt lat="44.75189832060478" lon="9.811922688835867"><ele>738.0</ele><time>2026-04-19T08:55:55Z</time></trkpt><trkpt lat="44.75193722765401" lon="9.811822362872627"><ele>738.0</ele><time>2026-04-19T08:55:57Z</time></trkpt><trkpt lat="44.75196761775945" lon="9.81173246344556"><ele>738.0</ele><time>2026-04-19T08:55:59Z</time></trkpt><trkpt lat="44.752014324932595" lon="9.811632472284744"><ele>735.8571428571429</ele><time>2026-04-19T08:56:02Z</time></trkpt><trkpt lat="44.75208023694927" lon="9.8115824929679"><ele>733.7142857142857</ele><time>2026-04-19T08:56:04Z</time></trkpt><trkpt lat="44.75214141490246" lon="9.811551090241817"><ele>731.5714285714287</ele><time>2026-04-19T08:56:08Z</time></trkpt><trkpt lat="44.75220978760768" lon="9.811524442016948"><ele>729.4285714285714</ele><time>2026-04-19T08:56:30Z</time></trkpt><trkpt lat="44.75226700359733" lon="9.811484729706022"><ele>727.2857142857143</ele><time>2026-04-19T08:56:56Z</time></trkpt><trkpt lat="44.75232305535596" lon="9.811435284651083"><ele>725.1428571428572</ele><time>2026-04-19T08:57:00Z</time></trkpt><trkpt lat="44.75236782472852" lon="9.811366549838029"><ele>723.0</ele><time>2026-04-19T08:57:03Z</time></trkpt><trkpt lat="44.75242490792128" lon="9.811249425356648"><ele>723.0</ele><time>2026-04-19T08:57:05Z</time></trkpt><trkpt lat="44.75247600353812" lon="9.811158000952355"><ele>723.0</ele><time>2026-04-19T08:57:10Z</time></trkpt><trkpt lat="44.7525279702425" lon="9.811044962667678"><ele>723.0</ele><time>2026-04-19T08:57:13Z</time></trkpt><trkpt lat="44.75258285011025" lon="9.810983307062525"><ele>723.0</ele><time>2026-04-19T08:57:14.999Z</time></trkpt><trkpt lat="44.7526385203403" lon="9.810890494234297"><ele>723.0</ele><time>2026-04-19T08:57:18.999Z</time></trkpt><trkpt lat="44.752639628228856" lon="9.810785337091438"><ele>723.0</ele><time>2026-04-19T08:57:22.999Z</time></trkpt><trkpt lat="44.75270137334219" lon="9.81066952514557"><ele>717.8333333333334</ele><time>2026-04-19T08:57:25.999Z</time></trkpt><trkpt lat="44.75273425876085" lon="9.810553323354812"><ele>712.6666666666666</ele><time>2026-04-19T08:57:28Z</time></trkpt><trkpt lat="44.75276072305327" lon="9.81044467097741"><ele>707.5</ele><time>2026-04-19T08:57:29Z</time></trkpt><trkpt lat="44.75280582361902" lon="9.810339283501731"><ele>702.3333333333333</ele><time>2026-04-19T08:57:32Z</time></trkpt><trkpt lat="44.75283302116972" lon="9.810257521024086"><ele>697.1666666666666</ele><time>2026-04-19T08:57:34Z</time></trkpt><trkpt lat="44.75288929828648" lon="9.810129801034552"><ele>692.0</ele><time>2026-04-19T08:57:36Z</time></trkpt><trkpt lat="44.75296589070208" lon="9.810029617850804"><ele>691.4285714285714</ele><time>2026-04-19T08:57:38Z</time></trkpt><trkpt lat="44.75301918949886" lon="9.809980158868143"><ele>690.8571428571429</ele><time>2026-04-19T08:57:40Z</time></trkpt><trkpt lat="44.75304715328747" lon="9.809898033380305"><ele>690.2857142857143</ele><time>2026-04-19T08:57:42Z</time></trkpt><trkpt lat="44.753101240601865" lon="9.80982525487938"><ele>689.7142857142858</ele><time>2026-04-19T08:57:44Z</time></trkpt><trkpt lat="44.75315125694199" lon="9.809753267374523"><ele>689.1428571428571</ele><time>2026-04-19T08:57:47Z</time></trkpt><trkpt lat="44.753210097643084" lon="9.80968615067099"><ele>688.5714285714287</ele><time>2026-04-19T08:57:50Z</time></trkpt><trkpt lat="44.75323038075525" lon="9.809589726240985"><ele>688.0</ele><time>2026-04-19T08:57:55Z</time></trkpt><trkpt lat="44.75324137362888" lon="9.809500403718424"><ele>688.0</ele><time>2026-04-19T08:57:58Z</time></trkpt><trkpt lat="44.7532909043198" lon="9.809390610186682"><ele>688.0</ele><time>2026-04-19T08:58:01Z</time></trkpt><trkpt lat="44.75331644241421" lon="9.809296330390787"><ele>688.0</ele><time>2026-04-19T08:58:05Z</time></trkpt><trkpt lat="44.75333412420291" lon="9.809177269705236"><ele>688.0</ele><time>2026-04-19T08:58:09Z</time></trkpt><trkpt lat="44.75335311970992" lon="9.809085921645515"><ele>688.0</ele><time>2026-04-19T08:58:14Z</time></trkpt><trkpt lat="44.75338694412824" lon="9.808957927438527"><ele>688.0</ele><time>2026-04-19T08:58:21Z</time></trkpt><trkpt lat="44.753418554827775" lon="9.808861015833427"><ele>686.1666666666667</ele><time>2026-04-19T08:58:24Z</time></trkpt><trkpt lat="44.75344358618794" lon="9.8087466343268"><ele>684.3333333333334</ele><time>2026-04-19T08:58:27Z</time></trkpt><trkpt lat="44.75349321878772" lon="9.808640969030074"><ele>682.5</ele><time>2026-04-19T08:58:29Z</time></trkpt><trkpt lat="44.75351815682569" lon="9.808549884583655"><ele>680.6666666666666</ele><time>2026-04-19T08:58:38Z</time></trkpt><trkpt lat="44.75350304036245" lon="9.808439174349138"><ele>678.8333333333333</ele><time>2026-04-19T08:58:41Z</time></trkpt><trkpt lat="44.753540010568024" lon="9.808353020407646"><ele>677.0</ele><time>2026-04-19T08:58:44Z</time></trkpt><trkpt lat="44.753558572690835" lon="9.808230601456277"><ele>673.6666666666666</ele><time>2026-04-19T08:58:49Z</time></trkpt><trkpt lat="44.753549959726996" lon="9.808139833870067"><ele>670.3333333333333</ele><time>2026-04-19T08:58:53Z</time></trkpt><trkpt lat="44.75354649901247" lon="9.808020874685443"><ele>667.0</ele><time>2026-04-19T08:58:56Z</time></trkpt><trkpt lat="44.75352937841777" lon="9.807902677473871"><ele>663.6666666666666</ele><time>2026-04-19T08:59:00Z</time></trkpt><trkpt lat="44.75352500112319" lon="9.807763996505669"><ele>660.3333333333334</ele><time>2026-04-19T08:59:05Z</time></trkpt><trkpt lat="44.75349823352874" lon="9.807668142496174"><ele>657.0</ele><time>2026-04-19T08:59:07Z</time></trkpt><trkpt lat="44.753472508194456" lon="9.807578852076988"><ele>653.8333333333334</ele><time>2026-04-19T08:59:10Z</time></trkpt><trkpt lat="44.75348330405145" lon="9.807471722351004"><ele>650.6666666666666</ele><time>2026-04-19T08:59:13Z</time></trkpt><trkpt lat="44.753495654503574" lon="9.807360572885608"><ele>647.5</ele><time>2026-04-19T08:59:16Z</time></trkpt><trkpt lat="44.75340111964492" lon="9.80735462886989"><ele>644.3333333333333</ele><time>2026-04-19T08:59:19Z</time></trkpt><trkpt lat="44.753308341883084" lon="9.807407048123006"><ele>641.1666666666666</ele><time>2026-04-19T08:59:20.999Z</time></trkpt><trkpt lat="44.75324437858851" lon="9.807486802396845"><ele>638.0</ele><time>2026-04-19T08:59:21.999Z</time></trkpt><trkpt lat="44.75318161555837" lon="9.807576479024458"><ele>638.0</ele><time>2026-04-19T08:59:22.999Z</time></trkpt><trkpt lat="44.75308059364974" lon="9.807642829994961"><ele>638.0</ele><time>2026-04-19T08:59:24.999Z</time></trkpt><trkpt lat="44.75298431882495" lon="9.807712693093215"><ele>638.0</ele><time>2026-04-19T08:59:26.999Z</time></trkpt><trkpt lat="44.75288861740255" lon="9.807797243375804"><ele>638.0</ele><time>2026-04-19T08:59:28.999Z</time></trkpt><trkpt lat="44.752802429438766" lon="9.807880582962916"><ele>638.0</ele><time>2026-04-19T08:59:30.999Z</time></trkpt><trkpt lat="44.75271129863696" lon="9.807975949971716"><ele>638.4</ele><time>2026-04-19T08:59:32.999Z</time></trkpt><trkpt lat="44.752620187164574" lon="9.808071360508126"><ele>638.8</ele><time>2026-04-19T08:59:35Z</time></trkpt><trkpt lat="44.75251866939715" lon="9.808129550807967"><ele>639.2</ele><time>2026-04-19T08:59:37Z</time></trkpt><trkpt lat="44.752409833573786" lon="9.808162377133431"><ele>639.6</ele><time>2026-04-19T08:59:39Z</time></trkpt><trkpt lat="44.7523100780798" lon="9.808218475127388"><ele>640.0</ele><time>2026-04-19T08:59:41Z</time></trkpt><trkpt lat="44.75225269144998" lon="9.808275610278962"><ele>640.0</ele><time>2026-04-19T08:59:42Z</time></trkpt><trkpt lat="44.75213018992781" lon="9.808336374974338"><ele>640.0</ele><time>2026-04-19T08:59:44Z</time></trkpt><trkpt lat="44.75203768756901" lon="9.808357801044313"><ele>640.0</ele><time>2026-04-19T08:59:45Z</time></trkpt><trkpt lat="44.75195719376628" lon="9.808368640216091"><ele>640.0</ele><time>2026-04-19T08:59:46Z</time></trkpt><trkpt lat="44.75189470384954" lon="9.808387977754936"><ele>640.0</ele><time>2026-04-19T08:59:47Z</time></trkpt><trkpt lat="44.751814274846076" lon="9.808421982778174"><ele>638.1666666666667</ele><time>2026-04-19T08:59:48Z</time></trkpt><trkpt lat="44.75172228370729" lon="9.808442218739676"><ele>636.3333333333334</ele><time>2026-04-19T08:59:49Z</time></trkpt><trkpt lat="44.75163625824779" lon="9.808448388240155"><ele>634.5</ele><time>2026-04-19T08:59:50Z</time></trkpt><trkpt lat="44.75156401418075" lon="9.808482722159823"><ele>632.6666666666666</ele><time>2026-04-19T08:59:51Z</time></trkpt><trkpt lat="44.75150520317348" lon="9.808519083910946"><ele>630.8333333333333</ele><time>2026-04-19T08:59:52Z</time></trkpt><trkpt lat="44.75144504666512" lon="9.808558552535263"><ele>629.0</ele><time>2026-04-19T08:59:53Z</time></trkpt><trkpt lat="44.75138560334106" lon="9.808595959806384"><ele>632.1666666666666</ele><time>2026-04-19T08:59:54Z</time></trkpt><trkpt lat="44.75127644386868" lon="9.808638380600966"><ele>635.3333333333333</ele><time>2026-04-19T08:59:56Z</time></trkpt><trkpt lat="44.75118096232193" lon="9.808677970391198"><ele>638.5</ele><time>2026-04-19T08:59:58Z</time></trkpt><trkpt lat="44.75111136773813" lon="9.808688815327933"><ele>641.6666666666666</ele><time>2026-04-19T09:00:00Z</time></trkpt><trkpt lat="44.751051020788275" lon="9.808660597216955"><ele>644.8333333333334</ele><time>2026-04-19T09:00:02Z</time></trkpt><trkpt lat="44.75098237449639" lon="9.808623632513395"><ele>648.0</ele><time>2026-04-19T09:00:03Z</time></trkpt><trkpt lat="44.750908709776304" lon="9.80857543235217"><ele>648.0</ele><time>2026-04-19T09:00:04Z</time></trkpt><trkpt lat="44.750851863958076" lon="9.808533723473444"><ele>648.0</ele><time>2026-04-19T09:00:05Z</time></trkpt><trkpt lat="44.750840480799795" lon="9.808419753522"><ele>648.0</ele><time>2026-04-19T09:00:07Z</time></trkpt><trkpt lat="44.75080688084933" lon="9.808274034229141"><ele>648.0</ele><time>2026-04-19T09:00:09Z</time></trkpt><trkpt lat="44.75071489831685" lon="9.80813554159483"><ele>648.0</ele><time>2026-04-19T09:00:11Z</time></trkpt><trkpt lat="44.750650906898336" lon="9.808044559836084"><ele>646.1666666666666</ele><time>2026-04-19T09:00:12Z</time></trkpt><trkpt lat="44.750610634324545" lon="9.807965755261566"><ele>644.3333333333334</ele><time>2026-04-19T09:00:13Z</time></trkpt><trkpt lat="44.75051376304683" lon="9.807884534355615"><ele>642.5</ele><time>2026-04-19T09:00:15Z</time></trkpt><trkpt lat="44.75039455980598" lon="9.80784224407866"><ele>640.6666666666667</ele><time>2026-04-19T09:00:17Z</time></trkpt><trkpt lat="44.75033089907691" lon="9.807810256790972"><ele>638.8333333333334</ele><time>2026-04-19T09:00:18Z</time></trkpt><trkpt lat="44.750269953525084" lon="9.80774991664198"><ele>637.0</ele><time>2026-04-19T09:00:19Z</time></trkpt><trkpt lat="44.75016789235816" lon="9.807686240812368"><ele>637.0</ele><time>2026-04-19T09:00:21Z</time></trkpt><trkpt lat="44.750058283165025" lon="9.807713193650653"><ele>637.0</ele><time>2026-04-19T09:00:23Z</time></trkpt><trkpt lat="44.749980100374145" lon="9.807716426407302"><ele>637.0</ele><time>2026-04-19T09:00:25Z</time></trkpt><trkpt lat="44.74988452211113" lon="9.807685418164002"><ele>637.0</ele><time>2026-04-19T09:00:27Z</time></trkpt><trkpt lat="44.749777372761564" lon="9.80760355705883"><ele>637.0</ele><time>2026-04-19T09:00:29Z</time></trkpt><trkpt lat="44.74970018848351" lon="9.80758432276139"><ele>633.7142857142857</ele><time>2026-04-19T09:00:32Z</time></trkpt><trkpt lat="44.74965020759803" lon="9.807512028604371"><ele>630.4285714285714</ele><time>2026-04-19T09:00:34Z</time></trkpt><trkpt lat="44.74961528858115" lon="9.807431408677804"><ele>627.1428571428571</ele><time>2026-04-19T09:00:36Z</time></trkpt><trkpt lat="44.74956269449899" lon="9.807357485694785"><ele>623.8571428571429</ele><time>2026-04-19T09:00:38Z</time></trkpt><trkpt lat="44.74951120046343" lon="9.807284712180317"><ele>620.5714285714286</ele><time>2026-04-19T09:00:40Z</time></trkpt><trkpt lat="44.749476169769345" lon="9.807199967841738"><ele>617.2857142857142</ele><time>2026-04-19T09:00:42Z</time></trkpt><trkpt lat="44.749439762654916" lon="9.80711418822991"><ele>614.0</ele><time>2026-04-19T09:00:44Z</time></trkpt><trkpt lat="44.749382884894956" lon="9.807018478758792"><ele>614.0</ele><time>2026-04-19T09:00:46Z</time></trkpt><trkpt lat="44.749342671706955" lon="9.80694383360431"><ele>614.0</ele><time>2026-04-19T09:00:48Z</time></trkpt><trkpt lat="44.74931480496029" lon="9.806850743649457"><ele>614.0</ele><time>2026-04-19T09:00:51Z</time></trkpt><trkpt lat="44.749277615788905" lon="9.806777494894325"><ele>614.0</ele><time>2026-04-19T09:00:53Z</time></trkpt><trkpt lat="44.74924737832842" lon="9.80668044005258"><ele>614.0</ele><time>2026-04-19T09:00:55Z</time></trkpt><trkpt lat="44.74919133165479" lon="9.806572418532156"><ele>614.0</ele><time>2026-04-19T09:00:57Z</time></trkpt><trkpt lat="44.749120737128386" lon="9.8064459192357"><ele>610.8333333333333</ele><time>2026-04-19T09:00:59Z</time></trkpt><trkpt lat="44.74907498583216" lon="9.8063673525671"><ele>607.6666666666666</ele><time>2026-04-19T09:01:01Z</time></trkpt><trkpt lat="44.74906213043025" lon="9.806265417174473"><ele>604.5</ele><time>2026-04-19T09:01:03Z</time></trkpt><trkpt lat="44.74912034742661" lon="9.806159129833492"><ele>601.3333333333334</ele><time>2026-04-19T09:01:05Z</time></trkpt><trkpt lat="44.74917112497377" lon="9.806052563039728"><ele>598.1666666666667</ele><time>2026-04-19T09:01:07Z</time></trkpt><trkpt lat="44.74917811175718" lon="9.805919902899083"><ele>595.0</ele><time>2026-04-19T09:01:09Z</time></trkpt><trkpt lat="44.74915843947787" lon="9.805755450424774"><ele>593.0</ele><time>2026-04-19T09:01:12Z</time></trkpt><trkpt lat="44.74914819872945" lon="9.805631501518572"><ele>591.0</ele><time>2026-04-19T09:01:14Z</time></trkpt><trkpt lat="44.74911866686615" lon="9.805534915891856"><ele>589.0</ele><time>2026-04-19T09:01:16Z</time></trkpt><trkpt lat="44.749094625721874" lon="9.805420881540224"><ele>587.0</ele><time>2026-04-19T09:01:23.999Z</time></trkpt><trkpt lat="44.74906772631102" lon="9.805328696726328"><ele>585.0</ele><time>2026-04-19T09:01:29.999Z</time></trkpt><trkpt lat="44.7490172821959" lon="9.805265944128532"><ele>583.0</ele><time>2026-04-19T09:01:31.999Z</time></trkpt><trkpt lat="44.74895506718655" lon="9.805206176723718"><ele>581.2857142857143</ele><time>2026-04-19T09:01:33.999Z</time></trkpt><trkpt lat="44.748882180760894" lon="9.805157778419627"><ele>579.5714285714286</ele><time>2026-04-19T09:01:35.999Z</time></trkpt><trkpt lat="44.748820678405444" lon="9.80510600006613"><ele>577.8571428571429</ele><time>2026-04-19T09:01:37.999Z</time></trkpt><trkpt lat="44.74876372582966" lon="9.805039617869875"><ele>576.1428571428571</ele><time>2026-04-19T09:01:41Z</time></trkpt><trkpt lat="44.748735294916266" lon="9.804948406926643"><ele>574.4285714285714</ele><time>2026-04-19T09:01:43Z</time></trkpt><trkpt lat="44.748745107405504" lon="9.804842934194319"><ele>572.7142857142858</ele><time>2026-04-19T09:01:45Z</time></trkpt><trkpt lat="44.748774413483055" lon="9.804758939405874"><ele>571.0</ele><time>2026-04-19T09:01:47Z</time></trkpt><trkpt lat="44.74882112709461" lon="9.804666787794936"><ele>571.0</ele><time>2026-04-19T09:01:50Z</time></trkpt><trkpt lat="44.74874323913797" lon="9.80462584065609"><ele>571.0</ele><time>2026-04-19T09:02:28Z</time></trkpt><trkpt lat="44.74867992181706" lon="9.804580381264756"><ele>571.0</ele><time>2026-04-19T09:02:32Z</time></trkpt><trkpt lat="44.74858644891115" lon="9.804572645073359"><ele>571.0</ele><time>2026-04-19T09:02:35Z</time></trkpt><trkpt lat="44.748540637891445" lon="9.804495876709925"><ele>571.0</ele><time>2026-04-19T09:02:39Z</time></trkpt><trkpt lat="44.74855994660194" lon="9.804367034182054"><ele>571.0</ele><time>2026-04-19T09:02:41Z</time></trkpt><trkpt lat="44.74860531563225" lon="9.804292525615077"><ele>567.6</ele><time>2026-04-19T09:02:42Z</time></trkpt><trkpt lat="44.74865060978755" lon="9.804178246697363"><ele>564.2</ele><time>2026-04-19T09:02:44Z</time></trkpt><trkpt lat="44.748672223122995" lon="9.80403948707703"><ele>560.8</ele><time>2026-04-19T09:02:46Z</time></trkpt><trkpt lat="44.74868652800885" lon="9.803909781330816"><ele>557.4</ele><time>2026-04-19T09:02:48Z</time></trkpt><trkpt lat="44.74863394884008" lon="9.803755356559146"><ele>554.0</ele><time>2026-04-19T09:02:50Z</time></trkpt><trkpt lat="44.748598153758486" lon="9.803674301647304"><ele>554.0</ele><time>2026-04-19T09:02:51Z</time></trkpt><trkpt lat="44.74856927566007" lon="9.803591412072175"><ele>554.0</ele><time>2026-04-19T09:02:52Z</time></trkpt><trkpt lat="44.748542143961274" lon="9.803476616105526"><ele>554.0</ele><time>2026-04-19T09:02:54Z</time></trkpt><trkpt lat="44.74852677785858" lon="9.803342376160284"><ele>554.0</ele><time>2026-04-19T09:02:56Z</time></trkpt><trkpt lat="44.74858859319723" lon="9.803197592459878"><ele>554.0</ele><time>2026-04-19T09:02:58Z</time></trkpt><trkpt lat="44.74861696947513" lon="9.803023107939415"><ele>552.8</ele><time>2026-04-19T09:03:00Z</time></trkpt><trkpt lat="44.74863890441541" lon="9.802899508444439"><ele>551.5999999999999</ele><time>2026-04-19T09:03:02Z</time></trkpt><trkpt lat="44.74865933521329" lon="9.802736600922161"><ele>550.4</ele><time>2026-04-19T09:03:04Z</time></trkpt><trkpt lat="44.74867379506068" lon="9.802614142936125"><ele>549.1999999999999</ele><time>2026-04-19T09:03:06Z</time></trkpt><trkpt lat="44.74871099456618" lon="9.802451066632178"><ele>548.0</ele><time>2026-04-19T09:03:08Z</time></trkpt><trkpt lat="44.7487462088022" lon="9.802296549363888"><ele>547.4</ele><time>2026-04-19T09:03:10Z</time></trkpt><trkpt lat="44.74877090490533" lon="9.802156392145498"><ele>546.8</ele><time>2026-04-19T09:03:12Z</time></trkpt><trkpt lat="44.748796356228986" lon="9.801983445202492"><ele>546.2</ele><time>2026-04-19T09:03:14Z</time></trkpt><trkpt lat="44.7488233903822" lon="9.801849789546802"><ele>545.6</ele><time>2026-04-19T09:03:16Z</time></trkpt><trkpt lat="44.74884526160943" lon="9.801756570638918"><ele>545.0</ele><time>2026-04-19T09:03:18Z</time></trkpt><trkpt lat="44.74888624747208" lon="9.801616172218054"><ele>544.6666666666666</ele><time>2026-04-19T09:03:19.999Z</time></trkpt><trkpt lat="44.74889586784839" lon="9.801521687021554"><ele>544.3333333333333</ele><time>2026-04-19T09:03:20.999Z</time></trkpt><trkpt lat="44.74892705012454" lon="9.801411047561736"><ele>544.0</ele><time>2026-04-19T09:03:23.999Z</time></trkpt><trkpt lat="44.748965444588364" lon="9.801310718425778"><ele>543.6666666666666</ele><time>2026-04-19T09:03:25.999Z</time></trkpt><trkpt lat="44.749019920386175" lon="9.801197229797634"><ele>543.3333333333334</ele><time>2026-04-19T09:03:27.999Z</time></trkpt><trkpt lat="44.74907818418059" lon="9.801074679353865"><ele>543.0</ele><time>2026-04-19T09:03:29.999Z</time></trkpt><trkpt lat="44.74914409351068" lon="9.800973252086397"><ele>543.0</ele><time>2026-04-19T09:03:31.999Z</time></trkpt><trkpt lat="44.749190926877894" lon="9.800907411487156"><ele>543.0</ele><time>2026-04-19T09:03:32.999Z</time></trkpt><trkpt lat="44.74923593636204" lon="9.80077174818603"><ele>543.0</ele><time>2026-04-19T09:03:34.999Z</time></trkpt><trkpt lat="44.74927301585051" lon="9.800693184087576"><ele>543.0</ele><time>2026-04-19T09:03:36.999Z</time></trkpt><trkpt lat="44.749314414919894" lon="9.800582510609326"><ele>543.0</ele><time>2026-04-19T09:03:38.999Z</time></trkpt><trkpt lat="44.749354553581995" lon="9.80045185672894"><ele>543.0</ele><time>2026-04-19T09:03:40.999Z</time></trkpt><trkpt lat="44.74937504523564" lon="9.800311480328434"><ele>543.0</ele><time>2026-04-19T09:03:42.999Z</time></trkpt><trkpt lat="44.74934587476021" lon="9.800223820971528"><ele>543.0</ele><time>2026-04-19T09:03:43.999Z</time></trkpt><trkpt lat="44.74930968122328" lon="9.800125092909063"><ele>543.0</ele><time>2026-04-19T09:03:44.999Z</time></trkpt><trkpt lat="44.749284920674945" lon="9.80003763423617"><ele>543.0</ele><time>2026-04-19T09:03:46Z</time></trkpt><trkpt lat="44.749302020486404" lon="9.799874412828975"><ele>543.0</ele><time>2026-04-19T09:03:48Z</time></trkpt><trkpt lat="44.74932741066858" lon="9.799766048695354"><ele>543.0</ele><time>2026-04-19T09:03:49Z</time></trkpt><trkpt lat="44.749354891226055" lon="9.799657385761723"><ele>540.0</ele><time>2026-04-19T09:03:50Z</time></trkpt><trkpt lat="44.74939517421221" lon="9.799512053559477"><ele>537.0</ele><time>2026-04-19T09:03:52Z</time></trkpt><trkpt lat="44.7494138027082" lon="9.799426382686235"><ele>534.0</ele><time>2026-04-19T09:03:53Z</time></trkpt><trkpt lat="44.74942498586365" lon="9.799333286171066"><ele>531.0</ele><time>2026-04-19T09:03:54Z</time></trkpt><trkpt lat="44.74943566743872" lon="9.799234624885646"><ele>528.0</ele><time>2026-04-19T09:03:55Z</time></trkpt><trkpt lat="44.74944694328551" lon="9.799121530225888"><ele>525.0</ele><time>2026-04-19T09:03:56Z</time></trkpt><trkpt lat="44.749459167865155" lon="9.799031887988619"><ele>524.6666666666666</ele><time>2026-04-19T09:03:57Z</time></trkpt><trkpt lat="44.749483209407515" lon="9.798946777305508"><ele>524.3333333333334</ele><time>2026-04-19T09:03:58Z</time></trkpt><trkpt lat="44.74950398340188" lon="9.798855477511538"><ele>524.0</ele><time>2026-04-19T09:03:59Z</time></trkpt><trkpt lat="44.749525633882065" lon="9.798769105047974"><ele>523.6666666666667</ele><time>2026-04-19T09:04:01Z</time></trkpt><trkpt lat="44.749637978179045" lon="9.798720775552525"><ele>523.3333333333334</ele><time>2026-04-19T09:04:04Z</time></trkpt><trkpt lat="44.74971301527821" lon="9.798689194529713"><ele>523.0</ele><time>2026-04-19T09:04:05Z</time></trkpt><trkpt lat="44.74977577075316" lon="9.798664900246978"><ele>523.0</ele><time>2026-04-19T09:04:06Z</time></trkpt><trkpt lat="44.749885649412846" lon="9.798617732860235"><ele>523.0</ele><time>2026-04-19T09:04:08Z</time></trkpt><trkpt lat="44.749933639630804" lon="9.798457012994353"><ele>523.0</ele><time>2026-04-19T09:04:10Z</time></trkpt><trkpt lat="44.74994384603571" lon="9.798312262669656"><ele>523.0</ele><time>2026-04-19T09:04:11Z</time></trkpt><trkpt lat="44.74995004600043" lon="9.798171895114681"><ele>523.0</ele><time>2026-04-19T09:04:12Z</time></trkpt><trkpt lat="44.74996808562689" lon="9.798085937319163"><ele>523.8</ele><time>2026-04-19T09:04:13Z</time></trkpt><trkpt lat="44.75003394354892" lon="9.79792596680316"><ele>524.5999999999999</ele><time>2026-04-19T09:04:15Z</time></trkpt><trkpt lat="44.75008685193647" lon="9.797821413553388"><ele>525.4000000000001</ele><time>2026-04-19T09:04:16Z</time></trkpt><trkpt lat="44.75013828706604" lon="9.797727839511236"><ele>526.2</ele><time>2026-04-19T09:04:17Z</time></trkpt><trkpt lat="44.75017111264598" lon="9.79762462942063"><ele>527.0</ele><time>2026-04-19T09:04:18Z</time></trkpt><trkpt lat="44.75018738145688" lon="9.797522163648942"><ele>528.0</ele><time>2026-04-19T09:04:19Z</time></trkpt><trkpt lat="44.750193529806396" lon="9.797399418127581"><ele>529.0</ele><time>2026-04-19T09:04:20Z</time></trkpt><trkpt lat="44.75018186957355" lon="9.797272053552016"><ele>530.0</ele><time>2026-04-19T09:04:21Z</time></trkpt><trkpt lat="44.75017456990646" lon="9.79717137080082"><ele>531.0</ele><time>2026-04-19T09:04:22Z</time></trkpt><trkpt lat="44.75020626406347" lon="9.797073282749267"><ele>532.0</ele><time>2026-04-19T09:04:23Z</time></trkpt><trkpt lat="44.7502563439051" lon="9.796937245870225"><ele>533.0</ele><time>2026-04-19T09:04:24Z</time></trkpt><trkpt lat="44.75030042277423" lon="9.796822397807725"><ele>529.6666666666666</ele><time>2026-04-19T09:04:25Z</time></trkpt><trkpt lat="44.75032265055193" lon="9.79669788921355"><ele>526.3333333333333</ele><time>2026-04-19T09:04:26Z</time></trkpt><trkpt lat="44.75034678908585" lon="9.796581026330351"><ele>523.0</ele><time>2026-04-19T09:04:27Z</time></trkpt><trkpt lat="44.75036233245751" lon="9.796473637664931"><ele>519.6666666666666</ele><time>2026-04-19T09:04:28Z</time></trkpt><trkpt lat="44.75037193871428" lon="9.796353300496452"><ele>516.3333333333334</ele><time>2026-04-19T09:04:29Z</time></trkpt><trkpt lat="44.750407336610124" lon="9.796242271290415"><ele>513.0</ele><time>2026-04-19T09:04:30Z</time></trkpt><trkpt lat="44.75043195369668" lon="9.796136923260628"><ele>513.0000000000001</ele><time>2026-04-19T09:04:31Z</time></trkpt><trkpt lat="44.75045554517741" lon="9.796045050115067"><ele>513.0</ele><time>2026-04-19T09:04:32Z</time></trkpt><trkpt lat="44.75048443380616" lon="9.795960054016222"><ele>513.0</ele><time>2026-04-19T09:04:33Z</time></trkpt><trkpt lat="44.75051929463056" lon="9.795865936635604"><ele>513.0</ele><time>2026-04-19T09:04:34Z</time></trkpt><trkpt lat="44.750545234835414" lon="9.79577827785181"><ele>513.0</ele><time>2026-04-19T09:04:35Z</time></trkpt><trkpt lat="44.75058697790195" lon="9.795690012214362"><ele>513.0000000000001</ele><time>2026-04-19T09:04:36Z</time></trkpt><trkpt lat="44.75063141482028" lon="9.795595514552677"><ele>513.0</ele><time>2026-04-19T09:04:37Z</time></trkpt><trkpt lat="44.75065883477571" lon="9.795485656183386"><ele>513.0</ele><time>2026-04-19T09:04:38Z</time></trkpt><trkpt lat="44.75068193518083" lon="9.795365154991998"><ele>513.0</ele><time>2026-04-19T09:04:39Z</time></trkpt><trkpt lat="44.750711954186855" lon="9.795267108505568"><ele>513.0</ele><time>2026-04-19T09:04:40Z</time></trkpt><trkpt lat="44.750749120038265" lon="9.79518361643677"><ele>513.0</ele><time>2026-04-19T09:04:41Z</time></trkpt><trkpt lat="44.750845118694755" lon="9.795066719906071"><ele>513.0</ele><time>2026-04-19T09:04:43Z</time></trkpt><trkpt lat="44.75092458207829" lon="9.79500502352818"><ele>513.8</ele><time>2026-04-19T09:04:44Z</time></trkpt><trkpt lat="44.75099331963235" lon="9.794933130573874"><ele>514.5999999999999</ele><time>2026-04-19T09:04:45Z</time></trkpt><trkpt lat="44.75104814274755" lon="9.79484658850105"><ele>515.4000000000001</ele><time>2026-04-19T09:04:47Z</time></trkpt><trkpt lat="44.75108009637681" lon="9.79475219439131"><ele>516.2</ele><time>2026-04-19T09:04:50Z</time></trkpt><trkpt lat="44.751046264493326" lon="9.79455632447175"><ele>517.0</ele><time>2026-04-19T09:04:52Z</time></trkpt><trkpt lat="44.75102907192474" lon="9.794418244683651"><ele>513.4</ele><time>2026-04-19T09:04:53Z</time></trkpt><trkpt lat="44.75104195085657" lon="9.794234959898843"><ele>509.80000000000007</ele><time>2026-04-19T09:04:54Z</time></trkpt><trkpt lat="44.751060289744785" lon="9.79411217270082"><ele>506.2</ele><time>2026-04-19T09:04:55Z</time></trkpt><trkpt lat="44.751078617711116" lon="9.793943750002793"><ele>502.6</ele><time>2026-04-19T09:04:57Z</time></trkpt><trkpt lat="44.75106376855353" lon="9.793842838993253"><ele>499.0</ele><time>2026-04-19T09:04:58Z</time></trkpt><trkpt lat="44.75104681671532" lon="9.793754498310413"><ele>499.0</ele><time>2026-04-19T09:04:59Z</time></trkpt><trkpt lat="44.75105329068449" lon="9.793647956732412"><ele>499.0</ele><time>2026-04-19T09:05:01Z</time></trkpt><trkpt lat="44.75109410798977" lon="9.79352998523101"><ele>499.0</ele><time>2026-04-19T09:05:03Z</time></trkpt><trkpt lat="44.751136120390704" lon="9.793450482040395"><ele>499.0</ele><time>2026-04-19T09:05:04Z</time></trkpt><trkpt lat="44.75117555710874" lon="9.793299486675606"><ele>499.0</ele><time>2026-04-19T09:05:06Z</time></trkpt><trkpt lat="44.751217943346035" lon="9.793143592226356"><ele>499.1666666666667</ele><time>2026-04-19T09:05:08Z</time></trkpt><trkpt lat="44.75117491270854" lon="9.793021330481583"><ele>499.33333333333337</ele><time>2026-04-19T09:05:10Z</time></trkpt><trkpt lat="44.751125559420025" lon="9.792948458984695"><ele>499.5</ele><time>2026-04-19T09:05:11Z</time></trkpt><trkpt lat="44.75110778464341" lon="9.792848772991658"><ele>499.66666666666663</ele><time>2026-04-19T09:05:12Z</time></trkpt><trkpt lat="44.75112372853882" lon="9.792748165289192"><ele>499.8333333333333</ele><time>2026-04-19T09:05:13Z</time></trkpt><trkpt lat="44.751148631281275" lon="9.792622635273702"><ele>500.0</ele><time>2026-04-19T09:05:14Z</time></trkpt><trkpt lat="44.75116794638983" lon="9.792503625576575"><ele>499.99999999999994</ele><time>2026-04-19T09:05:15Z</time></trkpt><trkpt lat="44.75118615386665" lon="9.792397740712923"><ele>500.0</ele><time>2026-04-19T09:05:16Z</time></trkpt><trkpt lat="44.75120220227479" lon="9.7922949075153"><ele>500.0</ele><time>2026-04-19T09:05:17Z</time></trkpt><trkpt lat="44.751220473800025" lon="9.79219929466776"><ele>500.0</ele><time>2026-04-19T09:05:17.999Z</time></trkpt><trkpt lat="44.751249692941904" lon="9.79210604330708"><ele>499.99999999999994</ele><time>2026-04-19T09:05:18.999Z</time></trkpt><trkpt lat="44.75128913552668" lon="9.79200700610671"><ele>500.0</ele><time>2026-04-19T09:05:19.999Z</time></trkpt><trkpt lat="44.75133586867799" lon="9.791908857711533"><ele>500.16666666666663</ele><time>2026-04-19T09:05:20.999Z</time></trkpt><trkpt lat="44.751378402436764" lon="9.791816186499698"><ele>500.3333333333333</ele><time>2026-04-19T09:05:21.999Z</time></trkpt><trkpt lat="44.751412378917344" lon="9.791734195890832"><ele>500.5</ele><time>2026-04-19T09:05:22.999Z</time></trkpt><trkpt lat="44.75145835912285" lon="9.791643481707045"><ele>500.66666666666663</ele><time>2026-04-19T09:05:23.999Z</time></trkpt><trkpt lat="44.75150145960248" lon="9.791521940914286"><ele>500.8333333333333</ele><time>2026-04-19T09:05:24.999Z</time></trkpt><trkpt lat="44.75153711768859" lon="9.791399661444437"><ele>501.0</ele><time>2026-04-19T09:05:25.999Z</time></trkpt><trkpt lat="44.75156056967134" lon="9.791295437179075"><ele>501.0</ele><time>2026-04-19T09:05:26.999Z</time></trkpt><trkpt lat="44.751586950880935" lon="9.7911973720249"><ele>501.0</ele><time>2026-04-19T09:05:27.999Z</time></trkpt><trkpt lat="44.75160655436544" lon="9.791083574095317"><ele>501.0</ele><time>2026-04-19T09:05:29.999Z</time></trkpt><trkpt lat="44.75162397968242" lon="9.790975235190302"><ele>501.0</ele><time>2026-04-19T09:05:33.999Z</time></trkpt><trkpt lat="44.7517342063039" lon="9.7909854224107"><ele>501.0</ele><time>2026-04-19T09:05:35.999Z</time></trkpt><trkpt lat="44.75176833935509" lon="9.79106157874164"><ele>501.0</ele><time>2026-04-19T09:05:36.999Z</time></trkpt><trkpt lat="44.75182127848089" lon="9.791114154707731"><ele>496.8</ele><time>2026-04-19T09:05:38.999Z</time></trkpt><trkpt lat="44.75188595099285" lon="9.791184673953227"><ele>492.6</ele><time>2026-04-19T09:05:41.999Z</time></trkpt><trkpt lat="44.75195043680355" lon="9.791251651390448"><ele>488.4</ele><time>2026-04-19T09:05:44.999Z</time></trkpt><trkpt lat="44.75206867088558" lon="9.791091809038129"><ele>484.2</ele><time>2026-04-19T09:05:47.999Z</time></trkpt><trkpt lat="44.75210944988543" lon="9.791008528313075"><ele>480.0</ele><time>2026-04-19T09:05:48.999Z</time></trkpt><trkpt lat="44.75217798514382" lon="9.79093072492652"><ele>480.0</ele><time>2026-04-19T09:05:50.999Z</time></trkpt><trkpt lat="44.75225737931633" lon="9.790892922433496"><ele>480.0</ele><time>2026-04-19T09:05:53Z</time></trkpt><trkpt lat="44.75232465422119" lon="9.790847147268435"><ele>480.0</ele><time>2026-04-19T09:05:55Z</time></trkpt><trkpt lat="44.75240076004646" lon="9.790768281233197"><ele>480.0</ele><time>2026-04-19T09:05:57Z</time></trkpt><trkpt lat="44.75243776613097" lon="9.79066054383878"><ele>480.0</ele><time>2026-04-19T09:05:59Z</time></trkpt><trkpt lat="44.75244573103758" lon="9.790489652707071"><ele>480.0</ele><time>2026-04-19T09:06:01Z</time></trkpt><trkpt lat="44.752444257676785" lon="9.790390956936609"><ele>480.0</ele><time>2026-04-19T09:06:02Z</time></trkpt><trkpt lat="44.75244361623414" lon="9.790280685286204"><ele>480.0</ele><time>2026-04-19T09:06:03Z</time></trkpt><trkpt lat="44.75245272221518" lon="9.79016435152554"><ele>480.0</ele><time>2026-04-19T09:06:04Z</time></trkpt><trkpt lat="44.7524491016033" lon="9.790018831591793"><ele>480.0</ele><time>2026-04-19T09:06:06Z</time></trkpt><trkpt lat="44.752458029210295" lon="9.789879596787632"><ele>480.0</ele><time>2026-04-19T09:06:08Z</time></trkpt><trkpt lat="44.75248966712764" lon="9.789757194509939"><ele>479.0</ele><time>2026-04-19T09:06:10Z</time></trkpt><trkpt lat="44.75255563243297" lon="9.789609700763446"><ele>478.0</ele><time>2026-04-19T09:06:12Z</time></trkpt><trkpt lat="44.752605178274365" lon="9.789529659278445"><ele>477.0</ele><time>2026-04-19T09:06:13Z</time></trkpt><trkpt lat="44.75265407539992" lon="9.789452109650789"><ele>476.0</ele><time>2026-04-19T09:06:14Z</time></trkpt><trkpt lat="44.75273028016234" lon="9.789346396442056"><ele>475.0</ele><time>2026-04-19T09:06:16Z</time></trkpt><trkpt lat="44.75276642059106" lon="9.78917721538708"><ele>470.1666666666667</ele><time>2026-04-19T09:06:18Z</time></trkpt><trkpt lat="44.752766993525995" lon="9.789060111874438"><ele>465.33333333333337</ele><time>2026-04-19T09:06:19Z</time></trkpt><trkpt lat="44.75277013699699" lon="9.788962749762366"><ele>460.5</ele><time>2026-04-19T09:06:20Z</time></trkpt><trkpt lat="44.75275533645486" lon="9.788843900415646"><ele>455.66666666666663</ele><time>2026-04-19T09:06:21Z</time></trkpt><trkpt lat="44.7527459952608" lon="9.788725582740858"><ele>450.8333333333333</ele><time>2026-04-19T09:06:22Z</time></trkpt><trkpt lat="44.75273950651525" lon="9.788636249489493"><ele>446.0</ele><time>2026-04-19T09:06:23Z</time></trkpt><trkpt lat="44.752778580164424" lon="9.788467924464744"><ele>445.3333333333333</ele><time>2026-04-19T09:06:25Z</time></trkpt><trkpt lat="44.752795471077015" lon="9.788380329966525"><ele>444.66666666666663</ele><time>2026-04-19T09:06:26Z</time></trkpt><trkpt lat="44.75282434746879" lon="9.788281338934246"><ele>444.0</ele><time>2026-04-19T09:06:27Z</time></trkpt><trkpt lat="44.75287125616286" lon="9.788173235356048"><ele>443.33333333333337</ele><time>2026-04-19T09:06:28Z</time></trkpt><trkpt lat="44.75289697646099" lon="9.788091630235936"><ele>442.6666666666667</ele><time>2026-04-19T09:06:29Z</time></trkpt><trkpt lat="44.75292822890528" lon="9.787937299929768"><ele>442.0</ele><time>2026-04-19T09:06:31Z</time></trkpt><trkpt lat="44.75297670375087" lon="9.787781685985088"><ele>440.6666666666667</ele><time>2026-04-19T09:06:33Z</time></trkpt><trkpt lat="44.75297924239094" lon="9.787637854701643"><ele>439.33333333333337</ele><time>2026-04-19T09:06:35Z</time></trkpt><trkpt lat="44.752957495330044" lon="9.787492186618321"><ele>438.0</ele><time>2026-04-19T09:06:37Z</time></trkpt><trkpt lat="44.752963719562466" lon="9.787375955248466"><ele>436.66666666666663</ele><time>2026-04-19T09:06:39Z</time></trkpt><trkpt lat="44.752986700007284" lon="9.787288075559834"><ele>435.3333333333333</ele><time>2026-04-19T09:06:40Z</time></trkpt><trkpt lat="44.75300168836548" lon="9.787162871576351"><ele>434.0</ele><time>2026-04-19T09:06:42Z</time></trkpt><trkpt lat="44.75302207933213" lon="9.78701419089096"><ele>434.0</ele><time>2026-04-19T09:06:44Z</time></trkpt><trkpt lat="44.753028483769974" lon="9.786874778641804"><ele>434.0</ele><time>2026-04-19T09:06:46Z</time></trkpt><trkpt lat="44.75306319883044" lon="9.786729518265092"><ele>434.0</ele><time>2026-04-19T09:06:48Z</time></trkpt><trkpt lat="44.75312842200379" lon="9.786624300050836"><ele>434.0</ele><time>2026-04-19T09:06:50Z</time></trkpt><trkpt lat="44.75316114794013" lon="9.786520913656972"><ele>434.0</ele><time>2026-04-19T09:06:52Z</time></trkpt><trkpt lat="44.75319670953298" lon="9.786425640131643"><ele>432.2</ele><time>2026-04-19T09:06:54Z</time></trkpt><trkpt lat="44.753196769365005" lon="9.786299816540058"><ele>430.4</ele><time>2026-04-19T09:06:56Z</time></trkpt><trkpt lat="44.753197161800614" lon="9.786151354776711"><ele>428.6</ele><time>2026-04-19T09:06:58Z</time></trkpt><trkpt lat="44.753195753978346" lon="9.786019827370687"><ele>426.8</ele><time>2026-04-19T09:07:00Z</time></trkpt><trkpt lat="44.75324625664298" lon="9.785892180774884"><ele>425.0</ele><time>2026-04-19T09:07:02Z</time></trkpt><trkpt lat="44.75327708965078" lon="9.785786818353499"><ele>423.2</ele><time>2026-04-19T09:07:04Z</time></trkpt><trkpt lat="44.753332575099826" lon="9.785664612499188"><ele>421.4</ele><time>2026-04-19T09:07:06Z</time></trkpt><trkpt lat="44.7533273452819" lon="9.785516776736113"><ele>419.6</ele><time>2026-04-19T09:07:08Z</time></trkpt><trkpt lat="44.75333781777938" lon="9.785391898182695"><ele>417.8</ele><time>2026-04-19T09:07:10Z</time></trkpt><trkpt lat="44.75340041578989" lon="9.785279214532043"><ele>416.0</ele><time>2026-04-19T09:07:12Z</time></trkpt><trkpt lat="44.75339523840282" lon="9.7851431023052"><ele>414.16666666666663</ele><time>2026-04-19T09:07:14Z</time></trkpt><trkpt lat="44.753386278057576" lon="9.785001828649985"><ele>412.3333333333333</ele><time>2026-04-19T09:07:16Z</time></trkpt><trkpt lat="44.75340496258887" lon="9.784895916961254"><ele>410.5</ele><time>2026-04-19T09:07:18Z</time></trkpt><trkpt lat="44.753429958364165" lon="9.784760547954056"><ele>408.66666666666663</ele><time>2026-04-19T09:07:21Z</time></trkpt><trkpt lat="44.753429700310484" lon="9.784639194390033"><ele>406.8333333333333</ele><time>2026-04-19T09:07:22Z</time></trkpt><trkpt lat="44.753452532440576" lon="9.784549243935192"><ele>405.0</ele><time>2026-04-19T09:07:23Z</time></trkpt><trkpt lat="44.75348709341364" lon="9.784472908440769"><ele>401.6666666666667</ele><time>2026-04-19T09:07:24Z</time></trkpt><trkpt lat="44.75353918908739" lon="9.784384223318698"><ele>398.33333333333337</ele><time>2026-04-19T09:07:25Z</time></trkpt><trkpt lat="44.75357049524897" lon="9.784283121295822"><ele>395.0</ele><time>2026-04-19T09:07:27Z</time></trkpt><trkpt lat="44.75363458505071" lon="9.784221172248365"><ele>391.6666666666667</ele><time>2026-04-19T09:07:30Z</time></trkpt><trkpt lat="44.753651358729265" lon="9.784104970339994"><ele>388.33333333333337</ele><time>2026-04-19T09:07:32.999Z</time></trkpt><trkpt lat="44.75369404928795" lon="9.78399795499093"><ele>385.0</ele><time>2026-04-19T09:07:35.999Z</time></trkpt><trkpt lat="44.75372379660461" lon="9.78390299706272"><ele>383.83333333333337</ele><time>2026-04-19T09:07:38.999Z</time></trkpt><trkpt lat="44.75376643219432" lon="9.783815589812267"><ele>382.6666666666667</ele><time>2026-04-19T09:07:42.999Z</time></trkpt><trkpt lat="44.75383429565627" lon="9.783765773711844"><ele>381.5</ele><time>2026-04-19T09:07:45.999Z</time></trkpt><trkpt lat="44.753896231954855" lon="9.783745098502889"><ele>380.33333333333337</ele><time>2026-04-19T09:07:49.999Z</time></trkpt><trkpt lat="44.75391522804604" lon="9.783636081354734"><ele>379.1666666666667</ele><time>2026-04-19T09:07:51.999Z</time></trkpt><trkpt lat="44.75389358330325" lon="9.783477641311528"><ele>378.0</ele><time>2026-04-19T09:07:53.999Z</time></trkpt><trkpt lat="44.753838009160525" lon="9.783432582548798"><ele>378.8333333333333</ele><time>2026-04-19T09:07:54.999Z</time></trkpt><trkpt lat="44.75374266122375" lon="9.783408061403545"><ele>379.6666666666667</ele><time>2026-04-19T09:07:56.999Z</time></trkpt><trkpt lat="44.75364737482642" lon="9.783313809043722"><ele>380.5</ele><time>2026-04-19T09:07:59Z</time></trkpt><trkpt lat="44.75359281576846" lon="9.78325837075324"><ele>381.33333333333337</ele><time>2026-04-19T09:08:00Z</time></trkpt><trkpt lat="44.75353299128053" lon="9.783212924210797"><ele>382.1666666666667</ele><time>2026-04-19T09:08:01Z</time></trkpt><trkpt lat="44.75345508028177" lon="9.783167467778153"><ele>383.0</ele><time>2026-04-19T09:08:03Z</time></trkpt><trkpt lat="44.753412124771415" lon="9.783057339449071"><ele>383.0</ele><time>2026-04-19T09:08:06Z</time></trkpt><trkpt lat="44.75342670703965" lon="9.782967261208459"><ele>383.0</ele><time>2026-04-19T09:08:08Z</time></trkpt><trkpt lat="44.75351952047859" lon="9.7828537756823"><ele>383.0</ele><time>2026-04-19T09:08:10Z</time></trkpt><trkpt lat="44.7535925115199" lon="9.782785678747619"><ele>383.0</ele><time>2026-04-19T09:08:11Z</time></trkpt><trkpt lat="44.753669870297045" lon="9.782727770182664"><ele>383.0</ele><time>2026-04-19T09:08:12Z</time></trkpt><trkpt lat="44.753770710360925" lon="9.782676508267098"><ele>380.2</ele><time>2026-04-19T09:08:13Z</time></trkpt><trkpt lat="44.75386135466551" lon="9.782636732588074"><ele>377.4</ele><time>2026-04-19T09:08:14Z</time></trkpt><trkpt lat="44.753949935026" lon="9.78261033496235"><ele>374.59999999999997</ele><time>2026-04-19T09:08:15Z</time></trkpt><trkpt lat="44.754023281280865" lon="9.78256359080879"><ele>371.79999999999995</ele><time>2026-04-19T09:08:16Z</time></trkpt><trkpt lat="44.75407438886035" lon="9.782509203431491"><ele>369.0</ele><time>2026-04-19T09:08:17Z</time></trkpt><trkpt lat="44.75413497877304" lon="9.782330162089696"><ele>369.0</ele><time>2026-04-19T09:08:19Z</time></trkpt><trkpt lat="44.75417257411612" lon="9.782218977293343"><ele>369.0</ele><time>2026-04-19T09:08:20Z</time></trkpt><trkpt lat="44.75425001684085" lon="9.782033260481436"><ele>369.0</ele><time>2026-04-19T09:08:21Z</time></trkpt><trkpt lat="44.75429501087084" lon="9.781948453832882"><ele>369.0</ele><time>2026-04-19T09:08:22Z</time></trkpt><trkpt lat="44.75434500495189" lon="9.78187595909291"><ele>369.0</ele><time>2026-04-19T09:08:23Z</time></trkpt><trkpt lat="44.7543696871293" lon="9.781791650321388"><ele>369.8333333333333</ele><time>2026-04-19T09:08:24Z</time></trkpt><trkpt lat="44.754375363604716" lon="9.781685331112326"><ele>370.6666666666667</ele><time>2026-04-19T09:08:25Z</time></trkpt><trkpt lat="44.754378769725385" lon="9.781569501068754"><ele>371.5</ele><time>2026-04-19T09:08:26Z</time></trkpt><trkpt lat="44.75436555121074" lon="9.781475143063403"><ele>372.33333333333337</ele><time>2026-04-19T09:08:27Z</time></trkpt><trkpt lat="44.75429566950353" lon="9.781355884652152"><ele>373.1666666666667</ele><time>2026-04-19T09:08:29Z</time></trkpt><trkpt lat="44.754223376777524" lon="9.781329456015762"><ele>374.0</ele><time>2026-04-19T09:08:30Z</time></trkpt><trkpt lat="44.7541389162265" lon="9.78130748522845"><ele>374.0</ele><time>2026-04-19T09:08:31Z</time></trkpt><trkpt lat="44.75405103347269" lon="9.781280816656672"><ele>374.0</ele><time>2026-04-19T09:08:32Z</time></trkpt><trkpt lat="44.753988261467356" lon="9.781212657575889"><ele>374.0</ele><time>2026-04-19T09:08:33Z</time></trkpt><trkpt lat="44.75394481168899" lon="9.781105920326775"><ele>374.0</ele><time>2026-04-19T09:08:34Z</time></trkpt><trkpt lat="44.753895680099795" lon="9.78096811831141"><ele>374.0</ele><time>2026-04-19T09:08:35Z</time></trkpt><trkpt lat="44.75384814822956" lon="9.780816574142355"><ele>373.25</ele><time>2026-04-19T09:08:36Z</time></trkpt><trkpt lat="44.753790327174066" lon="9.78063603680081"><ele>372.5</ele><time>2026-04-19T09:08:37Z</time></trkpt><trkpt lat="44.75373555632765" lon="9.780503135705208"><ele>371.75</ele><time>2026-04-19T09:08:38Z</time></trkpt><trkpt lat="44.75370136907618" lon="9.78040809118938"><ele>371.0</ele><time>2026-04-19T09:08:39Z</time></trkpt><trkpt lat="44.75362681580227" lon="9.780251990707713"><ele>372.83333333333337</ele><time>2026-04-19T09:08:41Z</time></trkpt><trkpt lat="44.753569440249905" lon="9.780146865197827"><ele>374.6666666666667</ele><time>2026-04-19T09:08:42Z</time></trkpt><trkpt lat="44.75351352387522" lon="9.780049291963621"><ele>376.5</ele><time>2026-04-19T09:08:43Z</time></trkpt><trkpt lat="44.75345332228096" lon="9.77999891107297"><ele>378.3333333333333</ele><time>2026-04-19T09:08:44Z</time></trkpt><trkpt lat="44.75338050550622" lon="9.779944946493208"><ele>380.16666666666663</ele><time>2026-04-19T09:08:45Z</time></trkpt><trkpt lat="44.753303307788286" lon="9.77988552985566"><ele>382.0</ele><time>2026-04-19T09:08:46Z</time></trkpt><trkpt lat="44.753214583752744" lon="9.779802390417144"><ele>382.0</ele><time>2026-04-19T09:08:47Z</time></trkpt><trkpt lat="44.75311678175199" lon="9.77969325106771"><ele>382.0</ele><time>2026-04-19T09:08:48Z</time></trkpt><trkpt lat="44.75303301233288" lon="9.7795888375414"><ele>382.0</ele><time>2026-04-19T09:08:49Z</time></trkpt><trkpt lat="44.75295294704486" lon="9.779530256515432"><ele>382.0</ele><time>2026-04-19T09:08:50Z</time></trkpt><trkpt lat="44.752874142431985" lon="9.779499214131336"><ele>382.0</ele><time>2026-04-19T09:08:51Z</time></trkpt><trkpt lat="44.75279891737472" lon="9.779446616045416"><ele>382.0</ele><time>2026-04-19T09:08:52Z</time></trkpt><trkpt lat="44.75271126571071" lon="9.779408795005233"><ele>382.0</ele><time>2026-04-19T09:08:53Z</time></trkpt><trkpt lat="44.75263581932153" lon="9.779393452182125"><ele>382.0</ele><time>2026-04-19T09:08:54Z</time></trkpt><trkpt lat="44.752569052052806" lon="9.779374395498888"><ele>382.0</ele><time>2026-04-19T09:08:55Z</time></trkpt><trkpt lat="44.752461966251104" lon="9.779345061507703"><ele>382.0</ele><time>2026-04-19T09:08:56Z</time></trkpt><trkpt lat="44.752390730747834" lon="9.779270704132555"><ele>382.0</ele><time>2026-04-19T09:08:57Z</time></trkpt><trkpt lat="44.75234322766088" lon="9.7791840498931"><ele>381.3333333333333</ele><time>2026-04-19T09:08:58Z</time></trkpt><trkpt lat="44.75231431020839" lon="9.779084632119888"><ele>380.66666666666663</ele><time>2026-04-19T09:08:59Z</time></trkpt><trkpt lat="44.75230498050677" lon="9.778977767834352"><ele>380.0</ele><time>2026-04-19T09:09:00Z</time></trkpt><trkpt lat="44.752308665987" lon="9.778854386020651"><ele>379.3333333333333</ele><time>2026-04-19T09:09:01Z</time></trkpt><trkpt lat="44.752278702278154" lon="9.778762339093316"><ele>378.6666666666667</ele><time>2026-04-19T09:09:02Z</time></trkpt><trkpt lat="44.75221350534724" lon="9.778679203887352"><ele>378.0</ele><time>2026-04-19T09:09:03Z</time></trkpt><trkpt lat="44.752141848473585" lon="9.778586878058675"><ele>379.2</ele><time>2026-04-19T09:09:04Z</time></trkpt><trkpt lat="44.752086856577996" lon="9.77844648098027"><ele>380.4</ele><time>2026-04-19T09:09:05Z</time></trkpt><trkpt lat="44.75202275649103" lon="9.778318651061987"><ele>381.59999999999997</ele><time>2026-04-19T09:09:06Z</time></trkpt><trkpt lat="44.75195565067993" lon="9.778232375870044"><ele>382.79999999999995</ele><time>2026-04-19T09:09:07Z</time></trkpt><trkpt lat="44.751891118237886" lon="9.778178390153855"><ele>384.0</ele><time>2026-04-19T09:09:08Z</time></trkpt><trkpt lat="44.75181043060179" lon="9.77813214411148"><ele>384.0</ele><time>2026-04-19T09:09:09Z</time></trkpt><trkpt lat="44.75171520752395" lon="9.778087740355257"><ele>384.0</ele><time>2026-04-19T09:09:10Z</time></trkpt><trkpt lat="44.751632281559445" lon="9.778074676831086"><ele>384.0</ele><time>2026-04-19T09:09:11Z</time></trkpt><trkpt lat="44.75154813690537" lon="9.778091564248193"><ele>384.0</ele><time>2026-04-19T09:09:12Z</time></trkpt><trkpt lat="44.751466229040695" lon="9.77808812003045"><ele>384.0</ele><time>2026-04-19T09:09:13Z</time></trkpt><trkpt lat="44.75139962744978" lon="9.778057905188044"><ele>384.0</ele><time>2026-04-19T09:09:14Z</time></trkpt><trkpt lat="44.75134930939299" lon="9.777995757188137"><ele>384.0</ele><time>2026-04-19T09:09:15Z</time></trkpt><trkpt lat="44.751318734963924" lon="9.777900091124984"><ele>384.0</ele><time>2026-04-19T09:09:16Z</time></trkpt><trkpt lat="44.75131511450194" lon="9.777780379174843"><ele>384.0</ele><time>2026-04-19T09:09:17Z</time></trkpt><trkpt lat="44.75132136318217" lon="9.777633978863129"><ele>384.0</ele><time>2026-04-19T09:09:18Z</time></trkpt><trkpt lat="44.75132474415691" lon="9.777473961969092"><ele>384.0</ele><time>2026-04-19T09:09:19Z</time></trkpt><trkpt lat="44.751308924630244" lon="9.777332224878645"><ele>383.2</ele><time>2026-04-19T09:09:20Z</time></trkpt><trkpt lat="44.7512725902756" lon="9.777225366109313"><ele>382.4</ele><time>2026-04-19T09:09:21Z</time></trkpt><trkpt lat="44.751235532916965" lon="9.777134039934028"><ele>381.6</ele><time>2026-04-19T09:09:22Z</time></trkpt><trkpt lat="44.75112763052898" lon="9.777009441585882"><ele>380.8</ele><time>2026-04-19T09:09:24Z</time></trkpt><trkpt lat="44.75103733858696" lon="9.776966685786075"><ele>380.0</ele><time>2026-04-19T09:09:25Z</time></trkpt><trkpt lat="44.75093649246138" lon="9.776955231127161"><ele>380.0</ele><time>2026-04-19T09:09:26Z</time></trkpt><trkpt lat="44.75083278575909" lon="9.77698646311789"><ele>380.0</ele><time>2026-04-19T09:09:27Z</time></trkpt><trkpt lat="44.75074067888283" lon="9.777043343993743"><ele>380.0</ele><time>2026-04-19T09:09:28Z</time></trkpt><trkpt lat="44.750672066454136" lon="9.777104175453783"><ele>380.0</ele><time>2026-04-19T09:09:29Z</time></trkpt><trkpt lat="44.75061231951751" lon="9.777153943657726"><ele>380.0</ele><time>2026-04-19T09:09:30Z</time></trkpt><trkpt lat="44.7505432762296" lon="9.777208723172624"><ele>380.0</ele><time>2026-04-19T09:09:31Z</time></trkpt><trkpt lat="44.75047019986875" lon="9.777233533808909"><ele>380.0</ele><time>2026-04-19T09:09:32Z</time></trkpt><trkpt lat="44.7504026057877" lon="9.77722806372673"><ele>380.0</ele><time>2026-04-19T09:09:33Z</time></trkpt><trkpt lat="44.75034183889699" lon="9.777195110431204"><ele>380.0</ele><time>2026-04-19T09:09:34Z</time></trkpt><trkpt lat="44.7502816592646" lon="9.777128766464832"><ele>380.0</ele><time>2026-04-19T09:09:35Z</time></trkpt><trkpt lat="44.750238434328836" lon="9.777016966248006"><ele>380.0</ele><time>2026-04-19T09:09:36Z</time></trkpt><trkpt lat="44.75023131938139" lon="9.776884204321233"><ele>380.0</ele><time>2026-04-19T09:09:37Z</time></trkpt><trkpt lat="44.75023724651304" lon="9.7767385414528"><ele>377.6</ele><time>2026-04-19T09:09:38Z</time></trkpt><trkpt lat="44.75025930529052" lon="9.776601274188637"><ele>375.2</ele><time>2026-04-19T09:09:39Z</time></trkpt><trkpt lat="44.75029434767723" lon="9.77647347904279"><ele>372.79999999999995</ele><time>2026-04-19T09:09:40Z</time></trkpt><trkpt lat="44.75029469761866" lon="9.776338731461859"><ele>370.4</ele><time>2026-04-19T09:09:41Z</time></trkpt><trkpt lat="44.75026319401614" lon="9.776199654341486"><ele>368.0</ele><time>2026-04-19T09:09:42Z</time></trkpt><trkpt lat="44.75021742198858" lon="9.776066831651184"><ele>369.6666666666667</ele><time>2026-04-19T09:09:43Z</time></trkpt><trkpt lat="44.750188215494234" lon="9.775954962972278"><ele>371.33333333333337</ele><time>2026-04-19T09:09:43.999Z</time></trkpt><trkpt lat="44.75017019129099" lon="9.775856656896652"><ele>373.0</ele><time>2026-04-19T09:09:44.999Z</time></trkpt><trkpt lat="44.75015173349374" lon="9.775768839725359"><ele>374.6666666666667</ele><time>2026-04-19T09:09:45.999Z</time></trkpt><trkpt lat="44.75006414858576" lon="9.77564005815121"><ele>376.3333333333333</ele><time>2026-04-19T09:09:47.999Z</time></trkpt><trkpt lat="44.749981259911614" lon="9.775571866077957"><ele>378.0</ele><time>2026-04-19T09:09:48.999Z</time></trkpt><trkpt lat="44.749903931251836" lon="9.775502522160382"><ele>378.0</ele><time>2026-04-19T09:09:49.999Z</time></trkpt><trkpt lat="44.749859904341804" lon="9.775416698928987"><ele>378.0</ele><time>2026-04-19T09:09:50.999Z</time></trkpt><trkpt lat="44.74983754405652" lon="9.77528559148675"><ele>378.0</ele><time>2026-04-19T09:09:51.999Z</time></trkpt><trkpt lat="44.74981097541176" lon="9.775107702426753"><ele>378.0</ele><time>2026-04-19T09:09:52.999Z</time></trkpt><trkpt lat="44.74979092108491" lon="9.774943102048594"><ele>378.0</ele><time>2026-04-19T09:09:53.999Z</time></trkpt><trkpt lat="44.749752752224815" lon="9.774870911656587"><ele>376.8333333333333</ele><time>2026-04-19T09:09:54.999Z</time></trkpt><trkpt lat="44.74969325740235" lon="9.774799653835949"><ele>375.6666666666667</ele><time>2026-04-19T09:09:55.999Z</time></trkpt><trkpt lat="44.74961994378273" lon="9.774722525101119"><ele>374.5</ele><time>2026-04-19T09:09:56.999Z</time></trkpt><trkpt lat="44.74957840574549" lon="9.774642982057262"><ele>373.33333333333337</ele><time>2026-04-19T09:09:57.999Z</time></trkpt><trkpt lat="44.7495477935459" lon="9.774549398507359"><ele>372.1666666666667</ele><time>2026-04-19T09:09:58.999Z</time></trkpt><trkpt lat="44.74956930220779" lon="9.774395990256233"><ele>371.0</ele><time>2026-04-19T09:10:00.999Z</time></trkpt><trkpt lat="44.74961959241256" lon="9.774296748273354"><ele>371.0</ele><time>2026-04-19T09:10:01.999Z</time></trkpt><trkpt lat="44.74968128600904" lon="9.774172960669441"><ele>371.0</ele><time>2026-04-19T09:10:02.999Z</time></trkpt><trkpt lat="44.74973666661906" lon="9.774022347025355"><ele>371.0</ele><time>2026-04-19T09:10:04Z</time></trkpt><trkpt lat="44.74976854615006" lon="9.773910944496157"><ele>371.0</ele><time>2026-04-19T09:10:05Z</time></trkpt><trkpt lat="44.749778792407646" lon="9.773822746870932"><ele>371.0</ele><time>2026-04-19T09:10:06Z</time></trkpt><trkpt lat="44.74977621964109" lon="9.773709224392421"><ele>371.0</ele><time>2026-04-19T09:10:07Z</time></trkpt><trkpt lat="44.74976222450649" lon="9.773585882058187"><ele>371.0</ele><time>2026-04-19T09:10:08Z</time></trkpt><trkpt lat="44.749743203756154" lon="9.773482936009222"><ele>371.0</ele><time>2026-04-19T09:10:10Z</time></trkpt><trkpt lat="44.74981202901068" lon="9.773340322245568"><ele>371.0</ele><time>2026-04-19T09:10:13Z</time></trkpt><trkpt lat="44.749907094002815" lon="9.773231111247153"><ele>371.0</ele><time>2026-04-19T09:10:15Z</time></trkpt><trkpt lat="44.74995769397766" lon="9.773177292663284"><ele>370.83333333333337</ele><time>2026-04-19T09:10:16Z</time></trkpt><trkpt lat="44.75000849620078" lon="9.7731200881819"><ele>370.6666666666667</ele><time>2026-04-19T09:10:17Z</time></trkpt><trkpt lat="44.750065615490335" lon="9.77307231143652"><ele>370.5</ele><time>2026-04-19T09:10:18Z</time></trkpt><trkpt lat="44.75012886573322" lon="9.773028527456473"><ele>370.3333333333333</ele><time>2026-04-19T09:10:19Z</time></trkpt><trkpt lat="44.750193233843575" lon="9.772996278708229"><ele>370.16666666666663</ele><time>2026-04-19T09:10:20Z</time></trkpt><trkpt lat="44.75025167503023" lon="9.77295607162024"><ele>370.0</ele><time>2026-04-19T09:10:21Z</time></trkpt><trkpt lat="44.75034525267175" lon="9.772837022473126"><ele>367.5</ele><time>2026-04-19T09:10:23Z</time></trkpt><trkpt lat="44.75045815910949" lon="9.772783640609632"><ele>365.0</ele><time>2026-04-19T09:10:25Z</time></trkpt><trkpt lat="44.75053377726442" lon="9.772788900369086"><ele>362.5</ele><time>2026-04-19T09:10:26Z</time></trkpt><trkpt lat="44.75061630209929" lon="9.772806944300356"><ele>360.0</ele><time>2026-04-19T09:10:27Z</time></trkpt><trkpt lat="44.7506982307609" lon="9.772831644949367"><ele>357.5</ele><time>2026-04-19T09:10:28Z</time></trkpt><trkpt lat="44.75078358117285" lon="9.7728508288905"><ele>355.0</ele><time>2026-04-19T09:10:29Z</time></trkpt><trkpt lat="44.75086683509416" lon="9.772866322950206"><ele>355.0</ele><time>2026-04-19T09:10:30Z</time></trkpt><trkpt lat="44.750938201986614" lon="9.772888256688134"><ele>355.0</ele><time>2026-04-19T09:10:31Z</time></trkpt><trkpt lat="44.75099885805214" lon="9.772919793460462"><ele>355.0</ele><time>2026-04-19T09:10:32Z</time></trkpt><trkpt lat="44.75106673338802" lon="9.772972378809065"><ele>355.0</ele><time>2026-04-19T09:10:33Z</time></trkpt><trkpt lat="44.751132735211925" lon="9.773044229717854"><ele>355.0</ele><time>2026-04-19T09:10:34Z</time></trkpt><trkpt lat="44.75119621994999" lon="9.773123099514141"><ele>355.0</ele><time>2026-04-19T09:10:35Z</time></trkpt><trkpt lat="44.75125165524482" lon="9.773197617912725"><ele>353.66666666666663</ele><time>2026-04-19T09:10:36Z</time></trkpt><trkpt lat="44.75130145874726" lon="9.773271149364982"><ele>352.3333333333333</ele><time>2026-04-19T09:10:37Z</time></trkpt><trkpt lat="44.75134617973532" lon="9.773353734434933"><ele>351.0</ele><time>2026-04-19T09:10:38Z</time></trkpt><trkpt lat="44.75139133668175" lon="9.773457298363084"><ele>349.6666666666667</ele><time>2026-04-19T09:10:39Z</time></trkpt><trkpt lat="44.751434985998415" lon="9.773572860917131"><ele>348.33333333333337</ele><time>2026-04-19T09:10:40Z</time></trkpt><trkpt lat="44.751466422546464" lon="9.773679756600385"><ele>347.0</ele><time>2026-04-19T09:10:41Z</time></trkpt><trkpt lat="44.75147666039533" lon="9.773773376791414"><ele>346.75</ele><time>2026-04-19T09:10:42Z</time></trkpt><trkpt lat="44.75149607471636" lon="9.773963416188854"><ele>346.5</ele><time>2026-04-19T09:10:44Z</time></trkpt><trkpt lat="44.7515443941783" lon="9.77412814540223"><ele>346.25</ele><time>2026-04-19T09:10:45Z</time></trkpt><trkpt lat="44.75158404108478" lon="9.774270606523238"><ele>346.0</ele><time>2026-04-19T09:10:46Z</time></trkpt><trkpt lat="44.75161911918146" lon="9.774379879550954"><ele>346.0</ele><time>2026-04-19T09:10:47Z</time></trkpt><trkpt lat="44.751646850348116" lon="9.774478641099204"><ele>346.0</ele><time>2026-04-19T09:10:48Z</time></trkpt><trkpt lat="44.751653117892005" lon="9.774583573237138"><ele>346.0</ele><time>2026-04-19T09:10:49Z</time></trkpt><trkpt lat="44.75164607860077" lon="9.77469098197373"><ele>346.0</ele><time>2026-04-19T09:10:50Z</time></trkpt><trkpt lat="44.7516276558432" lon="9.774793606987132"><ele>346.0</ele><time>2026-04-19T09:10:51Z</time></trkpt><trkpt lat="44.75160770781385" lon="9.774894844492968"><ele>346.0</ele><time>2026-04-19T09:10:52Z</time></trkpt><trkpt lat="44.75160394419537" lon="9.774989143872732"><ele>346.0</ele><time>2026-04-19T09:10:53Z</time></trkpt><trkpt lat="44.75161005782812" lon="9.775104133618592"><ele>346.4</ele><time>2026-04-19T09:10:54Z</time></trkpt><trkpt lat="44.75162443856293" lon="9.775208308080622"><ele>346.8</ele><time>2026-04-19T09:10:55Z</time></trkpt><trkpt lat="44.751662845821826" lon="9.775373153480892"><ele>347.2</ele><time>2026-04-19T09:10:57Z</time></trkpt><trkpt lat="44.751690549126565" lon="9.775482662913037"><ele>347.59999999999997</ele><time>2026-04-19T09:10:58Z</time></trkpt><trkpt lat="44.75171760972045" lon="9.775584822113496"><ele>348.0</ele><time>2026-04-19T09:10:59Z</time></trkpt><trkpt lat="44.75174799050231" lon="9.775715677499349"><ele>348.0</ele><time>2026-04-19T09:11:01Z</time></trkpt><trkpt lat="44.751786897866516" lon="9.775808754186535"><ele>348.0</ele><time>2026-04-19T09:11:03Z</time></trkpt><trkpt lat="44.75181116801965" lon="9.77589177965463"><ele>348.0</ele><time>2026-04-19T09:11:05Z</time></trkpt><trkpt lat="44.751906882133184" lon="9.775901909656367"><ele>348.0</ele><time>2026-04-19T09:12:05.999Z</time></trkpt><trkpt lat="44.75196025534823" lon="9.7758394851298"><ele>348.0</ele><time>2026-04-19T09:12:06.999Z</time></trkpt><trkpt lat="44.75202090300104" lon="9.775746288852377"><ele>348.0</ele><time>2026-04-19T09:12:07.999Z</time></trkpt><trkpt lat="44.75210246649352" lon="9.775641431685806"><ele>347.79999999999995</ele><time>2026-04-19T09:12:08.999Z</time></trkpt><trkpt lat="44.752188937914795" lon="9.77556201345737"><ele>347.6</ele><time>2026-04-19T09:12:10Z</time></trkpt><trkpt lat="44.75228198766221" lon="9.775473169247332"><ele>347.4</ele><time>2026-04-19T09:12:11Z</time></trkpt><trkpt lat="44.75235945547393" lon="9.775364978555947"><ele>347.20000000000005</ele><time>2026-04-19T09:12:12Z</time></trkpt><trkpt lat="44.75241432854855" lon="9.775222859345241"><ele>347.0</ele><time>2026-04-19T09:12:13Z</time></trkpt><trkpt lat="44.75244663696765" lon="9.775046448625915"><ele>347.5</ele><time>2026-04-19T09:12:14Z</time></trkpt><trkpt lat="44.75245394427592" lon="9.774844942446338"><ele>348.0</ele><time>2026-04-19T09:12:15Z</time></trkpt><trkpt lat="44.752454497821155" lon="9.77466660638205"><ele>348.5</ele><time>2026-04-19T09:12:16Z</time></trkpt><trkpt lat="44.752467548447214" lon="9.774512798354275"><ele>349.0</ele><time>2026-04-19T09:12:17Z</time></trkpt><trkpt lat="44.75248863054993" lon="9.774355961903721"><ele>349.2</ele><time>2026-04-19T09:12:18Z</time></trkpt><trkpt lat="44.75250565636277" lon="9.774215956474627"><ele>349.4</ele><time>2026-04-19T09:12:19Z</time></trkpt><trkpt lat="44.752518770646695" lon="9.774094344720302"><ele>349.6</ele><time>2026-04-19T09:12:20Z</time></trkpt><trkpt lat="44.75254634615728" lon="9.773968045421025"><ele>349.8</ele><time>2026-04-19T09:12:21Z</time></trkpt><trkpt lat="44.75258001570946" lon="9.773828051834705"><ele>350.0</ele><time>2026-04-19T09:12:22Z</time></trkpt><trkpt lat="44.752615332956246" lon="9.77367969492501"><ele>350.5</ele><time>2026-04-19T09:12:23Z</time></trkpt><trkpt lat="44.75264764839929" lon="9.773519055035203"><ele>351.0</ele><time>2026-04-19T09:12:24Z</time></trkpt><trkpt lat="44.752675636032585" lon="9.77335072116367"><ele>351.5</ele><time>2026-04-19T09:12:25Z</time></trkpt><trkpt lat="44.752683194256896" lon="9.773170016973129"><ele>352.0</ele><time>2026-04-19T09:12:26Z</time></trkpt><trkpt lat="44.75266258966826" lon="9.772984173787025"><ele>352.0</ele><time>2026-04-19T09:12:27Z</time></trkpt><trkpt lat="44.75261667336917" lon="9.772801076996185"><ele>352.0</ele><time>2026-04-19T09:12:28Z</time></trkpt><trkpt lat="44.752555649921085" lon="9.772649588822732"><ele>352.0</ele><time>2026-04-19T09:12:29Z</time></trkpt><trkpt lat="44.752489040466415" lon="9.772504530930544"><ele>352.0</ele><time>2026-04-19T09:12:30Z</time></trkpt><trkpt lat="44.75243866256811" lon="9.772338991453264"><ele>353.25</ele><time>2026-04-19T09:12:31Z</time></trkpt><trkpt lat="44.75239080993888" lon="9.77216342463904"><ele>354.5</ele><time>2026-04-19T09:12:32Z</time></trkpt><trkpt lat="44.752324876664915" lon="9.771978518604127"><ele>355.75</ele><time>2026-04-19T09:12:33Z</time></trkpt><trkpt lat="44.75225359127309" lon="9.771782963410589"><ele>357.0</ele><time>2026-04-19T09:12:34Z</time></trkpt><trkpt lat="44.752182273651506" lon="9.771599516867205"><ele>358.25</ele><time>2026-04-19T09:12:35Z</time></trkpt><trkpt lat="44.75210601059871" lon="9.771449158871096"><ele>359.5</ele><time>2026-04-19T09:12:36Z</time></trkpt><trkpt lat="44.75202098008569" lon="9.771325463165168"><ele>360.75</ele><time>2026-04-19T09:12:37Z</time></trkpt><trkpt lat="44.75192793613776" lon="9.771218847264205"><ele>362.0</ele><time>2026-04-19T09:12:38Z</time></trkpt><trkpt lat="44.75182426357589" lon="9.771114975288635"><ele>361.25</ele><time>2026-04-19T09:12:39Z</time></trkpt><trkpt lat="44.751703897209055" lon="9.771021643657313"><ele>360.5</ele><time>2026-04-19T09:12:40Z</time></trkpt><trkpt lat="44.751567359991405" lon="9.77094017847962"><ele>359.75</ele><time>2026-04-19T09:12:41Z</time></trkpt><trkpt lat="44.75142633001923" lon="9.77085302782788"><ele>359.0</ele><time>2026-04-19T09:12:42Z</time></trkpt><trkpt lat="44.7512849065767" lon="9.770761423964808"><ele>359.0</ele><time>2026-04-19T09:12:43Z</time></trkpt><trkpt lat="44.7511432491204" lon="9.770664989549385"><ele>359.0</ele><time>2026-04-19T09:12:44Z</time></trkpt><trkpt lat="44.750999608895896" lon="9.770572482964075"><ele>359.0</ele><time>2026-04-19T09:12:45Z</time></trkpt><trkpt lat="44.750853142491835" lon="9.770482978414234"><ele>358.75</ele><time>2026-04-19T09:12:46Z</time></trkpt><trkpt lat="44.75070875986158" lon="9.77038988942476"><ele>358.5</ele><time>2026-04-19T09:12:47Z</time></trkpt><trkpt lat="44.75057736292811" lon="9.77030185166067"><ele>358.25</ele><time>2026-04-19T09:12:48Z</time></trkpt><trkpt lat="44.75045429871759" lon="9.770223307613751"><ele>358.0</ele><time>2026-04-19T09:12:49Z</time></trkpt><trkpt lat="44.750334959634344" lon="9.77014416209824"><ele>358.0</ele><time>2026-04-19T09:12:50Z</time></trkpt><trkpt lat="44.75021016097529" lon="9.77006066751877"><ele>358.0</ele><time>2026-04-19T09:12:51Z</time></trkpt><trkpt lat="44.75007866108533" lon="9.769976703834304"><ele>358.0</ele><time>2026-04-19T09:12:52Z</time></trkpt><trkpt lat="44.74994039000173" lon="9.769892454371874"><ele>358.0</ele><time>2026-04-19T09:12:53Z</time></trkpt><trkpt lat="44.74979823224433" lon="9.769804536778055"><ele>356.66666666666663</ele><time>2026-04-19T09:12:54Z</time></trkpt><trkpt lat="44.74965381987284" lon="9.769710726643456"><ele>355.3333333333333</ele><time>2026-04-19T09:12:55Z</time></trkpt><trkpt lat="44.74950464733584" lon="9.769610714174815"><ele>354.0</ele><time>2026-04-19T09:12:56Z</time></trkpt><trkpt lat="44.74937135857294" lon="9.769519427428662"><ele>354.3333333333333</ele><time>2026-04-19T09:12:57Z</time></trkpt><trkpt lat="44.749230592377366" lon="9.769432667208289"><ele>354.66666666666663</ele><time>2026-04-19T09:12:58Z</time></trkpt><trkpt lat="44.74909252020127" lon="9.769342808411492"><ele>355.0</ele><time>2026-04-19T09:12:59Z</time></trkpt><trkpt lat="44.74895356718313" lon="9.769253696917977"><ele>355.0</ele><time>2026-04-19T09:13:00Z</time></trkpt><trkpt lat="44.748813512392445" lon="9.769165179247905"><ele>355.0</ele><time>2026-04-19T09:13:01Z</time></trkpt><trkpt lat="44.74867395421371" lon="9.769077206473955"><ele>355.0</ele><time>2026-04-19T09:13:02Z</time></trkpt><trkpt lat="44.74855041868588" lon="9.768998654051435"><ele>355.0</ele><time>2026-04-19T09:13:03Z</time></trkpt><trkpt lat="44.748441545004475" lon="9.768932471668583"><ele>355.0</ele><time>2026-04-19T09:13:04Z</time></trkpt><trkpt lat="44.7483444738348" lon="9.768869797083413"><ele>355.0</ele><time>2026-04-19T09:13:05Z</time></trkpt><trkpt lat="44.74824888291835" lon="9.768803072794993"><ele>355.0</ele><time>2026-04-19T09:13:06Z</time></trkpt><trkpt lat="44.74814774561144" lon="9.768746948890188"><ele>355.0</ele><time>2026-04-19T09:13:07Z</time></trkpt><trkpt lat="44.7480435612917" lon="9.768693789188559"><ele>355.0</ele><time>2026-04-19T09:13:08Z</time></trkpt><trkpt lat="44.74793508964047" lon="9.768641634883517"><ele>355.0</ele><time>2026-04-19T09:13:09Z</time></trkpt><trkpt lat="44.74782212049873" lon="9.768598714661014"><ele>355.0</ele><time>2026-04-19T09:13:10Z</time></trkpt><trkpt lat="44.74771114913008" lon="9.76856425791628"><ele>355.0</ele><time>2026-04-19T09:13:11Z</time></trkpt><trkpt lat="44.74761164170095" lon="9.768526581656383"><ele>355.0</ele><time>2026-04-19T09:13:12Z</time></trkpt><trkpt lat="44.74751856109581" lon="9.768478784123069"><ele>355.0</ele><time>2026-04-19T09:13:13Z</time></trkpt><trkpt lat="44.747430525091076" lon="9.768439945616551"><ele>357.25</ele><time>2026-04-19T09:13:14Z</time></trkpt><trkpt lat="44.74733177393477" lon="9.768398816427604"><ele>359.5</ele><time>2026-04-19T09:13:15Z</time></trkpt><trkpt lat="44.74722007096802" lon="9.768353903653205"><ele>361.75</ele><time>2026-04-19T09:13:16Z</time></trkpt><trkpt lat="44.747103765732795" lon="9.768305790171006"><ele>364.0</ele><time>2026-04-19T09:13:17Z</time></trkpt><trkpt lat="44.74698623084184" lon="9.768260107105412"><ele>363.5</ele><time>2026-04-19T09:13:18Z</time></trkpt><trkpt lat="44.74686758691992" lon="9.768214130500708"><ele>363.0</ele><time>2026-04-19T09:13:19Z</time></trkpt><trkpt lat="44.7467524676814" lon="9.768166956816247"><ele>362.5</ele><time>2026-04-19T09:13:20Z</time></trkpt><trkpt lat="44.746629043631316" lon="9.768117552057538"><ele>362.0</ele><time>2026-04-19T09:13:21Z</time></trkpt><trkpt lat="44.746498998123805" lon="9.768070121818651"><ele>362.0</ele><time>2026-04-19T09:13:22Z</time></trkpt><trkpt lat="44.746365897236636" lon="9.768012083600235"><ele>362.0</ele><time>2026-04-19T09:13:23Z</time></trkpt><trkpt lat="44.74623198718201" lon="9.767945920157574"><ele>362.0</ele><time>2026-04-19T09:13:24Z</time></trkpt><trkpt lat="44.74609373747715" lon="9.76787813581271"><ele>362.0</ele><time>2026-04-19T09:13:25Z</time></trkpt><trkpt lat="44.745954920010135" lon="9.767800307154548"><ele>363.6666666666667</ele><time>2026-04-19T09:13:26Z</time></trkpt><trkpt lat="44.74581562661687" lon="9.76769920818738"><ele>365.3333333333333</ele><time>2026-04-19T09:13:27Z</time></trkpt><trkpt lat="44.74566736346329" lon="9.76757405958717"><ele>367.0</ele><time>2026-04-19T09:13:28Z</time></trkpt><trkpt lat="44.74552489238381" lon="9.767444266557813"><ele>367.0</ele><time>2026-04-19T09:13:29Z</time></trkpt><trkpt lat="44.745407293525965" lon="9.767322585721779"><ele>367.0</ele><time>2026-04-19T09:13:30Z</time></trkpt><trkpt lat="44.74530341564187" lon="9.767204614180036"><ele>367.0</ele><time>2026-04-19T09:13:31Z</time></trkpt><trkpt lat="44.74521289419345" lon="9.767086285235784"><ele>367.0</ele><time>2026-04-19T09:13:32Z</time></trkpt><trkpt lat="44.74512314933238" lon="9.76696254192747"><ele>368.0</ele><time>2026-04-19T09:13:33Z</time></trkpt><trkpt lat="44.74502503496004" lon="9.766828062085786"><ele>369.0</ele><time>2026-04-19T09:13:34Z</time></trkpt><trkpt lat="44.74492888454467" lon="9.766687735327151"><ele>370.0</ele><time>2026-04-19T09:13:35Z</time></trkpt><trkpt lat="44.74483345790006" lon="9.766538598799515"><ele>371.0</ele><time>2026-04-19T09:13:36Z</time></trkpt><trkpt lat="44.74473468204477" lon="9.766387515078465"><ele>371.0</ele><time>2026-04-19T09:13:37Z</time></trkpt><trkpt lat="44.74463489389093" lon="9.766230353132077"><ele>371.0</ele><time>2026-04-19T09:13:38Z</time></trkpt><trkpt lat="44.74454104678586" lon="9.766060213332262"><ele>371.0</ele><time>2026-04-19T09:13:39Z</time></trkpt><trkpt lat="44.74445845400564" lon="9.765890336049544"><ele>371.0</ele><time>2026-04-19T09:13:40Z</time></trkpt><trkpt lat="44.744384123811756" lon="9.765708161519086"><ele>370.6666666666667</ele><time>2026-04-19T09:13:41Z</time></trkpt><trkpt lat="44.74431207709335" lon="9.765523870455736"><ele>370.3333333333333</ele><time>2026-04-19T09:13:42Z</time></trkpt><trkpt lat="44.74424792901047" lon="9.765333229610071"><ele>370.0</ele><time>2026-04-19T09:13:43Z</time></trkpt><trkpt lat="44.74418224010049" lon="9.765139718613987"><ele>370.0</ele><time>2026-04-19T09:13:44Z</time></trkpt><trkpt lat="44.744109585762345" lon="9.764948758356963"><ele>370.0</ele><time>2026-04-19T09:13:45Z</time></trkpt><trkpt lat="44.74403940587524" lon="9.764782488067853"><ele>370.0</ele><time>2026-04-19T09:13:46Z</time></trkpt><trkpt lat="44.7439705237685" lon="9.764633176579357"><ele>370.0</ele><time>2026-04-19T09:13:47Z</time></trkpt><trkpt lat="44.74390272060653" lon="9.764490573368773"><ele>370.75</ele><time>2026-04-19T09:13:48Z</time></trkpt><trkpt lat="44.74383193181912" lon="9.764344325696948"><ele>371.5</ele><time>2026-04-19T09:13:49Z</time></trkpt><trkpt lat="44.74375979949817" lon="9.76419736421055"><ele>372.25</ele><time>2026-04-19T09:13:50Z</time></trkpt><trkpt lat="44.74366831902648" lon="9.764067544635687"><ele>373.0</ele><time>2026-04-19T09:13:51Z</time></trkpt><trkpt lat="44.74356656646525" lon="9.763987234226311"><ele>372.75</ele><time>2026-04-19T09:13:52Z</time></trkpt><trkpt lat="44.74347130121694" lon="9.763945173181938"><ele>372.5</ele><time>2026-04-19T09:13:53Z</time></trkpt><trkpt lat="44.743358858861505" lon="9.763907124007854"><ele>372.25</ele><time>2026-04-19T09:13:54Z</time></trkpt><trkpt lat="44.74323145564216" lon="9.763892405505805"><ele>372.0</ele><time>2026-04-19T09:13:55Z</time></trkpt><trkpt lat="44.743094632478076" lon="9.763881500983857"><ele>372.0</ele><time>2026-04-19T09:13:56Z</time></trkpt><trkpt lat="44.74294803174313" lon="9.763875095562414"><ele>372.0</ele><time>2026-04-19T09:13:56.999Z</time></trkpt><trkpt lat="44.742796406855156" lon="9.763866856945242"><ele>372.0</ele><time>2026-04-19T09:13:57.999Z</time></trkpt><trkpt lat="44.74265914188215" lon="9.76386001587775"><ele>372.0</ele><time>2026-04-19T09:13:58.999Z</time></trkpt><trkpt lat="44.742535991236416" lon="9.763864121864161"><ele>372.25</ele><time>2026-04-19T09:13:59.999Z</time></trkpt><trkpt lat="44.74242150488977" lon="9.763863307796989"><ele>372.5</ele><time>2026-04-19T09:14:00.999Z</time></trkpt><trkpt lat="44.74230324787531" lon="9.76385063252297"><ele>372.75</ele><time>2026-04-19T09:14:01.999Z</time></trkpt><trkpt lat="44.742178157698014" lon="9.76383739121301"><ele>373.0</ele><time>2026-04-19T09:14:02.999Z</time></trkpt><trkpt lat="44.742049556994424" lon="9.76381354506341"><ele>373.0</ele><time>2026-04-19T09:14:03.999Z</time></trkpt><trkpt lat="44.74191612480073" lon="9.7637747572381"><ele>373.0</ele><time>2026-04-19T09:14:04.999Z</time></trkpt><trkpt lat="44.74178156014961" lon="9.763701994983075"><ele>373.0</ele><time>2026-04-19T09:14:05.999Z</time></trkpt><trkpt lat="44.74167094248219" lon="9.763604113359374"><ele>373.0</ele><time>2026-04-19T09:14:06.999Z</time></trkpt><trkpt lat="44.741581720891375" lon="9.763497168582305"><ele>375.5</ele><time>2026-04-19T09:14:07.999Z</time></trkpt><trkpt lat="44.74150170988332" lon="9.763386979551814"><ele>378.0</ele><time>2026-04-19T09:14:08.999Z</time></trkpt><trkpt lat="44.741428299856416" lon="9.763280079229142"><ele>380.5</ele><time>2026-04-19T09:14:09.999Z</time></trkpt><trkpt lat="44.74134528150385" lon="9.763157133738458"><ele>383.0</ele><time>2026-04-19T09:14:10.999Z</time></trkpt><trkpt lat="44.741260377313395" lon="9.763023965744775"><ele>383.0</ele><time>2026-04-19T09:14:11.999Z</time></trkpt><trkpt lat="44.74117949805282" lon="9.762878485849404"><ele>383.0</ele><time>2026-04-19T09:14:12.999Z</time></trkpt><trkpt lat="44.741092161897235" lon="9.76272972223509"><ele>383.0</ele><time>2026-04-19T09:14:13.999Z</time></trkpt><trkpt lat="44.74099508364491" lon="9.762575872763689"><ele>383.0</ele><time>2026-04-19T09:14:14.999Z</time></trkpt><trkpt lat="44.74089765023952" lon="9.762420961942233"><ele>383.25</ele><time>2026-04-19T09:14:16Z</time></trkpt><trkpt lat="44.74081222911683" lon="9.76228265671648"><ele>383.5</ele><time>2026-04-19T09:14:17Z</time></trkpt><trkpt lat="44.74072661159333" lon="9.76214140430771"><ele>383.75</ele><time>2026-04-19T09:14:18Z</time></trkpt><trkpt lat="44.740636188277705" lon="9.762007029144087"><ele>384.0</ele><time>2026-04-19T09:14:19Z</time></trkpt><trkpt lat="44.7405301709586" lon="9.761892737675627"><ele>385.25</ele><time>2026-04-19T09:14:20Z</time></trkpt><trkpt lat="44.74041135174375" lon="9.761793659565367"><ele>386.5</ele><time>2026-04-19T09:14:21Z</time></trkpt><trkpt lat="44.74028714587541" lon="9.761699316668292"><ele>387.75</ele><time>2026-04-19T09:14:22Z</time></trkpt><trkpt lat="44.74015809108944" lon="9.761607733755193"><ele>389.0</ele><time>2026-04-19T09:14:23Z</time></trkpt><trkpt lat="44.740026129077364" lon="9.761514701158394"><ele>389.0</ele><time>2026-04-19T09:14:24Z</time></trkpt><trkpt lat="44.73989420576055" lon="9.761424077232828"><ele>389.0</ele><time>2026-04-19T09:14:25Z</time></trkpt><trkpt lat="44.7397761711997" lon="9.761341373330575"><ele>389.0</ele><time>2026-04-19T09:14:26Z</time></trkpt><trkpt lat="44.73965239799431" lon="9.761249846244253"><ele>389.0</ele><time>2026-04-19T09:14:27Z</time></trkpt><trkpt lat="44.73952311620131" lon="9.761158162531885"><ele>389.0</ele><time>2026-04-19T09:14:28Z</time></trkpt><trkpt lat="44.7393888518538" lon="9.761066610098355"><ele>389.0</ele><time>2026-04-19T09:14:29Z</time></trkpt><trkpt lat="44.73925234150334" lon="9.760972826734369"><ele>389.0</ele><time>2026-04-19T09:14:30Z</time></trkpt><trkpt lat="44.73913165554425" lon="9.760892275247778"><ele>389.0</ele><time>2026-04-19T09:14:31Z</time></trkpt><trkpt lat="44.73901327855918" lon="9.760806281054972"><ele>389.25</ele><time>2026-04-19T09:14:32Z</time></trkpt><trkpt lat="44.73889138585861" lon="9.760714035267096"><ele>389.5</ele><time>2026-04-19T09:14:33Z</time></trkpt><trkpt lat="44.738763052648174" lon="9.760624308518626"><ele>389.75</ele><time>2026-04-19T09:14:34Z</time></trkpt><trkpt lat="44.73863222958874" lon="9.760530883684867"><ele>390.0</ele><time>2026-04-19T09:14:35Z</time></trkpt><trkpt lat="44.73850174487837" lon="9.760434132688712"><ele>390.0</ele><time>2026-04-19T09:14:36Z</time></trkpt><trkpt lat="44.73837492754476" lon="9.76031707500668"><ele>390.0</ele><time>2026-04-19T09:14:37Z</time></trkpt><trkpt lat="44.73825572487464" lon="9.760179292149896"><ele>390.0</ele><time>2026-04-19T09:14:38Z</time></trkpt><trkpt lat="44.738147532659035" lon="9.760026131175069"><ele>393.5</ele><time>2026-04-19T09:14:39Z</time></trkpt><trkpt lat="44.73805167955454" lon="9.759886706263897"><ele>397.0</ele><time>2026-04-19T09:14:40Z</time></trkpt><trkpt lat="44.73795341321672" lon="9.75975122398888"><ele>400.5</ele><time>2026-04-19T09:14:41Z</time></trkpt><trkpt lat="44.73785156384274" lon="9.75960719486947"><ele>404.0</ele><time>2026-04-19T09:14:42Z</time></trkpt><trkpt lat="44.7377492485552" lon="9.759460057682885"><ele>403.0</ele><time>2026-04-19T09:14:43Z</time></trkpt><trkpt lat="44.73763737135113" lon="9.759316227773073"><ele>402.0</ele><time>2026-04-19T09:14:44Z</time></trkpt><trkpt lat="44.73751642354805" lon="9.759175885464698"><ele>401.0</ele><time>2026-04-19T09:14:45Z</time></trkpt><trkpt lat="44.737393695632996" lon="9.759044081827856"><ele>401.0</ele><time>2026-04-19T09:14:46Z</time></trkpt><trkpt lat="44.737287673680434" lon="9.758920324392065"><ele>401.0</ele><time>2026-04-19T09:14:47Z</time></trkpt><trkpt lat="44.73718618954229" lon="9.758781090887709"><ele>401.0</ele><time>2026-04-19T09:14:48Z</time></trkpt><trkpt lat="44.73708814454043" lon="9.75863454622407"><ele>401.0</ele><time>2026-04-19T09:14:49Z</time></trkpt><trkpt lat="44.736996104910126" lon="9.758475937979766"><ele>401.5</ele><time>2026-04-19T09:14:50Z</time></trkpt><trkpt lat="44.73690973798443" lon="9.758309897283606"><ele>402.0</ele><time>2026-04-19T09:14:51Z</time></trkpt><trkpt lat="44.73681465167304" lon="9.758151331254728"><ele>402.5</ele><time>2026-04-19T09:14:52Z</time></trkpt><trkpt lat="44.73670139415497" lon="9.758007812345458"><ele>403.0</ele><time>2026-04-19T09:14:53Z</time></trkpt><trkpt lat="44.73658404088196" lon="9.757882429705516"><ele>403.0</ele><time>2026-04-19T09:14:54Z</time></trkpt><trkpt lat="44.73646603822598" lon="9.757786842798025"><ele>403.0</ele><time>2026-04-19T09:14:55Z</time></trkpt><trkpt lat="44.7363291378098" lon="9.757735509792887"><ele>403.0</ele><time>2026-04-19T09:14:56Z</time></trkpt><trkpt lat="44.7361885415876" lon="9.757703897512753"><ele>403.0</ele><time>2026-04-19T09:14:57Z</time></trkpt><trkpt lat="44.73606062065252" lon="9.757659177827135"><ele>404.75</ele><time>2026-04-19T09:14:58Z</time></trkpt><trkpt lat="44.7359503131156" lon="9.757609435666277"><ele>406.5</ele><time>2026-04-19T09:14:59Z</time></trkpt><trkpt lat="44.73584322308464" lon="9.75751819702143"><ele>408.25</ele><time>2026-04-19T09:15:00Z</time></trkpt><trkpt lat="44.73574165651071" lon="9.757398935462142"><ele>410.0</ele><time>2026-04-19T09:15:01Z</time></trkpt><trkpt lat="44.735651308152406" lon="9.757249612297636"><ele>410.0</ele><time>2026-04-19T09:15:02Z</time></trkpt><trkpt lat="44.73557698424261" lon="9.757068487596404"><ele>410.0</ele><time>2026-04-19T09:15:03Z</time></trkpt><trkpt lat="44.735506448263216" lon="9.756878202029727"><ele>410.0</ele><time>2026-04-19T09:15:04Z</time></trkpt><trkpt lat="44.73544334993204" lon="9.756708507568504"><ele>410.0</ele><time>2026-04-19T09:15:05Z</time></trkpt><trkpt lat="44.73536935628695" lon="9.75653675140698"><ele>410.0</ele><time>2026-04-19T09:15:06Z</time></trkpt><trkpt lat="44.73529207517908" lon="9.756360986601559"><ele>410.0</ele><time>2026-04-19T09:15:07Z</time></trkpt><trkpt lat="44.73521070542402" lon="9.756185992027493"><ele>410.0</ele><time>2026-04-19T09:15:08Z</time></trkpt><trkpt lat="44.73511974291295" lon="9.756013776363236"><ele>410.0</ele><time>2026-04-19T09:15:09Z</time></trkpt><trkpt lat="44.73501598761236" lon="9.755854567778481"><ele>412.75</ele><time>2026-04-19T09:15:10Z</time></trkpt><trkpt lat="44.73491258834059" lon="9.75572453813271"><ele>415.5</ele><time>2026-04-19T09:15:11Z</time></trkpt><trkpt lat="44.73480887260376" lon="9.755598919338675"><ele>418.25</ele><time>2026-04-19T09:15:12Z</time></trkpt><trkpt lat="44.73470399136211" lon="9.755464492480298"><ele>421.0</ele><time>2026-04-19T09:15:13Z</time></trkpt><trkpt lat="44.73459290936037" lon="9.755332423506108"><ele>421.0</ele><time>2026-04-19T09:15:14Z</time></trkpt><trkpt lat="44.73448258962932" lon="9.755191940620772"><ele>421.0</ele><time>2026-04-19T09:15:15Z</time></trkpt><trkpt lat="44.734372690730154" lon="9.755054221551891"><ele>421.0</ele><time>2026-04-19T09:15:16Z</time></trkpt><trkpt lat="44.73427323264243" lon="9.754937639921955"><ele>421.0</ele><time>2026-04-19T09:15:17Z</time></trkpt><trkpt lat="44.7341837002629" lon="9.754825724955074"><ele>421.0</ele><time>2026-04-19T09:15:18Z</time></trkpt><trkpt lat="44.734098908076334" lon="9.754708028430885"><ele>421.0</ele><time>2026-04-19T09:15:19Z</time></trkpt><trkpt lat="44.73400850456051" lon="9.754586954488262"><ele>421.0</ele><time>2026-04-19T09:15:20Z</time></trkpt><trkpt lat="44.73392506327141" lon="9.754453278020021"><ele>421.0</ele><time>2026-04-19T09:15:21Z</time></trkpt><trkpt lat="44.73385452806151" lon="9.75429754985219"><ele>424.0</ele><time>2026-04-19T09:15:22Z</time></trkpt><trkpt lat="44.73379597296203" lon="9.754124883639285"><ele>427.0</ele><time>2026-04-19T09:15:23Z</time></trkpt><trkpt lat="44.7337403931501" lon="9.75394566082583"><ele>430.0</ele><time>2026-04-19T09:15:24Z</time></trkpt><trkpt lat="44.733680221337764" lon="9.75376182416029"><ele>433.0</ele><time>2026-04-19T09:15:25Z</time></trkpt><trkpt lat="44.733625567138645" lon="9.75356718092885"><ele>435.25</ele><time>2026-04-19T09:15:26Z</time></trkpt><trkpt lat="44.73357632140084" lon="9.753373561049228"><ele>437.5</ele><time>2026-04-19T09:15:27Z</time></trkpt><trkpt lat="44.733526903464735" lon="9.753208641791117"><ele>439.75</ele><time>2026-04-19T09:15:28Z</time></trkpt><trkpt lat="44.73345918123057" lon="9.753055654237905"><ele>442.0</ele><time>2026-04-19T09:15:29Z</time></trkpt><trkpt lat="44.7333784580779" lon="9.752909501360735"><ele>440.25</ele><time>2026-04-19T09:15:30Z</time></trkpt><trkpt lat="44.73327782608745" lon="9.752784933387058"><ele>438.5</ele><time>2026-04-19T09:15:31Z</time></trkpt><trkpt lat="44.733159079774715" lon="9.752686624556608"><ele>436.75</ele><time>2026-04-19T09:15:32Z</time></trkpt><trkpt lat="44.73302961724125" lon="9.752613626212534"><ele>435.0</ele><time>2026-04-19T09:15:33Z</time></trkpt><trkpt lat="44.73289258874963" lon="9.752553554735684"><ele>435.0</ele><time>2026-04-19T09:15:34Z</time></trkpt><trkpt lat="44.73275304432506" lon="9.752490337871922"><ele>435.0</ele><time>2026-04-19T09:15:35Z</time></trkpt><trkpt lat="44.732618727464484" lon="9.752401689264914"><ele>435.0</ele><time>2026-04-19T09:15:36Z</time></trkpt><trkpt lat="44.732484705087046" lon="9.752296430792574"><ele>435.0</ele><time>2026-04-19T09:15:37Z</time></trkpt><trkpt lat="44.73236488490617" lon="9.75215535577553"><ele>435.25</ele><time>2026-04-19T09:15:38Z</time></trkpt><trkpt lat="44.732272017904364" lon="9.75200148027798"><ele>435.5</ele><time>2026-04-19T09:15:39Z</time></trkpt><trkpt lat="44.732201828305406" lon="9.751830209306235"><ele>435.75</ele><time>2026-04-19T09:15:40Z</time></trkpt><trkpt lat="44.73215231771923" lon="9.751635540304248"><ele>436.0</ele><time>2026-04-19T09:15:41Z</time></trkpt><trkpt lat="44.732112728239436" lon="9.751437920508323"><ele>436.0</ele><time>2026-04-19T09:15:42Z</time></trkpt><trkpt lat="44.7320756627354" lon="9.751237769720595"><ele>436.0</ele><time>2026-04-19T09:15:43Z</time></trkpt><trkpt lat="44.73204463218244" lon="9.75103320406481"><ele>436.0</ele><time>2026-04-19T09:15:44Z</time></trkpt><trkpt lat="44.73201343242607" lon="9.75082311233424"><ele>436.0</ele><time>2026-04-19T09:15:45Z</time></trkpt><trkpt lat="44.73197669466812" lon="9.750626254276602"><ele>435.8</ele><time>2026-04-19T09:15:46Z</time></trkpt><trkpt lat="44.731945168284085" lon="9.750451849538418"><ele>435.6</ele><time>2026-04-19T09:15:47Z</time></trkpt><trkpt lat="44.73191614320163" lon="9.750280037887185"><ele>435.4</ele><time>2026-04-19T09:15:48Z</time></trkpt><trkpt lat="44.73188932050558" lon="9.75012989042369"><ele>435.2</ele><time>2026-04-19T09:15:49Z</time></trkpt><trkpt lat="44.73186930915148" lon="9.75002262188121"><ele>435.0</ele><time>2026-04-19T09:15:50Z</time></trkpt><trkpt lat="44.73183772206041" lon="9.749897916864969"><ele>435.0</ele><time>2026-04-19T09:15:52Z</time></trkpt><trkpt lat="44.73176677967425" lon="9.749902944364417"><ele>435.0</ele><time>2026-04-19T09:15:55Z</time></trkpt><trkpt lat="44.73173100100977" lon="9.750000319190761"><ele>435.0</ele><time>2026-04-19T09:15:56Z</time></trkpt><trkpt lat="44.73168395377865" lon="9.75010764775345"><ele>435.0</ele><time>2026-04-19T09:15:56.999Z</time></trkpt><trkpt lat="44.73160915727325" lon="9.750192009325989"><ele>435.0</ele><time>2026-04-19T09:15:57.999Z</time></trkpt><trkpt lat="44.73154561324925" lon="9.75028559138043"><ele>435.0</ele><time>2026-04-19T09:15:58.999Z</time></trkpt><trkpt lat="44.73148496528291" lon="9.750383165327277"><ele>434.0</ele><time>2026-04-19T09:15:59.999Z</time></trkpt><trkpt lat="44.73140471662109" lon="9.750442563044746"><ele>433.0</ele><time>2026-04-19T09:16:00.999Z</time></trkpt><trkpt lat="44.731321894156686" lon="9.750488443141212"><ele>432.0</ele><time>2026-04-19T09:16:01.999Z</time></trkpt><trkpt lat="44.73124047932592" lon="9.750527833949024"><ele>431.0</ele><time>2026-04-19T09:16:02.999Z</time></trkpt><trkpt lat="44.73116815655973" lon="9.750579022202363"><ele>430.0</ele><time>2026-04-19T09:16:03.999Z</time></trkpt><trkpt lat="44.73110017205227" lon="9.750633137923408"><ele>429.0</ele><time>2026-04-19T09:16:04.999Z</time></trkpt><trkpt lat="44.73102883889939" lon="9.75064690096438"><ele>428.5</ele><time>2026-04-19T09:16:05.999Z</time></trkpt><trkpt lat="44.73095587864867" lon="9.750645283585285"><ele>428.0</ele><time>2026-04-19T09:16:06.999Z</time></trkpt><trkpt lat="44.73088300227692" lon="9.750642620060486"><ele>427.5</ele><time>2026-04-19T09:16:07.999Z</time></trkpt><trkpt lat="44.73079761262189" lon="9.750651107991988"><ele>427.0</ele><time>2026-04-19T09:16:08.999Z</time></trkpt><trkpt lat="44.730717324713176" lon="9.750704225682181"><ele>426.5</ele><time>2026-04-19T09:16:09.999Z</time></trkpt><trkpt lat="44.73065027911597" lon="9.750813892384778"><ele>426.0</ele><time>2026-04-19T09:16:10.999Z</time></trkpt><trkpt lat="44.73056274801072" lon="9.750929374857394"><ele>426.0</ele><time>2026-04-19T09:16:11.999Z</time></trkpt><trkpt lat="44.7304791055925" lon="9.751017008931866"><ele>426.0</ele><time>2026-04-19T09:16:12.999Z</time></trkpt><trkpt lat="44.73039053503066" lon="9.751065388439418"><ele>426.0</ele><time>2026-04-19T09:16:13.999Z</time></trkpt><trkpt lat="44.73030780574662" lon="9.751107821286423"><ele>426.0</ele><time>2026-04-19T09:16:14.999Z</time></trkpt><trkpt lat="44.73023172354532" lon="9.751173076824013"><ele>426.0</ele><time>2026-04-19T09:16:15.999Z</time></trkpt><trkpt lat="44.73015747771085" lon="9.751253513809129"><ele>423.3333333333333</ele><time>2026-04-19T09:16:16.999Z</time></trkpt><trkpt lat="44.73008976152282" lon="9.751350089892298"><ele>420.66666666666663</ele><time>2026-04-19T09:16:17.999Z</time></trkpt><trkpt lat="44.73004804175899" lon="9.751460056392256"><ele>418.0</ele><time>2026-04-19T09:16:18.999Z</time></trkpt><trkpt lat="44.73002846712112" lon="9.751580968531353"><ele>415.3333333333333</ele><time>2026-04-19T09:16:19.999Z</time></trkpt><trkpt lat="44.7300102125088" lon="9.751687746841437"><ele>412.66666666666663</ele><time>2026-04-19T09:16:20.999Z</time></trkpt><trkpt lat="44.72996080950764" lon="9.75177384356503"><ele>410.0</ele><time>2026-04-19T09:16:22Z</time></trkpt><trkpt lat="44.72988573053682" lon="9.751845598369432"><ele>408.0</ele><time>2026-04-19T09:16:23Z</time></trkpt><trkpt lat="44.72978782200615" lon="9.75192824909911"><ele>406.0</ele><time>2026-04-19T09:16:24Z</time></trkpt><trkpt lat="44.729687696953924" lon="9.75201588898307"><ele>404.0</ele><time>2026-04-19T09:16:25Z</time></trkpt><trkpt lat="44.729605592774746" lon="9.75209533477975"><ele>402.0</ele><time>2026-04-19T09:16:26Z</time></trkpt><trkpt lat="44.729551008949365" lon="9.752147202435461"><ele>400.0</ele><time>2026-04-19T09:16:27Z</time></trkpt><trkpt lat="44.72949449303201" lon="9.752199649522895"><ele>400.00000000000006</ele><time>2026-04-19T09:16:28Z</time></trkpt><trkpt lat="44.72944114524181" lon="9.752248733822034"><ele>400.0</ele><time>2026-04-19T09:16:29Z</time></trkpt><trkpt lat="44.72936750240513" lon="9.752363517120749"><ele>400.0</ele><time>2026-04-19T09:16:31Z</time></trkpt><trkpt lat="44.72937547311516" lon="9.752453548905377"><ele>400.0</ele><time>2026-04-19T09:16:32Z</time></trkpt><trkpt lat="44.72941743163168" lon="9.752556903498775"><ele>400.00000000000006</ele><time>2026-04-19T09:16:33Z</time></trkpt><trkpt lat="44.72946022132475" lon="9.752681308980808"><ele>400.0</ele><time>2026-04-19T09:16:34Z</time></trkpt><trkpt lat="44.72950639164065" lon="9.752819100552815"><ele>400.0</ele><time>2026-04-19T09:16:35Z</time></trkpt><trkpt lat="44.729552668957545" lon="9.752944484779752"><ele>400.0</ele><time>2026-04-19T09:16:36Z</time></trkpt><trkpt lat="44.72959229119563" lon="9.753055733546534"><ele>400.0</ele><time>2026-04-19T09:16:37Z</time></trkpt><trkpt lat="44.72962864454251" lon="9.753140137115869"><ele>400.0</ele><time>2026-04-19T09:16:38Z</time></trkpt><trkpt lat="44.729690478437654" lon="9.75323882535989"><ele>400.0</ele><time>2026-04-19T09:16:39Z</time></trkpt><trkpt lat="44.729781338883996" lon="9.753335592024413"><ele>400.00000000000006</ele><time>2026-04-19T09:16:40Z</time></trkpt><trkpt lat="44.72986477451633" lon="9.753424675925958"><ele>400.0</ele><time>2026-04-19T09:16:41Z</time></trkpt><trkpt lat="44.72991238982126" lon="9.753486233159242"><ele>400.0</ele><time>2026-04-19T09:16:42Z</time></trkpt><trkpt lat="44.72994100511671" lon="9.753579417778285"><ele>400.0</ele><time>2026-04-19T09:16:45Z</time></trkpt><trkpt lat="44.72992674357162" lon="9.75369734600225"><ele>400.00000000000006</ele><time>2026-04-19T09:16:47Z</time></trkpt><trkpt lat="44.72991132635495" lon="9.75383172991944"><ele>400.0</ele><time>2026-04-19T09:16:49Z</time></trkpt><trkpt lat="44.72983754143501" lon="9.75388692658867"><ele>400.0</ele><time>2026-04-19T09:16:51Z</time></trkpt><trkpt lat="44.729753346297464" lon="9.753823518755533"><ele>400.0</ele><time>2026-04-19T09:16:53Z</time></trkpt><trkpt lat="44.729708664366676" lon="9.75370327627378"><ele>400.0</ele><time>2026-04-19T09:16:55Z</time></trkpt><trkpt lat="44.72964443792615" lon="9.753584815229448"><ele>400.0</ele><time>2026-04-19T09:16:57Z</time></trkpt><trkpt lat="44.72953185375719" lon="9.753528857756146"><ele>400.0</ele><time>2026-04-19T09:16:59Z</time></trkpt><trkpt lat="44.72941279952848" lon="9.753450292619071"><ele>404.0</ele><time>2026-04-19T09:17:01Z</time></trkpt><trkpt lat="44.72934454063246" lon="9.753437996240223"><ele>408.0</ele><time>2026-04-19T09:17:02Z</time></trkpt><trkpt lat="44.72927947790654" lon="9.75344788388351"><ele>412.0</ele><time>2026-04-19T09:17:03Z</time></trkpt><trkpt lat="44.72916360096929" lon="9.753410733530623"><ele>416.0</ele><time>2026-04-19T09:17:05Z</time></trkpt><trkpt lat="44.72908533774597" lon="9.753394625014579"><ele>420.0</ele><time>2026-04-19T09:17:07Z</time></trkpt><trkpt lat="44.72895356497149" lon="9.753352037168858"><ele>420.0</ele><time>2026-04-19T09:17:09Z</time></trkpt><trkpt lat="44.72886180200371" lon="9.753326263868512"><ele>420.0</ele><time>2026-04-19T09:17:10Z</time></trkpt><trkpt lat="44.728807451235404" lon="9.753280101441272"><ele>420.0</ele><time>2026-04-19T09:17:11Z</time></trkpt><trkpt lat="44.72876807395999" lon="9.753207957014212"><ele>420.0</ele><time>2026-04-19T09:17:12Z</time></trkpt><trkpt lat="44.72872084076199" lon="9.753140445806341"><ele>420.0</ele><time>2026-04-19T09:17:13Z</time></trkpt><trkpt lat="44.72865793275821" lon="9.753079902620414"><ele>420.0</ele><time>2026-04-19T09:17:14Z</time></trkpt><trkpt lat="44.728603727649755" lon="9.753004590601847"><ele>420.0</ele><time>2026-04-19T09:17:15Z</time></trkpt><trkpt lat="44.728565540223805" lon="9.752924376879273"><ele>423.1666666666667</ele><time>2026-04-19T09:17:16Z</time></trkpt><trkpt lat="44.72852051395945" lon="9.752846326161263"><ele>426.33333333333337</ele><time>2026-04-19T09:17:18Z</time></trkpt><trkpt lat="44.72846148780385" lon="9.752776813896906"><ele>429.5</ele><time>2026-04-19T09:17:20Z</time></trkpt><trkpt lat="44.72837198354314" lon="9.752659982442282"><ele>432.6666666666667</ele><time>2026-04-19T09:17:22Z</time></trkpt><trkpt lat="44.728321428202875" lon="9.75259590144951"><ele>435.83333333333337</ele><time>2026-04-19T09:17:23Z</time></trkpt><trkpt lat="44.72826650627991" lon="9.752545314590442"><ele>439.0</ele><time>2026-04-19T09:17:24Z</time></trkpt><trkpt lat="44.728177060520096" lon="9.752497413978196"><ele>439.00000000000006</ele><time>2026-04-19T09:17:26Z</time></trkpt><trkpt lat="44.72810428933912" lon="9.752484020161319"><ele>439.0</ele><time>2026-04-19T09:17:28Z</time></trkpt><trkpt lat="44.72803151159926" lon="9.752557492109238"><ele>439.0</ele><time>2026-04-19T09:17:30Z</time></trkpt><trkpt lat="44.727945380346064" lon="9.752650706608874"><ele>439.0</ele><time>2026-04-19T09:18:01.999Z</time></trkpt><trkpt lat="44.72787252266097" lon="9.752725796588349"><ele>439.00000000000006</ele><time>2026-04-19T09:18:03.999Z</time></trkpt><trkpt lat="44.72780447241152" lon="9.752799669075143"><ele>439.0</ele><time>2026-04-19T09:18:05.999Z</time></trkpt><trkpt lat="44.72773929450881" lon="9.752880506558371"><ele>445.2</ele><time>2026-04-19T09:18:07.999Z</time></trkpt><trkpt lat="44.72766822366041" lon="9.752945591581284"><ele>451.4</ele><time>2026-04-19T09:18:09.999Z</time></trkpt><trkpt lat="44.7275793002327" lon="9.753024365199776"><ele>457.6</ele><time>2026-04-19T09:18:11.999Z</time></trkpt><trkpt lat="44.72747284433182" lon="9.753104003198647"><ele>463.8</ele><time>2026-04-19T09:18:13.999Z</time></trkpt><trkpt lat="44.727378859603206" lon="9.753146903444177"><ele>470.0</ele><time>2026-04-19T09:18:15.999Z</time></trkpt><trkpt lat="44.727299908716645" lon="9.753160174909297"><ele>469.99999999999994</ele><time>2026-04-19T09:18:17.999Z</time></trkpt><trkpt lat="44.72723465823659" lon="9.753177824469583"><ele>470.0</ele><time>2026-04-19T09:18:41Z</time></trkpt><trkpt lat="44.727148199838844" lon="9.753191498068313"><ele>470.0</ele><time>2026-04-19T09:18:47Z</time></trkpt><trkpt lat="44.7270766829057" lon="9.753187153013728"><ele>470.0</ele><time>2026-04-19T09:18:50Z</time></trkpt><trkpt lat="44.72701922894277" lon="9.753139135082462"><ele>469.99999999999994</ele><time>2026-04-19T09:18:52Z</time></trkpt><trkpt lat="44.72695899602115" lon="9.75309762523052"><ele>470.0</ele><time>2026-04-19T09:18:54Z</time></trkpt><trkpt lat="44.726855996888666" lon="9.753158906088233"><ele>472.3333333333333</ele><time>2026-04-19T09:18:57Z</time></trkpt><trkpt lat="44.726818363794116" lon="9.753251739166682"><ele>474.66666666666663</ele><time>2026-04-19T09:19:00Z</time></trkpt><trkpt lat="44.72676158101704" lon="9.753327682940082"><ele>477.0</ele><time>2026-04-19T09:19:03Z</time></trkpt><trkpt lat="44.726735343985574" lon="9.753418962355955"><ele>479.33333333333337</ele><time>2026-04-19T09:19:06Z</time></trkpt><trkpt lat="44.726701971219754" lon="9.753504210376004"><ele>481.6666666666667</ele><time>2026-04-19T09:19:08Z</time></trkpt><trkpt lat="44.7266412838816" lon="9.753598993339681"><ele>484.0</ele><time>2026-04-19T09:19:11Z</time></trkpt><trkpt lat="44.72658038444818" lon="9.753665026569676"><ele>485.33333333333337</ele><time>2026-04-19T09:19:13Z</time></trkpt><trkpt lat="44.72651220158446" lon="9.753728121817511"><ele>486.6666666666667</ele><time>2026-04-19T09:19:15Z</time></trkpt><trkpt lat="44.72645333659293" lon="9.753783232662022"><ele>488.0</ele><time>2026-04-19T09:19:17Z</time></trkpt><trkpt lat="44.72638282874088" lon="9.753850282706319"><ele>489.33333333333337</ele><time>2026-04-19T09:19:20Z</time></trkpt><trkpt lat="44.72630513156174" lon="9.75391344011799"><ele>490.6666666666667</ele><time>2026-04-19T09:19:22Z</time></trkpt><trkpt lat="44.72624709073869" lon="9.753950494057841"><ele>492.0</ele><time>2026-04-19T09:19:23Z</time></trkpt><trkpt lat="44.72616337844" lon="9.753938284185047"><ele>492.0</ele><time>2026-04-19T09:19:26Z</time></trkpt><trkpt lat="44.726102016721" lon="9.753821594672281"><ele>492.00000000000006</ele><time>2026-04-19T09:19:28Z</time></trkpt><trkpt lat="44.726059381055364" lon="9.753721869034559"><ele>492.00000000000006</ele><time>2026-04-19T09:19:31Z</time></trkpt><trkpt lat="44.725998376581074" lon="9.753673935676256"><ele>492.0</ele><time>2026-04-19T09:19:34Z</time></trkpt><trkpt lat="44.72590337082967" lon="9.753600533817698"><ele>492.0</ele><time>2026-04-19T09:19:37Z</time></trkpt><trkpt lat="44.72581682484821" lon="9.753547612360748"><ele>492.3333333333333</ele><time>2026-04-19T09:19:39Z</time></trkpt><trkpt lat="44.72576421029229" lon="9.753495643181786"><ele>492.66666666666663</ele><time>2026-04-19T09:19:48Z</time></trkpt><trkpt lat="44.725655574392235" lon="9.753457826468994"><ele>493.0</ele><time>2026-04-19T09:20:17.999Z</time></trkpt><trkpt lat="44.72557947647058" lon="9.753466527006406"><ele>493.3333333333333</ele><time>2026-04-19T09:20:21.999Z</time></trkpt><trkpt lat="44.72550281954672" lon="9.753458760803815"><ele>493.66666666666663</ele><time>2026-04-19T09:20:23.999Z</time></trkpt><trkpt lat="44.725398334303506" lon="9.753422622812318"><ele>494.0</ele><time>2026-04-19T09:20:26.999Z</time></trkpt><trkpt lat="44.72530694093433" lon="9.753397972832037"><ele>494.0</ele><time>2026-04-19T09:20:28.999Z</time></trkpt><trkpt lat="44.725258339102886" lon="9.753489043749118"><ele>494.0</ele><time>2026-04-19T09:20:30.999Z</time></trkpt><trkpt lat="44.72519746554899" lon="9.75357973089812"><ele>494.0</ele><time>2026-04-19T09:20:31.999Z</time></trkpt><trkpt lat="44.725119616291266" lon="9.753659578161793"><ele>494.0</ele><time>2026-04-19T09:20:32.999Z</time></trkpt><trkpt lat="44.72504392510382" lon="9.753731381794308"><ele>494.0</ele><time>2026-04-19T09:20:35Z</time></trkpt><trkpt lat="44.72494338215104" lon="9.753828565136505"><ele>497.6</ele><time>2026-04-19T09:20:37Z</time></trkpt><trkpt lat="44.724900364794614" lon="9.753901858353379"><ele>501.2</ele><time>2026-04-19T09:20:38Z</time></trkpt><trkpt lat="44.724871738709766" lon="9.754023997733745"><ele>504.80000000000007</ele><time>2026-04-19T09:20:40Z</time></trkpt><trkpt lat="44.72484747639417" lon="9.754168702155177"><ele>508.40000000000003</ele><time>2026-04-19T09:20:42Z</time></trkpt><trkpt lat="44.724766019476924" lon="9.75431551431366"><ele>512.0</ele><time>2026-04-19T09:20:44Z</time></trkpt><trkpt lat="44.72473837722695" lon="9.754396098351156"><ele>514.1666666666666</ele><time>2026-04-19T09:20:45Z</time></trkpt><trkpt lat="44.7246921207342" lon="9.75454935390659"><ele>516.3333333333333</ele><time>2026-04-19T09:20:47Z</time></trkpt><trkpt lat="44.72465801178208" lon="9.754649610776656"><ele>518.5</ele><time>2026-04-19T09:20:50Z</time></trkpt><trkpt lat="44.72465255797051" lon="9.75474617958353"><ele>520.6666666666666</ele><time>2026-04-19T09:21:03Z</time></trkpt><trkpt lat="44.724688510186226" lon="9.754827356099943"><ele>522.8333333333334</ele><time>2026-04-19T09:21:05Z</time></trkpt><trkpt lat="44.72467120957445" lon="9.754940178861041"><ele>525.0</ele><time>2026-04-19T09:21:07Z</time></trkpt><trkpt lat="44.72465357161454" lon="9.755040600975732"><ele>525.0</ele><time>2026-04-19T09:21:08Z</time></trkpt><trkpt lat="44.72463049557146" lon="9.755146138350147"><ele>525.0</ele><time>2026-04-19T09:21:09Z</time></trkpt><trkpt lat="44.7246204584747" lon="9.75526009848069"><ele>525.0</ele><time>2026-04-19T09:21:10Z</time></trkpt><trkpt lat="44.724639650887774" lon="9.755393418746463"><ele>525.0</ele><time>2026-04-19T09:21:12Z</time></trkpt><trkpt lat="44.724703358685346" lon="9.755503138495364"><ele>525.0</ele><time>2026-04-19T09:21:14Z</time></trkpt><trkpt lat="44.72475885634085" lon="9.755566062147757"><ele>525.0</ele><time>2026-04-19T09:21:15Z</time></trkpt><trkpt lat="44.724799661165434" lon="9.755641255402775"><ele>526.4</ele><time>2026-04-19T09:21:16Z</time></trkpt><trkpt lat="44.724880495687046" lon="9.755756517174259"><ele>527.8</ele><time>2026-04-19T09:21:18Z</time></trkpt><trkpt lat="44.724946457146686" lon="9.755805826661355"><ele>529.2</ele><time>2026-04-19T09:21:19Z</time></trkpt><trkpt lat="44.725012146155194" lon="9.755853540708802"><ele>530.6</ele><time>2026-04-19T09:21:20Z</time></trkpt><trkpt lat="44.72506811407215" lon="9.755965330273737"><ele>532.0</ele><time>2026-04-19T09:21:22Z</time></trkpt><trkpt lat="44.72510816461545" lon="9.756091432259133"><ele>533.0</ele><time>2026-04-19T09:21:24Z</time></trkpt><trkpt lat="44.725107751426115" lon="9.756216708757423"><ele>534.0</ele><time>2026-04-19T09:21:26Z</time></trkpt><trkpt lat="44.725121873738715" lon="9.75632480867167"><ele>535.0</ele><time>2026-04-19T09:21:28Z</time></trkpt><trkpt lat="44.72514053893605" lon="9.756446992815931"><ele>536.0</ele><time>2026-04-19T09:21:30Z</time></trkpt><trkpt lat="44.72516749621008" lon="9.756536385923598"><ele>537.0</ele><time>2026-04-19T09:21:32Z</time></trkpt><trkpt lat="44.725224133748846" lon="9.756639398005428"><ele>538.0</ele><time>2026-04-19T09:21:34Z</time></trkpt><trkpt lat="44.725264345553256" lon="9.756707842045698"><ele>536.8333333333334</ele><time>2026-04-19T09:21:35Z</time></trkpt><trkpt lat="44.72530244626646" lon="9.75679008023177"><ele>535.6666666666667</ele><time>2026-04-19T09:21:37Z</time></trkpt><trkpt lat="44.72533839515199" lon="9.756875487743647"><ele>534.5</ele><time>2026-04-19T09:21:45Z</time></trkpt><trkpt lat="44.725378174552844" lon="9.756947878767171"><ele>533.3333333333334</ele><time>2026-04-19T09:21:47Z</time></trkpt><trkpt lat="44.72543524128259" lon="9.757064725749844"><ele>532.1666666666666</ele><time>2026-04-19T09:21:49Z</time></trkpt><trkpt lat="44.72547905435311" lon="9.757141945135013"><ele>531.0</ele><time>2026-04-19T09:21:50Z</time></trkpt><trkpt lat="44.725532310092746" lon="9.757239174065568"><ele>531.0</ele><time>2026-04-19T09:21:52Z</time></trkpt><trkpt lat="44.725559874068225" lon="9.757320436426895"><ele>531.0</ele><time>2026-04-19T09:21:53Z</time></trkpt><trkpt lat="44.72560776498846" lon="9.757451948618083"><ele>531.0</ele><time>2026-04-19T09:21:55Z</time></trkpt><trkpt lat="44.72564848259646" lon="9.75756154891246"><ele>531.0</ele><time>2026-04-19T09:21:56Z</time></trkpt><trkpt lat="44.72570052775515" lon="9.757700202771398"><ele>531.0</ele><time>2026-04-19T09:21:58Z</time></trkpt><trkpt lat="44.7257607863498" lon="9.757804427719842"><ele>531.8</ele><time>2026-04-19T09:22:00Z</time></trkpt><trkpt lat="44.72581293660847" lon="9.757926192649183"><ele>532.6</ele><time>2026-04-19T09:22:02Z</time></trkpt><trkpt lat="44.72586283469125" lon="9.758022425016986"><ele>533.4</ele><time>2026-04-19T09:22:04Z</time></trkpt><trkpt lat="44.72595390300222" lon="9.758130697391946"><ele>534.2</ele><time>2026-04-19T09:22:05.999Z</time></trkpt><trkpt lat="44.726031410729895" lon="9.758211863682737"><ele>535.0</ele><time>2026-04-19T09:22:07.999Z</time></trkpt><trkpt lat="44.726130740676616" lon="9.758323473494752"><ele>535.0</ele><time>2026-04-19T09:22:09.999Z</time></trkpt><trkpt lat="44.72618727010866" lon="9.758390944715982"><ele>535.0</ele><time>2026-04-19T09:22:10.999Z</time></trkpt><trkpt lat="44.72624947186462" lon="9.758471300914646"><ele>535.0</ele><time>2026-04-19T09:22:11.999Z</time></trkpt><trkpt lat="44.726306407982435" lon="9.758510393380496"><ele>535.0</ele><time>2026-04-19T09:22:12.999Z</time></trkpt><trkpt lat="44.726382493732125" lon="9.758523637036898"><ele>535.0</ele><time>2026-04-19T09:22:14.999Z</time></trkpt><trkpt lat="44.72646181831241" lon="9.758565884226902"><ele>535.0</ele><time>2026-04-19T09:22:15.999Z</time></trkpt><trkpt lat="44.72654516332897" lon="9.758620625241209"><ele>536.3333333333334</ele><time>2026-04-19T09:22:16.999Z</time></trkpt><trkpt lat="44.72660070486532" lon="9.758690026465418"><ele>537.6666666666667</ele><time>2026-04-19T09:22:19.999Z</time></trkpt><trkpt lat="44.72660454192894" lon="9.758795766480937"><ele>539.0</ele><time>2026-04-19T09:22:21.999Z</time></trkpt><trkpt lat="44.72658086663228" lon="9.758903907800194"><ele>540.3333333333334</ele><time>2026-04-19T09:22:22.999Z</time></trkpt><trkpt lat="44.726564466101" lon="9.759025066548253"><ele>541.6666666666666</ele><time>2026-04-19T09:22:23.999Z</time></trkpt><trkpt lat="44.726565063551256" lon="9.759124359852072"><ele>543.0</ele><time>2026-04-19T09:22:24.999Z</time></trkpt><trkpt lat="44.72658268374154" lon="9.759216611691405"><ele>543.0</ele><time>2026-04-19T09:22:26.999Z</time></trkpt><trkpt lat="44.726568913846705" lon="9.759329367911805"><ele>543.0</ele><time>2026-04-19T09:22:32.999Z</time></trkpt><trkpt lat="44.72657766706645" lon="9.75943388788584"><ele>543.0</ele><time>2026-04-19T09:22:34.999Z</time></trkpt><trkpt lat="44.72657331596137" lon="9.759562499129235"><ele>543.0</ele><time>2026-04-19T09:22:36.999Z</time></trkpt><trkpt lat="44.72656526709879" lon="9.759684076584957"><ele>543.0</ele><time>2026-04-19T09:22:38.999Z</time></trkpt><trkpt lat="44.72654663075373" lon="9.759772583250328"><ele>543.0</ele><time>2026-04-19T09:22:41Z</time></trkpt><trkpt lat="44.72653433435027" lon="9.759876576422105"><ele>542.0</ele><time>2026-04-19T09:22:43Z</time></trkpt><trkpt lat="44.72652086131812" lon="9.759968821935278"><ele>541.0</ele><time>2026-04-19T09:22:45Z</time></trkpt><trkpt lat="44.726498267333554" lon="9.760064402033649"><ele>540.0</ele><time>2026-04-19T09:22:49Z</time></trkpt><trkpt lat="44.726473922143825" lon="9.760156547754105"><ele>539.0</ele><time>2026-04-19T09:22:55Z</time></trkpt><trkpt lat="44.726469706985434" lon="9.760250944726309"><ele>538.0</ele><time>2026-04-19T09:22:57Z</time></trkpt><trkpt lat="44.726446187306" lon="9.760356625218076"><ele>537.0</ele><time>2026-04-19T09:23:15Z</time></trkpt><trkpt lat="44.72646037609537" lon="9.760452959985694"><ele>536.0</ele><time>2026-04-19T09:23:18Z</time></trkpt><trkpt lat="44.726444087541076" lon="9.760545769376414"><ele>535.1666666666666</ele><time>2026-04-19T09:23:20Z</time></trkpt><trkpt lat="44.7264249879648" lon="9.760646769376764"><ele>534.3333333333333</ele><time>2026-04-19T09:23:23Z</time></trkpt><trkpt lat="44.72639955802085" lon="9.760748574183921"><ele>533.5</ele><time>2026-04-19T09:23:46Z</time></trkpt><trkpt lat="44.726327462045084" lon="9.760815291325784"><ele>532.6666666666666</ele><time>2026-04-19T09:23:50Z</time></trkpt><trkpt lat="44.72620806830721" lon="9.760884103184736"><ele>531.8333333333334</ele><time>2026-04-19T09:23:52Z</time></trkpt><trkpt lat="44.72615737480553" lon="9.760947810781252"><ele>531.0</ele><time>2026-04-19T09:23:53Z</time></trkpt><trkpt lat="44.72605441965008" lon="9.761019408132022"><ele>531.8333333333334</ele><time>2026-04-19T09:23:55Z</time></trkpt><trkpt lat="44.72595250998975" lon="9.76106757951971"><ele>532.6666666666666</ele><time>2026-04-19T09:23:57Z</time></trkpt><trkpt lat="44.725948234353595" lon="9.761169149200786"><ele>533.5</ele><time>2026-04-19T09:24:01.999Z</time></trkpt><trkpt lat="44.725960661974575" lon="9.761257524093521"><ele>534.3333333333333</ele><time>2026-04-19T09:24:06.999Z</time></trkpt><trkpt lat="44.72593375800305" lon="9.761345424814426"><ele>535.1666666666666</ele><time>2026-04-19T09:24:27.999Z</time></trkpt><trkpt lat="44.72601059842113" lon="9.761393654619898"><ele>536.0</ele><time>2026-04-19T09:24:33.999Z</time></trkpt><trkpt lat="44.726097812369034" lon="9.7614516924327"><ele>536.0</ele><time>2026-04-19T09:24:36.999Z</time></trkpt><trkpt lat="44.72614686492431" lon="9.76151770784285"><ele>536.0</ele><time>2026-04-19T09:24:37.999Z</time></trkpt><trkpt lat="44.72619755223603" lon="9.761589421185517"><ele>536.0</ele><time>2026-04-19T09:24:38.999Z</time></trkpt><trkpt lat="44.726244835688505" lon="9.76166308254233"><ele>536.0</ele><time>2026-04-19T09:24:39.999Z</time></trkpt><trkpt lat="44.726279862982" lon="9.761744480779393"><ele>536.0</ele><time>2026-04-19T09:24:40.999Z</time></trkpt><trkpt lat="44.726324043397724" lon="9.76183133976135"><ele>536.0</ele><time>2026-04-19T09:24:41.999Z</time></trkpt><trkpt lat="44.72636564452625" lon="9.761916860307123"><ele>536.0</ele><time>2026-04-19T09:24:42.999Z</time></trkpt><trkpt lat="44.72643028593463" lon="9.762075413724299"><ele>536.0</ele><time>2026-04-19T09:24:45Z</time></trkpt><trkpt lat="44.7264738369567" lon="9.762161766062505"><ele>536.0</ele><time>2026-04-19T09:24:46Z</time></trkpt><trkpt lat="44.72652714931536" lon="9.762262895658388"><ele>536.0</ele><time>2026-04-19T09:24:47Z</time></trkpt><trkpt lat="44.726579376669605" lon="9.762405081157329"><ele>536.0</ele><time>2026-04-19T09:24:49Z</time></trkpt><trkpt lat="44.726599702263165" lon="9.762491404379432"><ele>536.0</ele><time>2026-04-19T09:24:50Z</time></trkpt><trkpt lat="44.72661290813246" lon="9.762632563346974"><ele>536.0</ele><time>2026-04-19T09:24:52Z</time></trkpt><trkpt lat="44.7266120262674" lon="9.762748003899528"><ele>535.6666666666666</ele><time>2026-04-19T09:24:54Z</time></trkpt><trkpt lat="44.72665757495103" lon="9.762813582641556"><ele>535.3333333333333</ele><time>2026-04-19T09:24:59Z</time></trkpt><trkpt lat="44.726731800540804" lon="9.762861270957911"><ele>535.0</ele><time>2026-04-19T09:25:02Z</time></trkpt><trkpt lat="44.72680720260367" lon="9.762914589657152"><ele>534.6666666666666</ele><time>2026-04-19T09:25:04Z</time></trkpt><trkpt lat="44.72687374873437" lon="9.762981928412001"><ele>534.3333333333334</ele><time>2026-04-19T09:25:06Z</time></trkpt><trkpt lat="44.726963287872394" lon="9.763017456154785"><ele>534.0</ele><time>2026-04-19T09:25:08Z</time></trkpt><trkpt lat="44.727187713769176" lon="9.76314299501785"><ele>534.0</ele><time>2026-04-19T09:25:10Z</time></trkpt><trkpt lat="44.72726989529563" lon="9.763182708162065"><ele>534.0</ele><time>2026-04-19T09:25:11Z</time></trkpt><trkpt lat="44.72734642609958" lon="9.763211373013249"><ele>534.0</ele><time>2026-04-19T09:25:12Z</time></trkpt><trkpt lat="44.72742097990174" lon="9.763259351609781"><ele>534.0</ele><time>2026-04-19T09:25:13Z</time></trkpt><trkpt lat="44.72748160749702" lon="9.763312763318435"><ele>534.0</ele><time>2026-04-19T09:25:14Z</time></trkpt><trkpt lat="44.727535134415035" lon="9.763396651768561"><ele>534.0</ele><time>2026-04-19T09:25:15Z</time></trkpt><trkpt lat="44.72758124777532" lon="9.76347129900301"><ele>535.0</ele><time>2026-04-19T09:25:16Z</time></trkpt><trkpt lat="44.72763030530081" lon="9.763538794418174"><ele>536.0</ele><time>2026-04-19T09:25:17Z</time></trkpt><trkpt lat="44.72768949962325" lon="9.763647672483488"><ele>537.0</ele><time>2026-04-19T09:25:18Z</time></trkpt><trkpt lat="44.72774058695" lon="9.763764491860513"><ele>538.0</ele><time>2026-04-19T09:25:19Z</time></trkpt><trkpt lat="44.72778221346145" lon="9.763851556251923"><ele>539.0</ele><time>2026-04-19T09:25:20Z</time></trkpt><trkpt lat="44.727824955544854" lon="9.763917754786027"><ele>540.0</ele><time>2026-04-19T09:25:21Z</time></trkpt><trkpt lat="44.72793487516829" lon="9.763986418304665"><ele>538.8333333333334</ele><time>2026-04-19T09:25:23Z</time></trkpt><trkpt lat="44.727986828781496" lon="9.76403960525607"><ele>537.6666666666666</ele><time>2026-04-19T09:25:24Z</time></trkpt><trkpt lat="44.72805470928361" lon="9.764177298378135"><ele>536.5</ele><time>2026-04-19T09:25:26Z</time></trkpt><trkpt lat="44.72808242648834" lon="9.764260465383435"><ele>535.3333333333333</ele><time>2026-04-19T09:25:27Z</time></trkpt><trkpt lat="44.728101169049495" lon="9.76438231265962"><ele>534.1666666666666</ele><time>2026-04-19T09:25:29Z</time></trkpt><trkpt lat="44.72808849022206" lon="9.764479551809409"><ele>533.0</ele><time>2026-04-19T09:25:31Z</time></trkpt><trkpt lat="44.72802905742977" lon="9.764515471753736"><ele>533.0</ele><time>2026-04-19T09:25:35Z</time></trkpt><trkpt lat="44.72798135015198" lon="9.76438069748077"><ele>533.0</ele><time>2026-04-19T09:25:37Z</time></trkpt><trkpt lat="44.72795707735921" lon="9.76428569716414"><ele>533.0</ele><time>2026-04-19T09:25:38Z</time></trkpt><trkpt lat="44.72789703687216" lon="9.764201476760787"><ele>533.0</ele><time>2026-04-19T09:25:39Z</time></trkpt><trkpt lat="44.72782949969097" lon="9.764152299977374"><ele>533.0</ele><time>2026-04-19T09:25:40Z</time></trkpt><trkpt lat="44.72775476222381" lon="9.76414734456788"><ele>533.0</ele><time>2026-04-19T09:25:41Z</time></trkpt><trkpt lat="44.727701795790104" lon="9.764196390622713"><ele>533.0</ele><time>2026-04-19T09:25:42Z</time></trkpt><trkpt lat="44.72765818058629" lon="9.764277794051578"><ele>533.0</ele><time>2026-04-19T09:25:43Z</time></trkpt><trkpt lat="44.72764064899217" lon="9.76438952826702"><ele>533.0</ele><time>2026-04-19T09:25:44Z</time></trkpt><trkpt lat="44.72765598185978" lon="9.764513668424865"><ele>533.0</ele><time>2026-04-19T09:25:45Z</time></trkpt><trkpt lat="44.727701981298054" lon="9.764626469222463"><ele>533.0</ele><time>2026-04-19T09:25:46Z</time></trkpt><trkpt lat="44.727759889813015" lon="9.764729028374026"><ele>533.0</ele><time>2026-04-19T09:25:47Z</time></trkpt><trkpt lat="44.72782245217224" lon="9.764826884836793"><ele>533.0</ele><time>2026-04-19T09:25:48Z</time></trkpt><trkpt lat="44.72787458666052" lon="9.764905800341461"><ele>533.0</ele><time>2026-04-19T09:25:49Z</time></trkpt><trkpt lat="44.72794989918346" lon="9.765029959948977"><ele>533.0</ele><time>2026-04-19T09:25:51Z</time></trkpt><trkpt lat="44.728015411843906" lon="9.765154420944443"><ele>533.0</ele><time>2026-04-19T09:25:53Z</time></trkpt><trkpt lat="44.727931437829824" lon="9.765272257407915"><ele>533.0</ele><time>2026-04-19T09:25:55Z</time></trkpt><trkpt lat="44.72784698811504" lon="9.765270384061104"><ele>536.0</ele><time>2026-04-19T09:25:56Z</time></trkpt><trkpt lat="44.72776373043811" lon="9.765208871394721"><ele>539.0</ele><time>2026-04-19T09:25:57Z</time></trkpt><trkpt lat="44.72765831134594" lon="9.765155705084865"><ele>542.0</ele><time>2026-04-19T09:25:58Z</time></trkpt><trkpt lat="44.72751606180145" lon="9.76516140531137"><ele>545.0</ele><time>2026-04-19T09:25:59Z</time></trkpt><trkpt lat="44.72739838729575" lon="9.765168955126022"><ele>545.0</ele><time>2026-04-19T09:26:00Z</time></trkpt><trkpt lat="44.727326202888136" lon="9.765117930295894"><ele>545.0</ele><time>2026-04-19T09:26:01Z</time></trkpt><trkpt lat="44.72727987942632" lon="9.765003819277684"><ele>545.0</ele><time>2026-04-19T09:26:02Z</time></trkpt><trkpt lat="44.72725646030958" lon="9.764844187653578"><ele>545.0</ele><time>2026-04-19T09:26:03Z</time></trkpt><trkpt lat="44.72725648904162" lon="9.764649173488264"><ele>545.0</ele><time>2026-04-19T09:26:04Z</time></trkpt><trkpt lat="44.72725932017302" lon="9.764482415185837"><ele>544.0</ele><time>2026-04-19T09:26:05Z</time></trkpt><trkpt lat="44.727242418445904" lon="9.764336155010424"><ele>543.0</ele><time>2026-04-19T09:26:06Z</time></trkpt><trkpt lat="44.7272003522642" lon="9.76421418155267"><ele>542.0</ele><time>2026-04-19T09:26:07Z</time></trkpt><trkpt lat="44.72714066685374" lon="9.764128151884265"><ele>541.0</ele><time>2026-04-19T09:26:08Z</time></trkpt><trkpt lat="44.72704625109008" lon="9.764069154469777"><ele>540.0</ele><time>2026-04-19T09:26:09Z</time></trkpt><trkpt lat="44.72692788563939" lon="9.764046424753476"><ele>542.2</ele><time>2026-04-19T09:26:09.999Z</time></trkpt><trkpt lat="44.726811312723655" lon="9.764061121186254"><ele>544.4</ele><time>2026-04-19T09:26:10.999Z</time></trkpt><trkpt lat="44.7267125134703" lon="9.764096452293742"><ele>546.6</ele><time>2026-04-19T09:26:11.999Z</time></trkpt><trkpt lat="44.72661302560681" lon="9.76413944343087"><ele>548.8</ele><time>2026-04-19T09:26:12.999Z</time></trkpt><trkpt lat="44.7265032193354" lon="9.764171793130705"><ele>551.0</ele><time>2026-04-19T09:26:13.999Z</time></trkpt><trkpt lat="44.7263810184119" lon="9.764195362057508"><ele>551.0</ele><time>2026-04-19T09:26:14.999Z</time></trkpt><trkpt lat="44.726257661550505" lon="9.764198448044322"><ele>551.0</ele><time>2026-04-19T09:26:15.999Z</time></trkpt><trkpt lat="44.72615330338649" lon="9.76416232873684"><ele>551.0</ele><time>2026-04-19T09:26:16.999Z</time></trkpt><trkpt lat="44.726055867431214" lon="9.764103233295758"><ele>551.0</ele><time>2026-04-19T09:26:17.999Z</time></trkpt><trkpt lat="44.72595965604643" lon="9.764028135914351"><ele>551.0</ele><time>2026-04-19T09:26:18.999Z</time></trkpt><trkpt lat="44.72585981705222" lon="9.76394398541959"><ele>553.0</ele><time>2026-04-19T09:26:19.999Z</time></trkpt><trkpt lat="44.72575521819086" lon="9.763847556934227"><ele>555.0</ele><time>2026-04-19T09:26:20.999Z</time></trkpt><trkpt lat="44.725656557220994" lon="9.763752456798912"><ele>557.0</ele><time>2026-04-19T09:26:21.999Z</time></trkpt><trkpt lat="44.72557712953849" lon="9.763674797543851"><ele>559.0</ele><time>2026-04-19T09:26:22.999Z</time></trkpt><trkpt lat="44.7255019448984" lon="9.763621629331032"><ele>561.0</ele><time>2026-04-19T09:26:23.999Z</time></trkpt><trkpt lat="44.72540762780163" lon="9.76359148605012"><ele>561.0</ele><time>2026-04-19T09:26:24.999Z</time></trkpt><trkpt lat="44.72529499957679" lon="9.763578679387809"><ele>561.0</ele><time>2026-04-19T09:26:25.999Z</time></trkpt><trkpt lat="44.7251727776852" lon="9.76356351998953"><ele>561.0</ele><time>2026-04-19T09:26:26.999Z</time></trkpt><trkpt lat="44.72504201946698" lon="9.763552010465881"><ele>561.0</ele><time>2026-04-19T09:26:27.999Z</time></trkpt><trkpt lat="44.72493765468873" lon="9.763538490925294"><ele>561.6666666666666</ele><time>2026-04-19T09:26:28.999Z</time></trkpt><trkpt lat="44.72485468577791" lon="9.76352979252864"><ele>562.3333333333334</ele><time>2026-04-19T09:26:29.999Z</time></trkpt><trkpt lat="44.724769104737895" lon="9.763533374446991"><ele>563.0</ele><time>2026-04-19T09:26:30.999Z</time></trkpt><trkpt lat="44.72468413682452" lon="9.763563315315613"><ele>563.6666666666667</ele><time>2026-04-19T09:26:31.999Z</time></trkpt><trkpt lat="44.72462667429329" lon="9.763650789586478"><ele>564.3333333333334</ele><time>2026-04-19T09:26:32.999Z</time></trkpt><trkpt lat="44.724612792963775" lon="9.763780014628962"><ele>565.0</ele><time>2026-04-19T09:26:33.999Z</time></trkpt><trkpt lat="44.72465161514989" lon="9.763901210393898"><ele>566.25</ele><time>2026-04-19T09:26:34.999Z</time></trkpt><trkpt lat="44.724736296540165" lon="9.764009636085484"><ele>567.5</ele><time>2026-04-19T09:26:35.999Z</time></trkpt><trkpt lat="44.724861454266744" lon="9.764102190250822"><ele>568.75</ele><time>2026-04-19T09:26:36.999Z</time></trkpt><trkpt lat="44.72501351023969" lon="9.764204122300916"><ele>570.0</ele><time>2026-04-19T09:26:37.999Z</time></trkpt><trkpt lat="44.72514780720626" lon="9.764290753882802"><ele>570.6</ele><time>2026-04-19T09:26:38.999Z</time></trkpt><trkpt lat="44.725238918608305" lon="9.76432861551364"><ele>571.2</ele><time>2026-04-19T09:26:39.999Z</time></trkpt><trkpt lat="44.72532412593502" lon="9.764366858990476"><ele>571.8</ele><time>2026-04-19T09:26:40.999Z</time></trkpt><trkpt lat="44.725404796896875" lon="9.764471171136444"><ele>572.4</ele><time>2026-04-19T09:26:41.999Z</time></trkpt><trkpt lat="44.72547726885313" lon="9.764630146597"><ele>573.0</ele><time>2026-04-19T09:26:42.999Z</time></trkpt><trkpt lat="44.72554391793206" lon="9.7647867592505"><ele>573.0</ele><time>2026-04-19T09:26:43.999Z</time></trkpt><trkpt lat="44.725600706616234" lon="9.764905142186763"><ele>573.0</ele><time>2026-04-19T09:26:44.999Z</time></trkpt><trkpt lat="44.725655843666395" lon="9.765019927802996"><ele>573.0</ele><time>2026-04-19T09:26:45.999Z</time></trkpt><trkpt lat="44.72571391412384" lon="9.765150289165943"><ele>573.0</ele><time>2026-04-19T09:26:46.999Z</time></trkpt><trkpt lat="44.72578217994264" lon="9.765280470940684"><ele>573.0</ele><time>2026-04-19T09:26:47.999Z</time></trkpt><trkpt lat="44.72587901947985" lon="9.765396380107239"><ele>571.8</ele><time>2026-04-19T09:26:48.999Z</time></trkpt><trkpt lat="44.72599490955608" lon="9.765483501992097"><ele>570.5999999999999</ele><time>2026-04-19T09:26:49.999Z</time></trkpt><trkpt lat="44.726098508416854" lon="9.765552612984498"><ele>569.4000000000001</ele><time>2026-04-19T09:26:51Z</time></trkpt><trkpt lat="44.72618988260876" lon="9.765620716454373"><ele>568.2</ele><time>2026-04-19T09:26:52Z</time></trkpt><trkpt lat="44.7262635293305" lon="9.76568288983665"><ele>567.0</ele><time>2026-04-19T09:26:53Z</time></trkpt><trkpt lat="44.72631504959678" lon="9.765769513477197"><ele>567.0</ele><time>2026-04-19T09:26:54Z</time></trkpt><trkpt lat="44.72634888923057" lon="9.765895717513757"><ele>567.0</ele><time>2026-04-19T09:26:55Z</time></trkpt><trkpt lat="44.72634961789766" lon="9.766042337869303"><ele>567.0</ele><time>2026-04-19T09:26:56Z</time></trkpt><trkpt lat="44.72632192300507" lon="9.766195866656311"><ele>567.0</ele><time>2026-04-19T09:26:57Z</time></trkpt><trkpt lat="44.726297712363824" lon="9.766349250637461"><ele>567.0</ele><time>2026-04-19T09:26:58Z</time></trkpt><trkpt lat="44.72630632732853" lon="9.766489400552059"><ele>568.75</ele><time>2026-04-19T09:26:59Z</time></trkpt><trkpt lat="44.7263424320841" lon="9.76661630444755"><ele>570.5</ele><time>2026-04-19T09:27:00Z</time></trkpt><trkpt lat="44.726417228441385" lon="9.766736461686278"><ele>572.25</ele><time>2026-04-19T09:27:01Z</time></trkpt><trkpt lat="44.72652341052776" lon="9.766834126746767"><ele>574.0</ele><time>2026-04-19T09:27:02Z</time></trkpt><trkpt lat="44.726645954024676" lon="9.766906016139611"><ele>576.25</ele><time>2026-04-19T09:27:03Z</time></trkpt><trkpt lat="44.726777917864126" lon="9.766964558236365"><ele>578.5</ele><time>2026-04-19T09:27:04Z</time></trkpt><trkpt lat="44.726903644837776" lon="9.767031024072464"><ele>580.75</ele><time>2026-04-19T09:27:05Z</time></trkpt><trkpt lat="44.72700232926756" lon="9.767102944703232"><ele>583.0</ele><time>2026-04-19T09:27:06Z</time></trkpt><trkpt lat="44.72708518053503" lon="9.767165492558298"><ele>583.6666666666667</ele><time>2026-04-19T09:27:07Z</time></trkpt><trkpt lat="44.727159643572016" lon="9.767213412151717"><ele>584.3333333333334</ele><time>2026-04-19T09:27:08Z</time></trkpt><trkpt lat="44.72721524447998" lon="9.767274140271933"><ele>585.0</ele><time>2026-04-19T09:27:09Z</time></trkpt><trkpt lat="44.72724574204364" lon="9.767374046585912"><ele>585.6666666666666</ele><time>2026-04-19T09:27:10Z</time></trkpt><trkpt lat="44.72725031295763" lon="9.767501672592582"><ele>586.3333333333333</ele><time>2026-04-19T09:27:11Z</time></trkpt><trkpt lat="44.72723333106166" lon="9.767630665541795"><ele>587.0</ele><time>2026-04-19T09:27:12Z</time></trkpt><trkpt lat="44.727191611844525" lon="9.76775438807747"><ele>587.0</ele><time>2026-04-19T09:27:14Z</time></trkpt><trkpt lat="44.727041275552715" lon="9.767816778179746"><ele>587.0</ele><time>2026-04-19T09:27:16Z</time></trkpt><trkpt lat="44.72693221659853" lon="9.767828539680632"><ele>587.0</ele><time>2026-04-19T09:27:17Z</time></trkpt><trkpt lat="44.726836532625434" lon="9.76782774044497"><ele>587.0</ele><time>2026-04-19T09:27:18Z</time></trkpt><trkpt lat="44.726736556088326" lon="9.76786330962066"><ele>585.0</ele><time>2026-04-19T09:27:19Z</time></trkpt><trkpt lat="44.72663252406213" lon="9.767932975056171"><ele>583.0</ele><time>2026-04-19T09:27:20Z</time></trkpt><trkpt lat="44.726521206899626" lon="9.768001444405407"><ele>581.0</ele><time>2026-04-19T09:27:21Z</time></trkpt><trkpt lat="44.726414005022036" lon="9.768048267306023"><ele>579.0</ele><time>2026-04-19T09:27:22Z</time></trkpt><trkpt lat="44.72630001713202" lon="9.768087784422296"><ele>579.0</ele><time>2026-04-19T09:27:23Z</time></trkpt><trkpt lat="44.726187839988384" lon="9.768119285798095"><ele>579.0</ele><time>2026-04-19T09:27:24Z</time></trkpt><trkpt lat="44.726092680700205" lon="9.768164677813205"><ele>579.0</ele><time>2026-04-19T09:27:25Z</time></trkpt><trkpt lat="44.72599824724539" lon="9.768223141836907"><ele>579.0</ele><time>2026-04-19T09:27:26Z</time></trkpt><trkpt lat="44.72590147569495" lon="9.768283542977194"><ele>579.0</ele><time>2026-04-19T09:27:27Z</time></trkpt><trkpt lat="44.72579513705348" lon="9.768342393217118"><ele>580.75</ele><time>2026-04-19T09:27:28Z</time></trkpt><trkpt lat="44.72568389432542" lon="9.768400039548236"><ele>582.5</ele><time>2026-04-19T09:27:29Z</time></trkpt><trkpt lat="44.725573708908335" lon="9.768449888159436"><ele>584.25</ele><time>2026-04-19T09:27:30Z</time></trkpt><trkpt lat="44.72546056283231" lon="9.76849061303353"><ele>586.0</ele><time>2026-04-19T09:27:31Z</time></trkpt><trkpt lat="44.72534240708498" lon="9.768538142081356"><ele>588.0</ele><time>2026-04-19T09:27:32Z</time></trkpt><trkpt lat="44.725222891099406" lon="9.768588255174873"><ele>590.0</ele><time>2026-04-19T09:27:33Z</time></trkpt><trkpt lat="44.72510381059844" lon="9.76862821876483"><ele>592.0</ele><time>2026-04-19T09:27:34Z</time></trkpt><trkpt lat="44.724988324000535" lon="9.768676236651682"><ele>594.0</ele><time>2026-04-19T09:27:35Z</time></trkpt><trkpt lat="44.72487526864884" lon="9.76873080561305"><ele>594.0</ele><time>2026-04-19T09:27:36Z</time></trkpt><trkpt lat="44.72476132415661" lon="9.768781720035959"><ele>594.0</ele><time>2026-04-19T09:27:37Z</time></trkpt><trkpt lat="44.72464740058821" lon="9.768822698336031"><ele>594.0</ele><time>2026-04-19T09:27:38Z</time></trkpt><trkpt lat="44.724546064014504" lon="9.768863258804473"><ele>594.0</ele><time>2026-04-19T09:27:39Z</time></trkpt><trkpt lat="44.72446094594434" lon="9.76890233212143"><ele>594.0</ele><time>2026-04-19T09:27:40Z</time></trkpt><trkpt lat="44.724357657845445" lon="9.768945259749284"><ele>596.5</ele><time>2026-04-19T09:27:41Z</time></trkpt><trkpt lat="44.72423869524005" lon="9.76900104990644"><ele>599.0</ele><time>2026-04-19T09:27:42Z</time></trkpt><trkpt lat="44.724123425792335" lon="9.76908406727642"><ele>601.5</ele><time>2026-04-19T09:27:43Z</time></trkpt><trkpt lat="44.724028755003346" lon="9.769211607085257"><ele>604.0</ele><time>2026-04-19T09:27:44Z</time></trkpt><trkpt lat="44.723944083970096" lon="9.769353595996053"><ele>604.5</ele><time>2026-04-19T09:27:45Z</time></trkpt><trkpt lat="44.72385441431114" lon="9.7694857475327"><ele>605.0</ele><time>2026-04-19T09:27:46Z</time></trkpt><trkpt lat="44.72376057409808" lon="9.769605131487372"><ele>605.5</ele><time>2026-04-19T09:27:47Z</time></trkpt><trkpt lat="44.72367335857502" lon="9.769713771721717"><ele>606.0</ele><time>2026-04-19T09:27:48Z</time></trkpt><trkpt lat="44.72360443292189" lon="9.769808039171224"><ele>607.6666666666666</ele><time>2026-04-19T09:27:49Z</time></trkpt><trkpt lat="44.72354933063736" lon="9.769879972872493"><ele>609.3333333333334</ele><time>2026-04-19T09:27:50Z</time></trkpt><trkpt lat="44.7234646624004" lon="9.770001685611327"><ele>611.0</ele><time>2026-04-19T09:27:52Z</time></trkpt><trkpt lat="44.72339701454223" lon="9.770083332332582"><ele>612.6666666666667</ele><time>2026-04-19T09:27:54Z</time></trkpt><trkpt lat="44.723349217179866" lon="9.770148128070309"><ele>614.3333333333334</ele><time>2026-04-19T09:27:57Z</time></trkpt><trkpt lat="44.723286191031995" lon="9.770080767801653"><ele>616.0</ele><time>2026-04-19T09:28:00Z</time></trkpt><trkpt lat="44.72328201821591" lon="9.769944398244936"><ele>616.0</ele><time>2026-04-19T09:28:02Z</time></trkpt><trkpt lat="44.723257374368686" lon="9.769806180008139"><ele>616.0</ele><time>2026-04-19T09:28:04Z</time></trkpt><trkpt lat="44.723199683827616" lon="9.769675683719829"><ele>616.0</ele><time>2026-04-19T09:28:06Z</time></trkpt><trkpt lat="44.7231507712622" lon="9.769558691589312"><ele>616.0</ele><time>2026-04-19T09:28:08Z</time></trkpt><trkpt lat="44.72310695912698" lon="9.76940213076947"><ele>616.0</ele><time>2026-04-19T09:28:09.999Z</time></trkpt><trkpt lat="44.723085600376564" lon="9.769269701439551"><ele>617.0</ele><time>2026-04-19T09:28:11.999Z</time></trkpt><trkpt lat="44.723060058148235" lon="9.76914817569922"><ele>618.0</ele><time>2026-04-19T09:28:13.999Z</time></trkpt><trkpt lat="44.72308383735577" lon="9.769054923961706"><ele>619.0</ele><time>2026-04-19T09:28:15.999Z</time></trkpt><trkpt lat="44.72310692128717" lon="9.76893320363091"><ele>620.0</ele><time>2026-04-19T09:28:17.999Z</time></trkpt><trkpt lat="44.723113307054156" lon="9.768830994679984"><ele>621.0</ele><time>2026-04-19T09:28:18.999Z</time></trkpt><trkpt lat="44.723133811730314" lon="9.768730216075541"><ele>622.0</ele><time>2026-04-19T09:28:19.999Z</time></trkpt><trkpt lat="44.72315026228106" lon="9.768627007799353"><ele>622.6666666666667</ele><time>2026-04-19T09:28:21.999Z</time></trkpt><trkpt lat="44.72309547782822" lon="9.768515653563211"><ele>623.3333333333334</ele><time>2026-04-19T09:28:24.999Z</time></trkpt><trkpt lat="44.72303716352459" lon="9.768404598729433"><ele>624.0</ele><time>2026-04-19T09:28:26.999Z</time></trkpt><trkpt lat="44.722970603611046" lon="9.768315210795695"><ele>624.6666666666666</ele><time>2026-04-19T09:28:28.999Z</time></trkpt><trkpt lat="44.722912594524125" lon="9.768276416490965"><ele>625.3333333333333</ele><time>2026-04-19T09:28:29.999Z</time></trkpt><trkpt lat="44.72285835414657" lon="9.76822340866291"><ele>626.0</ele><time>2026-04-19T09:28:30.999Z</time></trkpt><trkpt lat="44.72280329136351" lon="9.768176731509188"><ele>626.0</ele><time>2026-04-19T09:28:31.999Z</time></trkpt><trkpt lat="44.722731642169414" lon="9.768075253452551"><ele>626.0</ele><time>2026-04-19T09:28:33.999Z</time></trkpt><trkpt lat="44.7226945708572" lon="9.767926826818258"><ele>626.0</ele><time>2026-04-19T09:28:35.999Z</time></trkpt><trkpt lat="44.72262210564524" lon="9.767875254394406"><ele>626.0</ele><time>2026-04-19T09:28:37.999Z</time></trkpt><trkpt lat="44.72252715580254" lon="9.767793771276555"><ele>626.0</ele><time>2026-04-19T09:28:40.999Z</time></trkpt><trkpt lat="44.72246451287703" lon="9.76773067336116"><ele>629.0</ele><time>2026-04-19T09:28:41.999Z</time></trkpt><trkpt lat="44.722386099697275" lon="9.767678414166408"><ele>632.0</ele><time>2026-04-19T09:28:42.999Z</time></trkpt><trkpt lat="44.72229733766702" lon="9.767629936859112"><ele>635.0</ele><time>2026-04-19T09:28:43.999Z</time></trkpt><trkpt lat="44.72224511635548" lon="9.767575382708163"><ele>638.0</ele><time>2026-04-19T09:28:44.999Z</time></trkpt><trkpt lat="44.722195982104104" lon="9.767517210919383"><ele>641.0</ele><time>2026-04-19T09:28:46.999Z</time></trkpt><trkpt lat="44.72211023954421" lon="9.767547201760026"><ele>644.0</ele><time>2026-04-19T09:28:48.999Z</time></trkpt><trkpt lat="44.721998305922476" lon="9.767515883822528"><ele>647.8000000000001</ele><time>2026-04-19T09:28:50.999Z</time></trkpt><trkpt lat="44.721876317705004" lon="9.76747493837049"><ele>651.6</ele><time>2026-04-19T09:28:52.999Z</time></trkpt><trkpt lat="44.72180240005109" lon="9.767451898395397"><ele>655.4</ele><time>2026-04-19T09:28:53.999Z</time></trkpt><trkpt lat="44.72173596380233" lon="9.767437264621806"><ele>659.2</ele><time>2026-04-19T09:28:54.999Z</time></trkpt><trkpt lat="44.72164052824728" lon="9.767415314568725"><ele>663.0</ele><time>2026-04-19T09:28:57Z</time></trkpt><trkpt lat="44.72155156911432" lon="9.767413718683839"><ele>663.0</ele><time>2026-04-19T09:28:59Z</time></trkpt><trkpt lat="44.72147282827174" lon="9.767410088263253"><ele>663.0</ele><time>2026-04-19T09:29:01Z</time></trkpt><trkpt lat="44.72138285696729" lon="9.767394826121638"><ele>663.0</ele><time>2026-04-19T09:29:03Z</time></trkpt><trkpt lat="44.72129490014264" lon="9.767393742827782"><ele>663.0</ele><time>2026-04-19T09:29:05Z</time></trkpt><trkpt lat="44.72116607524945" lon="9.767390931614289"><ele>663.0</ele><time>2026-04-19T09:29:07Z</time></trkpt><trkpt lat="44.721069888032275" lon="9.7674130605796"><ele>667.2</ele><time>2026-04-19T09:29:09Z</time></trkpt><trkpt lat="44.72096569552566" lon="9.767421692133574"><ele>671.4</ele><time>2026-04-19T09:29:11Z</time></trkpt><trkpt lat="44.72082963675323" lon="9.767463736013726"><ele>675.6</ele><time>2026-04-19T09:29:13Z</time></trkpt><trkpt lat="44.7207682599225" lon="9.767512960714855"><ele>679.8000000000001</ele><time>2026-04-19T09:29:14Z</time></trkpt><trkpt lat="44.72067932936893" lon="9.767560586404105"><ele>684.0</ele><time>2026-04-19T09:29:16Z</time></trkpt><trkpt lat="44.72057552887865" lon="9.767630430502088"><ele>684.0</ele><time>2026-04-19T09:29:18Z</time></trkpt><trkpt lat="44.720493391650706" lon="9.767672172989556"><ele>684.0</ele><time>2026-04-19T09:29:19Z</time></trkpt><trkpt lat="44.720385246819355" lon="9.7677227029602"><ele>684.0</ele><time>2026-04-19T09:29:20Z</time></trkpt><trkpt lat="44.7203022847617" lon="9.767749784085192"><ele>684.0</ele><time>2026-04-19T09:29:21Z</time></trkpt><trkpt lat="44.72023939126018" lon="9.767764248381939"><ele>684.0</ele><time>2026-04-19T09:29:22Z</time></trkpt><trkpt lat="44.720166383347355" lon="9.767748655815373"><ele>684.0</ele><time>2026-04-19T09:29:23Z</time></trkpt><trkpt lat="44.72005832766524" lon="9.767716932655789"><ele>687.4000000000001</ele><time>2026-04-19T09:29:24Z</time></trkpt><trkpt lat="44.71996354071611" lon="9.767677364352037"><ele>690.8</ele><time>2026-04-19T09:29:25Z</time></trkpt><trkpt lat="44.71987260416844" lon="9.767671613562749"><ele>694.2</ele><time>2026-04-19T09:29:26Z</time></trkpt><trkpt lat="44.7197683748215" lon="9.767673268481055"><ele>697.5999999999999</ele><time>2026-04-19T09:29:28Z</time></trkpt><trkpt lat="44.71969266852469" lon="9.767699078907919"><ele>701.0</ele><time>2026-04-19T09:29:30Z</time></trkpt><trkpt lat="44.71956306153269" lon="9.767693944616196"><ele>701.0</ele><time>2026-04-19T09:29:32Z</time></trkpt><trkpt lat="44.71949148003045" lon="9.767662936599407"><ele>701.0</ele><time>2026-04-19T09:29:34Z</time></trkpt><trkpt lat="44.719408685392914" lon="9.767564166428674"><ele>701.0</ele><time>2026-04-19T09:29:36Z</time></trkpt><trkpt lat="44.71933476048573" lon="9.767499781991184"><ele>701.0</ele><time>2026-04-19T09:29:38Z</time></trkpt><trkpt lat="44.719268236010016" lon="9.767502640317437"><ele>701.0</ele><time>2026-04-19T09:29:39Z</time></trkpt><trkpt lat="44.71914900494181" lon="9.767515048968049"><ele>705.0</ele><time>2026-04-19T09:29:41Z</time></trkpt><trkpt lat="44.71903309181223" lon="9.76749033703699"><ele>709.0</ele><time>2026-04-19T09:29:42Z</time></trkpt><trkpt lat="44.718936542025176" lon="9.767492230620274"><ele>713.0</ele><time>2026-04-19T09:29:43Z</time></trkpt><trkpt lat="44.718859139608035" lon="9.767480100108695"><ele>717.0</ele><time>2026-04-19T09:29:44Z</time></trkpt><trkpt lat="44.71877378952815" lon="9.767444692570672"><ele>721.0</ele><time>2026-04-19T09:29:45Z</time></trkpt><trkpt lat="44.71867417296347" lon="9.76743546304468"><ele>722.1666666666667</ele><time>2026-04-19T09:29:46Z</time></trkpt><trkpt lat="44.71856707333197" lon="9.767439457001773"><ele>723.3333333333334</ele><time>2026-04-19T09:29:47Z</time></trkpt><trkpt lat="44.71848638372496" lon="9.767435716749976"><ele>724.5</ele><time>2026-04-19T09:29:48Z</time></trkpt><trkpt lat="44.71841079051573" lon="9.767429497279766"><ele>725.6666666666666</ele><time>2026-04-19T09:29:49Z</time></trkpt><trkpt lat="44.71831964586656" lon="9.767444996339092"><ele>726.8333333333333</ele><time>2026-04-19T09:29:51Z</time></trkpt><trkpt lat="44.71822621100771" lon="9.76745513028522"><ele>728.0</ele><time>2026-04-19T09:29:54Z</time></trkpt><trkpt lat="44.71816074649281" lon="9.767454273666793"><ele>728.0</ele><time>2026-04-19T09:29:55Z</time></trkpt><trkpt lat="44.71808693523228" lon="9.76745286621931"><ele>728.0</ele><time>2026-04-19T09:29:56Z</time></trkpt><trkpt lat="44.717979546030264" lon="9.767437514200616"><ele>728.0</ele><time>2026-04-19T09:29:58Z</time></trkpt><trkpt lat="44.717873787414796" lon="9.767471886252713"><ele>728.0</ele><time>2026-04-19T09:30:00Z</time></trkpt><trkpt lat="44.71777806893344" lon="9.767495490482919"><ele>728.0</ele><time>2026-04-19T09:30:02Z</time></trkpt><trkpt lat="44.71767913792965" lon="9.767472619092139"><ele>729.2</ele><time>2026-04-19T09:30:04Z</time></trkpt><trkpt lat="44.71758001394497" lon="9.767479082328174"><ele>730.4</ele><time>2026-04-19T09:30:06Z</time></trkpt><trkpt lat="44.71748685909651" lon="9.76751538909142"><ele>731.6</ele><time>2026-04-19T09:30:08Z</time></trkpt><trkpt lat="44.71741183032962" lon="9.76761072569795"><ele>732.8000000000001</ele><time>2026-04-19T09:30:10Z</time></trkpt><trkpt lat="44.7173481868684" lon="9.767713937133232"><ele>734.0</ele><time>2026-04-19T09:30:12Z</time></trkpt><trkpt lat="44.71726633868708" lon="9.767847331226848"><ele>734.6</ele><time>2026-04-19T09:30:15Z</time></trkpt><trkpt lat="44.717202842879516" lon="9.767936525763124"><ele>735.2</ele><time>2026-04-19T09:30:17Z</time></trkpt><trkpt lat="44.717076481422716" lon="9.767958411909108"><ele>735.8000000000001</ele><time>2026-04-19T09:30:19.999Z</time></trkpt><trkpt lat="44.71700994198849" lon="9.767996072679864"><ele>736.4000000000001</ele><time>2026-04-19T09:30:20.999Z</time></trkpt><trkpt lat="44.71691770378772" lon="9.768094287938755"><ele>737.0</ele><time>2026-04-19T09:30:22.999Z</time></trkpt><trkpt lat="44.716838918904315" lon="9.768196033405424"><ele>740.0</ele><time>2026-04-19T09:30:24.999Z</time></trkpt><trkpt lat="44.71675172869475" lon="9.768310168430451"><ele>743.0</ele><time>2026-04-19T09:30:26.999Z</time></trkpt><trkpt lat="44.716672185874046" lon="9.768380109009374"><ele>746.0</ele><time>2026-04-19T09:30:28.999Z</time></trkpt><trkpt lat="44.716557859306974" lon="9.76840062685495"><ele>749.0</ele><time>2026-04-19T09:30:30.999Z</time></trkpt><trkpt lat="44.71646960593842" lon="9.768365074777098"><ele>752.0</ele><time>2026-04-19T09:30:32.999Z</time></trkpt><trkpt lat="44.716414660515184" lon="9.768410640872997"><ele>752.0</ele><time>2026-04-19T09:30:34.999Z</time></trkpt><trkpt lat="44.71634151299623" lon="9.768480620192662"><ele>752.0</ele><time>2026-04-19T09:30:36.999Z</time></trkpt><trkpt lat="44.71626929402847" lon="9.76848785709515"><ele>752.0</ele><time>2026-04-19T09:30:38.999Z</time></trkpt><trkpt lat="44.71617477470738" lon="9.768453229406168"><ele>752.0</ele><time>2026-04-19T09:30:41.999Z</time></trkpt><trkpt lat="44.71612365070398" lon="9.768533710749217"><ele>752.0</ele><time>2026-04-19T09:30:44.999Z</time></trkpt><trkpt lat="44.716088559822744" lon="9.768627503554892"><ele>752.0</ele><time>2026-04-19T09:30:47.999Z</time></trkpt><trkpt lat="44.71608158877186" lon="9.768728136338854"><ele>752.0</ele><time>2026-04-19T09:30:49.999Z</time></trkpt><trkpt lat="44.71607197958737" lon="9.768834143334736"><ele>752.0</ele><time>2026-04-19T09:30:50.999Z</time></trkpt><trkpt lat="44.71606443253953" lon="9.768960415428845"><ele>752.0</ele><time>2026-04-19T09:30:51.999Z</time></trkpt><trkpt lat="44.71605424660101" lon="9.769086583754124"><ele>752.0</ele><time>2026-04-19T09:30:52.999Z</time></trkpt><trkpt lat="44.71604740291924" lon="9.769175330908487"><ele>752.0</ele><time>2026-04-19T09:30:53.999Z</time></trkpt><trkpt lat="44.71602429687707" lon="9.769260092993155"><ele>752.0</ele><time>2026-04-19T09:30:54.999Z</time></trkpt><trkpt lat="44.71599856316909" lon="9.769366381110109"><ele>752.3333333333333</ele><time>2026-04-19T09:30:55.999Z</time></trkpt><trkpt lat="44.716009860207805" lon="9.7694709448579"><ele>752.6666666666666</ele><time>2026-04-19T09:30:57.999Z</time></trkpt><trkpt lat="44.71603761950586" lon="9.769590631580341"><ele>753.0</ele><time>2026-04-19T09:31:00.999Z</time></trkpt><trkpt lat="44.71606968450627" lon="9.769712503990547"><ele>753.3333333333334</ele><time>2026-04-19T09:31:03Z</time></trkpt><trkpt lat="44.716077185505526" lon="9.76980412719111"><ele>753.6666666666667</ele><time>2026-04-19T09:31:05Z</time></trkpt><trkpt lat="44.71607872206853" lon="9.76991570189419"><ele>754.0</ele><time>2026-04-19T09:31:07Z</time></trkpt><trkpt lat="44.71607978776301" lon="9.770037263444454"><ele>754.0</ele><time>2026-04-19T09:31:09Z</time></trkpt><trkpt lat="44.71609776365671" lon="9.770169969511985"><ele>754.0</ele><time>2026-04-19T09:31:11Z</time></trkpt><trkpt lat="44.71608557756676" lon="9.770280547277956"><ele>754.0</ele><time>2026-04-19T09:31:13Z</time></trkpt><trkpt lat="44.716072799327144" lon="9.770404782142442"><ele>754.0</ele><time>2026-04-19T09:31:16Z</time></trkpt><trkpt lat="44.71605913304106" lon="9.770527526203896"><ele>754.0</ele><time>2026-04-19T09:31:20Z</time></trkpt><trkpt lat="44.71603359577039" lon="9.77066786859444"><ele>754.5</ele><time>2026-04-19T09:31:23Z</time></trkpt><trkpt lat="44.71600430144969" lon="9.770757960646494"><ele>755.0</ele><time>2026-04-19T09:31:25Z</time></trkpt><trkpt lat="44.715995935559754" lon="9.770872360055039"><ele>755.5</ele><time>2026-04-19T09:31:28Z</time></trkpt><trkpt lat="44.715985966394705" lon="9.770980955047824"><ele>756.0</ele><time>2026-04-19T09:31:30Z</time></trkpt><trkpt lat="44.71599183856811" lon="9.771127993922434"><ele>756.5</ele><time>2026-04-19T09:31:33Z</time></trkpt><trkpt lat="44.71600272535701" lon="9.771218309119254"><ele>757.0</ele><time>2026-04-19T09:31:35Z</time></trkpt><trkpt lat="44.716011389272225" lon="9.771360184125426"><ele>757.0</ele><time>2026-04-19T09:31:37Z</time></trkpt><trkpt lat="44.715999781929455" lon="9.771473698597553"><ele>757.0</ele><time>2026-04-19T09:31:39Z</time></trkpt><trkpt lat="44.715949026872096" lon="9.771557487589725"><ele>757.0</ele><time>2026-04-19T09:31:41Z</time></trkpt><trkpt lat="44.71590125087798" lon="9.771640405308283"><ele>757.0</ele><time>2026-04-19T09:31:43Z</time></trkpt><trkpt lat="44.71586669678023" lon="9.771740350990223"><ele>757.0</ele><time>2026-04-19T09:31:45Z</time></trkpt><trkpt lat="44.71582418773119" lon="9.771830566702375"><ele>757.0</ele><time>2026-04-19T09:31:46Z</time></trkpt><trkpt lat="44.715799871215076" lon="9.772003628054955"><ele>756.8333333333334</ele><time>2026-04-19T09:31:48Z</time></trkpt><trkpt lat="44.715781367345066" lon="9.772125335995572"><ele>756.6666666666667</ele><time>2026-04-19T09:31:50Z</time></trkpt><trkpt lat="44.71577380296069" lon="9.772219923371171"><ele>756.5</ele><time>2026-04-19T09:31:53Z</time></trkpt><trkpt lat="44.715731739711686" lon="9.772296645141028"><ele>756.3333333333334</ele><time>2026-04-19T09:31:55Z</time></trkpt><trkpt lat="44.71565812138481" lon="9.772350747126342"><ele>756.1666666666666</ele><time>2026-04-19T09:31:57Z</time></trkpt><trkpt lat="44.7155945835035" lon="9.772409005775184"><ele>756.0</ele><time>2026-04-19T09:31:58Z</time></trkpt><trkpt lat="44.71552972294126" lon="9.772439561630646"><ele>756.0</ele><time>2026-04-19T09:31:59Z</time></trkpt><trkpt lat="44.715436182074015" lon="9.772512506296097"><ele>756.0</ele><time>2026-04-19T09:32:01Z</time></trkpt><trkpt lat="44.715377289440596" lon="9.772635406758608"><ele>756.0</ele><time>2026-04-19T09:32:03Z</time></trkpt><trkpt lat="44.71533749064493" lon="9.772711869435968"><ele>756.0</ele><time>2026-04-19T09:32:04Z</time></trkpt><trkpt lat="44.715292542761766" lon="9.772794677984155"><ele>756.0</ele><time>2026-04-19T09:32:05Z</time></trkpt><trkpt lat="44.71524224438412" lon="9.772887377172633"><ele>756.0</ele><time>2026-04-19T09:32:06Z</time></trkpt><trkpt lat="44.7151825282143" lon="9.77295368766951"><ele>758.5714285714286</ele><time>2026-04-19T09:32:08Z</time></trkpt><trkpt lat="44.715119589322185" lon="9.772981158267598"><ele>761.1428571428571</ele><time>2026-04-19T09:32:09Z</time></trkpt><trkpt lat="44.715055710763146" lon="9.773009611759269"><ele>763.7142857142858</ele><time>2026-04-19T09:32:10Z</time></trkpt><trkpt lat="44.71499328612741" lon="9.773030234345534"><ele>766.2857142857142</ele><time>2026-04-19T09:32:11Z</time></trkpt><trkpt lat="44.71495591319467" lon="9.773151458954116"><ele>768.8571428571429</ele><time>2026-04-19T09:32:14Z</time></trkpt><trkpt lat="44.714936015276564" lon="9.77324764105711"><ele>771.4285714285714</ele><time>2026-04-19T09:32:16.999Z</time></trkpt><trkpt lat="44.715012477649154" lon="9.773296375961252"><ele>774.0</ele><time>2026-04-19T09:32:19.999Z</time></trkpt><trkpt lat="44.715067732606" lon="9.77335605182209"><ele>774.0</ele><time>2026-04-19T09:32:22.999Z</time></trkpt><trkpt lat="44.71505831904873" lon="9.773465288249156"><ele>774.0</ele><time>2026-04-19T09:32:25.999Z</time></trkpt><trkpt lat="44.71506540329364" lon="9.77356228123833"><ele>774.0</ele><time>2026-04-19T09:32:27.999Z</time></trkpt><trkpt lat="44.71504931317812" lon="9.773683582185056"><ele>774.0</ele><time>2026-04-19T09:32:31.999Z</time></trkpt><trkpt lat="44.71501846868898" lon="9.773800948571383"><ele>774.0</ele><time>2026-04-19T09:32:33.999Z</time></trkpt><trkpt lat="44.71501057741217" lon="9.773912968141095"><ele>774.0</ele><time>2026-04-19T09:32:34.999Z</time></trkpt><trkpt lat="44.71499709124882" lon="9.774018509901554"><ele>773.6666666666666</ele><time>2026-04-19T09:32:35.999Z</time></trkpt><trkpt lat="44.71497767714342" lon="9.774123050831806"><ele>773.3333333333333</ele><time>2026-04-19T09:32:36.999Z</time></trkpt><trkpt lat="44.714953062447826" lon="9.77421570508165"><ele>773.0</ele><time>2026-04-19T09:32:37.999Z</time></trkpt><trkpt lat="44.71492477247594" lon="9.774298291415985"><ele>772.6666666666666</ele><time>2026-04-19T09:32:38.999Z</time></trkpt><trkpt lat="44.714897791870605" lon="9.774404073879394"><ele>772.3333333333333</ele><time>2026-04-19T09:32:40.999Z</time></trkpt><trkpt lat="44.71489053186014" lon="9.774577279222314"><ele>772.0</ele><time>2026-04-19T09:32:42.999Z</time></trkpt><trkpt lat="44.7148963741269" lon="9.774674537697067"><ele>771.9999999999999</ele><time>2026-04-19T09:32:43.999Z</time></trkpt><trkpt lat="44.714928001711336" lon="9.774774311917833"><ele>772.0</ele><time>2026-04-19T09:32:44.999Z</time></trkpt><trkpt lat="44.714954439284" lon="9.774881961520022"><ele>772.0</ele><time>2026-04-19T09:32:45.999Z</time></trkpt><trkpt lat="44.714974352139194" lon="9.774994425050599"><ele>772.0</ele><time>2026-04-19T09:32:46.999Z</time></trkpt><trkpt lat="44.71500115266389" lon="9.775082393778362"><ele>771.9999999999999</ele><time>2026-04-19T09:32:47.999Z</time></trkpt><trkpt lat="44.7150086389857" lon="9.775226953731769"><ele>772.0</ele><time>2026-04-19T09:32:49.999Z</time></trkpt><trkpt lat="44.71503330611937" lon="9.77533827164637"><ele>771.9999999999999</ele><time>2026-04-19T09:32:51.999Z</time></trkpt><trkpt lat="44.71507401966614" lon="9.775451564440555"><ele>772.0</ele><time>2026-04-19T09:32:53.999Z</time></trkpt><trkpt lat="44.71510028392941" lon="9.775574050577436"><ele>772.0</ele><time>2026-04-19T09:32:55.999Z</time></trkpt><trkpt lat="44.715152621091725" lon="9.775671060110334"><ele>772.0</ele><time>2026-04-19T09:32:58.999Z</time></trkpt><trkpt lat="44.71519369879187" lon="9.775767018551498"><ele>771.9999999999999</ele><time>2026-04-19T09:32:59.999Z</time></trkpt><trkpt lat="44.71521526485676" lon="9.775855258691662"><ele>772.0</ele><time>2026-04-19T09:33:00.999Z</time></trkpt><trkpt lat="44.71521964947463" lon="9.775951909872209"><ele>769.2</ele><time>2026-04-19T09:33:01.999Z</time></trkpt><trkpt lat="44.715246986911545" lon="9.776111630004795"><ele>766.4000000000001</ele><time>2026-04-19T09:33:03.999Z</time></trkpt><trkpt lat="44.71526753540519" lon="9.776242143892462"><ele>763.5999999999999</ele><time>2026-04-19T09:33:04.999Z</time></trkpt><trkpt lat="44.71527501975648" lon="9.7763679211936"><ele>760.8</ele><time>2026-04-19T09:33:05.999Z</time></trkpt><trkpt lat="44.71528931178867" lon="9.776490319503754"><ele>758.0</ele><time>2026-04-19T09:33:06.999Z</time></trkpt><trkpt lat="44.715323690596996" lon="9.776577551947176"><ele>758.0</ele><time>2026-04-19T09:33:08Z</time></trkpt><trkpt lat="44.715351194549086" lon="9.776712799743526"><ele>758.0</ele><time>2026-04-19T09:33:10Z</time></trkpt><trkpt lat="44.715376581126215" lon="9.776798644414313"><ele>758.0</ele><time>2026-04-19T09:33:11Z</time></trkpt><trkpt lat="44.715407938262416" lon="9.776902806578823"><ele>758.0</ele><time>2026-04-19T09:33:12Z</time></trkpt><trkpt lat="44.71544884998766" lon="9.777021790228089"><ele>758.0</ele><time>2026-04-19T09:33:13Z</time></trkpt><trkpt lat="44.7154766881491" lon="9.777150027445586"><ele>758.0</ele><time>2026-04-19T09:33:15Z</time></trkpt><trkpt lat="44.71549479078387" lon="9.777238081642748"><ele>758.6666666666666</ele><time>2026-04-19T09:33:17Z</time></trkpt><trkpt lat="44.71553317570137" lon="9.777346751923"><ele>759.3333333333333</ele><time>2026-04-19T09:33:19Z</time></trkpt><trkpt lat="44.71554825646524" lon="9.777466997169554"><ele>760.0</ele><time>2026-04-19T09:33:22Z</time></trkpt><trkpt lat="44.71554769567709" lon="9.777573908634979"><ele>760.6666666666666</ele><time>2026-04-19T09:33:23Z</time></trkpt><trkpt lat="44.71554152222525" lon="9.777674509666069"><ele>761.3333333333334</ele><time>2026-04-19T09:33:24Z</time></trkpt><trkpt lat="44.71555664755048" lon="9.777785620874731"><ele>762.0</ele><time>2026-04-19T09:33:25Z</time></trkpt><trkpt lat="44.715611343027426" lon="9.77796248683108"><ele>762.6</ele><time>2026-04-19T09:33:27Z</time></trkpt><trkpt lat="44.715625128042674" lon="9.778072163769602"><ele>763.2</ele><time>2026-04-19T09:33:28Z</time></trkpt><trkpt lat="44.71562043065971" lon="9.778228295583608"><ele>763.8</ele><time>2026-04-19T09:33:30Z</time></trkpt><trkpt lat="44.715567059844176" lon="9.77834604723178"><ele>764.4</ele><time>2026-04-19T09:33:32Z</time></trkpt><trkpt lat="44.715490173346126" lon="9.778447401879964"><ele>765.0</ele><time>2026-04-19T09:33:34Z</time></trkpt><trkpt lat="44.71546679365712" lon="9.778580274016937"><ele>765.2</ele><time>2026-04-19T09:33:36Z</time></trkpt><trkpt lat="44.715417611460936" lon="9.77873233737662"><ele>765.4</ele><time>2026-04-19T09:33:37Z</time></trkpt><trkpt lat="44.71537595999192" lon="9.778873847541323"><ele>765.5999999999999</ele><time>2026-04-19T09:33:38Z</time></trkpt><trkpt lat="44.71536379840599" lon="9.778979939582674"><ele>765.8</ele><time>2026-04-19T09:33:39Z</time></trkpt><trkpt lat="44.71535115141132" lon="9.779154086732433"><ele>766.0</ele><time>2026-04-19T09:33:41Z</time></trkpt><trkpt lat="44.71533828458394" lon="9.779275619908677"><ele>767.6666666666667</ele><time>2026-04-19T09:33:42Z</time></trkpt><trkpt lat="44.71533054336834" lon="9.779369419589635"><ele>769.3333333333334</ele><time>2026-04-19T09:33:43Z</time></trkpt><trkpt lat="44.71535146183362" lon="9.779492764660585"><ele>771.0</ele><time>2026-04-19T09:33:45Z</time></trkpt><trkpt lat="44.71538053746303" lon="9.779586805060475"><ele>772.6666666666667</ele><time>2026-04-19T09:33:46Z</time></trkpt><trkpt lat="44.715417895897275" lon="9.77971452889592"><ele>774.3333333333334</ele><time>2026-04-19T09:33:47Z</time></trkpt><trkpt lat="44.71544509869983" lon="9.77984295423943"><ele>776.0</ele><time>2026-04-19T09:33:48Z</time></trkpt><trkpt lat="44.71545833738119" lon="9.779949421064558"><ele>776.0</ele><time>2026-04-19T09:33:49Z</time></trkpt><trkpt lat="44.7155229288531" lon="9.780101029088016"><ele>776.0</ele><time>2026-04-19T09:33:51Z</time></trkpt><trkpt lat="44.71556760065214" lon="9.780191680965288"><ele>776.0</ele><time>2026-04-19T09:33:52Z</time></trkpt><trkpt lat="44.71561059729715" lon="9.780284991197878"><ele>776.0</ele><time>2026-04-19T09:33:53Z</time></trkpt><trkpt lat="44.71566914734185" lon="9.780449366718305"><ele>776.0</ele><time>2026-04-19T09:33:55Z</time></trkpt><trkpt lat="44.71573752908661" lon="9.780558713836081"><ele>777.8333333333334</ele><time>2026-04-19T09:33:57Z</time></trkpt><trkpt lat="44.715794449357944" lon="9.78059967971923"><ele>779.6666666666667</ele><time>2026-04-19T09:33:58Z</time></trkpt><trkpt lat="44.71585071030552" lon="9.780710731488027"><ele>781.5</ele><time>2026-04-19T09:34:00Z</time></trkpt><trkpt lat="44.715868732272696" lon="9.780799478986069"><ele>783.3333333333333</ele><time>2026-04-19T09:34:04Z</time></trkpt><trkpt lat="44.71582487127966" lon="9.780898713720042"><ele>785.1666666666666</ele><time>2026-04-19T09:35:25Z</time></trkpt><trkpt lat="44.71576340154889" lon="9.780951856055696"><ele>787.0</ele><time>2026-04-19T09:35:27Z</time></trkpt><trkpt lat="44.71572769426719" lon="9.781033379852088"><ele>789.2</ele><time>2026-04-19T09:35:29Z</time></trkpt><trkpt lat="44.715682520601725" lon="9.78112766833891"><ele>791.4000000000001</ele><time>2026-04-19T09:35:31Z</time></trkpt><trkpt lat="44.715726738057754" lon="9.781297942696794"><ele>793.5999999999999</ele><time>2026-04-19T09:35:33Z</time></trkpt><trkpt lat="44.71568708300965" lon="9.781411034114914"><ele>795.8</ele><time>2026-04-19T09:35:37Z</time></trkpt><trkpt lat="44.71564151618952" lon="9.781496238893546"><ele>798.0</ele><time>2026-04-19T09:35:38Z</time></trkpt><trkpt lat="44.715657437348625" lon="9.781605733607016"><ele>798.0</ele><time>2026-04-19T09:35:40Z</time></trkpt><trkpt lat="44.71571288368794" lon="9.781784962758877"><ele>798.0</ele><time>2026-04-19T09:35:42Z</time></trkpt><trkpt lat="44.71579343388581" lon="9.781763834022918"><ele>798.0</ele><time>2026-04-19T09:35:43Z</time></trkpt><trkpt lat="44.715870998202156" lon="9.78174759599716"><ele>798.0</ele><time>2026-04-19T09:35:44Z</time></trkpt><trkpt lat="44.715950061761916" lon="9.78187281355183"><ele>798.0</ele><time>2026-04-19T09:35:46Z</time></trkpt><trkpt lat="44.71590910389763" lon="9.782021356341716"><ele>799.5999999999999</ele><time>2026-04-19T09:35:48Z</time></trkpt><trkpt lat="44.71589721728582" lon="9.782109957930698"><ele>801.1999999999999</ele><time>2026-04-19T09:35:57Z</time></trkpt><trkpt lat="44.716039716025676" lon="9.782166236672404"><ele>802.8</ele><time>2026-04-19T09:35:59Z</time></trkpt><trkpt lat="44.71612570087598" lon="9.782150549996414"><ele>804.4</ele><time>2026-04-19T09:36:00Z</time></trkpt><trkpt lat="44.7161822871985" lon="9.782217614211078"><ele>806.0</ele><time>2026-04-19T09:36:01Z</time></trkpt><trkpt lat="44.71624468017185" lon="9.78232429911632"><ele>806.0</ele><time>2026-04-19T09:36:02Z</time></trkpt><trkpt lat="44.716321933982016" lon="9.78242144258775"><ele>806.0</ele><time>2026-04-19T09:36:03Z</time></trkpt><trkpt lat="44.716368594245466" lon="9.782497775093372"><ele>806.0</ele><time>2026-04-19T09:36:04Z</time></trkpt><trkpt lat="44.71640211493424" lon="9.782661839075606"><ele>806.0</ele><time>2026-04-19T09:36:06Z</time></trkpt><trkpt lat="44.71643441280673" lon="9.782772581540764"><ele>806.0</ele><time>2026-04-19T09:36:07Z</time></trkpt><trkpt lat="44.71647947280602" lon="9.782937598015618"><ele>808.5999999999999</ele><time>2026-04-19T09:36:08Z</time></trkpt><trkpt lat="44.716491073887916" lon="9.783050515623053"><ele>811.2</ele><time>2026-04-19T09:36:09Z</time></trkpt><trkpt lat="44.71652043937872" lon="9.783146867206689"><ele>813.8</ele><time>2026-04-19T09:36:10Z</time></trkpt><trkpt lat="44.716562954668" lon="9.783257618032225"><ele>816.4000000000001</ele><time>2026-04-19T09:36:11Z</time></trkpt><trkpt lat="44.716615923238415" lon="9.783368194379399"><ele>819.0</ele><time>2026-04-19T09:36:12Z</time></trkpt><trkpt lat="44.71671505481551" lon="9.783461355101403"><ele>821.6</ele><time>2026-04-19T09:36:13Z</time></trkpt><trkpt lat="44.716832159857425" lon="9.783561756804184"><ele>824.2</ele><time>2026-04-19T09:36:14Z</time></trkpt><trkpt lat="44.71690110716486" lon="9.78360856325416"><ele>826.8000000000001</ele><time>2026-04-19T09:36:15Z</time></trkpt><trkpt lat="44.71696976186332" lon="9.783640061560508"><ele>829.4000000000001</ele><time>2026-04-19T09:36:16.999Z</time></trkpt><trkpt lat="44.71706151376588" lon="9.783646030736593"><ele>832.0</ele><time>2026-04-19T09:36:17.999Z</time></trkpt><trkpt lat="44.717177818473395" lon="9.783594523900922"><ele>832.0</ele><time>2026-04-19T09:36:18.999Z</time></trkpt><trkpt lat="44.71724378017598" lon="9.783531041998419"><ele>832.0</ele><time>2026-04-19T09:36:19.999Z</time></trkpt><trkpt lat="44.71714276880927" lon="9.783640501849032"><ele>832.0</ele><time>2026-04-19T09:36:25.999Z</time></trkpt><trkpt lat="44.71710109821592" lon="9.783726336439157"><ele>832.0</ele><time>2026-04-19T09:36:26.999Z</time></trkpt><trkpt lat="44.717036278530806" lon="9.783819713063702"><ele>832.0</ele><time>2026-04-19T09:36:27.999Z</time></trkpt><trkpt lat="44.71698234530177" lon="9.783911156158448"><ele>832.0</ele><time>2026-04-19T09:36:28.999Z</time></trkpt><trkpt lat="44.71693030782037" lon="9.783991569056367"><ele>832.0</ele><time>2026-04-19T09:36:29.999Z</time></trkpt><trkpt lat="44.71706866727487" lon="9.783744056761384"><ele>832.0</ele><time>2026-04-19T09:36:30.999Z</time></trkpt><trkpt lat="44.716998626957505" lon="9.78378677751802"><ele>832.0</ele><time>2026-04-19T09:36:31.999Z</time></trkpt><trkpt lat="44.716930393607704" lon="9.783805127067316"><ele>832.0</ele><time>2026-04-19T09:36:32.999Z</time></trkpt><trkpt lat="44.71679651531921" lon="9.783847548724081"><ele>832.6</ele><time>2026-04-19T09:36:34.999Z</time></trkpt><trkpt lat="44.71665975917459" lon="9.783874706214956"><ele>833.2</ele><time>2026-04-19T09:36:36.999Z</time></trkpt><trkpt lat="44.71657100507666" lon="9.783890715393834"><ele>833.8</ele><time>2026-04-19T09:36:37.999Z</time></trkpt><trkpt lat="44.716485376762975" lon="9.783917100792992"><ele>834.4</ele><time>2026-04-19T09:36:38.999Z</time></trkpt><trkpt lat="44.716414155425724" lon="9.78393922417962"><ele>835.0</ele><time>2026-04-19T09:36:39.999Z</time></trkpt><trkpt lat="44.71633614854779" lon="9.783998577877368"><ele>835.0</ele><time>2026-04-19T09:36:41.999Z</time></trkpt><trkpt lat="44.7162807835015" lon="9.784050839394629"><ele>835.0</ele><time>2026-04-19T09:36:43.999Z</time></trkpt><trkpt lat="44.71620415771714" lon="9.784157203744442"><ele>835.0</ele><time>2026-04-19T09:36:47.999Z</time></trkpt><trkpt lat="44.71622416182899" lon="9.784301257941449"><ele>835.0</ele><time>2026-04-19T09:36:50.999Z</time></trkpt><trkpt lat="44.7162412483201" lon="9.784402049411117"><ele>835.0</ele><time>2026-04-19T09:36:52.999Z</time></trkpt><trkpt lat="44.71623747700188" lon="9.784548967345456"><ele>840.2</ele><time>2026-04-19T09:36:54.999Z</time></trkpt><trkpt lat="44.71623397847104" lon="9.784653047465333"><ele>845.4</ele><time>2026-04-19T09:36:55.999Z</time></trkpt><trkpt lat="44.71625680481997" lon="9.78476974661653"><ele>850.5999999999999</ele><time>2026-04-19T09:36:57.999Z</time></trkpt><trkpt lat="44.71617532834539" lon="9.784876015550337"><ele>855.8</ele><time>2026-04-19T09:37:00.999Z</time></trkpt><trkpt lat="44.71613062425721" lon="9.785096016784703"><ele>861.0</ele><time>2026-04-19T09:37:02.999Z</time></trkpt><trkpt lat="44.716086178860465" lon="9.785172196620895"><ele>865.6666666666666</ele><time>2026-04-19T09:37:13.999Z</time></trkpt><trkpt lat="44.71607511504741" lon="9.785273262324976"><ele>870.3333333333333</ele><time>2026-04-19T09:37:16.999Z</time></trkpt><trkpt lat="44.7161189570229" lon="9.785382081866334"><ele>875.0</ele><time>2026-04-19T09:37:22Z</time></trkpt><trkpt lat="44.716212030947666" lon="9.785437122105824"><ele>879.6666666666666</ele><time>2026-04-19T09:37:25Z</time></trkpt><trkpt lat="44.716297332484466" lon="9.78545780990326"><ele>884.3333333333333</ele><time>2026-04-19T09:37:32Z</time></trkpt><trkpt lat="44.716359693033965" lon="9.785502819378033"><ele>889.0</ele><time>2026-04-19T09:39:37Z</time></trkpt><trkpt lat="44.71639892899141" lon="9.785572565856251"><ele>888.9999999999999</ele><time>2026-04-19T09:40:12Z</time></trkpt><trkpt lat="44.71646144323465" lon="9.785610390619746"><ele>889.0</ele><time>2026-04-19T09:40:15Z</time></trkpt><trkpt lat="44.71654096353263" lon="9.785626981308088"><ele>889.0</ele><time>2026-04-19T09:40:18Z</time></trkpt><trkpt lat="44.71660497402713" lon="9.78564870892968"><ele>889.0</ele><time>2026-04-19T09:40:23Z</time></trkpt><trkpt lat="44.7166878717375" lon="9.785670601280684"><ele>888.9999999999999</ele><time>2026-04-19T09:40:42.999Z</time></trkpt><trkpt lat="44.71665684126011" lon="9.785784705561465"><ele>889.0</ele><time>2026-04-19T09:40:50.999Z</time></trkpt><trkpt lat="44.71660474183968" lon="9.785868091804423"><ele>889.0</ele><time>2026-04-19T09:40:54.999Z</time></trkpt><trkpt lat="44.71655592659608" lon="9.785967589130362"><ele>889.0000000000001</ele><time>2026-04-19T09:40:57.999Z</time></trkpt><trkpt lat="44.716487118456776" lon="9.786050456376646"><ele>889.0000000000001</ele><time>2026-04-19T09:40:59.999Z</time></trkpt><trkpt lat="44.71644221118224" lon="9.78617822932125"><ele>889.0</ele><time>2026-04-19T09:41:01.999Z</time></trkpt><trkpt lat="44.71641545666414" lon="9.786321092246135"><ele>889.0</ele><time>2026-04-19T09:41:03.999Z</time></trkpt><trkpt lat="44.71636577196055" lon="9.78642890383401"><ele>891.4000000000001</ele><time>2026-04-19T09:41:05.999Z</time></trkpt><trkpt lat="44.71632535755977" lon="9.786603023223169"><ele>893.8000000000001</ele><time>2026-04-19T09:41:07.999Z</time></trkpt><trkpt lat="44.71630390378269" lon="9.786695828098512"><ele>896.1999999999999</ele><time>2026-04-19T09:41:11.999Z</time></trkpt><trkpt lat="44.71620482537565" lon="9.786876013999741"><ele>898.5999999999999</ele><time>2026-04-19T09:41:12.999Z</time></trkpt><trkpt lat="44.716188750560676" lon="9.786966728179767"><ele>901.0</ele><time>2026-04-19T09:41:15.999Z</time></trkpt><trkpt lat="44.71614950671817" lon="9.787052304273011"><ele>900.9999999999999</ele><time>2026-04-19T09:41:19.999Z</time></trkpt><trkpt lat="44.71607624969524" lon="9.787100226160868"><ele>901.0</ele><time>2026-04-19T09:41:21.999Z</time></trkpt><trkpt lat="44.716005494045085" lon="9.787147823356616"><ele>901.0</ele><time>2026-04-19T09:41:23.999Z</time></trkpt><trkpt lat="44.7159254360317" lon="9.787196253912203"><ele>901.0</ele><time>2026-04-19T09:41:26.999Z</time></trkpt><trkpt lat="44.71584349432238" lon="9.78724086018205"><ele>900.9999999999999</ele><time>2026-04-19T09:41:29.999Z</time></trkpt><trkpt lat="44.71578783633228" lon="9.787302936031992"><ele>901.0</ele><time>2026-04-19T09:41:32Z</time></trkpt><trkpt lat="44.71588997233237" lon="9.787361103142208"><ele>900.9999999999999</ele><time>2026-04-19T09:41:35Z</time></trkpt><trkpt lat="44.71596018003434" lon="9.787381865997927"><ele>901.0</ele><time>2026-04-19T09:41:38Z</time></trkpt><trkpt lat="44.71601772243991" lon="9.787458579052094"><ele>901.0</ele><time>2026-04-19T09:41:40Z</time></trkpt><trkpt lat="44.71608028327132" lon="9.787590679962545"><ele>901.0</ele><time>2026-04-19T09:41:42Z</time></trkpt><trkpt lat="44.71612265807738" lon="9.787663408452989"><ele>900.9999999999999</ele><time>2026-04-19T09:41:45Z</time></trkpt><trkpt lat="44.71613865923567" lon="9.787749315944293"><ele>901.0</ele><time>2026-04-19T09:41:47Z</time></trkpt><trkpt lat="44.71616025900978" lon="9.787893410322154"><ele>896.1999999999999</ele><time>2026-04-19T09:41:49Z</time></trkpt><trkpt lat="44.716144077535844" lon="9.78802707337029"><ele>891.3999999999999</ele><time>2026-04-19T09:41:51Z</time></trkpt><trkpt lat="44.716114405935585" lon="9.788170539998795"><ele>886.6</ele><time>2026-04-19T09:41:53Z</time></trkpt><trkpt lat="44.7161093846928" lon="9.78829424901266"><ele>881.8</ele><time>2026-04-19T09:41:54Z</time></trkpt><trkpt lat="44.716098837397375" lon="9.788409580324728"><ele>877.0</ele><time>2026-04-19T09:41:55Z</time></trkpt><trkpt lat="44.71608460866643" lon="9.788521011275947"><ele>874.1428571428572</ele><time>2026-04-19T09:41:56Z</time></trkpt><trkpt lat="44.71607621972058" lon="9.788621168796517"><ele>871.2857142857143</ele><time>2026-04-19T09:41:57Z</time></trkpt><trkpt lat="44.71606319199066" lon="9.788728457101323"><ele>868.4285714285714</ele><time>2026-04-19T09:41:59Z</time></trkpt><trkpt lat="44.716060152526104" lon="9.788824178837642"><ele>865.5714285714287</ele><time>2026-04-19T09:42:01Z</time></trkpt><trkpt lat="44.71612376493371" lon="9.788881570452205"><ele>862.7142857142857</ele><time>2026-04-19T09:42:03Z</time></trkpt><trkpt lat="44.71619397489302" lon="9.788874455629083"><ele>859.8571428571429</ele><time>2026-04-19T09:42:04Z</time></trkpt><trkpt lat="44.71626388330298" lon="9.788849047096317"><ele>857.0</ele><time>2026-04-19T09:42:05Z</time></trkpt><trkpt lat="44.716342246268496" lon="9.788838209027036"><ele>857.0</ele><time>2026-04-19T09:42:06Z</time></trkpt><trkpt lat="44.71642039656465" lon="9.788844525836794"><ele>857.0</ele><time>2026-04-19T09:42:07Z</time></trkpt><trkpt lat="44.7164883709592" lon="9.78885602682855"><ele>857.0</ele><time>2026-04-19T09:42:08Z</time></trkpt><trkpt lat="44.716603169478056" lon="9.78885585841535"><ele>857.0</ele><time>2026-04-19T09:42:10Z</time></trkpt><trkpt lat="44.71670272894646" lon="9.788879247051161"><ele>857.0</ele><time>2026-04-19T09:42:12Z</time></trkpt><trkpt lat="44.716813988087864" lon="9.788937907240976"><ele>857.0</ele><time>2026-04-19T09:42:14Z</time></trkpt><trkpt lat="44.716869816762454" lon="9.78898090196581"><ele>857.0</ele><time>2026-04-19T09:42:16Z</time></trkpt><trkpt lat="44.71698800526075" lon="9.78889810483966"><ele>857.0</ele><time>2026-04-19T09:42:31Z</time></trkpt><trkpt lat="44.71704566147922" lon="9.788846276505042"><ele>857.0</ele><time>2026-04-19T09:42:33Z</time></trkpt><trkpt lat="44.71696755057331" lon="9.788919287721477"><ele>857.0</ele><time>2026-04-19T09:42:41Z</time></trkpt><trkpt lat="44.71691592588756" lon="9.789035484116665"><ele>855.4000000000001</ele><time>2026-04-19T09:42:42.999Z</time></trkpt><trkpt lat="44.71695102928101" lon="9.789161975836942"><ele>853.8000000000001</ele><time>2026-04-19T09:42:44.999Z</time></trkpt><trkpt lat="44.71694966861532" lon="9.789304138423985"><ele>852.2</ele><time>2026-04-19T09:42:46.999Z</time></trkpt><trkpt lat="44.716956009504585" lon="9.789440240243135"><ele>850.6</ele><time>2026-04-19T09:42:48.999Z</time></trkpt><trkpt lat="44.71695899175895" lon="9.789578923942964"><ele>849.0</ele><time>2026-04-19T09:42:50.999Z</time></trkpt><trkpt lat="44.716967953884975" lon="9.789701861696276"><ele>849.0</ele><time>2026-04-19T09:42:52.999Z</time></trkpt><trkpt lat="44.717046359969956" lon="9.789782654361863"><ele>849.0</ele><time>2026-04-19T09:42:54.999Z</time></trkpt><trkpt lat="44.717155837492186" lon="9.78980306965985"><ele>849.0</ele><time>2026-04-19T09:42:56.999Z</time></trkpt><trkpt lat="44.71731538150903" lon="9.789872084345632"><ele>849.0</ele><time>2026-04-19T09:42:58.999Z</time></trkpt><trkpt lat="44.71741707351725" lon="9.789910559060685"><ele>849.0</ele><time>2026-04-19T09:42:59.999Z</time></trkpt><trkpt lat="44.717518358001826" lon="9.789951219227037"><ele>849.0</ele><time>2026-04-19T09:43:00.999Z</time></trkpt><trkpt lat="44.7176010671715" lon="9.789991235382526"><ele>849.0</ele><time>2026-04-19T09:43:01.999Z</time></trkpt><trkpt lat="44.71768940885929" lon="9.790030728466597"><ele>849.0</ele><time>2026-04-19T09:43:02.999Z</time></trkpt><trkpt lat="44.7177871040393" lon="9.790067961442027"><ele>849.0</ele><time>2026-04-19T09:43:03.999Z</time></trkpt><trkpt lat="44.71787311087988" lon="9.790103357294647"><ele>850.0</ele><time>2026-04-19T09:43:04.999Z</time></trkpt><trkpt lat="44.71793873004202" lon="9.79013151240408"><ele>851.0</ele><time>2026-04-19T09:43:05.999Z</time></trkpt><trkpt lat="44.71799968700215" lon="9.790166900565037"><ele>852.0</ele><time>2026-04-19T09:43:06.999Z</time></trkpt><trkpt lat="44.71807247686717" lon="9.790210864347433"><ele>853.0</ele><time>2026-04-19T09:43:07.999Z</time></trkpt><trkpt lat="44.71814723939589" lon="9.79025729757035"><ele>854.0</ele><time>2026-04-19T09:43:08.999Z</time></trkpt><trkpt lat="44.71823138906772" lon="9.790350427283277"><ele>855.0</ele><time>2026-04-19T09:43:10.999Z</time></trkpt><trkpt lat="44.7182415413064" lon="9.790439778406894"><ele>855.0</ele><time>2026-04-19T09:43:12.999Z</time></trkpt><trkpt lat="44.71816403300637" lon="9.790611809571757"><ele>855.0</ele><time>2026-04-19T09:43:14.999Z</time></trkpt><trkpt lat="44.71809937592138" lon="9.790715591276259"><ele>855.0</ele><time>2026-04-19T09:43:15.999Z</time></trkpt><trkpt lat="44.718045854760696" lon="9.79080890266212"><ele>855.0</ele><time>2026-04-19T09:43:16.999Z</time></trkpt><trkpt lat="44.71799353976154" lon="9.790908745415352"><ele>855.0</ele><time>2026-04-19T09:43:17.999Z</time></trkpt><trkpt lat="44.717956188388605" lon="9.791018140819052"><ele>854.0</ele><time>2026-04-19T09:43:18.999Z</time></trkpt><trkpt lat="44.717912296575136" lon="9.791121046730838"><ele>853.0</ele><time>2026-04-19T09:43:19.999Z</time></trkpt><trkpt lat="44.717867293785545" lon="9.791204092556795"><ele>852.0</ele><time>2026-04-19T09:43:20.999Z</time></trkpt><trkpt lat="44.717826753642" lon="9.79128358793487"><ele>851.0</ele><time>2026-04-19T09:43:21.999Z</time></trkpt><trkpt lat="44.7177837313784" lon="9.791367421416817"><ele>850.0</ele><time>2026-04-19T09:43:22.999Z</time></trkpt><trkpt lat="44.717744913977725" lon="9.791449390281851"><ele>849.0</ele><time>2026-04-19T09:43:23.999Z</time></trkpt><trkpt lat="44.71770053363415" lon="9.79156143221277"><ele>848.4285714285714</ele><time>2026-04-19T09:43:25.999Z</time></trkpt><trkpt lat="44.71767627379769" lon="9.791644485283815"><ele>847.8571428571429</ele><time>2026-04-19T09:43:28.999Z</time></trkpt><trkpt lat="44.71768027133275" lon="9.791753249912665"><ele>847.2857142857142</ele><time>2026-04-19T09:43:31.999Z</time></trkpt><trkpt lat="44.717663043899705" lon="9.791840154326978"><ele>846.7142857142858</ele><time>2026-04-19T09:51:57.999Z</time></trkpt><trkpt lat="44.71768623561179" lon="9.791934115926292"><ele>846.1428571428571</ele><time>2026-04-19T09:52:57.999Z</time></trkpt><trkpt lat="44.71775542704852" lon="9.791938390343583"><ele>845.5714285714286</ele><time>2026-04-19T09:55:43.999Z</time></trkpt><trkpt lat="44.71783735426544" lon="9.791954665544422"><ele>845.0</ele><time>2026-04-19T09:58:22Z</time></trkpt><trkpt lat="44.71791597556594" lon="9.791956491664203"><ele>845.0000000000001</ele><time>2026-04-19T09:58:25Z</time></trkpt><trkpt lat="44.71795739790345" lon="9.792042671475443"><ele>845.0</ele><time>2026-04-19T09:58:26Z</time></trkpt><trkpt lat="44.71800432769237" lon="9.792132584365334"><ele>845.0</ele><time>2026-04-19T09:58:27Z</time></trkpt><trkpt lat="44.71804425729827" lon="9.792204360799584"><ele>845.0</ele><time>2026-04-19T09:58:28Z</time></trkpt><trkpt lat="44.71810268444651" lon="9.792352243365276"><ele>845.0000000000001</ele><time>2026-04-19T09:58:30Z</time></trkpt><trkpt lat="44.71815502810898" lon="9.792438925587573"><ele>845.0</ele><time>2026-04-19T09:58:31Z</time></trkpt><trkpt lat="44.71820040624687" lon="9.792512014582432"><ele>845.0000000000001</ele><time>2026-04-19T09:58:32Z</time></trkpt><trkpt lat="44.71829586965394" lon="9.792590227652049"><ele>845.0</ele><time>2026-04-19T09:58:34Z</time></trkpt><trkpt lat="44.71836025614113" lon="9.792641829907327"><ele>845.0</ele><time>2026-04-19T09:58:35Z</time></trkpt><trkpt lat="44.71842478701379" lon="9.792700883212708"><ele>845.0</ele><time>2026-04-19T09:58:36Z</time></trkpt><trkpt lat="44.71849044055559" lon="9.79276365115681"><ele>845.0000000000001</ele><time>2026-04-19T09:58:37Z</time></trkpt><trkpt lat="44.718555211956044" lon="9.792839567140724"><ele>845.0</ele><time>2026-04-19T09:58:38Z</time></trkpt><trkpt lat="44.71862486562163" lon="9.792922317051461"><ele>847.0000000000001</ele><time>2026-04-19T09:58:39Z</time></trkpt><trkpt lat="44.71869441329292" lon="9.793003307315502"><ele>849.0</ele><time>2026-04-19T09:58:40Z</time></trkpt><trkpt lat="44.71876585645059" lon="9.793097107438575"><ele>851.0</ele><time>2026-04-19T09:58:41Z</time></trkpt><trkpt lat="44.71882894502775" lon="9.793178386236262"><ele>853.0</ele><time>2026-04-19T09:58:42Z</time></trkpt><trkpt lat="44.71887519629617" lon="9.793261028725233"><ele>855.0000000000001</ele><time>2026-04-19T09:58:43Z</time></trkpt><trkpt lat="44.71891356288438" lon="9.793345924470598"><ele>857.0</ele><time>2026-04-19T09:58:44Z</time></trkpt><trkpt lat="44.71895244963844" lon="9.79344937077798"><ele>855.2</ele><time>2026-04-19T09:58:45Z</time></trkpt><trkpt lat="44.71899124359103" lon="9.793563586611384"><ele>853.4000000000001</ele><time>2026-04-19T09:58:46Z</time></trkpt><trkpt lat="44.71902378362015" lon="9.793682194817972"><ele>851.5999999999999</ele><time>2026-04-19T09:58:47Z</time></trkpt><trkpt lat="44.719052254926375" lon="9.793809968882377"><ele>849.8</ele><time>2026-04-19T09:58:48Z</time></trkpt><trkpt lat="44.71908473774246" lon="9.793940075876698"><ele>848.0</ele><time>2026-04-19T09:58:49Z</time></trkpt><trkpt lat="44.719110664548076" lon="9.794071070478939"><ele>848.0000000000001</ele><time>2026-04-19T09:58:50Z</time></trkpt><trkpt lat="44.71912722731983" lon="9.794166657201078"><ele>848.0</ele><time>2026-04-19T09:58:51Z</time></trkpt><trkpt lat="44.71912708995851" lon="9.79426218944288"><ele>848.0</ele><time>2026-04-19T09:58:54Z</time></trkpt><trkpt lat="44.71913261035794" lon="9.794119579147234"><ele>848.0</ele><time>2026-04-19T09:59:03Z</time></trkpt><trkpt lat="44.71904359142075" lon="9.794174447310812"><ele>848.0000000000001</ele><time>2026-04-19T09:59:11Z</time></trkpt><trkpt lat="44.718953264732114" lon="9.794223580189447"><ele>848.0</ele><time>2026-04-19T09:59:13Z</time></trkpt><trkpt lat="44.718875171325934" lon="9.794273031395253"><ele>848.0</ele><time>2026-04-19T09:59:15Z</time></trkpt><trkpt lat="44.71880882054758" lon="9.794325505726288"><ele>848.0</ele><time>2026-04-19T09:59:17Z</time></trkpt><trkpt lat="44.71872643513518" lon="9.794387848958596"><ele>848.0</ele><time>2026-04-19T09:59:19Z</time></trkpt><trkpt lat="44.71867096236902" lon="9.794504990693474"><ele>848.0</ele><time>2026-04-19T09:59:21Z</time></trkpt><trkpt lat="44.718691498127704" lon="9.794666950144524"><ele>848.0</ele><time>2026-04-19T09:59:23Z</time></trkpt><trkpt lat="44.71870346112165" lon="9.794755744010654"><ele>847.0</ele><time>2026-04-19T09:59:24Z</time></trkpt><trkpt lat="44.718715542620856" lon="9.794848313188133"><ele>846.0</ele><time>2026-04-19T09:59:25Z</time></trkpt><trkpt lat="44.718727789404866" lon="9.794944206285074"><ele>845.0</ele><time>2026-04-19T09:59:26Z</time></trkpt><trkpt lat="44.71873460885365" lon="9.79505586431426"><ele>844.0</ele><time>2026-04-19T09:59:27Z</time></trkpt><trkpt lat="44.71873743698894" lon="9.795167702743935"><ele>843.0</ele><time>2026-04-19T09:59:28Z</time></trkpt><trkpt lat="44.71874543547689" lon="9.795269781290003"><ele>842.0</ele><time>2026-04-19T09:59:29Z</time></trkpt><trkpt lat="44.71875125628209" lon="9.795377604609197"><ele>841.0</ele><time>2026-04-19T09:59:30Z</time></trkpt><trkpt lat="44.718742271595026" lon="9.795470785598466"><ele>839.6666666666666</ele><time>2026-04-19T09:59:30.999Z</time></trkpt><trkpt lat="44.718716065629565" lon="9.795567143720024"><ele>838.3333333333333</ele><time>2026-04-19T09:59:31.999Z</time></trkpt><trkpt lat="44.718672222611744" lon="9.795660978799264"><ele>837.0</ele><time>2026-04-19T09:59:32.999Z</time></trkpt><trkpt lat="44.71861628732872" lon="9.795749688169211"><ele>835.6666666666667</ele><time>2026-04-19T09:59:33.999Z</time></trkpt><trkpt lat="44.71855119861632" lon="9.795832746620635"><ele>834.3333333333334</ele><time>2026-04-19T09:59:34.999Z</time></trkpt><trkpt lat="44.718489918923346" lon="9.795910208261638"><ele>833.0</ele><time>2026-04-19T09:59:35.999Z</time></trkpt><trkpt lat="44.71844118839319" lon="9.795990524701288"><ele>827.8571428571429</ele><time>2026-04-19T09:59:36.999Z</time></trkpt><trkpt lat="44.71840292219053" lon="9.796066039811382"><ele>822.7142857142858</ele><time>2026-04-19T09:59:37.999Z</time></trkpt><trkpt lat="44.71835404930699" lon="9.796171888086734"><ele>817.5714285714286</ele><time>2026-04-19T09:59:39.999Z</time></trkpt><trkpt lat="44.71831252997494" lon="9.796275148771931"><ele>812.4285714285714</ele><time>2026-04-19T09:59:41.999Z</time></trkpt><trkpt lat="44.71833271308951" lon="9.796366414963105"><ele>807.2857142857143</ele><time>2026-04-19T09:59:43.999Z</time></trkpt><trkpt lat="44.71837586968816" lon="9.796435005562287"><ele>802.1428571428571</ele><time>2026-04-19T09:59:46.999Z</time></trkpt><trkpt lat="44.718412063206536" lon="9.796519607114742"><ele>797.0</ele><time>2026-04-19T09:59:49.999Z</time></trkpt><trkpt lat="44.71845541585683" lon="9.796591179957863"><ele>797.0000000000001</ele><time>2026-04-19T09:59:51.999Z</time></trkpt><trkpt lat="44.718507449128886" lon="9.796641229436121"><ele>797.0</ele><time>2026-04-19T09:59:52.999Z</time></trkpt><trkpt lat="44.7185687879621" lon="9.79668182058773"><ele>797.0</ele><time>2026-04-19T09:59:54.999Z</time></trkpt><trkpt lat="44.71863228607359" lon="9.79678538047099"><ele>797.0</ele><time>2026-04-19T09:59:56.999Z</time></trkpt><trkpt lat="44.7187031431553" lon="9.796908414019583"><ele>797.0000000000001</ele><time>2026-04-19T09:59:58.999Z</time></trkpt><trkpt lat="44.7187559837775" lon="9.79698447396304"><ele>797.0</ele><time>2026-04-19T09:59:59.999Z</time></trkpt><trkpt lat="44.71881505863213" lon="9.797045723669155"><ele>794.2</ele><time>2026-04-19T10:00:00.999Z</time></trkpt><trkpt lat="44.71890708228035" lon="9.79714135254768"><ele>791.4000000000001</ele><time>2026-04-19T10:00:02.999Z</time></trkpt><trkpt lat="44.71900095838648" lon="9.797234017264262"><ele>788.5999999999999</ele><time>2026-04-19T10:00:04.999Z</time></trkpt><trkpt lat="44.719045238944865" lon="9.79739687504548"><ele>785.8</ele><time>2026-04-19T10:00:06.999Z</time></trkpt><trkpt lat="44.71903231479486" lon="9.797499283609588"><ele>783.0</ele><time>2026-04-19T10:00:07.999Z</time></trkpt><trkpt lat="44.719073059329475" lon="9.797664818213734"><ele>782.3333333333334</ele><time>2026-04-19T10:00:09.999Z</time></trkpt><trkpt lat="44.71909292642256" lon="9.797749449436747"><ele>781.6666666666667</ele><time>2026-04-19T10:00:10.999Z</time></trkpt><trkpt lat="44.71915628600615" lon="9.797828312909289"><ele>781.0</ele><time>2026-04-19T10:00:12.999Z</time></trkpt><trkpt lat="44.71922463980712" lon="9.797865019108917"><ele>780.3333333333334</ele><time>2026-04-19T10:00:15.999Z</time></trkpt><trkpt lat="44.719342782700515" lon="9.797873833284003"><ele>779.6666666666667</ele><time>2026-04-19T10:00:17.999Z</time></trkpt><trkpt lat="44.71944863662838" lon="9.797844045339568"><ele>779.0</ele><time>2026-04-19T10:00:19.999Z</time></trkpt><trkpt lat="44.719541578259296" lon="9.79791075232725"><ele>779.0000000000001</ele><time>2026-04-19T10:00:21.999Z</time></trkpt><trkpt lat="44.71962995088556" lon="9.797904034243356"><ele>779.0</ele><time>2026-04-19T10:00:24Z</time></trkpt><trkpt lat="44.71967050734747" lon="9.797815626957805"><ele>779.0</ele><time>2026-04-19T10:00:25Z</time></trkpt><trkpt lat="44.719717934556954" lon="9.797734909981166"><ele>779.0</ele><time>2026-04-19T10:00:26Z</time></trkpt><trkpt lat="44.719820052561474" lon="9.79772831228254"><ele>779.0000000000001</ele><time>2026-04-19T10:00:28Z</time></trkpt><trkpt lat="44.719890865057984" lon="9.797746936099989"><ele>779.0</ele><time>2026-04-19T10:00:29Z</time></trkpt><trkpt lat="44.71998742913928" lon="9.797794233889729"><ele>779.0</ele><time>2026-04-19T10:00:31Z</time></trkpt><trkpt lat="44.72010356859379" lon="9.797820008283837"><ele>779.0</ele><time>2026-04-19T10:00:33Z</time></trkpt><trkpt lat="44.720198525887156" lon="9.797832346927876"><ele>779.0</ele><time>2026-04-19T10:00:35Z</time></trkpt><trkpt lat="44.7202610490846" lon="9.797905002607825"><ele>779.0</ele><time>2026-04-19T10:00:37Z</time></trkpt><trkpt lat="44.72038090160741" lon="9.798012711292003"><ele>779.0</ele><time>2026-04-19T10:00:39Z</time></trkpt><trkpt lat="44.72047446083738" lon="9.798050008475125"><ele>782.5000000000001</ele><time>2026-04-19T10:00:40Z</time></trkpt><trkpt lat="44.72053601553516" lon="9.798074789326357"><ele>786.0</ele><time>2026-04-19T10:00:41Z</time></trkpt><trkpt lat="44.720641000216034" lon="9.798101382806559"><ele>789.5</ele><time>2026-04-19T10:00:43Z</time></trkpt><trkpt lat="44.72072650864071" lon="9.798139200310098"><ele>793.0</ele><time>2026-04-19T10:00:44Z</time></trkpt><trkpt lat="44.72078740192063" lon="9.798201755903186"><ele>796.5000000000001</ele><time>2026-04-19T10:00:45Z</time></trkpt><trkpt lat="44.72084872566596" lon="9.798277251569342"><ele>800.0</ele><time>2026-04-19T10:00:46Z</time></trkpt><trkpt lat="44.720919028811025" lon="9.798349422018081"><ele>800.0000000000001</ele><time>2026-04-19T10:00:47Z</time></trkpt><trkpt lat="44.72099482910148" lon="9.798372902349202"><ele>800.0</ele><time>2026-04-19T10:00:48Z</time></trkpt><trkpt lat="44.721057867902836" lon="9.79839897830245"><ele>800.0</ele><time>2026-04-19T10:00:49Z</time></trkpt><trkpt lat="44.72113163147775" lon="9.798431862839925"><ele>800.0</ele><time>2026-04-19T10:00:50Z</time></trkpt><trkpt lat="44.72120881749833" lon="9.79847349335068"><ele>800.0000000000001</ele><time>2026-04-19T10:00:51Z</time></trkpt><trkpt lat="44.72129443648019" lon="9.798515128304356"><ele>800.0</ele><time>2026-04-19T10:00:52Z</time></trkpt><trkpt lat="44.721390432381256" lon="9.798568528992478"><ele>799.4</ele><time>2026-04-19T10:00:53Z</time></trkpt><trkpt lat="44.72148090965001" lon="9.798612203106035"><ele>798.8</ele><time>2026-04-19T10:00:54Z</time></trkpt><trkpt lat="44.721564279023816" lon="9.798624551811612"><ele>798.2</ele><time>2026-04-19T10:00:55Z</time></trkpt><trkpt lat="44.72166050408735" lon="9.798615525367092"><ele>797.6</ele><time>2026-04-19T10:00:56Z</time></trkpt><trkpt lat="44.72175883494626" lon="9.79860413891237"><ele>797.0</ele><time>2026-04-19T10:00:57Z</time></trkpt><trkpt lat="44.72185379154359" lon="9.798584873448581"><ele>798.0</ele><time>2026-04-19T10:00:59Z</time></trkpt><trkpt lat="44.72196128360153" lon="9.798532580680881"><ele>799.0</ele><time>2026-04-19T10:01:11Z</time></trkpt><trkpt lat="44.72203799499048" lon="9.79845697803291"><ele>800.0</ele><time>2026-04-19T10:01:12Z</time></trkpt><trkpt lat="44.72209174670657" lon="9.798388609954724"><ele>801.0</ele><time>2026-04-19T10:01:13Z</time></trkpt><trkpt lat="44.722169199398856" lon="9.798327390204369"><ele>802.0</ele><time>2026-04-19T10:01:15Z</time></trkpt><trkpt lat="44.72228066236974" lon="9.79832442920937"><ele>803.4999999999999</ele><time>2026-04-19T10:01:17Z</time></trkpt><trkpt lat="44.722369953927036" lon="9.798330054971986"><ele>805.0</ele><time>2026-04-19T10:01:19Z</time></trkpt><trkpt lat="44.72243211279723" lon="9.798308190981775"><ele>806.5</ele><time>2026-04-19T10:01:21Z</time></trkpt><trkpt lat="44.72252074077127" lon="9.7982235007789"><ele>808.0</ele><time>2026-04-19T10:01:23Z</time></trkpt><trkpt lat="44.72257434138348" lon="9.79816134333474"><ele>809.4999999999999</ele><time>2026-04-19T10:01:24.999Z</time></trkpt><trkpt lat="44.72263782107842" lon="9.79817579336046"><ele>811.0</ele><time>2026-04-19T10:01:29.999Z</time></trkpt><trkpt lat="44.72269590824695" lon="9.798229398740274"><ele>811.0</ele><time>2026-04-19T10:01:33.999Z</time></trkpt><trkpt lat="44.7227307810146" lon="9.79837810818396"><ele>811.0</ele><time>2026-04-19T10:01:35.999Z</time></trkpt><trkpt lat="44.72275931525724" lon="9.798520522887967"><ele>811.0</ele><time>2026-04-19T10:01:37.999Z</time></trkpt><trkpt lat="44.7228226450166" lon="9.798635895358249"><ele>811.0</ele><time>2026-04-19T10:01:39.999Z</time></trkpt><trkpt lat="44.72282707257743" lon="9.798730638908744"><ele>811.0</ele><time>2026-04-19T10:01:43.999Z</time></trkpt><trkpt lat="44.72286184141187" lon="9.79883228253209"><ele>810.4999999999999</ele><time>2026-04-19T10:02:09.999Z</time></trkpt><trkpt lat="44.722928585508406" lon="9.798729865830095"><ele>810.0</ele><time>2026-04-19T10:05:40.999Z</time></trkpt><trkpt lat="44.72303847200538" lon="9.798779770773837"><ele>809.5</ele><time>2026-04-19T10:05:43.999Z</time></trkpt><trkpt lat="44.72311421859377" lon="9.79879420096621"><ele>809.0</ele><time>2026-04-19T10:05:45.999Z</time></trkpt><trkpt lat="44.72318046460152" lon="9.798811034041552"><ele>808.4999999999999</ele><time>2026-04-19T10:05:47.999Z</time></trkpt><trkpt lat="44.72323354888417" lon="9.79888976378448"><ele>808.0</ele><time>2026-04-19T10:05:49.999Z</time></trkpt><trkpt lat="44.72323518513726" lon="9.79898059035927"><ele>808.0</ele><time>2026-04-19T10:05:50.999Z</time></trkpt><trkpt lat="44.72317796119918" lon="9.799135114797032"><ele>808.0</ele><time>2026-04-19T10:05:52.999Z</time></trkpt><trkpt lat="44.723158873556144" lon="9.799279199762983"><ele>808.0</ele><time>2026-04-19T10:05:54.999Z</time></trkpt><trkpt lat="44.723151758297185" lon="9.799404462426402"><ele>808.0</ele><time>2026-04-19T10:05:56.999Z</time></trkpt><trkpt lat="44.72307511375001" lon="9.799480480415067"><ele>808.0</ele><time>2026-04-19T10:05:58.999Z</time></trkpt><trkpt lat="44.72299030410147" lon="9.799554276823457"><ele>805.8333333333333</ele><time>2026-04-19T10:06:00.999Z</time></trkpt><trkpt lat="44.722926475178106" lon="9.799632302395178"><ele>803.6666666666666</ele><time>2026-04-19T10:06:02.999Z</time></trkpt><trkpt lat="44.722907239667805" lon="9.799724015965314"><ele>801.5</ele><time>2026-04-19T10:06:04.999Z</time></trkpt><trkpt lat="44.72288660232041" lon="9.799809305424143"><ele>799.3333333333333</ele><time>2026-04-19T10:06:06.999Z</time></trkpt><trkpt lat="44.72290296515459" lon="9.799926524674289"><ele>797.1666666666666</ele><time>2026-04-19T10:06:08.999Z</time></trkpt><trkpt lat="44.72295198837145" lon="9.799987885532863"><ele>795.0</ele><time>2026-04-19T10:06:10.999Z</time></trkpt><trkpt lat="44.72292142208256" lon="9.800146650897828"><ele>792.8</ele><time>2026-04-19T10:06:12.999Z</time></trkpt><trkpt lat="44.72287917059017" lon="9.800253905838344"><ele>790.6</ele><time>2026-04-19T10:06:13.999Z</time></trkpt><trkpt lat="44.722829942104774" lon="9.800389483659448"><ele>788.4000000000001</ele><time>2026-04-19T10:06:15.999Z</time></trkpt><trkpt lat="44.722793189355734" lon="9.800510349376149"><ele>786.2</ele><time>2026-04-19T10:06:17.999Z</time></trkpt><trkpt lat="44.72273009238649" lon="9.800649045863564"><ele>784.0</ele><time>2026-04-19T10:06:19.999Z</time></trkpt><trkpt lat="44.722692281202114" lon="9.800775661815157"><ele>782.9999999999999</ele><time>2026-04-19T10:06:21.999Z</time></trkpt><trkpt lat="44.722634007874554" lon="9.800809990346407"><ele>782.0</ele><time>2026-04-19T10:06:22.999Z</time></trkpt><trkpt lat="44.72253968461939" lon="9.80090022262258"><ele>781.0</ele><time>2026-04-19T10:06:24.999Z</time></trkpt><trkpt lat="44.72248937844649" lon="9.800996239287993"><ele>780.0</ele><time>2026-04-19T10:06:26.999Z</time></trkpt><trkpt lat="44.72245111966377" lon="9.80108071239363"><ele>778.9999999999999</ele><time>2026-04-19T10:06:29.999Z</time></trkpt><trkpt lat="44.72246625515446" lon="9.801190676539086"><ele>778.0</ele><time>2026-04-19T10:06:34.999Z</time></trkpt><trkpt lat="44.7224589894135" lon="9.801312785963248"><ele>776.2</ele><time>2026-04-19T10:06:35.999Z</time></trkpt><trkpt lat="44.72246341939273" lon="9.801480484801381"><ele>774.4</ele><time>2026-04-19T10:06:37.999Z</time></trkpt><trkpt lat="44.72250580221319" lon="9.801588666881997"><ele>772.6</ele><time>2026-04-19T10:06:40Z</time></trkpt><trkpt lat="44.722575734255756" lon="9.801641885548278"><ele>770.8000000000001</ele><time>2026-04-19T10:06:42Z</time></trkpt><trkpt lat="44.72266407132506" lon="9.801745201668934"><ele>769.0</ele><time>2026-04-19T10:06:44Z</time></trkpt><trkpt lat="44.72269716433386" lon="9.801835659211656"><ele>768.6666666666666</ele><time>2026-04-19T10:06:45Z</time></trkpt><trkpt lat="44.7227061655367" lon="9.8019391400889"><ele>768.3333333333333</ele><time>2026-04-19T10:06:46Z</time></trkpt><trkpt lat="44.72273927382657" lon="9.802067865154022"><ele>768.0</ele><time>2026-04-19T10:06:47Z</time></trkpt><trkpt lat="44.72275820065289" lon="9.802212199441426"><ele>767.6666666666666</ele><time>2026-04-19T10:06:48Z</time></trkpt><trkpt lat="44.722767562278406" lon="9.80233376446655"><ele>767.3333333333333</ele><time>2026-04-19T10:06:49Z</time></trkpt><trkpt lat="44.72279206321807" lon="9.802416111837609"><ele>767.0</ele><time>2026-04-19T10:06:50Z</time></trkpt><trkpt lat="44.722858611410246" lon="9.802511888830166"><ele>767.0</ele><time>2026-04-19T10:06:52Z</time></trkpt><trkpt lat="44.72292035487714" lon="9.802562263818913"><ele>767.0</ele><time>2026-04-19T10:06:53Z</time></trkpt><trkpt lat="44.723015861965216" lon="9.802641014226603"><ele>767.0</ele><time>2026-04-19T10:06:54Z</time></trkpt><trkpt lat="44.72308530062605" lon="9.802696156451873"><ele>767.0</ele><time>2026-04-19T10:06:55Z</time></trkpt><trkpt lat="44.72314313330796" lon="9.802753342005314"><ele>767.0</ele><time>2026-04-19T10:06:56Z</time></trkpt><trkpt lat="44.72321144752586" lon="9.802790056545934"><ele>767.0</ele><time>2026-04-19T10:06:58Z</time></trkpt><trkpt lat="44.723290383156" lon="9.802780127308072"><ele>766.0</ele><time>2026-04-19T10:07:01Z</time></trkpt><trkpt lat="44.72337809906122" lon="9.80276877862416"><ele>765.0</ele><time>2026-04-19T10:07:03Z</time></trkpt><trkpt lat="44.72344269748777" lon="9.802796622961537"><ele>764.0</ele><time>2026-04-19T10:07:06Z</time></trkpt><trkpt lat="44.72361000656134" lon="9.802904965657065"><ele>763.0</ele><time>2026-04-19T10:07:08Z</time></trkpt><trkpt lat="44.72369811318632" lon="9.803039569940516"><ele>763.0</ele><time>2026-04-19T10:07:10Z</time></trkpt><trkpt lat="44.72376041318607" lon="9.803123375536746"><ele>763.0</ele><time>2026-04-19T10:07:12Z</time></trkpt><trkpt lat="44.72379244296618" lon="9.803207312287558"><ele>763.0</ele><time>2026-04-19T10:07:17Z</time></trkpt><trkpt lat="44.72383278969201" lon="9.803279556152706"><ele>763.0</ele><time>2026-04-19T10:07:19Z</time></trkpt><trkpt lat="44.72387602625371" lon="9.803354182983364"><ele>763.0</ele><time>2026-04-19T10:07:22Z</time></trkpt><trkpt lat="44.723920855762614" lon="9.803444311660185"><ele>763.0</ele><time>2026-04-19T10:07:23.999Z</time></trkpt><trkpt lat="44.72397286423014" lon="9.803530440786393"><ele>763.0</ele><time>2026-04-19T10:07:25.999Z</time></trkpt><trkpt lat="44.7240876344421" lon="9.803437331019142"><ele>763.0</ele><time>2026-04-19T10:07:29.999Z</time></trkpt><trkpt lat="44.72414664453958" lon="9.803400633333558"><ele>763.0</ele><time>2026-04-19T10:07:30.999Z</time></trkpt><trkpt lat="44.72420553133476" lon="9.803368047194448"><ele>763.0</ele><time>2026-04-19T10:07:31.999Z</time></trkpt><trkpt lat="44.72429005349957" lon="9.803314374892935"><ele>763.0</ele><time>2026-04-19T10:07:34.999Z</time></trkpt><trkpt lat="44.72434803892148" lon="9.803185423187724"><ele>763.0</ele><time>2026-04-19T10:07:36.999Z</time></trkpt><trkpt lat="44.724412777116" lon="9.803069063899306"><ele>763.0</ele><time>2026-04-19T10:07:38.999Z</time></trkpt><trkpt lat="44.72452121057436" lon="9.802998887484122"><ele>762.1428571428571</ele><time>2026-04-19T10:07:40.999Z</time></trkpt><trkpt lat="44.72458477745482" lon="9.802945647384954"><ele>761.2857142857142</ele><time>2026-04-19T10:07:41.999Z</time></trkpt><trkpt lat="44.724646862975106" lon="9.802900239943545"><ele>760.4285714285714</ele><time>2026-04-19T10:07:42.999Z</time></trkpt><trkpt lat="44.724710607800546" lon="9.802860691166115"><ele>759.5714285714286</ele><time>2026-04-19T10:07:43.999Z</time></trkpt><trkpt lat="44.72477966614633" lon="9.802831495980255"><ele>758.7142857142857</ele><time>2026-04-19T10:07:44.999Z</time></trkpt><trkpt lat="44.724846777651955" lon="9.802800371727091"><ele>757.8571428571429</ele><time>2026-04-19T10:07:45.999Z</time></trkpt><trkpt lat="44.724906809602444" lon="9.802760907678412"><ele>757.0</ele><time>2026-04-19T10:07:46.999Z</time></trkpt><trkpt lat="44.72492717116831" lon="9.80264416462082"><ele>759.3333333333334</ele><time>2026-04-19T10:07:48.999Z</time></trkpt><trkpt lat="44.72492500322121" lon="9.8025518522015"><ele>761.6666666666667</ele><time>2026-04-19T10:07:49.999Z</time></trkpt><trkpt lat="44.72490889922855" lon="9.802434715772339"><ele>764.0</ele><time>2026-04-19T10:07:50.999Z</time></trkpt><trkpt lat="44.724943140424735" lon="9.802283890770708"><ele>766.3333333333334</ele><time>2026-04-19T10:07:52.999Z</time></trkpt><trkpt lat="44.72499374132985" lon="9.802225305175979"><ele>768.6666666666666</ele><time>2026-04-19T10:07:55.999Z</time></trkpt><trkpt lat="44.72506585794832" lon="9.802169272600729"><ele>771.0</ele><time>2026-04-19T10:07:58.999Z</time></trkpt><trkpt lat="44.72518181266703" lon="9.802094898216003"><ele>773.5999999999999</ele><time>2026-04-19T10:08:00.999Z</time></trkpt><trkpt lat="44.72527099657455" lon="9.802105664590092"><ele>776.2</ele><time>2026-04-19T10:08:01.999Z</time></trkpt><trkpt lat="44.72537218784321" lon="9.802126052572211"><ele>778.8</ele><time>2026-04-19T10:08:02.999Z</time></trkpt><trkpt lat="44.7254722775023" lon="9.802154846034066"><ele>781.4000000000001</ele><time>2026-04-19T10:08:03.999Z</time></trkpt><trkpt lat="44.725556911914566" lon="9.802193831559196"><ele>784.0</ele><time>2026-04-19T10:08:04.999Z</time></trkpt><trkpt lat="44.72563591042399" lon="9.802242198574985"><ele>784.0</ele><time>2026-04-19T10:08:05.999Z</time></trkpt><trkpt lat="44.72571901603299" lon="9.802289771725691"><ele>784.0</ele><time>2026-04-19T10:08:06.999Z</time></trkpt><trkpt lat="44.72580360066457" lon="9.802340314582965"><ele>784.0</ele><time>2026-04-19T10:08:07.999Z</time></trkpt><trkpt lat="44.72587887668541" lon="9.802391385900615"><ele>784.0</ele><time>2026-04-19T10:08:08.999Z</time></trkpt><trkpt lat="44.725944172400254" lon="9.8024465797853"><ele>784.0</ele><time>2026-04-19T10:08:09.999Z</time></trkpt><trkpt lat="44.72605685139041" lon="9.80254508289581"><ele>784.3333333333333</ele><time>2026-04-19T10:08:11.999Z</time></trkpt><trkpt lat="44.72612807827022" lon="9.802590023281622"><ele>784.6666666666666</ele><time>2026-04-19T10:08:12.999Z</time></trkpt><trkpt lat="44.726203193350486" lon="9.802622651460936"><ele>785.0</ele><time>2026-04-19T10:08:13.999Z</time></trkpt><trkpt lat="44.726272893981225" lon="9.802639989589569"><ele>785.3333333333333</ele><time>2026-04-19T10:08:14.999Z</time></trkpt><trkpt lat="44.726338400129514" lon="9.802654381062776"><ele>785.6666666666666</ele><time>2026-04-19T10:08:15.999Z</time></trkpt><trkpt lat="44.726471657916335" lon="9.802712565260228"><ele>786.0</ele><time>2026-04-19T10:08:17.999Z</time></trkpt><trkpt lat="44.72655113117136" lon="9.802747641790088"><ele>786.0</ele><time>2026-04-19T10:08:18.999Z</time></trkpt><trkpt lat="44.726644873904306" lon="9.802786445676688"><ele>786.0</ele><time>2026-04-19T10:08:19.999Z</time></trkpt><trkpt lat="44.72672242497831" lon="9.802793935239142"><ele>786.0</ele><time>2026-04-19T10:08:20.999Z</time></trkpt><trkpt lat="44.72681885873022" lon="9.802806597696602"><ele>786.0</ele><time>2026-04-19T10:08:21.999Z</time></trkpt><trkpt lat="44.72690580493594" lon="9.802830073136091"><ele>786.0</ele><time>2026-04-19T10:08:22.999Z</time></trkpt><trkpt lat="44.726996219259505" lon="9.802817247486862"><ele>788.1999999999999</ele><time>2026-04-19T10:08:23.999Z</time></trkpt><trkpt lat="44.72709445405328" lon="9.802809219077934"><ele>790.4</ele><time>2026-04-19T10:08:24.999Z</time></trkpt><trkpt lat="44.727158407251885" lon="9.802812084671435"><ele>792.6</ele><time>2026-04-19T10:08:25.999Z</time></trkpt><trkpt lat="44.72723585322843" lon="9.80282334279118"><ele>794.8</ele><time>2026-04-19T10:08:26.999Z</time></trkpt><trkpt lat="44.72736158494036" lon="9.802836655368171"><ele>797.0</ele><time>2026-04-19T10:08:27.999Z</time></trkpt><trkpt lat="44.72748105877943" lon="9.802829627326505"><ele>797.0000000000001</ele><time>2026-04-19T10:08:28.999Z</time></trkpt><trkpt lat="44.72756672275437" lon="9.802889747467253"><ele>797.0</ele><time>2026-04-19T10:08:30.999Z</time></trkpt><trkpt lat="44.72764599699654" lon="9.802913570334784"><ele>797.0</ele><time>2026-04-19T10:08:31.999Z</time></trkpt><trkpt lat="44.727770477272976" lon="9.802932652808666"><ele>797.0</ele><time>2026-04-19T10:08:33.999Z</time></trkpt><trkpt lat="44.727840310368805" lon="9.80293525481611"><ele>797.0000000000001</ele><time>2026-04-19T10:08:34.999Z</time></trkpt><trkpt lat="44.72791708886097" lon="9.802919148371988"><ele>797.0</ele><time>2026-04-19T10:08:35.999Z</time></trkpt><trkpt lat="44.72799027024963" lon="9.802889423014534"><ele>799.0</ele><time>2026-04-19T10:08:36.999Z</time></trkpt><trkpt lat="44.72811131386733" lon="9.802872426429271"><ele>801.0</ele><time>2026-04-19T10:08:38.999Z</time></trkpt><trkpt lat="44.728182607479475" lon="9.802832656070215"><ele>803.0</ele><time>2026-04-19T10:08:39.999Z</time></trkpt><trkpt lat="44.72825242190554" lon="9.802806484499841"><ele>805.0</ele><time>2026-04-19T10:08:40.999Z</time></trkpt><trkpt lat="44.728361128263636" lon="9.802837860866811"><ele>807.0</ele><time>2026-04-19T10:08:43.999Z</time></trkpt><trkpt lat="44.72844233566785" lon="9.802840700198743"><ele>807.0</ele><time>2026-04-19T10:08:47Z</time></trkpt><trkpt lat="44.728551717477075" lon="9.802847849823873"><ele>807.0</ele><time>2026-04-19T10:09:01Z</time></trkpt><trkpt lat="44.72862433698035" lon="9.802832492513316"><ele>807.0</ele><time>2026-04-19T10:09:04Z</time></trkpt><trkpt lat="44.72872769360151" lon="9.80280416911943"><ele>807.0</ele><time>2026-04-19T10:09:06Z</time></trkpt><trkpt lat="44.728833400342204" lon="9.802773139522614"><ele>807.0</ele><time>2026-04-19T10:09:08Z</time></trkpt><trkpt lat="44.72894594869044" lon="9.802689025923222"><ele>808.5</ele><time>2026-04-19T10:09:10Z</time></trkpt><trkpt lat="44.729022800990364" lon="9.80262863830319"><ele>810.0</ele><time>2026-04-19T10:09:11Z</time></trkpt><trkpt lat="44.72908658598281" lon="9.802588755252188"><ele>811.5</ele><time>2026-04-19T10:09:12Z</time></trkpt><trkpt lat="44.7291533153097" lon="9.8026773367453"><ele>813.0</ele><time>2026-04-19T10:09:16Z</time></trkpt><trkpt lat="44.72920442416048" lon="9.802774703012986"><ele>814.5</ele><time>2026-04-19T10:09:17Z</time></trkpt><trkpt lat="44.72924943715518" lon="9.802870281652712"><ele>816.0</ele><time>2026-04-19T10:09:18Z</time></trkpt><trkpt lat="44.72932194965626" lon="9.803006363155417"><ele>816.0</ele><time>2026-04-19T10:09:20Z</time></trkpt><trkpt lat="44.72935933762936" lon="9.80313386007907"><ele>816.0</ele><time>2026-04-19T10:09:21.999Z</time></trkpt><trkpt lat="44.72946989534971" lon="9.803246042734468"><ele>816.0</ele><time>2026-04-19T10:09:24.999Z</time></trkpt><trkpt lat="44.7295588288506" lon="9.803307617804512"><ele>816.0</ele><time>2026-04-19T10:09:25.999Z</time></trkpt><trkpt lat="44.72966090890991" lon="9.803443496531008"><ele>815.8333333333334</ele><time>2026-04-19T10:09:26.999Z</time></trkpt><trkpt lat="44.72971401000175" lon="9.803497320854683"><ele>815.6666666666667</ele><time>2026-04-19T10:09:27.999Z</time></trkpt><trkpt lat="44.72980434183831" lon="9.803552774792447"><ele>815.5</ele><time>2026-04-19T10:09:29.999Z</time></trkpt><trkpt lat="44.729881343305664" lon="9.80360417696352"><ele>815.3333333333334</ele><time>2026-04-19T10:09:32.999Z</time></trkpt><trkpt lat="44.72993419746336" lon="9.80367238490169"><ele>815.1666666666667</ele><time>2026-04-19T10:09:34.999Z</time></trkpt><trkpt lat="44.72999665390651" lon="9.803708684883668"><ele>815.0</ele><time>2026-04-19T10:09:36.999Z</time></trkpt><trkpt lat="44.73006360538342" lon="9.803657144523706"><ele>815.0</ele><time>2026-04-19T10:09:38.999Z</time></trkpt><trkpt lat="44.73014876144808" lon="9.803527346050561"><ele>815.0</ele><time>2026-04-19T10:09:40.999Z</time></trkpt><trkpt lat="44.730214669657705" lon="9.803422916484696"><ele>815.0</ele><time>2026-04-19T10:09:42.999Z</time></trkpt><trkpt lat="44.730303648600234" lon="9.803355568211634"><ele>815.0</ele><time>2026-04-19T10:09:45.999Z</time></trkpt><trkpt lat="44.73035452152182" lon="9.803297787009544"><ele>815.0</ele><time>2026-04-19T10:09:46.999Z</time></trkpt><trkpt lat="44.73045773125119" lon="9.803250254014701"><ele>816.25</ele><time>2026-04-19T10:09:47.999Z</time></trkpt><trkpt lat="44.73055110919715" lon="9.803228212621397"><ele>817.5</ele><time>2026-04-19T10:09:48.999Z</time></trkpt><trkpt lat="44.73066061256486" lon="9.803233896150392"><ele>818.75</ele><time>2026-04-19T10:09:49.999Z</time></trkpt><trkpt lat="44.73080075142941" lon="9.803283880089793"><ele>820.0</ele><time>2026-04-19T10:09:50.999Z</time></trkpt><trkpt lat="44.73092399410513" lon="9.803338557666986"><ele>819.9999999999999</ele><time>2026-04-19T10:09:51.999Z</time></trkpt><trkpt lat="44.73101436896284" lon="9.803371323517547"><ele>820.0</ele><time>2026-04-19T10:09:52.999Z</time></trkpt><trkpt lat="44.731084795742184" lon="9.803400208107874"><ele>820.0</ele><time>2026-04-19T10:09:53.999Z</time></trkpt><trkpt lat="44.73115288886245" lon="9.803425479670917"><ele>820.0</ele><time>2026-04-19T10:09:54.999Z</time></trkpt><trkpt lat="44.73121371302566" lon="9.803449304663879"><ele>819.9999999999999</ele><time>2026-04-19T10:09:55.999Z</time></trkpt><trkpt lat="44.73128130358067" lon="9.803529569090271"><ele>820.0</ele><time>2026-04-19T10:09:56.999Z</time></trkpt><trkpt lat="44.73137131440244" lon="9.803539166511056"><ele>820.4</ele><time>2026-04-19T10:09:57.999Z</time></trkpt><trkpt lat="44.73143429965204" lon="9.803612553838436"><ele>820.8</ele><time>2026-04-19T10:09:58.999Z</time></trkpt><trkpt lat="44.73144220216695" lon="9.803723242555204"><ele>821.2</ele><time>2026-04-19T10:09:59.999Z</time></trkpt><trkpt lat="44.731455988092165" lon="9.803850128254552"><ele>821.6</ele><time>2026-04-19T10:10:00.999Z</time></trkpt><trkpt lat="44.731454901425835" lon="9.803993924326312"><ele>822.0</ele><time>2026-04-19T10:10:01.999Z</time></trkpt><trkpt lat="44.73145729560267" lon="9.804138061046116"><ele>822.0</ele><time>2026-04-19T10:10:02.999Z</time></trkpt><trkpt lat="44.73147194281364" lon="9.804240001224338"><ele>822.0</ele><time>2026-04-19T10:10:03.999Z</time></trkpt><trkpt lat="44.73151741160332" lon="9.804350263062418"><ele>822.0</ele><time>2026-04-19T10:10:05.999Z</time></trkpt><trkpt lat="44.731512744109295" lon="9.804481760356893"><ele>822.0</ele><time>2026-04-19T10:10:08.999Z</time></trkpt><trkpt lat="44.731542655763185" lon="9.804571866752124"><ele>822.0</ele><time>2026-04-19T10:10:11.999Z</time></trkpt><trkpt lat="44.731591210116946" lon="9.804677671529003"><ele>822.0</ele><time>2026-04-19T10:10:13.999Z</time></trkpt><trkpt lat="44.73157392925392" lon="9.804763040628572"><ele>823.6</ele><time>2026-04-19T10:10:20.999Z</time></trkpt><trkpt lat="44.73156869209467" lon="9.804879827935114"><ele>825.2</ele><time>2026-04-19T10:10:32.999Z</time></trkpt><trkpt lat="44.73155563203836" lon="9.80499542765418"><ele>826.8</ele><time>2026-04-19T10:10:35.999Z</time></trkpt><trkpt lat="44.731559954925224" lon="9.80517775946762"><ele>828.4</ele><time>2026-04-19T10:10:37.999Z</time></trkpt><trkpt lat="44.73157827417491" lon="9.805291362896641"><ele>830.0</ele><time>2026-04-19T10:10:38.999Z</time></trkpt><trkpt lat="44.7315946276692" lon="9.805434543208108"><ele>830.1666666666667</ele><time>2026-04-19T10:10:39.999Z</time></trkpt><trkpt lat="44.731591901120076" lon="9.805565291150755"><ele>830.3333333333334</ele><time>2026-04-19T10:10:40.999Z</time></trkpt><trkpt lat="44.73160098295167" lon="9.805689032326724"><ele>830.5</ele><time>2026-04-19T10:10:42.999Z</time></trkpt><trkpt lat="44.73163725825789" lon="9.80578218838327"><ele>830.6666666666667</ele><time>2026-04-19T10:10:43.999Z</time></trkpt><trkpt lat="44.73166951689781" lon="9.805888592899219"><ele>830.8333333333334</ele><time>2026-04-19T10:10:44.999Z</time></trkpt><trkpt lat="44.731718752502026" lon="9.805972693602088"><ele>831.0</ele><time>2026-04-19T10:10:47.999Z</time></trkpt><trkpt lat="44.73175619780965" lon="9.806043986311815"><ele>830.5</ele><time>2026-04-19T10:10:48.999Z</time></trkpt><trkpt lat="44.73182414171215" lon="9.806088131747817"><ele>830.0</ele><time>2026-04-19T10:10:49.999Z</time></trkpt><trkpt lat="44.73188665898407" lon="9.806113531782472"><ele>829.5</ele><time>2026-04-19T10:10:51Z</time></trkpt><trkpt lat="44.731999036992974" lon="9.806189814763083"><ele>829.0</ele><time>2026-04-19T10:10:53Z</time></trkpt><trkpt lat="44.73207034557538" lon="9.80625940139678"><ele>828.5</ele><time>2026-04-19T10:10:54Z</time></trkpt><trkpt lat="44.73212920668275" lon="9.806313919345488"><ele>828.0</ele><time>2026-04-19T10:10:55Z</time></trkpt><trkpt lat="44.73220642037628" lon="9.806379590701008"><ele>831.0</ele><time>2026-04-19T10:10:57Z</time></trkpt><trkpt lat="44.73229062384071" lon="9.806413508464987"><ele>834.0</ele><time>2026-04-19T10:10:59Z</time></trkpt><trkpt lat="44.732373804130695" lon="9.806396698405923"><ele>837.0</ele><time>2026-04-19T10:11:01Z</time></trkpt><trkpt lat="44.732456624959795" lon="9.806321154562054"><ele>840.0</ele><time>2026-04-19T10:11:03Z</time></trkpt><trkpt lat="44.73254380432849" lon="9.806303310376265"><ele>843.0</ele><time>2026-04-19T10:11:05Z</time></trkpt><trkpt lat="44.73261041937484" lon="9.806276329946813"><ele>846.0</ele><time>2026-04-19T10:11:07Z</time></trkpt><trkpt lat="44.7327989899085" lon="9.806255428598485"><ele>848.0</ele><time>2026-04-19T10:11:09Z</time></trkpt><trkpt lat="44.732870676940514" lon="9.806243464876639"><ele>850.0</ele><time>2026-04-19T10:11:10Z</time></trkpt><trkpt lat="44.73296638277213" lon="9.806238745236994"><ele>852.0</ele><time>2026-04-19T10:11:11Z</time></trkpt><trkpt lat="44.733047912891905" lon="9.806236854234095"><ele>854.0</ele><time>2026-04-19T10:11:12Z</time></trkpt><trkpt lat="44.73312261721903" lon="9.806238108405555"><ele>856.0</ele><time>2026-04-19T10:11:13Z</time></trkpt><trkpt lat="44.733185332193216" lon="9.806266151807744"><ele>858.0</ele><time>2026-04-19T10:11:14Z</time></trkpt><trkpt lat="44.7332894553893" lon="9.806354298380741"><ele>858.0</ele><time>2026-04-19T10:11:16Z</time></trkpt><trkpt lat="44.733358935311934" lon="9.80640196915599"><ele>858.0</ele><time>2026-04-19T10:11:17Z</time></trkpt><trkpt lat="44.73341883211803" lon="9.806434784146823"><ele>858.0</ele><time>2026-04-19T10:11:18Z</time></trkpt><trkpt lat="44.733483454633664" lon="9.806467391566134"><ele>858.0</ele><time>2026-04-19T10:11:19Z</time></trkpt><trkpt lat="44.733614216610306" lon="9.80652512560235"><ele>858.0</ele><time>2026-04-19T10:11:21Z</time></trkpt><trkpt lat="44.73368807270285" lon="9.806539357715941"><ele>858.0</ele><time>2026-04-19T10:11:21.999Z</time></trkpt><trkpt lat="44.733758699607286" lon="9.806515376581423"><ele>858.5999999999999</ele><time>2026-04-19T10:11:22.999Z</time></trkpt><trkpt lat="44.73382237614189" lon="9.806447919040732"><ele>859.1999999999999</ele><time>2026-04-19T10:11:23.999Z</time></trkpt><trkpt lat="44.733891787401994" lon="9.80635528799771"><ele>859.8</ele><time>2026-04-19T10:11:24.999Z</time></trkpt><trkpt lat="44.73394867635001" lon="9.806306209550671"><ele>860.4</ele><time>2026-04-19T10:11:25.999Z</time></trkpt><trkpt lat="44.73406504031731" lon="9.806271116133214"><ele>861.0</ele><time>2026-04-19T10:11:27.999Z</time></trkpt><trkpt lat="44.73404473807736" lon="9.806460251396405"><ele>861.0</ele><time>2026-04-19T10:11:28.999Z</time></trkpt><trkpt lat="44.73412044512005" lon="9.806582827396667"><ele>861.0</ele><time>2026-04-19T10:11:29.999Z</time></trkpt><trkpt lat="44.73426878601188" lon="9.806641844421968"><ele>861.0</ele><time>2026-04-19T10:11:30.999Z</time></trkpt><trkpt lat="44.734381759502" lon="9.806689495092728"><ele>861.0</ele><time>2026-04-19T10:11:31.999Z</time></trkpt><trkpt lat="44.7345214370197" lon="9.806733554113467"><ele>860.5999999999999</ele><time>2026-04-19T10:11:33.999Z</time></trkpt><trkpt lat="44.73463807565844" lon="9.806758763224503"><ele>860.1999999999999</ele><time>2026-04-19T10:11:34.999Z</time></trkpt><trkpt lat="44.73473513884375" lon="9.80678568342578"><ele>859.8000000000001</ele><time>2026-04-19T10:11:35.999Z</time></trkpt><trkpt lat="44.73481720994983" lon="9.806812148582253"><ele>859.4000000000001</ele><time>2026-04-19T10:11:36.999Z</time></trkpt><trkpt lat="44.73489801172312" lon="9.806828541683872"><ele>859.0</ele><time>2026-04-19T10:11:37.999Z</time></trkpt><trkpt lat="44.73499218526632" lon="9.80683904118575"><ele>858.8333333333333</ele><time>2026-04-19T10:11:38.999Z</time></trkpt><trkpt lat="44.73507220698605" lon="9.806852872771417"><ele>858.6666666666666</ele><time>2026-04-19T10:11:39.999Z</time></trkpt><trkpt lat="44.73517186550798" lon="9.806853176460901"><ele>858.5</ele><time>2026-04-19T10:11:41.999Z</time></trkpt><trkpt lat="44.73524001032409" lon="9.806875416797327"><ele>858.3333333333333</ele><time>2026-04-19T10:11:43.999Z</time></trkpt><trkpt lat="44.7352666885483" lon="9.806975531088915"><ele>858.1666666666666</ele><time>2026-04-19T10:11:45.999Z</time></trkpt><trkpt lat="44.73522496183945" lon="9.80712142634094"><ele>858.0</ele><time>2026-04-19T10:11:47.999Z</time></trkpt><trkpt lat="44.73519173508167" lon="9.807201537824946"><ele>858.0</ele><time>2026-04-19T10:11:48.999Z</time></trkpt><trkpt lat="44.735143939018776" lon="9.807294197892553"><ele>858.0</ele><time>2026-04-19T10:11:49.999Z</time></trkpt><trkpt lat="44.73507854146741" lon="9.807386919860862"><ele>858.0</ele><time>2026-04-19T10:11:50.999Z</time></trkpt><trkpt lat="44.73503913076942" lon="9.807468984756033"><ele>858.0</ele><time>2026-04-19T10:11:51.999Z</time></trkpt><trkpt lat="44.73506497874897" lon="9.807599104093795"><ele>858.0</ele><time>2026-04-19T10:11:53.999Z</time></trkpt><trkpt lat="44.735134505823765" lon="9.807662750896316"><ele>858.0</ele><time>2026-04-19T10:11:54.999Z</time></trkpt><trkpt lat="44.73519599070834" lon="9.807740938555284"><ele>859.5999999999999</ele><time>2026-04-19T10:11:55.999Z</time></trkpt><trkpt lat="44.735212513353964" lon="9.807900188198582"><ele>861.1999999999999</ele><time>2026-04-19T10:11:57.999Z</time></trkpt><trkpt lat="44.735209380860354" lon="9.808033536415511"><ele>862.8</ele><time>2026-04-19T10:11:58.999Z</time></trkpt><trkpt lat="44.73520974296895" lon="9.808190839667828"><ele>864.4</ele><time>2026-04-19T10:11:59.999Z</time></trkpt><trkpt lat="44.73521158566348" lon="9.80830630565386"><ele>866.0</ele><time>2026-04-19T10:12:00.999Z</time></trkpt><trkpt lat="44.73522108014219" lon="9.808493694300994"><ele>866.8</ele><time>2026-04-19T10:12:02.999Z</time></trkpt><trkpt lat="44.735236033920884" lon="9.808598386887207"><ele>867.5999999999999</ele><time>2026-04-19T10:12:03.999Z</time></trkpt><trkpt lat="44.73527135613038" lon="9.808688916159578"><ele>868.4</ele><time>2026-04-19T10:12:04.999Z</time></trkpt><trkpt lat="44.73533051053626" lon="9.808795233378921"><ele>869.2</ele><time>2026-04-19T10:12:05.999Z</time></trkpt><trkpt lat="44.73537431894755" lon="9.80887876673752"><ele>870.0</ele><time>2026-04-19T10:12:06.999Z</time></trkpt><trkpt lat="44.73550005086419" lon="9.808945408215882"><ele>870.0</ele><time>2026-04-19T10:12:08.999Z</time></trkpt><trkpt lat="44.73556476350381" lon="9.809015081426054"><ele>870.0</ele><time>2026-04-19T10:12:09.999Z</time></trkpt><trkpt lat="44.73562520654415" lon="9.809116074331682"><ele>870.0</ele><time>2026-04-19T10:12:10.999Z</time></trkpt><trkpt lat="44.73567431079837" lon="9.80917930408648"><ele>870.0</ele><time>2026-04-19T10:12:11.999Z</time></trkpt><trkpt lat="44.735685061698256" lon="9.809296663813575"><ele>870.0</ele><time>2026-04-19T10:12:13.999Z</time></trkpt><trkpt lat="44.735658685280015" lon="9.809389432282677"><ele>870.0</ele><time>2026-04-19T10:12:14.999Z</time></trkpt><trkpt lat="44.73572178228879" lon="9.809460688376257"><ele>870.0</ele><time>2026-04-19T10:12:17.999Z</time></trkpt><trkpt lat="44.735825592190956" lon="9.80947038072115"><ele>870.0</ele><time>2026-04-19T10:12:19.999Z</time></trkpt><trkpt lat="44.73590595913142" lon="9.809528867457761"><ele>870.0</ele><time>2026-04-19T10:12:21.999Z</time></trkpt><trkpt lat="44.735950025781946" lon="9.809615906886346"><ele>870.0</ele><time>2026-04-19T10:12:22.999Z</time></trkpt><trkpt lat="44.735997961128994" lon="9.809694320217476"><ele>870.0</ele><time>2026-04-19T10:12:24.999Z</time></trkpt><trkpt lat="44.73601857127434" lon="9.80983403603521"><ele>870.0</ele><time>2026-04-19T10:12:26.999Z</time></trkpt><trkpt lat="44.73603317716007" lon="9.81000792132951"><ele>870.0</ele><time>2026-04-19T10:12:28.999Z</time></trkpt><trkpt lat="44.73602465607538" lon="9.810124943613339"><ele>870.0</ele><time>2026-04-19T10:12:29.999Z</time></trkpt><trkpt lat="44.736035449114425" lon="9.810227647079493"><ele>870.0</ele><time>2026-04-19T10:12:30.999Z</time></trkpt><trkpt lat="44.73605022372072" lon="9.810333409152276"><ele>870.0</ele><time>2026-04-19T10:12:31.999Z</time></trkpt><trkpt lat="44.73605298654663" lon="9.810457496856722"><ele>870.0</ele><time>2026-04-19T10:12:32.999Z</time></trkpt><trkpt lat="44.736044250860274" lon="9.810578265100192"><ele>870.0</ele><time>2026-04-19T10:12:33.999Z</time></trkpt><trkpt lat="44.73603154517343" lon="9.810687633594108"><ele>869.1666666666666</ele><time>2026-04-19T10:12:34.999Z</time></trkpt><trkpt lat="44.73602363472814" lon="9.810786047770119"><ele>868.3333333333333</ele><time>2026-04-19T10:12:35.999Z</time></trkpt><trkpt lat="44.73599548191677" lon="9.810876171949063"><ele>867.5</ele><time>2026-04-19T10:12:36.999Z</time></trkpt><trkpt lat="44.73597139800196" lon="9.810966240414256"><ele>866.6666666666666</ele><time>2026-04-19T10:12:37.999Z</time></trkpt><trkpt lat="44.735926857576885" lon="9.811119176600505"><ele>865.8333333333333</ele><time>2026-04-19T10:12:39.999Z</time></trkpt><trkpt lat="44.735901899383755" lon="9.811289219721138"><ele>865.0</ele><time>2026-04-19T10:12:41.999Z</time></trkpt><trkpt lat="44.73588877509507" lon="9.81137705762601"><ele>864.2</ele><time>2026-04-19T10:12:42.999Z</time></trkpt><trkpt lat="44.73586395089733" lon="9.811544511335889"><ele>863.4</ele><time>2026-04-19T10:12:44.999Z</time></trkpt><trkpt lat="44.73587239790353" lon="9.81165768965239"><ele>862.5999999999999</ele><time>2026-04-19T10:12:45.999Z</time></trkpt><trkpt lat="44.735821649754996" lon="9.81182141871372"><ele>861.8</ele><time>2026-04-19T10:12:47.999Z</time></trkpt><trkpt lat="44.735777421652934" lon="9.811919963220882"><ele>861.0</ele><time>2026-04-19T10:12:48.999Z</time></trkpt><trkpt lat="44.73572651318494" lon="9.812029142014206"><ele>857.1999999999999</ele><time>2026-04-19T10:12:49.999Z</time></trkpt><trkpt lat="44.735673545002314" lon="9.81212853736935"><ele>853.3999999999999</ele><time>2026-04-19T10:12:50.999Z</time></trkpt><trkpt lat="44.73563440452965" lon="9.812208911331444"><ele>849.6</ele><time>2026-04-19T10:12:51.999Z</time></trkpt><trkpt lat="44.73555946872128" lon="9.812311200113879"><ele>845.8</ele><time>2026-04-19T10:12:53.999Z</time></trkpt><trkpt lat="44.73542873655557" lon="9.812350708694643"><ele>842.0</ele><time>2026-04-19T10:12:55.999Z</time></trkpt><trkpt lat="44.735342329734934" lon="9.812356447316102"><ele>842.0000000000001</ele><time>2026-04-19T10:12:56.999Z</time></trkpt><trkpt lat="44.73527413543108" lon="9.812381577548274"><ele>842.0</ele><time>2026-04-19T10:12:57.999Z</time></trkpt><trkpt lat="44.73520972560588" lon="9.812400082842085"><ele>842.0</ele><time>2026-04-19T10:12:58.999Z</time></trkpt><trkpt lat="44.73511225832791" lon="9.812391025720608"><ele>842.0</ele><time>2026-04-19T10:13:00.999Z</time></trkpt><trkpt lat="44.73504261640691" lon="9.8124868918905"><ele>842.0000000000001</ele><time>2026-04-19T10:13:02.999Z</time></trkpt><trkpt lat="44.734983917566375" lon="9.812625339539833"><ele>842.0</ele><time>2026-04-19T10:13:04.999Z</time></trkpt><trkpt lat="44.73491517834313" lon="9.812662611963582"><ele>838.0000000000001</ele><time>2026-04-19T10:13:05.999Z</time></trkpt><trkpt lat="44.73484854013031" lon="9.812708991411844"><ele>834.0</ele><time>2026-04-19T10:13:06.999Z</time></trkpt><trkpt lat="44.73477944171795" lon="9.812784865014054"><ele>830.0</ele><time>2026-04-19T10:13:07.999Z</time></trkpt><trkpt lat="44.734703811928696" lon="9.812856682022746"><ele>826.0</ele><time>2026-04-19T10:13:08.999Z</time></trkpt><trkpt lat="44.734640712491526" lon="9.812921936966676"><ele>822.0000000000001</ele><time>2026-04-19T10:13:09.999Z</time></trkpt><trkpt lat="44.73457617326431" lon="9.81304947109641"><ele>818.0</ele><time>2026-04-19T10:13:11.999Z</time></trkpt><trkpt lat="44.73446168814236" lon="9.813164161094585"><ele>818.5999999999999</ele><time>2026-04-19T10:13:13.999Z</time></trkpt><trkpt lat="44.734386637966516" lon="9.813186496348708"><ele>819.1999999999999</ele><time>2026-04-19T10:13:14.999Z</time></trkpt><trkpt lat="44.73431221314362" lon="9.81320885598245"><ele>819.8</ele><time>2026-04-19T10:13:15.999Z</time></trkpt><trkpt lat="44.734244549807386" lon="9.81330319665735"><ele>820.4</ele><time>2026-04-19T10:13:16.999Z</time></trkpt><trkpt lat="44.73417291205887" lon="9.813438254718806"><ele>821.0</ele><time>2026-04-19T10:13:17.999Z</time></trkpt><trkpt lat="44.73410198220968" lon="9.813556764134354"><ele>817.4</ele><time>2026-04-19T10:13:18.999Z</time></trkpt><trkpt lat="44.734048397719334" lon="9.81365760649866"><ele>813.8</ele><time>2026-04-19T10:13:19.999Z</time></trkpt><trkpt lat="44.73401755325713" lon="9.813749248770131"><ele>810.1999999999999</ele><time>2026-04-19T10:13:20.999Z</time></trkpt><trkpt lat="44.733912977196475" lon="9.81387012887886"><ele>806.5999999999999</ele><time>2026-04-19T10:13:22.999Z</time></trkpt><trkpt lat="44.7338445257246" lon="9.81394033971058"><ele>803.0</ele><time>2026-04-19T10:13:23.999Z</time></trkpt><trkpt lat="44.733789683306014" lon="9.81399739546987"><ele>803.0</ele><time>2026-04-19T10:13:24.999Z</time></trkpt><trkpt lat="44.73371473871919" lon="9.814064443266677"><ele>803.0</ele><time>2026-04-19T10:13:26.999Z</time></trkpt><trkpt lat="44.733634765838005" lon="9.814156302132776"><ele>803.0</ele><time>2026-04-19T10:13:28.999Z</time></trkpt><trkpt lat="44.73356225803483" lon="9.814246118665045"><ele>803.0</ele><time>2026-04-19T10:13:30.999Z</time></trkpt><trkpt lat="44.73349115671335" lon="9.814299636100277"><ele>803.0</ele><time>2026-04-19T10:13:32.999Z</time></trkpt><trkpt lat="44.733387158259276" lon="9.814459465083104"><ele>801.1666666666667</ele><time>2026-04-19T10:13:36.999Z</time></trkpt><trkpt lat="44.733338157070875" lon="9.814517785844298"><ele>799.3333333333334</ele><time>2026-04-19T10:13:37.999Z</time></trkpt><trkpt lat="44.73327721711849" lon="9.814605868549572"><ele>797.5</ele><time>2026-04-19T10:13:39.999Z</time></trkpt><trkpt lat="44.733320349333766" lon="9.81469719736702"><ele>795.6666666666667</ele><time>2026-04-19T10:13:41.999Z</time></trkpt><trkpt lat="44.73340398418075" lon="9.81475833801387"><ele>793.8333333333334</ele><time>2026-04-19T10:13:43.999Z</time></trkpt><trkpt lat="44.73349115361548" lon="9.81485222719914"><ele>792.0</ele><time>2026-04-19T10:13:45.999Z</time></trkpt><trkpt lat="44.733535699995535" lon="9.814920961361633"><ele>792.0</ele><time>2026-04-19T10:13:46.999Z</time></trkpt><trkpt lat="44.733574405532025" lon="9.814992410849303"><ele>792.0</ele><time>2026-04-19T10:13:47.999Z</time></trkpt><trkpt lat="44.7335989673078" lon="9.815102859517307"><ele>792.0</ele><time>2026-04-19T10:13:49.999Z</time></trkpt><trkpt lat="44.733515348406776" lon="9.8151483547391"><ele>792.0</ele><time>2026-04-19T10:14:06.999Z</time></trkpt><trkpt lat="44.73344269802163" lon="9.815154480269419"><ele>792.0</ele><time>2026-04-19T10:14:08.999Z</time></trkpt><trkpt lat="44.73336272332033" lon="9.81517053361267"><ele>792.0</ele><time>2026-04-19T10:14:10.999Z</time></trkpt><trkpt lat="44.73335072923035" lon="9.815257742984903"><ele>788.5</ele><time>2026-04-19T10:14:13.999Z</time></trkpt><trkpt lat="44.73342412882108" lon="9.815357542582396"><ele>785.0</ele><time>2026-04-19T10:14:15.999Z</time></trkpt><trkpt lat="44.733481842240856" lon="9.81539805352887"><ele>781.5</ele><time>2026-04-19T10:14:16.999Z</time></trkpt><trkpt lat="44.733545175438145" lon="9.815510508578983"><ele>778.0</ele><time>2026-04-19T10:14:18.999Z</time></trkpt><trkpt lat="44.73356873519585" lon="9.815597577855348"><ele>774.5</ele><time>2026-04-19T10:14:19.999Z</time></trkpt><trkpt lat="44.73359583141031" lon="9.815694155059383"><ele>771.0</ele><time>2026-04-19T10:14:20.999Z</time></trkpt><trkpt lat="44.73362965364063" lon="9.815797958455784"><ele>769.6666666666666</ele><time>2026-04-19T10:14:21.999Z</time></trkpt><trkpt lat="44.733671799947764" lon="9.81587274084535"><ele>768.3333333333334</ele><time>2026-04-19T10:14:22.999Z</time></trkpt><trkpt lat="44.733716481800144" lon="9.815965125792578"><ele>767.0</ele><time>2026-04-19T10:14:23.999Z</time></trkpt><trkpt lat="44.73374064101591" lon="9.816100937975564"><ele>765.6666666666667</ele><time>2026-04-19T10:14:24.999Z</time></trkpt><trkpt lat="44.73375456779467" lon="9.816215915357658"><ele>764.3333333333334</ele><time>2026-04-19T10:14:25.999Z</time></trkpt><trkpt lat="44.733775398837025" lon="9.816311538769742"><ele>763.0</ele><time>2026-04-19T10:14:26.999Z</time></trkpt><trkpt lat="44.7338094288343" lon="9.816403085913022"><ele>761.0</ele><time>2026-04-19T10:14:27.999Z</time></trkpt><trkpt lat="44.73385097427874" lon="9.816488387408123"><ele>759.0</ele><time>2026-04-19T10:14:28.999Z</time></trkpt><trkpt lat="44.733875685570936" lon="9.816583091976456"><ele>757.0</ele><time>2026-04-19T10:14:29.999Z</time></trkpt><trkpt lat="44.73388314833401" lon="9.816690791327668"><ele>755.0</ele><time>2026-04-19T10:14:30.999Z</time></trkpt><trkpt lat="44.733895560633385" lon="9.816819756644213"><ele>753.0</ele><time>2026-04-19T10:14:31.999Z</time></trkpt><trkpt lat="44.73390394100552" lon="9.816969019756861"><ele>751.0</ele><time>2026-04-19T10:14:32.999Z</time></trkpt><trkpt lat="44.73392434894832" lon="9.817075394469754"><ele>749.5999999999999</ele><time>2026-04-19T10:14:33.999Z</time></trkpt><trkpt lat="44.73395526220232" lon="9.817175918630069"><ele>748.2</ele><time>2026-04-19T10:14:34.999Z</time></trkpt><trkpt lat="44.734027807688996" lon="9.817292123458348"><ele>746.8</ele><time>2026-04-19T10:14:36.999Z</time></trkpt><trkpt lat="44.734093497010846" lon="9.817339845342538"><ele>745.4000000000001</ele><time>2026-04-19T10:14:37.999Z</time></trkpt><trkpt lat="44.734156584949076" lon="9.817375324170914"><ele>744.0</ele><time>2026-04-19T10:14:38.999Z</time></trkpt><trkpt lat="44.734222031861165" lon="9.817532822949655"><ele>744.0</ele><time>2026-04-19T10:14:40.999Z</time></trkpt><trkpt lat="44.734220916802954" lon="9.81764156164575"><ele>744.0</ele><time>2026-04-19T10:14:41.999Z</time></trkpt><trkpt lat="44.73421725127912" lon="9.817797754613899"><ele>744.0</ele><time>2026-04-19T10:14:43.999Z</time></trkpt><trkpt lat="44.73420866263391" lon="9.817899799799557"><ele>744.0</ele><time>2026-04-19T10:14:44.999Z</time></trkpt><trkpt lat="44.734196556430994" lon="9.817988949878727"><ele>744.0</ele><time>2026-04-19T10:14:45.999Z</time></trkpt><trkpt lat="44.73424790068769" lon="9.818158616260975"><ele>742.3333333333334</ele><time>2026-04-19T10:14:47.999Z</time></trkpt><trkpt lat="44.734282390725234" lon="9.818272745905839"><ele>740.6666666666666</ele><time>2026-04-19T10:14:48.999Z</time></trkpt><trkpt lat="44.73429861306558" lon="9.818376209348814"><ele>739.0</ele><time>2026-04-19T10:14:49.999Z</time></trkpt><trkpt lat="44.734291524342595" lon="9.818496451257358"><ele>737.3333333333333</ele><time>2026-04-19T10:14:50.999Z</time></trkpt><trkpt lat="44.73426371930081" lon="9.818631952161455"><ele>735.6666666666666</ele><time>2026-04-19T10:14:51.999Z</time></trkpt><trkpt lat="44.734241221645505" lon="9.818737799772249"><ele>734.0</ele><time>2026-04-19T10:14:52.999Z</time></trkpt><trkpt lat="44.73419636455852" lon="9.818880104365174"><ele>732.0</ele><time>2026-04-19T10:14:54.999Z</time></trkpt><trkpt lat="44.73419978675135" lon="9.818991390584165"><ele>730.0</ele><time>2026-04-19T10:14:56.999Z</time></trkpt><trkpt lat="44.7342008162984" lon="9.819148581773248"><ele>728.0</ele><time>2026-04-19T10:14:58.999Z</time></trkpt><trkpt lat="44.73420705918495" lon="9.819241200912938"><ele>726.0</ele><time>2026-04-19T10:14:59.999Z</time></trkpt><trkpt lat="44.73420593087262" lon="9.819409653666032"><ele>724.0</ele><time>2026-04-19T10:15:01.999Z</time></trkpt><trkpt lat="44.73421444327685" lon="9.819522694188258"><ele>722.3333333333334</ele><time>2026-04-19T10:15:02.999Z</time></trkpt><trkpt lat="44.73422815069443" lon="9.819650154622341"><ele>720.6666666666667</ele><time>2026-04-19T10:15:03.999Z</time></trkpt><trkpt lat="44.73424140226576" lon="9.819777798466903"><ele>719.0</ele><time>2026-04-19T10:15:04.999Z</time></trkpt><trkpt lat="44.73423641600186" lon="9.819877319726041"><ele>717.3333333333334</ele><time>2026-04-19T10:15:05.999Z</time></trkpt><trkpt lat="44.73422996588862" lon="9.819980978090369"><ele>715.6666666666666</ele><time>2026-04-19T10:15:06.999Z</time></trkpt><trkpt lat="44.73423062574514" lon="9.820087241137939"><ele>714.0</ele><time>2026-04-19T10:15:07.999Z</time></trkpt><trkpt lat="44.734223349726" lon="9.820269596938706"><ele>711.8333333333334</ele><time>2026-04-19T10:15:09.999Z</time></trkpt><trkpt lat="44.734208080619496" lon="9.820377078749996"><ele>709.6666666666666</ele><time>2026-04-19T10:15:10.999Z</time></trkpt><trkpt lat="44.73418118828696" lon="9.82046858084046"><ele>707.5</ele><time>2026-04-19T10:15:11.999Z</time></trkpt><trkpt lat="44.73413177335585" lon="9.820591018666443"><ele>705.3333333333333</ele><time>2026-04-19T10:15:13.999Z</time></trkpt><trkpt lat="44.734086641020305" lon="9.820709702105933"><ele>703.1666666666666</ele><time>2026-04-19T10:15:15.999Z</time></trkpt><trkpt lat="44.73405644148726" lon="9.820823313869285"><ele>701.0</ele><time>2026-04-19T10:15:16.999Z</time></trkpt><trkpt lat="44.73403187716376" lon="9.82093639480818"><ele>699.4</ele><time>2026-04-19T10:15:17.999Z</time></trkpt><trkpt lat="44.734037686431066" lon="9.821079809701436"><ele>697.8</ele><time>2026-04-19T10:15:18.999Z</time></trkpt><trkpt lat="44.73406212629095" lon="9.821230565771703"><ele>696.1999999999999</ele><time>2026-04-19T10:15:19.999Z</time></trkpt><trkpt lat="44.734073866394105" lon="9.821382163932496"><ele>694.5999999999999</ele><time>2026-04-19T10:15:21.999Z</time></trkpt><trkpt lat="44.73408332346959" lon="9.82152396544482"><ele>693.0</ele><time>2026-04-19T10:15:23.999Z</time></trkpt><trkpt lat="44.73410374087034" lon="9.821612351364498"><ele>693.0</ele><time>2026-04-19T10:15:24.999Z</time></trkpt><trkpt lat="44.73412183589878" lon="9.821771849866304"><ele>693.0</ele><time>2026-04-19T10:15:26.999Z</time></trkpt><trkpt lat="44.734134671216744" lon="9.821861037320545"><ele>693.0</ele><time>2026-04-19T10:15:27.999Z</time></trkpt><trkpt lat="44.73416059133002" lon="9.82199103353352"><ele>693.0</ele><time>2026-04-19T10:15:29.999Z</time></trkpt><trkpt lat="44.73412662584025" lon="9.822175097775574"><ele>693.0</ele><time>2026-04-19T10:15:31.999Z</time></trkpt><trkpt lat="44.734107661704435" lon="9.822280721577748"><ele>692.4</ele><time>2026-04-19T10:15:32.999Z</time></trkpt><trkpt lat="44.73410481933372" lon="9.822376079586231"><ele>691.8</ele><time>2026-04-19T10:15:33.999Z</time></trkpt><trkpt lat="44.73403341813171" lon="9.822529330442885"><ele>691.2</ele><time>2026-04-19T10:15:35.999Z</time></trkpt><trkpt lat="44.73394839333201" lon="9.822601637660105"><ele>690.6</ele><time>2026-04-19T10:15:36.999Z</time></trkpt><trkpt lat="44.733879861996186" lon="9.8226815065793"><ele>690.0</ele><time>2026-04-19T10:15:37.999Z</time></trkpt><trkpt lat="44.73383643105194" lon="9.8227748420131"><ele>687.6</ele><time>2026-04-19T10:15:38.999Z</time></trkpt><trkpt lat="44.73379837959768" lon="9.82286808051909"><ele>685.2</ele><time>2026-04-19T10:15:39.999Z</time></trkpt><trkpt lat="44.733758617538676" lon="9.822957915869702"><ele>682.8</ele><time>2026-04-19T10:15:40.999Z</time></trkpt><trkpt lat="44.73372333179451" lon="9.823031454867637"><ele>680.4</ele><time>2026-04-19T10:15:41.999Z</time></trkpt><trkpt lat="44.73363811327331" lon="9.823148082886854"><ele>678.0</ele><time>2026-04-19T10:15:43.999Z</time></trkpt><trkpt lat="44.73358873371909" lon="9.823299023486445"><ele>678.0</ele><time>2026-04-19T10:15:45.999Z</time></trkpt><trkpt lat="44.73356710970799" lon="9.823392468528244"><ele>678.0</ele><time>2026-04-19T10:15:46.999Z</time></trkpt><trkpt lat="44.73352804748421" lon="9.823543049285695"><ele>678.0</ele><time>2026-04-19T10:15:48.999Z</time></trkpt><trkpt lat="44.73348007636702" lon="9.8236279436447"><ele>678.0</ele><time>2026-04-19T10:15:50.999Z</time></trkpt><trkpt lat="44.73340767634955" lon="9.823670658242897"><ele>678.0</ele><time>2026-04-19T10:16:02.999Z</time></trkpt><trkpt lat="44.73332276335334" lon="9.823767866538862"><ele>678.0</ele><time>2026-04-19T10:16:04.999Z</time></trkpt><trkpt lat="44.73325578927425" lon="9.823838043337187"><ele>675.5</ele><time>2026-04-19T10:16:05.999Z</time></trkpt><trkpt lat="44.733209666506134" lon="9.823919175757657"><ele>673.0</ele><time>2026-04-19T10:16:06.999Z</time></trkpt><trkpt lat="44.7331906042377" lon="9.824009075199378"><ele>670.5</ele><time>2026-04-19T10:16:07.999Z</time></trkpt><trkpt lat="44.7331792305079" lon="9.824116796461642"><ele>668.0</ele><time>2026-04-19T10:16:08.999Z</time></trkpt><trkpt lat="44.73315827188398" lon="9.824211471581831"><ele>665.5</ele><time>2026-04-19T10:16:09.999Z</time></trkpt><trkpt lat="44.733101336966314" lon="9.824338040852018"><ele>663.0</ele><time>2026-04-19T10:16:11.999Z</time></trkpt><trkpt lat="44.73306110150199" lon="9.824416205838947"><ele>660.2</ele><time>2026-04-19T10:16:12.999Z</time></trkpt><trkpt lat="44.73301579499475" lon="9.82455507400797"><ele>657.4</ele><time>2026-04-19T10:16:14.999Z</time></trkpt><trkpt lat="44.73302125135622" lon="9.82471840222649"><ele>654.6</ele><time>2026-04-19T10:16:16.999Z</time></trkpt><trkpt lat="44.73302374634842" lon="9.824840353460095"><ele>651.8000000000001</ele><time>2026-04-19T10:16:18.999Z</time></trkpt><trkpt lat="44.73293879986238" lon="9.824858992877315"><ele>649.0</ele><time>2026-04-19T10:16:21.999Z</time></trkpt><trkpt lat="44.73290275445704" lon="9.824780724432763"><ele>649.0</ele><time>2026-04-19T10:16:22.999Z</time></trkpt><trkpt lat="44.732856420327856" lon="9.824671675400484"><ele>649.0</ele><time>2026-04-19T10:16:23.999Z</time></trkpt><trkpt lat="44.73281378739465" lon="9.82452023064237"><ele>649.0</ele><time>2026-04-19T10:16:24.999Z</time></trkpt><trkpt lat="44.73278927876245" lon="9.824349609235414"><ele>649.0</ele><time>2026-04-19T10:16:25.999Z</time></trkpt><trkpt lat="44.7327757920509" lon="9.824201514737828"><ele>649.0</ele><time>2026-04-19T10:16:26.999Z</time></trkpt><trkpt lat="44.73274773830434" lon="9.824081104727954"><ele>648.8333333333334</ele><time>2026-04-19T10:16:27.999Z</time></trkpt><trkpt lat="44.732716201253005" lon="9.823987506163116"><ele>648.6666666666667</ele><time>2026-04-19T10:16:28.999Z</time></trkpt><trkpt lat="44.732613399822114" lon="9.823897838792451"><ele>648.5</ele><time>2026-04-19T10:16:30.999Z</time></trkpt><trkpt lat="44.73254884485116" lon="9.823909783437063"><ele>648.3333333333334</ele><time>2026-04-19T10:16:31.999Z</time></trkpt><trkpt lat="44.732491648324846" lon="9.823958770636297"><ele>648.1666666666666</ele><time>2026-04-19T10:16:32.999Z</time></trkpt><trkpt lat="44.73245040237304" lon="9.824050584926681"><ele>648.0</ele><time>2026-04-19T10:16:33.999Z</time></trkpt><trkpt lat="44.73244190525629" lon="9.82417963676384"><ele>645.8</ele><time>2026-04-19T10:16:34.999Z</time></trkpt><trkpt lat="44.73247634124223" lon="9.824320259294828"><ele>643.5999999999999</ele><time>2026-04-19T10:16:35.999Z</time></trkpt><trkpt lat="44.732519515483126" lon="9.82447436076175"><ele>641.4000000000001</ele><time>2026-04-19T10:16:36.999Z</time></trkpt><trkpt lat="44.732554527145275" lon="9.824618983068799"><ele>639.2</ele><time>2026-04-19T10:16:37.999Z</time></trkpt><trkpt lat="44.73258184404161" lon="9.82472925440203"><ele>637.0</ele><time>2026-04-19T10:16:38.999Z</time></trkpt><trkpt lat="44.7326177602775" lon="9.8248918242912"><ele>637.0</ele><time>2026-04-19T10:16:40.999Z</time></trkpt><trkpt lat="44.73263937805625" lon="9.82497515262072"><ele>637.0</ele><time>2026-04-19T10:16:41.999Z</time></trkpt><trkpt lat="44.73266029008149" lon="9.825075025576332"><ele>637.0</ele><time>2026-04-19T10:16:42.999Z</time></trkpt><trkpt lat="44.732675120147356" lon="9.825169976531045"><ele>637.0</ele><time>2026-04-19T10:16:43.999Z</time></trkpt><trkpt lat="44.73267870222822" lon="9.82526182807995"><ele>637.0</ele><time>2026-04-19T10:16:44.999Z</time></trkpt><trkpt lat="44.732669478270694" lon="9.825375091284474"><ele>637.0</ele><time>2026-04-19T10:16:45.999Z</time></trkpt><trkpt lat="44.73264476741528" lon="9.825491898953414"><ele>637.0</ele><time>2026-04-19T10:16:46.999Z</time></trkpt><trkpt lat="44.7326110677909" lon="9.825608302701703"><ele>635.5</ele><time>2026-04-19T10:16:47.999Z</time></trkpt><trkpt lat="44.73258526333846" lon="9.82572181948974"><ele>634.0</ele><time>2026-04-19T10:16:48.999Z</time></trkpt><trkpt lat="44.73258048713621" lon="9.825817511113481"><ele>632.5</ele><time>2026-04-19T10:16:49.999Z</time></trkpt><trkpt lat="44.73259731525265" lon="9.82591795803146"><ele>631.0</ele><time>2026-04-19T10:16:50.999Z</time></trkpt><trkpt lat="44.732621231969" lon="9.826025869130676"><ele>629.5</ele><time>2026-04-19T10:16:51.999Z</time></trkpt><trkpt lat="44.73266317767072" lon="9.826117658546316"><ele>628.0</ele><time>2026-04-19T10:16:52.999Z</time></trkpt><trkpt lat="44.73269457075901" lon="9.826208378977103"><ele>627.0</ele><time>2026-04-19T10:16:53.999Z</time></trkpt><trkpt lat="44.73272631088463" lon="9.826307108271122"><ele>626.0</ele><time>2026-04-19T10:16:54.999Z</time></trkpt><trkpt lat="44.73271549316381" lon="9.82640096255471"><ele>625.0</ele><time>2026-04-19T10:16:55.999Z</time></trkpt><trkpt lat="44.73266964052402" lon="9.82656116303188"><ele>624.0</ele><time>2026-04-19T10:16:57.999Z</time></trkpt><trkpt lat="44.732622423437604" lon="9.826714043533167"><ele>623.0</ele><time>2026-04-19T10:16:59.999Z</time></trkpt><trkpt lat="44.73258094562645" lon="9.82685993181842"><ele>622.5714285714286</ele><time>2026-04-19T10:17:01.999Z</time></trkpt><trkpt lat="44.73254845908926" lon="9.826943227029268"><ele>622.1428571428571</ele><time>2026-04-19T10:17:03.999Z</time></trkpt><trkpt lat="44.73248393547085" lon="9.826985095002023"><ele>621.7142857142858</ele><time>2026-04-19T10:17:05.999Z</time></trkpt><trkpt lat="44.73238130674455" lon="9.826935514914249"><ele>621.2857142857142</ele><time>2026-04-19T10:17:08Z</time></trkpt><trkpt lat="44.7323330603739" lon="9.82687837119018"><ele>620.8571428571429</ele><time>2026-04-19T10:17:09Z</time></trkpt><trkpt lat="44.73227958092604" lon="9.826831178498132"><ele>620.4285714285714</ele><time>2026-04-19T10:17:10Z</time></trkpt><trkpt lat="44.73222817773886" lon="9.826762733748163"><ele>620.0</ele><time>2026-04-19T10:17:11Z</time></trkpt><trkpt lat="44.73217112653259" lon="9.82670587713728"><ele>620.0</ele><time>2026-04-19T10:17:12Z</time></trkpt><trkpt lat="44.73211088212766" lon="9.826654942487423"><ele>620.0</ele><time>2026-04-19T10:17:13Z</time></trkpt><trkpt lat="44.73203535088774" lon="9.826630671148633"><ele>620.0</ele><time>2026-04-19T10:17:14Z</time></trkpt><trkpt lat="44.73196343626225" lon="9.826599836740973"><ele>620.0</ele><time>2026-04-19T10:17:15Z</time></trkpt><trkpt lat="44.73189237068103" lon="9.826569841012299"><ele>620.0</ele><time>2026-04-19T10:17:16Z</time></trkpt><trkpt lat="44.731829817287185" lon="9.82653978681835"><ele>620.0</ele><time>2026-04-19T10:17:17Z</time></trkpt><trkpt lat="44.731779789619566" lon="9.826463889798793"><ele>620.0</ele><time>2026-04-19T10:17:18Z</time></trkpt><trkpt lat="44.73174514281834" lon="9.826317409711022"><ele>617.8333333333333</ele><time>2026-04-19T10:17:19Z</time></trkpt><trkpt lat="44.73170026766023" lon="9.82620699056992"><ele>615.6666666666666</ele><time>2026-04-19T10:17:20Z</time></trkpt><trkpt lat="44.73159604626143" lon="9.826125917676203"><ele>613.5</ele><time>2026-04-19T10:17:22Z</time></trkpt><trkpt lat="44.731516519991686" lon="9.826161445730886"><ele>611.3333333333334</ele><time>2026-04-19T10:17:23Z</time></trkpt><trkpt lat="44.731442406372615" lon="9.826152709050985"><ele>609.1666666666667</ele><time>2026-04-19T10:17:24Z</time></trkpt><trkpt lat="44.73137534867258" lon="9.826133708976124"><ele>607.0</ele><time>2026-04-19T10:17:25Z</time></trkpt><trkpt lat="44.73129430872753" lon="9.826060217179412"><ele>608.0</ele><time>2026-04-19T10:17:26Z</time></trkpt><trkpt lat="44.73118736271593" lon="9.82596058683012"><ele>609.0</ele><time>2026-04-19T10:17:27Z</time></trkpt><trkpt lat="44.73111933333481" lon="9.82587038886736"><ele>610.0</ele><time>2026-04-19T10:17:27.999Z</time></trkpt><trkpt lat="44.73105631260641" lon="9.825722405164889"><ele>611.0</ele><time>2026-04-19T10:17:29.999Z</time></trkpt><trkpt lat="44.73101888484834" lon="9.825635245802058"><ele>612.0</ele><time>2026-04-19T10:17:30.999Z</time></trkpt><trkpt lat="44.730970554612234" lon="9.825577908038525"><ele>609.3333333333334</ele><time>2026-04-19T10:17:31.999Z</time></trkpt><trkpt lat="44.730866598389426" lon="9.82547065883026"><ele>606.6666666666666</ele><time>2026-04-19T10:17:33.999Z</time></trkpt><trkpt lat="44.730778488301354" lon="9.825431994383356"><ele>604.0</ele><time>2026-04-19T10:17:34.999Z</time></trkpt><trkpt lat="44.730699940383275" lon="9.825390217295723"><ele>601.3333333333333</ele><time>2026-04-19T10:17:35.999Z</time></trkpt><trkpt lat="44.730635199040556" lon="9.825356149071935"><ele>598.6666666666666</ele><time>2026-04-19T10:17:36.999Z</time></trkpt><trkpt lat="44.73056484039472" lon="9.825318888741775"><ele>596.0</ele><time>2026-04-19T10:17:37.999Z</time></trkpt><trkpt lat="44.73049391326829" lon="9.825267928630144"><ele>596.0</ele><time>2026-04-19T10:17:38.999Z</time></trkpt><trkpt lat="44.73042705786925" lon="9.825207697798787"><ele>596.0</ele><time>2026-04-19T10:17:39.999Z</time></trkpt><trkpt lat="44.73037751653067" lon="9.825131788563269"><ele>596.0</ele><time>2026-04-19T10:17:40.999Z</time></trkpt><trkpt lat="44.73034044185412" lon="9.824988064927558"><ele>596.0</ele><time>2026-04-19T10:17:42.999Z</time></trkpt><trkpt lat="44.730277384270984" lon="9.824946541062486"><ele>596.0</ele><time>2026-04-19T10:17:44.999Z</time></trkpt><trkpt lat="44.73020871014057" lon="9.8249501151871"><ele>596.0</ele><time>2026-04-19T10:17:46.999Z</time></trkpt><trkpt lat="44.73012555427871" lon="9.825003124333515"><ele>596.4</ele><time>2026-04-19T10:17:48.999Z</time></trkpt><trkpt lat="44.73004621002896" lon="9.825043661436176"><ele>596.8</ele><time>2026-04-19T10:17:49.999Z</time></trkpt><trkpt lat="44.72997898507515" lon="9.825109776795319"><ele>597.1999999999999</ele><time>2026-04-19T10:17:50.999Z</time></trkpt><trkpt lat="44.729924748217485" lon="9.825166616820868"><ele>597.6</ele><time>2026-04-19T10:17:51.999Z</time></trkpt><trkpt lat="44.72988634200907" lon="9.825315086899305"><ele>598.0</ele><time>2026-04-19T10:17:53.999Z</time></trkpt><trkpt lat="44.72982518939426" lon="9.825459526154676"><ele>598.0</ele><time>2026-04-19T10:17:55.999Z</time></trkpt><trkpt lat="44.72976726638894" lon="9.825525509366296"><ele>598.0</ele><time>2026-04-19T10:17:56.999Z</time></trkpt><trkpt lat="44.729716912832714" lon="9.825591432182346"><ele>598.0</ele><time>2026-04-19T10:17:57.999Z</time></trkpt><trkpt lat="44.72967801208543" lon="9.825678261545535"><ele>598.0</ele><time>2026-04-19T10:17:58.999Z</time></trkpt><trkpt lat="44.72963358334583" lon="9.825768441041987"><ele>598.0</ele><time>2026-04-19T10:17:59.999Z</time></trkpt><trkpt lat="44.729587548558875" lon="9.825841129775956"><ele>598.0</ele><time>2026-04-19T10:18:00.999Z</time></trkpt><trkpt lat="44.72948349878044" lon="9.825943294548944"><ele>597.6</ele><time>2026-04-19T10:18:02.999Z</time></trkpt><trkpt lat="44.729456305336996" lon="9.826037383726003"><ele>597.1999999999999</ele><time>2026-04-19T10:18:04.999Z</time></trkpt><trkpt lat="44.729406804522384" lon="9.826206830345855"><ele>596.8</ele><time>2026-04-19T10:18:06.999Z</time></trkpt><trkpt lat="44.72938534247598" lon="9.826345131415643"><ele>596.4</ele><time>2026-04-19T10:18:08.999Z</time></trkpt><trkpt lat="44.729409382955566" lon="9.826481738691943"><ele>596.0</ele><time>2026-04-19T10:18:09.999Z</time></trkpt><trkpt lat="44.72945441163864" lon="9.826602323833946"><ele>596.0</ele><time>2026-04-19T10:18:10.999Z</time></trkpt><trkpt lat="44.729487225669956" lon="9.826761405742104"><ele>596.0</ele><time>2026-04-19T10:18:12.999Z</time></trkpt><trkpt lat="44.72949635961059" lon="9.826861130234462"><ele>596.0</ele><time>2026-04-19T10:18:13.999Z</time></trkpt><trkpt lat="44.72948686979831" lon="9.826959671773976"><ele>596.0</ele><time>2026-04-19T10:18:14.999Z</time></trkpt><trkpt lat="44.729494673401256" lon="9.827075211206838"><ele>596.0</ele><time>2026-04-19T10:18:15.999Z</time></trkpt><trkpt lat="44.72952975112017" lon="9.827199795598483"><ele>596.0</ele><time>2026-04-19T10:18:17.999Z</time></trkpt><trkpt lat="44.72951439937588" lon="9.827324769167626"><ele>595.4</ele><time>2026-04-19T10:18:19.999Z</time></trkpt><trkpt lat="44.729465793411855" lon="9.827401106505551"><ele>594.8</ele><time>2026-04-19T10:18:21.999Z</time></trkpt><trkpt lat="44.72941790732359" lon="9.827461177160293"><ele>594.1999999999999</ele><time>2026-04-19T10:18:23.999Z</time></trkpt><trkpt lat="44.729360709351496" lon="9.827529228907206"><ele>593.6</ele><time>2026-04-19T10:18:26.999Z</time></trkpt><trkpt lat="44.729272173664555" lon="9.827742878330554"><ele>593.0</ele><time>2026-04-19T10:18:29.999Z</time></trkpt><trkpt lat="44.72921810279077" lon="9.82781740111224"><ele>597.4</ele><time>2026-04-19T10:18:30.999Z</time></trkpt><trkpt lat="44.72915911183678" lon="9.827884821238625"><ele>601.8</ele><time>2026-04-19T10:18:32.999Z</time></trkpt><trkpt lat="44.72909293691342" lon="9.82790150222091"><ele>606.2</ele><time>2026-04-19T10:18:37.999Z</time></trkpt><trkpt lat="44.72905833455844" lon="9.828007492965199"><ele>610.6</ele><time>2026-04-19T10:18:44.999Z</time></trkpt><trkpt lat="44.72907553936222" lon="9.82814134266573"><ele>615.0</ele><time>2026-04-19T10:18:47.999Z</time></trkpt><trkpt lat="44.72907491171932" lon="9.828463291308353"><ele>616.0</ele><time>2026-04-19T10:18:49.999Z</time></trkpt><trkpt lat="44.729066898201786" lon="9.828560248420361"><ele>617.0</ele><time>2026-04-19T10:18:50.999Z</time></trkpt><trkpt lat="44.72908922249141" lon="9.82865235639126"><ele>618.0</ele><time>2026-04-19T10:18:51.999Z</time></trkpt><trkpt lat="44.72909950252681" lon="9.828746588028908"><ele>619.0</ele><time>2026-04-19T10:18:52.999Z</time></trkpt><trkpt lat="44.72909769399335" lon="9.828863012682108"><ele>620.0</ele><time>2026-04-19T10:18:53.999Z</time></trkpt><trkpt lat="44.72909125641512" lon="9.82896902080953"><ele>621.0</ele><time>2026-04-19T10:18:54.999Z</time></trkpt><trkpt lat="44.72907798171444" lon="9.829069080799771"><ele>622.0</ele><time>2026-04-19T10:18:55.999Z</time></trkpt><trkpt lat="44.72904478369332" lon="9.829253098839558"><ele>622.8333333333334</ele><time>2026-04-19T10:18:57.999Z</time></trkpt><trkpt lat="44.72900267834837" lon="9.82938924884935"><ele>623.6666666666667</ele><time>2026-04-19T10:18:58.999Z</time></trkpt><trkpt lat="44.72897417427557" lon="9.829493572320821"><ele>624.5</ele><time>2026-04-19T10:18:59.999Z</time></trkpt><trkpt lat="44.72893329890751" lon="9.82957240425287"><ele>625.3333333333334</ele><time>2026-04-19T10:19:00.999Z</time></trkpt><trkpt lat="44.72886423062008" lon="9.829674025787952"><ele>626.1666666666666</ele><time>2026-04-19T10:19:02.999Z</time></trkpt><trkpt lat="44.72883737742667" lon="9.829783219303723"><ele>627.0</ele><time>2026-04-19T10:19:04.999Z</time></trkpt><trkpt lat="44.72884920942903" lon="9.829950072996498"><ele>627.0</ele><time>2026-04-19T10:19:06.999Z</time></trkpt><trkpt lat="44.72886612319496" lon="9.83005459944195"><ele>627.0</ele><time>2026-04-19T10:19:07.999Z</time></trkpt><trkpt lat="44.72887823645403" lon="9.830172128189144"><ele>627.0</ele><time>2026-04-19T10:19:08.999Z</time></trkpt><trkpt lat="44.72885932132175" lon="9.83026652713351"><ele>627.0</ele><time>2026-04-19T10:19:09.999Z</time></trkpt><trkpt lat="44.72887991110228" lon="9.830368757036434"><ele>627.0</ele><time>2026-04-19T10:19:10.999Z</time></trkpt><trkpt lat="44.72890760916698" lon="9.830495273002379"><ele>627.0</ele><time>2026-04-19T10:19:11.999Z</time></trkpt><trkpt lat="44.72892222554093" lon="9.830590880998678"><ele>627.3333333333334</ele><time>2026-04-19T10:19:13Z</time></trkpt><trkpt lat="44.728911323134376" lon="9.830709557545463"><ele>627.6666666666666</ele><time>2026-04-19T10:19:14Z</time></trkpt><trkpt lat="44.72887062082005" lon="9.830849551345676"><ele>628.0</ele><time>2026-04-19T10:19:15Z</time></trkpt><trkpt lat="44.72886618566756" lon="9.830938177928996"><ele>628.3333333333333</ele><time>2026-04-19T10:19:16Z</time></trkpt><trkpt lat="44.728797820015316" lon="9.830997025318787"><ele>628.6666666666666</ele><time>2026-04-19T10:19:19Z</time></trkpt><trkpt lat="44.72869451288662" lon="9.831056336087025"><ele>629.0</ele><time>2026-04-19T10:19:21Z</time></trkpt><trkpt lat="44.7285875257972" lon="9.831111072754519"><ele>633.0</ele><time>2026-04-19T10:19:22Z</time></trkpt><trkpt lat="44.7285309832308" lon="9.831162191109476"><ele>637.0</ele><time>2026-04-19T10:19:23Z</time></trkpt><trkpt lat="44.728490679269576" lon="9.831294991374124"><ele>641.0</ele><time>2026-04-19T10:19:25Z</time></trkpt><trkpt lat="44.72847089271054" lon="9.831387342715953"><ele>645.0</ele><time>2026-04-19T10:19:26Z</time></trkpt><trkpt lat="44.72839495296297" lon="9.831481481656024"><ele>649.0</ele><time>2026-04-19T10:19:28Z</time></trkpt><trkpt lat="44.72831174435189" lon="9.831568612023185"><ele>653.0</ele><time>2026-04-19T10:19:30Z</time></trkpt><trkpt lat="44.728293168190945" lon="9.831696764579418"><ele>653.0</ele><time>2026-04-19T10:19:32Z</time></trkpt><trkpt lat="44.728293087467115" lon="9.831786937568198"><ele>653.0</ele><time>2026-04-19T10:19:33Z</time></trkpt><trkpt lat="44.72827308688811" lon="9.831888748278853"><ele>653.0</ele><time>2026-04-19T10:19:34Z</time></trkpt><trkpt lat="44.72823345021178" lon="9.831980218723318"><ele>653.0</ele><time>2026-04-19T10:19:35Z</time></trkpt><trkpt lat="44.72818674553693" lon="9.832050034063633"><ele>653.0</ele><time>2026-04-19T10:19:36Z</time></trkpt><trkpt lat="44.72813043185952" lon="9.83215067039958"><ele>653.0</ele><time>2026-04-19T10:19:38Z</time></trkpt><trkpt lat="44.72807947960297" lon="9.832262145807999"><ele>652.5</ele><time>2026-04-19T10:19:40Z</time></trkpt><trkpt lat="44.72804407554489" lon="9.832364168123163"><ele>652.0</ele><time>2026-04-19T10:19:41Z</time></trkpt><trkpt lat="44.72799959733806" lon="9.83249250241079"><ele>651.5</ele><time>2026-04-19T10:19:42Z</time></trkpt><trkpt lat="44.727984150884545" lon="9.832614557523437"><ele>651.0</ele><time>2026-04-19T10:19:43Z</time></trkpt><trkpt lat="44.727973124668424" lon="9.832746077200886"><ele>650.5</ele><time>2026-04-19T10:19:43.999Z</time></trkpt><trkpt lat="44.72794863845772" lon="9.832855705261338"><ele>650.0</ele><time>2026-04-19T10:19:44.999Z</time></trkpt><trkpt lat="44.72792278663696" lon="9.832955758756414"><ele>648.8</ele><time>2026-04-19T10:19:45.999Z</time></trkpt><trkpt lat="44.727876077461524" lon="9.833061676184233"><ele>647.6</ele><time>2026-04-19T10:19:47.999Z</time></trkpt><trkpt lat="44.727804320183886" lon="9.833133347304855"><ele>646.4000000000001</ele><time>2026-04-19T10:20:02.999Z</time></trkpt><trkpt lat="44.72774747233906" lon="9.833235868078274"><ele>645.2</ele><time>2026-04-19T10:20:03.999Z</time></trkpt><trkpt lat="44.7276897579022" lon="9.833368404406968"><ele>644.0</ele><time>2026-04-19T10:20:04.999Z</time></trkpt><trkpt lat="44.72763411168252" lon="9.833492703633144"><ele>647.25</ele><time>2026-04-19T10:20:06.999Z</time></trkpt><trkpt lat="44.727592834149455" lon="9.833571347129299"><ele>650.5</ele><time>2026-04-19T10:20:08.999Z</time></trkpt><trkpt lat="44.72754499751603" lon="9.833693948591614"><ele>653.75</ele><time>2026-04-19T10:20:11.999Z</time></trkpt><trkpt lat="44.72759213779562" lon="9.833773275513463"><ele>657.0</ele><time>2026-04-19T10:20:14.999Z</time></trkpt><trkpt lat="44.72765638544878" lon="9.83409550373002"><ele>657.0</ele><time>2026-04-19T10:20:17.999Z</time></trkpt><trkpt lat="44.72772080837368" lon="9.834214797025327"><ele>657.0</ele><time>2026-04-19T10:20:19.999Z</time></trkpt><trkpt lat="44.72778994458549" lon="9.834328121077094"><ele>657.0</ele><time>2026-04-19T10:20:21.999Z</time></trkpt><trkpt lat="44.727826273268995" lon="9.834452467656623"><ele>657.0</ele><time>2026-04-19T10:20:24.999Z</time></trkpt><trkpt lat="44.72782858345887" lon="9.834614052106016"><ele>657.0</ele><time>2026-04-19T10:20:26.999Z</time></trkpt><trkpt lat="44.72782469092741" lon="9.834759363501547"><ele>657.6666666666666</ele><time>2026-04-19T10:20:27.999Z</time></trkpt><trkpt lat="44.727821501999664" lon="9.834893626223762"><ele>658.3333333333334</ele><time>2026-04-19T10:20:28.999Z</time></trkpt><trkpt lat="44.72781282274555" lon="9.834990820472967"><ele>659.0</ele><time>2026-04-19T10:20:29.999Z</time></trkpt><trkpt lat="44.72779795591415" lon="9.83511795267141"><ele>659.6666666666667</ele><time>2026-04-19T10:20:31.999Z</time></trkpt><trkpt lat="44.72778866229308" lon="9.83521143680485"><ele>660.3333333333334</ele><time>2026-04-19T10:20:32.999Z</time></trkpt><trkpt lat="44.727777159067806" lon="9.835323205162767"><ele>661.0</ele><time>2026-04-19T10:20:33.999Z</time></trkpt><trkpt lat="44.72772646617862" lon="9.835453036181136"><ele>661.0</ele><time>2026-04-19T10:20:34.999Z</time></trkpt><trkpt lat="44.72764852497621" lon="9.835607058109812"><ele>661.0</ele><time>2026-04-19T10:20:36.999Z</time></trkpt><trkpt lat="44.72759067270158" lon="9.835701755135563"><ele>661.0</ele><time>2026-04-19T10:20:37.999Z</time></trkpt><trkpt lat="44.72752324522162" lon="9.83581555515227"><ele>661.0</ele><time>2026-04-19T10:20:38.999Z</time></trkpt><trkpt lat="44.72746862433813" lon="9.835895068045183"><ele>661.0</ele><time>2026-04-19T10:20:39.999Z</time></trkpt><trkpt lat="44.72743869782486" lon="9.835974077069245"><ele>662.0</ele><time>2026-04-19T10:20:40.999Z</time></trkpt><trkpt lat="44.7274433943297" lon="9.836128861572368"><ele>663.0</ele><time>2026-04-19T10:20:42.999Z</time></trkpt><trkpt lat="44.72753352693279" lon="9.836167914391782"><ele>664.0</ele><time>2026-04-19T10:20:45.999Z</time></trkpt><trkpt lat="44.72762905879997" lon="9.836181131447068"><ele>665.0</ele><time>2026-04-19T10:20:46.999Z</time></trkpt><trkpt lat="44.727684065114495" lon="9.836238273397015"><ele>666.0</ele><time>2026-04-19T10:20:47.999Z</time></trkpt><trkpt lat="44.727713904603256" lon="9.836350033991296"><ele>666.0</ele><time>2026-04-19T10:20:48.999Z</time></trkpt><trkpt lat="44.727729325073106" lon="9.836496182931276"><ele>666.0</ele><time>2026-04-19T10:20:49.999Z</time></trkpt><trkpt lat="44.7277228286425" lon="9.836650570838946"><ele>666.0</ele><time>2026-04-19T10:20:50.999Z</time></trkpt><trkpt lat="44.727711706328044" lon="9.836793219454984"><ele>666.0</ele><time>2026-04-19T10:20:51.999Z</time></trkpt><trkpt lat="44.72770804323348" lon="9.836905006772751"><ele>666.0</ele><time>2026-04-19T10:20:52.999Z</time></trkpt><trkpt lat="44.72771400302803" lon="9.837008700356249"><ele>664.1428571428572</ele><time>2026-04-19T10:20:53.999Z</time></trkpt><trkpt lat="44.72773768164421" lon="9.837104674022113"><ele>662.2857142857142</ele><time>2026-04-19T10:20:54.999Z</time></trkpt><trkpt lat="44.72778072506591" lon="9.837193142686193"><ele>660.4285714285714</ele><time>2026-04-19T10:20:55.999Z</time></trkpt><trkpt lat="44.727823888668325" lon="9.837277918858156"><ele>658.5714285714287</ele><time>2026-04-19T10:20:56.999Z</time></trkpt><trkpt lat="44.72786665925782" lon="9.837358937428826"><ele>656.7142857142858</ele><time>2026-04-19T10:20:57.999Z</time></trkpt><trkpt lat="44.727907629814574" lon="9.837435414122771"><ele>654.8571428571429</ele><time>2026-04-19T10:20:58.999Z</time></trkpt><trkpt lat="44.72794802226414" lon="9.837507520420187"><ele>653.0</ele><time>2026-04-19T10:20:59.999Z</time></trkpt><trkpt lat="44.7280054127739" lon="9.837659361251257"><ele>653.0</ele><time>2026-04-19T10:21:01.999Z</time></trkpt><trkpt lat="44.72804000097463" lon="9.83775200152256"><ele>653.0</ele><time>2026-04-19T10:21:02.999Z</time></trkpt><trkpt lat="44.72809254338877" lon="9.837869657582319"><ele>653.0</ele><time>2026-04-19T10:21:03.999Z</time></trkpt><trkpt lat="44.72814512171261" lon="9.838007108838951"><ele>653.0</ele><time>2026-04-19T10:21:04.999Z</time></trkpt><trkpt lat="44.72820393980696" lon="9.838159496719628"><ele>653.0</ele><time>2026-04-19T10:21:05.999Z</time></trkpt><trkpt lat="44.728276895703424" lon="9.838304432954228"><ele>653.0</ele><time>2026-04-19T10:21:06.999Z</time></trkpt><trkpt lat="44.72835486367942" lon="9.838423754053919"><ele>653.0</ele><time>2026-04-19T10:21:07.999Z</time></trkpt><trkpt lat="44.72841472564958" lon="9.838524866877036"><ele>653.0</ele><time>2026-04-19T10:21:08.999Z</time></trkpt><trkpt lat="44.728471290126116" lon="9.838620894038076"><ele>653.0</ele><time>2026-04-19T10:21:09.999Z</time></trkpt><trkpt lat="44.728531081444835" lon="9.83871550912834"><ele>653.0</ele><time>2026-04-19T10:21:10.999Z</time></trkpt><trkpt lat="44.72860687673544" lon="9.838779160324659"><ele>650.4</ele><time>2026-04-19T10:21:11.999Z</time></trkpt><trkpt lat="44.72867780915074" lon="9.838837087210685"><ele>647.8</ele><time>2026-04-19T10:21:12.999Z</time></trkpt><trkpt lat="44.728755162536714" lon="9.838888659740244"><ele>645.2</ele><time>2026-04-19T10:21:13.999Z</time></trkpt><trkpt lat="44.728845725661465" lon="9.838952512370982"><ele>642.6</ele><time>2026-04-19T10:21:14.999Z</time></trkpt><trkpt lat="44.72893718106359" lon="9.839032984060179"><ele>640.0</ele><time>2026-04-19T10:21:15.999Z</time></trkpt><trkpt lat="44.72901117025424" lon="9.839107870257267"><ele>640.0</ele><time>2026-04-19T10:21:16.999Z</time></trkpt><trkpt lat="44.729066890737776" lon="9.83919510395551"><ele>640.0</ele><time>2026-04-19T10:21:17.999Z</time></trkpt><trkpt lat="44.729092125829816" lon="9.839302462044499"><ele>640.0</ele><time>2026-04-19T10:21:19Z</time></trkpt><trkpt lat="44.72914146225903" lon="9.839371184546161"><ele>640.0</ele><time>2026-04-19T10:21:20Z</time></trkpt><trkpt lat="44.729186126520624" lon="9.839468710693868"><ele>640.0</ele><time>2026-04-19T10:21:22Z</time></trkpt><trkpt lat="44.72915574469396" lon="9.8395779000312"><ele>640.0</ele><time>2026-04-19T10:21:24Z</time></trkpt><trkpt lat="44.72910231320926" lon="9.83970196955255"><ele>639.0</ele><time>2026-04-19T10:21:26Z</time></trkpt><trkpt lat="44.72914334455607" lon="9.839774503888469"><ele>638.0</ele><time>2026-04-19T10:21:29Z</time></trkpt><trkpt lat="44.729300644385596" lon="9.839868557461173"><ele>637.0</ele><time>2026-04-19T10:21:31Z</time></trkpt><trkpt lat="44.72936856315641" lon="9.839946740044189"><ele>636.0</ele><time>2026-04-19T10:21:32Z</time></trkpt><trkpt lat="44.72941537815177" lon="9.840009059624737"><ele>635.0</ele><time>2026-04-19T10:21:33Z</time></trkpt><trkpt lat="44.72948012085799" lon="9.840161885872076"><ele>637.4</ele><time>2026-04-19T10:21:35Z</time></trkpt><trkpt lat="44.72953326329052" lon="9.840272268077612"><ele>639.8</ele><time>2026-04-19T10:21:36Z</time></trkpt><trkpt lat="44.72958939485946" lon="9.840382641926132"><ele>642.2</ele><time>2026-04-19T10:21:37Z</time></trkpt><trkpt lat="44.72965555495656" lon="9.84050653158193"><ele>644.6</ele><time>2026-04-19T10:21:38Z</time></trkpt><trkpt lat="44.72973414437767" lon="9.84061675656897"><ele>647.0</ele><time>2026-04-19T10:21:39Z</time></trkpt><trkpt lat="44.7297937730704" lon="9.840737801961122"><ele>647.0</ele><time>2026-04-19T10:21:41Z</time></trkpt><trkpt lat="44.729831958954065" lon="9.840878629993183"><ele>647.0</ele><time>2026-04-19T10:21:43Z</time></trkpt><trkpt lat="44.729825152570925" lon="9.840966885720608"><ele>647.0</ele><time>2026-04-19T10:21:44Z</time></trkpt><trkpt lat="44.72981306929607" lon="9.841059304047723"><ele>647.0</ele><time>2026-04-19T10:21:45Z</time></trkpt><trkpt lat="44.729812497340454" lon="9.841149482289143"><ele>647.0</ele><time>2026-04-19T10:21:46Z</time></trkpt><trkpt lat="44.72981537390572" lon="9.841247960496345"><ele>647.0</ele><time>2026-04-19T10:21:47Z</time></trkpt><trkpt lat="44.72980267524898" lon="9.84136373731324"><ele>648.3333333333333</ele><time>2026-04-19T10:21:48Z</time></trkpt><trkpt lat="44.72979076065127" lon="9.84147356551335"><ele>649.6666666666666</ele><time>2026-04-19T10:21:49Z</time></trkpt><trkpt lat="44.72972665916592" lon="9.841513901456933"><ele>651.0</ele><time>2026-04-19T10:21:50.999Z</time></trkpt><trkpt lat="44.7296508135149" lon="9.841471801157818"><ele>652.3333333333334</ele><time>2026-04-19T10:21:52.999Z</time></trkpt><trkpt lat="44.72954062490312" lon="9.841407464932958"><ele>653.6666666666667</ele><time>2026-04-19T10:21:54.999Z</time></trkpt><trkpt lat="44.729452456551236" lon="9.841408736763668"><ele>655.0</ele><time>2026-04-19T10:21:57.999Z</time></trkpt><trkpt lat="44.729384766298345" lon="9.841411926925929"><ele>659.2</ele><time>2026-04-19T10:21:59.999Z</time></trkpt><trkpt lat="44.72929166898251" lon="9.841418901761884"><ele>663.4</ele><time>2026-04-19T10:22:01.999Z</time></trkpt><trkpt lat="44.7292294754455" lon="9.841487749498585"><ele>667.5999999999999</ele><time>2026-04-19T10:22:04.999Z</time></trkpt><trkpt lat="44.72917745621565" lon="9.841550494919076"><ele>671.8</ele><time>2026-04-19T10:22:06.999Z</time></trkpt><trkpt lat="44.72901430055343" lon="9.841697157714353"><ele>676.0</ele><time>2026-04-19T10:22:08.999Z</time></trkpt><trkpt lat="44.728935084650026" lon="9.841830872648021"><ele>677.0</ele><time>2026-04-19T10:22:10.999Z</time></trkpt><trkpt lat="44.72884806632749" lon="9.841930450612098"><ele>678.0</ele><time>2026-04-19T10:22:12.999Z</time></trkpt><trkpt lat="44.72878610192935" lon="9.842020883963551"><ele>679.0</ele><time>2026-04-19T10:22:14.999Z</time></trkpt><trkpt lat="44.72872262813446" lon="9.842112591395702"><ele>680.0</ele><time>2026-04-19T10:22:16.999Z</time></trkpt><trkpt lat="44.72865962247461" lon="9.842211804179414"><ele>681.0</ele><time>2026-04-19T10:22:21.999Z</time></trkpt><trkpt lat="44.72859066046144" lon="9.842313865221556"><ele>683.5999999999999</ele><time>2026-04-19T10:22:23.999Z</time></trkpt><trkpt lat="44.72852616926024" lon="9.842402696036162"><ele>686.2</ele><time>2026-04-19T10:22:25.999Z</time></trkpt><trkpt lat="44.72845134963765" lon="9.842479575304806"><ele>688.8</ele><time>2026-04-19T10:22:27.999Z</time></trkpt><trkpt lat="44.72835554122701" lon="9.842522810402299"><ele>691.4000000000001</ele><time>2026-04-19T10:22:29.999Z</time></trkpt><trkpt lat="44.72831640694772" lon="9.842597198104553"><ele>694.0</ele><time>2026-04-19T10:22:30.999Z</time></trkpt><trkpt lat="44.72825298689994" lon="9.842726797744536"><ele>695.6</ele><time>2026-04-19T10:22:32.999Z</time></trkpt><trkpt lat="44.728201989239274" lon="9.8428487666789"><ele>697.2</ele><time>2026-04-19T10:22:34.999Z</time></trkpt><trkpt lat="44.72814970538162" lon="9.84298052345999"><ele>698.8000000000001</ele><time>2026-04-19T10:22:36.999Z</time></trkpt><trkpt lat="44.728072359125655" lon="9.84303906691545"><ele>700.4000000000001</ele><time>2026-04-19T10:22:38.999Z</time></trkpt><trkpt lat="44.72801989172101" lon="9.843100468186902"><ele>702.0</ele><time>2026-04-19T10:22:40.999Z</time></trkpt><trkpt lat="44.72797191248714" lon="9.843248852443704"><ele>702.0</ele><time>2026-04-19T10:22:42.999Z</time></trkpt><trkpt lat="44.727938141061166" lon="9.843333928505679"><ele>702.0</ele><time>2026-04-19T10:22:43.999Z</time></trkpt><trkpt lat="44.727901766787184" lon="9.84342185307542"><ele>702.0</ele><time>2026-04-19T10:22:44.999Z</time></trkpt><trkpt lat="44.72786576268386" lon="9.843521887969557"><ele>702.0</ele><time>2026-04-19T10:22:45.999Z</time></trkpt><trkpt lat="44.72783382733639" lon="9.843644702289296"><ele>702.0</ele><time>2026-04-19T10:22:46.999Z</time></trkpt><trkpt lat="44.72781063889792" lon="9.84375035664657"><ele>702.0</ele><time>2026-04-19T10:22:47.999Z</time></trkpt><trkpt lat="44.72778181657333" lon="9.843836346337437"><ele>705.0</ele><time>2026-04-19T10:22:48.999Z</time></trkpt><trkpt lat="44.72770791441638" lon="9.8438922854706"><ele>708.0</ele><time>2026-04-19T10:22:51.999Z</time></trkpt><trkpt lat="44.72759492426901" lon="9.843893174702712"><ele>711.0</ele><time>2026-04-19T10:22:53.999Z</time></trkpt><trkpt lat="44.727488832990154" lon="9.843918857010225"><ele>714.0</ele><time>2026-04-19T10:22:57.999Z</time></trkpt><trkpt lat="44.72733136871343" lon="9.843993594231774"><ele>714.0</ele><time>2026-04-19T10:22:59.999Z</time></trkpt><trkpt lat="44.72722264380375" lon="9.84401812170198"><ele>714.0</ele><time>2026-04-19T10:23:01.999Z</time></trkpt><trkpt lat="44.7271158967489" lon="9.844053448704615"><ele>714.0</ele><time>2026-04-19T10:23:03.999Z</time></trkpt><trkpt lat="44.72701612765524" lon="9.84408794721358"><ele>714.0</ele><time>2026-04-19T10:23:05.999Z</time></trkpt><trkpt lat="44.726941649394185" lon="9.84407936293263"><ele>714.0</ele><time>2026-04-19T10:23:07.999Z</time></trkpt><trkpt lat="44.72683149689143" lon="9.84416689740442"><ele>716.1666666666666</ele><time>2026-04-19T10:23:15.999Z</time></trkpt><trkpt lat="44.726757584263986" lon="9.844202591073833"><ele>718.3333333333334</ele><time>2026-04-19T10:23:16.999Z</time></trkpt><trkpt lat="44.726696363851886" lon="9.844234269373885"><ele>720.5</ele><time>2026-04-19T10:23:17.999Z</time></trkpt><trkpt lat="44.72659927354851" lon="9.844249406763643"><ele>722.6666666666667</ele><time>2026-04-19T10:23:19.999Z</time></trkpt><trkpt lat="44.726508544681145" lon="9.844259461416323"><ele>724.8333333333334</ele><time>2026-04-19T10:23:20.999Z</time></trkpt><trkpt lat="44.72640456339965" lon="9.844276539680479"><ele>727.0</ele><time>2026-04-19T10:23:21.999Z</time></trkpt><trkpt lat="44.72632185889072" lon="9.84427960307515"><ele>726.6</ele><time>2026-04-19T10:23:22.999Z</time></trkpt><trkpt lat="44.72627817919443" lon="9.844377750113805"><ele>726.2</ele><time>2026-04-19T10:23:35Z</time></trkpt><trkpt lat="44.72626199216538" lon="9.844511841978616"><ele>725.8</ele><time>2026-04-19T10:23:36Z</time></trkpt><trkpt lat="44.72625409903721" lon="9.844636141008095"><ele>725.4</ele><time>2026-04-19T10:23:37Z</time></trkpt><trkpt lat="44.72620345910058" lon="9.844774973959485"><ele>725.0</ele><time>2026-04-19T10:23:39Z</time></trkpt><trkpt lat="44.72618668714096" lon="9.844957648902422"><ele>725.0</ele><time>2026-04-19T10:23:41Z</time></trkpt><trkpt lat="44.7261716262227" lon="9.845098484868611"><ele>725.0</ele><time>2026-04-19T10:23:43Z</time></trkpt><trkpt lat="44.726170748708455" lon="9.845251738162725"><ele>725.0</ele><time>2026-04-19T10:23:45Z</time></trkpt><trkpt lat="44.72618088402174" lon="9.845425662804285"><ele>725.0</ele><time>2026-04-19T10:23:47Z</time></trkpt><trkpt lat="44.72618397838663" lon="9.8455629888041"><ele>725.0</ele><time>2026-04-19T10:23:48Z</time></trkpt><trkpt lat="44.72618327284789" lon="9.84569610487785"><ele>724.2</ele><time>2026-04-19T10:23:49Z</time></trkpt><trkpt lat="44.72618605387229" lon="9.845814544140973"><ele>723.4</ele><time>2026-04-19T10:23:50Z</time></trkpt><trkpt lat="44.726195058356666" lon="9.84592986297414"><ele>722.5999999999999</ele><time>2026-04-19T10:23:51Z</time></trkpt><trkpt lat="44.72619369877274" lon="9.846042852977073"><ele>721.8</ele><time>2026-04-19T10:23:53Z</time></trkpt><trkpt lat="44.72612893555097" lon="9.846112246168577"><ele>721.0</ele><time>2026-04-19T10:23:55.999Z</time></trkpt><trkpt lat="44.72608924631965" lon="9.84628245818389"><ele>720.25</ele><time>2026-04-19T10:23:56.999Z</time></trkpt><trkpt lat="44.72608693300948" lon="9.846458185026854"><ele>719.5</ele><time>2026-04-19T10:23:57.999Z</time></trkpt><trkpt lat="44.72607053916266" lon="9.846686202146483"><ele>718.75</ele><time>2026-04-19T10:23:58.999Z</time></trkpt><trkpt lat="44.72602139235334" lon="9.846893056745618"><ele>718.0</ele><time>2026-04-19T10:23:59.999Z</time></trkpt><trkpt lat="44.725967489105955" lon="9.847031809767048"><ele>719.1666666666667</ele><time>2026-04-19T10:24:00.999Z</time></trkpt><trkpt lat="44.72593089861231" lon="9.847167923891401"><ele>720.3333333333334</ele><time>2026-04-19T10:24:01.999Z</time></trkpt><trkpt lat="44.72590897455849" lon="9.847269674583295"><ele>721.5</ele><time>2026-04-19T10:24:02.999Z</time></trkpt><trkpt lat="44.725883788542326" lon="9.84736190487095"><ele>722.6666666666666</ele><time>2026-04-19T10:24:03.999Z</time></trkpt><trkpt lat="44.72585695510493" lon="9.847486353814295"><ele>723.8333333333333</ele><time>2026-04-19T10:24:04.999Z</time></trkpt><trkpt lat="44.72582285966584" lon="9.847606679438137"><ele>725.0</ele><time>2026-04-19T10:24:05.999Z</time></trkpt><trkpt lat="44.72579494883089" lon="9.847738089850326"><ele>725.8333333333333</ele><time>2026-04-19T10:24:06.999Z</time></trkpt><trkpt lat="44.725762153979716" lon="9.84786576205396"><ele>726.6666666666666</ele><time>2026-04-19T10:24:07.999Z</time></trkpt><trkpt lat="44.72572744942472" lon="9.848003374751997"><ele>727.5</ele><time>2026-04-19T10:24:08.999Z</time></trkpt><trkpt lat="44.72569140573893" lon="9.84812268958148"><ele>728.3333333333334</ele><time>2026-04-19T10:24:09.999Z</time></trkpt><trkpt lat="44.72566263600306" lon="9.84821404460047"><ele>729.1666666666667</ele><time>2026-04-19T10:24:10.999Z</time></trkpt><trkpt lat="44.72564317673325" lon="9.84830763110607"><ele>730.0</ele><time>2026-04-19T10:24:11.999Z</time></trkpt><trkpt lat="44.72562557969331" lon="9.84842580568921"><ele>730.6</ele><time>2026-04-19T10:24:12.999Z</time></trkpt><trkpt lat="44.725609305252156" lon="9.848583448989286"><ele>731.2</ele><time>2026-04-19T10:24:13.999Z</time></trkpt><trkpt lat="44.72560080338162" lon="9.848745499158788"><ele>731.8</ele><time>2026-04-19T10:24:14.999Z</time></trkpt><trkpt lat="44.72557040153149" lon="9.848872576296039"><ele>732.4</ele><time>2026-04-19T10:24:15.999Z</time></trkpt><trkpt lat="44.72555690496697" lon="9.848984601563448"><ele>733.0</ele><time>2026-04-19T10:24:16.999Z</time></trkpt><trkpt lat="44.72554321973975" lon="9.8490869461382"><ele>733.0</ele><time>2026-04-19T10:24:17.999Z</time></trkpt><trkpt lat="44.7255546223757" lon="9.84924249932447"><ele>733.0</ele><time>2026-04-19T10:24:19.999Z</time></trkpt><trkpt lat="44.72560359491946" lon="9.849389134831892"><ele>733.0</ele><time>2026-04-19T10:24:21.999Z</time></trkpt><trkpt lat="44.72563975468253" lon="9.849480927507367"><ele>733.0</ele><time>2026-04-19T10:24:22.999Z</time></trkpt><trkpt lat="44.72566532990255" lon="9.849604997173104"><ele>733.0</ele><time>2026-04-19T10:24:23.999Z</time></trkpt><trkpt lat="44.72567606253305" lon="9.849728898539068"><ele>734.0</ele><time>2026-04-19T10:24:24.999Z</time></trkpt><trkpt lat="44.72568059034662" lon="9.84982183788385"><ele>735.0</ele><time>2026-04-19T10:24:25.999Z</time></trkpt><trkpt lat="44.725703951778186" lon="9.84998540066413"><ele>736.0</ele><time>2026-04-19T10:24:27.999Z</time></trkpt><trkpt lat="44.72571613066747" lon="9.85008112492018"><ele>737.0</ele><time>2026-04-19T10:24:28.999Z</time></trkpt><trkpt lat="44.72574181611261" lon="9.850244780034757"><ele>738.0</ele><time>2026-04-19T10:24:30.999Z</time></trkpt><trkpt lat="44.725777329159826" lon="9.850385194679335"><ele>739.3333333333334</ele><time>2026-04-19T10:24:32.999Z</time></trkpt><trkpt lat="44.725805259749116" lon="9.850469991668477"><ele>740.6666666666666</ele><time>2026-04-19T10:24:33.999Z</time></trkpt><trkpt lat="44.72583656296917" lon="9.850553895706286"><ele>742.0</ele><time>2026-04-19T10:24:34.999Z</time></trkpt><trkpt lat="44.72589239242627" lon="9.850696353030408"><ele>743.3333333333333</ele><time>2026-04-19T10:24:36.999Z</time></trkpt><trkpt lat="44.72593504515318" lon="9.850777889801739"><ele>744.6666666666666</ele><time>2026-04-19T10:24:37.999Z</time></trkpt><trkpt lat="44.72597490236298" lon="9.850877587361639"><ele>746.0</ele><time>2026-04-19T10:24:38.999Z</time></trkpt><trkpt lat="44.726004997814904" lon="9.850956233650724"><ele>746.5</ele><time>2026-04-19T10:24:39.999Z</time></trkpt><trkpt lat="44.72603450432391" lon="9.851035625921867"><ele>747.0</ele><time>2026-04-19T10:24:40.999Z</time></trkpt><trkpt lat="44.7260692667305" lon="9.851128898885662"><ele>747.5</ele><time>2026-04-19T10:24:41.999Z</time></trkpt><trkpt lat="44.72610862847412" lon="9.851225454771985"><ele>748.0</ele><time>2026-04-19T10:24:42.999Z</time></trkpt><trkpt lat="44.72616308004101" lon="9.851330792476851"><ele>748.5</ele><time>2026-04-19T10:24:43.999Z</time></trkpt><trkpt lat="44.72622135367548" lon="9.851428157938098"><ele>749.0</ele><time>2026-04-19T10:24:44.999Z</time></trkpt><trkpt lat="44.72627670614814" lon="9.851502957059468"><ele>749.0</ele><time>2026-04-19T10:24:45.999Z</time></trkpt><trkpt lat="44.72634038597822" lon="9.851570211565633"><ele>749.0</ele><time>2026-04-19T10:24:46.999Z</time></trkpt><trkpt lat="44.726401246176806" lon="9.851636714034607"><ele>749.0</ele><time>2026-04-19T10:24:47.999Z</time></trkpt><trkpt lat="44.726452477960684" lon="9.851701444875093"><ele>749.0</ele><time>2026-04-19T10:24:48.999Z</time></trkpt><trkpt lat="44.72650103050926" lon="9.851775822047278"><ele>749.0</ele><time>2026-04-19T10:24:49.999Z</time></trkpt><trkpt lat="44.726535560803" lon="9.85189072477944"><ele>749.0</ele><time>2026-04-19T10:24:50.999Z</time></trkpt><trkpt lat="44.7265694329926" lon="9.852024166000247"><ele>750.0</ele><time>2026-04-19T10:24:51.999Z</time></trkpt><trkpt lat="44.72661058334806" lon="9.852133282935789"><ele>751.0</ele><time>2026-04-19T10:24:52.999Z</time></trkpt><trkpt lat="44.7266458718469" lon="9.85223610209893"><ele>752.0</ele><time>2026-04-19T10:24:53.999Z</time></trkpt><trkpt lat="44.726672596574716" lon="9.852330426875568"><ele>753.0</ele><time>2026-04-19T10:24:54.999Z</time></trkpt><trkpt lat="44.7267002174187" lon="9.852421144566485"><ele>754.0</ele><time>2026-04-19T10:24:55.999Z</time></trkpt><trkpt lat="44.72673083723947" lon="9.852527634897998"><ele>755.0</ele><time>2026-04-19T10:24:56.999Z</time></trkpt><trkpt lat="44.72675853512859" lon="9.852646235879126"><ele>755.5</ele><time>2026-04-19T10:24:57.999Z</time></trkpt><trkpt lat="44.72678494556079" lon="9.852763862374967"><ele>756.0</ele><time>2026-04-19T10:24:58.999Z</time></trkpt><trkpt lat="44.72680124837809" lon="9.852889137186141"><ele>756.5</ele><time>2026-04-19T10:24:59.999Z</time></trkpt><trkpt lat="44.72681043401005" lon="9.852988710366985"><ele>757.0</ele><time>2026-04-19T10:25:00.999Z</time></trkpt><trkpt lat="44.726803698647714" lon="9.853078215370154"><ele>757.5</ele><time>2026-04-19T10:25:01.999Z</time></trkpt><trkpt lat="44.72678984167241" lon="9.853172979994815"><ele>758.0</ele><time>2026-04-19T10:25:02.999Z</time></trkpt><trkpt lat="44.72677495180814" lon="9.85328397572269"><ele>758.0</ele><time>2026-04-19T10:25:03.999Z</time></trkpt><trkpt lat="44.72676206576517" lon="9.853411047792598"><ele>758.0</ele><time>2026-04-19T10:25:04.999Z</time></trkpt><trkpt lat="44.72677964154455" lon="9.853510518169722"><ele>758.0</ele><time>2026-04-19T10:25:05.999Z</time></trkpt><trkpt lat="44.72680852739879" lon="9.853596411461126"><ele>758.0</ele><time>2026-04-19T10:25:06.999Z</time></trkpt><trkpt lat="44.72680503137376" lon="9.853705472947066"><ele>758.0</ele><time>2026-04-19T10:25:07.999Z</time></trkpt><trkpt lat="44.72678110063924" lon="9.853814679138457"><ele>758.0</ele><time>2026-04-19T10:25:09.999Z</time></trkpt><trkpt lat="44.726828238195196" lon="9.85387645309572"><ele>757.6666666666666</ele><time>2026-04-19T10:25:10.999Z</time></trkpt><trkpt lat="44.72688399500091" lon="9.853947720940287"><ele>757.3333333333333</ele><time>2026-04-19T10:25:11.999Z</time></trkpt><trkpt lat="44.72694565070492" lon="9.854076731924392"><ele>757.0</ele><time>2026-04-19T10:25:13.999Z</time></trkpt><trkpt lat="44.726982933116595" lon="9.854159938948579"><ele>756.6666666666666</ele><time>2026-04-19T10:25:14.999Z</time></trkpt><trkpt lat="44.72705047745701" lon="9.854216720067665"><ele>756.3333333333334</ele><time>2026-04-19T10:25:16.999Z</time></trkpt><trkpt lat="44.72709361868524" lon="9.854306897193755"><ele>756.0</ele><time>2026-04-19T10:25:37Z</time></trkpt><trkpt lat="44.727140164068814" lon="9.85437969403501"><ele>756.0</ele><time>2026-04-19T10:25:38Z</time></trkpt><trkpt lat="44.72722091183347" lon="9.854480000901964"><ele>756.0</ele><time>2026-04-19T10:25:39Z</time></trkpt><trkpt lat="44.727293892646976" lon="9.854581372089195"><ele>756.0</ele><time>2026-04-19T10:25:40Z</time></trkpt><trkpt lat="44.727352698048826" lon="9.854627318876233"><ele>756.0</ele><time>2026-04-19T10:25:41Z</time></trkpt><trkpt lat="44.727427012591704" lon="9.854637922367075"><ele>756.0</ele><time>2026-04-19T10:25:42Z</time></trkpt><trkpt lat="44.727491394942774" lon="9.85463451244148"><ele>756.0</ele><time>2026-04-19T10:25:43Z</time></trkpt><trkpt lat="44.727565492751246" lon="9.854655562611145"><ele>756.0</ele><time>2026-04-19T10:25:44Z</time></trkpt><trkpt lat="44.727672953624555" lon="9.854694293830262"><ele>756.0</ele><time>2026-04-19T10:25:45Z</time></trkpt><trkpt lat="44.727787329150935" lon="9.854728860528258"><ele>756.0</ele><time>2026-04-19T10:25:46Z</time></trkpt><trkpt lat="44.727873908431796" lon="9.854742756332026"><ele>756.0</ele><time>2026-04-19T10:25:47Z</time></trkpt><trkpt lat="44.72795787904875" lon="9.854773592512082"><ele>756.0</ele><time>2026-04-19T10:25:48Z</time></trkpt><trkpt lat="44.72805167038717" lon="9.854795155963663"><ele>756.5</ele><time>2026-04-19T10:25:49Z</time></trkpt><trkpt lat="44.72814363965597" lon="9.854805112833144"><ele>757.0</ele><time>2026-04-19T10:25:50Z</time></trkpt><trkpt lat="44.7282276098799" lon="9.854804883527732"><ele>757.5</ele><time>2026-04-19T10:25:51Z</time></trkpt><trkpt lat="44.72831521721684" lon="9.854789597978671"><ele>758.0</ele><time>2026-04-19T10:25:52Z</time></trkpt><trkpt lat="44.72839979518596" lon="9.854767917817554"><ele>758.5</ele><time>2026-04-19T10:25:53Z</time></trkpt><trkpt lat="44.72848877999718" lon="9.854747644975737"><ele>759.0</ele><time>2026-04-19T10:25:54Z</time></trkpt><trkpt lat="44.728584521218856" lon="9.854751724581336"><ele>759.6666666666666</ele><time>2026-04-19T10:25:55Z</time></trkpt><trkpt lat="44.728667444264886" lon="9.854762526313843"><ele>760.3333333333334</ele><time>2026-04-19T10:25:55.999Z</time></trkpt><trkpt lat="44.72873831561913" lon="9.854760900955446"><ele>761.0</ele><time>2026-04-19T10:25:56.999Z</time></trkpt><trkpt lat="44.72884667743466" lon="9.854715118285908"><ele>761.6666666666667</ele><time>2026-04-19T10:25:58.999Z</time></trkpt><trkpt lat="44.72893342756617" lon="9.854687021260522"><ele>762.3333333333334</ele><time>2026-04-19T10:26:00.999Z</time></trkpt><trkpt lat="44.7289917090823" lon="9.854721825288095"><ele>763.0</ele><time>2026-04-19T10:26:01.999Z</time></trkpt><trkpt lat="44.7290653215431" lon="9.85476322104256"><ele>763.0</ele><time>2026-04-19T10:26:02.999Z</time></trkpt><trkpt lat="44.729139768090526" lon="9.854762871032236"><ele>763.0</ele><time>2026-04-19T10:26:03.999Z</time></trkpt><trkpt lat="44.72923010111327" lon="9.854755055086523"><ele>763.0</ele><time>2026-04-19T10:26:04.999Z</time></trkpt><trkpt lat="44.729305626169364" lon="9.854749659287021"><ele>763.0</ele><time>2026-04-19T10:26:05.999Z</time></trkpt><trkpt lat="44.72939669885893" lon="9.85473449223356"><ele>763.0</ele><time>2026-04-19T10:26:07.999Z</time></trkpt><trkpt lat="44.729484667341154" lon="9.85477170441834"><ele>763.0</ele><time>2026-04-19T10:26:09.999Z</time></trkpt><trkpt lat="44.729579259000104" lon="9.85487381159959"><ele>762.1428571428571</ele><time>2026-04-19T10:26:11.999Z</time></trkpt><trkpt lat="44.72963160214408" lon="9.854925021834312"><ele>761.2857142857142</ele><time>2026-04-19T10:26:12.999Z</time></trkpt><trkpt lat="44.72968588138756" lon="9.854972757898814"><ele>760.4285714285714</ele><time>2026-04-19T10:26:13.999Z</time></trkpt><trkpt lat="44.729740226393915" lon="9.855024149694659"><ele>759.5714285714286</ele><time>2026-04-19T10:26:14.999Z</time></trkpt><trkpt lat="44.729794618542414" lon="9.85509466276289"><ele>758.7142857142857</ele><time>2026-04-19T10:26:15.999Z</time></trkpt><trkpt lat="44.729836164337215" lon="9.855179371696432"><ele>757.8571428571429</ele><time>2026-04-19T10:26:16.999Z</time></trkpt><trkpt lat="44.729893660436154" lon="9.855237139885743"><ele>757.0</ele><time>2026-04-19T10:26:17.999Z</time></trkpt><trkpt lat="44.72998330481156" lon="9.855348059429005"><ele>755.2</ele><time>2026-04-19T10:26:19.999Z</time></trkpt><trkpt lat="44.730019756951194" lon="9.855425062645098"><ele>753.4000000000001</ele><time>2026-04-19T10:26:20.999Z</time></trkpt><trkpt lat="44.730131753805686" lon="9.855556005269978"><ele>751.5999999999999</ele><time>2026-04-19T10:26:22.999Z</time></trkpt><trkpt lat="44.73019758684678" lon="9.855601925261718"><ele>749.8</ele><time>2026-04-19T10:26:23.999Z</time></trkpt><trkpt lat="44.73024473224706" lon="9.855690230771417"><ele>748.0</ele><time>2026-04-19T10:26:24.999Z</time></trkpt><trkpt lat="44.73030259202546" lon="9.855801016136875"><ele>746.6666666666667</ele><time>2026-04-19T10:26:25.999Z</time></trkpt><trkpt lat="44.730358321628174" lon="9.855899206480519"><ele>745.3333333333334</ele><time>2026-04-19T10:26:26.999Z</time></trkpt><trkpt lat="44.730400731433086" lon="9.855973646785756"><ele>744.0</ele><time>2026-04-19T10:26:27.999Z</time></trkpt><trkpt lat="44.73042722215194" lon="9.85607396772369"><ele>742.6666666666666</ele><time>2026-04-19T10:26:28.999Z</time></trkpt><trkpt lat="44.73045452480269" lon="9.856194561608836"><ele>741.3333333333333</ele><time>2026-04-19T10:26:29.999Z</time></trkpt><trkpt lat="44.73049164327818" lon="9.85629142325612"><ele>740.0</ele><time>2026-04-19T10:26:30.999Z</time></trkpt><trkpt lat="44.730543619297656" lon="9.856373110635891"><ele>739.8333333333333</ele><time>2026-04-19T10:26:31.999Z</time></trkpt><trkpt lat="44.730608161388005" lon="9.856468269019889"><ele>739.6666666666666</ele><time>2026-04-19T10:26:32.999Z</time></trkpt><trkpt lat="44.73067162667319" lon="9.856554427663111"><ele>739.5</ele><time>2026-04-19T10:26:33.999Z</time></trkpt><trkpt lat="44.73073080337194" lon="9.856625355560167"><ele>739.3333333333334</ele><time>2026-04-19T10:26:34.999Z</time></trkpt><trkpt lat="44.730787201151706" lon="9.856685662668687"><ele>739.1666666666667</ele><time>2026-04-19T10:26:35.999Z</time></trkpt><trkpt lat="44.730854539438816" lon="9.856745564703099"><ele>739.0</ele><time>2026-04-19T10:26:36.999Z</time></trkpt><trkpt lat="44.730922907330715" lon="9.856810021374951"><ele>736.8000000000001</ele><time>2026-04-19T10:26:38.999Z</time></trkpt><trkpt lat="44.730981462435494" lon="9.856927122295946"><ele>734.6</ele><time>2026-04-19T10:26:40.999Z</time></trkpt><trkpt lat="44.73106364594689" lon="9.857044210974182"><ele>732.4</ele><time>2026-04-19T10:26:42.999Z</time></trkpt><trkpt lat="44.731122236398775" lon="9.857157668793015"><ele>730.2</ele><time>2026-04-19T10:26:44.999Z</time></trkpt><trkpt lat="44.731157376809875" lon="9.857233285281474"><ele>728.0</ele><time>2026-04-19T10:26:46.999Z</time></trkpt><trkpt lat="44.73120256618236" lon="9.85731140039229"><ele>727.3333333333333</ele><time>2026-04-19T10:26:47.999Z</time></trkpt><trkpt lat="44.73124946043139" lon="9.857377819960247"><ele>726.6666666666666</ele><time>2026-04-19T10:26:48.999Z</time></trkpt><trkpt lat="44.731298796101754" lon="9.857471093535917"><ele>726.0</ele><time>2026-04-19T10:26:50.999Z</time></trkpt><trkpt lat="44.73138695916648" lon="9.857559301415549"><ele>725.3333333333334</ele><time>2026-04-19T10:26:52.999Z</time></trkpt><trkpt lat="44.73142196797702" lon="9.857633275274592"><ele>724.6666666666667</ele><time>2026-04-19T10:26:53.999Z</time></trkpt><trkpt lat="44.73145099334828" lon="9.857736261598802"><ele>724.0</ele><time>2026-04-19T10:26:54.999Z</time></trkpt><trkpt lat="44.73148207181581" lon="9.857881482644046"><ele>723.6</ele><time>2026-04-19T10:26:56.999Z</time></trkpt><trkpt lat="44.731513132580616" lon="9.858004456378412"><ele>723.2</ele><time>2026-04-19T10:26:58.999Z</time></trkpt><trkpt lat="44.73156327736889" lon="9.858063144883236"><ele>722.8000000000001</ele><time>2026-04-19T10:27:04.999Z</time></trkpt><trkpt lat="44.73164805904782" lon="9.858142039608195"><ele>722.4000000000001</ele><time>2026-04-19T10:27:06.999Z</time></trkpt><trkpt lat="44.7316955949572" lon="9.858210833680616"><ele>722.0</ele><time>2026-04-19T10:27:07.999Z</time></trkpt><trkpt lat="44.731776945837524" lon="9.858339492719615"><ele>722.0</ele><time>2026-04-19T10:27:09.999Z</time></trkpt><trkpt lat="44.73183505121793" lon="9.85844894285928"><ele>722.0</ele><time>2026-04-19T10:27:11.999Z</time></trkpt><trkpt lat="44.73189822001983" lon="9.858512406160274"><ele>722.0</ele><time>2026-04-19T10:27:15.999Z</time></trkpt><trkpt lat="44.73196428760704" lon="9.858558767997344"><ele>722.0</ele><time>2026-04-19T10:27:19.999Z</time></trkpt><trkpt lat="44.7320451457543" lon="9.858664977220924"><ele>722.0</ele><time>2026-04-19T10:27:22.999Z</time></trkpt><trkpt lat="44.73211972584382" lon="9.858754778541345"><ele>720.5</ele><time>2026-04-19T10:27:24.999Z</time></trkpt><trkpt lat="44.732168901939346" lon="9.858871683100293"><ele>719.0</ele><time>2026-04-19T10:27:26.999Z</time></trkpt><trkpt lat="44.732218819604945" lon="9.858952112915357"><ele>717.5</ele><time>2026-04-19T10:27:28.999Z</time></trkpt><trkpt lat="44.732260256725645" lon="9.859033289785422"><ele>716.0</ele><time>2026-04-19T10:27:31.999Z</time></trkpt><trkpt lat="44.732323048389986" lon="9.859124099054442"><ele>714.5</ele><time>2026-04-19T10:27:35.999Z</time></trkpt><trkpt lat="44.73239325616908" lon="9.859224389646394"><ele>713.0</ele><time>2026-04-19T10:27:37Z</time></trkpt><trkpt lat="44.732465943725074" lon="9.859272413373501"><ele>711.8333333333333</ele><time>2026-04-19T10:27:38Z</time></trkpt><trkpt lat="44.732535743533525" lon="9.859305635123164"><ele>710.6666666666666</ele><time>2026-04-19T10:27:39.001Z</time></trkpt><trkpt lat="44.73263717006899" lon="9.859344812580664"><ele>709.5</ele><time>2026-04-19T10:27:41.001Z</time></trkpt><trkpt lat="44.73271492961552" lon="9.85931871340934"><ele>708.3333333333334</ele><time>2026-04-19T10:27:43.001Z</time></trkpt><trkpt lat="44.7327989800952" lon="9.859299604705008"><ele>707.1666666666667</ele><time>2026-04-19T10:27:45.001Z</time></trkpt><trkpt lat="44.73284679200376" lon="9.859375545951243"><ele>706.0</ele><time>2026-04-19T10:27:48.001Z</time></trkpt><trkpt lat="44.73294118090292" lon="9.85946432636048"><ele>706.0</ele><time>2026-04-19T10:27:50.001Z</time></trkpt><trkpt lat="44.733011381642775" lon="9.859515279720538"><ele>706.0</ele><time>2026-04-19T10:27:51.001Z</time></trkpt><trkpt lat="44.73310559854924" lon="9.859602197375846"><ele>706.0</ele><time>2026-04-19T10:27:53.001Z</time></trkpt><trkpt lat="44.73316608550676" lon="9.85963500113855"><ele>706.0</ele><time>2026-04-19T10:27:54Z</time></trkpt><trkpt lat="44.733247321574666" lon="9.85969436618144"><ele>706.0</ele><time>2026-04-19T10:27:56Z</time></trkpt><trkpt lat="44.73322391413499" lon="9.859785511491637"><ele>706.0</ele><time>2026-04-19T10:27:58Z</time></trkpt><trkpt lat="44.733329440747184" lon="9.859824455151626"><ele>706.0</ele><time>2026-04-19T10:28:00Z</time></trkpt><trkpt lat="44.73343638253204" lon="9.859810031365244"><ele>706.0</ele><time>2026-04-19T10:28:01Z</time></trkpt><trkpt lat="44.733495519670726" lon="9.859845769666384"><ele>706.0</ele><time>2026-04-19T10:28:02Z</time></trkpt><trkpt lat="44.73356379482354" lon="9.859840682606807"><ele>706.0</ele><time>2026-04-19T10:28:04Z</time></trkpt><trkpt lat="44.733689088244624" lon="9.85986322150404"><ele>706.0</ele><time>2026-04-19T10:28:06Z</time></trkpt><trkpt lat="44.73379198463159" lon="9.85988894345118"><ele>704.5</ele><time>2026-04-19T10:28:08Z</time></trkpt><trkpt lat="44.73387207536191" lon="9.85990366308884"><ele>703.0</ele><time>2026-04-19T10:28:11Z</time></trkpt><trkpt lat="44.7339782734287" lon="9.859907307960087"><ele>701.5</ele><time>2026-04-19T10:28:13Z</time></trkpt><trkpt lat="44.73405626896189" lon="9.859914092174785"><ele>700.0</ele><time>2026-04-19T10:28:15Z</time></trkpt><trkpt lat="44.734139606592564" lon="9.85994327475323"><ele>698.5</ele><time>2026-04-19T10:28:17Z</time></trkpt><trkpt lat="44.73420681636544" lon="9.859954035680028"><ele>697.0</ele><time>2026-04-19T10:28:18Z</time></trkpt><trkpt lat="44.73427354940072" lon="9.859964623538822"><ele>697.0</ele><time>2026-04-19T10:28:19Z</time></trkpt><trkpt lat="44.7343821318375" lon="9.85995595232267"><ele>697.0</ele><time>2026-04-19T10:28:21Z</time></trkpt><trkpt lat="44.734499596615905" lon="9.85997258428976"><ele>697.0</ele><time>2026-04-19T10:28:23Z</time></trkpt><trkpt lat="44.73456917083049" lon="9.859988594722841"><ele>697.0</ele><time>2026-04-19T10:28:24Z</time></trkpt><trkpt lat="44.73465557807753" lon="9.860000652375074"><ele>697.0</ele><time>2026-04-19T10:28:25Z</time></trkpt><trkpt lat="44.73475501453798" lon="9.860006062481125"><ele>696.4000000000001</ele><time>2026-04-19T10:28:26Z</time></trkpt><trkpt lat="44.73483326813329" lon="9.860003547227327"><ele>695.8000000000001</ele><time>2026-04-19T10:28:27Z</time></trkpt><trkpt lat="44.73495412011071" lon="9.860022627054775"><ele>695.2</ele><time>2026-04-19T10:28:29Z</time></trkpt><trkpt lat="44.735032689215174" lon="9.860041784570127"><ele>694.6</ele><time>2026-04-19T10:28:30Z</time></trkpt><trkpt lat="44.73514232794463" lon="9.859993025938245"><ele>694.0</ele><time>2026-04-19T10:28:32Z</time></trkpt><trkpt lat="44.73519588072211" lon="9.859923784056688"><ele>692.0</ele><time>2026-04-19T10:28:33Z</time></trkpt><trkpt lat="44.73527785569214" lon="9.859827224704059"><ele>690.0</ele><time>2026-04-19T10:28:35Z</time></trkpt><trkpt lat="44.73536922562869" lon="9.85976019507266"><ele>688.0</ele><time>2026-04-19T10:28:37Z</time></trkpt><trkpt lat="44.735479701588616" lon="9.859735844145295"><ele>686.0</ele><time>2026-04-19T10:28:39Z</time></trkpt><trkpt lat="44.73560894603336" lon="9.859721267543133"><ele>686.0</ele><time>2026-04-19T10:28:41Z</time></trkpt><trkpt lat="44.735725873594866" lon="9.859679519683752"><ele>686.0</ele><time>2026-04-19T10:28:43Z</time></trkpt><trkpt lat="44.735847474845954" lon="9.859716586594606"><ele>686.0</ele><time>2026-04-19T10:28:45Z</time></trkpt><trkpt lat="44.73592611622988" lon="9.859736709981071"><ele>686.0</ele><time>2026-04-19T10:28:46Z</time></trkpt><trkpt lat="44.73603657214617" lon="9.859773883987243"><ele>686.0</ele><time>2026-04-19T10:28:48Z</time></trkpt><trkpt lat="44.73610748442725" lon="9.859807806581601"><ele>684.1666666666666</ele><time>2026-04-19T10:28:49Z</time></trkpt><trkpt lat="44.73616840345891" lon="9.859842429713542"><ele>682.3333333333333</ele><time>2026-04-19T10:28:50Z</time></trkpt><trkpt lat="44.7362728200444" lon="9.85987220818699"><ele>680.5</ele><time>2026-04-19T10:28:52Z</time></trkpt><trkpt lat="44.73635235457048" lon="9.859953191544783"><ele>678.6666666666666</ele><time>2026-04-19T10:28:54Z</time></trkpt><trkpt lat="44.73642667168514" lon="9.859991537021218"><ele>676.8333333333334</ele><time>2026-04-19T10:28:56Z</time></trkpt><trkpt lat="44.736499193546166" lon="9.859982288169686"><ele>675.0</ele><time>2026-04-19T10:28:57Z</time></trkpt><trkpt lat="44.736584023863394" lon="9.859970290964156"><ele>675.0</ele><time>2026-04-19T10:28:58Z</time></trkpt><trkpt lat="44.736679483113356" lon="9.859974147725245"><ele>675.0</ele><time>2026-04-19T10:28:59Z</time></trkpt><trkpt lat="44.73678999052829" lon="9.859997795850354"><ele>675.0</ele><time>2026-04-19T10:29:00Z</time></trkpt><trkpt lat="44.736897133140666" lon="9.860024486003345"><ele>675.0</ele><time>2026-04-19T10:29:01Z</time></trkpt><trkpt lat="44.73702122421119" lon="9.860053846689894"><ele>675.0</ele><time>2026-04-19T10:29:02Z</time></trkpt><trkpt lat="44.73716425108029" lon="9.860086699989402"><ele>672.6666666666666</ele><time>2026-04-19T10:29:03Z</time></trkpt><trkpt lat="44.73732332206652" lon="9.860114002324286"><ele>670.3333333333333</ele><time>2026-04-19T10:29:04Z</time></trkpt><trkpt lat="44.737476319143155" lon="9.860144539092689"><ele>668.0</ele><time>2026-04-19T10:29:05Z</time></trkpt><trkpt lat="44.737624959147304" lon="9.86016771708657"><ele>668.2</ele><time>2026-04-19T10:29:06Z</time></trkpt><trkpt lat="44.737739933435314" lon="9.86018644307638"><ele>668.4</ele><time>2026-04-19T10:29:07Z</time></trkpt><trkpt lat="44.73783414738206" lon="9.86020035900987"><ele>668.6</ele><time>2026-04-19T10:29:08Z</time></trkpt><trkpt lat="44.73792323861388" lon="9.860218143990126"><ele>668.8000000000001</ele><time>2026-04-19T10:29:09Z</time></trkpt><trkpt lat="44.73800999012731" lon="9.860248981602185"><ele>669.0</ele><time>2026-04-19T10:29:10Z</time></trkpt><trkpt lat="44.73810686486132" lon="9.860294571446216"><ele>669.0</ele><time>2026-04-19T10:29:11Z</time></trkpt><trkpt lat="44.73821810358947" lon="9.860383403275875"><ele>669.0</ele><time>2026-04-19T10:29:12Z</time></trkpt><trkpt lat="44.73832793134185" lon="9.860462791620256"><ele>669.0</ele><time>2026-04-19T10:29:13Z</time></trkpt><trkpt lat="44.738441548198814" lon="9.860553306642595"><ele>669.0</ele><time>2026-04-19T10:29:14Z</time></trkpt><trkpt lat="44.73857851698307" lon="9.860616015265114"><ele>667.6666666666666</ele><time>2026-04-19T10:29:15Z</time></trkpt><trkpt lat="44.73874839959859" lon="9.860660895980146"><ele>666.3333333333333</ele><time>2026-04-19T10:29:16Z</time></trkpt><trkpt lat="44.7389172102857" lon="9.860709816180188"><ele>665.0</ele><time>2026-04-19T10:29:17Z</time></trkpt><trkpt lat="44.73906320222895" lon="9.86075446062533"><ele>665.0</ele><time>2026-04-19T10:29:18Z</time></trkpt><trkpt lat="44.739199547093534" lon="9.860783133718686"><ele>665.0</ele><time>2026-04-19T10:29:19Z</time></trkpt><trkpt lat="44.73932313253677" lon="9.860805672146377"><ele>665.0</ele><time>2026-04-19T10:29:20Z</time></trkpt><trkpt lat="44.73944539100892" lon="9.860838796764009"><ele>665.0</ele><time>2026-04-19T10:29:21Z</time></trkpt><trkpt lat="44.73956733604208" lon="9.86087023976635"><ele>664.5</ele><time>2026-04-19T10:29:22Z</time></trkpt><trkpt lat="44.7396878448021" lon="9.860902959908602"><ele>664.0</ele><time>2026-04-19T10:29:23Z</time></trkpt><trkpt lat="44.73981456434035" lon="9.860947642114663"><ele>663.5</ele><time>2026-04-19T10:29:24Z</time></trkpt><trkpt lat="44.73995271759908" lon="9.861001088254888"><ele>663.0</ele><time>2026-04-19T10:29:25Z</time></trkpt><trkpt lat="44.740093380571615" lon="9.861050887367838"><ele>662.0</ele><time>2026-04-19T10:29:26Z</time></trkpt><trkpt lat="44.74021628689039" lon="9.861118829175396"><ele>661.0</ele><time>2026-04-19T10:29:27Z</time></trkpt><trkpt lat="44.74033625714658" lon="9.861156416236994"><ele>660.0</ele><time>2026-04-19T10:29:28Z</time></trkpt><trkpt lat="44.74045812852413" lon="9.86116828456325"><ele>659.0</ele><time>2026-04-19T10:29:29Z</time></trkpt><trkpt lat="44.74057030374444" lon="9.861220878220708"><ele>661.8000000000001</ele><time>2026-04-19T10:29:30Z</time></trkpt><trkpt lat="44.740689359359685" lon="9.861235801034086"><ele>664.6</ele><time>2026-04-19T10:29:31Z</time></trkpt><trkpt lat="44.74080374686072" lon="9.861292967069193"><ele>667.4</ele><time>2026-04-19T10:29:32Z</time></trkpt><trkpt lat="44.74090733757176" lon="9.861367131814042"><ele>670.2</ele><time>2026-04-19T10:29:33Z</time></trkpt><trkpt lat="44.74098189498364" lon="9.861437344269644"><ele>673.0</ele><time>2026-04-19T10:29:34Z</time></trkpt><trkpt lat="44.741046672571635" lon="9.86154117778841"><ele>674.1666666666667</ele><time>2026-04-19T10:29:36Z</time></trkpt><trkpt lat="44.741102237922846" lon="9.861436248282216"><ele>675.3333333333334</ele><time>2026-04-19T10:29:39Z</time></trkpt><trkpt lat="44.74110445812253" lon="9.861317748959213"><ele>676.5</ele><time>2026-04-19T10:29:44Z</time></trkpt><trkpt lat="44.74113658445652" lon="9.86122127114144"><ele>677.6666666666666</ele><time>2026-04-19T10:29:45Z</time></trkpt><trkpt lat="44.74117791332593" lon="9.861120724785351"><ele>678.8333333333333</ele><time>2026-04-19T10:29:46Z</time></trkpt><trkpt lat="44.74122876598236" lon="9.861046590732766"><ele>680.0</ele><time>2026-04-19T10:29:47Z</time></trkpt><trkpt lat="44.741249202246486" lon="9.860892715552875"><ele>680.0</ele><time>2026-04-19T10:29:49Z</time></trkpt><trkpt lat="44.74131680370978" lon="9.860743462937558"><ele>680.0</ele><time>2026-04-19T10:29:51Z</time></trkpt><trkpt lat="44.74134303049413" lon="9.860660714517186"><ele>680.0</ele><time>2026-04-19T10:29:52Z</time></trkpt><trkpt lat="44.74139117662235" lon="9.86059252514478"><ele>680.0</ele><time>2026-04-19T10:29:53Z</time></trkpt><trkpt lat="44.74144124515273" lon="9.860457337739371"><ele>680.0</ele><time>2026-04-19T10:29:55Z</time></trkpt><trkpt lat="44.74149362789762" lon="9.86039482090875"><ele>680.0</ele><time>2026-04-19T10:29:56Z</time></trkpt><trkpt lat="44.74158442029455" lon="9.860312159402422"><ele>680.0</ele><time>2026-04-19T10:29:58Z</time></trkpt><trkpt lat="44.7416554855873" lon="9.860300760492484"><ele>680.0</ele><time>2026-04-19T10:29:59Z</time></trkpt><trkpt lat="44.74171881024864" lon="9.860297378240237"><ele>680.0</ele><time>2026-04-19T10:30:00Z</time></trkpt><trkpt lat="44.741789694052954" lon="9.860297985898873"><ele>680.0</ele><time>2026-04-19T10:30:01Z</time></trkpt><trkpt lat="44.7418567548546" lon="9.860295841777281"><ele>680.0</ele><time>2026-04-19T10:30:02Z</time></trkpt><trkpt lat="44.74197172136752" lon="9.860342111817317"><ele>680.0</ele><time>2026-04-19T10:30:04Z</time></trkpt><trkpt lat="44.74204275233801" lon="9.860349104446497"><ele>681.4</ele><time>2026-04-19T10:30:06Z</time></trkpt><trkpt lat="44.74211811148889" lon="9.860331297409608"><ele>682.8</ele><time>2026-04-19T10:30:08Z</time></trkpt><trkpt lat="44.74222716214622" lon="9.860267249161636"><ele>684.2</ele><time>2026-04-19T10:30:10Z</time></trkpt><trkpt lat="44.742292083899585" lon="9.860238462837875"><ele>685.6</ele><time>2026-04-19T10:30:11Z</time></trkpt><trkpt lat="44.74236146690738" lon="9.86020964533716"><ele>687.0</ele><time>2026-04-19T10:30:12Z</time></trkpt><trkpt lat="44.74244485596" lon="9.860089481500353"><ele>687.3333333333334</ele><time>2026-04-19T10:30:14Z</time></trkpt><trkpt lat="44.74248599573362" lon="9.859998577402118"><ele>687.6666666666666</ele><time>2026-04-19T10:30:15Z</time></trkpt><trkpt lat="44.74254093204589" lon="9.859879355262448"><ele>688.0</ele><time>2026-04-19T10:30:16Z</time></trkpt><trkpt lat="44.742593332324994" lon="9.859740161185105"><ele>688.3333333333333</ele><time>2026-04-19T10:30:17Z</time></trkpt><trkpt lat="44.74263939017444" lon="9.859657525205773"><ele>688.6666666666666</ele><time>2026-04-19T10:30:18Z</time></trkpt><trkpt lat="44.74269003554059" lon="9.859574862860566"><ele>689.0</ele><time>2026-04-19T10:30:19Z</time></trkpt><trkpt lat="44.74272104463535" lon="9.859475385008931"><ele>689.0</ele><time>2026-04-19T10:30:20Z</time></trkpt><trkpt lat="44.74275752985387" lon="9.859386178670151"><ele>689.0</ele><time>2026-04-19T10:30:21Z</time></trkpt><trkpt lat="44.74280915631072" lon="9.859305847773143"><ele>689.0</ele><time>2026-04-19T10:30:22Z</time></trkpt><trkpt lat="44.74287224797499" lon="9.859261542600532"><ele>689.0</ele><time>2026-04-19T10:30:23Z</time></trkpt><trkpt lat="44.74295134961489" lon="9.859196711029057"><ele>689.0</ele><time>2026-04-19T10:30:24Z</time></trkpt><trkpt lat="44.7430248161142" lon="9.85914680745073"><ele>689.0</ele><time>2026-04-19T10:30:25Z</time></trkpt><trkpt lat="44.7430706687681" lon="9.859065036060997"><ele>683.8333333333333</ele><time>2026-04-19T10:30:26Z</time></trkpt><trkpt lat="44.743134133392616" lon="9.859008142525337"><ele>678.6666666666666</ele><time>2026-04-19T10:30:28Z</time></trkpt><trkpt lat="44.74322197571474" lon="9.858997441589958"><ele>673.5</ele><time>2026-04-19T10:30:29Z</time></trkpt><trkpt lat="44.74333162727429" lon="9.858995634462573"><ele>668.3333333333334</ele><time>2026-04-19T10:30:30Z</time></trkpt><trkpt lat="44.74341133137462" lon="9.858990366399404"><ele>663.1666666666667</ele><time>2026-04-19T10:30:31Z</time></trkpt><trkpt lat="44.7434870924917" lon="9.858993160757484"><ele>658.0</ele><time>2026-04-19T10:30:32Z</time></trkpt><trkpt lat="44.74356376314455" lon="9.85900400647124"><ele>658.0</ele><time>2026-04-19T10:30:33Z</time></trkpt><trkpt lat="44.743643828545345" lon="9.859001391123526"><ele>658.0</ele><time>2026-04-19T10:30:34Z</time></trkpt><trkpt lat="44.74373973922362" lon="9.859004305086696"><ele>658.0</ele><time>2026-04-19T10:30:35Z</time></trkpt><trkpt lat="44.74383368583974" lon="9.858974636112249"><ele>658.0</ele><time>2026-04-19T10:30:36Z</time></trkpt><trkpt lat="44.74389394552632" lon="9.858930646119354"><ele>658.0</ele><time>2026-04-19T10:30:37Z</time></trkpt><trkpt lat="44.74398626254448" lon="9.858889692854998"><ele>658.0</ele><time>2026-04-19T10:30:39Z</time></trkpt><trkpt lat="44.74405141980921" lon="9.85886254366426"><ele>658.0</ele><time>2026-04-19T10:30:40Z</time></trkpt><trkpt lat="44.74411563658372" lon="9.858848842264312"><ele>658.0</ele><time>2026-04-19T10:30:41Z</time></trkpt><trkpt lat="44.74420879627558" lon="9.85886437586421"><ele>658.0</ele><time>2026-04-19T10:30:43Z</time></trkpt><trkpt lat="44.74432968024906" lon="9.858920774419339"><ele>658.0</ele><time>2026-04-19T10:30:45Z</time></trkpt><trkpt lat="44.74439584826737" lon="9.858969697260083"><ele>658.0</ele><time>2026-04-19T10:30:46Z</time></trkpt><trkpt lat="44.744499722657416" lon="9.859008222532657"><ele>656.5</ele><time>2026-04-19T10:30:48Z</time></trkpt><trkpt lat="44.744602463271086" lon="9.859006517413805"><ele>655.0</ele><time>2026-04-19T10:30:50Z</time></trkpt><trkpt lat="44.74471557475902" lon="9.85901436233935"><ele>653.5</ele><time>2026-04-19T10:30:52Z</time></trkpt><trkpt lat="44.74480189981722" lon="9.858910923455253"><ele>652.0</ele><time>2026-04-19T10:30:54Z</time></trkpt><trkpt lat="44.74494606342775" lon="9.858892017982395"><ele>652.0</ele><time>2026-04-19T10:30:56Z</time></trkpt><trkpt lat="44.74502784230801" lon="9.858844709233084"><ele>652.0</ele><time>2026-04-19T10:30:57Z</time></trkpt><trkpt lat="44.7451397976385" lon="9.858836163407492"><ele>652.0</ele><time>2026-04-19T10:30:59Z</time></trkpt><trkpt lat="44.74521514056675" lon="9.85887197239218"><ele>652.0</ele><time>2026-04-19T10:31:01Z</time></trkpt><trkpt lat="44.745276615839856" lon="9.85892782443025"><ele>652.0</ele><time>2026-04-19T10:31:03Z</time></trkpt><trkpt lat="44.74534508744581" lon="9.859084229508031"><ele>651.8333333333334</ele><time>2026-04-19T10:31:05Z</time></trkpt><trkpt lat="44.74534836881933" lon="9.859222880420553"><ele>651.6666666666667</ele><time>2026-04-19T10:31:06Z</time></trkpt><trkpt lat="44.7453720520475" lon="9.859310352414154"><ele>651.5</ele><time>2026-04-19T10:31:07Z</time></trkpt><trkpt lat="44.74544296476353" lon="9.859359635890412"><ele>651.3333333333334</ele><time>2026-04-19T10:31:09Z</time></trkpt><trkpt lat="44.74552601125444" lon="9.859351255660192"><ele>651.1666666666666</ele><time>2026-04-19T10:31:11Z</time></trkpt><trkpt lat="44.74560719851094" lon="9.859406267658235"><ele>651.0</ele><time>2026-04-19T10:31:13Z</time></trkpt><trkpt lat="44.7456926846688" lon="9.85946153931288"><ele>651.0</ele><time>2026-04-19T10:31:15Z</time></trkpt><trkpt lat="44.74574496659157" lon="9.859524707462366"><ele>651.0</ele><time>2026-04-19T10:31:16Z</time></trkpt><trkpt lat="44.74582306052699" lon="9.859601310243503"><ele>651.0</ele><time>2026-04-19T10:31:18Z</time></trkpt><trkpt lat="44.74592329899474" lon="9.859595047060873"><ele>651.0</ele><time>2026-04-19T10:31:21Z</time></trkpt><trkpt lat="44.74598067298939" lon="9.859529275615314"><ele>651.0</ele><time>2026-04-19T10:31:22Z</time></trkpt><trkpt lat="44.74602610625426" lon="9.859444783678871"><ele>651.0</ele><time>2026-04-19T10:31:23Z</time></trkpt><trkpt lat="44.74611639009672" lon="9.85936165342152"><ele>651.3333333333334</ele><time>2026-04-19T10:31:25Z</time></trkpt><trkpt lat="44.74619728206715" lon="9.859346253082554"><ele>651.6666666666666</ele><time>2026-04-19T10:31:26Z</time></trkpt><trkpt lat="44.74625969168716" lon="9.85931420192119"><ele>652.0</ele><time>2026-04-19T10:31:27Z</time></trkpt><trkpt lat="44.74633562550283" lon="9.859211671067454"><ele>652.3333333333333</ele><time>2026-04-19T10:31:29Z</time></trkpt><trkpt lat="44.746398889401476" lon="9.859141023858303"><ele>652.6666666666666</ele><time>2026-04-19T10:31:31Z</time></trkpt><trkpt lat="44.74646158370419" lon="9.85911778179523"><ele>653.0</ele><time>2026-04-19T10:31:33Z</time></trkpt><trkpt lat="44.746634373749316" lon="9.85908884630184"><ele>650.5</ele><time>2026-04-19T10:31:35Z</time></trkpt><trkpt lat="44.74672450186651" lon="9.85901789411959"><ele>648.0</ele><time>2026-04-19T10:31:36Z</time></trkpt><trkpt lat="44.74679106841587" lon="9.858955319101636"><ele>645.5</ele><time>2026-04-19T10:31:37Z</time></trkpt><trkpt lat="44.7468699527458" lon="9.858925228214854"><ele>643.0</ele><time>2026-04-19T10:31:38Z</time></trkpt><trkpt lat="44.746953370665004" lon="9.85885469929995"><ele>640.5</ele><time>2026-04-19T10:31:40Z</time></trkpt><trkpt lat="44.747014226912384" lon="9.858793615683581"><ele>638.0</ele><time>2026-04-19T10:31:41Z</time></trkpt><trkpt lat="44.74708477964109" lon="9.858763406555541"><ele>638.0</ele><time>2026-04-19T10:31:42Z</time></trkpt><trkpt lat="44.74716339940353" lon="9.858774043107278"><ele>638.0</ele><time>2026-04-19T10:31:44Z</time></trkpt><trkpt lat="44.747219320959616" lon="9.858820959921841"><ele>638.0</ele><time>2026-04-19T10:31:45Z</time></trkpt><trkpt lat="44.74729502076465" lon="9.858962751193804"><ele>638.0</ele><time>2026-04-19T10:31:47Z</time></trkpt><trkpt lat="44.74738511460408" lon="9.859039511786417"><ele>638.0</ele><time>2026-04-19T10:31:49Z</time></trkpt><trkpt lat="44.747417960083474" lon="9.859129348714772"><ele>638.0</ele><time>2026-04-19T10:31:50Z</time></trkpt><trkpt lat="44.74743955510334" lon="9.859230318488468"><ele>636.75</ele><time>2026-04-19T10:31:51Z</time></trkpt><trkpt lat="44.74753078608294" lon="9.859338184902875"><ele>635.5</ele><time>2026-04-19T10:31:53Z</time></trkpt><trkpt lat="44.747605668834645" lon="9.859451762126573"><ele>634.25</ele><time>2026-04-19T10:31:54Z</time></trkpt><trkpt lat="44.74766050364889" lon="9.85960708596716"><ele>633.0</ele><time>2026-04-19T10:31:55Z</time></trkpt><trkpt lat="44.74772037520941" lon="9.859777852052709"><ele>633.0</ele><time>2026-04-19T10:31:56Z</time></trkpt><trkpt lat="44.7477699062182" lon="9.859852042004709"><ele>633.0</ele><time>2026-04-19T10:31:57Z</time></trkpt><trkpt lat="44.74781995310145" lon="9.859919818798746"><ele>633.0</ele><time>2026-04-19T10:31:59Z</time></trkpt><trkpt lat="44.74784881472075" lon="9.86002341150535"><ele>633.0</ele><time>2026-04-19T10:32:00Z</time></trkpt><trkpt lat="44.74788636950037" lon="9.860159916638292"><ele>633.0</ele><time>2026-04-19T10:32:01Z</time></trkpt><trkpt lat="44.747918637130134" lon="9.860315230531645"><ele>633.0</ele><time>2026-04-19T10:32:02Z</time></trkpt><trkpt lat="44.74793188754571" lon="9.860422458432202"><ele>634.5999999999999</ele><time>2026-04-19T10:32:03Z</time></trkpt><trkpt lat="44.74793430081563" lon="9.860547857577552"><ele>636.1999999999999</ele><time>2026-04-19T10:32:04Z</time></trkpt><trkpt lat="44.74793606097984" lon="9.860682068703333"><ele>637.8</ele><time>2026-04-19T10:32:05Z</time></trkpt><trkpt lat="44.74791751039725" lon="9.860828623921423"><ele>639.4</ele><time>2026-04-19T10:32:06Z</time></trkpt><trkpt lat="44.74788288398299" lon="9.860951972131641"><ele>641.0</ele><time>2026-04-19T10:32:07Z</time></trkpt><trkpt lat="44.747856363812105" lon="9.861080802233214"><ele>641.8333333333333</ele><time>2026-04-19T10:32:08Z</time></trkpt><trkpt lat="44.74786253033738" lon="9.861184805880677"><ele>642.6666666666666</ele><time>2026-04-19T10:32:09Z</time></trkpt><trkpt lat="44.747899140969096" lon="9.86126532174612"><ele>643.5</ele><time>2026-04-19T10:32:10Z</time></trkpt><trkpt lat="44.747943491841255" lon="9.861345465848313"><ele>644.3333333333334</ele><time>2026-04-19T10:32:11Z</time></trkpt><trkpt lat="44.747961167253635" lon="9.861439684666964"><ele>645.1666666666667</ele><time>2026-04-19T10:32:12Z</time></trkpt><trkpt lat="44.747920053760616" lon="9.861643528736543"><ele>646.0</ele><time>2026-04-19T10:32:14Z</time></trkpt><trkpt lat="44.74790474571535" lon="9.861800607739292"><ele>646.3333333333334</ele><time>2026-04-19T10:32:15Z</time></trkpt><trkpt lat="44.74790897340895" lon="9.861902472001482"><ele>646.6666666666667</ele><time>2026-04-19T10:32:16Z</time></trkpt><trkpt lat="44.747903802167976" lon="9.862034703411693"><ele>647.0</ele><time>2026-04-19T10:32:18Z</time></trkpt><trkpt lat="44.747891235458965" lon="9.862142059885773"><ele>647.3333333333334</ele><time>2026-04-19T10:32:19Z</time></trkpt><trkpt lat="44.7478843205297" lon="9.862257196637366"><ele>647.6666666666666</ele><time>2026-04-19T10:32:21Z</time></trkpt><trkpt lat="44.74790677823825" lon="9.862360254728138"><ele>648.0</ele><time>2026-04-19T10:32:24Z</time></trkpt><trkpt lat="44.74788133373576" lon="9.862528871029268"><ele>646.25</ele><time>2026-04-19T10:32:27Z</time></trkpt><trkpt lat="44.747808026381854" lon="9.862697907966135"><ele>644.5</ele><time>2026-04-19T10:32:28Z</time></trkpt><trkpt lat="44.74772689269384" lon="9.862826852303346"><ele>642.75</ele><time>2026-04-19T10:32:29Z</time></trkpt><trkpt lat="44.74765936322871" lon="9.8629933633627"><ele>641.0</ele><time>2026-04-19T10:32:30Z</time></trkpt><trkpt lat="44.7476404416371" lon="9.863179979746462"><ele>647.1999999999999</ele><time>2026-04-19T10:32:31Z</time></trkpt><trkpt lat="44.747561998805615" lon="9.86323066481074"><ele>653.4</ele><time>2026-04-19T10:32:34Z</time></trkpt><trkpt lat="44.74749677210938" lon="9.863320747977815"><ele>659.6</ele><time>2026-04-19T10:32:36Z</time></trkpt><trkpt lat="44.74744994113339" lon="9.863408934220654"><ele>665.8</ele><time>2026-04-19T10:32:38Z</time></trkpt><trkpt lat="44.74742071257049" lon="9.863539246790776"><ele>672.0</ele><time>2026-04-19T10:32:42Z</time></trkpt><trkpt lat="44.74734950832805" lon="9.863695985821476"><ele>672.0</ele><time>2026-04-19T10:32:44Z</time></trkpt><trkpt lat="44.74728602105958" lon="9.863842815256085"><ele>672.0</ele><time>2026-04-19T10:32:45Z</time></trkpt><trkpt lat="44.74728829850602" lon="9.863938998334332"><ele>672.0</ele><time>2026-04-19T10:32:46Z</time></trkpt><trkpt lat="44.747271877917896" lon="9.864063669809573"><ele>672.0</ele><time>2026-04-19T10:32:48Z</time></trkpt><trkpt lat="44.747327439198706" lon="9.86411921916027"><ele>672.0</ele><time>2026-04-19T10:32:51Z</time></trkpt><trkpt lat="44.74743908733537" lon="9.864145860359647"><ele>672.0</ele><time>2026-04-19T10:32:53Z</time></trkpt><trkpt lat="44.74750429241089" lon="9.86416737482004"><ele>672.0</ele><time>2026-04-19T10:32:54Z</time></trkpt><trkpt lat="44.74758661744002" lon="9.864263599646735"><ele>672.0</ele><time>2026-04-19T10:32:55Z</time></trkpt><trkpt lat="44.747698890794204" lon="9.86438537380943"><ele>672.0</ele><time>2026-04-19T10:32:56Z</time></trkpt><trkpt lat="44.74780331227648" lon="9.86447713218199"><ele>672.0</ele><time>2026-04-19T10:32:57Z</time></trkpt><trkpt lat="44.74785650758004" lon="9.864555908509665"><ele>669.0</ele><time>2026-04-19T10:32:58Z</time></trkpt><trkpt lat="44.74789979886271" lon="9.86474250160334"><ele>666.0</ele><time>2026-04-19T10:33:00Z</time></trkpt><trkpt lat="44.74794572275847" lon="9.864921043616787"><ele>663.0</ele><time>2026-04-19T10:33:01Z</time></trkpt><trkpt lat="44.74798046304958" lon="9.865069872772665"><ele>660.0</ele><time>2026-04-19T10:33:02Z</time></trkpt><trkpt lat="44.74800875477813" lon="9.86515666446406"><ele>660.0</ele><time>2026-04-19T10:33:03Z</time></trkpt><trkpt lat="44.74799549070326" lon="9.865258144393911"><ele>660.0</ele><time>2026-04-19T10:33:04Z</time></trkpt><trkpt lat="44.74796502440588" lon="9.865397527534936"><ele>660.0</ele><time>2026-04-19T10:33:05Z</time></trkpt><trkpt lat="44.747915533781395" lon="9.865525531615885"><ele>660.0</ele><time>2026-04-19T10:33:06Z</time></trkpt><trkpt lat="44.74786047653091" lon="9.865618917479104"><ele>660.0</ele><time>2026-04-19T10:33:07Z</time></trkpt><trkpt lat="44.74779267364556" lon="9.86574293803466"><ele>660.0</ele><time>2026-04-19T10:33:08Z</time></trkpt><trkpt lat="44.74774712173782" lon="9.865853622574942"><ele>660.0</ele><time>2026-04-19T10:33:09Z</time></trkpt><trkpt lat="44.747740717734416" lon="9.865978742475424"><ele>660.0</ele><time>2026-04-19T10:33:11Z</time></trkpt><trkpt lat="44.747778982318" lon="9.866055065898854"><ele>660.0</ele><time>2026-04-19T10:33:12Z</time></trkpt><trkpt lat="44.747830795529346" lon="9.866109295849492"><ele>660.0</ele><time>2026-04-19T10:33:13Z</time></trkpt><trkpt lat="44.74787741653203" lon="9.866260877032278"><ele>660.0</ele><time>2026-04-19T10:33:15Z</time></trkpt><trkpt lat="44.74787795878085" lon="9.866400234704642"><ele>659.8333333333334</ele><time>2026-04-19T10:33:16Z</time></trkpt><trkpt lat="44.74789411515517" lon="9.86657818517841"><ele>659.6666666666666</ele><time>2026-04-19T10:33:17Z</time></trkpt><trkpt lat="44.74787187946305" lon="9.866724806828813"><ele>659.5</ele><time>2026-04-19T10:33:18Z</time></trkpt><trkpt lat="44.74786142257799" lon="9.866829295480843"><ele>659.3333333333333</ele><time>2026-04-19T10:33:19Z</time></trkpt><trkpt lat="44.747872048079316" lon="9.866919864450931"><ele>659.1666666666666</ele><time>2026-04-19T10:33:20Z</time></trkpt><trkpt lat="44.74787447429904" lon="9.867010464581504"><ele>659.0</ele><time>2026-04-19T10:33:21Z</time></trkpt><trkpt lat="44.74787786625979" lon="9.8671082023831"><ele>658.8333333333333</ele><time>2026-04-19T10:33:23Z</time></trkpt><trkpt lat="44.747913495399544" lon="9.86720136590651"><ele>658.6666666666666</ele><time>2026-04-19T10:33:27Z</time></trkpt><trkpt lat="44.74791921785981" lon="9.867356223077607"><ele>658.5</ele><time>2026-04-19T10:33:29Z</time></trkpt><trkpt lat="44.74791386826621" lon="9.86747323002179"><ele>658.3333333333334</ele><time>2026-04-19T10:33:30Z</time></trkpt><trkpt lat="44.74794915213893" lon="9.86759243752777"><ele>658.1666666666667</ele><time>2026-04-19T10:33:31Z</time></trkpt><trkpt lat="44.74800089821927" lon="9.867678781654385"><ele>658.0</ele><time>2026-04-19T10:33:32Z</time></trkpt><trkpt lat="44.74807497022092" lon="9.867749055601548"><ele>659.4</ele><time>2026-04-19T10:33:33Z</time></trkpt><trkpt lat="44.74812861057054" lon="9.867846763936962"><ele>660.8</ele><time>2026-04-19T10:33:34Z</time></trkpt><trkpt lat="44.74815656654298" lon="9.86793065881882"><ele>662.2</ele><time>2026-04-19T10:33:35Z</time></trkpt><trkpt lat="44.748232601280755" lon="9.868084771175466"><ele>663.6</ele><time>2026-04-19T10:33:37Z</time></trkpt><trkpt lat="44.74828483826631" lon="9.868139608565828"><ele>665.0</ele><time>2026-04-19T10:33:38Z</time></trkpt><trkpt lat="44.74835601246778" lon="9.868278949904568"><ele>665.0</ele><time>2026-04-19T10:33:40Z</time></trkpt><trkpt lat="44.74839556527005" lon="9.86843886081393"><ele>665.0</ele><time>2026-04-19T10:33:42Z</time></trkpt><trkpt lat="44.748408352347816" lon="9.868603915295738"><ele>665.0</ele><time>2026-04-19T10:33:44Z</time></trkpt><trkpt lat="44.748436569025756" lon="9.868748570965442"><ele>665.0</ele><time>2026-04-19T10:33:46Z</time></trkpt><trkpt lat="44.7484432456708" lon="9.868840797380157"><ele>665.0</ele><time>2026-04-19T10:33:47Z</time></trkpt><trkpt lat="44.74844193613373" lon="9.868940118408457"><ele>664.6666666666666</ele><time>2026-04-19T10:33:48Z</time></trkpt><trkpt lat="44.74844942657643" lon="9.869036525981041"><ele>664.3333333333333</ele><time>2026-04-19T10:33:49Z</time></trkpt><trkpt lat="44.74846751710434" lon="9.869132488386704"><ele>664.0</ele><time>2026-04-19T10:33:50Z</time></trkpt><trkpt lat="44.74848385077939" lon="9.869223369245505"><ele>663.6666666666666</ele><time>2026-04-19T10:33:51Z</time></trkpt><trkpt lat="44.748508700599096" lon="9.869333670206016"><ele>663.3333333333334</ele><time>2026-04-19T10:33:52Z</time></trkpt><trkpt lat="44.748533821279885" lon="9.869493605052101"><ele>663.0</ele><time>2026-04-19T10:33:54Z</time></trkpt><trkpt lat="44.74857312211995" lon="9.869659312086146"><ele>657.0</ele><time>2026-04-19T10:33:56Z</time></trkpt><trkpt lat="44.74860438477982" lon="9.869756997104748"><ele>651.0</ele><time>2026-04-19T10:33:57Z</time></trkpt><trkpt lat="44.748603231639024" lon="9.869855029540819"><ele>645.0</ele><time>2026-04-19T10:33:58Z</time></trkpt><trkpt lat="44.748606329814116" lon="9.869950889907786"><ele>639.0</ele><time>2026-04-19T10:33:59Z</time></trkpt><trkpt lat="44.74863049916695" lon="9.87016628796045"><ele>633.0</ele><time>2026-04-19T10:34:01Z</time></trkpt><trkpt lat="44.7486231243301" lon="9.870328127033682"><ele>633.0</ele><time>2026-04-19T10:34:03Z</time></trkpt><trkpt lat="44.748635747472235" lon="9.870481970820729"><ele>633.0</ele><time>2026-04-19T10:34:05Z</time></trkpt><trkpt lat="44.74869278355387" lon="9.870603599318752"><ele>633.0</ele><time>2026-04-19T10:34:07Z</time></trkpt><trkpt lat="44.74871940987411" lon="9.870706704318586"><ele>633.0</ele><time>2026-04-19T10:34:08Z</time></trkpt><trkpt lat="44.74875702206585" lon="9.870862941448104"><ele>633.0</ele><time>2026-04-19T10:34:10Z</time></trkpt><trkpt lat="44.74875460549488" lon="9.871041239312044"><ele>631.6</ele><time>2026-04-19T10:34:12Z</time></trkpt><trkpt lat="44.7487555685679" lon="9.871169504635493"><ele>630.1999999999999</ele><time>2026-04-19T10:34:14Z</time></trkpt><trkpt lat="44.74879893023417" lon="9.871301627713828"><ele>628.8</ele><time>2026-04-19T10:34:16Z</time></trkpt><trkpt lat="44.748831715459566" lon="9.871385755191408"><ele>627.4</ele><time>2026-04-19T10:34:17Z</time></trkpt><trkpt lat="44.74891950666392" lon="9.871570375569409"><ele>626.0</ele><time>2026-04-19T10:34:19Z</time></trkpt><trkpt lat="44.748970008861896" lon="9.871683193579486"><ele>625.1666666666666</ele><time>2026-04-19T10:34:20Z</time></trkpt><trkpt lat="44.74901952417134" lon="9.871781459866122"><ele>624.3333333333333</ele><time>2026-04-19T10:34:21Z</time></trkpt><trkpt lat="44.74907411462839" lon="9.871861826395799"><ele>623.5</ele><time>2026-04-19T10:34:22Z</time></trkpt><trkpt lat="44.74915029026312" lon="9.8719507747552"><ele>622.6666666666666</ele><time>2026-04-19T10:34:23Z</time></trkpt><trkpt lat="44.74918956174575" lon="9.872044377446192"><ele>621.8333333333334</ele><time>2026-04-19T10:34:24Z</time></trkpt><trkpt lat="44.7492072944998" lon="9.872155907754294"><ele>621.0</ele><time>2026-04-19T10:34:25Z</time></trkpt><trkpt lat="44.74922511136907" lon="9.87228017806006"><ele>621.0</ele><time>2026-04-19T10:34:26Z</time></trkpt><trkpt lat="44.7492386334752" lon="9.872410969168177"><ele>621.0</ele><time>2026-04-19T10:34:27Z</time></trkpt><trkpt lat="44.749240843918756" lon="9.872526532683143"><ele>621.0</ele><time>2026-04-19T10:34:28Z</time></trkpt><trkpt lat="44.74924505722874" lon="9.872646906679096"><ele>621.0</ele><time>2026-04-19T10:34:29Z</time></trkpt><trkpt lat="44.7492502791947" lon="9.872801349827936"><ele>621.0</ele><time>2026-04-19T10:34:30Z</time></trkpt><trkpt lat="44.74926166931958" lon="9.872998037460542"><ele>620.8</ele><time>2026-04-19T10:34:31Z</time></trkpt><trkpt lat="44.7492683142762" lon="9.8731476181742"><ele>620.6</ele><time>2026-04-19T10:34:32Z</time></trkpt><trkpt lat="44.74927195267867" lon="9.873276138910594"><ele>620.4</ele><time>2026-04-19T10:34:35Z</time></trkpt><trkpt lat="44.749255393608514" lon="9.873399330360106"><ele>620.2</ele><time>2026-04-19T10:34:37Z</time></trkpt><trkpt lat="44.74927215389172" lon="9.873541808139102"><ele>620.0</ele><time>2026-04-19T10:34:39Z</time></trkpt><trkpt lat="44.74928808273381" lon="9.873659365853554"><ele>619.2</ele><time>2026-04-19T10:34:40Z</time></trkpt><trkpt lat="44.74928736914922" lon="9.873802200597897"><ele>618.4</ele><time>2026-04-19T10:34:41Z</time></trkpt><trkpt lat="44.749258706567744" lon="9.873931266267235"><ele>617.6</ele><time>2026-04-19T10:34:42Z</time></trkpt><trkpt lat="44.749246053304134" lon="9.874045872011813"><ele>616.8</ele><time>2026-04-19T10:34:43Z</time></trkpt><trkpt lat="44.7492101265963" lon="9.874152039109047"><ele>616.0</ele><time>2026-04-19T10:34:44Z</time></trkpt><trkpt lat="44.749138873295834" lon="9.874244827736423"><ele>614.4</ele><time>2026-04-19T10:34:45Z</time></trkpt><trkpt lat="44.7490596754087" lon="9.874351301002662"><ele>612.8</ele><time>2026-04-19T10:34:46Z</time></trkpt><trkpt lat="44.74898631288771" lon="9.874438844046335"><ele>611.1999999999999</ele><time>2026-04-19T10:34:47Z</time></trkpt><trkpt lat="44.748931500995184" lon="9.87452715507784"><ele>609.6</ele><time>2026-04-19T10:34:48Z</time></trkpt><trkpt lat="44.74886415059976" lon="9.874599545354519"><ele>608.0</ele><time>2026-04-19T10:34:49Z</time></trkpt><trkpt lat="44.74878430257521" lon="9.874648838663727"><ele>608.0</ele><time>2026-04-19T10:34:50Z</time></trkpt><trkpt lat="44.748697166986204" lon="9.874723616466955"><ele>608.0</ele><time>2026-04-19T10:34:51Z</time></trkpt><trkpt lat="44.74859762110831" lon="9.874804743480682"><ele>608.0</ele><time>2026-04-19T10:34:52Z</time></trkpt><trkpt lat="44.74849720455615" lon="9.874856238595575"><ele>608.0</ele><time>2026-04-19T10:34:53Z</time></trkpt><trkpt lat="44.74839020687129" lon="9.874880435163114"><ele>608.0</ele><time>2026-04-19T10:34:54Z</time></trkpt><trkpt lat="44.748293755282134" lon="9.874948238578412"><ele>606.4</ele><time>2026-04-19T10:34:55Z</time></trkpt><trkpt lat="44.74818896400165" lon="9.87499425873661"><ele>604.8</ele><time>2026-04-19T10:34:56Z</time></trkpt><trkpt lat="44.74809071037719" lon="9.875061189246244"><ele>603.2</ele><time>2026-04-19T10:34:57Z</time></trkpt><trkpt lat="44.748009321791166" lon="9.87513471750491"><ele>601.6</ele><time>2026-04-19T10:34:58Z</time></trkpt><trkpt lat="44.74794974906994" lon="9.875205490547518"><ele>600.0</ele><time>2026-04-19T10:34:59Z</time></trkpt><trkpt lat="44.74787477000545" lon="9.875328284381819"><ele>598.9999999999999</ele><time>2026-04-19T10:35:01Z</time></trkpt><trkpt lat="44.747835098224186" lon="9.875409374797696"><ele>598.0</ele><time>2026-04-19T10:35:02Z</time></trkpt><trkpt lat="44.747796807977615" lon="9.875502140483013"><ele>597.0</ele><time>2026-04-19T10:35:03Z</time></trkpt><trkpt lat="44.747764934864264" lon="9.875584309497054"><ele>596.0</ele><time>2026-04-19T10:35:04Z</time></trkpt><trkpt lat="44.74769590952521" lon="9.875622721246769"><ele>595.0</ele><time>2026-04-19T10:35:06Z</time></trkpt><trkpt lat="44.74767771937532" lon="9.875521819484558"><ele>593.9999999999999</ele><time>2026-04-19T10:35:07Z</time></trkpt><trkpt lat="44.747645030329004" lon="9.875439637058525"><ele>593.0</ele><time>2026-04-19T10:35:08Z</time></trkpt><trkpt lat="44.747625406115134" lon="9.875332352222204"><ele>590.8333333333333</ele><time>2026-04-19T10:35:09Z</time></trkpt><trkpt lat="44.74760454957686" lon="9.875220918527935"><ele>588.6666666666666</ele><time>2026-04-19T10:35:10Z</time></trkpt><trkpt lat="44.74758972967663" lon="9.87510734534665"><ele>586.5</ele><time>2026-04-19T10:35:11Z</time></trkpt><trkpt lat="44.74756017958922" lon="9.875010068708665"><ele>584.3333333333334</ele><time>2026-04-19T10:35:12Z</time></trkpt><trkpt lat="44.74750555634195" lon="9.87489966395993"><ele>582.1666666666667</ele><time>2026-04-19T10:35:13Z</time></trkpt><trkpt lat="44.74742332778197" lon="9.874789014334658"><ele>580.0</ele><time>2026-04-19T10:35:14Z</time></trkpt><trkpt lat="44.747323295248805" lon="9.874705009856246"><ele>580.0</ele><time>2026-04-19T10:35:15Z</time></trkpt><trkpt lat="44.74721394704124" lon="9.874657049947258"><ele>580.0</ele><time>2026-04-19T10:35:16Z</time></trkpt><trkpt lat="44.74711933123186" lon="9.874622670612112"><ele>580.0</ele><time>2026-04-19T10:35:17Z</time></trkpt><trkpt lat="44.74700549971014" lon="9.874679440188968"><ele>580.0</ele><time>2026-04-19T10:35:18Z</time></trkpt><trkpt lat="44.7468975175094" lon="9.874725497048837"><ele>580.0</ele><time>2026-04-19T10:35:19Z</time></trkpt><trkpt lat="44.746797088195045" lon="9.874766616501455"><ele>576.5</ele><time>2026-04-19T10:35:20Z</time></trkpt><trkpt lat="44.74668792480046" lon="9.874870247611787"><ele>573.0</ele><time>2026-04-19T10:35:21Z</time></trkpt><trkpt lat="44.74656074816558" lon="9.87489699580546"><ele>569.5</ele><time>2026-04-19T10:35:22Z</time></trkpt><trkpt lat="44.74640656213627" lon="9.875008456653394"><ele>566.0</ele><time>2026-04-19T10:35:23Z</time></trkpt><trkpt lat="44.74624940270765" lon="9.875099892588803"><ele>566.0</ele><time>2026-04-19T10:35:24Z</time></trkpt><trkpt lat="44.74614765841504" lon="9.875068040526108"><ele>566.0</ele><time>2026-04-19T10:35:25Z</time></trkpt><trkpt lat="44.74602070090011" lon="9.875058517276033"><ele>566.0</ele><time>2026-04-19T10:35:26Z</time></trkpt><trkpt lat="44.74588114734205" lon="9.87503847869533"><ele>566.0</ele><time>2026-04-19T10:35:27Z</time></trkpt><trkpt lat="44.74575622529268" lon="9.875018171198573"><ele>566.0</ele><time>2026-04-19T10:35:28Z</time></trkpt><trkpt lat="44.74566928936234" lon="9.875001137030711"><ele>566.0</ele><time>2026-04-19T10:35:29Z</time></trkpt><trkpt lat="44.745603153757465" lon="9.874982522880025"><ele>566.0</ele><time>2026-04-19T10:35:30Z</time></trkpt><trkpt lat="44.745533409813504" lon="9.87493489612895"><ele>566.0</ele><time>2026-04-19T10:35:31Z</time></trkpt><trkpt lat="44.74541728311142" lon="9.874930360351936"><ele>566.0</ele><time>2026-04-19T10:35:32Z</time></trkpt><trkpt lat="44.74532704453064" lon="9.874883717920472"><ele>566.0</ele><time>2026-04-19T10:35:33Z</time></trkpt><trkpt lat="44.74524104293749" lon="9.874846619323936"><ele>566.1666666666666</ele><time>2026-04-19T10:35:34Z</time></trkpt><trkpt lat="44.74514473023553" lon="9.874844893788824"><ele>566.3333333333333</ele><time>2026-04-19T10:35:35Z</time></trkpt><trkpt lat="44.74505331305981" lon="9.87483893332416"><ele>566.5</ele><time>2026-04-19T10:35:36Z</time></trkpt><trkpt lat="44.744973025132694" lon="9.874832219384478"><ele>566.6666666666666</ele><time>2026-04-19T10:35:37Z</time></trkpt><trkpt lat="44.74489537319011" lon="9.874850492292184"><ele>566.8333333333334</ele><time>2026-04-19T10:35:38Z</time></trkpt><trkpt lat="44.74482975984778" lon="9.87485983021251"><ele>567.0</ele><time>2026-04-19T10:35:39Z</time></trkpt><trkpt lat="44.74468682216531" lon="9.874838365824784"><ele>567.0</ele><time>2026-04-19T10:35:41Z</time></trkpt><trkpt lat="44.74461056803453" lon="9.8748439244265"><ele>567.0</ele><time>2026-04-19T10:35:42Z</time></trkpt><trkpt lat="44.744537989793834" lon="9.874846538888336"><ele>567.0</ele><time>2026-04-19T10:35:43Z</time></trkpt><trkpt lat="44.74446642434157" lon="9.87483953258299"><ele>567.0</ele><time>2026-04-19T10:35:44Z</time></trkpt><trkpt lat="44.74439138232253" lon="9.874842193416283"><ele>567.0</ele><time>2026-04-19T10:35:45Z</time></trkpt><trkpt lat="44.74431463891481" lon="9.874837642783243"><ele>567.0</ele><time>2026-04-19T10:35:46Z</time></trkpt><trkpt lat="44.74424411263913" lon="9.874851397764598"><ele>567.0</ele><time>2026-04-19T10:35:47Z</time></trkpt><trkpt lat="44.74413369075629" lon="9.87488376849418"><ele>565.0</ele><time>2026-04-19T10:35:49Z</time></trkpt><trkpt lat="44.74403378268756" lon="9.874933132298304"><ele>563.0</ele><time>2026-04-19T10:35:51Z</time></trkpt><trkpt lat="44.74390639581899" lon="9.874855232755747"><ele>561.0</ele><time>2026-04-19T10:35:53Z</time></trkpt><trkpt lat="44.74384393951541" lon="9.87476505829056"><ele>559.0</ele><time>2026-04-19T10:35:54Z</time></trkpt><trkpt lat="44.74379259386852" lon="9.874681341422335"><ele>557.0</ele><time>2026-04-19T10:35:55Z</time></trkpt><trkpt lat="44.74368182567336" lon="9.874577755329245"><ele>557.0</ele><time>2026-04-19T10:35:57Z</time></trkpt><trkpt lat="44.74360979083247" lon="9.874526608399783"><ele>557.0</ele><time>2026-04-19T10:35:58Z</time></trkpt><trkpt lat="44.743512232689454" lon="9.87445927524345"><ele>557.0</ele><time>2026-04-19T10:36:00Z</time></trkpt><trkpt lat="44.74345607922307" lon="9.874575259291154"><ele>557.0</ele><time>2026-04-19T10:36:01Z</time></trkpt><trkpt lat="44.74336108073039" lon="9.874699527521585"><ele>557.0</ele><time>2026-04-19T10:36:03Z</time></trkpt><trkpt lat="44.74324704140277" lon="9.874752092565137"><ele>557.0</ele><time>2026-04-19T10:36:05Z</time></trkpt><trkpt lat="44.743182615722745" lon="9.874726936996684"><ele>557.0</ele><time>2026-04-19T10:36:06Z</time></trkpt><trkpt lat="44.74310247271348" lon="9.87469119373766"><ele>557.0</ele><time>2026-04-19T10:36:07Z</time></trkpt><trkpt lat="44.74301770801017" lon="9.874684934347211"><ele>557.0</ele><time>2026-04-19T10:36:08Z</time></trkpt><trkpt lat="44.742943150456945" lon="9.874690638503255"><ele>557.0</ele><time>2026-04-19T10:36:09Z</time></trkpt><trkpt lat="44.74286428258714" lon="9.87470144669795"><ele>557.0</ele><time>2026-04-19T10:36:10Z</time></trkpt><trkpt lat="44.74277315247425" lon="9.874719209601757"><ele>556.8333333333333</ele><time>2026-04-19T10:36:11Z</time></trkpt><trkpt lat="44.74268052480319" lon="9.874748292837934"><ele>556.6666666666666</ele><time>2026-04-19T10:36:12Z</time></trkpt><trkpt lat="44.742606355993985" lon="9.874777908772087"><ele>556.5</ele><time>2026-04-19T10:36:13Z</time></trkpt><trkpt lat="44.74254442212943" lon="9.87479542990785"><ele>556.3333333333334</ele><time>2026-04-19T10:36:14Z</time></trkpt><trkpt lat="44.742480406995014" lon="9.874818007830967"><ele>556.1666666666667</ele><time>2026-04-19T10:36:15Z</time></trkpt><trkpt lat="44.74242065410513" lon="9.874851506341422"><ele>556.0</ele><time>2026-04-19T10:36:16Z</time></trkpt><trkpt lat="44.74232845202152" lon="9.874964734432123"><ele>556.0</ele><time>2026-04-19T10:36:18Z</time></trkpt><trkpt lat="44.742311727808165" lon="9.875081299078607"><ele>556.0</ele><time>2026-04-19T10:36:19Z</time></trkpt><trkpt lat="44.74228598706446" lon="9.875233200964923"><ele>556.0</ele><time>2026-04-19T10:36:20Z</time></trkpt><trkpt lat="44.74223815626911" lon="9.875384716375939"><ele>556.0</ele><time>2026-04-19T10:36:21Z</time></trkpt><trkpt lat="44.742184906935464" lon="9.875532047098897"><ele>556.0</ele><time>2026-04-19T10:36:22Z</time></trkpt><trkpt lat="44.742141825894706" lon="9.875667610550849"><ele>554.4</ele><time>2026-04-19T10:36:23Z</time></trkpt><trkpt lat="44.742108031621655" lon="9.875800712562496"><ele>552.8</ele><time>2026-04-19T10:36:24Z</time></trkpt><trkpt lat="44.742080043764496" lon="9.875938513936026"><ele>551.1999999999999</ele><time>2026-04-19T10:36:25Z</time></trkpt><trkpt lat="44.74204989295455" lon="9.876092330572465"><ele>549.6</ele><time>2026-04-19T10:36:26Z</time></trkpt><trkpt lat="44.74202676784349" lon="9.876247365201356"><ele>548.0</ele><time>2026-04-19T10:36:27Z</time></trkpt><trkpt lat="44.742004033374926" lon="9.876413470522682"><ele>544.75</ele><time>2026-04-19T10:36:28Z</time></trkpt><trkpt lat="44.74197730108588" lon="9.876590847987003"><ele>541.5</ele><time>2026-04-19T10:36:29Z</time></trkpt><trkpt lat="44.74194467040365" lon="9.876777365359022"><ele>538.25</ele><time>2026-04-19T10:36:30Z</time></trkpt><trkpt lat="44.74190824183309" lon="9.876944361075365"><ele>535.0</ele><time>2026-04-19T10:36:31Z</time></trkpt><trkpt lat="44.74188291751939" lon="9.87710385677275"><ele>535.4</ele><time>2026-04-19T10:36:32Z</time></trkpt><trkpt lat="44.74186168027835" lon="9.877264633665392"><ele>535.8</ele><time>2026-04-19T10:36:33Z</time></trkpt><trkpt lat="44.741850912649994" lon="9.877420212416"><ele>536.2</ele><time>2026-04-19T10:36:34Z</time></trkpt><trkpt lat="44.7418562408613" lon="9.877568109400494"><ele>536.6</ele><time>2026-04-19T10:36:35Z</time></trkpt><trkpt lat="44.74183705147874" lon="9.877711149584034"><ele>537.0</ele><time>2026-04-19T10:36:36Z</time></trkpt><trkpt lat="44.7418414507787" lon="9.877836659518671"><ele>535.8000000000001</ele><time>2026-04-19T10:36:37Z</time></trkpt><trkpt lat="44.74182694111402" lon="9.877939723285051"><ele>534.6</ele><time>2026-04-19T10:36:38Z</time></trkpt><trkpt lat="44.74181994563966" lon="9.878032874558288"><ele>533.4000000000001</ele><time>2026-04-19T10:36:40Z</time></trkpt><trkpt lat="44.74165715203675" lon="9.877956432779696"><ele>532.2</ele><time>2026-04-19T10:36:44Z</time></trkpt><trkpt lat="44.74163948986597" lon="9.87782512145885"><ele>531.0</ele><time>2026-04-19T10:36:47Z</time></trkpt><trkpt lat="44.74164071194747" lon="9.877712453709737"><ele>532.0</ele><time>2026-04-19T10:36:48Z</time></trkpt><trkpt lat="44.741606686619534" lon="9.877576433739312"><ele>533.0</ele><time>2026-04-19T10:36:49Z</time></trkpt><trkpt lat="44.74158113338259" lon="9.87746762912608"><ele>534.0</ele><time>2026-04-19T10:36:50Z</time></trkpt><trkpt lat="44.741558823388004" lon="9.877378890381255"><ele>535.0</ele><time>2026-04-19T10:36:51Z</time></trkpt><trkpt lat="44.74153311199388" lon="9.877286664788294"><ele>536.0</ele><time>2026-04-19T10:36:52Z</time></trkpt><trkpt lat="44.74150818172917" lon="9.877172849726465"><ele>537.0</ele><time>2026-04-19T10:36:53Z</time></trkpt><trkpt lat="44.741483404419874" lon="9.877044449922959"><ele>537.0</ele><time>2026-04-19T10:36:54Z</time></trkpt><trkpt lat="44.74146116983105" lon="9.876948432264824"><ele>537.0</ele><time>2026-04-19T10:36:55Z</time></trkpt><trkpt lat="44.74140157992542" lon="9.876796651085106"><ele>537.0</ele><time>2026-04-19T10:36:57Z</time></trkpt><trkpt lat="44.741341695581255" lon="9.876736121214597"><ele>537.0</ele><time>2026-04-19T10:36:58Z</time></trkpt><trkpt lat="44.74125058254884" lon="9.876725002575572"><ele>537.0</ele><time>2026-04-19T10:36:59Z</time></trkpt><trkpt lat="44.74116271953458" lon="9.876764410838017"><ele>537.0</ele><time>2026-04-19T10:37:00Z</time></trkpt><trkpt lat="44.741064553576585" lon="9.876854048796908"><ele>537.0</ele><time>2026-04-19T10:37:01Z</time></trkpt><trkpt lat="44.74098035958488" lon="9.876959050411164"><ele>537.0</ele><time>2026-04-19T10:37:02Z</time></trkpt><trkpt lat="44.74090959199419" lon="9.877044264009873"><ele>537.0</ele><time>2026-04-19T10:37:03Z</time></trkpt><trkpt lat="44.74084033953096" lon="9.87714210871167"><ele>537.0</ele><time>2026-04-19T10:37:04Z</time></trkpt><trkpt lat="44.74076979894871" lon="9.877244058811831"><ele>534.0</ele><time>2026-04-19T10:37:05Z</time></trkpt><trkpt lat="44.74070403038487" lon="9.87734785170192"><ele>531.0</ele><time>2026-04-19T10:37:06Z</time></trkpt><trkpt lat="44.740637350806075" lon="9.877454885501256"><ele>528.0</ele><time>2026-04-19T10:37:07Z</time></trkpt><trkpt lat="44.74057462551135" lon="9.877575420416827"><ele>525.0</ele><time>2026-04-19T10:37:08Z</time></trkpt><trkpt lat="44.74051928846728" lon="9.877700534905724"><ele>522.0</ele><time>2026-04-19T10:37:09Z</time></trkpt><trkpt lat="44.740464222090445" lon="9.87781230845295"><ele>520.3333333333334</ele><time>2026-04-19T10:37:10Z</time></trkpt><trkpt lat="44.74040864156166" lon="9.877903137167932"><ele>518.6666666666666</ele><time>2026-04-19T10:37:11Z</time></trkpt><trkpt lat="44.74034279237227" lon="9.877972496290711"><ele>517.0</ele><time>2026-04-19T10:37:12Z</time></trkpt><trkpt lat="44.74027708187978" lon="9.878037601683763"><ele>515.3333333333333</ele><time>2026-04-19T10:37:13Z</time></trkpt><trkpt lat="44.740206276590186" lon="9.878087034341782"><ele>513.6666666666666</ele><time>2026-04-19T10:37:14Z</time></trkpt><trkpt lat="44.740119544861365" lon="9.878112941012304"><ele>512.0</ele><time>2026-04-19T10:37:15Z</time></trkpt><trkpt lat="44.740030400785415" lon="9.878108081547994"><ele>509.85714285714283</ele><time>2026-04-19T10:37:16Z</time></trkpt><trkpt lat="44.73995638093384" lon="9.878103798438259"><ele>507.71428571428567</ele><time>2026-04-19T10:37:17Z</time></trkpt><trkpt lat="44.73989039056611" lon="9.87811895528749"><ele>505.57142857142856</ele><time>2026-04-19T10:37:18Z</time></trkpt><trkpt lat="44.73983079174741" lon="9.878163181346881"><ele>503.42857142857144</ele><time>2026-04-19T10:37:19Z</time></trkpt><trkpt lat="44.73977946555813" lon="9.878226697656247"><ele>501.2857142857143</ele><time>2026-04-19T10:37:20Z</time></trkpt><trkpt lat="44.739738025820905" lon="9.878298703208413"><ele>499.1428571428571</ele><time>2026-04-19T10:37:21Z</time></trkpt><trkpt lat="44.73971783437866" lon="9.878384113312533"><ele>497.0</ele><time>2026-04-19T10:37:22Z</time></trkpt><trkpt lat="44.73971064644662" lon="9.878484572581904"><ele>494.8333333333333</ele><time>2026-04-19T10:37:23Z</time></trkpt><trkpt lat="44.739724292818046" lon="9.878583134337704"><ele>492.66666666666663</ele><time>2026-04-19T10:37:24Z</time></trkpt><trkpt lat="44.739757003383076" lon="9.878688362298858"><ele>490.5</ele><time>2026-04-19T10:37:25Z</time></trkpt><trkpt lat="44.73980283467491" lon="9.878782701651753"><ele>488.33333333333337</ele><time>2026-04-19T10:37:26Z</time></trkpt><trkpt lat="44.739837834950315" lon="9.87888273688507"><ele>486.1666666666667</ele><time>2026-04-19T10:37:27Z</time></trkpt><trkpt lat="44.73986509608858" lon="9.879002037860221"><ele>484.0</ele><time>2026-04-19T10:37:28Z</time></trkpt><trkpt lat="44.739894664548565" lon="9.879124544606736"><ele>484.00000000000006</ele><time>2026-04-19T10:37:29Z</time></trkpt><trkpt lat="44.73992722167022" lon="9.87924428967234"><ele>484.0</ele><time>2026-04-19T10:37:30Z</time></trkpt><trkpt lat="44.73995102679402" lon="9.879346491818293"><ele>484.0</ele><time>2026-04-19T10:37:31Z</time></trkpt><trkpt lat="44.73995861999373" lon="9.879444932990348"><ele>484.0</ele><time>2026-04-19T10:37:32Z</time></trkpt><trkpt lat="44.73994198771526" lon="9.879547466431397"><ele>484.00000000000006</ele><time>2026-04-19T10:37:33Z</time></trkpt><trkpt lat="44.73989831763861" lon="9.879646825973625"><ele>484.0</ele><time>2026-04-19T10:37:34Z</time></trkpt><trkpt lat="44.739832389533085" lon="9.879763971340362"><ele>482.50000000000006</ele><time>2026-04-19T10:37:35Z</time></trkpt><trkpt lat="44.73977803232147" lon="9.879884192744704"><ele>481.0</ele><time>2026-04-19T10:37:36Z</time></trkpt><trkpt lat="44.73973438443498" lon="9.879993589257179"><ele>479.5</ele><time>2026-04-19T10:37:37Z</time></trkpt><trkpt lat="44.73969695170898" lon="9.88009469459721"><ele>478.0</ele><time>2026-04-19T10:37:38Z</time></trkpt><trkpt lat="44.739668726701936" lon="9.88019086152171"><ele>476.50000000000006</ele><time>2026-04-19T10:37:39Z</time></trkpt><trkpt lat="44.7396659118982" lon="9.88028104023552"><ele>475.0</ele><time>2026-04-19T10:37:40Z</time></trkpt><trkpt lat="44.739700607161296" lon="9.880368050833015"><ele>473.2</ele><time>2026-04-19T10:37:41Z</time></trkpt><trkpt lat="44.73976182183885" lon="9.880453654215529"><ele>471.4</ele><time>2026-04-19T10:37:42Z</time></trkpt><trkpt lat="44.73981998366239" lon="9.880510543776703"><ele>469.6</ele><time>2026-04-19T10:37:43Z</time></trkpt><trkpt lat="44.73977050836642" lon="9.880596317930877"><ele>467.8</ele><time>2026-04-19T10:37:46Z</time></trkpt><trkpt lat="44.73962667752467" lon="9.88064056765215"><ele>466.0</ele><time>2026-04-19T10:37:48Z</time></trkpt><trkpt lat="44.73955725543075" lon="9.880652514805405"><ele>466.00000000000006</ele><time>2026-04-19T10:37:49Z</time></trkpt><trkpt lat="44.739496426666584" lon="9.880624902441255"><ele>466.0</ele><time>2026-04-19T10:37:50Z</time></trkpt><trkpt lat="44.7394402130472" lon="9.8805758868401"><ele>466.0</ele><time>2026-04-19T10:37:51Z</time></trkpt><trkpt lat="44.739392360684825" lon="9.880504326174977"><ele>466.0</ele><time>2026-04-19T10:37:52Z</time></trkpt><trkpt lat="44.73934651173417" lon="9.880391138617982"><ele>466.00000000000006</ele><time>2026-04-19T10:37:53Z</time></trkpt><trkpt lat="44.739299577875116" lon="9.88023217866515"><ele>466.0</ele><time>2026-04-19T10:37:54Z</time></trkpt><trkpt lat="44.739252962704775" lon="9.88007011643326"><ele>464.00000000000006</ele><time>2026-04-19T10:37:55Z</time></trkpt><trkpt lat="44.73920729772193" lon="9.879930428343808"><ele>462.0</ele><time>2026-04-19T10:37:56Z</time></trkpt><trkpt lat="44.73914412632234" lon="9.879802910605061"><ele>460.0</ele><time>2026-04-19T10:37:57Z</time></trkpt><trkpt lat="44.73908752985635" lon="9.879698023368352"><ele>458.0</ele><time>2026-04-19T10:37:58Z</time></trkpt><trkpt lat="44.73904682991258" lon="9.879629311119686"><ele>456.00000000000006</ele><time>2026-04-19T10:37:59Z</time></trkpt><trkpt lat="44.73902179251472" lon="9.879535627379058"><ele>454.0</ele><time>2026-04-19T10:38:00Z</time></trkpt><trkpt lat="44.73899671896913" lon="9.879403144402334"><ele>456.0</ele><time>2026-04-19T10:38:01Z</time></trkpt><trkpt lat="44.73895923021655" lon="9.879261280090537"><ele>458.0</ele><time>2026-04-19T10:38:02Z</time></trkpt><trkpt lat="44.73888580644458" lon="9.879133872810348"><ele>460.0</ele><time>2026-04-19T10:38:03Z</time></trkpt><trkpt lat="44.73882084468171" lon="9.878960813450243"><ele>462.0</ele><time>2026-04-19T10:38:04Z</time></trkpt><trkpt lat="44.738784233600775" lon="9.878839063941735"><ele>462.0</ele><time>2026-04-19T10:38:05Z</time></trkpt><trkpt lat="44.738672725602214" lon="9.878793767817482"><ele>462.00000000000006</ele><time>2026-04-19T10:38:07Z</time></trkpt><trkpt lat="44.73857624842827" lon="9.87882815142204"><ele>462.00000000000006</ele><time>2026-04-19T10:38:08Z</time></trkpt><trkpt lat="44.738529021721895" lon="9.878911456051961"><ele>462.0</ele><time>2026-04-19T10:38:09Z</time></trkpt><trkpt lat="44.738482444814" lon="9.879031107211315"><ele>462.0</ele><time>2026-04-19T10:38:10Z</time></trkpt><trkpt lat="44.73845199847446" lon="9.879148943534545"><ele>458.0</ele><time>2026-04-19T10:38:11Z</time></trkpt><trkpt lat="44.738409318393934" lon="9.879244593181243"><ele>454.00000000000006</ele><time>2026-04-19T10:38:12Z</time></trkpt><trkpt lat="44.73833497700052" lon="9.879307309575719"><ele>450.00000000000006</ele><time>2026-04-19T10:38:13Z</time></trkpt><trkpt lat="44.738237290238" lon="9.879374658847867"><ele>446.0</ele><time>2026-04-19T10:38:14Z</time></trkpt><trkpt lat="44.73812619637212" lon="9.87946185165343"><ele>442.0</ele><time>2026-04-19T10:38:15Z</time></trkpt><trkpt lat="44.73802056118052" lon="9.879540898971"><ele>440.8</ele><time>2026-04-19T10:38:16Z</time></trkpt><trkpt lat="44.737924729855706" lon="9.879607695836809"><ele>439.6</ele><time>2026-04-19T10:38:17Z</time></trkpt><trkpt lat="44.737832901963166" lon="9.879679575352878"><ele>438.40000000000003</ele><time>2026-04-19T10:38:18Z</time></trkpt><trkpt lat="44.73774336764496" lon="9.879759573532038"><ele>437.20000000000005</ele><time>2026-04-19T10:38:19Z</time></trkpt><trkpt lat="44.73763304411161" lon="9.87985422907087"><ele>436.0</ele><time>2026-04-19T10:38:20Z</time></trkpt><trkpt lat="44.73751695675952" lon="9.879958601792177"><ele>433.5</ele><time>2026-04-19T10:38:21Z</time></trkpt><trkpt lat="44.73739888519985" lon="9.88006563975708"><ele>431.0</ele><time>2026-04-19T10:38:22Z</time></trkpt><trkpt lat="44.737290565220775" lon="9.88016296833055"><ele>428.5</ele><time>2026-04-19T10:38:23Z</time></trkpt><trkpt lat="44.737191416177495" lon="9.880251245658169"><ele>426.0</ele><time>2026-04-19T10:38:24Z</time></trkpt><trkpt lat="44.73708524972535" lon="9.880357393424699"><ele>425.0</ele><time>2026-04-19T10:38:25Z</time></trkpt><trkpt lat="44.73697591370456" lon="9.880479174384362"><ele>424.0</ele><time>2026-04-19T10:38:26Z</time></trkpt><trkpt lat="44.73688931459148" lon="9.880602907336046"><ele>423.0</ele><time>2026-04-19T10:38:27Z</time></trkpt><trkpt lat="44.73681608359516" lon="9.880718160747087"><ele>422.0</ele><time>2026-04-19T10:38:28Z</time></trkpt><trkpt lat="44.73674825684103" lon="9.88081583893404"><ele>420.8</ele><time>2026-04-19T10:38:29Z</time></trkpt><trkpt lat="44.73668460024174" lon="9.88091033662768"><ele>419.6</ele><time>2026-04-19T10:38:30Z</time></trkpt><trkpt lat="44.736628999030806" lon="9.881003919151206"><ele>418.40000000000003</ele><time>2026-04-19T10:38:31Z</time></trkpt><trkpt lat="44.73657302220415" lon="9.8811033736904"><ele>417.20000000000005</ele><time>2026-04-19T10:38:32Z</time></trkpt><trkpt lat="44.736519393316186" lon="9.881203153076562"><ele>416.0</ele><time>2026-04-19T10:38:33Z</time></trkpt><trkpt lat="44.73645295113604" lon="9.881307350691785"><ele>415.0</ele><time>2026-04-19T10:38:34Z</time></trkpt><trkpt lat="44.73639253273493" lon="9.881418065655916"><ele>414.0</ele><time>2026-04-19T10:38:35Z</time></trkpt><trkpt lat="44.73633445800782" lon="9.881533669895935"><ele>413.0</ele><time>2026-04-19T10:38:36Z</time></trkpt><trkpt lat="44.73628143981344" lon="9.881634851493986"><ele>412.0</ele><time>2026-04-19T10:38:37Z</time></trkpt><trkpt lat="44.73620502650523" lon="9.881728347977187"><ele>411.0</ele><time>2026-04-19T10:38:39Z</time></trkpt><trkpt lat="44.736139016538246" lon="9.88172892241751"><ele>410.5</ele><time>2026-04-19T10:38:41Z</time></trkpt><trkpt lat="44.73603471542194" lon="9.881717775956991"><ele>410.0</ele><time>2026-04-19T10:38:44Z</time></trkpt><trkpt lat="44.73596925154811" lon="9.881701485142504"><ele>409.5</ele><time>2026-04-19T10:38:45Z</time></trkpt><trkpt lat="44.73588041991953" lon="9.881689950450587"><ele>409.0</ele><time>2026-04-19T10:38:46Z</time></trkpt><trkpt lat="44.735796123333714" lon="9.88169336034827"><ele>408.5</ele><time>2026-04-19T10:38:47Z</time></trkpt><trkpt lat="44.735705279600325" lon="9.881679595918715"><ele>408.0</ele><time>2026-04-19T10:38:49Z</time></trkpt><trkpt lat="44.73564376542776" lon="9.881638368677443"><ele>408.0</ele><time>2026-04-19T10:38:51Z</time></trkpt><trkpt lat="44.735542098552756" lon="9.881609080418912"><ele>408.0</ele><time>2026-04-19T10:38:53Z</time></trkpt><trkpt lat="44.73547965920283" lon="9.881628074319275"><ele>408.0</ele><time>2026-04-19T10:38:54Z</time></trkpt><trkpt lat="44.735415363099044" lon="9.881685883455992"><ele>408.0</ele><time>2026-04-19T10:38:55Z</time></trkpt><trkpt lat="44.73534143689237" lon="9.881757110456384"><ele>408.0</ele><time>2026-04-19T10:38:56Z</time></trkpt><trkpt lat="44.73527217727484" lon="9.881698328581825"><ele>408.0</ele><time>2026-04-19T10:38:58Z</time></trkpt><trkpt lat="44.735233225301755" lon="9.881619887848583"><ele>409.2</ele><time>2026-04-19T10:38:59Z</time></trkpt><trkpt lat="44.735171865181684" lon="9.881571968928604"><ele>410.4</ele><time>2026-04-19T10:39:00Z</time></trkpt><trkpt lat="44.73504119776862" lon="9.881542027904212"><ele>411.59999999999997</ele><time>2026-04-19T10:39:01Z</time></trkpt><trkpt lat="44.73493754898343" lon="9.881524875147745"><ele>412.79999999999995</ele><time>2026-04-19T10:39:02Z</time></trkpt><trkpt lat="44.73484984096734" lon="9.881553183977612"><ele>414.0</ele><time>2026-04-19T10:39:04Z</time></trkpt><trkpt lat="44.734750528068" lon="9.881545574390955"><ele>414.0</ele><time>2026-04-19T10:39:06Z</time></trkpt><trkpt lat="44.73467890975081" lon="9.881584733311431"><ele>414.0</ele><time>2026-04-19T10:39:10Z</time></trkpt><trkpt lat="44.734637286136206" lon="9.881768171602097"><ele>414.0</ele><time>2026-04-19T10:39:17Z</time></trkpt><trkpt lat="44.73457450590271" lon="9.881896034366246"><ele>414.0</ele><time>2026-04-19T10:39:18Z</time></trkpt><trkpt lat="44.73451289558371" lon="9.88200374718343"><ele>414.0</ele><time>2026-04-19T10:39:19Z</time></trkpt><trkpt lat="44.73446058914744" lon="9.882185344357362"><ele>415.3333333333333</ele><time>2026-04-19T10:39:21Z</time></trkpt><trkpt lat="44.73442312075981" lon="9.88228439139232"><ele>416.66666666666663</ele><time>2026-04-19T10:39:22Z</time></trkpt><trkpt lat="44.73431949686199" lon="9.882273702998807"><ele>418.0</ele><time>2026-04-19T10:39:25Z</time></trkpt><trkpt lat="44.73425803314511" lon="9.882230843617947"><ele>419.3333333333333</ele><time>2026-04-19T10:39:26Z</time></trkpt><trkpt lat="44.73423721777813" lon="9.882131545708363"><ele>420.66666666666663</ele><time>2026-04-19T10:39:29Z</time></trkpt><trkpt lat="44.73415818379185" lon="9.882011123955097"><ele>422.0</ele><time>2026-04-19T10:39:31Z</time></trkpt><trkpt lat="44.73408062948752" lon="9.881984830771888"><ele>422.8333333333333</ele><time>2026-04-19T10:39:33Z</time></trkpt><trkpt lat="44.73401405552719" lon="9.881974914872263"><ele>423.66666666666663</ele><time>2026-04-19T10:39:34Z</time></trkpt><trkpt lat="44.73387806118229" lon="9.88199246976612"><ele>424.5</ele><time>2026-04-19T10:39:36Z</time></trkpt><trkpt lat="44.733817270602046" lon="9.882036685000095"><ele>425.33333333333337</ele><time>2026-04-19T10:39:37Z</time></trkpt><trkpt lat="44.73375627922952" lon="9.882116962378158"><ele>426.1666666666667</ele><time>2026-04-19T10:39:38Z</time></trkpt><trkpt lat="44.73369008276674" lon="9.882161934395407"><ele>427.0</ele><time>2026-04-19T10:39:39Z</time></trkpt><trkpt lat="44.7336158853591" lon="9.88216785930326"><ele>428.40000000000003</ele><time>2026-04-19T10:39:40Z</time></trkpt><trkpt lat="44.73354050307471" lon="9.882146897044723"><ele>429.80000000000007</ele><time>2026-04-19T10:39:41Z</time></trkpt><trkpt lat="44.73340973027647" lon="9.882085800495307"><ele>431.2</ele><time>2026-04-19T10:39:43Z</time></trkpt><trkpt lat="44.733324663321035" lon="9.882079213238953"><ele>432.6</ele><time>2026-04-19T10:39:44Z</time></trkpt><trkpt lat="44.73322809973968" lon="9.882100133241352"><ele>434.0</ele><time>2026-04-19T10:39:45Z</time></trkpt><trkpt lat="44.73312457606106" lon="9.882136520480962"><ele>433.99999999999994</ele><time>2026-04-19T10:39:46Z</time></trkpt><trkpt lat="44.73303974336548" lon="9.882197750963831"><ele>434.0</ele><time>2026-04-19T10:39:47Z</time></trkpt><trkpt lat="44.73296581199852" lon="9.882265579148852"><ele>434.0</ele><time>2026-04-19T10:39:48Z</time></trkpt><trkpt lat="44.73291570980905" lon="9.882343769605544"><ele>434.0</ele><time>2026-04-19T10:39:49Z</time></trkpt><trkpt lat="44.73286963629288" lon="9.8824555264813"><ele>433.99999999999994</ele><time>2026-04-19T10:39:50Z</time></trkpt><trkpt lat="44.73284982626234" lon="9.88256804997821"><ele>434.0</ele><time>2026-04-19T10:39:51Z</time></trkpt><trkpt lat="44.73286506350544" lon="9.882682873883342"><ele>436.4</ele><time>2026-04-19T10:39:52Z</time></trkpt><trkpt lat="44.73285838234398" lon="9.882870913761737"><ele>438.79999999999995</ele><time>2026-04-19T10:39:54Z</time></trkpt><trkpt lat="44.732857374193735" lon="9.882996703173024"><ele>441.20000000000005</ele><time>2026-04-19T10:39:55Z</time></trkpt><trkpt lat="44.73285873541016" lon="9.883136480638958"><ele>443.6</ele><time>2026-04-19T10:39:56Z</time></trkpt><trkpt lat="44.73288421586806" lon="9.883281971455624"><ele>446.0</ele><time>2026-04-19T10:39:57Z</time></trkpt><trkpt lat="44.73293035588078" lon="9.883433859212246"><ele>448.16666666666663</ele><time>2026-04-19T10:39:58Z</time></trkpt><trkpt lat="44.73297112744866" lon="9.883527391556761"><ele>450.3333333333333</ele><time>2026-04-19T10:39:59Z</time></trkpt><trkpt lat="44.73300663084231" lon="9.883604318061238"><ele>452.5</ele><time>2026-04-19T10:40:00Z</time></trkpt><trkpt lat="44.73299404060633" lon="9.883694217112458"><ele>454.66666666666663</ele><time>2026-04-19T10:40:02Z</time></trkpt><trkpt lat="44.732891677633454" lon="9.883781084930455"><ele>456.8333333333333</ele><time>2026-04-19T10:40:04Z</time></trkpt><trkpt lat="44.73280809697383" lon="9.883798589067155"><ele>459.0</ele><time>2026-04-19T10:40:05Z</time></trkpt><trkpt lat="44.73274424652244" lon="9.883820901654904"><ele>459.0</ele><time>2026-04-19T10:40:06Z</time></trkpt><trkpt lat="44.73269655541088" lon="9.883948097493054"><ele>459.0</ele><time>2026-04-19T10:40:08Z</time></trkpt><trkpt lat="44.732683164114846" lon="9.884125385132457"><ele>459.0</ele><time>2026-04-19T10:40:10Z</time></trkpt><trkpt lat="44.73268125837869" lon="9.884252975880532"><ele>459.0</ele><time>2026-04-19T10:40:11Z</time></trkpt><trkpt lat="44.73265470291742" lon="9.884337465370075"><ele>459.0</ele><time>2026-04-19T10:40:12Z</time></trkpt><trkpt lat="44.7326557707701" lon="9.884480637954539"><ele>461.0</ele><time>2026-04-19T10:40:14Z</time></trkpt><trkpt lat="44.73266945302944" lon="9.884599680809416"><ele>463.0</ele><time>2026-04-19T10:40:15Z</time></trkpt><trkpt lat="44.73267098712051" lon="9.884705786654516"><ele>465.0</ele><time>2026-04-19T10:40:16Z</time></trkpt><trkpt lat="44.73269503317502" lon="9.884816623935004"><ele>467.0</ele><time>2026-04-19T10:40:17Z</time></trkpt><trkpt lat="44.73272997048439" lon="9.884928001933115"><ele>469.0</ele><time>2026-04-19T10:40:18Z</time></trkpt><trkpt lat="44.732739414075695" lon="9.885040764745725"><ele>471.0</ele><time>2026-04-19T10:40:19Z</time></trkpt><trkpt lat="44.73274175851105" lon="9.885161442214473"><ele>474.0</ele><time>2026-04-19T10:40:20Z</time></trkpt><trkpt lat="44.732755626773034" lon="9.885273462777066"><ele>477.0</ele><time>2026-04-19T10:40:21Z</time></trkpt><trkpt lat="44.732764288826694" lon="9.885402966733853"><ele>480.0</ele><time>2026-04-19T10:40:22Z</time></trkpt><trkpt lat="44.73278825700115" lon="9.885547761324947"><ele>483.0</ele><time>2026-04-19T10:40:23Z</time></trkpt><trkpt lat="44.732806887461166" lon="9.885719484763015"><ele>486.0</ele><time>2026-04-19T10:40:24Z</time></trkpt><trkpt lat="44.73281825690829" lon="9.885889436365776"><ele>487.20000000000005</ele><time>2026-04-19T10:40:25Z</time></trkpt><trkpt lat="44.73283637869418" lon="9.886079500847968"><ele>488.40000000000003</ele><time>2026-04-19T10:40:26Z</time></trkpt><trkpt lat="44.73286005017872" lon="9.886225955372922"><ele>489.6</ele><time>2026-04-19T10:40:27Z</time></trkpt><trkpt lat="44.732903698834114" lon="9.886365295225158"><ele>490.8</ele><time>2026-04-19T10:40:29Z</time></trkpt><trkpt lat="44.73295308473967" lon="9.886433662175115"><ele>492.0</ele><time>2026-04-19T10:40:30Z</time></trkpt><trkpt lat="44.733019108772915" lon="9.88652921021839"><ele>492.0</ele><time>2026-04-19T10:40:31Z</time></trkpt><trkpt lat="44.73307234191898" lon="9.886620930816095"><ele>492.00000000000006</ele><time>2026-04-19T10:40:32Z</time></trkpt><trkpt lat="44.73314865446928" lon="9.886676528242026"><ele>492.00000000000006</ele><time>2026-04-19T10:40:33Z</time></trkpt><trkpt lat="44.73321061559718" lon="9.886731649020946"><ele>492.0</ele><time>2026-04-19T10:40:34Z</time></trkpt><trkpt lat="44.73329970530722" lon="9.886883314374213"><ele>492.0</ele><time>2026-04-19T10:40:36Z</time></trkpt><trkpt lat="44.73333456093321" lon="9.886989573463936"><ele>492.20000000000005</ele><time>2026-04-19T10:40:38Z</time></trkpt><trkpt lat="44.73335234846396" lon="9.887182874269179"><ele>492.40000000000003</ele><time>2026-04-19T10:40:40Z</time></trkpt><trkpt lat="44.73336553611942" lon="9.887316788595646"><ele>492.59999999999997</ele><time>2026-04-19T10:40:41Z</time></trkpt><trkpt lat="44.733385646202635" lon="9.88746131740932"><ele>492.79999999999995</ele><time>2026-04-19T10:40:42Z</time></trkpt><trkpt lat="44.73340724715357" lon="9.887591444358165"><ele>493.0</ele><time>2026-04-19T10:40:43Z</time></trkpt><trkpt lat="44.73343082771232" lon="9.887703359669333"><ele>493.1666666666667</ele><time>2026-04-19T10:40:44Z</time></trkpt><trkpt lat="44.73345039849001" lon="9.887810678541195"><ele>493.33333333333337</ele><time>2026-04-19T10:40:45Z</time></trkpt><trkpt lat="44.73347030803986" lon="9.887917066809505"><ele>493.5</ele><time>2026-04-19T10:40:46Z</time></trkpt><trkpt lat="44.733498562261815" lon="9.888010099542285"><ele>493.66666666666663</ele><time>2026-04-19T10:40:47Z</time></trkpt><trkpt lat="44.73352681667381" lon="9.888147959671512"><ele>493.8333333333333</ele><time>2026-04-19T10:40:49Z</time></trkpt><trkpt lat="44.733481632371316" lon="9.888256095470112"><ele>494.0</ele><time>2026-04-19T10:40:51Z</time></trkpt><trkpt lat="44.73342064307735" lon="9.888305465643988"><ele>493.99999999999994</ele><time>2026-04-19T10:40:52Z</time></trkpt><trkpt lat="44.73332215749282" lon="9.888350471681786"><ele>494.0</ele><time>2026-04-19T10:40:53Z</time></trkpt><trkpt lat="44.73322337267277" lon="9.888394443317225"><ele>494.0</ele><time>2026-04-19T10:40:54Z</time></trkpt><trkpt lat="44.733161145140365" lon="9.888452661594243"><ele>494.0</ele><time>2026-04-19T10:40:55Z</time></trkpt><trkpt lat="44.73309788839683" lon="9.888510808390391"><ele>493.99999999999994</ele><time>2026-04-19T10:40:56Z</time></trkpt><trkpt lat="44.73302383286867" lon="9.888582202463642"><ele>494.0</ele><time>2026-04-19T10:40:57Z</time></trkpt><trkpt lat="44.73293927482748" lon="9.888665040216628"><ele>494.0</ele><time>2026-04-19T10:40:58Z</time></trkpt><trkpt lat="44.732843133604895" lon="9.888758355357526"><ele>494.0</ele><time>2026-04-19T10:40:59Z</time></trkpt><trkpt lat="44.73275640639395" lon="9.888841147229753"><ele>494.0</ele><time>2026-04-19T10:41:00Z</time></trkpt><trkpt lat="44.73269524828006" lon="9.888901341581853"><ele>494.0</ele><time>2026-04-19T10:41:01Z</time></trkpt><trkpt lat="44.73263306373901" lon="9.88894522766396"><ele>494.0</ele><time>2026-04-19T10:41:02Z</time></trkpt><trkpt lat="44.73254593028356" lon="9.88897592502428"><ele>495.0</ele><time>2026-04-19T10:41:03Z</time></trkpt><trkpt lat="44.73243670760568" lon="9.888970132547895"><ele>496.0</ele><time>2026-04-19T10:41:04Z</time></trkpt><trkpt lat="44.73230129743823" lon="9.888942011703708"><ele>497.0</ele><time>2026-04-19T10:41:05Z</time></trkpt><trkpt lat="44.73215259092021" lon="9.888901060094334"><ele>498.0</ele><time>2026-04-19T10:41:06Z</time></trkpt><trkpt lat="44.73204179925876" lon="9.888881696612923"><ele>498.0</ele><time>2026-04-19T10:41:07Z</time></trkpt><trkpt lat="44.7319700572642" lon="9.88886396454062"><ele>498.0</ele><time>2026-04-19T10:41:08Z</time></trkpt><trkpt lat="44.731902864168" lon="9.888845540676106"><ele>498.0</ele><time>2026-04-19T10:41:09Z</time></trkpt><trkpt lat="44.731841274076764" lon="9.888821483994107"><ele>498.0</ele><time>2026-04-19T10:41:10Z</time></trkpt><trkpt lat="44.7317673158342" lon="9.888791285797188"><ele>498.0</ele><time>2026-04-19T10:41:11Z</time></trkpt><trkpt lat="44.73168855217747" lon="9.888745008823129"><ele>498.0</ele><time>2026-04-19T10:41:12Z</time></trkpt><trkpt lat="44.73160508401314" lon="9.888678403142697"><ele>498.2</ele><time>2026-04-19T10:41:13Z</time></trkpt><trkpt lat="44.73151798144733" lon="9.8885999337858"><ele>498.4</ele><time>2026-04-19T10:41:14Z</time></trkpt><trkpt lat="44.73144361332546" lon="9.888530769583442"><ele>498.59999999999997</ele><time>2026-04-19T10:41:15Z</time></trkpt><trkpt lat="44.73136162809106" lon="9.888474457040543"><ele>498.79999999999995</ele><time>2026-04-19T10:41:16Z</time></trkpt><trkpt lat="44.7312862095359" lon="9.888374550648718"><ele>499.0</ele><time>2026-04-19T10:41:17Z</time></trkpt><trkpt lat="44.73122334087716" lon="9.888274726975029"><ele>499.00000000000006</ele><time>2026-04-19T10:41:18Z</time></trkpt><trkpt lat="44.73123068075239" lon="9.888132638138439"><ele>499.0</ele><time>2026-04-19T10:41:19Z</time></trkpt><trkpt lat="44.73120142394474" lon="9.888038219718457"><ele>499.0</ele><time>2026-04-19T10:41:20Z</time></trkpt><trkpt lat="44.73116603593204" lon="9.887951301780406"><ele>499.0</ele><time>2026-04-19T10:41:21Z</time></trkpt><trkpt lat="44.731126240108004" lon="9.88786916160673"><ele>499.00000000000006</ele><time>2026-04-19T10:41:23Z</time></trkpt><trkpt lat="44.73108214030909" lon="9.887792965490476"><ele>499.0</ele><time>2026-04-19T10:41:26Z</time></trkpt><trkpt lat="44.73109148514277" lon="9.887702875304546"><ele>499.00000000000006</ele><time>2026-04-19T10:41:30Z</time></trkpt><trkpt lat="44.731140705214855" lon="9.887636506424744"><ele>499.0</ele><time>2026-04-19T10:41:31Z</time></trkpt><trkpt lat="44.731188948564615" lon="9.887525360536104"><ele>499.0</ele><time>2026-04-19T10:41:36Z</time></trkpt><trkpt lat="44.73118153470293" lon="9.88743379828693"><ele>499.0</ele><time>2026-04-19T10:41:38Z</time></trkpt><trkpt lat="44.73118939238752" lon="9.887333779269005"><ele>499.00000000000006</ele><time>2026-04-19T10:41:43Z</time></trkpt><trkpt lat="44.731176097159896" lon="9.887200860471053"><ele>499.0</ele><time>2026-04-19T10:41:48Z</time></trkpt><trkpt lat="44.731094297228566" lon="9.887203025727187"><ele>499.1428571428572</ele><time>2026-04-19T10:43:35Z</time></trkpt><trkpt lat="44.73114527403076" lon="9.887147404776782"><ele>499.28571428571433</ele><time>2026-04-19T10:44:09Z</time></trkpt><trkpt lat="44.73121239632721" lon="9.887103543164397"><ele>499.42857142857144</ele><time>2026-04-19T10:44:21Z</time></trkpt><trkpt lat="44.73128469950087" lon="9.887093712914778"><ele>499.5714285714286</ele><time>2026-04-19T10:44:30Z</time></trkpt><trkpt lat="44.73134933883614" lon="9.887115937911673"><ele>499.7142857142858</ele><time>2026-04-19T10:44:39Z</time></trkpt><trkpt lat="44.73140501888835" lon="9.887214915907025"><ele>499.85714285714283</ele><time>2026-04-19T10:46:07Z</time></trkpt><trkpt lat="44.73136341367122" lon="9.88713802632641"><ele>500.0</ele><time>2026-04-19T10:53:45Z</time></trkpt><trkpt lat="44.73129351461082" lon="9.887139523011694"><ele>499.99999999999994</ele><time>2026-04-19T10:54:01Z</time></trkpt><trkpt lat="44.731228104044824" lon="9.887138868141841"><ele>500.0</ele><time>2026-04-19T10:54:13Z</time></trkpt><trkpt lat="44.731163991105895" lon="9.887143629142"><ele>500.0</ele><time>2026-04-19T10:54:20Z</time></trkpt><trkpt lat="44.73109957569518" lon="9.887143930665191"><ele>500.0</ele><time>2026-04-19T10:54:38Z</time></trkpt><trkpt lat="44.73117774364605" lon="9.887151410041193"><ele>499.99999999999994</ele><time>2026-04-19T11:05:04Z</time></trkpt><trkpt lat="44.73117954399853" lon="9.887303733612983"><ele>500.0</ele><time>2026-04-19T11:05:07Z</time></trkpt><trkpt lat="44.73116296083288" lon="9.887454955725124"><ele>500.0</ele><time>2026-04-19T11:05:09Z</time></trkpt><trkpt lat="44.73117413885077" lon="9.887557156759298"><ele>500.0</ele><time>2026-04-19T11:05:11Z</time></trkpt><trkpt lat="44.73110968915802" lon="9.887668068097911"><ele>500.0</ele><time>2026-04-19T11:05:13Z</time></trkpt><trkpt lat="44.731046410549645" lon="9.887751167952336"><ele>500.0</ele><time>2026-04-19T11:05:15Z</time></trkpt><trkpt lat="44.73096945133864" lon="9.887848216151871"><ele>500.0</ele><time>2026-04-19T11:05:17Z</time></trkpt><trkpt lat="44.73094486771073" lon="9.887962721820273"><ele>501.99999999999994</ele><time>2026-04-19T11:05:19Z</time></trkpt><trkpt lat="44.73093869407986" lon="9.888068173722194"><ele>504.0</ele><time>2026-04-19T11:05:20Z</time></trkpt><trkpt lat="44.730945834433605" lon="9.888222568855115"><ele>506.0</ele><time>2026-04-19T11:05:22Z</time></trkpt><trkpt lat="44.730950924075685" lon="9.888314764633844"><ele>508.0</ele><time>2026-04-19T11:05:23.001Z</time></trkpt><trkpt lat="44.73096062927246" lon="9.88841311774655"><ele>509.99999999999994</ele><time>2026-04-19T11:05:24.001Z</time></trkpt><trkpt lat="44.73099026852615" lon="9.888587526104066"><ele>512.0</ele><time>2026-04-19T11:05:26.001Z</time></trkpt><trkpt lat="44.7310106960547" lon="9.888684504344399"><ele>512.6666666666666</ele><time>2026-04-19T11:05:27.001Z</time></trkpt><trkpt lat="44.73104630995108" lon="9.888781384798754"><ele>513.3333333333333</ele><time>2026-04-19T11:05:28.001Z</time></trkpt><trkpt lat="44.73106965120095" lon="9.888875657242872"><ele>514.0</ele><time>2026-04-19T11:05:29.001Z</time></trkpt><trkpt lat="44.73110070767635" lon="9.888965123515671"><ele>514.6666666666666</ele><time>2026-04-19T11:05:30.001Z</time></trkpt><trkpt lat="44.731125951763616" lon="9.889070860942342"><ele>515.3333333333334</ele><time>2026-04-19T11:05:31.001Z</time></trkpt><trkpt lat="44.731159227582786" lon="9.889176477952816"><ele>516.0</ele><time>2026-04-19T11:05:32.001Z</time></trkpt><trkpt lat="44.73118941924399" lon="9.88927716936281"><ele>516.0</ele><time>2026-04-19T11:05:33.001Z</time></trkpt><trkpt lat="44.73122700634293" lon="9.889377336036926"><ele>516.0</ele><time>2026-04-19T11:05:34.001Z</time></trkpt><trkpt lat="44.731268070674375" lon="9.889476976085543"><ele>516.0</ele><time>2026-04-19T11:05:35.001Z</time></trkpt><trkpt lat="44.7313105510759" lon="9.889576096403331"><ele>516.0</ele><time>2026-04-19T11:05:36.001Z</time></trkpt><trkpt lat="44.73135319726653" lon="9.889679238706709"><ele>516.0</ele><time>2026-04-19T11:05:37.001Z</time></trkpt><trkpt lat="44.731398562999296" lon="9.889772979906986"><ele>516.0</ele><time>2026-04-19T11:05:38.001Z</time></trkpt><trkpt lat="44.73144767239844" lon="9.889857413935506"><ele>516.0</ele><time>2026-04-19T11:05:39.001Z</time></trkpt><trkpt lat="44.73150782257228" lon="9.889935887822903"><ele>516.0</ele><time>2026-04-19T11:05:40.001Z</time></trkpt><trkpt lat="44.73156080667229" lon="9.890024562332904"><ele>516.0</ele><time>2026-04-19T11:05:41.001Z</time></trkpt><trkpt lat="44.731605453459785" lon="9.890131184163259"><ele>516.0</ele><time>2026-04-19T11:05:42.001Z</time></trkpt><trkpt lat="44.7316352556888" lon="9.890252142870954"><ele>516.0</ele><time>2026-04-19T11:05:43.001Z</time></trkpt><trkpt lat="44.731665414864565" lon="9.89038374392738"><ele>516.0</ele><time>2026-04-19T11:05:44.001Z</time></trkpt><trkpt lat="44.731697292232184" lon="9.890508604431758"><ele>516.4</ele><time>2026-04-19T11:05:45.001Z</time></trkpt><trkpt lat="44.73174008421673" lon="9.890630381865611"><ele>516.8</ele><time>2026-04-19T11:05:46.001Z</time></trkpt><trkpt lat="44.731785955698825" lon="9.890755563072812"><ele>517.1999999999999</ele><time>2026-04-19T11:05:47.001Z</time></trkpt><trkpt lat="44.73183076346448" lon="9.890883239082445"><ele>517.6</ele><time>2026-04-19T11:05:48.001Z</time></trkpt><trkpt lat="44.731864250307616" lon="9.890989354514675"><ele>518.0</ele><time>2026-04-19T11:05:49Z</time></trkpt><trkpt lat="44.73190451621244" lon="9.891099039024779"><ele>518.0</ele><time>2026-04-19T11:05:50Z</time></trkpt><trkpt lat="44.73192511019932" lon="9.891221481357936"><ele>518.0</ele><time>2026-04-19T11:05:51Z</time></trkpt><trkpt lat="44.731919535550354" lon="9.891349638536896"><ele>518.0</ele><time>2026-04-19T11:05:52Z</time></trkpt><trkpt lat="44.731908174543086" lon="9.891480596886932"><ele>518.0</ele><time>2026-04-19T11:05:53Z</time></trkpt><trkpt lat="44.73189794525043" lon="9.891609829146839"><ele>518.0</ele><time>2026-04-19T11:05:54Z</time></trkpt><trkpt lat="44.731904924734984" lon="9.891750022848331"><ele>519.75</ele><time>2026-04-19T11:05:55Z</time></trkpt><trkpt lat="44.73191811778476" lon="9.8919003776435"><ele>521.5</ele><time>2026-04-19T11:05:56Z</time></trkpt><trkpt lat="44.731943449968576" lon="9.8920574297178"><ele>523.25</ele><time>2026-04-19T11:05:57Z</time></trkpt><trkpt lat="44.73198202485146" lon="9.89222422779289"><ele>525.0</ele><time>2026-04-19T11:05:58Z</time></trkpt><trkpt lat="44.73203624664594" lon="9.892395135191915"><ele>525.0</ele><time>2026-04-19T11:05:59Z</time></trkpt><trkpt lat="44.732078719553286" lon="9.892528437159346"><ele>525.0</ele><time>2026-04-19T11:06:00Z</time></trkpt><trkpt lat="44.73210781521833" lon="9.892655976129289"><ele>525.0</ele><time>2026-04-19T11:06:01Z</time></trkpt><trkpt lat="44.73214376611513" lon="9.892787828712517"><ele>525.0</ele><time>2026-04-19T11:06:02Z</time></trkpt><trkpt lat="44.73218462441903" lon="9.892918446475184"><ele>525.0</ele><time>2026-04-19T11:06:03Z</time></trkpt><trkpt lat="44.7322284665836" lon="9.893049914102285"><ele>527.0</ele><time>2026-04-19T11:06:04Z</time></trkpt><trkpt lat="44.73227449507861" lon="9.893190647832443"><ele>529.0</ele><time>2026-04-19T11:06:05Z</time></trkpt><trkpt lat="44.73233851173776" lon="9.893322888044485"><ele>531.0</ele><time>2026-04-19T11:06:06Z</time></trkpt><trkpt lat="44.732409813682025" lon="9.893457716603677"><ele>533.0</ele><time>2026-04-19T11:06:07Z</time></trkpt><trkpt lat="44.73247861593151" lon="9.893597751637916"><ele>533.1999999999999</ele><time>2026-04-19T11:06:08Z</time></trkpt><trkpt lat="44.73254446921345" lon="9.893732987154104"><ele>533.4</ele><time>2026-04-19T11:06:09Z</time></trkpt><trkpt lat="44.73259689397297" lon="9.893843492976528"><ele>533.5999999999999</ele><time>2026-04-19T11:06:10Z</time></trkpt><trkpt lat="44.73264608938136" lon="9.89396090328628"><ele>533.8</ele><time>2026-04-19T11:06:11Z</time></trkpt><trkpt lat="44.73269747567586" lon="9.894083372929106"><ele>534.0</ele><time>2026-04-19T11:06:12Z</time></trkpt><trkpt lat="44.73275835812312" lon="9.894202275158598"><ele>536.4</ele><time>2026-04-19T11:06:13Z</time></trkpt><trkpt lat="44.73282408407388" lon="9.894322257340242"><ele>538.8</ele><time>2026-04-19T11:06:14Z</time></trkpt><trkpt lat="44.7328793560937" lon="9.894453294716714"><ele>541.2</ele><time>2026-04-19T11:06:15Z</time></trkpt><trkpt lat="44.73292611108678" lon="9.894594454820012"><ele>543.6</ele><time>2026-04-19T11:06:16Z</time></trkpt><trkpt lat="44.73297083579511" lon="9.894741179808992"><ele>546.0</ele><time>2026-04-19T11:06:17Z</time></trkpt><trkpt lat="44.73302281807272" lon="9.89489257843592"><ele>546.0</ele><time>2026-04-19T11:06:18Z</time></trkpt><trkpt lat="44.73307705213755" lon="9.895042574012654"><ele>546.0</ele><time>2026-04-19T11:06:19Z</time></trkpt><trkpt lat="44.73314200840486" lon="9.89518281993822"><ele>546.0</ele><time>2026-04-19T11:06:20Z</time></trkpt><trkpt lat="44.733199702098354" lon="9.895329060825732"><ele>546.0</ele><time>2026-04-19T11:06:21Z</time></trkpt><trkpt lat="44.733274395861585" lon="9.895457026866705"><ele>548.0</ele><time>2026-04-19T11:06:22Z</time></trkpt><trkpt lat="44.73332816289702" lon="9.895597410282488"><ele>550.0</ele><time>2026-04-19T11:06:23Z</time></trkpt><trkpt lat="44.73338371719962" lon="9.89573459911679"><ele>552.0</ele><time>2026-04-19T11:06:24Z</time></trkpt><trkpt lat="44.73343696860442" lon="9.89587128246599"><ele>554.0</ele><time>2026-04-19T11:06:25Z</time></trkpt><trkpt lat="44.73347195305361" lon="9.895990461878759"><ele>556.0</ele><time>2026-04-19T11:06:26Z</time></trkpt><trkpt lat="44.733486789872224" lon="9.896092661562752"><ele>556.8333333333334</ele><time>2026-04-19T11:06:27Z</time></trkpt><trkpt lat="44.73347608488769" lon="9.896211309181053"><ele>557.6666666666667</ele><time>2026-04-19T11:06:28Z</time></trkpt><trkpt lat="44.73343234936904" lon="9.896331406603966"><ele>558.5</ele><time>2026-04-19T11:06:29Z</time></trkpt><trkpt lat="44.733413932274445" lon="9.89645119116636"><ele>559.3333333333334</ele><time>2026-04-19T11:06:30Z</time></trkpt><trkpt lat="44.73338097374078" lon="9.89656881129861"><ele>560.1666666666666</ele><time>2026-04-19T11:06:32Z</time></trkpt><trkpt lat="44.73332911354226" lon="9.8966332561242"><ele>561.0</ele><time>2026-04-19T11:06:35Z</time></trkpt><trkpt lat="44.73326192434375" lon="9.896651653926208"><ele>561.0</ele><time>2026-04-19T11:06:36Z</time></trkpt><trkpt lat="44.73318217384514" lon="9.896679680666908"><ele>561.0</ele><time>2026-04-19T11:06:37Z</time></trkpt><trkpt lat="44.733095455756164" lon="9.896691740403405"><ele>561.0</ele><time>2026-04-19T11:06:38Z</time></trkpt><trkpt lat="44.73299715847994" lon="9.896707304218276"><ele>561.0</ele><time>2026-04-19T11:06:39Z</time></trkpt><trkpt lat="44.732892505200724" lon="9.896743268628253"><ele>561.0</ele><time>2026-04-19T11:06:40Z</time></trkpt><trkpt lat="44.73280241009794" lon="9.896746099486204"><ele>562.2</ele><time>2026-04-19T11:06:41Z</time></trkpt><trkpt lat="44.73272189605083" lon="9.896732547878457"><ele>563.4000000000001</ele><time>2026-04-19T11:06:42Z</time></trkpt><trkpt lat="44.73262279013809" lon="9.896703194494012"><ele>564.6</ele><time>2026-04-19T11:06:43Z</time></trkpt><trkpt lat="44.732523407666996" lon="9.89661868712309"><ele>565.8000000000001</ele><time>2026-04-19T11:06:44Z</time></trkpt><trkpt lat="44.732424102218005" lon="9.896521917967702"><ele>567.0</ele><time>2026-04-19T11:06:45Z</time></trkpt><trkpt lat="44.732322813262904" lon="9.896401895170566"><ele>567.0</ele><time>2026-04-19T11:06:46Z</time></trkpt><trkpt lat="44.732207671986295" lon="9.896307888239646"><ele>567.0</ele><time>2026-04-19T11:06:47Z</time></trkpt><trkpt lat="44.732107959440604" lon="9.896238556285155"><ele>567.0</ele><time>2026-04-19T11:06:48Z</time></trkpt><trkpt lat="44.7320059103701" lon="9.896171742210987"><ele>567.0</ele><time>2026-04-19T11:06:49Z</time></trkpt><trkpt lat="44.73187132905263" lon="9.896227062591759"><ele>568.2</ele><time>2026-04-19T11:06:50Z</time></trkpt><trkpt lat="44.73174653146732" lon="9.896273439571026"><ele>569.4000000000001</ele><time>2026-04-19T11:06:51Z</time></trkpt><trkpt lat="44.73162858265808" lon="9.896338232494328"><ele>570.5999999999999</ele><time>2026-04-19T11:06:52Z</time></trkpt><trkpt lat="44.731544986031764" lon="9.896384380977914"><ele>571.8</ele><time>2026-04-19T11:06:53Z</time></trkpt><trkpt lat="44.73146088281331" lon="9.89638909409767"><ele>573.0</ele><time>2026-04-19T11:06:58Z</time></trkpt><trkpt lat="44.73130909008833" lon="9.896290456337173"><ele>573.0</ele><time>2026-04-19T11:07:00Z</time></trkpt><trkpt lat="44.7312678187407" lon="9.896148351261923"><ele>573.0</ele><time>2026-04-19T11:07:03Z</time></trkpt><trkpt lat="44.73124319139336" lon="9.896044600285748"><ele>573.0</ele><time>2026-04-19T11:07:04Z</time></trkpt><trkpt lat="44.731216313075365" lon="9.895941706092357"><ele>573.0</ele><time>2026-04-19T11:07:05Z</time></trkpt><trkpt lat="44.73119148352796" lon="9.895835550802646"><ele>573.0</ele><time>2026-04-19T11:07:06Z</time></trkpt><trkpt lat="44.73126978581466" lon="9.895692245970592"><ele>572.8</ele><time>2026-04-19T11:07:07Z</time></trkpt><trkpt lat="44.731260975230285" lon="9.895544609299348"><ele>572.5999999999999</ele><time>2026-04-19T11:07:09Z</time></trkpt><trkpt lat="44.731253405873844" lon="9.89544501688093"><ele>572.4000000000001</ele><time>2026-04-19T11:07:10Z</time></trkpt><trkpt lat="44.73125020178875" lon="9.895328923364595"><ele>572.2</ele><time>2026-04-19T11:07:11Z</time></trkpt><trkpt lat="44.73119769363366" lon="9.895198127302693"><ele>572.0</ele><time>2026-04-19T11:07:13Z</time></trkpt><trkpt lat="44.73114879416325" lon="9.895072264112097"><ele>571.4</ele><time>2026-04-19T11:07:15Z</time></trkpt><trkpt lat="44.731098854792464" lon="9.894986346276943"><ele>570.8000000000001</ele><time>2026-04-19T11:07:17Z</time></trkpt><trkpt lat="44.731024810531565" lon="9.894952872242277"><ele>570.2</ele><time>2026-04-19T11:07:19Z</time></trkpt><trkpt lat="44.73096323730888" lon="9.895020765837728"><ele>569.6</ele><time>2026-04-19T11:07:21Z</time></trkpt><trkpt lat="44.730920777620675" lon="9.895171146741399"><ele>569.0</ele><time>2026-04-19T11:07:23Z</time></trkpt><trkpt lat="44.73086449539992" lon="9.895314693382286"><ele>575.75</ele><time>2026-04-19T11:07:25Z</time></trkpt><trkpt lat="44.73080185752965" lon="9.895439789697473"><ele>582.5</ele><time>2026-04-19T11:07:27Z</time></trkpt><trkpt lat="44.73077236516374" lon="9.89559677862269"><ele>589.25</ele><time>2026-04-19T11:07:29.001Z</time></trkpt><trkpt lat="44.73075463431569" lon="9.89577543233738"><ele>596.0</ele><time>2026-04-19T11:07:31.001Z</time></trkpt><trkpt lat="44.73075994146557" lon="9.895966824259732"><ele>596.6666666666666</ele><time>2026-04-19T11:07:33.001Z</time></trkpt><trkpt lat="44.73075467507301" lon="9.896055712588131"><ele>597.3333333333333</ele><time>2026-04-19T11:07:34.001Z</time></trkpt><trkpt lat="44.73075630391343" lon="9.896151652338304"><ele>598.0</ele><time>2026-04-19T11:07:35.001Z</time></trkpt><trkpt lat="44.73073668582606" lon="9.89624561857589"><ele>598.6666666666666</ele><time>2026-04-19T11:07:36.001Z</time></trkpt><trkpt lat="44.73069866128783" lon="9.89640988446538"><ele>599.3333333333334</ele><time>2026-04-19T11:07:38.001Z</time></trkpt><trkpt lat="44.7306758336314" lon="9.896504941224043"><ele>600.0</ele><time>2026-04-19T11:07:39.001Z</time></trkpt><trkpt lat="44.73065348133125" lon="9.896670670764191"><ele>599.3333333333334</ele><time>2026-04-19T11:07:40.001Z</time></trkpt><trkpt lat="44.73066220704364" lon="9.896802798215719"><ele>598.6666666666666</ele><time>2026-04-19T11:07:41.001Z</time></trkpt><trkpt lat="44.730669205565704" lon="9.896910985365283"><ele>598.0</ele><time>2026-04-19T11:07:42.001Z</time></trkpt><trkpt lat="44.73065408312155" lon="9.89700705670212"><ele>597.3333333333333</ele><time>2026-04-19T11:07:43.001Z</time></trkpt><trkpt lat="44.73064565148079" lon="9.897101883160248"><ele>596.6666666666666</ele><time>2026-04-19T11:07:44.001Z</time></trkpt><trkpt lat="44.730563537930884" lon="9.89723067980504"><ele>596.0</ele><time>2026-04-19T11:07:46.001Z</time></trkpt><trkpt lat="44.73051484646028" lon="9.897309735900045"><ele>596.0</ele><time>2026-04-19T11:07:47.001Z</time></trkpt><trkpt lat="44.73043836666344" lon="9.897473612376212"><ele>596.0</ele><time>2026-04-19T11:07:49Z</time></trkpt><trkpt lat="44.73036685239396" lon="9.897543412538916"><ele>596.0</ele><time>2026-04-19T11:07:50Z</time></trkpt><trkpt lat="44.73029041166149" lon="9.897617367157242"><ele>596.0</ele><time>2026-04-19T11:07:51Z</time></trkpt><trkpt lat="44.73022285070126" lon="9.897713006591406"><ele>596.0</ele><time>2026-04-19T11:07:52Z</time></trkpt><trkpt lat="44.730166712859024" lon="9.897776780089616"><ele>600.1666666666666</ele><time>2026-04-19T11:07:53Z</time></trkpt><trkpt lat="44.730054008257895" lon="9.897821843245646"><ele>604.3333333333333</ele><time>2026-04-19T11:07:55Z</time></trkpt><trkpt lat="44.72998234909782" lon="9.897856882521001"><ele>608.5</ele><time>2026-04-19T11:07:56Z</time></trkpt><trkpt lat="44.72991510055979" lon="9.897887877833488"><ele>612.6666666666666</ele><time>2026-04-19T11:07:57Z</time></trkpt><trkpt lat="44.729846747838025" lon="9.897915849570074"><ele>616.8333333333334</ele><time>2026-04-19T11:07:58Z</time></trkpt><trkpt lat="44.729780838924114" lon="9.897951432895882"><ele>621.0</ele><time>2026-04-19T11:07:59Z</time></trkpt><trkpt lat="44.72970973741681" lon="9.897980110140962"><ele>621.0</ele><time>2026-04-19T11:08:00Z</time></trkpt><trkpt lat="44.729621844702066" lon="9.898025805199692"><ele>621.0</ele><time>2026-04-19T11:08:01Z</time></trkpt><trkpt lat="44.7295351121342" lon="9.898046746813021"><ele>621.0</ele><time>2026-04-19T11:08:02Z</time></trkpt><trkpt lat="44.72945303735932" lon="9.898042301617693"><ele>621.0</ele><time>2026-04-19T11:08:03Z</time></trkpt><trkpt lat="44.72936901230941" lon="9.898025390274483"><ele>621.0</ele><time>2026-04-19T11:08:04Z</time></trkpt><trkpt lat="44.72928577496752" lon="9.897996225810727"><ele>621.0</ele><time>2026-04-19T11:08:05Z</time></trkpt><trkpt lat="44.729201012938134" lon="9.897964976135485"><ele>625.8333333333334</ele><time>2026-04-19T11:08:06Z</time></trkpt><trkpt lat="44.72912469405268" lon="9.89794790573694"><ele>630.6666666666666</ele><time>2026-04-19T11:08:07Z</time></trkpt><trkpt lat="44.72900215193428" lon="9.89787976056567"><ele>635.5</ele><time>2026-04-19T11:08:09Z</time></trkpt><trkpt lat="44.72893617674819" lon="9.897901003404442"><ele>640.3333333333333</ele><time>2026-04-19T11:08:10Z</time></trkpt><trkpt lat="44.72887798323314" lon="9.89794328239779"><ele>645.1666666666666</ele><time>2026-04-19T11:08:11Z</time></trkpt><trkpt lat="44.72878966077459" lon="9.898000026890475"><ele>650.0</ele><time>2026-04-19T11:08:13Z</time></trkpt><trkpt lat="44.72869240846106" lon="9.89802369264286"><ele>650.0</ele><time>2026-04-19T11:08:15Z</time></trkpt><trkpt lat="44.72861967534927" lon="9.898105009648246"><ele>650.0</ele><time>2026-04-19T11:08:17Z</time></trkpt><trkpt lat="44.72858183086691" lon="9.898229541165335"><ele>650.0</ele><time>2026-04-19T11:08:19Z</time></trkpt><trkpt lat="44.728519825195875" lon="9.898341360975065"><ele>650.0</ele><time>2026-04-19T11:08:21Z</time></trkpt><trkpt lat="44.72846388413685" lon="9.89845713380105"><ele>650.0</ele><time>2026-04-19T11:08:23Z</time></trkpt><trkpt lat="44.72852558929757" lon="9.898598969602084"><ele>650.6</ele><time>2026-04-19T11:08:26Z</time></trkpt><trkpt lat="44.728594065853066" lon="9.898679059602332"><ele>651.2</ele><time>2026-04-19T11:08:27Z</time></trkpt><trkpt lat="44.72864412147491" lon="9.898811794613833"><ele>651.8</ele><time>2026-04-19T11:08:29Z</time></trkpt><trkpt lat="44.72865215187863" lon="9.898941449952682"><ele>652.4</ele><time>2026-04-19T11:08:30Z</time></trkpt><trkpt lat="44.72869672837188" lon="9.899055089388975"><ele>653.0</ele><time>2026-04-19T11:08:31Z</time></trkpt><trkpt lat="44.728677604557085" lon="9.899173551819121"><ele>654.0</ele><time>2026-04-19T11:08:33Z</time></trkpt><trkpt lat="44.72868981702488" lon="9.899320278181357"><ele>655.0</ele><time>2026-04-19T11:08:35Z</time></trkpt><trkpt lat="44.72874306960546" lon="9.899433499566006"><ele>656.0</ele><time>2026-04-19T11:08:36Z</time></trkpt><trkpt lat="44.72878195927251" lon="9.899556045301106"><ele>657.0</ele><time>2026-04-19T11:08:37Z</time></trkpt><trkpt lat="44.72877745079871" lon="9.899721122141836"><ele>658.0</ele><time>2026-04-19T11:08:39Z</time></trkpt><trkpt lat="44.728735192879356" lon="9.899791495394043"><ele>658.0</ele><time>2026-04-19T11:08:41Z</time></trkpt><trkpt lat="44.72867297895365" lon="9.899931989423013"><ele>658.0</ele><time>2026-04-19T11:08:43Z</time></trkpt><trkpt lat="44.72860621519492" lon="9.900053780505308"><ele>658.0</ele><time>2026-04-19T11:08:44Z</time></trkpt><trkpt lat="44.72855396000265" lon="9.900157000316955"><ele>658.0</ele><time>2026-04-19T11:08:45Z</time></trkpt><trkpt lat="44.728562893507466" lon="9.90031423646305"><ele>658.0</ele><time>2026-04-19T11:08:47Z</time></trkpt><trkpt lat="44.72859286635662" lon="9.90041033699281"><ele>659.3333333333334</ele><time>2026-04-19T11:08:48Z</time></trkpt><trkpt lat="44.72860974983284" lon="9.900514310931376"><ele>660.6666666666667</ele><time>2026-04-19T11:08:50Z</time></trkpt><trkpt lat="44.728589391524494" lon="9.900613413582501"><ele>662.0</ele><time>2026-04-19T11:08:51Z</time></trkpt><trkpt lat="44.72856113574835" lon="9.900726368563038"><ele>663.3333333333334</ele><time>2026-04-19T11:08:52Z</time></trkpt><trkpt lat="44.728507583956336" lon="9.900824758678487"><ele>664.6666666666666</ele><time>2026-04-19T11:08:53Z</time></trkpt><trkpt lat="44.72848261249331" lon="9.900951127740285"><ele>666.0</ele><time>2026-04-19T11:08:55Z</time></trkpt><trkpt lat="44.72846317070619" lon="9.901080806517689"><ele>671.0</ele><time>2026-04-19T11:08:57Z</time></trkpt><trkpt lat="44.72845081101897" lon="9.9012802910827"><ele>676.0</ele><time>2026-04-19T11:08:59Z</time></trkpt><trkpt lat="44.728444084576736" lon="9.901420172293461"><ele>681.0</ele><time>2026-04-19T11:09:01Z</time></trkpt><trkpt lat="44.72860595956511" lon="9.901659996101406"><ele>681.0</ele><time>2026-04-19T11:09:07Z</time></trkpt><trkpt lat="44.728670258342774" lon="9.901685116264128"><ele>681.0</ele><time>2026-04-19T11:09:08Z</time></trkpt><trkpt lat="44.72875767516408" lon="9.901767531113606"><ele>681.0</ele><time>2026-04-19T11:09:10Z</time></trkpt><trkpt lat="44.72881416932697" lon="9.901932350053736"><ele>681.0</ele><time>2026-04-19T11:09:12Z</time></trkpt><trkpt lat="44.72883604648211" lon="9.902024327765046"><ele>681.0</ele><time>2026-04-19T11:09:13Z</time></trkpt><trkpt lat="44.72882613657913" lon="9.902170491501465"><ele>681.4</ele><time>2026-04-19T11:09:15Z</time></trkpt><trkpt lat="44.72882009198666" lon="9.902349106855224"><ele>681.8</ele><time>2026-04-19T11:09:17Z</time></trkpt><trkpt lat="44.72881949227467" lon="9.902442044900758"><ele>682.1999999999999</ele><time>2026-04-19T11:09:18Z</time></trkpt><trkpt lat="44.728824652926555" lon="9.902572272564699"><ele>682.5999999999999</ele><time>2026-04-19T11:09:19Z</time></trkpt><trkpt lat="44.72879855330797" lon="9.90268446023677"><ele>683.0</ele><time>2026-04-19T11:09:20Z</time></trkpt><trkpt lat="44.728780229158744" lon="9.902800162031605"><ele>683.5</ele><time>2026-04-19T11:09:21Z</time></trkpt><trkpt lat="44.728770920132" lon="9.902900419094857"><ele>684.0</ele><time>2026-04-19T11:09:22Z</time></trkpt><trkpt lat="44.72877000979568" lon="9.90302351951207"><ele>684.5</ele><time>2026-04-19T11:09:23Z</time></trkpt><trkpt lat="44.7287569834609" lon="9.90313711730946"><ele>685.0</ele><time>2026-04-19T11:09:25Z</time></trkpt><trkpt lat="44.72870278016038" lon="9.903241714190093"><ele>685.5</ele><time>2026-04-19T11:09:27Z</time></trkpt><trkpt lat="44.7286728244029" lon="9.903336864473184"><ele>686.0</ele><time>2026-04-19T11:09:28Z</time></trkpt><trkpt lat="44.72863920154028" lon="9.903421738928452"><ele>691.0</ele><time>2026-04-19T11:09:29Z</time></trkpt><trkpt lat="44.72854534381021" lon="9.903482937009729"><ele>696.0</ele><time>2026-04-19T11:09:31Z</time></trkpt><trkpt lat="44.72847020990569" lon="9.90346789695523"><ele>701.0</ele><time>2026-04-19T11:09:35.001Z</time></trkpt><trkpt lat="44.728413186624344" lon="9.9034094928706"><ele>706.0</ele><time>2026-04-19T11:09:37.001Z</time></trkpt><trkpt lat="44.7283802340858" lon="9.903294823854676"><ele>711.0</ele><time>2026-04-19T11:09:39.001Z</time></trkpt><trkpt lat="44.728295819546446" lon="9.903228803917807"><ele>716.0</ele><time>2026-04-19T11:09:41.001Z</time></trkpt><trkpt lat="44.72821944944724" lon="9.903154443270905"><ele>720.4</ele><time>2026-04-19T11:09:43.001Z</time></trkpt><trkpt lat="44.728188248109404" lon="9.903039180793227"><ele>724.8</ele><time>2026-04-19T11:09:45.001Z</time></trkpt><trkpt lat="44.72813460655342" lon="9.902941545890307"><ele>729.1999999999999</ele><time>2026-04-19T11:09:47Z</time></trkpt><trkpt lat="44.72806592085657" lon="9.902813819519206"><ele>733.5999999999999</ele><time>2026-04-19T11:09:49Z</time></trkpt><trkpt lat="44.7279857785492" lon="9.902696287289883"><ele>738.0</ele><time>2026-04-19T11:09:51Z</time></trkpt><trkpt lat="44.72791314863795" lon="9.902595921494722"><ele>738.0</ele><time>2026-04-19T11:09:53Z</time></trkpt><trkpt lat="44.72778088830077" lon="9.90266573494552"><ele>738.0</ele><time>2026-04-19T11:09:55Z</time></trkpt><trkpt lat="44.727706287640565" lon="9.902674295480297"><ele>738.0</ele><time>2026-04-19T11:09:56Z</time></trkpt><trkpt lat="44.72764155237108" lon="9.902591532662445"><ele>738.0</ele><time>2026-04-19T11:09:58Z</time></trkpt><trkpt lat="44.727463668077526" lon="9.902577815596446"><ele>740.6666666666666</ele><time>2026-04-19T11:09:59Z</time></trkpt><trkpt lat="44.72736750364118" lon="9.902602389135735"><ele>743.3333333333334</ele><time>2026-04-19T11:10:01Z</time></trkpt><trkpt lat="44.72729631881907" lon="9.90260538626368"><ele>746.0</ele><time>2026-04-19T11:10:02Z</time></trkpt><trkpt lat="44.72723596494662" lon="9.902576379861895"><ele>748.6666666666667</ele><time>2026-04-19T11:10:03Z</time></trkpt><trkpt lat="44.72717808081617" lon="9.902527288411356"><ele>751.3333333333334</ele><time>2026-04-19T11:10:04Z</time></trkpt><trkpt lat="44.727052051084094" lon="9.902525225611493"><ele>754.0</ele><time>2026-04-19T11:10:06Z</time></trkpt><trkpt lat="44.72698067084126" lon="9.902547781716217"><ele>759.3333333333334</ele><time>2026-04-19T11:10:07Z</time></trkpt><trkpt lat="44.72689028532087" lon="9.90254680099246"><ele>764.6666666666667</ele><time>2026-04-19T11:10:08Z</time></trkpt><trkpt lat="44.72680292429413" lon="9.902536561661439"><ele>770.0</ele><time>2026-04-19T11:10:09Z</time></trkpt><trkpt lat="44.72671093353688" lon="9.902519272069581"><ele>775.3333333333334</ele><time>2026-04-19T11:10:11Z</time></trkpt><trkpt lat="44.726631209526616" lon="9.90248263833484"><ele>780.6666666666666</ele><time>2026-04-19T11:10:12Z</time></trkpt><trkpt lat="44.726552081305414" lon="9.902455770458749"><ele>786.0</ele><time>2026-04-19T11:10:13Z</time></trkpt><trkpt lat="44.72648150251841" lon="9.902456590672848"><ele>786.0</ele><time>2026-04-19T11:10:14Z</time></trkpt><trkpt lat="44.72640344208289" lon="9.902426120589228"><ele>786.0</ele><time>2026-04-19T11:10:16Z</time></trkpt><trkpt lat="44.7262900386788" lon="9.902385271252236"><ele>786.0</ele><time>2026-04-19T11:10:18Z</time></trkpt><trkpt lat="44.726221479549366" lon="9.902412465944687"><ele>786.0</ele><time>2026-04-19T11:10:20Z</time></trkpt><trkpt lat="44.72622086979192" lon="9.902519155293593"><ele>786.0</ele><time>2026-04-19T11:10:23Z</time></trkpt><trkpt lat="44.726131843418614" lon="9.902581383028883"><ele>786.0</ele><time>2026-04-19T11:10:26Z</time></trkpt><trkpt lat="44.7260673585468" lon="9.902613088846577"><ele>786.8</ele><time>2026-04-19T11:10:27Z</time></trkpt><trkpt lat="44.72600020913914" lon="9.90257999305386"><ele>787.5999999999999</ele><time>2026-04-19T11:10:29Z</time></trkpt><trkpt lat="44.72592614839878" lon="9.90258739154619"><ele>788.4</ele><time>2026-04-19T11:10:31Z</time></trkpt><trkpt lat="44.72581953031948" lon="9.902626066540972"><ele>789.2</ele><time>2026-04-19T11:10:34Z</time></trkpt><trkpt lat="44.725756854480665" lon="9.90268981497622"><ele>790.0</ele><time>2026-04-19T11:10:36Z</time></trkpt><trkpt lat="44.72558323673225" lon="9.902792992358547"><ele>790.0</ele><time>2026-04-19T11:10:37Z</time></trkpt><trkpt lat="44.72547844907329" lon="9.902874449363662"><ele>790.0</ele><time>2026-04-19T11:10:39Z</time></trkpt><trkpt lat="44.72537745313111" lon="9.902943879250317"><ele>790.0</ele><time>2026-04-19T11:10:41Z</time></trkpt><trkpt lat="44.72528925522855" lon="9.903032472431608"><ele>790.0</ele><time>2026-04-19T11:10:43Z</time></trkpt><trkpt lat="44.72520996059118" lon="9.903084527647907"><ele>790.0</ele><time>2026-04-19T11:10:45Z</time></trkpt><trkpt lat="44.72512664690174" lon="9.903129535344311"><ele>797.6</ele><time>2026-04-19T11:10:47Z</time></trkpt><trkpt lat="44.725029316177526" lon="9.903181924153541"><ele>805.2</ele><time>2026-04-19T11:10:49Z</time></trkpt><trkpt lat="44.72497155221453" lon="9.903220003580678"><ele>812.8</ele><time>2026-04-19T11:10:51Z</time></trkpt><trkpt lat="44.72489347473064" lon="9.903272777142133"><ele>820.4</ele><time>2026-04-19T11:10:55Z</time></trkpt><trkpt lat="44.72483930055278" lon="9.903330647372913"><ele>828.0</ele><time>2026-04-19T11:10:57Z</time></trkpt><trkpt lat="44.72470887784289" lon="9.903399961518158"><ele>828.5</ele><time>2026-04-19T11:10:59Z</time></trkpt><trkpt lat="44.72460910939455" lon="9.90349257230828"><ele>829.0</ele><time>2026-04-19T11:11:01Z</time></trkpt><trkpt lat="44.72453988919305" lon="9.903507908151262"><ele>829.5</ele><time>2026-04-19T11:11:02Z</time></trkpt><trkpt lat="44.724468054667646" lon="9.903525272460875"><ele>830.0</ele><time>2026-04-19T11:11:03Z</time></trkpt><trkpt lat="44.72440359035607" lon="9.903552276927265"><ele>830.5</ele><time>2026-04-19T11:11:04Z</time></trkpt><trkpt lat="44.72433944430331" lon="9.903594922920838"><ele>831.0</ele><time>2026-04-19T11:11:05Z</time></trkpt><trkpt lat="44.72428082170993" lon="9.903659775649071"><ele>831.0</ele><time>2026-04-19T11:11:06Z</time></trkpt><trkpt lat="44.72422901609444" lon="9.903731208215024"><ele>831.0</ele><time>2026-04-19T11:11:07Z</time></trkpt><trkpt lat="44.72418253779904" lon="9.903819072027911"><ele>831.0</ele><time>2026-04-19T11:11:08Z</time></trkpt><trkpt lat="44.72415192482213" lon="9.90391356219502"><ele>831.0</ele><time>2026-04-19T11:11:09Z</time></trkpt><trkpt lat="44.72411851954239" lon="9.90399493456651"><ele>831.0</ele><time>2026-04-19T11:11:10Z</time></trkpt><trkpt lat="44.724082993382" lon="9.904117518112024"><ele>831.0</ele><time>2026-04-19T11:11:12Z</time></trkpt><trkpt lat="44.72404115097811" lon="9.90401892477393"><ele>831.0</ele><time>2026-04-19T11:11:17Z</time></trkpt><trkpt lat="44.72408823673198" lon="9.903817727185446"><ele>831.0</ele><time>2026-04-19T11:11:19Z</time></trkpt><trkpt lat="44.72409923936961" lon="9.903692456150797"><ele>831.0</ele><time>2026-04-19T11:11:20Z</time></trkpt><trkpt lat="44.72408631468393" lon="9.903561147889809"><ele>831.0</ele><time>2026-04-19T11:11:21Z</time></trkpt><trkpt lat="44.72406869667563" lon="9.903419670714257"><ele>831.0</ele><time>2026-04-19T11:11:22Z</time></trkpt><trkpt lat="44.724026588460596" lon="9.903290183354766"><ele>832.4</ele><time>2026-04-19T11:11:23Z</time></trkpt><trkpt lat="44.72396347505825" lon="9.903166753999528"><ele>833.8</ele><time>2026-04-19T11:11:24Z</time></trkpt><trkpt lat="44.72388625025442" lon="9.903055191898476"><ele>835.1999999999999</ele><time>2026-04-19T11:11:25Z</time></trkpt><trkpt lat="44.723788875985456" lon="9.90294880381329"><ele>836.5999999999999</ele><time>2026-04-19T11:11:26Z</time></trkpt><trkpt lat="44.72372148199015" lon="9.902873532653741"><ele>838.0</ele><time>2026-04-19T11:11:27Z</time></trkpt><trkpt lat="44.72359331937733" lon="9.902773665480275"><ele>839.4</ele><time>2026-04-19T11:11:29Z</time></trkpt><trkpt lat="44.72351149027028" lon="9.902688998957935"><ele>840.8</ele><time>2026-04-19T11:11:30Z</time></trkpt><trkpt lat="44.72344186682033" lon="9.90260377594924"><ele>842.2</ele><time>2026-04-19T11:11:31Z</time></trkpt><trkpt lat="44.72338192694956" lon="9.902523303191876"><ele>843.6</ele><time>2026-04-19T11:11:32Z</time></trkpt><trkpt lat="44.72332375451325" lon="9.902419002743443"><ele>845.0</ele><time>2026-04-19T11:11:33Z</time></trkpt><trkpt lat="44.72327136562353" lon="9.902328350615782"><ele>845.0</ele><time>2026-04-19T11:11:34Z</time></trkpt><trkpt lat="44.723233315564144" lon="9.902240707854004"><ele>845.0</ele><time>2026-04-19T11:11:35Z</time></trkpt><trkpt lat="44.723189071112785" lon="9.902133205622302"><ele>845.0</ele><time>2026-04-19T11:11:36Z</time></trkpt><trkpt lat="44.72315660591968" lon="9.902039521323442"><ele>845.0</ele><time>2026-04-19T11:11:37Z</time></trkpt><trkpt lat="44.72311983789127" lon="9.90192803586542"><ele>845.0</ele><time>2026-04-19T11:11:39Z</time></trkpt><trkpt lat="44.72313604599974" lon="9.901747141206132"><ele>847.5000000000001</ele><time>2026-04-19T11:11:41Z</time></trkpt><trkpt lat="44.72317085113432" lon="9.90163904175405"><ele>850.0</ele><time>2026-04-19T11:11:42Z</time></trkpt><trkpt lat="44.72320375500918" lon="9.901532400818482"><ele>852.5</ele><time>2026-04-19T11:11:43Z</time></trkpt><trkpt lat="44.723219824765614" lon="9.90144019479959"><ele>855.0</ele><time>2026-04-19T11:11:44Z</time></trkpt><trkpt lat="44.72322534633647" lon="9.90130969527998"><ele>857.5000000000001</ele><time>2026-04-19T11:11:45Z</time></trkpt><trkpt lat="44.72322076373401" lon="9.901167833695668"><ele>860.0</ele><time>2026-04-19T11:11:46Z</time></trkpt><trkpt lat="44.72322362118871" lon="9.901028233415783"><ele>860.0</ele><time>2026-04-19T11:11:47Z</time></trkpt><trkpt lat="44.723225107124435" lon="9.900918236201306"><ele>860.0</ele><time>2026-04-19T11:11:48Z</time></trkpt><trkpt lat="44.72321800148455" lon="9.900749238551068"><ele>860.0</ele><time>2026-04-19T11:11:50Z</time></trkpt><trkpt lat="44.72319369517758" lon="9.900629812829978"><ele>860.0</ele><time>2026-04-19T11:11:51Z</time></trkpt><trkpt lat="44.72314375911311" lon="9.900509185708735"><ele>860.0</ele><time>2026-04-19T11:11:52Z</time></trkpt><trkpt lat="44.72308929940463" lon="9.9004294648177"><ele>860.3333333333334</ele><time>2026-04-19T11:11:53Z</time></trkpt><trkpt lat="44.72303576445741" lon="9.900362633226761"><ele>860.6666666666667</ele><time>2026-04-19T11:11:54Z</time></trkpt><trkpt lat="44.72298152138698" lon="9.900296736252194"><ele>861.0</ele><time>2026-04-19T11:11:55Z</time></trkpt><trkpt lat="44.722900374404496" lon="9.90021951478082"><ele>861.3333333333333</ele><time>2026-04-19T11:11:56Z</time></trkpt><trkpt lat="44.72283523466812" lon="9.900146075873408"><ele>861.6666666666666</ele><time>2026-04-19T11:11:57Z</time></trkpt><trkpt lat="44.72278627225795" lon="9.900066160538682"><ele>862.0</ele><time>2026-04-19T11:11:58Z</time></trkpt><trkpt lat="44.72270614444229" lon="9.900004084574448"><ele>862.0</ele><time>2026-04-19T11:11:59Z</time></trkpt><trkpt lat="44.72263171387361" lon="9.899920217156478"><ele>862.0</ele><time>2026-04-19T11:12:00Z</time></trkpt><trkpt lat="44.722541313727774" lon="9.899799115388749"><ele>862.0</ele><time>2026-04-19T11:12:02Z</time></trkpt><trkpt lat="44.72249207671429" lon="9.899713460693217"><ele>862.0</ele><time>2026-04-19T11:12:03Z</time></trkpt><trkpt lat="44.7224306903189" lon="9.899623070896743"><ele>862.0</ele><time>2026-04-19T11:12:04Z</time></trkpt><trkpt lat="44.72236384039774" lon="9.899522288265516"><ele>862.0</ele><time>2026-04-19T11:12:05Z</time></trkpt><trkpt lat="44.72229272692272" lon="9.89941319622455"><ele>862.0</ele><time>2026-04-19T11:12:06Z</time></trkpt><trkpt lat="44.72222960505337" lon="9.899312919762187"><ele>862.0</ele><time>2026-04-19T11:12:07Z</time></trkpt><trkpt lat="44.72217899871071" lon="9.89923546306785"><ele>862.0</ele><time>2026-04-19T11:12:08Z</time></trkpt><trkpt lat="44.72211440651965" lon="9.899132635808401"><ele>862.0</ele><time>2026-04-19T11:12:09Z</time></trkpt><trkpt lat="44.72205114161461" lon="9.89903884578199"><ele>864.1666666666666</ele><time>2026-04-19T11:12:10Z</time></trkpt><trkpt lat="44.721988345532466" lon="9.898937939294427"><ele>866.3333333333333</ele><time>2026-04-19T11:12:11Z</time></trkpt><trkpt lat="44.72194479961229" lon="9.89884785630091"><ele>868.5</ele><time>2026-04-19T11:12:12Z</time></trkpt><trkpt lat="44.72189931832602" lon="9.898779625033706"><ele>870.6666666666667</ele><time>2026-04-19T11:12:13Z</time></trkpt><trkpt lat="44.72184361580078" lon="9.898717976983521"><ele>872.8333333333334</ele><time>2026-04-19T11:12:14Z</time></trkpt><trkpt lat="44.72176576244237" lon="9.898697948668831"><ele>875.0</ele><time>2026-04-19T11:12:15Z</time></trkpt><trkpt lat="44.72166318832828" lon="9.898757120393146"><ele>875.0</ele><time>2026-04-19T11:12:17Z</time></trkpt><trkpt lat="44.721565096348264" lon="9.898895546017485"><ele>875.0</ele><time>2026-04-19T11:12:19Z</time></trkpt><trkpt lat="44.72146590065206" lon="9.898900558990443"><ele>875.0</ele><time>2026-04-19T11:12:21Z</time></trkpt><trkpt lat="44.721415201284415" lon="9.898802658004398"><ele>875.0</ele><time>2026-04-19T11:12:23Z</time></trkpt><trkpt lat="44.7214271964967" lon="9.898690344100325"><ele>875.0</ele><time>2026-04-19T11:12:26Z</time></trkpt><trkpt lat="44.72141995783846" lon="9.89853009540503"><ele>875.0000000000001</ele><time>2026-04-19T11:12:27Z</time></trkpt><trkpt lat="44.72139600787304" lon="9.898426719808198"><ele>875.0</ele><time>2026-04-19T11:12:28Z</time></trkpt><trkpt lat="44.7213589389814" lon="9.89831744088371"><ele>875.0</ele><time>2026-04-19T11:12:29Z</time></trkpt><trkpt lat="44.72132389684384" lon="9.898209228022244"><ele>875.0</ele><time>2026-04-19T11:12:30Z</time></trkpt><trkpt lat="44.72128177328998" lon="9.898124393593317"><ele>875.0000000000001</ele><time>2026-04-19T11:12:31Z</time></trkpt><trkpt lat="44.72122460439717" lon="9.898056420437475"><ele>875.0</ele><time>2026-04-19T11:12:32Z</time></trkpt><trkpt lat="44.72112426257269" lon="9.89804814616365"><ele>882.8</ele><time>2026-04-19T11:12:34Z</time></trkpt><trkpt lat="44.72102857355065" lon="9.8980018670879"><ele>890.6</ele><time>2026-04-19T11:12:36Z</time></trkpt><trkpt lat="44.720931839601164" lon="9.897938202482958"><ele>898.4000000000001</ele><time>2026-04-19T11:12:38Z</time></trkpt><trkpt lat="44.72082209748118" lon="9.8978810488937"><ele>906.2</ele><time>2026-04-19T11:12:40Z</time></trkpt><trkpt lat="44.720725669772584" lon="9.89783850248354"><ele>914.0</ele><time>2026-04-19T11:12:42Z</time></trkpt><trkpt lat="44.72062535144082" lon="9.897799903726744"><ele>914.0000000000001</ele><time>2026-04-19T11:12:44Z</time></trkpt><trkpt lat="44.7205600820387" lon="9.89777782459325"><ele>914.0</ele><time>2026-04-19T11:12:45Z</time></trkpt><trkpt lat="44.72048232589615" lon="9.89774761456494"><ele>914.0</ele><time>2026-04-19T11:12:46Z</time></trkpt><trkpt lat="44.72037767414131" lon="9.897685235642156"><ele>914.0</ele><time>2026-04-19T11:12:47Z</time></trkpt><trkpt lat="44.72029265767585" lon="9.897623882166833"><ele>914.0000000000001</ele><time>2026-04-19T11:12:48Z</time></trkpt><trkpt lat="44.72023303435919" lon="9.897595072893047"><ele>914.0</ele><time>2026-04-19T11:12:49Z</time></trkpt><trkpt lat="44.720174919390054" lon="9.897548786663323"><ele>916.3333333333334</ele><time>2026-04-19T11:12:50Z</time></trkpt><trkpt lat="44.72010711887421" lon="9.8974787883362"><ele>918.6666666666667</ele><time>2026-04-19T11:12:51Z</time></trkpt><trkpt lat="44.72002746417006" lon="9.897385400067272"><ele>921.0</ele><time>2026-04-19T11:12:52Z</time></trkpt><trkpt lat="44.71995056107845" lon="9.897294708252968"><ele>923.3333333333333</ele><time>2026-04-19T11:12:53Z</time></trkpt><trkpt lat="44.71988936299557" lon="9.897266208681947"><ele>925.6666666666666</ele><time>2026-04-19T11:12:54Z</time></trkpt><trkpt lat="44.71981173937208" lon="9.89726559074666"><ele>928.0</ele><time>2026-04-19T11:12:56Z</time></trkpt><trkpt lat="44.719756498180715" lon="9.89740504497868"><ele>928.0</ele><time>2026-04-19T11:12:58Z</time></trkpt><trkpt lat="44.71964153737745" lon="9.897522651846801"><ele>928.0</ele><time>2026-04-19T11:13:00Z</time></trkpt><trkpt lat="44.71951765004925" lon="9.897495296252744"><ele>928.0</ele><time>2026-04-19T11:13:02Z</time></trkpt><trkpt lat="44.71938441467731" lon="9.897421695177533"><ele>928.0</ele><time>2026-04-19T11:13:04Z</time></trkpt><trkpt lat="44.71931573530876" lon="9.89739049067035"><ele>929.857142857143</ele><time>2026-04-19T11:13:05Z</time></trkpt><trkpt lat="44.71924851379379" lon="9.897359394581969"><ele>931.7142857142858</ele><time>2026-04-19T11:13:06Z</time></trkpt><trkpt lat="44.7191862344603" lon="9.89733258271314"><ele>933.5714285714286</ele><time>2026-04-19T11:13:07Z</time></trkpt><trkpt lat="44.71911291795781" lon="9.897329362825953"><ele>935.4285714285714</ele><time>2026-04-19T11:13:08Z</time></trkpt><trkpt lat="44.719024472671876" lon="9.897341154683003"><ele>937.2857142857142</ele><time>2026-04-19T11:13:10Z</time></trkpt><trkpt lat="44.71895381451582" lon="9.897378966139742"><ele>939.142857142857</ele><time>2026-04-19T11:13:11Z</time></trkpt><trkpt lat="44.718889978115016" lon="9.897391747984098"><ele>940.9999999999999</ele><time>2026-04-19T11:13:12Z</time></trkpt><trkpt lat="44.71878086719355" lon="9.897384519347467"><ele>940.9999999999999</ele><time>2026-04-19T11:13:14Z</time></trkpt><trkpt lat="44.718716987091135" lon="9.897404406230812"><ele>941.0</ele><time>2026-04-19T11:13:15Z</time></trkpt><trkpt lat="44.718647948340056" lon="9.897393786656544"><ele>940.9999999999999</ele><time>2026-04-19T11:13:18Z</time></trkpt><trkpt lat="44.71857544911009" lon="9.897460297820208"><ele>940.9999999999999</ele><time>2026-04-19T11:13:20Z</time></trkpt><trkpt lat="44.71850379751999" lon="9.897488199905716"><ele>941.0</ele><time>2026-04-19T11:13:22Z</time></trkpt><trkpt lat="44.71844540041252" lon="9.897530331187241"><ele>940.9999999999999</ele><time>2026-04-19T11:13:24Z</time></trkpt><trkpt lat="44.71839260430302" lon="9.897615414700033"><ele>940.9999999999999</ele><time>2026-04-19T11:13:26Z</time></trkpt><trkpt lat="44.71833496060553" lon="9.897713933908332"><ele>938.5</ele><time>2026-04-19T11:13:28Z</time></trkpt><trkpt lat="44.71830285262324" lon="9.89782001232997"><ele>936.0</ele><time>2026-04-19T11:13:31Z</time></trkpt><trkpt lat="44.718166495497044" lon="9.898114448683355"><ele>933.5</ele><time>2026-04-19T11:13:34Z</time></trkpt><trkpt lat="44.71815757117743" lon="9.898227569374702"><ele>931.0</ele><time>2026-04-19T11:13:35Z</time></trkpt><trkpt lat="44.718155090931056" lon="9.898324824276623"><ele>928.1999999999999</ele><time>2026-04-19T11:13:36Z</time></trkpt><trkpt lat="44.71815645359588" lon="9.89848538066302"><ele>925.3999999999999</ele><time>2026-04-19T11:13:38Z</time></trkpt><trkpt lat="44.71815505079829" lon="9.898603234885083"><ele>922.6</ele><time>2026-04-19T11:13:40Z</time></trkpt><trkpt lat="44.71808358986231" lon="9.898721139326398"><ele>919.8</ele><time>2026-04-19T11:13:42Z</time></trkpt><trkpt lat="44.717974632399674" lon="9.898813571584155"><ele>917.0</ele><time>2026-04-19T11:13:44Z</time></trkpt><trkpt lat="44.71791144647497" lon="9.898869203291984"><ele>917.0</ele><time>2026-04-19T11:13:45Z</time></trkpt><trkpt lat="44.71786079907135" lon="9.898928248760747"><ele>917.0</ele><time>2026-04-19T11:13:46Z</time></trkpt><trkpt lat="44.71777519692511" lon="9.899028065625913"><ele>917.0</ele><time>2026-04-19T11:13:48Z</time></trkpt><trkpt lat="44.71773813314838" lon="9.899164793093313"><ele>917.0</ele><time>2026-04-19T11:13:50Z</time></trkpt><trkpt lat="44.71773388400477" lon="9.899322371211172"><ele>917.0</ele><time>2026-04-19T11:13:52Z</time></trkpt><trkpt lat="44.71774415155778" lon="9.899469706117712"><ele>915.1666666666667</ele><time>2026-04-19T11:13:54Z</time></trkpt><trkpt lat="44.71768026446621" lon="9.899534355255607"><ele>913.3333333333334</ele><time>2026-04-19T11:13:56Z</time></trkpt><trkpt lat="44.71761876802845" lon="9.899500132346352"><ele>911.5</ele><time>2026-04-19T11:13:57Z</time></trkpt><trkpt lat="44.71756718085489" lon="9.8994350020615"><ele>909.6666666666667</ele><time>2026-04-19T11:13:58Z</time></trkpt><trkpt lat="44.717430340881336" lon="9.899396091589812"><ele>907.8333333333334</ele><time>2026-04-19T11:14:00Z</time></trkpt><trkpt lat="44.71736843594785" lon="9.899463852080713"><ele>906.0</ele><time>2026-04-19T11:14:02Z</time></trkpt><trkpt lat="44.71728259909108" lon="9.899609668925013"><ele>906.0</ele><time>2026-04-19T11:14:04Z</time></trkpt><trkpt lat="44.71722254312017" lon="9.89966362890047"><ele>906.0</ele><time>2026-04-19T11:14:05Z</time></trkpt><trkpt lat="44.71714380135063" lon="9.899704208379923"><ele>906.0</ele><time>2026-04-19T11:14:07Z</time></trkpt><trkpt lat="44.71708102792227" lon="9.89971907805138"><ele>906.0</ele><time>2026-04-19T11:14:08Z</time></trkpt><trkpt lat="44.7170118851092" lon="9.899762493900015"><ele>906.0</ele><time>2026-04-19T11:14:09Z</time></trkpt><trkpt lat="44.716942117121164" lon="9.899844030503443"><ele>906.0</ele><time>2026-04-19T11:14:10Z</time></trkpt><trkpt lat="44.716874806193005" lon="9.899899439431493"><ele>906.4</ele><time>2026-04-19T11:14:11Z</time></trkpt><trkpt lat="44.71681965623655" lon="9.899943653862744"><ele>906.8</ele><time>2026-04-19T11:14:12Z</time></trkpt><trkpt lat="44.716740647271635" lon="9.900067080477681"><ele>907.1999999999999</ele><time>2026-04-19T11:14:14Z</time></trkpt><trkpt lat="44.716678276670834" lon="9.900153177641418"><ele>907.5999999999999</ele><time>2026-04-19T11:14:15Z</time></trkpt><trkpt lat="44.71662728211492" lon="9.900212682708707"><ele>908.0</ele><time>2026-04-19T11:14:16Z</time></trkpt><trkpt lat="44.71655217331646" lon="9.900378553345995"><ele>908.1428571428572</ele><time>2026-04-19T11:14:18Z</time></trkpt><trkpt lat="44.71649269611035" lon="9.90044672509657"><ele>908.2857142857144</ele><time>2026-04-19T11:14:19Z</time></trkpt><trkpt lat="44.71644443625856" lon="9.900520651274713"><ele>908.4285714285714</ele><time>2026-04-19T11:14:20Z</time></trkpt><trkpt lat="44.71640983822098" lon="9.900605025084685"><ele>908.5714285714287</ele><time>2026-04-19T11:14:21Z</time></trkpt><trkpt lat="44.716356601730205" lon="9.90069228081414"><ele>908.7142857142858</ele><time>2026-04-19T11:14:22Z</time></trkpt><trkpt lat="44.71631111718099" lon="9.900766168710222"><ele>908.8571428571429</ele><time>2026-04-19T11:14:23Z</time></trkpt><trkpt lat="44.71628604863658" lon="9.900864212107452"><ele>909.0</ele><time>2026-04-19T11:14:24Z</time></trkpt><trkpt lat="44.71628450278187" lon="9.900981609532684"><ele>906.6</ele><time>2026-04-19T11:14:25Z</time></trkpt><trkpt lat="44.71627820853644" lon="9.901114184349627"><ele>904.2</ele><time>2026-04-19T11:14:27Z</time></trkpt><trkpt lat="44.71615980119346" lon="9.901200820940998"><ele>901.8000000000001</ele><time>2026-04-19T11:14:29Z</time></trkpt><trkpt lat="44.71609662817862" lon="9.90122715919302"><ele>899.4000000000001</ele><time>2026-04-19T11:14:30Z</time></trkpt><trkpt lat="44.71600029148851" lon="9.90127889526299"><ele>897.0</ele><time>2026-04-19T11:14:32Z</time></trkpt><trkpt lat="44.71590742346547" lon="9.901379273523984"><ele>896.4000000000001</ele><time>2026-04-19T11:14:34Z</time></trkpt><trkpt lat="44.71583588702146" lon="9.90143485705561"><ele>895.8000000000001</ele><time>2026-04-19T11:14:36Z</time></trkpt><trkpt lat="44.71574587556461" lon="9.901483547904093"><ele>895.2</ele><time>2026-04-19T11:14:38Z</time></trkpt><trkpt lat="44.71565419686449" lon="9.90152434632909"><ele>894.6</ele><time>2026-04-19T11:14:40Z</time></trkpt><trkpt lat="44.71554641505368" lon="9.90156467293399"><ele>894.0</ele><time>2026-04-19T11:14:42Z</time></trkpt><trkpt lat="44.715482491311654" lon="9.901593960389931"><ele>894.0</ele><time>2026-04-19T11:14:43Z</time></trkpt><trkpt lat="44.715398495294565" lon="9.901619732945452"><ele>894.0000000000001</ele><time>2026-04-19T11:14:45Z</time></trkpt><trkpt lat="44.71534683811462" lon="9.90152708968836"><ele>894.0000000000001</ele><time>2026-04-19T11:14:47Z</time></trkpt><trkpt lat="44.71535401578133" lon="9.901370253458284"><ele>894.0</ele><time>2026-04-19T11:14:49Z</time></trkpt><trkpt lat="44.715383001874144" lon="9.901279634411406"><ele>894.0</ele><time>2026-04-19T11:14:50Z</time></trkpt><trkpt lat="44.71540002781144" lon="9.901108070133153"><ele>894.0</ele><time>2026-04-19T11:14:52Z</time></trkpt><trkpt lat="44.715423525937304" lon="9.901024724936205"><ele>894.0000000000001</ele><time>2026-04-19T11:14:53Z</time></trkpt><trkpt lat="44.715432336360486" lon="9.9008454173273"><ele>894.0000000000001</ele><time>2026-04-19T11:14:55Z</time></trkpt><trkpt lat="44.715418671848944" lon="9.900740989119702"><ele>894.0</ele><time>2026-04-19T11:14:56Z</time></trkpt><trkpt lat="44.7153975831562" lon="9.900627714157539"><ele>894.0</ele><time>2026-04-19T11:14:57Z</time></trkpt><trkpt lat="44.715381333808566" lon="9.900451496104083"><ele>894.3333333333334</ele><time>2026-04-19T11:14:59Z</time></trkpt><trkpt lat="44.71537435510249" lon="9.900346745314092"><ele>894.6666666666667</ele><time>2026-04-19T11:15:00Z</time></trkpt><trkpt lat="44.715380677755384" lon="9.900251906786865"><ele>895.0</ele><time>2026-04-19T11:15:01Z</time></trkpt><trkpt lat="44.71538890813902" lon="9.900152130087063"><ele>895.3333333333334</ele><time>2026-04-19T11:15:02Z</time></trkpt><trkpt lat="44.71539091853607" lon="9.900037269489058"><ele>895.6666666666667</ele><time>2026-04-19T11:15:03Z</time></trkpt><trkpt lat="44.715354604284904" lon="9.899920748804353"><ele>896.0</ele><time>2026-04-19T11:15:04Z</time></trkpt><trkpt lat="44.7153156120497" lon="9.899823776275056"><ele>895.0000000000001</ele><time>2026-04-19T11:15:05Z</time></trkpt><trkpt lat="44.715282602404955" lon="9.899664791267659"><ele>894.0</ele><time>2026-04-19T11:15:06Z</time></trkpt><trkpt lat="44.71524183852407" lon="9.89955250999499"><ele>893.0</ele><time>2026-04-19T11:15:07Z</time></trkpt><trkpt lat="44.71519378952018" lon="9.899485425554403"><ele>892.0</ele><time>2026-04-19T11:15:08Z</time></trkpt><trkpt lat="44.7151345102023" lon="9.899438524097622"><ele>891.0000000000001</ele><time>2026-04-19T11:15:09Z</time></trkpt><trkpt lat="44.715040908603946" lon="9.89942624193365"><ele>890.0</ele><time>2026-04-19T11:15:11Z</time></trkpt><trkpt lat="44.71497020615509" lon="9.89943328798402"><ele>886.0</ele><time>2026-04-19T11:15:12Z</time></trkpt><trkpt lat="44.714854748577146" lon="9.899356363868469"><ele>882.0</ele><time>2026-04-19T11:15:14Z</time></trkpt><trkpt lat="44.714808467684904" lon="9.899286680777287"><ele>878.0</ele><time>2026-04-19T11:15:15Z</time></trkpt><trkpt lat="44.714678491896535" lon="9.899232225404315"><ele>874.0</ele><time>2026-04-19T11:15:17Z</time></trkpt><trkpt lat="44.714588157058365" lon="9.89924426406937"><ele>870.0</ele><time>2026-04-19T11:15:18Z</time></trkpt><trkpt lat="44.71451117413207" lon="9.899238565249597"><ele>870.0</ele><time>2026-04-19T11:15:19Z</time></trkpt><trkpt lat="44.7144263605742" lon="9.899206195295406"><ele>870.0</ele><time>2026-04-19T11:15:20Z</time></trkpt><trkpt lat="44.71434549011817" lon="9.899163024754968"><ele>870.0</ele><time>2026-04-19T11:15:21Z</time></trkpt><trkpt lat="44.71424021623533" lon="9.899174721526107"><ele>870.0</ele><time>2026-04-19T11:15:23Z</time></trkpt><trkpt lat="44.71417305216173" lon="9.899223680500851"><ele>870.0</ele><time>2026-04-19T11:15:24Z</time></trkpt><trkpt lat="44.71407841516859" lon="9.8992592583859"><ele>867.4</ele><time>2026-04-19T11:15:26Z</time></trkpt><trkpt lat="44.7139772670866" lon="9.8993138722745"><ele>864.8</ele><time>2026-04-19T11:15:29Z</time></trkpt><trkpt lat="44.7138707837022" lon="9.899347521704966"><ele>862.2</ele><time>2026-04-19T11:15:31Z</time></trkpt><trkpt lat="44.71377278434271" lon="9.899299899795716"><ele>859.6</ele><time>2026-04-19T11:15:33Z</time></trkpt><trkpt lat="44.713679954003915" lon="9.899310051763788"><ele>857.0</ele><time>2026-04-19T11:15:35Z</time></trkpt><trkpt lat="44.713577728486754" lon="9.899317201811606"><ele>855.6</ele><time>2026-04-19T11:15:37Z</time></trkpt><trkpt lat="44.71348710348044" lon="9.899377268336092"><ele>854.2</ele><time>2026-04-19T11:15:39Z</time></trkpt><trkpt lat="44.71339900912442" lon="9.899430910570612"><ele>852.8</ele><time>2026-04-19T11:15:41Z</time></trkpt><trkpt lat="44.71328614571113" lon="9.899509575133015"><ele>851.4</ele><time>2026-04-19T11:15:43Z</time></trkpt><trkpt lat="44.71322524170786" lon="9.899542562685166"><ele>850.0</ele><time>2026-04-19T11:15:44Z</time></trkpt><trkpt lat="44.713159752848654" lon="9.899576022566757"><ele>850.0</ele><time>2026-04-19T11:15:45Z</time></trkpt><trkpt lat="44.71310540153871" lon="9.899651988415062"><ele>850.0</ele><time>2026-04-19T11:15:47Z</time></trkpt><trkpt lat="44.71298343672731" lon="9.899738257109885"><ele>850.0</ele><time>2026-04-19T11:15:49Z</time></trkpt><trkpt lat="44.71291532314717" lon="9.89973536807686"><ele>850.0</ele><time>2026-04-19T11:15:51Z</time></trkpt><trkpt lat="44.712825858019954" lon="9.899746805440326"><ele>850.0</ele><time>2026-04-19T11:15:53Z</time></trkpt><trkpt lat="44.71273671006971" lon="9.899818225827689"><ele>848.6</ele><time>2026-04-19T11:15:55Z</time></trkpt><trkpt lat="44.71265507051762" lon="9.899847293960478"><ele>847.2</ele><time>2026-04-19T11:15:56Z</time></trkpt><trkpt lat="44.712552427714336" lon="9.899877613796448"><ele>845.8</ele><time>2026-04-19T11:15:58Z</time></trkpt><trkpt lat="44.71242686037506" lon="9.899925858555681"><ele>844.4</ele><time>2026-04-19T11:16:00Z</time></trkpt><trkpt lat="44.71236493313822" lon="9.899944711378271"><ele>843.0</ele><time>2026-04-19T11:16:01Z</time></trkpt><trkpt lat="44.71228255546335" lon="9.89999359345185"><ele>843.0</ele><time>2026-04-19T11:16:02Z</time></trkpt><trkpt lat="44.71221946844687" lon="9.900033689318956"><ele>843.0</ele><time>2026-04-19T11:16:03Z</time></trkpt><trkpt lat="44.712105564472374" lon="9.900120050853914"><ele>843.0</ele><time>2026-04-19T11:16:05Z</time></trkpt><trkpt lat="44.7120379471864" lon="9.900177963528556"><ele>843.0</ele><time>2026-04-19T11:16:06Z</time></trkpt><trkpt lat="44.71196599399696" lon="9.900217722642013"><ele>843.0</ele><time>2026-04-19T11:16:07Z</time></trkpt><trkpt lat="44.711862614347055" lon="9.900272376042363"><ele>841.4</ele><time>2026-04-19T11:16:08Z</time></trkpt><trkpt lat="44.71177828710719" lon="9.900315885756227"><ele>839.8</ele><time>2026-04-19T11:16:09Z</time></trkpt><trkpt lat="44.71168377189535" lon="9.900401648131046"><ele>838.2</ele><time>2026-04-19T11:16:11Z</time></trkpt><trkpt lat="44.71157496114149" lon="9.900451172635949"><ele>836.6</ele><time>2026-04-19T11:16:13Z</time></trkpt><trkpt lat="44.711496979901696" lon="9.900489240744504"><ele>835.0</ele><time>2026-04-19T11:16:14Z</time></trkpt><trkpt lat="44.71143354095711" lon="9.900529832180267"><ele>834.9999999999999</ele><time>2026-04-19T11:16:15Z</time></trkpt><trkpt lat="44.71138061168677" lon="9.900598125549589"><ele>835.0</ele><time>2026-04-19T11:16:16Z</time></trkpt><trkpt lat="44.711301383476034" lon="9.900634321116009"><ele>835.0</ele><time>2026-04-19T11:16:17Z</time></trkpt><trkpt lat="44.71121715974705" lon="9.900700976740552"><ele>835.0</ele><time>2026-04-19T11:16:18Z</time></trkpt><trkpt lat="44.71115522022286" lon="9.900736764544494"><ele>834.9999999999999</ele><time>2026-04-19T11:16:19Z</time></trkpt><trkpt lat="44.711062424682844" lon="9.900821478907625"><ele>835.0</ele><time>2026-04-19T11:16:21Z</time></trkpt><trkpt lat="44.711001094756085" lon="9.90086386371245"><ele>835.4999999999999</ele><time>2026-04-19T11:16:22Z</time></trkpt><trkpt lat="44.71091239129022" lon="9.900921753819102"><ele>836.0</ele><time>2026-04-19T11:16:24Z</time></trkpt><trkpt lat="44.710822631591554" lon="9.900976256523444"><ele>836.5</ele><time>2026-04-19T11:16:26Z</time></trkpt><trkpt lat="44.710745072852056" lon="9.901031648798332"><ele>837.0</ele><time>2026-04-19T11:16:28Z</time></trkpt><trkpt lat="44.71068163001344" lon="9.901003106793773"><ele>837.4999999999999</ele><time>2026-04-19T11:16:35Z</time></trkpt><trkpt lat="44.71062187297582" lon="9.900950796407386"><ele>838.0</ele><time>2026-04-19T11:16:36Z</time></trkpt><trkpt lat="44.710580386537714" lon="9.900878559642377"><ele>838.0</ele><time>2026-04-19T11:16:37Z</time></trkpt><trkpt lat="44.71052217876243" lon="9.90077220269658"><ele>838.0</ele><time>2026-04-19T11:16:39Z</time></trkpt><trkpt lat="44.71045786333332" lon="9.900725565509333"><ele>838.0</ele><time>2026-04-19T11:16:40Z</time></trkpt><trkpt lat="44.71036828480426" lon="9.900618024330543"><ele>838.0</ele><time>2026-04-19T11:16:42Z</time></trkpt><trkpt lat="44.710279137719844" lon="9.900512683617462"><ele>838.0</ele><time>2026-04-19T11:16:44Z</time></trkpt><trkpt lat="44.71026486513479" lon="9.900424826874657"><ele>839.25</ele><time>2026-04-19T11:16:46Z</time></trkpt><trkpt lat="44.710206368481444" lon="9.90031912122291"><ele>840.5</ele><time>2026-04-19T11:16:50Z</time></trkpt><trkpt lat="44.71016521499823" lon="9.900225913889985"><ele>841.75</ele><time>2026-04-19T11:16:53Z</time></trkpt><trkpt lat="44.71010053400168" lon="9.899984286549582"><ele>843.0</ele><time>2026-04-19T11:16:56Z</time></trkpt><trkpt lat="44.710059470474754" lon="9.899839612304726"><ele>843.0</ele><time>2026-04-19T11:16:58Z</time></trkpt><trkpt lat="44.71004207801781" lon="9.899742755660235"><ele>843.0</ele><time>2026-04-19T11:16:59Z</time></trkpt><trkpt lat="44.71002160082104" lon="9.899656531149184"><ele>843.0</ele><time>2026-04-19T11:17:00Z</time></trkpt><trkpt lat="44.710007084801276" lon="9.899566666055238"><ele>843.0</ele><time>2026-04-19T11:17:01Z</time></trkpt><trkpt lat="44.71001170282189" lon="9.899454052430372"><ele>843.0</ele><time>2026-04-19T11:17:02Z</time></trkpt><trkpt lat="44.71002094966563" lon="9.89936151250034"><ele>843.0</ele><time>2026-04-19T11:17:03Z</time></trkpt><trkpt lat="44.710063632777796" lon="9.899215637796415"><ele>839.5999999999999</ele><time>2026-04-19T11:17:05Z</time></trkpt><trkpt lat="44.71016097151815" lon="9.89912836439538"><ele>836.1999999999999</ele><time>2026-04-19T11:17:07Z</time></trkpt><trkpt lat="44.7102430197394" lon="9.899035656705415"><ele>832.8</ele><time>2026-04-19T11:17:09Z</time></trkpt><trkpt lat="44.71028654845865" lon="9.898896749258219"><ele>829.4</ele><time>2026-04-19T11:17:11Z</time></trkpt><trkpt lat="44.710307655278356" lon="9.898810590920862"><ele>826.0</ele><time>2026-04-19T11:17:12Z</time></trkpt><trkpt lat="44.7103444486382" lon="9.898655910038432"><ele>825.6666666666666</ele><time>2026-04-19T11:17:14Z</time></trkpt><trkpt lat="44.710383828624025" lon="9.89855912173594"><ele>825.3333333333333</ele><time>2026-04-19T11:17:16Z</time></trkpt><trkpt lat="44.71046008599054" lon="9.898530944985781"><ele>825.0</ele><time>2026-04-19T11:17:17Z</time></trkpt><trkpt lat="44.71054217625604" lon="9.898525125897397"><ele>824.6666666666667</ele><time>2026-04-19T11:17:18Z</time></trkpt><trkpt lat="44.7106407678276" lon="9.89842771503302"><ele>824.3333333333334</ele><time>2026-04-19T11:17:20Z</time></trkpt><trkpt lat="44.710682304669696" lon="9.898360620754929"><ele>824.0</ele><time>2026-04-19T11:17:21Z</time></trkpt><trkpt lat="44.71071482747162" lon="9.898279657546238"><ele>818.5</ele><time>2026-04-19T11:17:22Z</time></trkpt><trkpt lat="44.71073159745646" lon="9.898190829479102"><ele>813.0</ele><time>2026-04-19T11:17:23Z</time></trkpt><trkpt lat="44.71076143495929" lon="9.898063183136582"><ele>807.5</ele><time>2026-04-19T11:17:25Z</time></trkpt><trkpt lat="44.710803104963084" lon="9.897993428998044"><ele>802.0</ele><time>2026-04-19T11:17:28Z</time></trkpt><trkpt lat="44.71100323813131" lon="9.897735249468743"><ele>798.8</ele><time>2026-04-19T11:17:32Z</time></trkpt><trkpt lat="44.71109427224385" lon="9.897783849300525"><ele>795.6</ele><time>2026-04-19T11:17:34Z</time></trkpt><trkpt lat="44.71119895016483" lon="9.897868094587444"><ele>792.4</ele><time>2026-04-19T11:17:36Z</time></trkpt><trkpt lat="44.711265191338214" lon="9.897934142752622"><ele>789.1999999999999</ele><time>2026-04-19T11:17:37Z</time></trkpt><trkpt lat="44.71131676055229" lon="9.897987595405958"><ele>786.0</ele><time>2026-04-19T11:17:38Z</time></trkpt><trkpt lat="44.711381023978184" lon="9.898099211149406"><ele>786.0</ele><time>2026-04-19T11:17:40Z</time></trkpt><trkpt lat="44.711463402822005" lon="9.89822004852505"><ele>786.0</ele><time>2026-04-19T11:17:42Z</time></trkpt><trkpt lat="44.71153969494747" lon="9.898297492590444"><ele>786.0</ele><time>2026-04-19T11:17:44Z</time></trkpt><trkpt lat="44.71165367740033" lon="9.898318432708049"><ele>786.0</ele><time>2026-04-19T11:17:46Z</time></trkpt><trkpt lat="44.711774811722115" lon="9.89829481120147"><ele>786.0</ele><time>2026-04-19T11:17:48Z</time></trkpt><trkpt lat="44.71183545128909" lon="9.898157692373765"><ele>786.0</ele><time>2026-04-19T11:17:50Z</time></trkpt><trkpt lat="44.71185816440317" lon="9.898026440059276"><ele>786.0</ele><time>2026-04-19T11:17:52Z</time></trkpt><trkpt lat="44.711876261432934" lon="9.897930786332541"><ele>786.0</ele><time>2026-04-19T11:17:54Z</time></trkpt><trkpt lat="44.71187530678779" lon="9.897835679141654"><ele>786.0</ele><time>2026-04-19T11:17:56Z</time></trkpt><trkpt lat="44.71187398023851" lon="9.897744476001213"><ele>786.0</ele><time>2026-04-19T11:17:58Z</time></trkpt><trkpt lat="44.71187471640867" lon="9.89763855614246"><ele>781.8333333333334</ele><time>2026-04-19T11:18:00Z</time></trkpt><trkpt lat="44.71189426153803" lon="9.89754192923188"><ele>777.6666666666666</ele><time>2026-04-19T11:18:01Z</time></trkpt><trkpt lat="44.711936756553676" lon="9.897452857567297"><ele>773.5</ele><time>2026-04-19T11:18:03Z</time></trkpt><trkpt lat="44.71202896313312" lon="9.897346272301503"><ele>769.3333333333333</ele><time>2026-04-19T11:18:05Z</time></trkpt><trkpt lat="44.71207737378992" lon="9.897287744348864"><ele>765.1666666666666</ele><time>2026-04-19T11:18:06Z</time></trkpt><trkpt lat="44.71211861092408" lon="9.897211651608352"><ele>761.0</ele><time>2026-04-19T11:18:07Z</time></trkpt><trkpt lat="44.71215336476588" lon="9.897126804913302"><ele>758.5999999999999</ele><time>2026-04-19T11:18:08Z</time></trkpt><trkpt lat="44.71218329496632" lon="9.89696701814092"><ele>756.2</ele><time>2026-04-19T11:18:10Z</time></trkpt><trkpt lat="44.712157115618666" lon="9.896819233262995"><ele>753.8</ele><time>2026-04-19T11:18:12Z</time></trkpt><trkpt lat="44.71212676641535" lon="9.896657941667838"><ele>751.4000000000001</ele><time>2026-04-19T11:18:14Z</time></trkpt><trkpt lat="44.71211493421118" lon="9.896570439327098"><ele>749.0</ele><time>2026-04-19T11:18:15Z</time></trkpt><trkpt lat="44.712101439026114" lon="9.896478164507425"><ele>745.0</ele><time>2026-04-19T11:18:16Z</time></trkpt><trkpt lat="44.7120899775187" lon="9.896365060701697"><ele>741.0</ele><time>2026-04-19T11:18:17Z</time></trkpt><trkpt lat="44.71208167747905" lon="9.89624812746176"><ele>737.0</ele><time>2026-04-19T11:18:18Z</time></trkpt><trkpt lat="44.71208597184972" lon="9.896127664935978"><ele>733.0</ele><time>2026-04-19T11:18:19Z</time></trkpt><trkpt lat="44.71209333860471" lon="9.896017889718282"><ele>729.0</ele><time>2026-04-19T11:18:20Z</time></trkpt><trkpt lat="44.712118053963934" lon="9.89591875746761"><ele>725.0</ele><time>2026-04-19T11:18:21Z</time></trkpt><trkpt lat="44.712184038893355" lon="9.89579708019262"><ele>722.5</ele><time>2026-04-19T11:18:23Z</time></trkpt><trkpt lat="44.7122144450198" lon="9.895710336081576"><ele>720.0</ele><time>2026-04-19T11:18:25Z</time></trkpt><trkpt lat="44.71222184428328" lon="9.895615735257369"><ele>717.5</ele><time>2026-04-19T11:18:26Z</time></trkpt><trkpt lat="44.71227486203225" lon="9.89549290226835"><ele>715.0</ele><time>2026-04-19T11:18:28Z</time></trkpt><trkpt lat="44.712310758022355" lon="9.895376777661033"><ele>712.5</ele><time>2026-04-19T11:18:31Z</time></trkpt><trkpt lat="44.712335552402145" lon="9.895231968405085"><ele>710.0</ele><time>2026-04-19T11:18:34Z</time></trkpt><trkpt lat="44.712357297854616" lon="9.895095200749102"><ele>706.6</ele><time>2026-04-19T11:18:36Z</time></trkpt><trkpt lat="44.71234888408426" lon="9.894981992899035"><ele>703.2</ele><time>2026-04-19T11:18:38Z</time></trkpt><trkpt lat="44.712334609994" lon="9.894864374323648"><ele>699.8</ele><time>2026-04-19T11:18:40Z</time></trkpt><trkpt lat="44.712348569988094" lon="9.894707676450498"><ele>696.4</ele><time>2026-04-19T11:18:42Z</time></trkpt><trkpt lat="44.71240314251647" lon="9.894584741560983"><ele>693.0</ele><time>2026-04-19T11:18:44Z</time></trkpt><trkpt lat="44.712456179483766" lon="9.894478364080792"><ele>693.0</ele><time>2026-04-19T11:18:46Z</time></trkpt><trkpt lat="44.71252595975115" lon="9.89436890826158"><ele>693.0</ele><time>2026-04-19T11:18:48Z</time></trkpt><trkpt lat="44.712593894274555" lon="9.89430683949135"><ele>693.0</ele><time>2026-04-19T11:18:50Z</time></trkpt><trkpt lat="44.71266355865852" lon="9.894294495338073"><ele>693.0</ele><time>2026-04-19T11:18:52Z</time></trkpt><trkpt lat="44.71273121286343" lon="9.894345856755644"><ele>693.0</ele><time>2026-04-19T11:18:54Z</time></trkpt><trkpt lat="44.712810719626226" lon="9.894414801085599"><ele>693.0</ele><time>2026-04-19T11:18:55Z</time></trkpt><trkpt lat="44.712857809698356" lon="9.894543897256115"><ele>691.0</ele><time>2026-04-19T11:18:57Z</time></trkpt><trkpt lat="44.712932026192334" lon="9.894630467978512"><ele>689.0</ele><time>2026-04-19T11:18:59Z</time></trkpt><trkpt lat="44.71296217156581" lon="9.894543969291135"><ele>687.0</ele><time>2026-04-19T11:19:02Z</time></trkpt><trkpt lat="44.7128985562679" lon="9.894413539217501"><ele>685.0</ele><time>2026-04-19T11:19:05Z</time></trkpt><trkpt lat="44.712866890023456" lon="9.894289736870439"><ele>683.0</ele><time>2026-04-19T11:19:06Z</time></trkpt><trkpt lat="44.71283648951188" lon="9.894162625165183"><ele>681.0</ele><time>2026-04-19T11:19:07Z</time></trkpt><trkpt lat="44.71278710663317" lon="9.894007149232433"><ele>679.0</ele><time>2026-04-19T11:19:09Z</time></trkpt><trkpt lat="44.71270130830856" lon="9.8940022930153"><ele>677.0</ele><time>2026-04-19T11:19:10Z</time></trkpt><trkpt lat="44.712624696348634" lon="9.893981060636893"><ele>675.0</ele><time>2026-04-19T11:19:11Z</time></trkpt><trkpt lat="44.712544712798774" lon="9.893984913348302"><ele>673.0</ele><time>2026-04-19T11:19:12Z</time></trkpt><trkpt lat="44.71247480722265" lon="9.893980846219462"><ele>671.0</ele><time>2026-04-19T11:19:13Z</time></trkpt><trkpt lat="44.71240101671966" lon="9.893986444098253"><ele>671.0</ele><time>2026-04-19T11:19:14Z</time></trkpt><trkpt lat="44.71233025607687" lon="9.893991693002247"><ele>671.0</ele><time>2026-04-19T11:19:15Z</time></trkpt><trkpt lat="44.712252133139295" lon="9.894033954491448"><ele>671.0</ele><time>2026-04-19T11:19:16Z</time></trkpt><trkpt lat="44.71216641052787" lon="9.894081064142847"><ele>671.0</ele><time>2026-04-19T11:19:17Z</time></trkpt><trkpt lat="44.71209515469063" lon="9.894115030114344"><ele>671.0</ele><time>2026-04-19T11:19:18Z</time></trkpt><trkpt lat="44.712018419435516" lon="9.89414701915792"><ele>671.0</ele><time>2026-04-19T11:19:19Z</time></trkpt><trkpt lat="44.71195502326211" lon="9.894170115923313"><ele>668.1999999999999</ele><time>2026-04-19T11:19:20Z</time></trkpt><trkpt lat="44.71189085401293" lon="9.894197826380703"><ele>665.4</ele><time>2026-04-19T11:19:21Z</time></trkpt><trkpt lat="44.71172984164122" lon="9.894280575503597"><ele>662.6</ele><time>2026-04-19T11:19:23Z</time></trkpt><trkpt lat="44.711640137364775" lon="9.894341084398869"><ele>659.8</ele><time>2026-04-19T11:19:24Z</time></trkpt><trkpt lat="44.71157599309572" lon="9.894407159127615"><ele>657.0</ele><time>2026-04-19T11:19:25Z</time></trkpt><trkpt lat="44.711530979042024" lon="9.894488142324503"><ele>661.6666666666666</ele><time>2026-04-19T11:19:26Z</time></trkpt><trkpt lat="44.71150412369572" lon="9.894573799681961"><ele>666.3333333333334</ele><time>2026-04-19T11:19:27Z</time></trkpt><trkpt lat="44.71143667682462" lon="9.894724403950256"><ele>671.0</ele><time>2026-04-19T11:19:29Z</time></trkpt><trkpt lat="44.711350558446554" lon="9.894801579526876"><ele>675.6666666666667</ele><time>2026-04-19T11:19:31Z</time></trkpt><trkpt lat="44.71129048937283" lon="9.894771907534885"><ele>680.3333333333334</ele><time>2026-04-19T11:19:32Z</time></trkpt><trkpt lat="44.71123072437654" lon="9.894709515736865"><ele>685.0</ele><time>2026-04-19T11:19:33Z</time></trkpt><trkpt lat="44.71117830074601" lon="9.894640434527483"><ele>685.0</ele><time>2026-04-19T11:19:34Z</time></trkpt><trkpt lat="44.71110441807083" lon="9.894562143006654"><ele>685.0</ele><time>2026-04-19T11:19:35Z</time></trkpt><trkpt lat="44.711028777569524" lon="9.89449210544841"><ele>685.0</ele><time>2026-04-19T11:19:36Z</time></trkpt><trkpt lat="44.71095316444832" lon="9.894452297361152"><ele>685.0</ele><time>2026-04-19T11:19:37Z</time></trkpt><trkpt lat="44.71087630614126" lon="9.894431410776184"><ele>685.0</ele><time>2026-04-19T11:19:38Z</time></trkpt><trkpt lat="44.71080398467074" lon="9.894413871554654"><ele>685.0</ele><time>2026-04-19T11:19:39Z</time></trkpt><trkpt lat="44.710729937432085" lon="9.89440341115509"><ele>683.3333333333334</ele><time>2026-04-19T11:19:40Z</time></trkpt><trkpt lat="44.710642893641754" lon="9.89440454708743"><ele>681.6666666666667</ele><time>2026-04-19T11:19:41Z</time></trkpt><trkpt lat="44.710561749416506" lon="9.89441640824524"><ele>680.0</ele><time>2026-04-19T11:19:42Z</time></trkpt><trkpt lat="44.7104950364372" lon="9.894473870744685"><ele>678.3333333333334</ele><time>2026-04-19T11:19:43Z</time></trkpt><trkpt lat="44.71043510412806" lon="9.89451569186154"><ele>676.6666666666666</ele><time>2026-04-19T11:19:44Z</time></trkpt><trkpt lat="44.71037332082876" lon="9.894589895031636"><ele>675.0</ele><time>2026-04-19T11:19:45Z</time></trkpt><trkpt lat="44.71029180088046" lon="9.894641821333545"><ele>671.5</ele><time>2026-04-19T11:19:46Z</time></trkpt><trkpt lat="44.71021194836112" lon="9.894701043037234"><ele>668.0</ele><time>2026-04-19T11:19:47Z</time></trkpt><trkpt lat="44.7101401948713" lon="9.894733615299476"><ele>664.5</ele><time>2026-04-19T11:19:48Z</time></trkpt><trkpt lat="44.710056331166925" lon="9.894751838673455"><ele>661.0</ele><time>2026-04-19T11:19:49Z</time></trkpt><trkpt lat="44.709955087328524" lon="9.894799080869989"><ele>657.5</ele><time>2026-04-19T11:19:50Z</time></trkpt><trkpt lat="44.70986486186501" lon="9.894826645694533"><ele>654.0</ele><time>2026-04-19T11:19:51Z</time></trkpt><trkpt lat="44.70979472879483" lon="9.894881800734273"><ele>654.0</ele><time>2026-04-19T11:19:52Z</time></trkpt><trkpt lat="44.709731994808" lon="9.894954956540799"><ele>654.0</ele><time>2026-04-19T11:19:53Z</time></trkpt><trkpt lat="44.70966807306026" lon="9.895038826511886"><ele>654.0</ele><time>2026-04-19T11:19:54Z</time></trkpt><trkpt lat="44.709622763987085" lon="9.895130169671496"><ele>654.0</ele><time>2026-04-19T11:19:55Z</time></trkpt><trkpt lat="44.70956505404969" lon="9.89519522027894"><ele>654.0</ele><time>2026-04-19T11:19:56Z</time></trkpt><trkpt lat="44.7095096331727" lon="9.895269757442387"><ele>654.0</ele><time>2026-04-19T11:19:57Z</time></trkpt><trkpt lat="44.70943510034359" lon="9.895370574723719"><ele>654.8333333333334</ele><time>2026-04-19T11:19:58Z</time></trkpt><trkpt lat="44.709354275862594" lon="9.89537043157449"><ele>655.6666666666666</ele><time>2026-04-19T11:19:59Z</time></trkpt><trkpt lat="44.70928196858238" lon="9.895358156131495"><ele>656.5</ele><time>2026-04-19T11:20:00Z</time></trkpt><trkpt lat="44.70921430306626" lon="9.895353183396693"><ele>657.3333333333333</ele><time>2026-04-19T11:20:01Z</time></trkpt><trkpt lat="44.70914880733423" lon="9.895320242427834"><ele>658.1666666666666</ele><time>2026-04-19T11:20:02Z</time></trkpt><trkpt lat="44.709079373543666" lon="9.895260255775916"><ele>659.0</ele><time>2026-04-19T11:20:03Z</time></trkpt><trkpt lat="44.708986661540706" lon="9.895202265749349"><ele>659.0</ele><time>2026-04-19T11:20:04Z</time></trkpt><trkpt lat="44.70890189534234" lon="9.895156835681748"><ele>659.0</ele><time>2026-04-19T11:20:05Z</time></trkpt><trkpt lat="44.708819587615466" lon="9.895136880378393"><ele>659.0</ele><time>2026-04-19T11:20:06Z</time></trkpt><trkpt lat="44.708741068506754" lon="9.895133411519193"><ele>659.0</ele><time>2026-04-19T11:20:07Z</time></trkpt><trkpt lat="44.70867100972441" lon="9.895131035875288"><ele>659.0</ele><time>2026-04-19T11:20:08Z</time></trkpt><trkpt lat="44.70859110967957" lon="9.895129457285227"><ele>659.0</ele><time>2026-04-19T11:20:09Z</time></trkpt><trkpt lat="44.70849998851846" lon="9.895130956644143"><ele>658.1666666666666</ele><time>2026-04-19T11:20:10Z</time></trkpt><trkpt lat="44.70841726295373" lon="9.895135293441273"><ele>657.3333333333333</ele><time>2026-04-19T11:20:11Z</time></trkpt><trkpt lat="44.708336371934344" lon="9.89516677574193"><ele>656.5</ele><time>2026-04-19T11:20:12Z</time></trkpt><trkpt lat="44.70825198426344" lon="9.895200711269629"><ele>655.6666666666666</ele><time>2026-04-19T11:20:13Z</time></trkpt><trkpt lat="44.708176824752876" lon="9.895253917580826"><ele>654.8333333333334</ele><time>2026-04-19T11:20:14Z</time></trkpt><trkpt lat="44.708099812600764" lon="9.895271473851485"><ele>654.0</ele><time>2026-04-19T11:20:15Z</time></trkpt><trkpt lat="44.70803086191748" lon="9.895305018028719"><ele>654.0</ele><time>2026-04-19T11:20:16Z</time></trkpt><trkpt lat="44.70796309335142" lon="9.895335377246672"><ele>654.0</ele><time>2026-04-19T11:20:17Z</time></trkpt><trkpt lat="44.70789692352564" lon="9.895339989747024"><ele>654.0</ele><time>2026-04-19T11:20:18Z</time></trkpt><trkpt lat="44.70781035402404" lon="9.895333951847116"><ele>654.0</ele><time>2026-04-19T11:20:19Z</time></trkpt><trkpt lat="44.70773632688484" lon="9.895306604835088"><ele>654.0</ele><time>2026-04-19T11:20:20Z</time></trkpt><trkpt lat="44.70766735053845" lon="9.895279693000898"><ele>654.0</ele><time>2026-04-19T11:20:21Z</time></trkpt><trkpt lat="44.70759531507164" lon="9.895274889880428"><ele>654.0</ele><time>2026-04-19T11:20:22Z</time></trkpt><trkpt lat="44.70751485000199" lon="9.89526568754832"><ele>652.0</ele><time>2026-04-19T11:20:23Z</time></trkpt><trkpt lat="44.707425402325214" lon="9.895244899425505"><ele>650.0</ele><time>2026-04-19T11:20:24Z</time></trkpt><trkpt lat="44.70731750574723" lon="9.895240123257398"><ele>648.0</ele><time>2026-04-19T11:20:25Z</time></trkpt><trkpt lat="44.70721906276764" lon="9.895235813696093"><ele>646.0</ele><time>2026-04-19T11:20:26Z</time></trkpt><trkpt lat="44.70713716400753" lon="9.895232041627544"><ele>644.0</ele><time>2026-04-19T11:20:27Z</time></trkpt><trkpt lat="44.707045738192136" lon="9.89524793486834"><ele>644.0</ele><time>2026-04-19T11:20:28Z</time></trkpt><trkpt lat="44.706968597260605" lon="9.895218048186045"><ele>644.0</ele><time>2026-04-19T11:20:29Z</time></trkpt><trkpt lat="44.70687158730051" lon="9.895206340091477"><ele>644.0</ele><time>2026-04-19T11:20:30Z</time></trkpt><trkpt lat="44.70677535520754" lon="9.895197143763916"><ele>644.0</ele><time>2026-04-19T11:20:31Z</time></trkpt><trkpt lat="44.706670753243344" lon="9.895212156508235"><ele>644.0</ele><time>2026-04-19T11:20:32Z</time></trkpt><trkpt lat="44.70657271311605" lon="9.895203727624484"><ele>643.4000000000001</ele><time>2026-04-19T11:20:33Z</time></trkpt><trkpt lat="44.70647749237424" lon="9.895194360458454"><ele>642.8</ele><time>2026-04-19T11:20:34Z</time></trkpt><trkpt lat="44.706396818432154" lon="9.895156369210197"><ele>642.2</ele><time>2026-04-19T11:20:35Z</time></trkpt><trkpt lat="44.706317924833705" lon="9.895124982707227"><ele>641.5999999999999</ele><time>2026-04-19T11:20:36Z</time></trkpt><trkpt lat="44.7062046047798" lon="9.895077762203814"><ele>641.0</ele><time>2026-04-19T11:20:37Z</time></trkpt><trkpt lat="44.70610922458951" lon="9.895038017250979"><ele>634.8</ele><time>2026-04-19T11:20:38Z</time></trkpt><trkpt lat="44.70602001933072" lon="9.894998749243216"><ele>628.5999999999999</ele><time>2026-04-19T11:20:39Z</time></trkpt><trkpt lat="44.70593359891623" lon="9.894956129579468"><ele>622.4</ele><time>2026-04-19T11:20:40Z</time></trkpt><trkpt lat="44.70585120644734" lon="9.894911582525044"><ele>616.2</ele><time>2026-04-19T11:20:41Z</time></trkpt><trkpt lat="44.70576802817255" lon="9.894863683553599"><ele>610.0</ele><time>2026-04-19T11:20:42Z</time></trkpt><trkpt lat="44.70567900445566" lon="9.894808707842504"><ele>610.0</ele><time>2026-04-19T11:20:43Z</time></trkpt><trkpt lat="44.70558601134452" lon="9.894747433231556"><ele>610.0</ele><time>2026-04-19T11:20:44Z</time></trkpt><trkpt lat="44.70550232060271" lon="9.894689296455145"><ele>610.0</ele><time>2026-04-19T11:20:45Z</time></trkpt><trkpt lat="44.70542962735769" lon="9.894635962617798"><ele>610.0</ele><time>2026-04-19T11:20:46Z</time></trkpt><trkpt lat="44.70532715754207" lon="9.894554130895427"><ele>610.0</ele><time>2026-04-19T11:20:48Z</time></trkpt><trkpt lat="44.70528209744209" lon="9.894463250946085"><ele>610.0</ele><time>2026-04-19T11:20:50Z</time></trkpt><trkpt lat="44.70530111827329" lon="9.894340153837954"><ele>610.0</ele><time>2026-04-19T11:20:52Z</time></trkpt><trkpt lat="44.7054116934507" lon="9.8942388851197"><ele>610.0</ele><time>2026-04-19T11:20:54Z</time></trkpt><trkpt lat="44.70550041676279" lon="9.894190086750562"><ele>610.0</ele><time>2026-04-19T11:20:55Z</time></trkpt><trkpt lat="44.70559398182662" lon="9.894158822025892"><ele>610.0</ele><time>2026-04-19T11:20:56Z</time></trkpt><trkpt lat="44.70567552439491" lon="9.894127029247198"><ele>606.0</ele><time>2026-04-19T11:20:57Z</time></trkpt><trkpt lat="44.70576534497295" lon="9.894034585351037"><ele>602.0</ele><time>2026-04-19T11:20:59Z</time></trkpt><trkpt lat="44.705773887911036" lon="9.893946497549164"><ele>598.0</ele><time>2026-04-19T11:21:00Z</time></trkpt><trkpt lat="44.705756316746104" lon="9.893846763004966"><ele>594.0</ele><time>2026-04-19T11:21:01Z</time></trkpt><trkpt lat="44.70568109034388" lon="9.893771855933123"><ele>590.0</ele><time>2026-04-19T11:21:02Z</time></trkpt><trkpt lat="44.705585847499606" lon="9.893823245989685"><ele>586.0</ele><time>2026-04-19T11:21:03Z</time></trkpt><trkpt lat="44.70551517561709" lon="9.893851188037413"><ele>586.0</ele><time>2026-04-19T11:21:04Z</time></trkpt><trkpt lat="44.705426628729995" lon="9.89385708717644"><ele>586.0</ele><time>2026-04-19T11:21:05Z</time></trkpt><trkpt lat="44.705331994759334" lon="9.893877502816107"><ele>586.0</ele><time>2026-04-19T11:21:06Z</time></trkpt><trkpt lat="44.705248419460396" lon="9.893893376346677"><ele>586.0</ele><time>2026-04-19T11:21:07Z</time></trkpt><trkpt lat="44.705171500335275" lon="9.893896757117876"><ele>586.0</ele><time>2026-04-19T11:21:08Z</time></trkpt><trkpt lat="44.70509865172826" lon="9.89388575546853"><ele>586.0</ele><time>2026-04-19T11:21:09Z</time></trkpt><trkpt lat="44.70502963307719" lon="9.893860106136223"><ele>586.3333333333334</ele><time>2026-04-19T11:21:10Z</time></trkpt><trkpt lat="44.704963401083944" lon="9.893831362819835"><ele>586.6666666666667</ele><time>2026-04-19T11:21:11Z</time></trkpt><trkpt lat="44.704880245997686" lon="9.893788607822259"><ele>587.0</ele><time>2026-04-19T11:21:12Z</time></trkpt><trkpt lat="44.70478848974391" lon="9.893741750813954"><ele>587.3333333333334</ele><time>2026-04-19T11:21:13Z</time></trkpt><trkpt lat="44.70469566784733" lon="9.893730291130444"><ele>587.6666666666666</ele><time>2026-04-19T11:21:14Z</time></trkpt><trkpt lat="44.70462238597963" lon="9.893720041997117"><ele>588.0</ele><time>2026-04-19T11:21:15Z</time></trkpt><trkpt lat="44.70449594758361" lon="9.89374973628446"><ele>588.0</ele><time>2026-04-19T11:21:17Z</time></trkpt><trkpt lat="44.70443533982596" lon="9.893781019704052"><ele>588.0</ele><time>2026-04-19T11:21:18Z</time></trkpt><trkpt lat="44.70436729102221" lon="9.893836962263327"><ele>588.0</ele><time>2026-04-19T11:21:19Z</time></trkpt><trkpt lat="44.70428717300919" lon="9.893903726932464"><ele>588.0</ele><time>2026-04-19T11:21:20Z</time></trkpt><trkpt lat="44.70420775395025" lon="9.893968245121568"><ele>588.0</ele><time>2026-04-19T11:21:21Z</time></trkpt><trkpt lat="44.704122289320054" lon="9.89401500906888"><ele>588.0</ele><time>2026-04-19T11:21:22Z</time></trkpt><trkpt lat="44.704020345862844" lon="9.894011454515443"><ele>586.8333333333334</ele><time>2026-04-19T11:21:23Z</time></trkpt><trkpt lat="44.70391921789153" lon="9.894005596775768"><ele>585.6666666666666</ele><time>2026-04-19T11:21:24Z</time></trkpt><trkpt lat="44.70383043535131" lon="9.893995230005109"><ele>584.5</ele><time>2026-04-19T11:21:25Z</time></trkpt><trkpt lat="44.703754840378615" lon="9.893987656951616"><ele>583.3333333333333</ele><time>2026-04-19T11:21:26Z</time></trkpt><trkpt lat="44.70365590287159" lon="9.893948998145053"><ele>582.1666666666666</ele><time>2026-04-19T11:21:28Z</time></trkpt><trkpt lat="44.70359168533771" lon="9.89395560719405"><ele>581.0</ele><time>2026-04-19T11:21:31Z</time></trkpt><trkpt lat="44.70363852104038" lon="9.893868120480926"><ele>581.0</ele><time>2026-04-19T11:21:35Z</time></trkpt><trkpt lat="44.70373186049443" lon="9.89372376983663"><ele>581.0</ele><time>2026-04-19T11:21:37Z</time></trkpt><trkpt lat="44.70378234483157" lon="9.893646086176133"><ele>581.0</ele><time>2026-04-19T11:21:38Z</time></trkpt><trkpt lat="44.703846950185024" lon="9.8935952845686"><ele>581.0</ele><time>2026-04-19T11:21:39Z</time></trkpt><trkpt lat="44.70392269407094" lon="9.893546253541862"><ele>581.0</ele><time>2026-04-19T11:21:40Z</time></trkpt><trkpt lat="44.703999920081266" lon="9.893491915413689"><ele>577.1666666666666</ele><time>2026-04-19T11:21:41Z</time></trkpt><trkpt lat="44.704094067942975" lon="9.89341018565967"><ele>573.3333333333333</ele><time>2026-04-19T11:21:42Z</time></trkpt><trkpt lat="44.704168054476526" lon="9.893326543150911"><ele>569.5</ele><time>2026-04-19T11:21:43Z</time></trkpt><trkpt lat="44.70420464896706" lon="9.893234384345153"><ele>565.6666666666666</ele><time>2026-04-19T11:21:44Z</time></trkpt><trkpt lat="44.70418905873188" lon="9.89312916509332"><ele>561.8333333333334</ele><time>2026-04-19T11:21:45Z</time></trkpt><trkpt lat="44.70412667689783" lon="9.89303526123046"><ele>558.0</ele><time>2026-04-19T11:21:46Z</time></trkpt><trkpt lat="44.70404257278442" lon="9.892974352995024"><ele>558.0</ele><time>2026-04-19T11:21:47Z</time></trkpt><trkpt lat="44.703952003638676" lon="9.892942085826226"><ele>558.0</ele><time>2026-04-19T11:21:48Z</time></trkpt><trkpt lat="44.70387443359039" lon="9.89290144134158"><ele>558.0</ele><time>2026-04-19T11:21:49Z</time></trkpt><trkpt lat="44.70379886417565" lon="9.892861588069003"><ele>558.0</ele><time>2026-04-19T11:21:50Z</time></trkpt><trkpt lat="44.70371422203828" lon="9.892835657767726"><ele>558.0</ele><time>2026-04-19T11:21:51Z</time></trkpt><trkpt lat="44.70363015894287" lon="9.892806073271457"><ele>558.0</ele><time>2026-04-19T11:21:52Z</time></trkpt><trkpt lat="44.703545959430166" lon="9.892770362928719"><ele>556.0</ele><time>2026-04-19T11:21:53Z</time></trkpt><trkpt lat="44.70346300319593" lon="9.892727184227583"><ele>554.0</ele><time>2026-04-19T11:21:54Z</time></trkpt><trkpt lat="44.70338173835432" lon="9.892672087023524"><ele>552.0</ele><time>2026-04-19T11:21:55Z</time></trkpt><trkpt lat="44.70330549674051" lon="9.892603389434642"><ele>550.0</ele><time>2026-04-19T11:21:56Z</time></trkpt><trkpt lat="44.70321904048713" lon="9.89250901037988"><ele>548.0</ele><time>2026-04-19T11:21:57Z</time></trkpt><trkpt lat="44.70314775884333" lon="9.892417903957728"><ele>545.3333333333333</ele><time>2026-04-19T11:21:58Z</time></trkpt><trkpt lat="44.70309041659077" lon="9.892322562376465"><ele>542.6666666666666</ele><time>2026-04-19T11:21:59Z</time></trkpt><trkpt lat="44.703098083214236" lon="9.892177518177975"><ele>540.0</ele><time>2026-04-19T11:22:00Z</time></trkpt><trkpt lat="44.703066364213" lon="9.892081570496932"><ele>537.3333333333334</ele><time>2026-04-19T11:22:01Z</time></trkpt><trkpt lat="44.70303201582858" lon="9.891979677697481"><ele>534.6666666666667</ele><time>2026-04-19T11:22:02Z</time></trkpt><trkpt lat="44.70298054422101" lon="9.891878324066296"><ele>532.0</ele><time>2026-04-19T11:22:03Z</time></trkpt><trkpt lat="44.70292142038656" lon="9.891811245080383"><ele>532.0</ele><time>2026-04-19T11:22:04Z</time></trkpt><trkpt lat="44.70284490140784" lon="9.891801934545793"><ele>532.0</ele><time>2026-04-19T11:22:05Z</time></trkpt><trkpt lat="44.70276841752269" lon="9.891794051506448"><ele>532.0</ele><time>2026-04-19T11:22:06Z</time></trkpt><trkpt lat="44.7027205962655" lon="9.891729561901215"><ele>532.0</ele><time>2026-04-19T11:22:07Z</time></trkpt><trkpt lat="44.70268799521988" lon="9.891633341151929"><ele>532.0</ele><time>2026-04-19T11:22:07.999Z</time></trkpt><trkpt lat="44.70266276795431" lon="9.891524886232995"><ele>532.0</ele><time>2026-04-19T11:22:08.999Z</time></trkpt><trkpt lat="44.702633391392055" lon="9.891418035118495"><ele>530.5</ele><time>2026-04-19T11:22:09.999Z</time></trkpt><trkpt lat="44.702601075491636" lon="9.891302235511821"><ele>529.0</ele><time>2026-04-19T11:22:11Z</time></trkpt><trkpt lat="44.70256663705668" lon="9.891183740646818"><ele>527.5</ele><time>2026-04-19T11:22:12Z</time></trkpt><trkpt lat="44.70253688637891" lon="9.891068859327488"><ele>526.0</ele><time>2026-04-19T11:22:13Z</time></trkpt><trkpt lat="44.70250671765816" lon="9.890957149876948"><ele>524.5</ele><time>2026-04-19T11:22:14Z</time></trkpt><trkpt lat="44.702477448705935" lon="9.89086120363017"><ele>523.0</ele><time>2026-04-19T11:22:15Z</time></trkpt><trkpt lat="44.70245387081607" lon="9.89077324673341"><ele>521.0</ele><time>2026-04-19T11:22:16Z</time></trkpt><trkpt lat="44.70243312156744" lon="9.890685872990993"><ele>519.0</ele><time>2026-04-19T11:22:17Z</time></trkpt><trkpt lat="44.702390390958726" lon="9.890523152706749"><ele>517.0</ele><time>2026-04-19T11:22:19Z</time></trkpt><trkpt lat="44.70235935443856" lon="9.890441584632608"><ele>515.0</ele><time>2026-04-19T11:22:20Z</time></trkpt><trkpt lat="44.702336449694315" lon="9.890349073788641"><ele>513.0</ele><time>2026-04-19T11:22:21Z</time></trkpt><trkpt lat="44.702306474491785" lon="9.890255307035336"><ele>511.0</ele><time>2026-04-19T11:22:22Z</time></trkpt><trkpt lat="44.70231735148777" lon="9.890128714611803"><ele>508.33333333333337</ele><time>2026-04-19T11:22:23Z</time></trkpt><trkpt lat="44.70229009762504" lon="9.8900329695435"><ele>505.6666666666667</ele><time>2026-04-19T11:22:24Z</time></trkpt><trkpt lat="44.70225922706835" lon="9.889944548990382"><ele>503.0</ele><time>2026-04-19T11:22:25Z</time></trkpt><trkpt lat="44.702204859043825" lon="9.889840034253108"><ele>500.33333333333337</ele><time>2026-04-19T11:22:27Z</time></trkpt><trkpt lat="44.70210256291084" lon="9.88986925721579"><ele>497.6666666666667</ele><time>2026-04-19T11:22:29Z</time></trkpt><trkpt lat="44.702044070645506" lon="9.889947380020715"><ele>495.0</ele><time>2026-04-19T11:22:31Z</time></trkpt><trkpt lat="44.70199665300017" lon="9.890008865739725"><ele>495.0</ele><time>2026-04-19T11:22:32Z</time></trkpt><trkpt lat="44.701938818885424" lon="9.890058862733435"><ele>495.0</ele><time>2026-04-19T11:22:33Z</time></trkpt><trkpt lat="44.70186057826924" lon="9.890126041278144"><ele>495.0</ele><time>2026-04-19T11:22:35Z</time></trkpt><trkpt lat="44.70179822526482" lon="9.890108619610716"><ele>495.0</ele><time>2026-04-19T11:22:38Z</time></trkpt><trkpt lat="44.70177247140404" lon="9.88995964034231"><ele>495.0</ele><time>2026-04-19T11:22:40Z</time></trkpt><trkpt lat="44.70176915257965" lon="9.88986065505481"><ele>495.0</ele><time>2026-04-19T11:22:41Z</time></trkpt><trkpt lat="44.7017531462656" lon="9.889732376257028"><ele>494.8</ele><time>2026-04-19T11:22:43Z</time></trkpt><trkpt lat="44.70174218698338" lon="9.889634491479477"><ele>494.6</ele><time>2026-04-19T11:22:44Z</time></trkpt><trkpt lat="44.70174702559003" lon="9.889490191355216"><ele>494.4</ele><time>2026-04-19T11:22:46Z</time></trkpt><trkpt lat="44.70174473674811" lon="9.889344969576511"><ele>494.2</ele><time>2026-04-19T11:22:48Z</time></trkpt><trkpt lat="44.701711437785235" lon="9.889231558580937"><ele>494.0</ele><time>2026-04-19T11:22:50Z</time></trkpt><trkpt lat="44.70167387472399" lon="9.889100395768343"><ele>491.99999999999994</ele><time>2026-04-19T11:22:52Z</time></trkpt><trkpt lat="44.70164075861991" lon="9.88896250633666"><ele>490.0</ele><time>2026-04-19T11:22:54Z</time></trkpt><trkpt lat="44.70159266784164" lon="9.88885823412149"><ele>488.0</ele><time>2026-04-19T11:22:56Z</time></trkpt><trkpt lat="44.70156065739876" lon="9.888776608141475"><ele>486.0</ele><time>2026-04-19T11:22:58Z</time></trkpt><trkpt lat="44.70152798930196" lon="9.88862876061036"><ele>483.99999999999994</ele><time>2026-04-19T11:23:01Z</time></trkpt><trkpt lat="44.701497827371746" lon="9.888532562966121"><ele>482.0</ele><time>2026-04-19T11:23:02Z</time></trkpt><trkpt lat="44.701433288080096" lon="9.888389484680761"><ele>479.49999999999994</ele><time>2026-04-19T11:23:04Z</time></trkpt><trkpt lat="44.70139495518174" lon="9.888314945988165"><ele>477.0</ele><time>2026-04-19T11:23:05Z</time></trkpt><trkpt lat="44.701356806891965" lon="9.888241192060095"><ele>474.5</ele><time>2026-04-19T11:23:06Z</time></trkpt><trkpt lat="44.70129335355162" lon="9.888109505381102"><ele>472.0</ele><time>2026-04-19T11:23:08Z</time></trkpt><trkpt lat="44.701228674721996" lon="9.888003540844954"><ele>469.49999999999994</ele><time>2026-04-19T11:23:10Z</time></trkpt><trkpt lat="44.70117139182667" lon="9.887880621707291"><ele>467.0</ele><time>2026-04-19T11:23:12Z</time></trkpt><trkpt lat="44.701099072202254" lon="9.887766882476003"><ele>466.0</ele><time>2026-04-19T11:23:14Z</time></trkpt><trkpt lat="44.70104205989196" lon="9.887676822638621"><ele>465.00000000000006</ele><time>2026-04-19T11:23:16Z</time></trkpt><trkpt lat="44.70098193479998" lon="9.887593850704368"><ele>464.00000000000006</ele><time>2026-04-19T11:23:18Z</time></trkpt><trkpt lat="44.7009071956811" lon="9.887488532572142"><ele>463.0</ele><time>2026-04-19T11:23:20Z</time></trkpt><trkpt lat="44.700850698204455" lon="9.8873727635056"><ele>462.0</ele><time>2026-04-19T11:23:22Z</time></trkpt><trkpt lat="44.70080853264076" lon="9.887257676316818"><ele>460.0</ele><time>2026-04-19T11:23:24Z</time></trkpt><trkpt lat="44.70081216872772" lon="9.887163902196301"><ele>458.0</ele><time>2026-04-19T11:23:26Z</time></trkpt><trkpt lat="44.70081313057962" lon="9.887053175377776"><ele>456.0</ele><time>2026-04-19T11:23:28Z</time></trkpt><trkpt lat="44.700828396535705" lon="9.886932676515745"><ele>454.0</ele><time>2026-04-19T11:23:30Z</time></trkpt><trkpt lat="44.70082618690763" lon="9.88680961907843"><ele>452.0</ele><time>2026-04-19T11:23:32Z</time></trkpt><trkpt lat="44.70081769319877" lon="9.886665078354449"><ele>450.0</ele><time>2026-04-19T11:23:34Z</time></trkpt><trkpt lat="44.70078465313375" lon="9.886508390379312"><ele>447.8</ele><time>2026-04-19T11:23:36Z</time></trkpt><trkpt lat="44.70074140965774" lon="9.886347121663292"><ele>445.6</ele><time>2026-04-19T11:23:38Z</time></trkpt><trkpt lat="44.70070258263713" lon="9.886175867168859"><ele>443.4</ele><time>2026-04-19T11:23:40Z</time></trkpt><trkpt lat="44.70068452997138" lon="9.886090164405793"><ele>441.2</ele><time>2026-04-19T11:23:41Z</time></trkpt><trkpt lat="44.70064858858519" lon="9.885941714127624"><ele>439.0</ele><time>2026-04-19T11:23:43Z</time></trkpt><trkpt lat="44.7006168343817" lon="9.88583177100982"><ele>437.2</ele><time>2026-04-19T11:23:45Z</time></trkpt><trkpt lat="44.7005743308784" lon="9.885724346810541"><ele>435.4</ele><time>2026-04-19T11:23:47Z</time></trkpt><trkpt lat="44.700498962691874" lon="9.88564053202644"><ele>433.6</ele><time>2026-04-19T11:23:49Z</time></trkpt><trkpt lat="44.700422738233506" lon="9.885593683836712"><ele>431.8</ele><time>2026-04-19T11:23:51Z</time></trkpt><trkpt lat="44.70036833916587" lon="9.885494075976698"><ele>430.0</ele><time>2026-04-19T11:23:53Z</time></trkpt><trkpt lat="44.70031920255898" lon="9.885363334411297"><ele>430.00000000000006</ele><time>2026-04-19T11:23:55Z</time></trkpt><trkpt lat="44.700260870141506" lon="9.885275133818926"><ele>430.0</ele><time>2026-04-19T11:23:57Z</time></trkpt><trkpt lat="44.700151141727076" lon="9.88521729034151"><ele>430.0</ele><time>2026-04-19T11:24:00Z</time></trkpt><trkpt lat="44.700110759360626" lon="9.885114193913779"><ele>430.0</ele><time>2026-04-19T11:24:01.999Z</time></trkpt><trkpt lat="44.70011016147337" lon="9.88501282687697"><ele>430.00000000000006</ele><time>2026-04-19T11:24:02.999Z</time></trkpt><trkpt lat="44.700108982077715" lon="9.884922189774256"><ele>430.0</ele><time>2026-04-19T11:24:03.999Z</time></trkpt><trkpt lat="44.700104897514926" lon="9.884797469543823"><ele>426.8</ele><time>2026-04-19T11:24:05.999Z</time></trkpt><trkpt lat="44.70012717776415" lon="9.884687182349614"><ele>423.6</ele><time>2026-04-19T11:24:07.999Z</time></trkpt><trkpt lat="44.70013807520079" lon="9.884521392925992"><ele>420.4</ele><time>2026-04-19T11:24:09.999Z</time></trkpt><trkpt lat="44.70014923905743" lon="9.884407628341068"><ele>417.2</ele><time>2026-04-19T11:24:11.999Z</time></trkpt><trkpt lat="44.70011530834339" lon="9.884319761952034"><ele>414.0</ele><time>2026-04-19T11:24:13.999Z</time></trkpt><trkpt lat="44.70006732850406" lon="9.884159578289953"><ele>411.6666666666667</ele><time>2026-04-19T11:24:16Z</time></trkpt><trkpt lat="44.699998242908435" lon="9.8839882085973"><ele>409.33333333333337</ele><time>2026-04-19T11:24:18Z</time></trkpt><trkpt lat="44.69997221845936" lon="9.883875064951695"><ele>407.0</ele><time>2026-04-19T11:24:19Z</time></trkpt><trkpt lat="44.69995866760533" lon="9.883759961360772"><ele>404.6666666666667</ele><time>2026-04-19T11:24:20Z</time></trkpt><trkpt lat="44.69995601064648" lon="9.883659719353854"><ele>402.33333333333337</ele><time>2026-04-19T11:24:21Z</time></trkpt><trkpt lat="44.699952507394165" lon="9.88356646391206"><ele>400.0</ele><time>2026-04-19T11:24:22Z</time></trkpt><trkpt lat="44.69995554112113" lon="9.883407355252047"><ele>396.25</ele><time>2026-04-19T11:24:24Z</time></trkpt><trkpt lat="44.69995264000081" lon="9.883253632846786"><ele>392.5</ele><time>2026-04-19T11:24:26Z</time></trkpt><trkpt lat="44.69992354651849" lon="9.883103067716364"><ele>388.75</ele><time>2026-04-19T11:24:28Z</time></trkpt><trkpt lat="44.69985239368787" lon="9.88298705330216"><ele>385.0</ele><time>2026-04-19T11:24:30Z</time></trkpt><trkpt lat="44.69978220206849" lon="9.882845690890946"><ele>385.00000000000006</ele><time>2026-04-19T11:24:32Z</time></trkpt><trkpt lat="44.699749643822166" lon="9.882766655718681"><ele>385.0</ele><time>2026-04-19T11:24:33Z</time></trkpt><trkpt lat="44.699721698292116" lon="9.882665089251073"><ele>385.0</ele><time>2026-04-19T11:24:34Z</time></trkpt><trkpt lat="44.69970121312195" lon="9.88256974944613"><ele>385.0</ele><time>2026-04-19T11:24:35Z</time></trkpt><trkpt lat="44.69967082562885" lon="9.882455400207506"><ele>385.00000000000006</ele><time>2026-04-19T11:24:36Z</time></trkpt><trkpt lat="44.699644344481314" lon="9.882363308952327"><ele>385.0</ele><time>2026-04-19T11:24:37Z</time></trkpt><trkpt lat="44.699618441580284" lon="9.882247940268515"><ele>382.2</ele><time>2026-04-19T11:24:38Z</time></trkpt><trkpt lat="44.69961847638564" lon="9.882077397278007"><ele>379.4</ele><time>2026-04-19T11:24:40Z</time></trkpt><trkpt lat="44.699645463683915" lon="9.88194272584076"><ele>376.6</ele><time>2026-04-19T11:24:42Z</time></trkpt><trkpt lat="44.69966351796338" lon="9.881786500459945"><ele>373.8</ele><time>2026-04-19T11:24:44Z</time></trkpt><trkpt lat="44.699666039839215" lon="9.881696575689135"><ele>371.0</ele><time>2026-04-19T11:24:45Z</time></trkpt><trkpt lat="44.69966075391069" lon="9.881596995723443"><ele>369.2857142857143</ele><time>2026-04-19T11:24:46Z</time></trkpt><trkpt lat="44.699662832851395" lon="9.881501350896183"><ele>367.57142857142856</ele><time>2026-04-19T11:24:47Z</time></trkpt><trkpt lat="44.69967112204821" lon="9.88141338903088"><ele>365.8571428571429</ele><time>2026-04-19T11:24:48Z</time></trkpt><trkpt lat="44.699692483510766" lon="9.881319491461431"><ele>364.1428571428571</ele><time>2026-04-19T11:24:49Z</time></trkpt><trkpt lat="44.69972483913595" lon="9.88122159575579"><ele>362.42857142857144</ele><time>2026-04-19T11:24:50Z</time></trkpt><trkpt lat="44.699753243458474" lon="9.881128117854884"><ele>360.7142857142857</ele><time>2026-04-19T11:24:51Z</time></trkpt><trkpt lat="44.69977514805232" lon="9.881043511937614"><ele>359.0</ele><time>2026-04-19T11:24:52Z</time></trkpt><trkpt lat="44.699769581822835" lon="9.88094822019734"><ele>357.83333333333337</ele><time>2026-04-19T11:24:53Z</time></trkpt><trkpt lat="44.69974766541775" lon="9.880852925946213"><ele>356.6666666666667</ele><time>2026-04-19T11:24:54Z</time></trkpt><trkpt lat="44.69970951387862" lon="9.880754886679824"><ele>355.5</ele><time>2026-04-19T11:24:55Z</time></trkpt><trkpt lat="44.69967847252015" lon="9.880656236674474"><ele>354.3333333333333</ele><time>2026-04-19T11:24:56Z</time></trkpt><trkpt lat="44.699646473179286" lon="9.880562202107194"><ele>353.16666666666663</ele><time>2026-04-19T11:24:57Z</time></trkpt><trkpt lat="44.6996157234831" lon="9.880472952375278"><ele>352.0</ele><time>2026-04-19T11:24:58Z</time></trkpt><trkpt lat="44.699606186013796" lon="9.88031529775702"><ele>352.0</ele><time>2026-04-19T11:25:00Z</time></trkpt><trkpt lat="44.69960676785338" lon="9.880148260402907"><ele>352.0</ele><time>2026-04-19T11:25:02Z</time></trkpt><trkpt lat="44.699612387002475" lon="9.879989283322766"><ele>352.0</ele><time>2026-04-19T11:25:04Z</time></trkpt><trkpt lat="44.69963855801907" lon="9.879903853089719"><ele>352.0</ele><time>2026-04-19T11:25:05Z</time></trkpt><trkpt lat="44.699686446204" lon="9.87976660513994"><ele>352.0</ele><time>2026-04-19T11:25:07Z</time></trkpt><trkpt lat="44.69975757596694" lon="9.879608294407701"><ele>349.8333333333333</ele><time>2026-04-19T11:25:09Z</time></trkpt><trkpt lat="44.69978475296001" lon="9.87952610280662"><ele>347.66666666666663</ele><time>2026-04-19T11:25:10Z</time></trkpt><trkpt lat="44.699807609333625" lon="9.879440154738056"><ele>345.5</ele><time>2026-04-19T11:25:11Z</time></trkpt><trkpt lat="44.6998106767573" lon="9.879277290899987"><ele>343.3333333333333</ele><time>2026-04-19T11:25:13Z</time></trkpt><trkpt lat="44.69980725663488" lon="9.879177929837153"><ele>341.1666666666667</ele><time>2026-04-19T11:25:14Z</time></trkpt><trkpt lat="44.69978657474276" lon="9.878994684913025"><ele>339.0</ele><time>2026-04-19T11:25:16Z</time></trkpt><trkpt lat="44.699765519825775" lon="9.878848892403113"><ele>337.0</ele><time>2026-04-19T11:25:18Z</time></trkpt><trkpt lat="44.69975969560614" lon="9.878693657498495"><ele>335.0</ele><time>2026-04-19T11:25:20Z</time></trkpt><trkpt lat="44.69976489963722" lon="9.878604861110794"><ele>333.0</ele><time>2026-04-19T11:25:21Z</time></trkpt><trkpt lat="44.699776249605385" lon="9.878510687424011"><ele>331.0</ele><time>2026-04-19T11:25:22Z</time></trkpt><trkpt lat="44.699777219736745" lon="9.87839523837369"><ele>329.0</ele><time>2026-04-19T11:25:23Z</time></trkpt><trkpt lat="44.699757213934085" lon="9.878309981303051"><ele>327.0</ele><time>2026-04-19T11:25:24Z</time></trkpt><trkpt lat="44.69972937050593" lon="9.878225865047437"><ele>325.1666666666667</ele><time>2026-04-19T11:25:25Z</time></trkpt><trkpt lat="44.69968684737573" lon="9.878144720715762"><ele>323.3333333333333</ele><time>2026-04-19T11:25:26Z</time></trkpt><trkpt lat="44.699625198093095" lon="9.878013499795188"><ele>321.5</ele><time>2026-04-19T11:25:28Z</time></trkpt><trkpt lat="44.6995987347852" lon="9.87793181157573"><ele>319.66666666666663</ele><time>2026-04-19T11:25:29Z</time></trkpt><trkpt lat="44.69957000244402" lon="9.87785209326877"><ele>317.8333333333333</ele><time>2026-04-19T11:25:30Z</time></trkpt><trkpt lat="44.69955260009484" lon="9.877685283087107"><ele>316.0</ele><time>2026-04-19T11:25:32Z</time></trkpt><trkpt lat="44.69954976586903" lon="9.877591801430261"><ele>314.0</ele><time>2026-04-19T11:25:33Z</time></trkpt><trkpt lat="44.69955951092931" lon="9.877491609249223"><ele>312.0</ele><time>2026-04-19T11:25:34Z</time></trkpt><trkpt lat="44.699585538798104" lon="9.87738792811076"><ele>310.0</ele><time>2026-04-19T11:25:35Z</time></trkpt><trkpt lat="44.699612110904745" lon="9.877290056062272"><ele>308.0</ele><time>2026-04-19T11:25:36Z</time></trkpt><trkpt lat="44.69962093433909" lon="9.877149511307914"><ele>306.0</ele><time>2026-04-19T11:25:38Z</time></trkpt><trkpt lat="44.699659727976126" lon="9.877048388263399"><ele>304.0</ele><time>2026-04-19T11:25:41Z</time></trkpt><trkpt lat="44.69973097363584" lon="9.876882792611282"><ele>304.0</ele><time>2026-04-19T11:27:06Z</time></trkpt><trkpt lat="44.69977189214743" lon="9.876796766564414"><ele>304.0</ele><time>2026-04-19T11:27:07Z</time></trkpt><trkpt lat="44.69982915473485" lon="9.876703597947804"><ele>304.0</ele><time>2026-04-19T11:27:08Z</time></trkpt><trkpt lat="44.69989130580192" lon="9.87659738692913"><ele>304.0</ele><time>2026-04-19T11:27:09Z</time></trkpt><trkpt lat="44.69996633901486" lon="9.876480023499452"><ele>304.0</ele><time>2026-04-19T11:27:10Z</time></trkpt><trkpt lat="44.700048921195794" lon="9.876355264645673"><ele>303.5</ele><time>2026-04-19T11:27:11Z</time></trkpt><trkpt lat="44.700141888755645" lon="9.876221663794656"><ele>303.0</ele><time>2026-04-19T11:27:12Z</time></trkpt><trkpt lat="44.70023165654203" lon="9.876072837320232"><ele>302.5</ele><time>2026-04-19T11:27:13Z</time></trkpt><trkpt lat="44.700318838957315" lon="9.87591787999106"><ele>302.0</ele><time>2026-04-19T11:27:14Z</time></trkpt><trkpt lat="44.700392352989844" lon="9.87578911654621"><ele>302.0</ele><time>2026-04-19T11:27:15Z</time></trkpt><trkpt lat="44.700460120536825" lon="9.87567178333704"><ele>302.0</ele><time>2026-04-19T11:27:16Z</time></trkpt><trkpt lat="44.70052948586819" lon="9.875554320487444"><ele>302.0</ele><time>2026-04-19T11:27:17Z</time></trkpt><trkpt lat="44.70060454787961" lon="9.875438385721488"><ele>302.0</ele><time>2026-04-19T11:27:18Z</time></trkpt><trkpt lat="44.700674844337776" lon="9.875324083056263"><ele>302.0</ele><time>2026-04-19T11:27:19Z</time></trkpt><trkpt lat="44.70073129904351" lon="9.875226770760122"><ele>302.0</ele><time>2026-04-19T11:27:20Z</time></trkpt><trkpt lat="44.70077844956788" lon="9.875138586605313"><ele>302.0</ele><time>2026-04-19T11:27:21Z</time></trkpt><trkpt lat="44.700821445667344" lon="9.875067217971148"><ele>302.0</ele><time>2026-04-19T11:27:22Z</time></trkpt><trkpt lat="44.700862694262796" lon="9.87499441368513"><ele>302.0</ele><time>2026-04-19T11:27:23Z</time></trkpt><trkpt lat="44.700899797500746" lon="9.874903664498698"><ele>302.0</ele><time>2026-04-19T11:27:24Z</time></trkpt><trkpt lat="44.70093622709248" lon="9.874795994258523"><ele>302.0</ele><time>2026-04-19T11:27:25Z</time></trkpt><trkpt lat="44.70096999209379" lon="9.8746696397257"><ele>301.5</ele><time>2026-04-19T11:27:26Z</time></trkpt><trkpt lat="44.70100556474649" lon="9.874514296303202"><ele>301.0</ele><time>2026-04-19T11:27:27Z</time></trkpt><trkpt lat="44.70104839448813" lon="9.874324048559671"><ele>300.5</ele><time>2026-04-19T11:27:28Z</time></trkpt><trkpt lat="44.70110179251403" lon="9.874118085498743"><ele>300.0</ele><time>2026-04-19T11:27:29Z</time></trkpt><trkpt lat="44.70115165239635" lon="9.873935237507617"><ele>302.6</ele><time>2026-04-19T11:27:30Z</time></trkpt><trkpt lat="44.70119116278901" lon="9.873787854669814"><ele>305.2</ele><time>2026-04-19T11:27:31Z</time></trkpt><trkpt lat="44.701228108802745" lon="9.873655557260882"><ele>307.8</ele><time>2026-04-19T11:27:32Z</time></trkpt><trkpt lat="44.70126446542155" lon="9.87351392118165"><ele>310.4</ele><time>2026-04-19T11:27:33Z</time></trkpt><trkpt lat="44.701302149036586" lon="9.873357970878496"><ele>313.0</ele><time>2026-04-19T11:27:34Z</time></trkpt><trkpt lat="44.701342324002916" lon="9.873197433709953"><ele>313.0</ele><time>2026-04-19T11:27:35Z</time></trkpt><trkpt lat="44.70138013451611" lon="9.873047875142941"><ele>313.0</ele><time>2026-04-19T11:27:36Z</time></trkpt><trkpt lat="44.70141353208571" lon="9.872919172106796"><ele>313.0</ele><time>2026-04-19T11:27:37Z</time></trkpt><trkpt lat="44.701448471428826" lon="9.872780322817611"><ele>313.0</ele><time>2026-04-19T11:27:38Z</time></trkpt><trkpt lat="44.70148826335959" lon="9.87263025357033"><ele>313.0</ele><time>2026-04-19T11:27:39Z</time></trkpt><trkpt lat="44.701529239530615" lon="9.872471432917877"><ele>312.5</ele><time>2026-04-19T11:27:40Z</time></trkpt><trkpt lat="44.70156446510538" lon="9.872311055667343"><ele>312.0</ele><time>2026-04-19T11:27:41Z</time></trkpt><trkpt lat="44.7015859482346" lon="9.872167491633697"><ele>311.5</ele><time>2026-04-19T11:27:42Z</time></trkpt><trkpt lat="44.70160351870998" lon="9.872018143689546"><ele>311.0</ele><time>2026-04-19T11:27:43Z</time></trkpt><trkpt lat="44.70161884291422" lon="9.871845912911972"><ele>311.2</ele><time>2026-04-19T11:27:44Z</time></trkpt><trkpt lat="44.70162686800621" lon="9.871686445396543"><ele>311.40000000000003</ele><time>2026-04-19T11:27:45Z</time></trkpt><trkpt lat="44.70163414723148" lon="9.87155072748784"><ele>311.6</ele><time>2026-04-19T11:27:46Z</time></trkpt><trkpt lat="44.70162836130981" lon="9.87141548040609"><ele>311.8</ele><time>2026-04-19T11:27:47Z</time></trkpt><trkpt lat="44.70159836661837" lon="9.871282122923764"><ele>312.0</ele><time>2026-04-19T11:27:48Z</time></trkpt><trkpt lat="44.7016123999848" lon="9.871091204238219"><ele>311.5</ele><time>2026-04-19T11:27:49Z</time></trkpt><trkpt lat="44.70160207234307" lon="9.870913935778974"><ele>311.0</ele><time>2026-04-19T11:27:50Z</time></trkpt><trkpt lat="44.70159458342239" lon="9.870721016137262"><ele>310.5</ele><time>2026-04-19T11:27:51Z</time></trkpt><trkpt lat="44.70158341052103" lon="9.870505991060023"><ele>310.0</ele><time>2026-04-19T11:27:52Z</time></trkpt><trkpt lat="44.701567269936604" lon="9.870289026347516"><ele>309.0</ele><time>2026-04-19T11:27:53Z</time></trkpt><trkpt lat="44.70155236191988" lon="9.870066886286066"><ele>308.0</ele><time>2026-04-19T11:27:54Z</time></trkpt><trkpt lat="44.70154033807734" lon="9.869864868780429"><ele>307.0</ele><time>2026-04-19T11:27:55Z</time></trkpt><trkpt lat="44.70152766466353" lon="9.869658510589613"><ele>307.0</ele><time>2026-04-19T11:27:56Z</time></trkpt><trkpt lat="44.701518724718355" lon="9.869452006385577"><ele>307.0</ele><time>2026-04-19T11:27:57Z</time></trkpt><trkpt lat="44.701518652759276" lon="9.869266851089003"><ele>307.0</ele><time>2026-04-19T11:27:58Z</time></trkpt><trkpt lat="44.701543486478805" lon="9.86909897794793"><ele>307.0</ele><time>2026-04-19T11:27:59Z</time></trkpt><trkpt lat="44.7016071417811" lon="9.868913102091744"><ele>307.0</ele><time>2026-04-19T11:28:00Z</time></trkpt><trkpt lat="44.70168621153132" lon="9.868741630509657"><ele>307.0</ele><time>2026-04-19T11:28:01Z</time></trkpt><trkpt lat="44.70176984842415" lon="9.86856540078399"><ele>307.0</ele><time>2026-04-19T11:28:02Z</time></trkpt><trkpt lat="44.701843419245385" lon="9.868404956659194"><ele>307.0</ele><time>2026-04-19T11:28:03Z</time></trkpt><trkpt lat="44.70190059347847" lon="9.868227143607593"><ele>307.0</ele><time>2026-04-19T11:28:04Z</time></trkpt><trkpt lat="44.70193379261461" lon="9.86802343352093"><ele>307.0</ele><time>2026-04-19T11:28:05Z</time></trkpt><trkpt lat="44.70193491699458" lon="9.867809950696596"><ele>307.0</ele><time>2026-04-19T11:28:06Z</time></trkpt><trkpt lat="44.70191478268024" lon="9.86761642168783"><ele>307.0</ele><time>2026-04-19T11:28:06.999Z</time></trkpt><trkpt lat="44.701877809109995" lon="9.867448753817515"><ele>307.4</ele><time>2026-04-19T11:28:07.999Z</time></trkpt><trkpt lat="44.7018489157935" lon="9.867274040550987"><ele>307.79999999999995</ele><time>2026-04-19T11:28:08.999Z</time></trkpt><trkpt lat="44.70183798327054" lon="9.86711202259043"><ele>308.2</ele><time>2026-04-19T11:28:09.999Z</time></trkpt><trkpt lat="44.701825655111875" lon="9.86696469539334"><ele>308.59999999999997</ele><time>2026-04-19T11:28:10.999Z</time></trkpt><trkpt lat="44.70183537520541" lon="9.866825635582206"><ele>309.0</ele><time>2026-04-19T11:28:11.999Z</time></trkpt><trkpt lat="44.70186884036273" lon="9.86667960462336"><ele>312.5</ele><time>2026-04-19T11:28:12.999Z</time></trkpt><trkpt lat="44.70192955874694" lon="9.866532733284863"><ele>316.0</ele><time>2026-04-19T11:28:13.999Z</time></trkpt><trkpt lat="44.70199748079409" lon="9.866382371042066"><ele>319.5</ele><time>2026-04-19T11:28:14.999Z</time></trkpt><trkpt lat="44.70207391999738" lon="9.866224312837975"><ele>323.0</ele><time>2026-04-19T11:28:15.999Z</time></trkpt><trkpt lat="44.70214129726892" lon="9.866049999124645"><ele>322.4</ele><time>2026-04-19T11:28:16.999Z</time></trkpt><trkpt lat="44.7021790703369" lon="9.865850464058138"><ele>321.79999999999995</ele><time>2026-04-19T11:28:17.999Z</time></trkpt><trkpt lat="44.702177651551935" lon="9.865681632955495"><ele>321.2</ele><time>2026-04-19T11:28:18.999Z</time></trkpt><trkpt lat="44.702168879867784" lon="9.865553272184505"><ele>320.6</ele><time>2026-04-19T11:28:19.999Z</time></trkpt><trkpt lat="44.702163826017674" lon="9.86542785806003"><ele>320.0</ele><time>2026-04-19T11:28:20.999Z</time></trkpt><trkpt lat="44.702158162530694" lon="9.865314608728944"><ele>320.0</ele><time>2026-04-19T11:28:21.999Z</time></trkpt><trkpt lat="44.70215056824387" lon="9.865187417458596"><ele>320.0</ele><time>2026-04-19T11:28:23.999Z</time></trkpt><trkpt lat="44.70223347649423" lon="9.865167391284583"><ele>320.0</ele><time>2026-04-19T11:28:28Z</time></trkpt><trkpt lat="44.70231507271887" lon="9.865221247359706"><ele>320.0</ele><time>2026-04-19T11:28:30Z</time></trkpt><trkpt lat="44.7023829002294" lon="9.865192687295684"><ele>320.0</ele><time>2026-04-19T11:28:32Z</time></trkpt><trkpt lat="44.702428001597696" lon="9.865127519097756"><ele>320.0</ele><time>2026-04-19T11:28:33Z</time></trkpt><trkpt lat="44.70249448026573" lon="9.865088162990112"><ele>320.2</ele><time>2026-04-19T11:28:35Z</time></trkpt><trkpt lat="44.70261391104155" lon="9.86507840427807"><ele>320.4</ele><time>2026-04-19T11:28:37Z</time></trkpt><trkpt lat="44.702688063361904" lon="9.865076904898626"><ele>320.6</ele><time>2026-04-19T11:28:38Z</time></trkpt><trkpt lat="44.70278495277514" lon="9.865066247794223"><ele>320.8</ele><time>2026-04-19T11:28:40Z</time></trkpt><trkpt lat="44.70291800418013" lon="9.865076995827543"><ele>321.0</ele><time>2026-04-19T11:28:42Z</time></trkpt><trkpt lat="44.70300798167149" lon="9.865007140592732"><ele>323.3333333333333</ele><time>2026-04-19T11:28:44Z</time></trkpt><trkpt lat="44.70307820808925" lon="9.86494549437418"><ele>325.6666666666667</ele><time>2026-04-19T11:28:45Z</time></trkpt><trkpt lat="44.703190113743865" lon="9.864936898433035"><ele>328.0</ele><time>2026-04-19T11:28:47Z</time></trkpt><trkpt lat="44.70326950021809" lon="9.864938877851792"><ele>330.33333333333337</ele><time>2026-04-19T11:28:48Z</time></trkpt><trkpt lat="44.70334505410992" lon="9.86494783252155"><ele>332.6666666666667</ele><time>2026-04-19T11:28:49Z</time></trkpt><trkpt lat="44.703443044923596" lon="9.864958191283455"><ele>335.0</ele><time>2026-04-19T11:28:50Z</time></trkpt><trkpt lat="44.70351095200768" lon="9.864937403147168"><ele>335.0</ele><time>2026-04-19T11:28:52Z</time></trkpt><trkpt lat="44.70356265201909" lon="9.864869949342163"><ele>335.0</ele><time>2026-04-19T11:28:53Z</time></trkpt><trkpt lat="44.70363034806741" lon="9.864792266496147"><ele>335.0</ele><time>2026-04-19T11:28:54Z</time></trkpt><trkpt lat="44.70367975532311" lon="9.864701602749191"><ele>335.0</ele><time>2026-04-19T11:28:55Z</time></trkpt><trkpt lat="44.70373157585235" lon="9.864616531777417"><ele>335.0</ele><time>2026-04-19T11:28:56Z</time></trkpt><trkpt lat="44.703778501197604" lon="9.864536026283"><ele>335.0</ele><time>2026-04-19T11:28:57Z</time></trkpt><trkpt lat="44.70378161051775" lon="9.864435575368434"><ele>336.83333333333337</ele><time>2026-04-19T11:29:00Z</time></trkpt><trkpt lat="44.70374932007854" lon="9.864355866846433"><ele>338.6666666666667</ele><time>2026-04-19T11:29:03Z</time></trkpt><trkpt lat="44.70372297659577" lon="9.864240888221703"><ele>340.5</ele><time>2026-04-19T11:29:06Z</time></trkpt><trkpt lat="44.70372775395401" lon="9.86414292506819"><ele>342.3333333333333</ele><time>2026-04-19T11:29:13Z</time></trkpt><trkpt lat="44.70373161366548" lon="9.864001043670397"><ele>344.16666666666663</ele><time>2026-04-19T11:29:15Z</time></trkpt><trkpt lat="44.70373955768461" lon="9.863910058602391"><ele>346.0</ele><time>2026-04-19T11:29:16Z</time></trkpt><trkpt lat="44.7037418499434" lon="9.863796163760602"><ele>346.0</ele><time>2026-04-19T11:29:19Z</time></trkpt><trkpt lat="44.70368094074969" lon="9.863720624930533"><ele>346.0</ele><time>2026-04-19T11:29:21Z</time></trkpt><trkpt lat="44.70361864042844" lon="9.863647867064568"><ele>346.0</ele><time>2026-04-19T11:29:23Z</time></trkpt><trkpt lat="44.70359871542365" lon="9.86354299222296"><ele>346.0</ele><time>2026-04-19T11:29:25Z</time></trkpt><trkpt lat="44.703579098782406" lon="9.863456987963975"><ele>346.0</ele><time>2026-04-19T11:29:26Z</time></trkpt><trkpt lat="44.70353862392241" lon="9.86337344656861"><ele>346.0</ele><time>2026-04-19T11:29:27Z</time></trkpt><trkpt lat="44.70348720280069" lon="9.863244938307153"><ele>346.66666666666663</ele><time>2026-04-19T11:29:29Z</time></trkpt><trkpt lat="44.703475224471056" lon="9.863147355334435"><ele>347.3333333333333</ele><time>2026-04-19T11:29:31Z</time></trkpt><trkpt lat="44.703492281284554" lon="9.863040267201907"><ele>348.0</ele><time>2026-04-19T11:29:43Z</time></trkpt><trkpt lat="44.70356187212788" lon="9.863012833875922"><ele>348.6666666666667</ele><time>2026-04-19T11:29:46Z</time></trkpt><trkpt lat="44.70365764289187" lon="9.863026720972687"><ele>349.33333333333337</ele><time>2026-04-19T11:29:48Z</time></trkpt><trkpt lat="44.70378056973388" lon="9.863033151924851"><ele>350.0</ele><time>2026-04-19T11:29:50Z</time></trkpt><trkpt lat="44.70384474953078" lon="9.863018359061417"><ele>350.0</ele><time>2026-04-19T11:29:51Z</time></trkpt><trkpt lat="44.703906843922816" lon="9.862999992377722"><ele>350.0</ele><time>2026-04-19T11:29:52Z</time></trkpt><trkpt lat="44.703972646007394" lon="9.862991328920208"><ele>350.0</ele><time>2026-04-19T11:29:53Z</time></trkpt><trkpt lat="44.70404528039145" lon="9.862992875334932"><ele>350.0</ele><time>2026-04-19T11:29:54Z</time></trkpt><trkpt lat="44.704138145367324" lon="9.863075918580343"><ele>350.0</ele><time>2026-04-19T11:29:56Z</time></trkpt><trkpt lat="44.70423212087064" lon="9.863150402997563"><ele>350.0</ele><time>2026-04-19T11:29:58Z</time></trkpt><trkpt lat="44.70433799594177" lon="9.863116201158011"><ele>353.2</ele><time>2026-04-19T11:30:00Z</time></trkpt><trkpt lat="44.70442155075785" lon="9.863066074114851"><ele>356.4</ele><time>2026-04-19T11:30:02Z</time></trkpt><trkpt lat="44.70452256212228" lon="9.863005455765748"><ele>359.6</ele><time>2026-04-19T11:30:04Z</time></trkpt><trkpt lat="44.70462921737733" lon="9.86296774919922"><ele>362.8</ele><time>2026-04-19T11:30:06Z</time></trkpt><trkpt lat="44.70474152570122" lon="9.862949169368758"><ele>366.0</ele><time>2026-04-19T11:30:07.999Z</time></trkpt><trkpt lat="44.70484859529567" lon="9.863027750168621"><ele>366.0</ele><time>2026-04-19T11:30:09.999Z</time></trkpt><trkpt lat="44.70495493483353" lon="9.863019058198711"><ele>366.0</ele><time>2026-04-19T11:30:11.999Z</time></trkpt><trkpt lat="44.70502012952057" lon="9.862976756767592"><ele>366.0</ele><time>2026-04-19T11:30:12.999Z</time></trkpt><trkpt lat="44.70508433406857" lon="9.862942634118859"><ele>366.0</ele><time>2026-04-19T11:30:13.999Z</time></trkpt><trkpt lat="44.705198906022765" lon="9.862925870541451"><ele>366.0</ele><time>2026-04-19T11:30:15.999Z</time></trkpt><trkpt lat="44.70530151424207" lon="9.86289323362261"><ele>368.0</ele><time>2026-04-19T11:30:17.999Z</time></trkpt><trkpt lat="44.70536675148037" lon="9.862872379061793"><ele>370.0</ele><time>2026-04-19T11:30:18.999Z</time></trkpt><trkpt lat="44.705485463662065" lon="9.86281500988748"><ele>372.0</ele><time>2026-04-19T11:30:20.999Z</time></trkpt><trkpt lat="44.705554452172365" lon="9.862784200987315"><ele>374.0</ele><time>2026-04-19T11:30:21.999Z</time></trkpt><trkpt lat="44.70563286058431" lon="9.862760835498051"><ele>376.0</ele><time>2026-04-19T11:30:22.999Z</time></trkpt><trkpt lat="44.70569825884376" lon="9.862730625917786"><ele>378.0</ele><time>2026-04-19T11:30:23.999Z</time></trkpt><trkpt lat="44.70579781940133" lon="9.862645726652332"><ele>379.0</ele><time>2026-04-19T11:30:25.999Z</time></trkpt><trkpt lat="44.705906498327515" lon="9.86260932180914"><ele>380.0</ele><time>2026-04-19T11:30:27.999Z</time></trkpt><trkpt lat="44.706024342142655" lon="9.862576975146288"><ele>381.0</ele><time>2026-04-19T11:30:29.999Z</time></trkpt><trkpt lat="44.70613460762464" lon="9.862542743789609"><ele>382.0</ele><time>2026-04-19T11:30:31.999Z</time></trkpt><trkpt lat="44.70624434765511" lon="9.862527773449493"><ele>384.5</ele><time>2026-04-19T11:30:34Z</time></trkpt><trkpt lat="44.70633020903109" lon="9.862521885437724"><ele>387.0</ele><time>2026-04-19T11:30:35Z</time></trkpt><trkpt lat="44.7064032240759" lon="9.862498709896371"><ele>389.5</ele><time>2026-04-19T11:30:36Z</time></trkpt><trkpt lat="44.70647309979096" lon="9.862459579762126"><ele>392.0</ele><time>2026-04-19T11:30:37Z</time></trkpt><trkpt lat="44.70653338029397" lon="9.862419061552721"><ele>394.50000000000006</ele><time>2026-04-19T11:30:38Z</time></trkpt><trkpt lat="44.70659060800051" lon="9.862382045879087"><ele>397.0</ele><time>2026-04-19T11:30:39Z</time></trkpt><trkpt lat="44.706674910742876" lon="9.862284922869062"><ele>397.00000000000006</ele><time>2026-04-19T11:30:41Z</time></trkpt><trkpt lat="44.70673620662187" lon="9.86216729876023"><ele>397.0</ele><time>2026-04-19T11:30:43Z</time></trkpt><trkpt lat="44.70678090494966" lon="9.862102887923099"><ele>397.0</ele><time>2026-04-19T11:30:44Z</time></trkpt><trkpt lat="44.706865748935826" lon="9.86202693107978"><ele>397.0</ele><time>2026-04-19T11:30:46Z</time></trkpt><trkpt lat="44.706954684984716" lon="9.861988097756926"><ele>397.00000000000006</ele><time>2026-04-19T11:30:48Z</time></trkpt><trkpt lat="44.70701784219033" lon="9.861984651591934"><ele>397.0</ele><time>2026-04-19T11:30:51Z</time></trkpt><trkpt lat="44.70712764768164" lon="9.86193654619293"><ele>400.1666666666667</ele><time>2026-04-19T11:30:54Z</time></trkpt><trkpt lat="44.70718685965068" lon="9.861906323036058"><ele>403.33333333333337</ele><time>2026-04-19T11:30:55Z</time></trkpt><trkpt lat="44.70729237202277" lon="9.86185016250087"><ele>406.5</ele><time>2026-04-19T11:30:57Z</time></trkpt><trkpt lat="44.70735438668882" lon="9.861817052960497"><ele>409.66666666666663</ele><time>2026-04-19T11:30:58Z</time></trkpt><trkpt lat="44.707428625831845" lon="9.861792423377866"><ele>412.8333333333333</ele><time>2026-04-19T11:30:59Z</time></trkpt><trkpt lat="44.707515397470175" lon="9.861768889450264"><ele>416.0</ele><time>2026-04-19T11:31:00Z</time></trkpt><trkpt lat="44.70759950793367" lon="9.861753642845771"><ele>416.16666666666663</ele><time>2026-04-19T11:31:01Z</time></trkpt><trkpt lat="44.707663011866856" lon="9.861749895652993"><ele>416.3333333333333</ele><time>2026-04-19T11:31:02Z</time></trkpt><trkpt lat="44.707731921590536" lon="9.861764595199956"><ele>416.5</ele><time>2026-04-19T11:31:03Z</time></trkpt><trkpt lat="44.70780534524063" lon="9.861790559116733"><ele>416.66666666666663</ele><time>2026-04-19T11:31:04Z</time></trkpt><trkpt lat="44.70787884932603" lon="9.861807839806886"><ele>416.8333333333333</ele><time>2026-04-19T11:31:05Z</time></trkpt><trkpt lat="44.70796761021719" lon="9.861867685826736"><ele>417.0</ele><time>2026-04-19T11:31:07Z</time></trkpt><trkpt lat="44.70804695442175" lon="9.86182452772219"><ele>419.40000000000003</ele><time>2026-04-19T11:31:32Z</time></trkpt><trkpt lat="44.70811304254201" lon="9.861772626756519"><ele>421.8</ele><time>2026-04-19T11:32:05.999Z</time></trkpt><trkpt lat="44.70823107475742" lon="9.861708882501699"><ele>424.2</ele><time>2026-04-19T11:32:07.999Z</time></trkpt><trkpt lat="44.708307024080185" lon="9.861673026176717"><ele>426.6</ele><time>2026-04-19T11:32:09.999Z</time></trkpt><trkpt lat="44.70835825043424" lon="9.861587806427151"><ele>429.0</ele><time>2026-04-19T11:32:11.999Z</time></trkpt><trkpt lat="44.70844950570919" lon="9.861509239553559"><ele>429.0</ele><time>2026-04-19T11:32:13.999Z</time></trkpt><trkpt lat="44.70851236804621" lon="9.861360164013945"><ele>429.0</ele><time>2026-04-19T11:32:15.999Z</time></trkpt><trkpt lat="44.708526355692996" lon="9.861268068286632"><ele>429.0</ele><time>2026-04-19T11:32:16.999Z</time></trkpt><trkpt lat="44.7085525696191" lon="9.861109465555831"><ele>429.0</ele><time>2026-04-19T11:32:18.999Z</time></trkpt><trkpt lat="44.7085719058892" lon="9.860970989636856"><ele>429.0</ele><time>2026-04-19T11:32:20.999Z</time></trkpt><trkpt lat="44.70858741822676" lon="9.86083703022542"><ele>428.0</ele><time>2026-04-19T11:32:22.999Z</time></trkpt><trkpt lat="44.70856408561989" lon="9.860727240312233"><ele>427.0</ele><time>2026-04-19T11:32:24.999Z</time></trkpt><trkpt lat="44.70854873130005" lon="9.86063714475102"><ele>426.0</ele><time>2026-04-19T11:32:26.999Z</time></trkpt><trkpt lat="44.708540939217805" lon="9.860520540164687"><ele>425.0</ele><time>2026-04-19T11:32:28.999Z</time></trkpt><trkpt lat="44.708617249303664" lon="9.860416352220781"><ele>424.0</ele><time>2026-04-19T11:32:32.999Z</time></trkpt><trkpt lat="44.70865006039803" lon="9.860335548319659"><ele>423.0</ele><time>2026-04-19T11:32:34.999Z</time></trkpt><trkpt lat="44.70865956027871" lon="9.860180787435317"><ele>425.59999999999997</ele><time>2026-04-19T11:32:36.999Z</time></trkpt><trkpt lat="44.70863639037224" lon="9.860038089716653"><ele>428.2</ele><time>2026-04-19T11:32:38.999Z</time></trkpt><trkpt lat="44.70862796247086" lon="9.859900376468586"><ele>430.8</ele><time>2026-04-19T11:32:41Z</time></trkpt><trkpt lat="44.708614908082" lon="9.859791036192133"><ele>433.4</ele><time>2026-04-19T11:32:43Z</time></trkpt><trkpt lat="44.70867013345711" lon="9.859699889994939"><ele>436.0</ele><time>2026-04-19T11:32:45Z</time></trkpt><trkpt lat="44.708713190847135" lon="9.859566310162545"><ele>436.0</ele><time>2026-04-19T11:32:47Z</time></trkpt><trkpt lat="44.70868082161211" lon="9.859425069128504"><ele>436.0</ele><time>2026-04-19T11:32:49Z</time></trkpt><trkpt lat="44.70868546862759" lon="9.859282440403803"><ele>436.0</ele><time>2026-04-19T11:32:51Z</time></trkpt><trkpt lat="44.70871428702834" lon="9.859109761877896"><ele>436.0</ele><time>2026-04-19T11:32:52Z</time></trkpt><trkpt lat="44.70871391800243" lon="9.859014829434726"><ele>436.0</ele><time>2026-04-19T11:32:54Z</time></trkpt><trkpt lat="44.708718484664416" lon="9.858910004621062"><ele>436.33333333333337</ele><time>2026-04-19T11:33:07Z</time></trkpt><trkpt lat="44.70871381649337" lon="9.85879727338412"><ele>436.6666666666667</ele><time>2026-04-19T11:33:11Z</time></trkpt><trkpt lat="44.70863142956379" lon="9.858760135857825"><ele>437.0</ele><time>2026-04-19T11:33:15Z</time></trkpt><trkpt lat="44.70857136260078" lon="9.858685992834294"><ele>437.33333333333337</ele><time>2026-04-19T11:33:19Z</time></trkpt><trkpt lat="44.70854249844158" lon="9.858606107620876"><ele>437.6666666666667</ele><time>2026-04-19T11:33:27Z</time></trkpt><trkpt lat="44.70852234858184" lon="9.85850628982608"><ele>438.0</ele><time>2026-04-19T11:33:31Z</time></trkpt><trkpt lat="44.70850375443508" lon="9.858404307484554"><ele>435.0</ele><time>2026-04-19T11:33:33Z</time></trkpt><trkpt lat="44.7084894251405" lon="9.858309770851596"><ele>432.0</ele><time>2026-04-19T11:33:34Z</time></trkpt><trkpt lat="44.70847297489702" lon="9.858220870649257"><ele>429.0</ele><time>2026-04-19T11:33:35Z</time></trkpt><trkpt lat="44.70843777548659" lon="9.858126371062733"><ele>426.0</ele><time>2026-04-19T11:33:36Z</time></trkpt><trkpt lat="44.708405449538276" lon="9.858047462144539"><ele>423.0</ele><time>2026-04-19T11:33:37Z</time></trkpt><trkpt lat="44.70835954403418" lon="9.857966530212586"><ele>420.0</ele><time>2026-04-19T11:33:39Z</time></trkpt><trkpt lat="44.708327673812114" lon="9.857858168349749"><ele>417.0</ele><time>2026-04-19T11:33:41Z</time></trkpt><trkpt lat="44.70826171758402" lon="9.857729298752833"><ele>417.0</ele><time>2026-04-19T11:33:43Z</time></trkpt><trkpt lat="44.70822886484778" lon="9.857638872375354"><ele>417.0</ele><time>2026-04-19T11:33:44Z</time></trkpt><trkpt lat="44.70818333678737" lon="9.857503367205984"><ele>417.0</ele><time>2026-04-19T11:33:46Z</time></trkpt><trkpt lat="44.70813881684228" lon="9.857356247098746"><ele>417.0</ele><time>2026-04-19T11:33:48Z</time></trkpt><trkpt lat="44.708102997166556" lon="9.857245041319496"><ele>417.0</ele><time>2026-04-19T11:33:50Z</time></trkpt><trkpt lat="44.70804214195274" lon="9.857154294954029"><ele>418.8</ele><time>2026-04-19T11:33:53Z</time></trkpt><trkpt lat="44.707990835647806" lon="9.856993407699147"><ele>420.6</ele><time>2026-04-19T11:33:55Z</time></trkpt><trkpt lat="44.70797622096262" lon="9.85687615596374"><ele>422.40000000000003</ele><time>2026-04-19T11:33:57Z</time></trkpt><trkpt lat="44.70800179128346" lon="9.856781136325955"><ele>424.20000000000005</ele><time>2026-04-19T11:33:58Z</time></trkpt><trkpt lat="44.70803704076471" lon="9.856658230450229"><ele>426.0</ele><time>2026-04-19T11:33:59Z</time></trkpt><trkpt lat="44.70805668777447" lon="9.856548409286303"><ele>426.0</ele><time>2026-04-19T11:34:00Z</time></trkpt><trkpt lat="44.70806472676249" lon="9.856394348701949"><ele>426.0</ele><time>2026-04-19T11:34:02Z</time></trkpt><trkpt lat="44.70807435368107" lon="9.856297878006433"><ele>426.0</ele><time>2026-04-19T11:34:03Z</time></trkpt><trkpt lat="44.70805887811111" lon="9.856144057671543"><ele>426.0</ele><time>2026-04-19T11:34:04.999Z</time></trkpt><trkpt lat="44.7080322656376" lon="9.855989340863342"><ele>426.0</ele><time>2026-04-19T11:34:06.999Z</time></trkpt><trkpt lat="44.70804205416507" lon="9.855821734730757"><ele>426.0</ele><time>2026-04-19T11:34:08.999Z</time></trkpt><trkpt lat="44.708129322700565" lon="9.855717068767007"><ele>426.0</ele><time>2026-04-19T11:34:10.999Z</time></trkpt><trkpt lat="44.70818765885527" lon="9.855652435305762"><ele>426.0</ele><time>2026-04-19T11:34:11.999Z</time></trkpt><trkpt lat="44.708225251603345" lon="9.855532077927714"><ele>426.0</ele><time>2026-04-19T11:34:13.999Z</time></trkpt><trkpt lat="44.70826094060843" lon="9.85542371051338"><ele>426.0</ele><time>2026-04-19T11:34:16.999Z</time></trkpt><trkpt lat="44.708281548975755" lon="9.855327803248544"><ele>426.0</ele><time>2026-04-19T11:34:19.999Z</time></trkpt><trkpt lat="44.7082758963722" lon="9.855229445342816"><ele>426.0</ele><time>2026-04-19T11:34:21.999Z</time></trkpt><trkpt lat="44.7082980899499" lon="9.85512502477624"><ele>426.0</ele><time>2026-04-19T11:34:24.999Z</time></trkpt><trkpt lat="44.7083440868672" lon="9.855019311442591"><ele>426.0</ele><time>2026-04-19T11:34:27.999Z</time></trkpt><trkpt lat="44.708395556410295" lon="9.854930678869554"><ele>426.0</ele><time>2026-04-19T11:34:30.999Z</time></trkpt><trkpt lat="44.7084597047261" lon="9.854879120480568"><ele>426.0</ele><time>2026-04-19T11:34:32.999Z</time></trkpt><trkpt lat="44.708501248074974" lon="9.854799290802113"><ele>426.0</ele><time>2026-04-19T11:34:35.999Z</time></trkpt><trkpt lat="44.70853927576214" lon="9.85472494077179"><ele>426.6666666666667</ele><time>2026-04-19T11:34:36.999Z</time></trkpt><trkpt lat="44.708593867211654" lon="9.85459115453472"><ele>427.33333333333337</ele><time>2026-04-19T11:34:38.999Z</time></trkpt><trkpt lat="44.708645389140486" lon="9.854499753986364"><ele>428.0</ele><time>2026-04-19T11:34:40.999Z</time></trkpt><trkpt lat="44.708674592009544" lon="9.854405449862636"><ele>428.6666666666667</ele><time>2026-04-19T11:35:39Z</time></trkpt><trkpt lat="44.70859728303289" lon="9.854407709486436"><ele>429.33333333333337</ele><time>2026-04-19T11:35:46Z</time></trkpt><trkpt lat="44.708524695092976" lon="9.854407780000226"><ele>430.0</ele><time>2026-04-19T11:35:49Z</time></trkpt><trkpt lat="44.70844921221001" lon="9.854368959948104"><ele>426.83333333333337</ele><time>2026-04-19T11:35:52Z</time></trkpt><trkpt lat="44.7083823867418" lon="9.854293303892966"><ele>423.6666666666667</ele><time>2026-04-19T11:35:55Z</time></trkpt><trkpt lat="44.70831124091299" lon="9.854219109024672"><ele>420.5</ele><time>2026-04-19T11:35:58Z</time></trkpt><trkpt lat="44.70825217435171" lon="9.854162367678086"><ele>417.33333333333337</ele><time>2026-04-19T11:35:59.999Z</time></trkpt><trkpt lat="44.70816724821116" lon="9.854116987371457"><ele>414.1666666666667</ele><time>2026-04-19T11:36:01.999Z</time></trkpt><trkpt lat="44.70809865999688" lon="9.854097753875683"><ele>411.0</ele><time>2026-04-19T11:36:03.999Z</time></trkpt><trkpt lat="44.70801700621358" lon="9.85406957832721"><ele>409.1666666666667</ele><time>2026-04-19T11:36:06.999Z</time></trkpt><trkpt lat="44.70795535287505" lon="9.854032376261905"><ele>407.33333333333337</ele><time>2026-04-19T11:36:08.999Z</time></trkpt><trkpt lat="44.707896598956076" lon="9.853988759431415"><ele>405.5</ele><time>2026-04-19T11:36:10.999Z</time></trkpt><trkpt lat="44.70782169317488" lon="9.853973747402195"><ele>403.6666666666667</ele><time>2026-04-19T11:36:12.999Z</time></trkpt><trkpt lat="44.707726194386794" lon="9.854009749219319"><ele>401.83333333333337</ele><time>2026-04-19T11:36:14.999Z</time></trkpt><trkpt lat="44.70764597944525" lon="9.853978406429956"><ele>400.0</ele><time>2026-04-19T11:36:17.999Z</time></trkpt><trkpt lat="44.707570927658516" lon="9.853977457713295"><ele>397.28571428571433</ele><time>2026-04-19T11:36:20.999Z</time></trkpt><trkpt lat="44.707494782673045" lon="9.8539732488972"><ele>394.57142857142856</ele><time>2026-04-19T11:36:23.999Z</time></trkpt><trkpt lat="44.707435982909864" lon="9.853892835041227"><ele>391.8571428571429</ele><time>2026-04-19T11:36:26.999Z</time></trkpt><trkpt lat="44.70737726594146" lon="9.853841081646873"><ele>389.14285714285717</ele><time>2026-04-19T11:36:29.999Z</time></trkpt><trkpt lat="44.707320514165296" lon="9.853799684347"><ele>386.42857142857144</ele><time>2026-04-19T11:38:15.999Z</time></trkpt><trkpt lat="44.70725265910653" lon="9.853740275475884"><ele>383.7142857142857</ele><time>2026-04-19T11:38:22.999Z</time></trkpt><trkpt lat="44.70719153899834" lon="9.853689365735752"><ele>381.0</ele><time>2026-04-19T11:38:33.999Z</time></trkpt><trkpt lat="44.707115456640885" lon="9.853639750388856"><ele>381.0</ele><time>2026-04-19T11:38:38.999Z</time></trkpt><trkpt lat="44.70704597213671" lon="9.853584740730744"><ele>381.0</ele><time>2026-04-19T11:38:42.999Z</time></trkpt><trkpt lat="44.70698656191199" lon="9.853544333752888"><ele>381.0</ele><time>2026-04-19T11:38:45.999Z</time></trkpt><trkpt lat="44.70693341714018" lon="9.853493436711258"><ele>381.0</ele><time>2026-04-19T11:38:48.999Z</time></trkpt><trkpt lat="44.706868887097556" lon="9.85344571124398"><ele>381.0</ele><time>2026-04-19T11:38:50.999Z</time></trkpt><trkpt lat="44.70681344077964" lon="9.853390316635933"><ele>381.0</ele><time>2026-04-19T11:38:52.999Z</time></trkpt><trkpt lat="44.70675113950343" lon="9.853315894231363"><ele>381.0</ele><time>2026-04-19T11:38:54.999Z</time></trkpt><trkpt lat="44.70667029347044" lon="9.853269348214555"><ele>376.8333333333333</ele><time>2026-04-19T11:38:58Z</time></trkpt><trkpt lat="44.70659332793159" lon="9.853243614167505"><ele>372.6666666666667</ele><time>2026-04-19T11:39:00Z</time></trkpt><trkpt lat="44.706506368427604" lon="9.853233146092167"><ele>368.5</ele><time>2026-04-19T11:39:03Z</time></trkpt><trkpt lat="44.70643166690245" lon="9.853232114637073"><ele>364.33333333333337</ele><time>2026-04-19T11:39:05Z</time></trkpt><trkpt lat="44.70635376160909" lon="9.85321068531838"><ele>360.1666666666667</ele><time>2026-04-19T11:39:07Z</time></trkpt><trkpt lat="44.70626607714889" lon="9.853214413591608"><ele>356.0</ele><time>2026-04-19T11:39:09Z</time></trkpt><trkpt lat="44.70617746678508" lon="9.853207888877728"><ele>356.0</ele><time>2026-04-19T11:39:11Z</time></trkpt><trkpt lat="44.70611056555619" lon="9.853129719903572"><ele>356.0</ele><time>2026-04-19T11:39:13Z</time></trkpt><trkpt lat="44.706036267100416" lon="9.853056085486553"><ele>356.0</ele><time>2026-04-19T11:39:15Z</time></trkpt><trkpt lat="44.706001533534206" lon="9.852973062626269"><ele>356.0</ele><time>2026-04-19T11:39:18Z</time></trkpt><trkpt lat="44.70595788047453" lon="9.852899267507272"><ele>356.0</ele><time>2026-04-19T11:39:21Z</time></trkpt><trkpt lat="44.70599603669669" lon="9.852749627402234"><ele>356.0</ele><time>2026-04-19T11:39:23Z</time></trkpt><trkpt lat="44.706054290669016" lon="9.852705752972872"><ele>356.0</ele><time>2026-04-19T11:39:26Z</time></trkpt><trkpt lat="44.70616921656122" lon="9.852626206469308"><ele>356.0</ele><time>2026-04-19T11:40:27.999Z</time></trkpt><trkpt lat="44.70625042579455" lon="9.85254284460686"><ele>356.0</ele><time>2026-04-19T11:40:28.999Z</time></trkpt><trkpt lat="44.70634355558627" lon="9.852426693800767"><ele>356.0</ele><time>2026-04-19T11:40:29.999Z</time></trkpt><trkpt lat="44.706437269179965" lon="9.852290557405201"><ele>355.20000000000005</ele><time>2026-04-19T11:40:30.999Z</time></trkpt><trkpt lat="44.70648813313815" lon="9.852163514589272"><ele>354.40000000000003</ele><time>2026-04-19T11:40:31.999Z</time></trkpt><trkpt lat="44.706518589604805" lon="9.852045639304913"><ele>353.6</ele><time>2026-04-19T11:40:32.999Z</time></trkpt><trkpt lat="44.70653646076676" lon="9.851932082428958"><ele>352.8</ele><time>2026-04-19T11:40:33.999Z</time></trkpt><trkpt lat="44.70654865679764" lon="9.851803031791212"><ele>352.0</ele><time>2026-04-19T11:40:34.999Z</time></trkpt><trkpt lat="44.706546823177966" lon="9.851661088224514"><ele>351.6</ele><time>2026-04-19T11:40:35.999Z</time></trkpt><trkpt lat="44.70653475928249" lon="9.85151021160795"><ele>351.20000000000005</ele><time>2026-04-19T11:40:36.999Z</time></trkpt><trkpt lat="44.7065113474887" lon="9.851357937206922"><ele>350.8</ele><time>2026-04-19T11:40:37.999Z</time></trkpt><trkpt lat="44.70648168908572" lon="9.851200184392603"><ele>350.4</ele><time>2026-04-19T11:40:38.999Z</time></trkpt><trkpt lat="44.70645669226118" lon="9.851060490518593"><ele>350.0</ele><time>2026-04-19T11:40:39.999Z</time></trkpt><trkpt lat="44.706438684157725" lon="9.85093445163449"><ele>350.0</ele><time>2026-04-19T11:40:40.999Z</time></trkpt><trkpt lat="44.706424220526124" lon="9.85080255307217"><ele>350.0</ele><time>2026-04-19T11:40:41.999Z</time></trkpt><trkpt lat="44.70641210631158" lon="9.850658677570033"><ele>350.0</ele><time>2026-04-19T11:40:42.999Z</time></trkpt><trkpt lat="44.706392528155014" lon="9.850497727806166"><ele>350.0</ele><time>2026-04-19T11:40:43.999Z</time></trkpt><trkpt lat="44.70637537846435" lon="9.8503293972664"><ele>350.0</ele><time>2026-04-19T11:40:44.999Z</time></trkpt><trkpt lat="44.70637216121648" lon="9.85017352402785"><ele>350.0</ele><time>2026-04-19T11:40:45.999Z</time></trkpt><trkpt lat="44.70639270009787" lon="9.850013605109885"><ele>350.0</ele><time>2026-04-19T11:40:46.999Z</time></trkpt><trkpt lat="44.706425867982446" lon="9.849849304310148"><ele>350.0</ele><time>2026-04-19T11:40:47.999Z</time></trkpt><trkpt lat="44.706474659358825" lon="9.849682614980708"><ele>350.0</ele><time>2026-04-19T11:40:48.999Z</time></trkpt><trkpt lat="44.706535122399764" lon="9.849518487330078"><ele>350.0</ele><time>2026-04-19T11:40:49.999Z</time></trkpt><trkpt lat="44.70660682673943" lon="9.849360119900668"><ele>350.0</ele><time>2026-04-19T11:40:50.999Z</time></trkpt><trkpt lat="44.70668103436626" lon="9.849224955483594"><ele>350.0</ele><time>2026-04-19T11:40:51.999Z</time></trkpt><trkpt lat="44.70676477415496" lon="9.849093115490987"><ele>350.0</ele><time>2026-04-19T11:40:52.999Z</time></trkpt><trkpt lat="44.706849738109554" lon="9.848972078832325"><ele>352.0</ele><time>2026-04-19T11:40:53.999Z</time></trkpt><trkpt lat="44.706930545003324" lon="9.848828212251918"><ele>354.0</ele><time>2026-04-19T11:40:54.999Z</time></trkpt><trkpt lat="44.70699848576354" lon="9.848662941240416"><ele>356.0</ele><time>2026-04-19T11:40:55.999Z</time></trkpt><trkpt lat="44.70705207275571" lon="9.84847938795388"><ele>358.0</ele><time>2026-04-19T11:40:56.999Z</time></trkpt><trkpt lat="44.707100602636544" lon="9.848289945353805"><ele>358.0</ele><time>2026-04-19T11:40:57.999Z</time></trkpt><trkpt lat="44.70714704725145" lon="9.848095615515142"><ele>358.0</ele><time>2026-04-19T11:40:58.999Z</time></trkpt><trkpt lat="44.707188090025475" lon="9.847910695530564"><ele>358.0</ele><time>2026-04-19T11:40:59.999Z</time></trkpt><trkpt lat="44.70722930313149" lon="9.847752356912217"><ele>358.0</ele><time>2026-04-19T11:41:00.999Z</time></trkpt><trkpt lat="44.70726853404903" lon="9.847610201627758"><ele>357.5</ele><time>2026-04-19T11:41:01.999Z</time></trkpt><trkpt lat="44.70732234480599" lon="9.847472577015589"><ele>357.0</ele><time>2026-04-19T11:41:03Z</time></trkpt><trkpt lat="44.70737517783335" lon="9.847325742078667"><ele>356.5</ele><time>2026-04-19T11:41:04Z</time></trkpt><trkpt lat="44.707415904199266" lon="9.847167346714496"><ele>356.0</ele><time>2026-04-19T11:41:05Z</time></trkpt><trkpt lat="44.70742494560197" lon="9.847005127634308"><ele>356.0</ele><time>2026-04-19T11:41:06Z</time></trkpt><trkpt lat="44.70740246500542" lon="9.84683401935092"><ele>356.0</ele><time>2026-04-19T11:41:07Z</time></trkpt><trkpt lat="44.707356170157766" lon="9.846674779437505"><ele>356.0</ele><time>2026-04-19T11:41:08Z</time></trkpt><trkpt lat="44.70728307096011" lon="9.846531374360419"><ele>356.0</ele><time>2026-04-19T11:41:09Z</time></trkpt><trkpt lat="44.70721318746675" lon="9.846387685574474"><ele>355.5</ele><time>2026-04-19T11:41:10Z</time></trkpt><trkpt lat="44.707162140458145" lon="9.84622910124393"><ele>355.0</ele><time>2026-04-19T11:41:11Z</time></trkpt><trkpt lat="44.70712546551767" lon="9.846056467233312"><ele>354.5</ele><time>2026-04-19T11:41:12Z</time></trkpt><trkpt lat="44.70710768113429" lon="9.845871961015948"><ele>354.0</ele><time>2026-04-19T11:41:13Z</time></trkpt><trkpt lat="44.70710348017321" lon="9.845681194160425"><ele>355.25</ele><time>2026-04-19T11:41:14Z</time></trkpt><trkpt lat="44.70711774376184" lon="9.845490237713001"><ele>356.5</ele><time>2026-04-19T11:41:15Z</time></trkpt><trkpt lat="44.70715151487169" lon="9.845320414065524"><ele>357.75</ele><time>2026-04-19T11:41:16Z</time></trkpt><trkpt lat="44.707194214548394" lon="9.845145444407283"><ele>359.0</ele><time>2026-04-19T11:41:17Z</time></trkpt><trkpt lat="44.707243813711706" lon="9.844968606335106"><ele>359.0</ele><time>2026-04-19T11:41:18Z</time></trkpt><trkpt lat="44.70729957244088" lon="9.844787841735698"><ele>359.0</ele><time>2026-04-19T11:41:19Z</time></trkpt><trkpt lat="44.70735535199274" lon="9.844595433025692"><ele>359.0</ele><time>2026-04-19T11:41:20Z</time></trkpt><trkpt lat="44.707407432441485" lon="9.844408057144108"><ele>359.0</ele><time>2026-04-19T11:41:21Z</time></trkpt><trkpt lat="44.70746292239872" lon="9.844227655071398"><ele>357.5</ele><time>2026-04-19T11:41:22Z</time></trkpt><trkpt lat="44.70751555717144" lon="9.844041023548785"><ele>356.0</ele><time>2026-04-19T11:41:23Z</time></trkpt><trkpt lat="44.70756689923589" lon="9.843852425897381"><ele>354.5</ele><time>2026-04-19T11:41:24Z</time></trkpt><trkpt lat="44.707623108603215" lon="9.84366558927017"><ele>353.0</ele><time>2026-04-19T11:41:25Z</time></trkpt><trkpt lat="44.70768064114779" lon="9.84349701873016"><ele>353.0</ele><time>2026-04-19T11:41:26Z</time></trkpt><trkpt lat="44.70773593712117" lon="9.84335502389554"><ele>353.0</ele><time>2026-04-19T11:41:27Z</time></trkpt><trkpt lat="44.70778219240239" lon="9.843221269146502"><ele>353.0</ele><time>2026-04-19T11:41:28Z</time></trkpt><trkpt lat="44.70782318301364" lon="9.843068498505831"><ele>353.0</ele><time>2026-04-19T11:41:29Z</time></trkpt><trkpt lat="44.70787263563507" lon="9.842909037720595"><ele>355.75</ele><time>2026-04-19T11:41:30Z</time></trkpt><trkpt lat="44.707923327984474" lon="9.842732612497072"><ele>358.5</ele><time>2026-04-19T11:41:31Z</time></trkpt><trkpt lat="44.707966675348565" lon="9.842538688399149"><ele>361.25</ele><time>2026-04-19T11:41:32Z</time></trkpt><trkpt lat="44.70802120081019" lon="9.842330886777155"><ele>364.0</ele><time>2026-04-19T11:41:33Z</time></trkpt><trkpt lat="44.708080321044974" lon="9.842122506140097"><ele>364.0</ele><time>2026-04-19T11:41:34Z</time></trkpt><trkpt lat="44.708131056865675" lon="9.841929781653818"><ele>364.0</ele><time>2026-04-19T11:41:35Z</time></trkpt><trkpt lat="44.70818212393552" lon="9.841724071793728"><ele>364.0</ele><time>2026-04-19T11:41:36Z</time></trkpt><trkpt lat="44.708236015544045" lon="9.841516151495808"><ele>363.25</ele><time>2026-04-19T11:41:37Z</time></trkpt><trkpt lat="44.70828834627454" lon="9.841321871716804"><ele>362.5</ele><time>2026-04-19T11:41:38Z</time></trkpt><trkpt lat="44.70833780156412" lon="9.841139852250844"><ele>361.75</ele><time>2026-04-19T11:41:39Z</time></trkpt><trkpt lat="44.708375665488575" lon="9.840951080131738"><ele>361.0</ele><time>2026-04-19T11:41:40Z</time></trkpt><trkpt lat="44.708387291920516" lon="9.840754778423547"><ele>361.0</ele><time>2026-04-19T11:41:41Z</time></trkpt><trkpt lat="44.70836584853014" lon="9.840551487962655"><ele>361.0</ele><time>2026-04-19T11:41:42Z</time></trkpt><trkpt lat="44.708328969853824" lon="9.84035495230632"><ele>361.0</ele><time>2026-04-19T11:41:43Z</time></trkpt><trkpt lat="44.708283433472126" lon="9.840156851187503"><ele>361.0</ele><time>2026-04-19T11:41:44Z</time></trkpt><trkpt lat="44.708249573791804" lon="9.839968690753796"><ele>361.25</ele><time>2026-04-19T11:41:45Z</time></trkpt><trkpt lat="44.70822397217717" lon="9.839798058518697"><ele>361.5</ele><time>2026-04-19T11:41:46Z</time></trkpt><trkpt lat="44.70820060218631" lon="9.839625180245053"><ele>361.75</ele><time>2026-04-19T11:41:47Z</time></trkpt><trkpt lat="44.70820056881226" lon="9.839443895736649"><ele>362.0</ele><time>2026-04-19T11:41:48Z</time></trkpt><trkpt lat="44.708227334028756" lon="9.83925952853934"><ele>362.0</ele><time>2026-04-19T11:41:49Z</time></trkpt><trkpt lat="44.70828584983588" lon="9.839076663560922"><ele>362.0</ele><time>2026-04-19T11:41:50Z</time></trkpt><trkpt lat="44.7083595144653" lon="9.838909041834393"><ele>362.0</ele><time>2026-04-19T11:41:51Z</time></trkpt><trkpt lat="44.70843449932877" lon="9.838774716191713"><ele>362.0</ele><time>2026-04-19T11:41:52Z</time></trkpt><trkpt lat="44.708493997503744" lon="9.838636954606226"><ele>362.0</ele><time>2026-04-19T11:41:53Z</time></trkpt><trkpt lat="44.70854141596663" lon="9.838486874304767"><ele>362.0</ele><time>2026-04-19T11:41:54Z</time></trkpt><trkpt lat="44.708579328208764" lon="9.83833739938076"><ele>362.0</ele><time>2026-04-19T11:41:55Z</time></trkpt><trkpt lat="44.7086005368571" lon="9.838181623012716"><ele>362.0</ele><time>2026-04-19T11:41:56Z</time></trkpt><trkpt lat="44.708633389405904" lon="9.838019027146773"><ele>364.5</ele><time>2026-04-19T11:41:57Z</time></trkpt><trkpt lat="44.708671147195155" lon="9.837854826948378"><ele>367.0</ele><time>2026-04-19T11:41:58Z</time></trkpt><trkpt lat="44.70871826150771" lon="9.837700196067368"><ele>369.5</ele><time>2026-04-19T11:41:59Z</time></trkpt><trkpt lat="44.708775645614985" lon="9.837548193770505"><ele>372.0</ele><time>2026-04-19T11:42:00Z</time></trkpt><trkpt lat="44.70883198517603" lon="9.837395638287498"><ele>372.0</ele><time>2026-04-19T11:42:01Z</time></trkpt><trkpt lat="44.708869676207044" lon="9.83725098020658"><ele>372.0</ele><time>2026-04-19T11:42:02Z</time></trkpt><trkpt lat="44.70888148591644" lon="9.837090045497025"><ele>372.0</ele><time>2026-04-19T11:42:03Z</time></trkpt><trkpt lat="44.70886188115218" lon="9.836935400862952"><ele>372.0</ele><time>2026-04-19T11:42:04Z</time></trkpt><trkpt lat="44.7088146495852" lon="9.836777389724228"><ele>372.0</ele><time>2026-04-19T11:42:05Z</time></trkpt><trkpt lat="44.70874875512037" lon="9.836624260772801"><ele>372.0</ele><time>2026-04-19T11:42:06Z</time></trkpt><trkpt lat="44.70868646309966" lon="9.836474973913525"><ele>372.0</ele><time>2026-04-19T11:42:07Z</time></trkpt><trkpt lat="44.70863101557394" lon="9.836314142982323"><ele>372.0</ele><time>2026-04-19T11:42:08Z</time></trkpt><trkpt lat="44.70859785750334" lon="9.836139330813236"><ele>374.25</ele><time>2026-04-19T11:42:09Z</time></trkpt><trkpt lat="44.70858175069938" lon="9.835957326146053"><ele>376.5</ele><time>2026-04-19T11:42:09.999Z</time></trkpt><trkpt lat="44.708584456218375" lon="9.835755178317735"><ele>378.75</ele><time>2026-04-19T11:42:10.999Z</time></trkpt><trkpt lat="44.70859515082976" lon="9.835546680655158"><ele>381.0</ele><time>2026-04-19T11:42:11.999Z</time></trkpt><trkpt lat="44.70860236452156" lon="9.835332234799461"><ele>381.5</ele><time>2026-04-19T11:42:12.999Z</time></trkpt><trkpt lat="44.708606774179884" lon="9.835116962648621"><ele>382.0</ele><time>2026-04-19T11:42:13.999Z</time></trkpt><trkpt lat="44.70861150954787" lon="9.834917643849874"><ele>382.5</ele><time>2026-04-19T11:42:14.999Z</time></trkpt><trkpt lat="44.708619475336455" lon="9.83471380357475"><ele>383.0</ele><time>2026-04-19T11:42:15.999Z</time></trkpt><trkpt lat="44.708625990830576" lon="9.834512238560011"><ele>383.0</ele><time>2026-04-19T11:42:16.999Z</time></trkpt><trkpt lat="44.70862204080712" lon="9.83433391172722"><ele>383.0</ele><time>2026-04-19T11:42:17.999Z</time></trkpt><trkpt lat="44.70861367223291" lon="9.834174148980129"><ele>383.0</ele><time>2026-04-19T11:42:18.999Z</time></trkpt><trkpt lat="44.70859985891234" lon="9.834008482276143"><ele>383.0</ele><time>2026-04-19T11:42:19.999Z</time></trkpt><trkpt lat="44.70858748485506" lon="9.833836458849188"><ele>383.2</ele><time>2026-04-19T11:42:20.999Z</time></trkpt><trkpt lat="44.70857850990673" lon="9.833674843954869"><ele>383.4</ele><time>2026-04-19T11:42:21.999Z</time></trkpt><trkpt lat="44.708563979209806" lon="9.833538064133196"><ele>383.59999999999997</ele><time>2026-04-19T11:42:22.999Z</time></trkpt><trkpt lat="44.708555141912925" lon="9.833432039007418"><ele>383.79999999999995</ele><time>2026-04-19T11:42:23.999Z</time></trkpt><trkpt lat="44.70855747346948" lon="9.833288698275874"><ele>384.0</ele><time>2026-04-19T11:42:25.999Z</time></trkpt><trkpt lat="44.70854288618579" lon="9.833410270254618"><ele>381.5</ele><time>2026-04-19T11:42:36.999Z</time></trkpt><trkpt lat="44.70856306198583" lon="9.833503757247295"><ele>379.0</ele><time>2026-04-19T11:42:38.999Z</time></trkpt><trkpt lat="44.70856894019316" lon="9.83363199706672"><ele>376.5</ele><time>2026-04-19T11:42:41.999Z</time></trkpt><trkpt lat="44.70857565990264" lon="9.833759890519703"><ele>374.0</ele><time>2026-04-19T11:42:44.999Z</time></trkpt><trkpt lat="44.70855040647058" lon="9.833859322974277"><ele>371.5</ele><time>2026-04-19T11:42:47.999Z</time></trkpt><trkpt lat="44.708446096781906" lon="9.833886040015637"><ele>369.0</ele><time>2026-04-19T11:42:49.999Z</time></trkpt><trkpt lat="44.708347167962025" lon="9.833914533798337"><ele>369.0</ele><time>2026-04-19T11:42:51.999Z</time></trkpt><trkpt lat="44.70825902773305" lon="9.8339181496994"><ele>369.0</ele><time>2026-04-19T11:42:53.999Z</time></trkpt><trkpt lat="44.708214615102065" lon="9.833826089272879"><ele>369.0</ele><time>2026-04-19T11:42:55.999Z</time></trkpt><trkpt lat="44.708148367225725" lon="9.833759764573239"><ele>369.0</ele><time>2026-04-19T11:42:57.999Z</time></trkpt><trkpt lat="44.70808359801627" lon="9.833706044313583"><ele>369.0</ele><time>2026-04-19T11:43:00.999Z</time></trkpt><trkpt lat="44.70803656546076" lon="9.833609552395535"><ele>369.0</ele><time>2026-04-19T11:43:06.999Z</time></trkpt><trkpt lat="44.707972669331255" lon="9.833538115477047"><ele>369.0</ele><time>2026-04-19T11:43:17Z</time></trkpt><trkpt lat="44.70790945770955" lon="9.833481899425836"><ele>369.0</ele><time>2026-04-19T11:43:19Z</time></trkpt><trkpt lat="44.70785514659922" lon="9.833425351360725"><ele>369.0</ele><time>2026-04-19T11:43:22Z</time></trkpt><trkpt lat="44.70774393979984" lon="9.83336982184895"><ele>369.0</ele><time>2026-04-19T11:43:25Z</time></trkpt><trkpt lat="44.707672355014815" lon="9.833347782850673"><ele>369.0</ele><time>2026-04-19T11:43:25.999Z</time></trkpt><trkpt lat="44.70756688765347" lon="9.833264983572965"><ele>369.2</ele><time>2026-04-19T11:43:27.999Z</time></trkpt><trkpt lat="44.707462912824504" lon="9.833162197021657"><ele>369.4</ele><time>2026-04-19T11:43:29.999Z</time></trkpt><trkpt lat="44.70740321428248" lon="9.83309375980864"><ele>369.6</ele><time>2026-04-19T11:43:30.999Z</time></trkpt><trkpt lat="44.70731464285948" lon="9.832989142371915"><ele>369.8</ele><time>2026-04-19T11:43:32.999Z</time></trkpt><trkpt lat="44.70722301052699" lon="9.832895253064056"><ele>370.0</ele><time>2026-04-19T11:43:34.998Z</time></trkpt><trkpt lat="44.70714914391453" lon="9.832818579463565"><ele>370.0</ele><time>2026-04-19T11:43:36.998Z</time></trkpt><trkpt lat="44.707174213011015" lon="9.83272480227554"><ele>370.0</ele><time>2026-04-19T11:43:38.998Z</time></trkpt><trkpt lat="44.70720341882611" lon="9.832592707263515"><ele>370.0</ele><time>2026-04-19T11:43:39.998Z</time></trkpt><trkpt lat="44.707236803376276" lon="9.832452951839118"><ele>370.0</ele><time>2026-04-19T11:43:40.998Z</time></trkpt><trkpt lat="44.70725154323188" lon="9.832324048314197"><ele>370.0</ele><time>2026-04-19T11:43:41.998Z</time></trkpt><trkpt lat="44.70724577583549" lon="9.832179135332257"><ele>370.75</ele><time>2026-04-19T11:43:42.998Z</time></trkpt><trkpt lat="44.70724920275184" lon="9.832003691162269"><ele>371.5</ele><time>2026-04-19T11:43:43.998Z</time></trkpt><trkpt lat="44.70725293758424" lon="9.831832720446991"><ele>372.25</ele><time>2026-04-19T11:43:44.998Z</time></trkpt><trkpt lat="44.707249904016514" lon="9.831685358423497"><ele>373.0</ele><time>2026-04-19T11:43:45.998Z</time></trkpt><trkpt lat="44.70724620717666" lon="9.83153804516253"><ele>373.59999999999997</ele><time>2026-04-19T11:43:46.998Z</time></trkpt><trkpt lat="44.70725116117313" lon="9.831367794999311"><ele>374.2</ele><time>2026-04-19T11:43:47.998Z</time></trkpt><trkpt lat="44.707258735770466" lon="9.831225390972003"><ele>374.8</ele><time>2026-04-19T11:43:48.998Z</time></trkpt><trkpt lat="44.707278300636204" lon="9.831101035725496"><ele>375.4</ele><time>2026-04-19T11:43:49.998Z</time></trkpt><trkpt lat="44.70730601424522" lon="9.83096736634462"><ele>376.0</ele><time>2026-04-19T11:43:50.997Z</time></trkpt><trkpt lat="44.70733749118778" lon="9.830842166679467"><ele>376.16666666666663</ele><time>2026-04-19T11:43:51.997Z</time></trkpt><trkpt lat="44.707346055731776" lon="9.830729491176882"><ele>376.3333333333333</ele><time>2026-04-19T11:43:52.997Z</time></trkpt><trkpt lat="44.707334074857314" lon="9.830631246322671"><ele>376.5</ele><time>2026-04-19T11:43:53.997Z</time></trkpt><trkpt lat="44.70727964113478" lon="9.830520755859792"><ele>376.6666666666667</ele><time>2026-04-19T11:43:56.997Z</time></trkpt><trkpt lat="44.70727591196763" lon="9.830423790506151"><ele>376.83333333333337</ele><time>2026-04-19T11:43:57.997Z</time></trkpt><trkpt lat="44.707266550100165" lon="9.830304132823409"><ele>377.0</ele><time>2026-04-19T11:43:58.997Z</time></trkpt><trkpt lat="44.70725207089656" lon="9.830167604691043"><ele>377.40000000000003</ele><time>2026-04-19T11:43:59.997Z</time></trkpt><trkpt lat="44.707238934449975" lon="9.830016305283731"><ele>377.8</ele><time>2026-04-19T11:44:00.997Z</time></trkpt><trkpt lat="44.70724282818624" lon="9.829875367577403"><ele>378.2</ele><time>2026-04-19T11:44:01.997Z</time></trkpt><trkpt lat="44.70726395969395" lon="9.829734411089643"><ele>378.6</ele><time>2026-04-19T11:44:02.997Z</time></trkpt><trkpt lat="44.7072857742671" lon="9.829594208315143"><ele>379.0</ele><time>2026-04-19T11:44:03.997Z</time></trkpt><trkpt lat="44.70728663534263" lon="9.829454922477602"><ele>379.4</ele><time>2026-04-19T11:44:04.997Z</time></trkpt><trkpt lat="44.70727151687255" lon="9.829297037747294"><ele>379.79999999999995</ele><time>2026-04-19T11:44:05.997Z</time></trkpt><trkpt lat="44.70725440824067" lon="9.829163913542816"><ele>380.20000000000005</ele><time>2026-04-19T11:44:06.997Z</time></trkpt><trkpt lat="44.70724173110194" lon="9.829028663190273"><ele>380.6</ele><time>2026-04-19T11:44:07.997Z</time></trkpt><trkpt lat="44.70721462277539" lon="9.828904857504966"><ele>381.0</ele><time>2026-04-19T11:44:08.997Z</time></trkpt><trkpt lat="44.70719068315578" lon="9.828790300443178"><ele>381.0</ele><time>2026-04-19T11:44:09.997Z</time></trkpt><trkpt lat="44.7071842899112" lon="9.828673756023674"><ele>381.0</ele><time>2026-04-19T11:44:10.997Z</time></trkpt><trkpt lat="44.70720017677478" lon="9.82854017487137"><ele>381.0</ele><time>2026-04-19T11:44:11.997Z</time></trkpt><trkpt lat="44.70722596917256" lon="9.828380210580203"><ele>381.0</ele><time>2026-04-19T11:44:12.997Z</time></trkpt><trkpt lat="44.70723884566549" lon="9.828258174081196"><ele>381.0</ele><time>2026-04-19T11:44:13.997Z</time></trkpt><trkpt lat="44.70720411292257" lon="9.828132390956673"><ele>381.0</ele><time>2026-04-19T11:44:21.997Z</time></trkpt><trkpt lat="44.70711725352385" lon="9.828167298190152"><ele>381.0</ele><time>2026-04-19T11:44:23.997Z</time></trkpt><trkpt lat="44.70707473363026" lon="9.828262511834104"><ele>381.0</ele><time>2026-04-19T11:44:24.997Z</time></trkpt><trkpt lat="44.707033558666005" lon="9.828389119838523"><ele>381.0</ele><time>2026-04-19T11:44:25.997Z</time></trkpt><trkpt lat="44.707009293389724" lon="9.828556106812323"><ele>381.0</ele><time>2026-04-19T11:44:26.997Z</time></trkpt><trkpt lat="44.70699279502335" lon="9.82872350787023"><ele>381.0</ele><time>2026-04-19T11:44:27.997Z</time></trkpt><trkpt lat="44.706971650206896" lon="9.82890241867345"><ele>381.0</ele><time>2026-04-19T11:44:28.997Z</time></trkpt><trkpt lat="44.70694981577783" lon="9.829072987970871"><ele>381.0</ele><time>2026-04-19T11:44:29.997Z</time></trkpt><trkpt lat="44.70692113199669" lon="9.829249524416502"><ele>381.0</ele><time>2026-04-19T11:44:30.997Z</time></trkpt><trkpt lat="44.7068929661093" lon="9.829439863808588"><ele>383.75</ele><time>2026-04-19T11:44:31.997Z</time></trkpt><trkpt lat="44.70686027715955" lon="9.82963574961089"><ele>386.5</ele><time>2026-04-19T11:44:32.997Z</time></trkpt><trkpt lat="44.706825491900176" lon="9.829835548437478"><ele>389.25</ele><time>2026-04-19T11:44:33.997Z</time></trkpt><trkpt lat="44.70678975375344" lon="9.830010931404844"><ele>392.0</ele><time>2026-04-19T11:44:34.997Z</time></trkpt><trkpt lat="44.70675360858591" lon="9.830162316807511"><ele>392.0</ele><time>2026-04-19T11:44:35.997Z</time></trkpt><trkpt lat="44.706703920079704" lon="9.830308106246662"><ele>392.0</ele><time>2026-04-19T11:44:36.997Z</time></trkpt><trkpt lat="44.706647445082396" lon="9.830443486745722"><ele>392.0</ele><time>2026-04-19T11:44:37.997Z</time></trkpt><trkpt lat="44.70659991518521" lon="9.83056092178508"><ele>392.0</ele><time>2026-04-19T11:44:38.997Z</time></trkpt><trkpt lat="44.706542904586215" lon="9.830637970208501"><ele>392.0</ele><time>2026-04-19T11:44:39.997Z</time></trkpt><trkpt lat="44.70646533518193" lon="9.830668686192332"><ele>392.0</ele><time>2026-04-19T11:44:40.997Z</time></trkpt><trkpt lat="44.706371798136416" lon="9.830654342234247"><ele>392.0</ele><time>2026-04-19T11:44:41.997Z</time></trkpt><trkpt lat="44.706290419668925" lon="9.830595653572711"><ele>392.0</ele><time>2026-04-19T11:44:42.997Z</time></trkpt><trkpt lat="44.70623996929781" lon="9.830498569796188"><ele>392.0</ele><time>2026-04-19T11:44:43.997Z</time></trkpt><trkpt lat="44.706245680596425" lon="9.830364254517255"><ele>392.0</ele><time>2026-04-19T11:44:44.997Z</time></trkpt><trkpt lat="44.7062976083628" lon="9.830244971151066"><ele>392.8</ele><time>2026-04-19T11:44:45.997Z</time></trkpt><trkpt lat="44.70637928751631" lon="9.83013659715069"><ele>393.6</ele><time>2026-04-19T11:44:46.997Z</time></trkpt><trkpt lat="44.70646434923655" lon="9.830024868167376"><ele>394.40000000000003</ele><time>2026-04-19T11:44:47.997Z</time></trkpt><trkpt lat="44.70649716361678" lon="9.829902673943693"><ele>395.20000000000005</ele><time>2026-04-19T11:44:48.997Z</time></trkpt><trkpt lat="44.706488183416056" lon="9.829761620906176"><ele>396.0</ele><time>2026-04-19T11:44:49.997Z</time></trkpt><trkpt lat="44.706461027756134" lon="9.829609842302471"><ele>396.0</ele><time>2026-04-19T11:44:50.997Z</time></trkpt><trkpt lat="44.70643686106016" lon="9.829463078309256"><ele>396.0</ele><time>2026-04-19T11:44:51.997Z</time></trkpt><trkpt lat="44.7064244445052" lon="9.829298632721246"><ele>396.0</ele><time>2026-04-19T11:44:52.997Z</time></trkpt><trkpt lat="44.706416643639756" lon="9.82913101115698"><ele>396.0</ele><time>2026-04-19T11:44:53.997Z</time></trkpt><trkpt lat="44.70638209750737" lon="9.828963010961376"><ele>397.0</ele><time>2026-04-19T11:44:54.997Z</time></trkpt><trkpt lat="44.70631497109066" lon="9.828801867104808"><ele>398.0</ele><time>2026-04-19T11:44:55.997Z</time></trkpt><trkpt lat="44.70622103489348" lon="9.828621008418311"><ele>399.0</ele><time>2026-04-19T11:44:56.997Z</time></trkpt><trkpt lat="44.706122183628196" lon="9.828411621163088"><ele>405.0</ele><time>2026-04-19T11:44:57.997Z</time></trkpt><trkpt lat="44.706031053367305" lon="9.828213576469636"><ele>411.0</ele><time>2026-04-19T11:44:58.997Z</time></trkpt><trkpt lat="44.70595083436193" lon="9.828052946530711"><ele>417.0</ele><time>2026-04-19T11:44:59.997Z</time></trkpt><trkpt lat="44.70589898403896" lon="9.827894972888377"><ele>423.0</ele><time>2026-04-19T11:45:00.997Z</time></trkpt><trkpt lat="44.70587592979155" lon="9.827719812781606"><ele>423.2</ele><time>2026-04-19T11:45:01.997Z</time></trkpt><trkpt lat="44.705880534667074" lon="9.827589403972526"><ele>423.4</ele><time>2026-04-19T11:45:02.997Z</time></trkpt><trkpt lat="44.70591340996132" lon="9.827434500724772"><ele>423.59999999999997</ele><time>2026-04-19T11:45:04.997Z</time></trkpt><trkpt lat="44.70589249576459" lon="9.827268501884678"><ele>423.79999999999995</ele><time>2026-04-19T11:45:06.997Z</time></trkpt><trkpt lat="44.70588890905367" lon="9.827165871581947"><ele>424.0</ele><time>2026-04-19T11:45:07.997Z</time></trkpt><trkpt lat="44.70588553336112" lon="9.827056407213986"><ele>424.0</ele><time>2026-04-19T11:45:08.997Z</time></trkpt><trkpt lat="44.70587731780911" lon="9.826954870547327"><ele>424.0</ele><time>2026-04-19T11:45:09.997Z</time></trkpt><trkpt lat="44.7058156347406" lon="9.82683006871085"><ele>424.0</ele><time>2026-04-19T11:45:11.997Z</time></trkpt><trkpt lat="44.705685762696085" lon="9.826811784139988"><ele>424.0</ele><time>2026-04-19T11:45:13.997Z</time></trkpt><trkpt lat="44.705593130936386" lon="9.826782688771848"><ele>424.0</ele><time>2026-04-19T11:45:15.997Z</time></trkpt><trkpt lat="44.70553047815918" lon="9.826723640849778"><ele>424.00000000000006</ele><time>2026-04-19T11:45:17.998Z</time></trkpt><trkpt lat="44.705474267834134" lon="9.826787899476848"><ele>424.0</ele><time>2026-04-19T11:45:21.998Z</time></trkpt><trkpt lat="44.705476048214464" lon="9.826952360725338"><ele>424.0</ele><time>2026-04-19T11:45:23.998Z</time></trkpt><trkpt lat="44.7054508589195" lon="9.827057478144019"><ele>424.0</ele><time>2026-04-19T11:45:24.999Z</time></trkpt><trkpt lat="44.70544524358414" lon="9.827147943917806"><ele>424.00000000000006</ele><time>2026-04-19T11:45:25.999Z</time></trkpt><trkpt lat="44.70543539521204" lon="9.827309138014781"><ele>424.0</ele><time>2026-04-19T11:45:27.999Z</time></trkpt><trkpt lat="44.705403497831156" lon="9.827422855608923"><ele>424.0</ele><time>2026-04-19T11:45:29.999Z</time></trkpt><trkpt lat="44.705426052944254" lon="9.827572442671329"><ele>424.0</ele><time>2026-04-19T11:45:31.999Z</time></trkpt><trkpt lat="44.705418308137844" lon="9.827660488047645"><ele>424.0</ele><time>2026-04-19T11:45:32.999Z</time></trkpt><trkpt lat="44.70542312621239" lon="9.827787442835787"><ele>424.0</ele><time>2026-04-19T11:45:34.999Z</time></trkpt><trkpt lat="44.70542512621451" lon="9.827923765717241"><ele>424.0</ele><time>2026-04-19T11:45:36.999Z</time></trkpt><trkpt lat="44.705423979264914" lon="9.828079145935694"><ele>424.00000000000006</ele><time>2026-04-19T11:45:38.999Z</time></trkpt><trkpt lat="44.70539343577135" lon="9.828174523219813"><ele>424.0</ele><time>2026-04-19T11:45:40.999Z</time></trkpt><trkpt lat="44.705357272859835" lon="9.82829488306416"><ele>424.0</ele><time>2026-04-19T11:45:42.999Z</time></trkpt><trkpt lat="44.705370397209876" lon="9.82843680689879"><ele>424.0</ele><time>2026-04-19T11:45:46Z</time></trkpt><trkpt lat="44.70531462905668" lon="9.828563576682892"><ele>424.00000000000006</ele><time>2026-04-19T11:45:48Z</time></trkpt><trkpt lat="44.70525900762776" lon="9.82862445765564"><ele>424.0</ele><time>2026-04-19T11:45:49Z</time></trkpt><trkpt lat="44.70521700459661" lon="9.82873595930247"><ele>424.00000000000006</ele><time>2026-04-19T11:45:51Z</time></trkpt><trkpt lat="44.70521631637234" lon="9.828826254115446"><ele>424.0</ele><time>2026-04-19T11:45:53Z</time></trkpt><trkpt lat="44.70527716414545" lon="9.828860434359424"><ele>424.0</ele><time>2026-04-19T11:45:55Z</time></trkpt><trkpt lat="44.705368867002655" lon="9.828858510104366"><ele>424.0</ele><time>2026-04-19T11:45:57Z</time></trkpt><trkpt lat="44.70544488256547" lon="9.828900775296077"><ele>424.00000000000006</ele><time>2026-04-19T11:45:59Z</time></trkpt><trkpt lat="44.705501722801" lon="9.829001725889224"><ele>424.0</ele><time>2026-04-19T11:46:01Z</time></trkpt><trkpt lat="44.705519565547355" lon="9.829117199865502"><ele>424.0</ele><time>2026-04-19T11:46:03Z</time></trkpt><trkpt lat="44.70551598730451" lon="9.82926416256533"><ele>424.0</ele><time>2026-04-19T11:46:05Z</time></trkpt><trkpt lat="44.70550826591575" lon="9.829403895004296"><ele>424.0</ele><time>2026-04-19T11:46:07Z</time></trkpt><trkpt lat="44.705508790065934" lon="9.8294950500738"><ele>424.0</ele><time>2026-04-19T11:46:08Z</time></trkpt><trkpt lat="44.705463226756464" lon="9.82964406069648"><ele>424.0</ele><time>2026-04-19T11:46:10Z</time></trkpt><trkpt lat="44.705372406346115" lon="9.829747641119823"><ele>424.83333333333337</ele><time>2026-04-19T11:46:12Z</time></trkpt><trkpt lat="44.70532782940479" lon="9.829813004351228"><ele>425.6666666666667</ele><time>2026-04-19T11:46:14Z</time></trkpt><trkpt lat="44.70527525196325" lon="9.82987889199559"><ele>426.5</ele><time>2026-04-19T11:46:17Z</time></trkpt><trkpt lat="44.70522560780124" lon="9.829964358484188"><ele>427.33333333333337</ele><time>2026-04-19T11:46:23Z</time></trkpt><trkpt lat="44.70525575119667" lon="9.83005038926384"><ele>428.1666666666667</ele><time>2026-04-19T11:46:25Z</time></trkpt><trkpt lat="44.70532898084518" lon="9.830087944808424"><ele>429.0</ele><time>2026-04-19T11:46:27Z</time></trkpt><trkpt lat="44.7053773960416" lon="9.830219169749498"><ele>429.0</ele><time>2026-04-19T11:46:29Z</time></trkpt><trkpt lat="44.70543439095954" lon="9.83032326870344"><ele>429.0</ele><time>2026-04-19T11:46:31Z</time></trkpt><trkpt lat="44.70538794468294" lon="9.830419705385257"><ele>429.0</ele><time>2026-04-19T11:46:36Z</time></trkpt><trkpt lat="44.705322724882784" lon="9.830410910347467"><ele>429.0</ele><time>2026-04-19T11:46:37Z</time></trkpt><trkpt lat="44.705208728059354" lon="9.83039256575778"><ele>429.0</ele><time>2026-04-19T11:46:39Z</time></trkpt><trkpt lat="44.70510653510572" lon="9.83040389397828"><ele>429.0</ele><time>2026-04-19T11:46:41Z</time></trkpt><trkpt lat="44.70497522223252" lon="9.830462826309116"><ele>429.0</ele><time>2026-04-19T11:46:43Z</time></trkpt><trkpt lat="44.70488783968475" lon="9.830506123209382"><ele>429.0</ele><time>2026-04-19T11:46:45Z</time></trkpt><trkpt lat="44.7047859978731" lon="9.83058242476312"><ele>429.0</ele><time>2026-04-19T11:46:47Z</time></trkpt><trkpt lat="44.704708554905714" lon="9.83065194869759"><ele>429.0</ele><time>2026-04-19T11:46:49Z</time></trkpt><trkpt lat="44.70461096742801" lon="9.830748066842586"><ele>429.0</ele><time>2026-04-19T11:46:50.999Z</time></trkpt><trkpt lat="44.70455864745592" lon="9.83080018839473"><ele>429.0</ele><time>2026-04-19T11:46:51.999Z</time></trkpt><trkpt lat="44.704507617081156" lon="9.830866956591374"><ele>429.0</ele><time>2026-04-19T11:46:52.999Z</time></trkpt><trkpt lat="44.70445318746076" lon="9.830927263890464"><ele>429.0</ele><time>2026-04-19T11:46:53.999Z</time></trkpt><trkpt lat="44.7043940284831" lon="9.83099642095584"><ele>429.0</ele><time>2026-04-19T11:46:54.999Z</time></trkpt><trkpt lat="44.7043345526593" lon="9.83105394165558"><ele>429.0</ele><time>2026-04-19T11:46:55.999Z</time></trkpt><trkpt lat="44.70427804155846" lon="9.83109416879602"><ele>429.0</ele><time>2026-04-19T11:46:56.999Z</time></trkpt><trkpt lat="44.7042142533855" lon="9.831134255000546"><ele>433.0</ele><time>2026-04-19T11:46:57.999Z</time></trkpt><trkpt lat="44.704138332903675" lon="9.831153781598829"><ele>437.0</ele><time>2026-04-19T11:46:58.999Z</time></trkpt><trkpt lat="44.70404164235616" lon="9.831172340280984"><ele>441.0</ele><time>2026-04-19T11:46:59.999Z</time></trkpt><trkpt lat="44.70394600000267" lon="9.831198090539512"><ele>445.0</ele><time>2026-04-19T11:47:00.999Z</time></trkpt><trkpt lat="44.70385724558217" lon="9.83125438206776"><ele>449.0</ele><time>2026-04-19T11:47:01.999Z</time></trkpt><trkpt lat="44.703750925864945" lon="9.831330604974326"><ele>449.0</ele><time>2026-04-19T11:47:02.999Z</time></trkpt><trkpt lat="44.70368038382439" lon="9.831382118839167"><ele>449.0</ele><time>2026-04-19T11:47:03.999Z</time></trkpt><trkpt lat="44.70362416802555" lon="9.831458679885365"><ele>449.0</ele><time>2026-04-19T11:47:05.999Z</time></trkpt><trkpt lat="44.703600640270956" lon="9.83159466136437"><ele>449.0</ele><time>2026-04-19T11:47:07.999Z</time></trkpt><trkpt lat="44.703635090882905" lon="9.831787008257798"><ele>449.0</ele><time>2026-04-19T11:47:09.999Z</time></trkpt><trkpt lat="44.703655650096586" lon="9.831904929384441"><ele>449.16666666666663</ele><time>2026-04-19T11:47:10.999Z</time></trkpt><trkpt lat="44.703677873692676" lon="9.832049032312975"><ele>449.3333333333333</ele><time>2026-04-19T11:47:12.999Z</time></trkpt><trkpt lat="44.70368949481429" lon="9.832149509925973"><ele>449.5</ele><time>2026-04-19T11:47:13.999Z</time></trkpt><trkpt lat="44.70371037002795" lon="9.832250861945743"><ele>449.66666666666663</ele><time>2026-04-19T11:47:14.999Z</time></trkpt><trkpt lat="44.70367903835431" lon="9.832402436381273"><ele>449.8333333333333</ele><time>2026-04-19T11:47:17.999Z</time></trkpt><trkpt lat="44.70364021504499" lon="9.83249485146088"><ele>450.0</ele><time>2026-04-19T11:47:18.999Z</time></trkpt><trkpt lat="44.70358378553039" lon="9.832635329900352"><ele>453.6</ele><time>2026-04-19T11:47:21Z</time></trkpt><trkpt lat="44.70355149745334" lon="9.832711488319251"><ele>457.2</ele><time>2026-04-19T11:47:23Z</time></trkpt><trkpt lat="44.703484406322936" lon="9.832753758374022"><ele>460.79999999999995</ele><time>2026-04-19T11:47:53Z</time></trkpt><trkpt lat="44.70340932607124" lon="9.832616976465376"><ele>464.4</ele><time>2026-04-19T11:47:55Z</time></trkpt><trkpt lat="44.70336126970978" lon="9.832505081772945"><ele>468.0</ele><time>2026-04-19T11:47:56Z</time></trkpt><trkpt lat="44.703302560561305" lon="9.83237761380012"><ele>469.0</ele><time>2026-04-19T11:47:57Z</time></trkpt><trkpt lat="44.70323750413818" lon="9.832262206022824"><ele>469.99999999999994</ele><time>2026-04-19T11:47:58Z</time></trkpt><trkpt lat="44.70315285022337" lon="9.832137073636238"><ele>470.99999999999994</ele><time>2026-04-19T11:47:59Z</time></trkpt><trkpt lat="44.70306446154604" lon="9.832015278404103"><ele>472.0</ele><time>2026-04-19T11:48:00Z</time></trkpt><trkpt lat="44.703001538199366" lon="9.831934922717503"><ele>473.0</ele><time>2026-04-19T11:48:01Z</time></trkpt><trkpt lat="44.702943611417076" lon="9.831852649063343"><ele>472.2</ele><time>2026-04-19T11:48:02Z</time></trkpt><trkpt lat="44.702875803663126" lon="9.831749620850182"><ele>471.4</ele><time>2026-04-19T11:48:03Z</time></trkpt><trkpt lat="44.702795392852146" lon="9.831642608582634"><ele>470.59999999999997</ele><time>2026-04-19T11:48:04Z</time></trkpt><trkpt lat="44.702692101394135" lon="9.83158918498494"><ele>469.79999999999995</ele><time>2026-04-19T11:48:06Z</time></trkpt><trkpt lat="44.702633702812925" lon="9.83163246922176"><ele>469.0</ele><time>2026-04-19T11:48:07Z</time></trkpt><trkpt lat="44.702579810568466" lon="9.83172895926932"><ele>471.2</ele><time>2026-04-19T11:48:08Z</time></trkpt><trkpt lat="44.70253494727341" lon="9.831831953947772"><ele>473.4</ele><time>2026-04-19T11:48:09Z</time></trkpt><trkpt lat="44.70245749478994" lon="9.83190280234206"><ele>475.6</ele><time>2026-04-19T11:48:11Z</time></trkpt><trkpt lat="44.702413435772286" lon="9.832045112835896"><ele>477.8</ele><time>2026-04-19T11:48:14Z</time></trkpt><trkpt lat="44.70239724776053" lon="9.832141320004965"><ele>480.0</ele><time>2026-04-19T11:48:15Z</time></trkpt><trkpt lat="44.7023351661982" lon="9.832281444761025"><ele>480.0</ele><time>2026-04-19T11:48:17Z</time></trkpt><trkpt lat="44.70225236191166" lon="9.832402859239174"><ele>480.0</ele><time>2026-04-19T11:48:19Z</time></trkpt><trkpt lat="44.702176532059006" lon="9.832526334558487"><ele>480.0</ele><time>2026-04-19T11:48:21Z</time></trkpt><trkpt lat="44.70209301937233" lon="9.832657929346844"><ele>480.0</ele><time>2026-04-19T11:48:23Z</time></trkpt><trkpt lat="44.70201442744176" lon="9.832784939929288"><ele>479.0</ele><time>2026-04-19T11:48:25Z</time></trkpt><trkpt lat="44.701982133319326" lon="9.832862003934235"><ele>478.0</ele><time>2026-04-19T11:48:26Z</time></trkpt><trkpt lat="44.701950399379406" lon="9.832977528375535"><ele>477.0</ele><time>2026-04-19T11:48:28Z</time></trkpt><trkpt lat="44.70193029266492" lon="9.833096093665942"><ele>476.0</ele><time>2026-04-19T11:48:30Z</time></trkpt><trkpt lat="44.70191220139394" lon="9.83326557336838"><ele>475.0</ele><time>2026-04-19T11:48:32Z</time></trkpt><trkpt lat="44.70189654909672" lon="9.833407144616073"><ele>473.6</ele><time>2026-04-19T11:48:34Z</time></trkpt><trkpt lat="44.70191903366197" lon="9.833584662545906"><ele>472.2</ele><time>2026-04-19T11:48:36Z</time></trkpt><trkpt lat="44.701902733630625" lon="9.833706835949345"><ele>470.79999999999995</ele><time>2026-04-19T11:48:37.999Z</time></trkpt><trkpt lat="44.70186068807012" lon="9.833874628919723"><ele>469.4</ele><time>2026-04-19T11:48:39.999Z</time></trkpt><trkpt lat="44.701836355821754" lon="9.833965339156741"><ele>468.0</ele><time>2026-04-19T11:48:40.999Z</time></trkpt><trkpt lat="44.70178435450754" lon="9.834145975278446"><ele>470.79999999999995</ele><time>2026-04-19T11:48:42.999Z</time></trkpt><trkpt lat="44.70174689270415" lon="9.834241321418071"><ele>473.59999999999997</ele><time>2026-04-19T11:48:43.999Z</time></trkpt><trkpt lat="44.7017163215459" lon="9.834417652224213"><ele>476.40000000000003</ele><time>2026-04-19T11:48:45.999Z</time></trkpt><trkpt lat="44.7017144866109" lon="9.834530348271391"><ele>479.20000000000005</ele><time>2026-04-19T11:48:46.999Z</time></trkpt><trkpt lat="44.701701447331494" lon="9.83463405027664"><ele>482.0</ele><time>2026-04-19T11:48:47.999Z</time></trkpt><trkpt lat="44.70167532273747" lon="9.834758953681225"><ele>482.0</ele><time>2026-04-19T11:48:48.999Z</time></trkpt><trkpt lat="44.701662680414415" lon="9.834885281613483"><ele>482.00000000000006</ele><time>2026-04-19T11:48:49.999Z</time></trkpt><trkpt lat="44.70165764048244" lon="9.834989132848076"><ele>482.00000000000006</ele><time>2026-04-19T11:48:50.999Z</time></trkpt><trkpt lat="44.70163818427192" lon="9.835134362995227"><ele>482.0</ele><time>2026-04-19T11:48:52.999Z</time></trkpt><trkpt lat="44.701542714691946" lon="9.835185070262199"><ele>482.0</ele><time>2026-04-19T11:48:54.999Z</time></trkpt><trkpt lat="44.701421351327824" lon="9.835123449563387"><ele>481.99999999999994</ele><time>2026-04-19T11:48:56.999Z</time></trkpt><trkpt lat="44.70135373550641" lon="9.83504802094795"><ele>482.0</ele><time>2026-04-19T11:48:57.999Z</time></trkpt><trkpt lat="44.701274634907946" lon="9.834965838185232"><ele>482.0</ele><time>2026-04-19T11:48:58.999Z</time></trkpt><trkpt lat="44.70120753639393" lon="9.834891906681161"><ele>482.0</ele><time>2026-04-19T11:48:59.999Z</time></trkpt><trkpt lat="44.701158892618864" lon="9.834830970976833"><ele>481.99999999999994</ele><time>2026-04-19T11:49:00.999Z</time></trkpt><trkpt lat="44.70110009846903" lon="9.834763366245925"><ele>482.0</ele><time>2026-04-19T11:49:01.999Z</time></trkpt><trkpt lat="44.700997230102324" lon="9.834730960756866"><ele>484.8333333333333</ele><time>2026-04-19T11:49:03.999Z</time></trkpt><trkpt lat="44.70092269207641" lon="9.834776413423986"><ele>487.66666666666663</ele><time>2026-04-19T11:49:04.999Z</time></trkpt><trkpt lat="44.70084508777702" lon="9.834811075881499"><ele>490.5</ele><time>2026-04-19T11:49:05.999Z</time></trkpt><trkpt lat="44.70078668726835" lon="9.834844762855164"><ele>493.33333333333337</ele><time>2026-04-19T11:49:06.999Z</time></trkpt><trkpt lat="44.70070741680247" lon="9.83492378244447"><ele>496.1666666666667</ele><time>2026-04-19T11:49:08.999Z</time></trkpt><trkpt lat="44.70060086988332" lon="9.83498894342842"><ele>499.0</ele><time>2026-04-19T11:49:10.999Z</time></trkpt><trkpt lat="44.70053991861693" lon="9.835034102620101"><ele>499.0</ele><time>2026-04-19T11:49:11.999Z</time></trkpt><trkpt lat="44.70044346741976" lon="9.83511770291513"><ele>499.0</ele><time>2026-04-19T11:49:13.999Z</time></trkpt><trkpt lat="44.70035841743132" lon="9.835167339436161"><ele>499.0</ele><time>2026-04-19T11:49:15.999Z</time></trkpt><trkpt lat="44.70036038314362" lon="9.835266878508321"><ele>499.0</ele><time>2026-04-19T11:49:18.999Z</time></trkpt><trkpt lat="44.70038351068496" lon="9.835380588495237"><ele>499.0</ele><time>2026-04-19T11:49:20.999Z</time></trkpt><trkpt lat="44.70036491824255" lon="9.83555598168619"><ele>498.0</ele><time>2026-04-19T11:49:22.999Z</time></trkpt><trkpt lat="44.7003679049125" lon="9.835655382125163"><ele>497.0</ele><time>2026-04-19T11:49:23.999Z</time></trkpt><trkpt lat="44.70036153282996" lon="9.835810231147283"><ele>496.0</ele><time>2026-04-19T11:49:26Z</time></trkpt><trkpt lat="44.70033953764462" lon="9.83591394930497"><ele>495.0</ele><time>2026-04-19T11:49:28Z</time></trkpt><trkpt lat="44.7002899227918" lon="9.83607693727025"><ele>494.0</ele><time>2026-04-19T11:49:30Z</time></trkpt><trkpt lat="44.70024684679348" lon="9.836165734669203"><ele>497.0</ele><time>2026-04-19T11:49:31Z</time></trkpt><trkpt lat="44.700215405683146" lon="9.83625747510782"><ele>500.0</ele><time>2026-04-19T11:49:33Z</time></trkpt><trkpt lat="44.70017187105363" lon="9.836361701924542"><ele>503.0</ele><time>2026-04-19T11:49:35Z</time></trkpt><trkpt lat="44.700111046769365" lon="9.836508248829471"><ele>506.0</ele><time>2026-04-19T11:49:37Z</time></trkpt><trkpt lat="44.70004506186456" lon="9.836611037228378"><ele>509.0</ele><time>2026-04-19T11:49:39Z</time></trkpt><trkpt lat="44.69999976114496" lon="9.83669982087527"><ele>507.79999999999995</ele><time>2026-04-19T11:49:41Z</time></trkpt><trkpt lat="44.6999565694955" lon="9.836804787209307"><ele>506.59999999999997</ele><time>2026-04-19T11:49:43Z</time></trkpt><trkpt lat="44.699897017849985" lon="9.836892004275075"><ele>505.4</ele><time>2026-04-19T11:49:44Z</time></trkpt><trkpt lat="44.69985823961277" lon="9.836990162674004"><ele>504.2</ele><time>2026-04-19T11:49:45Z</time></trkpt><trkpt lat="44.6998291972357" lon="9.837093453618426"><ele>503.0</ele><time>2026-04-19T11:49:47Z</time></trkpt><trkpt lat="44.699788024609255" lon="9.837286344625163"><ele>502.99999999999994</ele><time>2026-04-19T11:49:49Z</time></trkpt><trkpt lat="44.699821617488716" lon="9.837426371799284"><ele>503.0</ele><time>2026-04-19T11:49:52Z</time></trkpt><trkpt lat="44.69984373869651" lon="9.837550544282012"><ele>503.0</ele><time>2026-04-19T11:49:54Z</time></trkpt><trkpt lat="44.69985983689301" lon="9.837657621265269"><ele>503.0</ele><time>2026-04-19T11:49:55Z</time></trkpt><trkpt lat="44.69986066127694" lon="9.837775142139279"><ele>502.99999999999994</ele><time>2026-04-19T11:49:56Z</time></trkpt><trkpt lat="44.69986259513784" lon="9.8378785128466"><ele>503.0</ele><time>2026-04-19T11:49:57Z</time></trkpt><trkpt lat="44.699860673309736" lon="9.83805855147595"><ele>503.79999999999995</ele><time>2026-04-19T11:49:59Z</time></trkpt><trkpt lat="44.69980375922994" lon="9.838232046984968"><ele>504.59999999999997</ele><time>2026-04-19T11:50:01Z</time></trkpt><trkpt lat="44.69979564347013" lon="9.838322672032177"><ele>505.40000000000003</ele><time>2026-04-19T11:50:02Z</time></trkpt><trkpt lat="44.6998005038869" lon="9.838517482497627"><ele>506.20000000000005</ele><time>2026-04-19T11:50:04Z</time></trkpt><trkpt lat="44.69979322587024" lon="9.83862977784813"><ele>507.0</ele><time>2026-04-19T11:50:05Z</time></trkpt><trkpt lat="44.69975125075545" lon="9.838799109662556"><ele>507.0</ele><time>2026-04-19T11:50:07Z</time></trkpt><trkpt lat="44.699699267974516" lon="9.838932717440114"><ele>507.0</ele><time>2026-04-19T11:50:09Z</time></trkpt><trkpt lat="44.69966567837923" lon="9.839095783785076"><ele>507.0</ele><time>2026-04-19T11:50:11Z</time></trkpt><trkpt lat="44.69965059794236" lon="9.839254736694695"><ele>507.0</ele><time>2026-04-19T11:50:14Z</time></trkpt><trkpt lat="44.69962334406871" lon="9.839430323442466"><ele>507.0</ele><time>2026-04-19T11:50:16Z</time></trkpt><trkpt lat="44.69961404148183" lon="9.83951943989823"><ele>507.0</ele><time>2026-04-19T11:50:17Z</time></trkpt><trkpt lat="44.69961400824887" lon="9.839615548185977"><ele>507.0</ele><time>2026-04-19T11:50:18Z</time></trkpt><trkpt lat="44.69958670454512" lon="9.839779631526374"><ele>507.0</ele><time>2026-04-19T11:50:20Z</time></trkpt><trkpt lat="44.699586025121526" lon="9.839879897309185"><ele>507.0</ele><time>2026-04-19T11:50:22Z</time></trkpt><trkpt lat="44.699567484115256" lon="9.83999795272187"><ele>507.0</ele><time>2026-04-19T11:50:24Z</time></trkpt><trkpt lat="44.69959184992425" lon="9.840144733154686"><ele>506.8</ele><time>2026-04-19T11:50:26Z</time></trkpt><trkpt lat="44.69961343280596" lon="9.84025457843567"><ele>506.6</ele><time>2026-04-19T11:50:28Z</time></trkpt><trkpt lat="44.699634798169676" lon="9.84033837972797"><ele>506.40000000000003</ele><time>2026-04-19T11:50:29Z</time></trkpt><trkpt lat="44.69965402558858" lon="9.84044267201658"><ele>506.20000000000005</ele><time>2026-04-19T11:50:31Z</time></trkpt><trkpt lat="44.69968598248458" lon="9.840711092261563"><ele>506.0</ele><time>2026-04-19T11:50:33Z</time></trkpt><trkpt lat="44.69970357636698" lon="9.840800509568044"><ele>506.0</ele><time>2026-04-19T11:50:35Z</time></trkpt><trkpt lat="44.69973631007335" lon="9.840922305696129"><ele>506.0</ele><time>2026-04-19T11:50:37Z</time></trkpt><trkpt lat="44.699831013046136" lon="9.841066389194847"><ele>506.0</ele><time>2026-04-19T11:50:45.999Z</time></trkpt><trkpt lat="44.69987766092393" lon="9.841212308610935"><ele>506.0</ele><time>2026-04-19T11:50:47.999Z</time></trkpt><trkpt lat="44.69988406969668" lon="9.841308991853394"><ele>506.0</ele><time>2026-04-19T11:50:49.999Z</time></trkpt><trkpt lat="44.69980402156412" lon="9.841347809261384"><ele>506.4</ele><time>2026-04-19T11:50:51.999Z</time></trkpt><trkpt lat="44.699697776876064" lon="9.841345559498398"><ele>506.8</ele><time>2026-04-19T11:50:53.999Z</time></trkpt><trkpt lat="44.69960396692906" lon="9.84135939901098"><ele>507.19999999999993</ele><time>2026-04-19T11:50:54.999Z</time></trkpt><trkpt lat="44.699503624621265" lon="9.841385230753174"><ele>507.59999999999997</ele><time>2026-04-19T11:50:55.999Z</time></trkpt><trkpt lat="44.69942808962039" lon="9.841418209288632"><ele>508.0</ele><time>2026-04-19T11:50:56.999Z</time></trkpt><trkpt lat="44.699351733178446" lon="9.841408138895169"><ele>508.0</ele><time>2026-04-19T11:50:57.999Z</time></trkpt><trkpt lat="44.69925036945024" lon="9.841273836726975"><ele>507.99999999999994</ele><time>2026-04-19T11:50:59.999Z</time></trkpt><trkpt lat="44.699190210317184" lon="9.841203508396612"><ele>507.99999999999994</ele><time>2026-04-19T11:51:00.999Z</time></trkpt><trkpt lat="44.699132828810946" lon="9.841136525707"><ele>508.0</ele><time>2026-04-19T11:51:01.999Z</time></trkpt><trkpt lat="44.69908628710622" lon="9.8410673946717"><ele>508.0</ele><time>2026-04-19T11:51:02.999Z</time></trkpt><trkpt lat="44.69900903079752" lon="9.840972765682862"><ele>510.75</ele><time>2026-04-19T11:51:04.999Z</time></trkpt><trkpt lat="44.69891184392128" lon="9.840840086645322"><ele>513.5</ele><time>2026-04-19T11:51:06.999Z</time></trkpt><trkpt lat="44.69884714441951" lon="9.84075408282238"><ele>516.25</ele><time>2026-04-19T11:51:07.999Z</time></trkpt><trkpt lat="44.69874773511037" lon="9.840658714238092"><ele>519.0</ele><time>2026-04-19T11:51:09.999Z</time></trkpt><trkpt lat="44.69865881663904" lon="9.840574300680528"><ele>519.0</ele><time>2026-04-19T11:51:11.999Z</time></trkpt><trkpt lat="44.698611267491295" lon="9.84050251093817"><ele>519.0</ele><time>2026-04-19T11:51:12.999Z</time></trkpt><trkpt lat="44.69849735755293" lon="9.840430775186517"><ele>519.0</ele><time>2026-04-19T11:51:14.999Z</time></trkpt><trkpt lat="44.69843971059112" lon="9.840330307946788"><ele>519.0</ele><time>2026-04-19T11:51:15.999Z</time></trkpt><trkpt lat="44.69838881527716" lon="9.840197024817341"><ele>519.0</ele><time>2026-04-19T11:51:17.999Z</time></trkpt><trkpt lat="44.698314802856984" lon="9.840146435557019"><ele>521.8333333333334</ele><time>2026-04-19T11:51:19.999Z</time></trkpt><trkpt lat="44.698251737348315" lon="9.840108153314205"><ele>524.6666666666666</ele><time>2026-04-19T11:51:20.999Z</time></trkpt><trkpt lat="44.69818696830488" lon="9.840065948201975"><ele>527.5</ele><time>2026-04-19T11:51:21.999Z</time></trkpt><trkpt lat="44.69812175600192" lon="9.839981857579046"><ele>530.3333333333333</ele><time>2026-04-19T11:51:22.999Z</time></trkpt><trkpt lat="44.698040737737784" lon="9.83995480132753"><ele>533.1666666666666</ele><time>2026-04-19T11:51:23.999Z</time></trkpt><trkpt lat="44.69799298862665" lon="9.839874812190024"><ele>536.0</ele><time>2026-04-19T11:51:24.999Z</time></trkpt><trkpt lat="44.697905283403266" lon="9.839834509472855"><ele>536.0</ele><time>2026-04-19T11:51:25.999Z</time></trkpt><trkpt lat="44.69784283136026" lon="9.839815669656783"><ele>536.0</ele><time>2026-04-19T11:51:26.999Z</time></trkpt><trkpt lat="44.69776546843495" lon="9.839724182408414"><ele>536.0</ele><time>2026-04-19T11:51:28.999Z</time></trkpt><trkpt lat="44.69766459246322" lon="9.839693444716763"><ele>536.0</ele><time>2026-04-19T11:51:31Z</time></trkpt><trkpt lat="44.69757715116258" lon="9.83961332610899"><ele>536.0</ele><time>2026-04-19T11:51:33Z</time></trkpt><trkpt lat="44.69749006673992" lon="9.839580925762844"><ele>537.6</ele><time>2026-04-19T11:51:35Z</time></trkpt><trkpt lat="44.69739869762597" lon="9.839495025260076"><ele>539.2</ele><time>2026-04-19T11:51:37Z</time></trkpt><trkpt lat="44.697311224453514" lon="9.839408140557456"><ele>540.8</ele><time>2026-04-19T11:51:39Z</time></trkpt><trkpt lat="44.697232857011635" lon="9.839375489489925"><ele>542.4</ele><time>2026-04-19T11:51:40Z</time></trkpt><trkpt lat="44.69715852077155" lon="9.839334718559485"><ele>544.0</ele><time>2026-04-19T11:51:41Z</time></trkpt><trkpt lat="44.69709010512238" lon="9.83941103544131"><ele>544.0</ele><time>2026-04-19T11:51:45Z</time></trkpt><trkpt lat="44.69702752064766" lon="9.83946932690794"><ele>544.0</ele><time>2026-04-19T11:51:48Z</time></trkpt><trkpt lat="44.69692728585311" lon="9.83940419896393"><ele>544.0</ele><time>2026-04-19T11:51:50Z</time></trkpt><trkpt lat="44.69683487067811" lon="9.839367426772107"><ele>544.0</ele><time>2026-04-19T11:51:52Z</time></trkpt><trkpt lat="44.696741978550754" lon="9.83940072689454"><ele>544.0</ele><time>2026-04-19T11:51:55Z</time></trkpt><trkpt lat="44.696714868070394" lon="9.839496310207325"><ele>544.8571428571428</ele><time>2026-04-19T11:51:58Z</time></trkpt><trkpt lat="44.69667180713118" lon="9.839573702414116"><ele>545.7142857142857</ele><time>2026-04-19T11:52:00Z</time></trkpt><trkpt lat="44.69660156833318" lon="9.83962084288148"><ele>546.5714285714286</ele><time>2026-04-19T11:52:02Z</time></trkpt><trkpt lat="44.69652460846057" lon="9.839623346958078"><ele>547.4285714285713</ele><time>2026-04-19T11:52:04Z</time></trkpt><trkpt lat="44.696447579220326" lon="9.839646701928755"><ele>548.2857142857142</ele><time>2026-04-19T11:52:06Z</time></trkpt><trkpt lat="44.696400081727425" lon="9.83970552882652"><ele>549.1428571428571</ele><time>2026-04-19T11:52:09Z</time></trkpt><trkpt lat="44.696327277587606" lon="9.839723317016555"><ele>550.0</ele><time>2026-04-19T11:52:12Z</time></trkpt><trkpt lat="44.696263538347765" lon="9.839774360595275"><ele>550.0</ele><time>2026-04-19T11:52:14Z</time></trkpt><trkpt lat="44.69620819746169" lon="9.839850023151554"><ele>550.0</ele><time>2026-04-19T11:52:16Z</time></trkpt><trkpt lat="44.69617200978641" lon="9.83995949501028"><ele>550.0</ele><time>2026-04-19T11:52:18Z</time></trkpt><trkpt lat="44.69613876637187" lon="9.840082098427516"><ele>550.0</ele><time>2026-04-19T11:52:20Z</time></trkpt><trkpt lat="44.69609497356284" lon="9.840194884857764"><ele>550.0</ele><time>2026-04-19T11:52:23Z</time></trkpt><trkpt lat="44.69600825230292" lon="9.840276171144493"><ele>551.8333333333334</ele><time>2026-04-19T11:52:25Z</time></trkpt><trkpt lat="44.695930337531095" lon="9.840334617630393"><ele>553.6666666666667</ele><time>2026-04-19T11:52:27Z</time></trkpt><trkpt lat="44.69595362692202" lon="9.84042402606917"><ele>555.5</ele><time>2026-04-19T11:52:29Z</time></trkpt><trkpt lat="44.69595793585008" lon="9.840516210366006"><ele>557.3333333333334</ele><time>2026-04-19T11:52:31Z</time></trkpt><trkpt lat="44.69594870441918" lon="9.840621002934013"><ele>559.1666666666666</ele><time>2026-04-19T11:52:34Z</time></trkpt><trkpt lat="44.69594889372477" lon="9.840718582568815"><ele>561.0</ele><time>2026-04-19T11:52:36Z</time></trkpt><trkpt lat="44.6959342719459" lon="9.840867462413565"><ele>560.0</ele><time>2026-04-19T11:52:38Z</time></trkpt><trkpt lat="44.695918543386306" lon="9.841010680244116"><ele>559.0</ele><time>2026-04-19T11:52:39.999Z</time></trkpt><trkpt lat="44.69590698685051" lon="9.84110271243193"><ele>558.0</ele><time>2026-04-19T11:52:40.999Z</time></trkpt><trkpt lat="44.69587496433046" lon="9.84123659850023"><ele>557.0</ele><time>2026-04-19T11:52:42.999Z</time></trkpt><trkpt lat="44.69581940931536" lon="9.841349817226945"><ele>556.0</ele><time>2026-04-19T11:52:51.999Z</time></trkpt><trkpt lat="44.69572620473777" lon="9.841417795903183"><ele>556.0</ele><time>2026-04-19T11:53:03.999Z</time></trkpt><trkpt lat="44.69564725269123" lon="9.841421416931901"><ele>556.0</ele><time>2026-04-19T11:53:05.999Z</time></trkpt><trkpt lat="44.69558035851684" lon="9.841318644331047"><ele>556.0</ele><time>2026-04-19T11:53:07.999Z</time></trkpt><trkpt lat="44.695550629963165" lon="9.841233597191927"><ele>556.0</ele><time>2026-04-19T11:53:08.999Z</time></trkpt><trkpt lat="44.69547955185569" lon="9.841209485927477"><ele>556.0</ele><time>2026-04-19T11:53:10.999Z</time></trkpt><trkpt lat="44.6954071423408" lon="9.84120095440816"><ele>556.0</ele><time>2026-04-19T11:53:12.999Z</time></trkpt><trkpt lat="44.6953538728454" lon="9.841118196291204"><ele>556.0</ele><time>2026-04-19T11:53:15.999Z</time></trkpt><trkpt lat="44.695308727384116" lon="9.841054290400645"><ele>556.0</ele><time>2026-04-19T11:53:16.999Z</time></trkpt><trkpt lat="44.695245684726814" lon="9.84099996297369"><ele>556.0</ele><time>2026-04-19T11:53:17.999Z</time></trkpt><trkpt lat="44.69518118894007" lon="9.840915395074637"><ele>556.0</ele><time>2026-04-19T11:53:19.999Z</time></trkpt><trkpt lat="44.695095058491816" lon="9.840821560467097"><ele>556.0</ele><time>2026-04-19T11:53:21.999Z</time></trkpt><trkpt lat="44.69503362933203" lon="9.840801110958946"><ele>556.0</ele><time>2026-04-19T11:53:22.999Z</time></trkpt><trkpt lat="44.69488882112357" lon="9.840783966031408"><ele>561.6</ele><time>2026-04-19T11:53:24.999Z</time></trkpt><trkpt lat="44.69479250942811" lon="9.84082246670619"><ele>567.2</ele><time>2026-04-19T11:53:26.999Z</time></trkpt><trkpt lat="44.694712966017704" lon="9.840729969365183"><ele>572.8</ele><time>2026-04-19T11:53:29.999Z</time></trkpt><trkpt lat="44.69468543276043" lon="9.84056746765343"><ele>578.4</ele><time>2026-04-19T11:53:31.999Z</time></trkpt><trkpt lat="44.69466763899267" lon="9.840426246991576"><ele>584.0</ele><time>2026-04-19T11:53:32.999Z</time></trkpt><trkpt lat="44.69463513298594" lon="9.840272146617837"><ele>584.0</ele><time>2026-04-19T11:53:33.999Z</time></trkpt><trkpt lat="44.69460195556638" lon="9.84015201863239"><ele>584.0</ele><time>2026-04-19T11:53:34.999Z</time></trkpt><trkpt lat="44.694551170025605" lon="9.840055407513526"><ele>584.0</ele><time>2026-04-19T11:53:35.999Z</time></trkpt><trkpt lat="44.694452593843344" lon="9.83994996443785"><ele>584.0</ele><time>2026-04-19T11:53:38Z</time></trkpt><trkpt lat="44.69438062179507" lon="9.839894235390876"><ele>584.0</ele><time>2026-04-19T11:53:39Z</time></trkpt><trkpt lat="44.694284258975834" lon="9.83984314914509"><ele>587.4</ele><time>2026-04-19T11:53:40Z</time></trkpt><trkpt lat="44.69420785257875" lon="9.839777677316548"><ele>590.8</ele><time>2026-04-19T11:53:41Z</time></trkpt><trkpt lat="44.69416767019718" lon="9.839702853180555"><ele>594.2</ele><time>2026-04-19T11:53:42Z</time></trkpt><trkpt lat="44.69411992430583" lon="9.839591075301847"><ele>597.6</ele><time>2026-04-19T11:53:43Z</time></trkpt><trkpt lat="44.694047248214076" lon="9.839454518526162"><ele>601.0</ele><time>2026-04-19T11:53:44Z</time></trkpt><trkpt lat="44.69397581636932" lon="9.83934779851453"><ele>602.8</ele><time>2026-04-19T11:53:45Z</time></trkpt><trkpt lat="44.693919566469944" lon="9.83924743529156"><ele>604.6</ele><time>2026-04-19T11:53:46Z</time></trkpt><trkpt lat="44.6939064983026" lon="9.839157951990716"><ele>606.4</ele><time>2026-04-19T11:53:47Z</time></trkpt><trkpt lat="44.693928080517104" lon="9.839030954073268"><ele>608.2</ele><time>2026-04-19T11:53:48Z</time></trkpt><trkpt lat="44.69394236241881" lon="9.83890895802963"><ele>610.0</ele><time>2026-04-19T11:53:49Z</time></trkpt><trkpt lat="44.69388374123874" lon="9.838770533760373"><ele>610.0</ele><time>2026-04-19T11:53:51Z</time></trkpt><trkpt lat="44.69378737005326" lon="9.838750154256262"><ele>610.0</ele><time>2026-04-19T11:53:53Z</time></trkpt><trkpt lat="44.693713052745444" lon="9.838728568924545"><ele>610.0</ele><time>2026-04-19T11:53:54Z</time></trkpt><trkpt lat="44.693636838746286" lon="9.83869430893045"><ele>610.0</ele><time>2026-04-19T11:53:55Z</time></trkpt><trkpt lat="44.69355563262557" lon="9.838650663879402"><ele>610.0</ele><time>2026-04-19T11:53:56Z</time></trkpt><trkpt lat="44.693445283439374" lon="9.838589920312172"><ele>612.8</ele><time>2026-04-19T11:53:58Z</time></trkpt><trkpt lat="44.69335867377518" lon="9.838594248375541"><ele>615.6</ele><time>2026-04-19T11:53:59Z</time></trkpt><trkpt lat="44.693259328411834" lon="9.838595070438343"><ele>618.4</ele><time>2026-04-19T11:54:00Z</time></trkpt><trkpt lat="44.693154821262844" lon="9.838598617684676"><ele>621.2</ele><time>2026-04-19T11:54:01Z</time></trkpt><trkpt lat="44.69304177431352" lon="9.838645818170779"><ele>624.0</ele><time>2026-04-19T11:54:03Z</time></trkpt><trkpt lat="44.692958397974095" lon="9.83867127488433"><ele>624.0</ele><time>2026-04-19T11:54:04Z</time></trkpt><trkpt lat="44.692870221014225" lon="9.838680558908553"><ele>624.0</ele><time>2026-04-19T11:54:05Z</time></trkpt><trkpt lat="44.69278628436366" lon="9.838665120210225"><ele>624.0</ele><time>2026-04-19T11:54:06Z</time></trkpt><trkpt lat="44.6927188401338" lon="9.838664491396758"><ele>624.0</ele><time>2026-04-19T11:54:07Z</time></trkpt><trkpt lat="44.69261708529388" lon="9.838667148301644"><ele>624.0</ele><time>2026-04-19T11:54:08Z</time></trkpt><trkpt lat="44.69253286722991" lon="9.838648213750695"><ele>624.0</ele><time>2026-04-19T11:54:09Z</time></trkpt><trkpt lat="44.69244206335975" lon="9.838554078419191"><ele>626.4</ele><time>2026-04-19T11:54:11Z</time></trkpt><trkpt lat="44.69239959337367" lon="9.838460141575409"><ele>628.8</ele><time>2026-04-19T11:54:12Z</time></trkpt><trkpt lat="44.692317074359494" lon="9.838403649963565"><ele>631.2</ele><time>2026-04-19T11:54:14Z</time></trkpt><trkpt lat="44.69218053427755" lon="9.838466113408671"><ele>633.6</ele><time>2026-04-19T11:54:16Z</time></trkpt><trkpt lat="44.69206654619974" lon="9.838514061036207"><ele>636.0</ele><time>2026-04-19T11:54:17Z</time></trkpt><trkpt lat="44.691982919843696" lon="9.838528303241311"><ele>636.8333333333334</ele><time>2026-04-19T11:54:18Z</time></trkpt><trkpt lat="44.69191879692105" lon="9.838537855387527"><ele>637.6666666666666</ele><time>2026-04-19T11:54:19Z</time></trkpt><trkpt lat="44.691837624398225" lon="9.838556277704486"><ele>638.5</ele><time>2026-04-19T11:54:20Z</time></trkpt><trkpt lat="44.69176732533523" lon="9.838580204523875"><ele>639.3333333333333</ele><time>2026-04-19T11:54:21Z</time></trkpt><trkpt lat="44.691689590851105" lon="9.838667568056275"><ele>640.1666666666666</ele><time>2026-04-19T11:54:23Z</time></trkpt><trkpt lat="44.69162116260758" lon="9.838741360968923"><ele>641.0</ele><time>2026-04-19T11:54:25Z</time></trkpt><trkpt lat="44.691555616705095" lon="9.838788654091568"><ele>641.0</ele><time>2026-04-19T11:54:27Z</time></trkpt><trkpt lat="44.691473980191034" lon="9.838856900706931"><ele>641.0</ele><time>2026-04-19T11:54:29Z</time></trkpt><trkpt lat="44.69139366656197" lon="9.838899502085516"><ele>641.0</ele><time>2026-04-19T11:54:31Z</time></trkpt><trkpt lat="44.69133246098595" lon="9.838936431702447"><ele>641.0</ele><time>2026-04-19T11:54:33Z</time></trkpt><trkpt lat="44.69128358327264" lon="9.838992471210473"><ele>641.0</ele><time>2026-04-19T11:54:35Z</time></trkpt><trkpt lat="44.69123834769294" lon="9.839067158349375"><ele>641.0</ele><time>2026-04-19T11:54:36Z</time></trkpt><trkpt lat="44.691166274649454" lon="9.83921006538138"><ele>640.3333333333333</ele><time>2026-04-19T11:54:38Z</time></trkpt><trkpt lat="44.69112113408865" lon="9.839312000915248"><ele>639.6666666666666</ele><time>2026-04-19T11:54:39Z</time></trkpt><trkpt lat="44.69107554897856" lon="9.8393876763262"><ele>639.0</ele><time>2026-04-19T11:54:40Z</time></trkpt><trkpt lat="44.69099494113336" lon="9.839534820207815"><ele>638.3333333333334</ele><time>2026-04-19T11:54:41.999Z</time></trkpt><trkpt lat="44.690934447318135" lon="9.839636152510028"><ele>637.6666666666667</ele><time>2026-04-19T11:54:42.999Z</time></trkpt><trkpt lat="44.69088300177343" lon="9.839693623031856"><ele>637.0</ele><time>2026-04-19T11:54:43.999Z</time></trkpt><trkpt lat="44.69076824779092" lon="9.839784164548137"><ele>640.2</ele><time>2026-04-19T11:54:45.999Z</time></trkpt><trkpt lat="44.690654345743205" lon="9.839776677501066"><ele>643.4000000000001</ele><time>2026-04-19T11:54:47.999Z</time></trkpt><trkpt lat="44.690573330087744" lon="9.839740278972357"><ele>646.5999999999999</ele><time>2026-04-19T11:54:48.999Z</time></trkpt><trkpt lat="44.69050644758187" lon="9.839716443686878"><ele>649.8</ele><time>2026-04-19T11:54:49.999Z</time></trkpt><trkpt lat="44.690396076522475" lon="9.839654167620024"><ele>653.0</ele><time>2026-04-19T11:54:51.999Z</time></trkpt><trkpt lat="44.6903333679772" lon="9.839606075505438"><ele>653.0</ele><time>2026-04-19T11:54:52.999Z</time></trkpt><trkpt lat="44.69027139908536" lon="9.839530740264646"><ele>653.0</ele><time>2026-04-19T11:54:53.999Z</time></trkpt><trkpt lat="44.690223579259204" lon="9.839469999057236"><ele>653.0</ele><time>2026-04-19T11:54:54.999Z</time></trkpt><trkpt lat="44.690131184828196" lon="9.839401378196063"><ele>653.0</ele><time>2026-04-19T11:54:56.999Z</time></trkpt><trkpt lat="44.69004386135896" lon="9.83933567928622"><ele>653.0</ele><time>2026-04-19T11:54:58.999Z</time></trkpt><trkpt lat="44.689998223575095" lon="9.839243872692201"><ele>653.0</ele><time>2026-04-19T11:54:59.999Z</time></trkpt><trkpt lat="44.68994607341496" lon="9.839152642624084"><ele>655.3333333333333</ele><time>2026-04-19T11:55:00.999Z</time></trkpt><trkpt lat="44.68986189957411" lon="9.839079297848732"><ele>657.6666666666666</ele><time>2026-04-19T11:55:02.999Z</time></trkpt><trkpt lat="44.6898748426" lon="9.838986299856332"><ele>660.0</ele><time>2026-04-19T11:55:04.999Z</time></trkpt><trkpt lat="44.68989761826991" lon="9.838900636576154"><ele>662.3333333333334</ele><time>2026-04-19T11:55:05.999Z</time></trkpt><trkpt lat="44.68992748195174" lon="9.838812105560963"><ele>664.6666666666667</ele><time>2026-04-19T11:55:06.999Z</time></trkpt><trkpt lat="44.68997020071908" lon="9.838637890364657"><ele>667.0</ele><time>2026-04-19T11:55:08.999Z</time></trkpt><trkpt lat="44.68991905236299" lon="9.83848479437958"><ele>668.6</ele><time>2026-04-19T11:55:10.999Z</time></trkpt><trkpt lat="44.689828011042295" lon="9.838392525385387"><ele>670.2</ele><time>2026-04-19T11:55:11.999Z</time></trkpt><trkpt lat="44.689766319386244" lon="9.838276918133758"><ele>671.8</ele><time>2026-04-19T11:55:12.999Z</time></trkpt><trkpt lat="44.68973120797554" lon="9.838139093996997"><ele>673.4</ele><time>2026-04-19T11:55:13.999Z</time></trkpt><trkpt lat="44.689711425738764" lon="9.83800155497899"><ele>675.0</ele><time>2026-04-19T11:55:14.999Z</time></trkpt><trkpt lat="44.689684581519046" lon="9.837872071710377"><ele>675.0</ele><time>2026-04-19T11:55:15.999Z</time></trkpt><trkpt lat="44.689652946119175" lon="9.837753337790144"><ele>675.0</ele><time>2026-04-19T11:55:16.999Z</time></trkpt><trkpt lat="44.68965001589924" lon="9.83762670609786"><ele>675.0</ele><time>2026-04-19T11:55:17.999Z</time></trkpt><trkpt lat="44.68966576306983" lon="9.837482929203263"><ele>675.0</ele><time>2026-04-19T11:55:18.999Z</time></trkpt><trkpt lat="44.68967973981713" lon="9.837325620657056"><ele>675.0</ele><time>2026-04-19T11:55:19.999Z</time></trkpt><trkpt lat="44.68967697974731" lon="9.83721763665704"><ele>676.6666666666666</ele><time>2026-04-19T11:55:20.999Z</time></trkpt><trkpt lat="44.68968126886223" lon="9.837104653818807"><ele>678.3333333333334</ele><time>2026-04-19T11:55:21.999Z</time></trkpt><trkpt lat="44.689685364723786" lon="9.837001175283595"><ele>680.0</ele><time>2026-04-19T11:55:22.999Z</time></trkpt><trkpt lat="44.68970330864104" lon="9.836879392142881"><ele>681.6666666666667</ele><time>2026-04-19T11:55:24.999Z</time></trkpt><trkpt lat="44.689668386814844" lon="9.836782971790123"><ele>683.3333333333334</ele><time>2026-04-19T11:58:46Z</time></trkpt><trkpt lat="44.689610415903836" lon="9.836679281600999"><ele>685.0</ele><time>2026-04-19T11:58:48Z</time></trkpt><trkpt lat="44.689593675308714" lon="9.8365720295746"><ele>686.0</ele><time>2026-04-19T11:58:49Z</time></trkpt><trkpt lat="44.68958177120021" lon="9.836464607559392"><ele>687.0</ele><time>2026-04-19T11:58:50Z</time></trkpt><trkpt lat="44.689571744459215" lon="9.836359810113205"><ele>688.0</ele><time>2026-04-19T11:58:51Z</time></trkpt><trkpt lat="44.68956105946375" lon="9.836245313667167"><ele>689.0</ele><time>2026-04-19T11:58:52Z</time></trkpt><trkpt lat="44.68955183357369" lon="9.836135325776192"><ele>690.0</ele><time>2026-04-19T11:58:52.999Z</time></trkpt><trkpt lat="44.68954921352053" lon="9.836003560125432"><ele>691.0</ele><time>2026-04-19T11:58:53.999Z</time></trkpt><trkpt lat="44.68955521771149" lon="9.835855307393846"><ele>691.3333333333334</ele><time>2026-04-19T11:58:54.999Z</time></trkpt><trkpt lat="44.689539099780234" lon="9.835753777797246"><ele>691.6666666666667</ele><time>2026-04-19T11:58:55.999Z</time></trkpt><trkpt lat="44.68951313291777" lon="9.835638064722389"><ele>692.0</ele><time>2026-04-19T11:58:56.999Z</time></trkpt><trkpt lat="44.68951874757545" lon="9.835526086882432"><ele>692.3333333333334</ele><time>2026-04-19T11:58:57.999Z</time></trkpt><trkpt lat="44.689487058183644" lon="9.835370213098129"><ele>692.6666666666666</ele><time>2026-04-19T11:58:59.999Z</time></trkpt><trkpt lat="44.68947162151589" lon="9.83527893366223"><ele>693.0</ele><time>2026-04-19T11:59:00.999Z</time></trkpt><trkpt lat="44.689438219688626" lon="9.835126186572092"><ele>695.5999999999999</ele><time>2026-04-19T11:59:02.999Z</time></trkpt><trkpt lat="44.68937862949718" lon="9.834962616648328"><ele>698.1999999999999</ele><time>2026-04-19T11:59:04.999Z</time></trkpt><trkpt lat="44.68934266118447" lon="9.834883705760108"><ele>700.8</ele><time>2026-04-19T11:59:05.999Z</time></trkpt><trkpt lat="44.689315968605484" lon="9.834726483670643"><ele>703.4</ele><time>2026-04-19T11:59:07.999Z</time></trkpt><trkpt lat="44.689306590651896" lon="9.834635007086696"><ele>706.0</ele><time>2026-04-19T11:59:08.999Z</time></trkpt><trkpt lat="44.6892892055438" lon="9.83453201856478"><ele>706.0</ele><time>2026-04-19T11:59:09.999Z</time></trkpt><trkpt lat="44.68918815668049" lon="9.834393837160235"><ele>706.0</ele><time>2026-04-19T11:59:11.999Z</time></trkpt><trkpt lat="44.68911633105429" lon="9.83430027368742"><ele>706.0</ele><time>2026-04-19T11:59:12.999Z</time></trkpt><trkpt lat="44.689060188263205" lon="9.83419587998571"><ele>706.0</ele><time>2026-04-19T11:59:13.999Z</time></trkpt><trkpt lat="44.68901278242528" lon="9.834097329783381"><ele>706.0</ele><time>2026-04-19T11:59:14.999Z</time></trkpt><trkpt lat="44.68895959303316" lon="9.834026920333107"><ele>707.1999999999999</ele><time>2026-04-19T11:59:15.999Z</time></trkpt><trkpt lat="44.68888941591648" lon="9.833951733765234"><ele>708.4</ele><time>2026-04-19T11:59:16.999Z</time></trkpt><trkpt lat="44.68883426125103" lon="9.833868109222088"><ele>709.6</ele><time>2026-04-19T11:59:17.999Z</time></trkpt><trkpt lat="44.688798763756125" lon="9.833729558241894"><ele>710.8</ele><time>2026-04-19T11:59:19.999Z</time></trkpt><trkpt lat="44.688787681151595" lon="9.833601092158084"><ele>712.0</ele><time>2026-04-19T11:59:20.999Z</time></trkpt><trkpt lat="44.688781760665826" lon="9.833457570134492"><ele>713.0</ele><time>2026-04-19T11:59:21.999Z</time></trkpt><trkpt lat="44.68876803491254" lon="9.83328807556222"><ele>714.0</ele><time>2026-04-19T11:59:22.999Z</time></trkpt><trkpt lat="44.68875188835155" lon="9.833142525624728"><ele>715.0</ele><time>2026-04-19T11:59:23.999Z</time></trkpt><trkpt lat="44.68873545886595" lon="9.833026221054418"><ele>716.0</ele><time>2026-04-19T11:59:24.999Z</time></trkpt><trkpt lat="44.68872006520438" lon="9.832909721104363"><ele>717.0</ele><time>2026-04-19T11:59:25.999Z</time></trkpt><trkpt lat="44.68870716747029" lon="9.832783519715365"><ele>717.0</ele><time>2026-04-19T11:59:26.999Z</time></trkpt><trkpt lat="44.688707230681494" lon="9.832667069183893"><ele>717.0</ele><time>2026-04-19T11:59:27.999Z</time></trkpt><trkpt lat="44.6887025111624" lon="9.832563853805977"><ele>717.0</ele><time>2026-04-19T11:59:28.999Z</time></trkpt><trkpt lat="44.68870561135784" lon="9.832434708341012"><ele>717.0</ele><time>2026-04-19T11:59:29.999Z</time></trkpt><trkpt lat="44.68871678770119" lon="9.832295516449221"><ele>717.0</ele><time>2026-04-19T11:59:30.999Z</time></trkpt><trkpt lat="44.68872232879363" lon="9.832195095377624"><ele>717.0</ele><time>2026-04-19T11:59:31.999Z</time></trkpt><trkpt lat="44.688647997677805" lon="9.832057499578973"><ele>718.4000000000001</ele><time>2026-04-19T11:59:33.999Z</time></trkpt><trkpt lat="44.68860803083671" lon="9.831981690336766"><ele>719.8000000000001</ele><time>2026-04-19T11:59:34.999Z</time></trkpt><trkpt lat="44.688586267282744" lon="9.83180631284055"><ele>721.2</ele><time>2026-04-19T11:59:36.999Z</time></trkpt><trkpt lat="44.6885665633216" lon="9.831693978602686"><ele>722.6</ele><time>2026-04-19T11:59:37.999Z</time></trkpt><trkpt lat="44.688553641735105" lon="9.831581010754086"><ele>724.0</ele><time>2026-04-19T11:59:38.999Z</time></trkpt><trkpt lat="44.68854982980941" lon="9.831398442944682"><ele>724.5</ele><time>2026-04-19T11:59:40.999Z</time></trkpt><trkpt lat="44.68853156055123" lon="9.831210941433861"><ele>725.0</ele><time>2026-04-19T11:59:42.999Z</time></trkpt><trkpt lat="44.68853998763511" lon="9.83111007251909"><ele>725.5</ele><time>2026-04-19T11:59:43.999Z</time></trkpt><trkpt lat="44.688559938456734" lon="9.831021483777873"><ele>726.0</ele><time>2026-04-19T11:59:44.999Z</time></trkpt><trkpt lat="44.688587667395744" lon="9.830938699713903"><ele>726.5</ele><time>2026-04-19T11:59:46.999Z</time></trkpt><trkpt lat="44.68863500509068" lon="9.8308342935982"><ele>727.0</ele><time>2026-04-19T11:59:47.999Z</time></trkpt><trkpt lat="44.688674118190065" lon="9.830726311610743"><ele>728.3333333333334</ele><time>2026-04-19T11:59:48.999Z</time></trkpt><trkpt lat="44.68868678264873" lon="9.830608088919476"><ele>729.6666666666667</ele><time>2026-04-19T11:59:49.999Z</time></trkpt><trkpt lat="44.688672727201535" lon="9.83050047832599"><ele>731.0</ele><time>2026-04-19T11:59:50.999Z</time></trkpt><trkpt lat="44.688634074618896" lon="9.830385935167367"><ele>732.3333333333334</ele><time>2026-04-19T11:59:51.999Z</time></trkpt><trkpt lat="44.6885857668186" lon="9.830273232890187"><ele>733.6666666666666</ele><time>2026-04-19T11:59:53Z</time></trkpt><trkpt lat="44.68855214511404" lon="9.830144195327842"><ele>735.0</ele><time>2026-04-19T11:59:54Z</time></trkpt><trkpt lat="44.68852742148561" lon="9.830047822330295"><ele>736.8</ele><time>2026-04-19T11:59:55Z</time></trkpt><trkpt lat="44.68847321912488" lon="9.829885706545014"><ele>738.6</ele><time>2026-04-19T11:59:57Z</time></trkpt><trkpt lat="44.688457734379256" lon="9.829791033953951"><ele>740.4000000000001</ele><time>2026-04-19T11:59:58Z</time></trkpt><trkpt lat="44.688437737739775" lon="9.829692419214373"><ele>742.2</ele><time>2026-04-19T11:59:59Z</time></trkpt><trkpt lat="44.68841119874443" lon="9.829584777662623"><ele>744.0</ele><time>2026-04-19T12:00:00Z</time></trkpt><trkpt lat="44.68836580207653" lon="9.829455842774841"><ele>744.0</ele><time>2026-04-19T12:00:02Z</time></trkpt><trkpt lat="44.68839352222032" lon="9.829348932212454"><ele>744.0</ele><time>2026-04-19T12:00:04Z</time></trkpt><trkpt lat="44.688513258648086" lon="9.829268028249702"><ele>744.0</ele><time>2026-04-19T12:00:06Z</time></trkpt><trkpt lat="44.68856829514017" lon="9.829088261237708"><ele>744.0</ele><time>2026-04-19T12:00:08Z</time></trkpt><trkpt lat="44.68858952450573" lon="9.828962158450745"><ele>744.0</ele><time>2026-04-19T12:00:09Z</time></trkpt><trkpt lat="44.68860855101926" lon="9.828851642351392"><ele>747.0</ele><time>2026-04-19T12:00:10Z</time></trkpt><trkpt lat="44.688612995640725" lon="9.82874199005438"><ele>750.0</ele><time>2026-04-19T12:00:11Z</time></trkpt><trkpt lat="44.68860924774569" lon="9.828645122495574"><ele>753.0</ele><time>2026-04-19T12:00:12Z</time></trkpt><trkpt lat="44.68860779752552" lon="9.828472101661985"><ele>756.0</ele><time>2026-04-19T12:00:14Z</time></trkpt><trkpt lat="44.68861438859454" lon="9.828352128517109"><ele>759.0</ele><time>2026-04-19T12:00:15Z</time></trkpt><trkpt lat="44.68862127161218" lon="9.82820706023447"><ele>760.6</ele><time>2026-04-19T12:00:16Z</time></trkpt><trkpt lat="44.688633891590015" lon="9.828082900357394"><ele>762.2</ele><time>2026-04-19T12:00:17Z</time></trkpt><trkpt lat="44.68864601636443" lon="9.827949533729388"><ele>763.8000000000001</ele><time>2026-04-19T12:00:19Z</time></trkpt><trkpt lat="44.68862485311263" lon="9.82780729576522"><ele>765.4000000000001</ele><time>2026-04-19T12:00:21Z</time></trkpt><trkpt lat="44.68860278642981" lon="9.827694926506515"><ele>767.0</ele><time>2026-04-19T12:00:22Z</time></trkpt><trkpt lat="44.68858732237624" lon="9.827569568217754"><ele>767.0</ele><time>2026-04-19T12:00:23Z</time></trkpt><trkpt lat="44.688571647089994" lon="9.827453956632384"><ele>767.0</ele><time>2026-04-19T12:00:24Z</time></trkpt><trkpt lat="44.688548182035674" lon="9.827357846566258"><ele>767.0</ele><time>2026-04-19T12:00:25Z</time></trkpt><trkpt lat="44.688544087075705" lon="9.827234669770233"><ele>767.0</ele><time>2026-04-19T12:00:27Z</time></trkpt><trkpt lat="44.6885455152397" lon="9.827139556521677"><ele>767.0</ele><time>2026-04-19T12:00:29Z</time></trkpt><trkpt lat="44.68853020853762" lon="9.827039620203681"><ele>767.0</ele><time>2026-04-19T12:02:42Z</time></trkpt><trkpt lat="44.6885113806262" lon="9.826936499789293"><ele>767.0</ele><time>2026-04-19T12:02:45Z</time></trkpt><trkpt lat="44.68848619147995" lon="9.826822297781767"><ele>767.0</ele><time>2026-04-19T12:02:48Z</time></trkpt><trkpt lat="44.68846418676652" lon="9.826669811288104"><ele>767.0</ele><time>2026-04-19T12:02:50Z</time></trkpt><trkpt lat="44.688445180203544" lon="9.826567616101535"><ele>767.0</ele><time>2026-04-19T12:02:52Z</time></trkpt><trkpt lat="44.688410432892276" lon="9.82646128193809"><ele>767.0</ele><time>2026-04-19T12:02:54Z</time></trkpt><trkpt lat="44.68837241276429" lon="9.826355001942856"><ele>767.0</ele><time>2026-04-19T12:02:57.999Z</time></trkpt><trkpt lat="44.688343380669366" lon="9.826273189563345"><ele>767.5</ele><time>2026-04-19T12:02:59.999Z</time></trkpt><trkpt lat="44.68831975221501" lon="9.8261621761599"><ele>768.0</ele><time>2026-04-19T12:03:09.999Z</time></trkpt><trkpt lat="44.68830489444157" lon="9.82606767938745"><ele>768.5</ele><time>2026-04-19T12:03:11.999Z</time></trkpt><trkpt lat="44.688328083055744" lon="9.826157682346837"><ele>769.0</ele><time>2026-04-19T12:03:49.999Z</time></trkpt><trkpt lat="44.688353333533904" lon="9.826246135473996"><ele>769.5000000000001</ele><time>2026-04-19T12:03:51.999Z</time></trkpt><trkpt lat="44.688389080414346" lon="9.82635565639793"><ele>770.0</ele><time>2026-04-19T12:03:56.999Z</time></trkpt><trkpt lat="44.68842914537447" lon="9.826482913473855"><ele>770.0000000000001</ele><time>2026-04-19T12:03:58.999Z</time></trkpt><trkpt lat="44.688451777413604" lon="9.82658597363641"><ele>770.0</ele><time>2026-04-19T12:03:59.999Z</time></trkpt><trkpt lat="44.68846835077298" lon="9.826716677956398"><ele>770.0</ele><time>2026-04-19T12:04:02.999Z</time></trkpt><trkpt lat="44.68848872805861" lon="9.826823247338686"><ele>770.0</ele><time>2026-04-19T12:04:06Z</time></trkpt><trkpt lat="44.68850420291909" lon="9.82693108836903"><ele>770.0000000000001</ele><time>2026-04-19T12:04:28Z</time></trkpt><trkpt lat="44.68852492270161" lon="9.82703655971222"><ele>770.0</ele><time>2026-04-19T12:04:31Z</time></trkpt><trkpt lat="44.68854731847721" lon="9.827144148977313"><ele>770.0000000000001</ele><time>2026-04-19T12:04:34Z</time></trkpt><trkpt lat="44.68857097949985" lon="9.827228332333798"><ele>770.0</ele><time>2026-04-19T12:04:50Z</time></trkpt><trkpt lat="44.68863211843592" lon="9.827195181278249"><ele>770.0</ele><time>2026-04-19T12:04:53Z</time></trkpt><trkpt lat="44.68870010711943" lon="9.827207518564377"><ele>770.0</ele><time>2026-04-19T12:04:55Z</time></trkpt><trkpt lat="44.68878755303187" lon="9.82722385424499"><ele>770.0000000000001</ele><time>2026-04-19T12:04:56.999Z</time></trkpt><trkpt lat="44.688869327431945" lon="9.827233584080355"><ele>770.0</ele><time>2026-04-19T12:04:58.999Z</time></trkpt><trkpt lat="44.68896427548642" lon="9.827257959751904"><ele>770.0000000000001</ele><time>2026-04-19T12:05:00.999Z</time></trkpt><trkpt lat="44.68903471355563" lon="9.827324618790062"><ele>770.0</ele><time>2026-04-19T12:05:03.999Z</time></trkpt><trkpt lat="44.68911102453366" lon="9.827311234717309"><ele>770.0</ele><time>2026-04-19T12:05:06.999Z</time></trkpt><trkpt lat="44.68917546084263" lon="9.827339687337476"><ele>770.0</ele><time>2026-04-19T12:05:08.999Z</time></trkpt><trkpt lat="44.689240239392014" lon="9.827366971591733"><ele>770.0000000000001</ele><time>2026-04-19T12:05:11.999Z</time></trkpt><trkpt lat="44.689339792781276" lon="9.827378206002626"><ele>770.0</ele><time>2026-04-19T12:05:13.999Z</time></trkpt><trkpt lat="44.68941832727682" lon="9.827341433703424"><ele>767.0</ele><time>2026-04-19T12:05:15.999Z</time></trkpt><trkpt lat="44.68951348054745" lon="9.82725662072856"><ele>764.0</ele><time>2026-04-19T12:05:17.999Z</time></trkpt><trkpt lat="44.68955959550736" lon="9.82717116887233"><ele>761.0</ele><time>2026-04-19T12:05:19.999Z</time></trkpt><trkpt lat="44.68960450422701" lon="9.827103203798439"><ele>758.0</ele><time>2026-04-19T12:05:21.999Z</time></trkpt><trkpt lat="44.68970238506129" lon="9.827025957226477"><ele>755.0</ele><time>2026-04-19T12:05:23.999Z</time></trkpt><trkpt lat="44.68978565945288" lon="9.826936556088475"><ele>755.0</ele><time>2026-04-19T12:05:25.999Z</time></trkpt><trkpt lat="44.68986463224485" lon="9.826873593410951"><ele>755.0</ele><time>2026-04-19T12:05:27.999Z</time></trkpt><trkpt lat="44.68994216395504" lon="9.826847533646065"><ele>755.0</ele><time>2026-04-19T12:05:29.999Z</time></trkpt><trkpt lat="44.69004517011428" lon="9.826849207819558"><ele>755.0</ele><time>2026-04-19T12:05:31.999Z</time></trkpt><trkpt lat="44.69013785916188" lon="9.826876626783008"><ele>755.0</ele><time>2026-04-19T12:05:33.999Z</time></trkpt><trkpt lat="44.690232483669355" lon="9.826902283259981"><ele>752.4</ele><time>2026-04-19T12:05:35.999Z</time></trkpt><trkpt lat="44.690334865813476" lon="9.826938185674415"><ele>749.8</ele><time>2026-04-19T12:05:37.999Z</time></trkpt><trkpt lat="44.69041770833324" lon="9.8269736030586"><ele>747.2</ele><time>2026-04-19T12:05:45.999Z</time></trkpt><trkpt lat="44.69049685526293" lon="9.826986762770437"><ele>744.6</ele><time>2026-04-19T12:05:48.999Z</time></trkpt><trkpt lat="44.69058475445642" lon="9.826972447998621"><ele>742.0</ele><time>2026-04-19T12:05:50.999Z</time></trkpt><trkpt lat="44.69068870965371" lon="9.826991401315205"><ele>742.0</ele><time>2026-04-19T12:05:52.999Z</time></trkpt><trkpt lat="44.690791890038945" lon="9.826995827810013"><ele>742.0</ele><time>2026-04-19T12:05:54.999Z</time></trkpt><trkpt lat="44.690910958730896" lon="9.826983818072518"><ele>742.0</ele><time>2026-04-19T12:05:56.999Z</time></trkpt><trkpt lat="44.690976031996" lon="9.826955775641586"><ele>742.0</ele><time>2026-04-19T12:05:58.999Z</time></trkpt><trkpt lat="44.69104106854245" lon="9.826893691830067"><ele>742.0</ele><time>2026-04-19T12:06:00.999Z</time></trkpt><trkpt lat="44.69113266474078" lon="9.826873468539905"><ele>740.0</ele><time>2026-04-19T12:06:02.999Z</time></trkpt><trkpt lat="44.69120549577116" lon="9.826887077994373"><ele>738.0</ele><time>2026-04-19T12:06:04.999Z</time></trkpt><trkpt lat="44.691273536689465" lon="9.826961404134929"><ele>736.0</ele><time>2026-04-19T12:06:06.999Z</time></trkpt><trkpt lat="44.69135283911459" lon="9.826977983274626"><ele>734.0</ele><time>2026-04-19T12:06:08.999Z</time></trkpt><trkpt lat="44.69140990562359" lon="9.827082009632703"><ele>732.0</ele><time>2026-04-19T12:06:12Z</time></trkpt><trkpt lat="44.69148524530841" lon="9.827136153820646"><ele>730.0</ele><time>2026-04-19T12:06:14Z</time></trkpt><trkpt lat="44.691550351903935" lon="9.827194142855566"><ele>730.0</ele><time>2026-04-19T12:06:16Z</time></trkpt><trkpt lat="44.691602204231415" lon="9.827278110960872"><ele>730.0</ele><time>2026-04-19T12:06:18Z</time></trkpt><trkpt lat="44.691673180566205" lon="9.827300470670483"><ele>730.0</ele><time>2026-04-19T12:06:20Z</time></trkpt><trkpt lat="44.69173280557301" lon="9.827374883446216"><ele>730.0</ele><time>2026-04-19T12:06:23Z</time></trkpt><trkpt lat="44.69175595824848" lon="9.827494786282223"><ele>730.0</ele><time>2026-04-19T12:06:25Z</time></trkpt><trkpt lat="44.69180743005273" lon="9.827641074435599"><ele>730.0</ele><time>2026-04-19T12:06:27Z</time></trkpt><trkpt lat="44.69183699406346" lon="9.827743807751357"><ele>728.1666666666667</ele><time>2026-04-19T12:06:29Z</time></trkpt><trkpt lat="44.69189933504558" lon="9.82783305726162"><ele>726.3333333333334</ele><time>2026-04-19T12:06:31Z</time></trkpt><trkpt lat="44.69196519661812" lon="9.82792338183846"><ele>724.5</ele><time>2026-04-19T12:06:33Z</time></trkpt><trkpt lat="44.6920219668836" lon="9.828035953504745"><ele>722.6666666666666</ele><time>2026-04-19T12:06:35Z</time></trkpt><trkpt lat="44.69206493918922" lon="9.828119541659118"><ele>720.8333333333333</ele><time>2026-04-19T12:06:37Z</time></trkpt><trkpt lat="44.69211682166275" lon="9.828198710065442"><ele>719.0</ele><time>2026-04-19T12:06:39Z</time></trkpt><trkpt lat="44.6921725545336" lon="9.828262305502076"><ele>714.8000000000001</ele><time>2026-04-19T12:06:41Z</time></trkpt><trkpt lat="44.692245820623356" lon="9.828273981327683"><ele>710.6</ele><time>2026-04-19T12:06:43Z</time></trkpt><trkpt lat="44.69233139166514" lon="9.828381193620029"><ele>706.4</ele><time>2026-04-19T12:06:45Z</time></trkpt><trkpt lat="44.69237493901134" lon="9.828446036350137"><ele>702.2</ele><time>2026-04-19T12:06:46Z</time></trkpt><trkpt lat="44.692457168982855" lon="9.828531401246021"><ele>698.0</ele><time>2026-04-19T12:06:48Z</time></trkpt><trkpt lat="44.69255927545578" lon="9.828570188202713"><ele>697.1666666666666</ele><time>2026-04-19T12:06:50Z</time></trkpt><trkpt lat="44.69264331320389" lon="9.828599687447777"><ele>696.3333333333333</ele><time>2026-04-19T12:06:51Z</time></trkpt><trkpt lat="44.69271614564695" lon="9.828625873975954"><ele>695.5</ele><time>2026-04-19T12:06:52Z</time></trkpt><trkpt lat="44.69278309734041" lon="9.828642867930702"><ele>694.6666666666666</ele><time>2026-04-19T12:06:53Z</time></trkpt><trkpt lat="44.692853918317226" lon="9.82862833549874"><ele>693.8333333333334</ele><time>2026-04-19T12:06:57Z</time></trkpt><trkpt lat="44.692899846231164" lon="9.828563077690193"><ele>693.0</ele><time>2026-04-19T12:06:59Z</time></trkpt><trkpt lat="44.692937118323876" lon="9.828457610098205"><ele>690.8333333333334</ele><time>2026-04-19T12:07:01.999Z</time></trkpt><trkpt lat="44.69289492322749" lon="9.8283553923337"><ele>688.6666666666666</ele><time>2026-04-19T12:07:03.999Z</time></trkpt><trkpt lat="44.69289188470757" lon="9.828257834671774"><ele>686.5</ele><time>2026-04-19T12:07:05.999Z</time></trkpt><trkpt lat="44.692883416690734" lon="9.828110647925765"><ele>684.3333333333333</ele><time>2026-04-19T12:07:07.999Z</time></trkpt><trkpt lat="44.69287971326032" lon="9.828014494378111"><ele>682.1666666666666</ele><time>2026-04-19T12:07:08.999Z</time></trkpt><trkpt lat="44.69291147864036" lon="9.827853574171598"><ele>680.0</ele><time>2026-04-19T12:07:10.999Z</time></trkpt><trkpt lat="44.69293958849778" lon="9.827760378527659"><ele>680.0</ele><time>2026-04-19T12:07:11.999Z</time></trkpt><trkpt lat="44.69298149027531" lon="9.827647393556141"><ele>680.0</ele><time>2026-04-19T12:07:13.999Z</time></trkpt><trkpt lat="44.69304068820122" lon="9.827535305103478"><ele>680.0</ele><time>2026-04-19T12:07:15.999Z</time></trkpt><trkpt lat="44.693077234163916" lon="9.82740974334654"><ele>680.0</ele><time>2026-04-19T12:07:18.999Z</time></trkpt><trkpt lat="44.69310729945851" lon="9.82731488928557"><ele>680.0</ele><time>2026-04-19T12:07:19.999Z</time></trkpt><trkpt lat="44.69313829359658" lon="9.8272166558126"><ele>680.0</ele><time>2026-04-19T12:07:21.999Z</time></trkpt><trkpt lat="44.693152532420406" lon="9.827117581578253"><ele>680.25</ele><time>2026-04-19T12:07:24.999Z</time></trkpt><trkpt lat="44.693189549528434" lon="9.826987299936876"><ele>680.5</ele><time>2026-04-19T12:07:26.999Z</time></trkpt><trkpt lat="44.6932266291284" lon="9.826864821703962"><ele>680.75</ele><time>2026-04-19T12:07:28.999Z</time></trkpt><trkpt lat="44.69332269733199" lon="9.826597541180815"><ele>681.0</ele><time>2026-04-19T12:07:30.999Z</time></trkpt><trkpt lat="44.693340511995636" lon="9.826431893474137"><ele>681.0</ele><time>2026-04-19T12:07:32.999Z</time></trkpt><trkpt lat="44.69336383480875" lon="9.826302605232911"><ele>681.0</ele><time>2026-04-19T12:07:33.999Z</time></trkpt><trkpt lat="44.69337954724653" lon="9.826203521114088"><ele>681.0</ele><time>2026-04-19T12:07:34.999Z</time></trkpt><trkpt lat="44.69337735624769" lon="9.826093307130193"><ele>681.0</ele><time>2026-04-19T12:07:36.999Z</time></trkpt><trkpt lat="44.6934093321223" lon="9.825929085177211"><ele>681.0</ele><time>2026-04-19T12:07:39.999Z</time></trkpt><trkpt lat="44.69343389515057" lon="9.82583842697786"><ele>681.0</ele><time>2026-04-19T12:07:40.999Z</time></trkpt><trkpt lat="44.69347194115532" lon="9.825714376275858"><ele>681.8</ele><time>2026-04-19T12:07:42.999Z</time></trkpt><trkpt lat="44.69349106107355" lon="9.82558817298091"><ele>682.5999999999999</ele><time>2026-04-19T12:07:44.999Z</time></trkpt><trkpt lat="44.69353050194046" lon="9.825423923247778"><ele>683.4</ele><time>2026-04-19T12:07:46.999Z</time></trkpt><trkpt lat="44.69356324013315" lon="9.82533181333405"><ele>684.2</ele><time>2026-04-19T12:07:47.999Z</time></trkpt><trkpt lat="44.69362640522875" lon="9.825205505947864"><ele>685.0</ele><time>2026-04-19T12:07:49.999Z</time></trkpt><trkpt lat="44.69362088651901" lon="9.825086481337792"><ele>682.0</ele><time>2026-04-19T12:07:51.999Z</time></trkpt><trkpt lat="44.69363996278362" lon="9.824983491422877"><ele>679.0</ele><time>2026-04-19T12:07:53.999Z</time></trkpt><trkpt lat="44.69363647314125" lon="9.824859402943991"><ele>676.0</ele><time>2026-04-19T12:07:55.999Z</time></trkpt><trkpt lat="44.69363876383489" lon="9.824769381436159"><ele>673.0</ele><time>2026-04-19T12:07:57.999Z</time></trkpt><trkpt lat="44.69366610973979" lon="9.824676072739095"><ele>670.0</ele><time>2026-04-19T12:07:59.999Z</time></trkpt><trkpt lat="44.69371559019088" lon="9.824561613175776"><ele>667.0</ele><time>2026-04-19T12:08:01.999Z</time></trkpt><trkpt lat="44.69374742468521" lon="9.82445565713555"><ele>667.0</ele><time>2026-04-19T12:08:03.999Z</time></trkpt><trkpt lat="44.69379923897392" lon="9.824395102556737"><ele>667.0</ele><time>2026-04-19T12:08:05.999Z</time></trkpt><trkpt lat="44.69385574830651" lon="9.82428982713093"><ele>667.0</ele><time>2026-04-19T12:08:07.999Z</time></trkpt><trkpt lat="44.69391365975975" lon="9.824170296551424"><ele>667.0</ele><time>2026-04-19T12:08:09.999Z</time></trkpt><trkpt lat="44.693952010381885" lon="9.82407378821112"><ele>667.0</ele><time>2026-04-19T12:08:11.999Z</time></trkpt><trkpt lat="44.693981816138205" lon="9.823979257401078"><ele>667.0</ele><time>2026-04-19T12:08:13.999Z</time></trkpt><trkpt lat="44.69399059858765" lon="9.823879594144039"><ele>665.6</ele><time>2026-04-19T12:08:15.999Z</time></trkpt><trkpt lat="44.694038711653555" lon="9.823774253664702"><ele>664.2</ele><time>2026-04-19T12:08:18Z</time></trkpt><trkpt lat="44.69408390108832" lon="9.823665724132924"><ele>662.8</ele><time>2026-04-19T12:08:20Z</time></trkpt><trkpt lat="44.69414594503084" lon="9.82356623170713"><ele>661.4</ele><time>2026-04-19T12:08:22Z</time></trkpt><trkpt lat="44.694217937651956" lon="9.823457726070483"><ele>660.0</ele><time>2026-04-19T12:08:24Z</time></trkpt><trkpt lat="44.694287085853084" lon="9.8233880668659"><ele>658.0</ele><time>2026-04-19T12:08:26Z</time></trkpt><trkpt lat="44.69438397881777" lon="9.823298088054717"><ele>656.0</ele><time>2026-04-19T12:08:28Z</time></trkpt><trkpt lat="44.69443768304441" lon="9.823230047083264"><ele>654.0</ele><time>2026-04-19T12:08:29Z</time></trkpt><trkpt lat="44.694508024415704" lon="9.823105195763453"><ele>652.0</ele><time>2026-04-19T12:08:31Z</time></trkpt><trkpt lat="44.69457121326177" lon="9.822957367007179"><ele>650.0</ele><time>2026-04-19T12:08:33Z</time></trkpt><trkpt lat="44.69463081240034" lon="9.822809456162116"><ele>648.4</ele><time>2026-04-19T12:08:35Z</time></trkpt><trkpt lat="44.694657280418895" lon="9.82265214844359"><ele>646.8</ele><time>2026-04-19T12:08:37Z</time></trkpt><trkpt lat="44.694655739970706" lon="9.82256163843747"><ele>645.2</ele><time>2026-04-19T12:08:38Z</time></trkpt><trkpt lat="44.69465616118704" lon="9.82241321164605"><ele>643.6</ele><time>2026-04-19T12:08:40Z</time></trkpt><trkpt lat="44.69464192654471" lon="9.82226019669315"><ele>642.0</ele><time>2026-04-19T12:08:42Z</time></trkpt><trkpt lat="44.69462191913486" lon="9.822151201044203"><ele>640.0</ele><time>2026-04-19T12:08:44Z</time></trkpt><trkpt lat="44.69463117815826" lon="9.822039093491854"><ele>638.0</ele><time>2026-04-19T12:08:46Z</time></trkpt><trkpt lat="44.69465700176834" lon="9.821896764443935"><ele>636.0</ele><time>2026-04-19T12:08:48Z</time></trkpt><trkpt lat="44.694690490381966" lon="9.821749756048678"><ele>634.0</ele><time>2026-04-19T12:08:50Z</time></trkpt><trkpt lat="44.69472556911676" lon="9.821597934657872"><ele>632.0</ele><time>2026-04-19T12:08:52Z</time></trkpt><trkpt lat="44.69476930359065" lon="9.821443241618896"><ele>630.0</ele><time>2026-04-19T12:08:54Z</time></trkpt><trkpt lat="44.694816414846265" lon="9.821321329269496"><ele>628.0</ele><time>2026-04-19T12:08:56Z</time></trkpt><trkpt lat="44.69485847565377" lon="9.821201234148182"><ele>626.0</ele><time>2026-04-19T12:08:58Z</time></trkpt><trkpt lat="44.694866631849514" lon="9.821109308108115"><ele>624.0</ele><time>2026-04-19T12:08:59Z</time></trkpt><trkpt lat="44.6948518505076" lon="9.820944399354273"><ele>622.0</ele><time>2026-04-19T12:09:01Z</time></trkpt><trkpt lat="44.69480524879611" lon="9.820780317130016"><ele>619.8000000000001</ele><time>2026-04-19T12:09:03Z</time></trkpt><trkpt lat="44.69477753681003" lon="9.820651467488485"><ele>617.6</ele><time>2026-04-19T12:09:04.999Z</time></trkpt><trkpt lat="44.69481888006927" lon="9.820493968004351"><ele>615.4000000000001</ele><time>2026-04-19T12:09:06.999Z</time></trkpt><trkpt lat="44.69487571854354" lon="9.820356659601154"><ele>613.2</ele><time>2026-04-19T12:09:08.999Z</time></trkpt><trkpt lat="44.694909830049646" lon="9.820281462719615"><ele>611.0</ele><time>2026-04-19T12:09:09.999Z</time></trkpt><trkpt lat="44.69493353066697" lon="9.82018664848013"><ele>609.4</ele><time>2026-04-19T12:09:11.999Z</time></trkpt><trkpt lat="44.69490233451453" lon="9.820053616779063"><ele>607.8</ele><time>2026-04-19T12:09:13.999Z</time></trkpt><trkpt lat="44.69488112356615" lon="9.819955567325488"><ele>606.1999999999999</ele><time>2026-04-19T12:09:14.999Z</time></trkpt><trkpt lat="44.6948545482434" lon="9.819837753921384"><ele>604.6</ele><time>2026-04-19T12:09:16.999Z</time></trkpt><trkpt lat="44.694919171804266" lon="9.819753908212844"><ele>603.0</ele><time>2026-04-19T12:09:18.999Z</time></trkpt><trkpt lat="44.695035183542885" lon="9.819578224459887"><ele>603.0</ele><time>2026-04-19T12:09:20.999Z</time></trkpt><trkpt lat="44.695155421910705" lon="9.81951707035394"><ele>603.0</ele><time>2026-04-19T12:09:22.999Z</time></trkpt><trkpt lat="44.69521840327849" lon="9.819496789647966"><ele>603.0</ele><time>2026-04-19T12:09:23.999Z</time></trkpt><trkpt lat="44.69534617483329" lon="9.819510440172003"><ele>603.0</ele><time>2026-04-19T12:09:25.999Z</time></trkpt><trkpt lat="44.695419311693605" lon="9.819519341481959"><ele>603.0</ele><time>2026-04-19T12:09:26.999Z</time></trkpt><trkpt lat="44.69548928554833" lon="9.819538415356304"><ele>600.4</ele><time>2026-04-19T12:09:27.999Z</time></trkpt><trkpt lat="44.69558565921935" lon="9.819580026699926"><ele>597.8</ele><time>2026-04-19T12:09:29.999Z</time></trkpt><trkpt lat="44.69565073741534" lon="9.81966751098814"><ele>595.2</ele><time>2026-04-19T12:09:31.999Z</time></trkpt><trkpt lat="44.695758657977976" lon="9.81971161126349"><ele>592.6</ele><time>2026-04-19T12:09:33.999Z</time></trkpt><trkpt lat="44.695833577299815" lon="9.819654945971896"><ele>590.0</ele><time>2026-04-19T12:09:35.999Z</time></trkpt><trkpt lat="44.69590496465261" lon="9.819574754052642"><ele>590.0</ele><time>2026-04-19T12:09:37.999Z</time></trkpt><trkpt lat="44.69601522250756" lon="9.819516030104609"><ele>590.0</ele><time>2026-04-19T12:09:39.999Z</time></trkpt><trkpt lat="44.696078934398884" lon="9.81950911911262"><ele>590.0</ele><time>2026-04-19T12:09:40.999Z</time></trkpt><trkpt lat="44.69615013046802" lon="9.819513320029865"><ele>590.0</ele><time>2026-04-19T12:09:41.999Z</time></trkpt><trkpt lat="44.69621269380342" lon="9.819495575567442"><ele>590.0</ele><time>2026-04-19T12:09:42.999Z</time></trkpt><trkpt lat="44.69629013951474" lon="9.81947611502265"><ele>590.0</ele><time>2026-04-19T12:09:43.999Z</time></trkpt><trkpt lat="44.69636365381623" lon="9.819436956448225"><ele>588.1666666666666</ele><time>2026-04-19T12:09:44.999Z</time></trkpt><trkpt lat="44.69642484120227" lon="9.819392191429076"><ele>586.3333333333333</ele><time>2026-04-19T12:09:45.999Z</time></trkpt><trkpt lat="44.69653084767606" lon="9.819338084709262"><ele>584.5</ele><time>2026-04-19T12:09:47.999Z</time></trkpt><trkpt lat="44.696610486250265" lon="9.819277485626172"><ele>582.6666666666666</ele><time>2026-04-19T12:09:49.999Z</time></trkpt><trkpt lat="44.69667873529456" lon="9.819220211028059"><ele>580.8333333333334</ele><time>2026-04-19T12:09:51.999Z</time></trkpt><trkpt lat="44.69661297013232" lon="9.819150064739794"><ele>579.0</ele><time>2026-04-19T12:09:56.999Z</time></trkpt><trkpt lat="44.696526925765035" lon="9.819167506489014"><ele>578.3333333333334</ele><time>2026-04-19T12:09:57.999Z</time></trkpt><trkpt lat="44.69643811444887" lon="9.819160511451384"><ele>577.6666666666666</ele><time>2026-04-19T12:09:58.999Z</time></trkpt><trkpt lat="44.696377145692274" lon="9.819135401393437"><ele>577.0</ele><time>2026-04-19T12:09:59.999Z</time></trkpt><trkpt lat="44.69631057064695" lon="9.819097254318612"><ele>576.3333333333333</ele><time>2026-04-19T12:10:00.999Z</time></trkpt><trkpt lat="44.69623172936359" lon="9.819050523094814"><ele>575.6666666666666</ele><time>2026-04-19T12:10:01.999Z</time></trkpt><trkpt lat="44.69617228616572" lon="9.81901859557755"><ele>575.0</ele><time>2026-04-19T12:10:02.999Z</time></trkpt><trkpt lat="44.69605298241855" lon="9.818966396529023"><ele>577.5</ele><time>2026-04-19T12:10:04.999Z</time></trkpt><trkpt lat="44.69598769971596" lon="9.818935933646435"><ele>580.0</ele><time>2026-04-19T12:10:05.999Z</time></trkpt><trkpt lat="44.695866567220655" lon="9.818876263243123"><ele>582.5</ele><time>2026-04-19T12:10:07.999Z</time></trkpt><trkpt lat="44.69579463214656" lon="9.818841578346799"><ele>585.0</ele><time>2026-04-19T12:10:08.999Z</time></trkpt><trkpt lat="44.69571483063865" lon="9.818809171640225"><ele>587.5</ele><time>2026-04-19T12:10:09.999Z</time></trkpt><trkpt lat="44.69564268452793" lon="9.81878719511005"><ele>590.0</ele><time>2026-04-19T12:10:10.999Z</time></trkpt><trkpt lat="44.69552920145812" lon="9.818740997627401"><ele>590.0</ele><time>2026-04-19T12:10:12.999Z</time></trkpt><trkpt lat="44.69546289807391" lon="9.818715592243132"><ele>590.0</ele><time>2026-04-19T12:10:13.999Z</time></trkpt><trkpt lat="44.69533213925093" lon="9.818607059810047"><ele>590.0</ele><time>2026-04-19T12:10:15.999Z</time></trkpt><trkpt lat="44.695255360999695" lon="9.818512185530514"><ele>590.0</ele><time>2026-04-19T12:10:16.999Z</time></trkpt><trkpt lat="44.695210520365514" lon="9.818424733863514"><ele>590.0</ele><time>2026-04-19T12:10:17.999Z</time></trkpt><trkpt lat="44.695190819995815" lon="9.818334203893414"><ele>594.4</ele><time>2026-04-19T12:10:18.999Z</time></trkpt><trkpt lat="44.69518342316778" lon="9.818233602437955"><ele>598.8</ele><time>2026-04-19T12:10:19.999Z</time></trkpt><trkpt lat="44.695203753913184" lon="9.818067838643522"><ele>603.2</ele><time>2026-04-19T12:10:21.999Z</time></trkpt><trkpt lat="44.695136372432536" lon="9.817938329278377"><ele>607.6</ele><time>2026-04-19T12:10:24Z</time></trkpt><trkpt lat="44.69506386844795" lon="9.817910671863377"><ele>612.0</ele><time>2026-04-19T12:10:25Z</time></trkpt><trkpt lat="44.69498940508911" lon="9.817858206021542"><ele>612.0</ele><time>2026-04-19T12:10:26Z</time></trkpt><trkpt lat="44.69503823511132" lon="9.817749141117046"><ele>612.0</ele><time>2026-04-19T12:11:15.999Z</time></trkpt><trkpt lat="44.69502495739975" lon="9.81760548730396"><ele>612.0</ele><time>2026-04-19T12:11:17.999Z</time></trkpt><trkpt lat="44.69501813984947" lon="9.81747745917543"><ele>612.0</ele><time>2026-04-19T12:11:19.999Z</time></trkpt><trkpt lat="44.69504772583635" lon="9.817349057077003"><ele>612.0</ele><time>2026-04-19T12:11:21.999Z</time></trkpt><trkpt lat="44.695058915019224" lon="9.817193756454213"><ele>614.4</ele><time>2026-04-19T12:11:23.999Z</time></trkpt><trkpt lat="44.69505666361593" lon="9.817065051309477"><ele>616.8000000000001</ele><time>2026-04-19T12:11:26.999Z</time></trkpt><trkpt lat="44.695073828292784" lon="9.816953302204551"><ele>619.2</ele><time>2026-04-19T12:11:28.999Z</time></trkpt><trkpt lat="44.6951043493882" lon="9.81686533573416"><ele>621.6</ele><time>2026-04-19T12:11:30.999Z</time></trkpt><trkpt lat="44.69515401921141" lon="9.816709320939594"><ele>624.0</ele><time>2026-04-19T12:11:32.999Z</time></trkpt><trkpt lat="44.69514118696887" lon="9.816576673253543"><ele>625.0</ele><time>2026-04-19T12:11:34.999Z</time></trkpt><trkpt lat="44.69514667783425" lon="9.81646748085361"><ele>626.0</ele><time>2026-04-19T12:11:35.999Z</time></trkpt><trkpt lat="44.695150904350584" lon="9.816362951398883"><ele>627.0</ele><time>2026-04-19T12:11:36.999Z</time></trkpt><trkpt lat="44.69514450609881" lon="9.816223430601172"><ele>628.0</ele><time>2026-04-19T12:11:38.999Z</time></trkpt><trkpt lat="44.69512065480777" lon="9.816033535923264"><ele>629.0</ele><time>2026-04-19T12:11:40.999Z</time></trkpt><trkpt lat="44.69509766836802" lon="9.815916123004913"><ele>629.1666666666666</ele><time>2026-04-19T12:11:44.999Z</time></trkpt><trkpt lat="44.69507841433122" lon="9.81582468505614"><ele>629.3333333333333</ele><time>2026-04-19T12:11:45.999Z</time></trkpt><trkpt lat="44.69505536216257" lon="9.815732684795664"><ele>629.5</ele><time>2026-04-19T12:11:46.999Z</time></trkpt><trkpt lat="44.69505648508709" lon="9.815614851560074"><ele>629.6666666666666</ele><time>2026-04-19T12:11:48.999Z</time></trkpt><trkpt lat="44.6950930223649" lon="9.815463500945665"><ele>629.8333333333334</ele><time>2026-04-19T12:11:51.999Z</time></trkpt><trkpt lat="44.69510899721888" lon="9.815364236816174"><ele>630.0</ele><time>2026-04-19T12:11:52.999Z</time></trkpt><trkpt lat="44.69511103862604" lon="9.815228422881802"><ele>631.2</ele><time>2026-04-19T12:11:54.999Z</time></trkpt><trkpt lat="44.69509365194184" lon="9.815097892886284"><ele>632.4</ele><time>2026-04-19T12:11:56.999Z</time></trkpt><trkpt lat="44.69509417633564" lon="9.81488617611018"><ele>633.6</ele><time>2026-04-19T12:11:57.999Z</time></trkpt><trkpt lat="44.6950759104279" lon="9.814800337146766"><ele>634.8</ele><time>2026-04-19T12:11:58.999Z</time></trkpt><trkpt lat="44.69505983852888" lon="9.814665123842111"><ele>636.0</ele><time>2026-04-19T12:12:00.999Z</time></trkpt><trkpt lat="44.69502883459721" lon="9.814575114301197"><ele>636.0</ele><time>2026-04-19T12:12:02.999Z</time></trkpt><trkpt lat="44.69490015950199" lon="9.814502387065591"><ele>636.0</ele><time>2026-04-19T12:12:04.999Z</time></trkpt><trkpt lat="44.69483111003871" lon="9.814434891954615"><ele>636.0</ele><time>2026-04-19T12:12:05.999Z</time></trkpt><trkpt lat="44.69475983224981" lon="9.814343905328116"><ele>636.0</ele><time>2026-04-19T12:12:06.999Z</time></trkpt><trkpt lat="44.6946633709086" lon="9.814235157713684"><ele>636.0</ele><time>2026-04-19T12:12:07.999Z</time></trkpt><trkpt lat="44.69458185832946" lon="9.814144947376551"><ele>636.3333333333334</ele><time>2026-04-19T12:12:08.999Z</time></trkpt><trkpt lat="44.694534423697704" lon="9.814086449460097"><ele>636.6666666666666</ele><time>2026-04-19T12:12:09.999Z</time></trkpt><trkpt lat="44.694472748806355" lon="9.813998902103254"><ele>637.0</ele><time>2026-04-19T12:12:11.999Z</time></trkpt><trkpt lat="44.694422484065015" lon="9.813911594974888"><ele>637.3333333333333</ele><time>2026-04-19T12:12:13.999Z</time></trkpt><trkpt lat="44.69441180976058" lon="9.813783083690698"><ele>637.6666666666666</ele><time>2026-04-19T12:12:15.999Z</time></trkpt><trkpt lat="44.69448508331348" lon="9.813641979806944"><ele>638.0</ele><time>2026-04-19T12:12:17.999Z</time></trkpt><trkpt lat="44.69455544059793" lon="9.813535323517526"><ele>638.5999999999999</ele><time>2026-04-19T12:12:18.999Z</time></trkpt><trkpt lat="44.694603466263125" lon="9.813450676463134"><ele>639.1999999999999</ele><time>2026-04-19T12:12:19.999Z</time></trkpt><trkpt lat="44.69463650447955" lon="9.813374342661147"><ele>639.8</ele><time>2026-04-19T12:12:20.999Z</time></trkpt><trkpt lat="44.694668446300305" lon="9.81323533857988"><ele>640.4</ele><time>2026-04-19T12:12:22.999Z</time></trkpt><trkpt lat="44.69473413827061" lon="9.813160251577786"><ele>641.0</ele><time>2026-04-19T12:12:24.999Z</time></trkpt><trkpt lat="44.69487435457817" lon="9.81308892316127"><ele>641.0</ele><time>2026-04-19T12:12:26.999Z</time></trkpt><trkpt lat="44.694940200241064" lon="9.812954002215037"><ele>641.0</ele><time>2026-04-19T12:12:29Z</time></trkpt><trkpt lat="44.69497619507538" lon="9.81284072828516"><ele>641.0</ele><time>2026-04-19T12:12:31Z</time></trkpt><trkpt lat="44.6950118326569" lon="9.812751097423957"><ele>641.0</ele><time>2026-04-19T12:12:32Z</time></trkpt><trkpt lat="44.6950538303477" lon="9.812595633330204"><ele>641.0</ele><time>2026-04-19T12:12:34Z</time></trkpt><trkpt lat="44.69508148937043" lon="9.812510518964393"><ele>640.5</ele><time>2026-04-19T12:12:35Z</time></trkpt><trkpt lat="44.69506518266137" lon="9.81241374686621"><ele>640.0</ele><time>2026-04-19T12:12:37Z</time></trkpt><trkpt lat="44.69500219456088" lon="9.812289532375653"><ele>639.5</ele><time>2026-04-19T12:12:39Z</time></trkpt><trkpt lat="44.69494038989521" lon="9.812229713855348"><ele>639.0</ele><time>2026-04-19T12:12:40Z</time></trkpt><trkpt lat="44.69487916572681" lon="9.812164765138725"><ele>638.5</ele><time>2026-04-19T12:12:41Z</time></trkpt><trkpt lat="44.69480408060093" lon="9.812083440376032"><ele>638.0</ele><time>2026-04-19T12:12:42Z</time></trkpt><trkpt lat="44.69474421912876" lon="9.812001556514385"><ele>638.0</ele><time>2026-04-19T12:12:43Z</time></trkpt><trkpt lat="44.69469157010512" lon="9.81192569324871"><ele>638.0</ele><time>2026-04-19T12:12:44Z</time></trkpt><trkpt lat="44.69463936417452" lon="9.811818896949967"><ele>638.0</ele><time>2026-04-19T12:12:46Z</time></trkpt><trkpt lat="44.6945918663644" lon="9.811747528892278"><ele>638.0</ele><time>2026-04-19T12:12:50Z</time></trkpt><trkpt lat="44.694580763391905" lon="9.81162998779363"><ele>638.0</ele><time>2026-04-19T12:12:51Z</time></trkpt><trkpt lat="44.69449723807322" lon="9.811614172792433"><ele>638.0</ele><time>2026-04-19T12:12:53Z</time></trkpt><trkpt lat="44.69443383553981" lon="9.811595552333344"><ele>638.5</ele><time>2026-04-19T12:12:56Z</time></trkpt><trkpt lat="44.694360076887016" lon="9.811512163495198"><ele>639.0</ele><time>2026-04-19T12:12:58Z</time></trkpt><trkpt lat="44.694322743540795" lon="9.811428513214029"><ele>639.5</ele><time>2026-04-19T12:13:00Z</time></trkpt><trkpt lat="44.69431817569141" lon="9.811337132721867"><ele>640.0</ele><time>2026-04-19T12:13:02Z</time></trkpt><trkpt lat="44.69430760835561" lon="9.81121009085395"><ele>640.5</ele><time>2026-04-19T12:13:04Z</time></trkpt><trkpt lat="44.694315255456445" lon="9.811063406341999"><ele>641.0</ele><time>2026-04-19T12:13:06Z</time></trkpt><trkpt lat="44.694317977386724" lon="9.810923216650737"><ele>638.8</ele><time>2026-04-19T12:13:08Z</time></trkpt><trkpt lat="44.69429006292535" lon="9.810780141780722"><ele>636.5999999999999</ele><time>2026-04-19T12:13:10Z</time></trkpt><trkpt lat="44.694283482670066" lon="9.810607963730792"><ele>634.4</ele><time>2026-04-19T12:13:11.999Z</time></trkpt><trkpt lat="44.69427848778137" lon="9.810448895854757"><ele>632.2</ele><time>2026-04-19T12:13:13.999Z</time></trkpt><trkpt lat="44.69426545554392" lon="9.81031401291937"><ele>630.0</ele><time>2026-04-19T12:13:15.999Z</time></trkpt><trkpt lat="44.69429575274065" lon="9.810227162558737"><ele>628.4</ele><time>2026-04-19T12:13:16.999Z</time></trkpt><trkpt lat="44.694324784206756" lon="9.810108983457097"><ele>626.8</ele><time>2026-04-19T12:13:17.999Z</time></trkpt><trkpt lat="44.69433891202128" lon="9.810014022345433"><ele>625.2</ele><time>2026-04-19T12:13:18.999Z</time></trkpt><trkpt lat="44.694367677077175" lon="9.809859680432115"><ele>623.6</ele><time>2026-04-19T12:13:20.999Z</time></trkpt><trkpt lat="44.69442747864376" lon="9.809696571940464"><ele>622.0</ele><time>2026-04-19T12:13:22.999Z</time></trkpt><trkpt lat="44.69444383194387" lon="9.809561470701016"><ele>621.5</ele><time>2026-04-19T12:13:24.999Z</time></trkpt><trkpt lat="44.69445660806922" lon="9.809452336823533"><ele>621.0</ele><time>2026-04-19T12:13:26.999Z</time></trkpt><trkpt lat="44.69451125017726" lon="9.809341129076296"><ele>620.5</ele><time>2026-04-19T12:13:28.999Z</time></trkpt><trkpt lat="44.69455521320205" lon="9.80923687518304"><ele>620.0</ele><time>2026-04-19T12:13:31.999Z</time></trkpt><trkpt lat="44.694600214641504" lon="9.809138963136329"><ele>619.5</ele><time>2026-04-19T12:13:33.999Z</time></trkpt><trkpt lat="44.69464370206507" lon="9.809007472811958"><ele>619.0</ele><time>2026-04-19T12:13:35.999Z</time></trkpt><trkpt lat="44.69468833914088" lon="9.808909172408763"><ele>617.5</ele><time>2026-04-19T12:13:37.999Z</time></trkpt><trkpt lat="44.69469851322933" lon="9.808755480057608"><ele>616.0</ele><time>2026-04-19T12:13:39.999Z</time></trkpt><trkpt lat="44.69469731376206" lon="9.80866086356082"><ele>614.5</ele><time>2026-04-19T12:13:40.999Z</time></trkpt><trkpt lat="44.69469340817878" lon="9.808571378153898"><ele>613.0</ele><time>2026-04-19T12:13:41.999Z</time></trkpt><trkpt lat="44.69474986938477" lon="9.80844087996656"><ele>611.5</ele><time>2026-04-19T12:13:43.999Z</time></trkpt><trkpt lat="44.69482593618268" lon="9.808358480517986"><ele>610.0</ele><time>2026-04-19T12:13:44.999Z</time></trkpt><trkpt lat="44.69488465793462" lon="9.808268626387905"><ele>608.6</ele><time>2026-04-19T12:13:45.999Z</time></trkpt><trkpt lat="44.69491227516415" lon="9.808177656413546"><ele>607.2</ele><time>2026-04-19T12:13:46.999Z</time></trkpt><trkpt lat="44.69489918458589" lon="9.80806568057036"><ele>605.8</ele><time>2026-04-19T12:13:48.999Z</time></trkpt><trkpt lat="44.69488028123405" lon="9.807952143864755"><ele>604.4</ele><time>2026-04-19T12:13:50.999Z</time></trkpt><trkpt lat="44.69484764639536" lon="9.807748164554752"><ele>603.0</ele><time>2026-04-19T12:13:52.999Z</time></trkpt><trkpt lat="44.69484141387777" lon="9.807618378305698"><ele>602.8333333333334</ele><time>2026-04-19T12:13:53.999Z</time></trkpt><trkpt lat="44.69483873279425" lon="9.807523122444032"><ele>602.6666666666666</ele><time>2026-04-19T12:13:54.999Z</time></trkpt><trkpt lat="44.69484311234919" lon="9.807371020214022"><ele>602.5</ele><time>2026-04-19T12:13:56.999Z</time></trkpt><trkpt lat="44.69483584333171" lon="9.807251368521214"><ele>602.3333333333333</ele><time>2026-04-19T12:13:57.999Z</time></trkpt><trkpt lat="44.694814523982366" lon="9.807152806725197"><ele>602.1666666666666</ele><time>2026-04-19T12:13:58.999Z</time></trkpt><trkpt lat="44.69479177726515" lon="9.807059666774558"><ele>602.0</ele><time>2026-04-19T12:13:59.999Z</time></trkpt><trkpt lat="44.69476760639628" lon="9.806971811393597"><ele>602.0</ele><time>2026-04-19T12:14:00.999Z</time></trkpt><trkpt lat="44.694806269224365" lon="9.80686753310932"><ele>602.0</ele><time>2026-04-19T12:14:02.999Z</time></trkpt><trkpt lat="44.694947021003166" lon="9.806828448421971"><ele>602.0</ele><time>2026-04-19T12:14:04.999Z</time></trkpt><trkpt lat="44.69502035974266" lon="9.806827610433784"><ele>602.0</ele><time>2026-04-19T12:14:05.999Z</time></trkpt><trkpt lat="44.69506458587772" lon="9.80676002851415"><ele>602.0</ele><time>2026-04-19T12:14:06.999Z</time></trkpt><trkpt lat="44.695113407985815" lon="9.806648114455758"><ele>602.2</ele><time>2026-04-19T12:14:07.999Z</time></trkpt><trkpt lat="44.69518089851448" lon="9.806544102788552"><ele>602.4000000000001</ele><time>2026-04-19T12:14:08.999Z</time></trkpt><trkpt lat="44.69525083643345" lon="9.806432680381581"><ele>602.5999999999999</ele><time>2026-04-19T12:14:09.999Z</time></trkpt><trkpt lat="44.695311383179174" lon="9.806323132349009"><ele>602.8</ele><time>2026-04-19T12:14:10.999Z</time></trkpt><trkpt lat="44.695349876060774" lon="9.806234242338968"><ele>603.0</ele><time>2026-04-19T12:14:11.999Z</time></trkpt><trkpt lat="44.69540254804294" lon="9.80613942940917"><ele>602.0</ele><time>2026-04-19T12:14:12.999Z</time></trkpt><trkpt lat="44.695472734347796" lon="9.806044854330848"><ele>601.0</ele><time>2026-04-19T12:14:13.999Z</time></trkpt><trkpt lat="44.69554276496482" lon="9.805940293519356"><ele>600.0</ele><time>2026-04-19T12:14:14.999Z</time></trkpt><trkpt lat="44.695593457919" lon="9.80578739756566"><ele>599.0</ele><time>2026-04-19T12:14:15.999Z</time></trkpt><trkpt lat="44.695643005969146" lon="9.805661379435135"><ele>598.0</ele><time>2026-04-19T12:14:16.999Z</time></trkpt><trkpt lat="44.69570670365365" lon="9.805550126209678"><ele>598.0</ele><time>2026-04-19T12:14:17.999Z</time></trkpt><trkpt lat="44.69576992523819" lon="9.805442669073189"><ele>598.0</ele><time>2026-04-19T12:14:18.999Z</time></trkpt><trkpt lat="44.69584158870382" lon="9.805333413135473"><ele>598.0</ele><time>2026-04-19T12:14:19.999Z</time></trkpt><trkpt lat="44.69591561609883" lon="9.805245874763314"><ele>598.0</ele><time>2026-04-19T12:14:20.999Z</time></trkpt><trkpt lat="44.695979716800586" lon="9.80518731310131"><ele>598.0</ele><time>2026-04-19T12:14:21.999Z</time></trkpt><trkpt lat="44.696054753591035" lon="9.805154249762465"><ele>599.0</ele><time>2026-04-19T12:14:23.999Z</time></trkpt><trkpt lat="44.69606646604461" lon="9.805060517912981"><ele>600.0</ele><time>2026-04-19T12:14:25.999Z</time></trkpt><trkpt lat="44.69602826229825" lon="9.80498419713362"><ele>601.0</ele><time>2026-04-19T12:14:28.999Z</time></trkpt><trkpt lat="44.695967090874646" lon="9.804831741131382"><ele>602.0</ele><time>2026-04-19T12:14:30.999Z</time></trkpt><trkpt lat="44.695927531476926" lon="9.804740023433105"><ele>603.0</ele><time>2026-04-19T12:14:31.999Z</time></trkpt><trkpt lat="44.695879704121005" lon="9.804635728900683"><ele>604.0</ele><time>2026-04-19T12:14:32.999Z</time></trkpt><trkpt lat="44.69581974712388" lon="9.804531362948676"><ele>604.0</ele><time>2026-04-19T12:14:34Z</time></trkpt><trkpt lat="44.69574743354864" lon="9.804432285299193"><ele>604.0</ele><time>2026-04-19T12:14:35Z</time></trkpt><trkpt lat="44.695651252253946" lon="9.804315623696018"><ele>604.0</ele><time>2026-04-19T12:14:36Z</time></trkpt><trkpt lat="44.69556633950993" lon="9.804210829815377"><ele>604.0</ele><time>2026-04-19T12:14:37Z</time></trkpt><trkpt lat="44.69551019441235" lon="9.804169030444097"><ele>604.0</ele><time>2026-04-19T12:14:39Z</time></trkpt><trkpt lat="44.6954484747244" lon="9.804231968240707"><ele>604.0</ele><time>2026-04-19T12:14:53Z</time></trkpt><trkpt lat="44.69535215301022" lon="9.804330809090064"><ele>604.0</ele><time>2026-04-19T12:14:55Z</time></trkpt><trkpt lat="44.69528489343329" lon="9.80438194291827"><ele>604.0</ele><time>2026-04-19T12:14:56Z</time></trkpt><trkpt lat="44.695223530762526" lon="9.804416745902902"><ele>604.0</ele><time>2026-04-19T12:14:57Z</time></trkpt><trkpt lat="44.695160872933144" lon="9.804427905676535"><ele>604.0</ele><time>2026-04-19T12:14:58Z</time></trkpt><trkpt lat="44.69504879435839" lon="9.80447271985309"><ele>604.0</ele><time>2026-04-19T12:15:00Z</time></trkpt><trkpt lat="44.69498423239317" lon="9.804489529784732"><ele>605.1666666666667</ele><time>2026-04-19T12:15:01Z</time></trkpt><trkpt lat="44.69490876191497" lon="9.804468273502158"><ele>606.3333333333334</ele><time>2026-04-19T12:15:02Z</time></trkpt><trkpt lat="44.69482718846027" lon="9.80442470528233"><ele>607.5</ele><time>2026-04-19T12:15:03Z</time></trkpt><trkpt lat="44.694749446465856" lon="9.804388025053251"><ele>608.6666666666666</ele><time>2026-04-19T12:15:04Z</time></trkpt><trkpt lat="44.69467832918358" lon="9.804374158647018"><ele>609.8333333333333</ele><time>2026-04-19T12:15:05Z</time></trkpt><trkpt lat="44.69460152912333" lon="9.804374386767657"><ele>611.0</ele><time>2026-04-19T12:15:06Z</time></trkpt><trkpt lat="44.69453573365384" lon="9.80435658269752"><ele>611.0</ele><time>2026-04-19T12:15:07Z</time></trkpt><trkpt lat="44.694461939396554" lon="9.804349982443021"><ele>611.0</ele><time>2026-04-19T12:15:08Z</time></trkpt><trkpt lat="44.694395385859615" lon="9.804347534913969"><ele>611.0</ele><time>2026-04-19T12:15:09Z</time></trkpt><trkpt lat="44.6943027151835" lon="9.80426087108894"><ele>611.0</ele><time>2026-04-19T12:15:11Z</time></trkpt><trkpt lat="44.69423992321442" lon="9.804181542499922"><ele>611.0</ele><time>2026-04-19T12:15:12Z</time></trkpt><trkpt lat="44.69416780620748" lon="9.804093112082313"><ele>611.0</ele><time>2026-04-19T12:15:12.999Z</time></trkpt><trkpt lat="44.69409467081042" lon="9.804010868047696"><ele>615.4</ele><time>2026-04-19T12:15:13.999Z</time></trkpt><trkpt lat="44.694048117858834" lon="9.803949970555298"><ele>619.8</ele><time>2026-04-19T12:15:14.999Z</time></trkpt><trkpt lat="44.6939409064895" lon="9.803833213755198"><ele>624.1999999999999</ele><time>2026-04-19T12:15:16.999Z</time></trkpt><trkpt lat="44.69385608955152" lon="9.803732624686791"><ele>628.6</ele><time>2026-04-19T12:15:17.999Z</time></trkpt><trkpt lat="44.693768877911864" lon="9.803650357194911"><ele>633.0</ele><time>2026-04-19T12:15:18.999Z</time></trkpt><trkpt lat="44.69367347660673" lon="9.803536168176336"><ele>633.8333333333334</ele><time>2026-04-19T12:15:20.999Z</time></trkpt><trkpt lat="44.69362104338388" lon="9.803460395246494"><ele>634.6666666666666</ele><time>2026-04-19T12:15:21.999Z</time></trkpt><trkpt lat="44.69354875022126" lon="9.803386415796167"><ele>635.5</ele><time>2026-04-19T12:15:22.999Z</time></trkpt><trkpt lat="44.69346276099166" lon="9.80335545428915"><ele>636.3333333333333</ele><time>2026-04-19T12:15:23.999Z</time></trkpt><trkpt lat="44.69339864274435" lon="9.803322723897873"><ele>637.1666666666666</ele><time>2026-04-19T12:15:24.999Z</time></trkpt><trkpt lat="44.69333098231504" lon="9.803268986679845"><ele>638.0</ele><time>2026-04-19T12:15:25.999Z</time></trkpt><trkpt lat="44.69326912671327" lon="9.803199415426274"><ele>639.4285714285714</ele><time>2026-04-19T12:15:26.999Z</time></trkpt><trkpt lat="44.693213080415084" lon="9.803133558912217"><ele>640.8571428571428</ele><time>2026-04-19T12:15:27.999Z</time></trkpt><trkpt lat="44.69315436529302" lon="9.803063152926642"><ele>642.2857142857142</ele><time>2026-04-19T12:15:28.999Z</time></trkpt><trkpt lat="44.69309515624504" lon="9.80300660362898"><ele>643.7142857142858</ele><time>2026-04-19T12:15:29.999Z</time></trkpt><trkpt lat="44.69302224164474" lon="9.802965451347287"><ele>645.1428571428571</ele><time>2026-04-19T12:15:30.999Z</time></trkpt><trkpt lat="44.692954568998495" lon="9.802912997074039"><ele>646.5714285714286</ele><time>2026-04-19T12:15:31.999Z</time></trkpt><trkpt lat="44.69289163185084" lon="9.802876379719923"><ele>648.0</ele><time>2026-04-19T12:15:32.999Z</time></trkpt><trkpt lat="44.69281260999935" lon="9.802825249418175"><ele>649.2</ele><time>2026-04-19T12:15:33.999Z</time></trkpt><trkpt lat="44.69273107011786" lon="9.802783372368035"><ele>650.4</ele><time>2026-04-19T12:15:34.999Z</time></trkpt><trkpt lat="44.69265479785683" lon="9.802752585089783"><ele>651.6</ele><time>2026-04-19T12:15:35.999Z</time></trkpt><trkpt lat="44.692571113095234" lon="9.802679778133472"><ele>652.8000000000001</ele><time>2026-04-19T12:15:37.999Z</time></trkpt><trkpt lat="44.69252536689839" lon="9.802519675493032"><ele>654.0</ele><time>2026-04-19T12:15:39.999Z</time></trkpt><trkpt lat="44.6925120625317" lon="9.802427837605794"><ele>656.6</ele><time>2026-04-19T12:15:40.999Z</time></trkpt><trkpt lat="44.69244066436206" lon="9.80233710810411"><ele>659.2</ele><time>2026-04-19T12:15:43.999Z</time></trkpt><trkpt lat="44.69236799625619" lon="9.802344283301498"><ele>661.8000000000001</ele><time>2026-04-19T12:15:45.999Z</time></trkpt><trkpt lat="44.692284099425315" lon="9.802327708571898"><ele>664.4000000000001</ele><time>2026-04-19T12:15:47.999Z</time></trkpt><trkpt lat="44.6922479505145" lon="9.802215937670011"><ele>667.0</ele><time>2026-04-19T12:15:50.999Z</time></trkpt><trkpt lat="44.69224935050527" lon="9.802011904069504"><ele>667.0</ele><time>2026-04-19T12:15:52.999Z</time></trkpt><trkpt lat="44.692305880370135" lon="9.801887612778486"><ele>667.0</ele><time>2026-04-19T12:15:53.999Z</time></trkpt><trkpt lat="44.692325941775266" lon="9.801760290240505"><ele>667.0</ele><time>2026-04-19T12:15:54.999Z</time></trkpt><trkpt lat="44.69235293505541" lon="9.801610058639701"><ele>667.0</ele><time>2026-04-19T12:15:55.999Z</time></trkpt><trkpt lat="44.69237972241043" lon="9.801456682250587"><ele>667.0</ele><time>2026-04-19T12:15:56.999Z</time></trkpt><trkpt lat="44.69238914167395" lon="9.801318055081435"><ele>669.1666666666667</ele><time>2026-04-19T12:15:57.999Z</time></trkpt><trkpt lat="44.69238789158672" lon="9.801177471444934"><ele>671.3333333333334</ele><time>2026-04-19T12:15:58.999Z</time></trkpt><trkpt lat="44.692376518360284" lon="9.801069633482218"><ele>673.5</ele><time>2026-04-19T12:15:59.999Z</time></trkpt><trkpt lat="44.692362702222205" lon="9.80094154159636"><ele>675.6666666666666</ele><time>2026-04-19T12:16:00.999Z</time></trkpt><trkpt lat="44.692332887298974" lon="9.800856824415183"><ele>677.8333333333333</ele><time>2026-04-19T12:16:01.999Z</time></trkpt><trkpt lat="44.69224575112411" lon="9.800764822067231"><ele>680.0</ele><time>2026-04-19T12:16:03.999Z</time></trkpt><trkpt lat="44.69217366066114" lon="9.800721794308378"><ele>682.0</ele><time>2026-04-19T12:16:04.999Z</time></trkpt><trkpt lat="44.69207976108741" lon="9.800635429808347"><ele>684.0</ele><time>2026-04-19T12:16:06.999Z</time></trkpt><trkpt lat="44.69201098837154" lon="9.800586455619275"><ele>686.0</ele><time>2026-04-19T12:16:08.999Z</time></trkpt><trkpt lat="44.69193820242539" lon="9.800418406977485"><ele>688.0</ele><time>2026-04-19T12:16:10.999Z</time></trkpt><trkpt lat="44.69191123891984" lon="9.800322804822017"><ele>690.0</ele><time>2026-04-19T12:16:11.999Z</time></trkpt><trkpt lat="44.691891772394605" lon="9.800230007212226"><ele>695.4</ele><time>2026-04-19T12:16:12.999Z</time></trkpt><trkpt lat="44.6918471693931" lon="9.800106418399633"><ele>700.8</ele><time>2026-04-19T12:16:13.999Z</time></trkpt><trkpt lat="44.691828252601105" lon="9.799914710815392"><ele>706.2</ele><time>2026-04-19T12:16:15.999Z</time></trkpt><trkpt lat="44.691818058752744" lon="9.79976291958468"><ele>711.6</ele><time>2026-04-19T12:16:16.999Z</time></trkpt><trkpt lat="44.69179287840694" lon="9.799661617585743"><ele>717.0</ele><time>2026-04-19T12:16:17.999Z</time></trkpt><trkpt lat="44.69177069032408" lon="9.799508583712434"><ele>717.0</ele><time>2026-04-19T12:16:18.999Z</time></trkpt><trkpt lat="44.69173017559405" lon="9.7994235204014"><ele>717.0</ele><time>2026-04-19T12:16:19.999Z</time></trkpt><trkpt lat="44.69177123768754" lon="9.799269695492104"><ele>717.0</ele><time>2026-04-19T12:16:21.999Z</time></trkpt><trkpt lat="44.691767908164486" lon="9.799149943137408"><ele>717.0</ele><time>2026-04-19T12:16:24.999Z</time></trkpt><trkpt lat="44.69163686449545" lon="9.799192589900272"><ele>717.0</ele><time>2026-04-19T12:16:27.999Z</time></trkpt><trkpt lat="44.69155191171611" lon="9.799285217935415"><ele>717.0</ele><time>2026-04-19T12:16:29.999Z</time></trkpt><trkpt lat="44.69153694900553" lon="9.799378110249245"><ele>717.0</ele><time>2026-04-19T12:16:31.999Z</time></trkpt><trkpt lat="44.691492865562935" lon="9.799469034808332"><ele>717.0</ele><time>2026-04-19T12:16:34.999Z</time></trkpt><trkpt lat="44.69142146449018" lon="9.79946916516165"><ele>717.0</ele><time>2026-04-19T12:16:36.999Z</time></trkpt><trkpt lat="44.69133789938827" lon="9.799429128099556"><ele>717.0</ele><time>2026-04-19T12:16:38.999Z</time></trkpt><trkpt lat="44.691274372092956" lon="9.799385658442201"><ele>717.0</ele><time>2026-04-19T12:16:40Z</time></trkpt><trkpt lat="44.691202706620516" lon="9.799356083989542"><ele>717.0</ele><time>2026-04-19T12:16:41Z</time></trkpt><trkpt lat="44.69113593057562" lon="9.799345196859901"><ele>717.0</ele><time>2026-04-19T12:16:42Z</time></trkpt><trkpt lat="44.69106267760921" lon="9.799341383539579"><ele>717.0</ele><time>2026-04-19T12:16:45Z</time></trkpt><trkpt lat="44.69105750155023" lon="9.79918761529771"><ele>717.0</ele><time>2026-04-19T12:16:47Z</time></trkpt><trkpt lat="44.691075749646316" lon="9.799039165086633"><ele>717.0</ele><time>2026-04-19T12:16:48Z</time></trkpt><trkpt lat="44.69109248959734" lon="9.798922779072702"><ele>717.0</ele><time>2026-04-19T12:16:49Z</time></trkpt><trkpt lat="44.6911032791172" lon="9.798825798291512"><ele>717.5</ele><time>2026-04-19T12:16:50Z</time></trkpt><trkpt lat="44.691096232053546" lon="9.798667131598712"><ele>718.0</ele><time>2026-04-19T12:16:52Z</time></trkpt><trkpt lat="44.69108081035809" lon="9.79856473875934"><ele>718.5</ele><time>2026-04-19T12:16:53Z</time></trkpt><trkpt lat="44.69102850051142" lon="9.798511668139255"><ele>719.0</ele><time>2026-04-19T12:16:55Z</time></trkpt><trkpt lat="44.69093825161436" lon="9.798441003595494"><ele>719.5</ele><time>2026-04-19T12:16:57Z</time></trkpt><trkpt lat="44.69090218791468" lon="9.798360474282319"><ele>720.0</ele><time>2026-04-19T12:17:00Z</time></trkpt><trkpt lat="44.69087095963152" lon="9.798262014293403"><ele>724.5</ele><time>2026-04-19T12:17:02Z</time></trkpt><trkpt lat="44.69087038502905" lon="9.798145114578274"><ele>729.0</ele><time>2026-04-19T12:17:04Z</time></trkpt><trkpt lat="44.69088876870566" lon="9.79805074238936"><ele>733.5</ele><time>2026-04-19T12:17:05Z</time></trkpt><trkpt lat="44.69093425509419" lon="9.7979547854571"><ele>738.0</ele><time>2026-04-19T12:17:06Z</time></trkpt><trkpt lat="44.690972102202835" lon="9.797880189410659"><ele>742.5</ele><time>2026-04-19T12:17:08Z</time></trkpt><trkpt lat="44.69099586108508" lon="9.797747960035291"><ele>747.0</ele><time>2026-04-19T12:17:10Z</time></trkpt><trkpt lat="44.69100851180887" lon="9.797608250600625"><ele>748.2</ele><time>2026-04-19T12:17:12Z</time></trkpt><trkpt lat="44.69098411071112" lon="9.797452167300678"><ele>749.4000000000001</ele><time>2026-04-19T12:17:14Z</time></trkpt><trkpt lat="44.690966154818675" lon="9.797354831220712"><ele>750.5999999999999</ele><time>2026-04-19T12:17:15Z</time></trkpt><trkpt lat="44.69097036584882" lon="9.797253408080946"><ele>751.8</ele><time>2026-04-19T12:17:16Z</time></trkpt><trkpt lat="44.69098692935974" lon="9.797043836613476"><ele>753.0</ele><time>2026-04-19T12:17:17Z</time></trkpt><trkpt lat="44.69100436917591" lon="9.796945827501487"><ele>753.5999999999999</ele><time>2026-04-19T12:17:18Z</time></trkpt><trkpt lat="44.69099325536885" lon="9.796763859855563"><ele>754.1999999999999</ele><time>2026-04-19T12:17:20Z</time></trkpt><trkpt lat="44.69100176689999" lon="9.796656981276044"><ele>754.8</ele><time>2026-04-19T12:17:20.999Z</time></trkpt><trkpt lat="44.69100396691098" lon="9.796546791698303"><ele>755.4</ele><time>2026-04-19T12:17:21.999Z</time></trkpt><trkpt lat="44.691011123059404" lon="9.796431333075004"><ele>756.0</ele><time>2026-04-19T12:17:22.999Z</time></trkpt><trkpt lat="44.69104154267999" lon="9.796322914497361"><ele>756.0</ele><time>2026-04-19T12:17:23.999Z</time></trkpt><trkpt lat="44.691080111686006" lon="9.796208415949877"><ele>756.0</ele><time>2026-04-19T12:17:24.999Z</time></trkpt><trkpt lat="44.691133190670605" lon="9.796065753796135"><ele>756.0</ele><time>2026-04-19T12:17:25.999Z</time></trkpt><trkpt lat="44.69118273085963" lon="9.79593990433959"><ele>756.0</ele><time>2026-04-19T12:17:26.999Z</time></trkpt><trkpt lat="44.69123316811912" lon="9.795826166318443"><ele>756.0</ele><time>2026-04-19T12:17:27.999Z</time></trkpt><trkpt lat="44.69127907618166" lon="9.795733898672276"><ele>755.1666666666666</ele><time>2026-04-19T12:17:28.999Z</time></trkpt><trkpt lat="44.69131133342131" lon="9.795650624211115"><ele>754.3333333333334</ele><time>2026-04-19T12:17:29.999Z</time></trkpt><trkpt lat="44.69136957475456" lon="9.79546601541355"><ele>753.5</ele><time>2026-04-19T12:17:31.999Z</time></trkpt><trkpt lat="44.691402993379775" lon="9.795383197849882"><ele>752.6666666666667</ele><time>2026-04-19T12:17:32.999Z</time></trkpt><trkpt lat="44.691447531995834" lon="9.795314334952463"><ele>751.8333333333334</ele><time>2026-04-19T12:17:34.999Z</time></trkpt><trkpt lat="44.69151334882121" lon="9.795274930474475"><ele>751.0</ele><time>2026-04-19T12:17:35.999Z</time></trkpt><trkpt lat="44.691553420076005" lon="9.795157074545822"><ele>751.0</ele><time>2026-04-19T12:17:37.999Z</time></trkpt><trkpt lat="44.69151864237795" lon="9.794995334474669"><ele>751.0</ele><time>2026-04-19T12:17:39.999Z</time></trkpt><trkpt lat="44.69149841892296" lon="9.794905422001241"><ele>751.0</ele><time>2026-04-19T12:17:40.999Z</time></trkpt><trkpt lat="44.69148818522231" lon="9.79480626370242"><ele>751.0</ele><time>2026-04-19T12:17:41.999Z</time></trkpt><trkpt lat="44.691470030229496" lon="9.794679223926694"><ele>751.0</ele><time>2026-04-19T12:17:42.999Z</time></trkpt><trkpt lat="44.69145348826841" lon="9.794535055004458"><ele>751.0</ele><time>2026-04-19T12:17:43.999Z</time></trkpt><trkpt lat="44.69141182057977" lon="9.794392296860194"><ele>751.0</ele><time>2026-04-19T12:17:44.999Z</time></trkpt><trkpt lat="44.6913808350871" lon="9.794272521342126"><ele>751.0</ele><time>2026-04-19T12:17:45.999Z</time></trkpt><trkpt lat="44.691356312516646" lon="9.794155634949584"><ele>751.0</ele><time>2026-04-19T12:17:46.999Z</time></trkpt><trkpt lat="44.69133446866716" lon="9.794030653880876"><ele>751.0</ele><time>2026-04-19T12:17:47.999Z</time></trkpt><trkpt lat="44.69131381098936" lon="9.793910208833841"><ele>752.4</ele><time>2026-04-19T12:17:48.999Z</time></trkpt><trkpt lat="44.69129606029726" lon="9.793814103545508"><ele>753.8</ele><time>2026-04-19T12:17:49.999Z</time></trkpt><trkpt lat="44.69130405457359" lon="9.793649456845348"><ele>755.1999999999999</ele><time>2026-04-19T12:17:51.999Z</time></trkpt><trkpt lat="44.69132121683164" lon="9.793525706424305"><ele>756.5999999999999</ele><time>2026-04-19T12:17:52.999Z</time></trkpt><trkpt lat="44.69132235980263" lon="9.793384061063913"><ele>758.0</ele><time>2026-04-19T12:17:53.999Z</time></trkpt><trkpt lat="44.69131123246821" lon="9.793259014258552"><ele>760.5999999999999</ele><time>2026-04-19T12:17:54.999Z</time></trkpt><trkpt lat="44.69127534648668" lon="9.793155510992316"><ele>763.1999999999999</ele><time>2026-04-19T12:17:56.999Z</time></trkpt><trkpt lat="44.6911966238015" lon="9.793104846563779"><ele>765.8</ele><time>2026-04-19T12:17:58.999Z</time></trkpt><trkpt lat="44.69108244055479" lon="9.79309957049397"><ele>768.4</ele><time>2026-04-19T12:18:00.999Z</time></trkpt><trkpt lat="44.69106342052577" lon="9.792953843485328"><ele>771.0</ele><time>2026-04-19T12:18:02.999Z</time></trkpt><trkpt lat="44.691082908408916" lon="9.792843144735178"><ele>773.0</ele><time>2026-04-19T12:18:03.999Z</time></trkpt><trkpt lat="44.69100288286735" lon="9.792768115469269"><ele>775.0</ele><time>2026-04-19T12:18:06.999Z</time></trkpt><trkpt lat="44.690931849314346" lon="9.792717475697614"><ele>777.0</ele><time>2026-04-19T12:18:08.999Z</time></trkpt><trkpt lat="44.69085206058289" lon="9.792682295515222"><ele>779.0</ele><time>2026-04-19T12:18:10.999Z</time></trkpt><trkpt lat="44.690776555184684" lon="9.792580022535693"><ele>781.0</ele><time>2026-04-19T12:18:12.999Z</time></trkpt><trkpt lat="44.69071543693008" lon="9.792446565473613"><ele>784.0</ele><time>2026-04-19T12:18:14.999Z</time></trkpt><trkpt lat="44.690675433329346" lon="9.792295044355667"><ele>787.0</ele><time>2026-04-19T12:18:17.999Z</time></trkpt><trkpt lat="44.690637882613814" lon="9.79217706776531"><ele>790.0</ele><time>2026-04-19T12:18:18.999Z</time></trkpt><trkpt lat="44.69060305693498" lon="9.792041900779891"><ele>793.0</ele><time>2026-04-19T12:18:19.999Z</time></trkpt><trkpt lat="44.69055791003203" lon="9.791918831585601"><ele>796.0</ele><time>2026-04-19T12:18:20.999Z</time></trkpt><trkpt lat="44.69051407635492" lon="9.791833979078406"><ele>798.8</ele><time>2026-04-19T12:18:21.999Z</time></trkpt><trkpt lat="44.69042826474482" lon="9.791709620973"><ele>801.5999999999999</ele><time>2026-04-19T12:18:23.999Z</time></trkpt><trkpt lat="44.69037366636202" lon="9.791569753352366"><ele>804.4</ele><time>2026-04-19T12:18:25.999Z</time></trkpt><trkpt lat="44.69028474494579" lon="9.791437073312714"><ele>807.2</ele><time>2026-04-19T12:18:27.999Z</time></trkpt><trkpt lat="44.69023070837443" lon="9.791372861139562"><ele>810.0</ele><time>2026-04-19T12:18:28.999Z</time></trkpt><trkpt lat="44.6901888519043" lon="9.79127768622926"><ele>813.2</ele><time>2026-04-19T12:18:29.999Z</time></trkpt><trkpt lat="44.69015987969856" lon="9.791191830294423"><ele>816.4</ele><time>2026-04-19T12:18:30.999Z</time></trkpt><trkpt lat="44.69012771506583" lon="9.791090945951318"><ele>819.5999999999999</ele><time>2026-04-19T12:18:31.999Z</time></trkpt><trkpt lat="44.69004319035569" lon="9.791004812403152"><ele>822.8</ele><time>2026-04-19T12:18:33.999Z</time></trkpt><trkpt lat="44.68993209642864" lon="9.791023059752979"><ele>826.0</ele><time>2026-04-19T12:18:35.999Z</time></trkpt><trkpt lat="44.68983732680463" lon="9.79094073169445"><ele>828.1666666666666</ele><time>2026-04-19T12:18:37.999Z</time></trkpt><trkpt lat="44.68979146773697" lon="9.790863128532564"><ele>830.3333333333333</ele><time>2026-04-19T12:18:38.999Z</time></trkpt><trkpt lat="44.68974691333653" lon="9.79079207564844"><ele>832.5</ele><time>2026-04-19T12:18:39.999Z</time></trkpt><trkpt lat="44.6897083919956" lon="9.790686310692696"><ele>834.6666666666667</ele><time>2026-04-19T12:18:40.999Z</time></trkpt><trkpt lat="44.6896442609489" lon="9.790599153418379"><ele>836.8333333333334</ele><time>2026-04-19T12:18:41.999Z</time></trkpt><trkpt lat="44.6895969246958" lon="9.790506424122013"><ele>839.0</ele><time>2026-04-19T12:18:42.999Z</time></trkpt><trkpt lat="44.68954634377142" lon="9.790423210249056"><ele>839.0000000000001</ele><time>2026-04-19T12:18:43.999Z</time></trkpt><trkpt lat="44.68950716184531" lon="9.790281025943417"><ele>839.0</ele><time>2026-04-19T12:18:46Z</time></trkpt><trkpt lat="44.689476608036756" lon="9.790199745836167"><ele>839.0</ele><time>2026-04-19T12:18:47Z</time></trkpt><trkpt lat="44.689460178391236" lon="9.790100842886305"><ele>839.0</ele><time>2026-04-19T12:18:49Z</time></trkpt><trkpt lat="44.689380090834604" lon="9.789994959161842"><ele>839.0000000000001</ele><time>2026-04-19T12:19:26.999Z</time></trkpt><trkpt lat="44.68930642271809" lon="9.789935160079727"><ele>839.0</ele><time>2026-04-19T12:19:27.999Z</time></trkpt><trkpt lat="44.68923141735532" lon="9.789841195419298"><ele>842.0000000000001</ele><time>2026-04-19T12:19:28.999Z</time></trkpt><trkpt lat="44.68915733733727" lon="9.789742271776163"><ele>845.0</ele><time>2026-04-19T12:19:29.999Z</time></trkpt><trkpt lat="44.68908772111208" lon="9.789656688205202"><ele>848.0</ele><time>2026-04-19T12:19:30.999Z</time></trkpt><trkpt lat="44.689043276866755" lon="9.789590489404087"><ele>851.0</ele><time>2026-04-19T12:19:31.999Z</time></trkpt><trkpt lat="44.688989056288115" lon="9.789534796918336"><ele>854.0000000000001</ele><time>2026-04-19T12:19:32.999Z</time></trkpt><trkpt lat="44.688962074401395" lon="9.789440331275596"><ele>857.0</ele><time>2026-04-19T12:19:36.999Z</time></trkpt><trkpt lat="44.688997675330135" lon="9.789350992221289"><ele>857.0</ele><time>2026-04-19T12:19:38.999Z</time></trkpt><trkpt lat="44.68903695741562" lon="9.789262427593314"><ele>857.0</ele><time>2026-04-19T12:19:41.999Z</time></trkpt><trkpt lat="44.689123553005174" lon="9.78911561686795"><ele>857.0</ele><time>2026-04-19T12:19:44.999Z</time></trkpt><trkpt lat="44.68917799347443" lon="9.78902010283914"><ele>857.0</ele><time>2026-04-19T12:19:45.999Z</time></trkpt><trkpt lat="44.68925757956753" lon="9.788918383694035"><ele>857.0</ele><time>2026-04-19T12:19:47.999Z</time></trkpt><trkpt lat="44.68928561823331" lon="9.7888262157285"><ele>857.0000000000001</ele><time>2026-04-19T12:19:52.999Z</time></trkpt><trkpt lat="44.68930110002953" lon="9.788719455083706"><ele>857.0</ele><time>2026-04-19T12:19:54.999Z</time></trkpt><trkpt lat="44.68923667125803" lon="9.788554086059882"><ele>857.0</ele><time>2026-04-19T12:19:56.999Z</time></trkpt><trkpt lat="44.689197481032785" lon="9.788448595543352"><ele>857.0</ele><time>2026-04-19T12:19:57.999Z</time></trkpt><trkpt lat="44.68919658718112" lon="9.788357493211432"><ele>857.0000000000001</ele><time>2026-04-19T12:20:00.999Z</time></trkpt><trkpt lat="44.68919070961397" lon="9.788251873299606"><ele>857.0</ele><time>2026-04-19T12:20:02.999Z</time></trkpt><trkpt lat="44.689199165249164" lon="9.788156304727066"><ele>857.6666666666667</ele><time>2026-04-19T12:20:04.999Z</time></trkpt><trkpt lat="44.689221519122434" lon="9.788067912663427"><ele>858.3333333333334</ele><time>2026-04-19T12:20:07.999Z</time></trkpt><trkpt lat="44.689267038992824" lon="9.787954106033999"><ele>859.0</ele><time>2026-04-19T12:20:09.999Z</time></trkpt><trkpt lat="44.68929213555395" lon="9.787865601847104"><ele>859.6666666666667</ele><time>2026-04-19T12:20:10.999Z</time></trkpt><trkpt lat="44.6893108897962" lon="9.787759591322883"><ele>860.3333333333334</ele><time>2026-04-19T12:20:11.999Z</time></trkpt><trkpt lat="44.6893454481739" lon="9.787638764957203"><ele>861.0</ele><time>2026-04-19T12:20:13.999Z</time></trkpt><trkpt lat="44.68937250418156" lon="9.7874927837962"><ele>861.1999999999999</ele><time>2026-04-19T12:20:15.999Z</time></trkpt><trkpt lat="44.689349065192324" lon="9.787371986311179"><ele>861.3999999999999</ele><time>2026-04-19T12:20:17.999Z</time></trkpt><trkpt lat="44.689307964272196" lon="9.787213033405616"><ele>861.6</ele><time>2026-04-19T12:20:19.999Z</time></trkpt><trkpt lat="44.68927912443641" lon="9.787120816111477"><ele>861.8</ele><time>2026-04-19T12:20:21.999Z</time></trkpt><trkpt lat="44.68922148622099" lon="9.786979738958387"><ele>862.0</ele><time>2026-04-19T12:20:24.999Z</time></trkpt><trkpt lat="44.689215524291534" lon="9.786881378825129"><ele>861.3333333333333</ele><time>2026-04-19T12:20:25.999Z</time></trkpt><trkpt lat="44.68918691508848" lon="9.786801343794599"><ele>860.6666666666666</ele><time>2026-04-19T12:20:26.999Z</time></trkpt><trkpt lat="44.6891715495899" lon="9.786684462265685"><ele>860.0</ele><time>2026-04-19T12:20:28.999Z</time></trkpt><trkpt lat="44.68917155724377" lon="9.786595710565042"><ele>859.3333333333333</ele><time>2026-04-19T12:20:32.999Z</time></trkpt><trkpt lat="44.689163431229304" lon="9.78647332063899"><ele>858.6666666666666</ele><time>2026-04-19T12:20:35.999Z</time></trkpt><trkpt lat="44.68916294806448" lon="9.786309972746366"><ele>858.0</ele><time>2026-04-19T12:20:37.999Z</time></trkpt><trkpt lat="44.68912379514419" lon="9.786188491408808"><ele>858.0</ele><time>2026-04-19T12:20:39.999Z</time></trkpt><trkpt lat="44.68901774456775" lon="9.785957778953177"><ele>858.0</ele><time>2026-04-19T12:20:41.999Z</time></trkpt><trkpt lat="44.68896874885006" lon="9.785878295845334"><ele>858.0</ele><time>2026-04-19T12:20:42.999Z</time></trkpt><trkpt lat="44.68889784234811" lon="9.785765620405162"><ele>858.0</ele><time>2026-04-19T12:20:43.999Z</time></trkpt><trkpt lat="44.688840047827405" lon="9.785682033679516"><ele>858.0</ele><time>2026-04-19T12:20:44.999Z</time></trkpt><trkpt lat="44.68878585110369" lon="9.785586327770192"><ele>858.0</ele><time>2026-04-19T12:20:46.999Z</time></trkpt><trkpt lat="44.68875207619578" lon="9.785492813336893"><ele>858.0</ele><time>2026-04-19T12:20:49.999Z</time></trkpt><trkpt lat="44.68872629686993" lon="9.78541043706328"><ele>858.0</ele><time>2026-04-19T12:20:59Z</time></trkpt><trkpt lat="44.688709656885756" lon="9.785286455770947"><ele>858.0</ele><time>2026-04-19T12:21:01Z</time></trkpt><trkpt lat="44.68869323830521" lon="9.785150991655168"><ele>858.0</ele><time>2026-04-19T12:21:03Z</time></trkpt><trkpt lat="44.6886791279775" lon="9.785048484237905"><ele>857.8</ele><time>2026-04-19T12:21:04Z</time></trkpt><trkpt lat="44.6886521442564" lon="9.78494594111381"><ele>857.5999999999999</ele><time>2026-04-19T12:21:05Z</time></trkpt><trkpt lat="44.68861851026304" lon="9.784870630666788"><ele>857.4000000000001</ele><time>2026-04-19T12:21:06Z</time></trkpt><trkpt lat="44.688557051190394" lon="9.784712188928626"><ele>857.2</ele><time>2026-04-19T12:21:08Z</time></trkpt><trkpt lat="44.68850419973842" lon="9.784571432352422"><ele>857.0</ele><time>2026-04-19T12:21:10Z</time></trkpt><trkpt lat="44.688484304579156" lon="9.78442478278391"><ele>857.6</ele><time>2026-04-19T12:21:12Z</time></trkpt><trkpt lat="44.68851604445797" lon="9.784288890051895"><ele>858.2</ele><time>2026-04-19T12:21:14Z</time></trkpt><trkpt lat="44.688585518899984" lon="9.784209333849697"><ele>858.8</ele><time>2026-04-19T12:21:16Z</time></trkpt><trkpt lat="44.68866993592472" lon="9.784049524820809"><ele>859.4</ele><time>2026-04-19T12:21:18Z</time></trkpt><trkpt lat="44.6887118942124" lon="9.783982015767275"><ele>860.0</ele><time>2026-04-19T12:21:19Z</time></trkpt><trkpt lat="44.68877547372639" lon="9.783864990847107"><ele>860.0000000000001</ele><time>2026-04-19T12:21:21Z</time></trkpt><trkpt lat="44.68881550683411" lon="9.783778796864786"><ele>860.0</ele><time>2026-04-19T12:21:22Z</time></trkpt><trkpt lat="44.688856654191326" lon="9.78368310195266"><ele>860.0</ele><time>2026-04-19T12:21:23Z</time></trkpt><trkpt lat="44.68892508589168" lon="9.783580644868762"><ele>860.0</ele><time>2026-04-19T12:21:25Z</time></trkpt><trkpt lat="44.68897032417612" lon="9.783512582962443"><ele>860.0000000000001</ele><time>2026-04-19T12:21:26Z</time></trkpt><trkpt lat="44.6890394370151" lon="9.783434185744621"><ele>860.0</ele><time>2026-04-19T12:21:28Z</time></trkpt><trkpt lat="44.6891118081046" lon="9.783304800560947"><ele>862.0</ele><time>2026-04-19T12:21:30.999Z</time></trkpt><trkpt lat="44.68911284836757" lon="9.783172845462458"><ele>864.0</ele><time>2026-04-19T12:21:32.999Z</time></trkpt><trkpt lat="44.68910236624828" lon="9.783043076899022"><ele>866.0</ele><time>2026-04-19T12:21:33.999Z</time></trkpt><trkpt lat="44.68915958646198" lon="9.782897320109367"><ele>868.0</ele><time>2026-04-19T12:21:35.999Z</time></trkpt><trkpt lat="44.689206948569826" lon="9.782830533375916"><ele>870.0</ele><time>2026-04-19T12:21:36.999Z</time></trkpt><trkpt lat="44.68925032719651" lon="9.782704104238428"><ele>871.1666666666666</ele><time>2026-04-19T12:21:38.999Z</time></trkpt><trkpt lat="44.68926447003922" lon="9.782589848725598"><ele>872.3333333333333</ele><time>2026-04-19T12:21:39.999Z</time></trkpt><trkpt lat="44.68927137631769" lon="9.782481729418937"><ele>873.5</ele><time>2026-04-19T12:21:40.999Z</time></trkpt><trkpt lat="44.689282171875924" lon="9.78234950471867"><ele>874.6666666666666</ele><time>2026-04-19T12:21:42.999Z</time></trkpt><trkpt lat="44.68931151139555" lon="9.782259111428033"><ele>875.8333333333333</ele><time>2026-04-19T12:21:44.999Z</time></trkpt><trkpt lat="44.68938580978097" lon="9.782189582891855"><ele>877.0</ele><time>2026-04-19T12:21:46.999Z</time></trkpt><trkpt lat="44.689458632304905" lon="9.782147029910563"><ele>873.3333333333333</ele><time>2026-04-19T12:21:47.999Z</time></trkpt><trkpt lat="44.68952819791236" lon="9.782106399291598"><ele>869.6666666666666</ele><time>2026-04-19T12:21:48.999Z</time></trkpt><trkpt lat="44.68960042262929" lon="9.782060840506302"><ele>866.0</ele><time>2026-04-19T12:21:49.999Z</time></trkpt><trkpt lat="44.68967067878621" lon="9.781999546719321"><ele>862.3333333333333</ele><time>2026-04-19T12:21:50.999Z</time></trkpt><trkpt lat="44.689743766252796" lon="9.781985826331692"><ele>858.6666666666666</ele><time>2026-04-19T12:21:51.999Z</time></trkpt><trkpt lat="44.68980671207018" lon="9.781949288612605"><ele>855.0</ele><time>2026-04-19T12:21:52.999Z</time></trkpt><trkpt lat="44.68988038394166" lon="9.781935820325103"><ele>855.0</ele><time>2026-04-19T12:21:53.999Z</time></trkpt><trkpt lat="44.689980145926015" lon="9.781942440994978"><ele>855.0</ele><time>2026-04-19T12:21:55.999Z</time></trkpt><trkpt lat="44.69005597485362" lon="9.781888461820243"><ele>855.0</ele><time>2026-04-19T12:21:58.999Z</time></trkpt><trkpt lat="44.69016021565347" lon="9.781839218942965"><ele>855.0</ele><time>2026-04-19T12:22:00.999Z</time></trkpt><trkpt lat="44.690276439639" lon="9.781871165695753"><ele>855.0</ele><time>2026-04-19T12:22:02.999Z</time></trkpt><trkpt lat="44.690360487606235" lon="9.781916962927736"><ele>856.6</ele><time>2026-04-19T12:22:04.999Z</time></trkpt><trkpt lat="44.690437885690216" lon="9.781924027053257"><ele>858.2</ele><time>2026-04-19T12:22:05.999Z</time></trkpt><trkpt lat="44.69057178734066" lon="9.781887073253827"><ele>859.8</ele><time>2026-04-19T12:22:07.999Z</time></trkpt><trkpt lat="44.69064372145616" lon="9.7818613707436"><ele>861.4</ele><time>2026-04-19T12:22:08.999Z</time></trkpt><trkpt lat="44.69073074980911" lon="9.781774773236673"><ele>863.0</ele><time>2026-04-19T12:22:10.999Z</time></trkpt><trkpt lat="44.690768028866216" lon="9.781654369594017"><ele>863.0</ele><time>2026-04-19T12:22:12.999Z</time></trkpt><trkpt lat="44.690771447899856" lon="9.781486953687194"><ele>863.0</ele><time>2026-04-19T12:22:14.999Z</time></trkpt><trkpt lat="44.69074144534106" lon="9.78134504072097"><ele>863.0</ele><time>2026-04-19T12:22:15.999Z</time></trkpt><trkpt lat="44.6907137631981" lon="9.781195809859636"><ele>863.0</ele><time>2026-04-19T12:22:16.999Z</time></trkpt><trkpt lat="44.6906947787726" lon="9.781076619764187"><ele>863.0</ele><time>2026-04-19T12:22:17.999Z</time></trkpt><trkpt lat="44.6906774804391" lon="9.780911165103385"><ele>863.3333333333334</ele><time>2026-04-19T12:22:19.999Z</time></trkpt><trkpt lat="44.69066544543645" lon="9.78077325475443"><ele>863.6666666666667</ele><time>2026-04-19T12:22:21.999Z</time></trkpt><trkpt lat="44.690628980119044" lon="9.780656681031495"><ele>864.0</ele><time>2026-04-19T12:22:23.999Z</time></trkpt><trkpt lat="44.690605250384486" lon="9.780572827003814"><ele>864.3333333333333</ele><time>2026-04-19T12:22:25.999Z</time></trkpt><trkpt lat="44.69057961759494" lon="9.780483188743057"><ele>864.6666666666666</ele><time>2026-04-19T12:22:27.999Z</time></trkpt><trkpt lat="44.690541987065856" lon="9.78035563676895"><ele>865.0</ele><time>2026-04-19T12:22:29.999Z</time></trkpt><trkpt lat="44.690535927810615" lon="9.780229655822106"><ele>864.4285714285714</ele><time>2026-04-19T12:22:31.999Z</time></trkpt><trkpt lat="44.690556803652704" lon="9.780142126439815"><ele>863.8571428571429</ele><time>2026-04-19T12:22:32.999Z</time></trkpt><trkpt lat="44.69057676996049" lon="9.780051779806572"><ele>863.2857142857142</ele><time>2026-04-19T12:22:33.999Z</time></trkpt><trkpt lat="44.69060008622206" lon="9.779967742058622"><ele>862.7142857142858</ele><time>2026-04-19T12:22:36.999Z</time></trkpt><trkpt lat="44.69061613362032" lon="9.779854955317662"><ele>862.1428571428571</ele><time>2026-04-19T12:22:39.999Z</time></trkpt><trkpt lat="44.69062808534679" lon="9.779765612586885"><ele>861.5714285714286</ele><time>2026-04-19T12:22:41.999Z</time></trkpt><trkpt lat="44.69064403507971" lon="9.779642344287865"><ele>861.0</ele><time>2026-04-19T12:22:45.999Z</time></trkpt><trkpt lat="44.69064385898461" lon="9.779515855624574"><ele>861.0</ele><time>2026-04-19T12:22:47.999Z</time></trkpt><trkpt lat="44.690643311177546" lon="9.779368312838436"><ele>860.9999999999999</ele><time>2026-04-19T12:22:49.999Z</time></trkpt><trkpt lat="44.69065341866055" lon="9.779220903954737"><ele>860.9999999999999</ele><time>2026-04-19T12:22:51.999Z</time></trkpt><trkpt lat="44.69068807409444" lon="9.77908517612773"><ele>861.0</ele><time>2026-04-19T12:22:53.999Z</time></trkpt><trkpt lat="44.690708893264414" lon="9.77893860475877"><ele>861.0</ele><time>2026-04-19T12:22:55.999Z</time></trkpt><trkpt lat="44.6907426698849" lon="9.778844890795682"><ele>860.8333333333334</ele><time>2026-04-19T12:22:58Z</time></trkpt><trkpt lat="44.690751996519495" lon="9.77874419893469"><ele>860.6666666666667</ele><time>2026-04-19T12:23:01Z</time></trkpt><trkpt lat="44.69081995283518" lon="9.778720416616242"><ele>860.5</ele><time>2026-04-19T12:23:05Z</time></trkpt><trkpt lat="44.69092166945808" lon="9.778691344709026"><ele>860.3333333333334</ele><time>2026-04-19T12:23:07Z</time></trkpt><trkpt lat="44.69099407262191" lon="9.778727191862775"><ele>860.1666666666667</ele><time>2026-04-19T12:23:08Z</time></trkpt><trkpt lat="44.69110196363342" lon="9.778660009895196"><ele>860.0</ele><time>2026-04-19T12:23:10Z</time></trkpt><trkpt lat="44.69117062583781" lon="9.778642300172049"><ele>858.2</ele><time>2026-04-19T12:23:11Z</time></trkpt><trkpt lat="44.69124927817586" lon="9.778642269161091"><ele>856.4</ele><time>2026-04-19T12:23:12Z</time></trkpt><trkpt lat="44.69131653297913" lon="9.778674501148876"><ele>854.5999999999999</ele><time>2026-04-19T12:23:13Z</time></trkpt><trkpt lat="44.69139448532926" lon="9.7787244141399"><ele>852.8</ele><time>2026-04-19T12:23:14Z</time></trkpt><trkpt lat="44.6914957504097" lon="9.778778849711953"><ele>851.0</ele><time>2026-04-19T12:23:15Z</time></trkpt><trkpt lat="44.691607045166215" lon="9.7788020169889"><ele>851.0</ele><time>2026-04-19T12:23:16Z</time></trkpt><trkpt lat="44.69168589297008" lon="9.7788275208285"><ele>851.0</ele><time>2026-04-19T12:23:17Z</time></trkpt><trkpt lat="44.69179582336006" lon="9.778857331073924"><ele>851.0</ele><time>2026-04-19T12:23:18Z</time></trkpt><trkpt lat="44.691904017996244" lon="9.778886555693783"><ele>851.0</ele><time>2026-04-19T12:23:19Z</time></trkpt><trkpt lat="44.691980163498194" lon="9.778905919289503"><ele>851.0</ele><time>2026-04-19T12:23:20Z</time></trkpt><trkpt lat="44.69209764521461" lon="9.77899978547705"><ele>851.5999999999999</ele><time>2026-04-19T12:23:22Z</time></trkpt><trkpt lat="44.69218181241262" lon="9.779078000210058"><ele>852.2</ele><time>2026-04-19T12:23:23Z</time></trkpt><trkpt lat="44.692261206730365" lon="9.779126750060678"><ele>852.8000000000001</ele><time>2026-04-19T12:23:26Z</time></trkpt><trkpt lat="44.69235304396271" lon="9.779117370602936"><ele>853.4000000000001</ele><time>2026-04-19T12:23:27Z</time></trkpt><trkpt lat="44.69245367391282" lon="9.779110877346431"><ele>854.0</ele><time>2026-04-19T12:23:28Z</time></trkpt><trkpt lat="44.69256346795085" lon="9.779112158139583"><ele>854.0</ele><time>2026-04-19T12:23:29Z</time></trkpt><trkpt lat="44.69265599206133" lon="9.779134833884955"><ele>854.0000000000001</ele><time>2026-04-19T12:23:30Z</time></trkpt><trkpt lat="44.692742897878404" lon="9.779162357655373"><ele>854.0000000000001</ele><time>2026-04-19T12:23:31Z</time></trkpt><trkpt lat="44.6928259500697" lon="9.779166718977494"><ele>854.0</ele><time>2026-04-19T12:23:32Z</time></trkpt><trkpt lat="44.69291920229417" lon="9.779152814228626"><ele>854.0</ele><time>2026-04-19T12:23:34Z</time></trkpt><trkpt lat="44.69303900652141" lon="9.77916400193887"><ele>853.1666666666667</ele><time>2026-04-19T12:23:36Z</time></trkpt><trkpt lat="44.69312036430746" lon="9.779185250393205"><ele>852.3333333333334</ele><time>2026-04-19T12:23:36.999Z</time></trkpt><trkpt lat="44.69321474544059" lon="9.77920081944585"><ele>851.5</ele><time>2026-04-19T12:23:38.999Z</time></trkpt><trkpt lat="44.69330073148093" lon="9.779124387070883"><ele>850.6666666666667</ele><time>2026-04-19T12:23:41.999Z</time></trkpt><trkpt lat="44.69333487510247" lon="9.779033943844619"><ele>849.8333333333334</ele><time>2026-04-19T12:23:42.999Z</time></trkpt><trkpt lat="44.69338145080256" lon="9.778916123604354"><ele>849.0</ele><time>2026-04-19T12:23:43.999Z</time></trkpt><trkpt lat="44.69341729342442" lon="9.778833051014846"><ele>849.0000000000001</ele><time>2026-04-19T12:23:44.999Z</time></trkpt><trkpt lat="44.693503826679574" lon="9.778747028810313"><ele>849.0</ele><time>2026-04-19T12:23:46.999Z</time></trkpt><trkpt lat="44.69357145316272" lon="9.77873719630557"><ele>849.0</ele><time>2026-04-19T12:23:47.999Z</time></trkpt><trkpt lat="44.693641453389574" lon="9.778736430095528"><ele>849.0</ele><time>2026-04-19T12:23:49.999Z</time></trkpt><trkpt lat="44.693710614038864" lon="9.778742666864245"><ele>849.0</ele><time>2026-04-19T12:23:50.999Z</time></trkpt><trkpt lat="44.6937794542212" lon="9.778751413185855"><ele>849.0000000000001</ele><time>2026-04-19T12:23:52.999Z</time></trkpt><trkpt lat="44.693837594223446" lon="9.778708431267502"><ele>849.0</ele><time>2026-04-19T12:24:09.999Z</time></trkpt><trkpt lat="44.69382804237756" lon="9.778564855033364"><ele>849.6</ele><time>2026-04-19T12:24:28.999Z</time></trkpt><trkpt lat="44.69383809524015" lon="9.778464750644902"><ele>850.2</ele><time>2026-04-19T12:24:30.999Z</time></trkpt><trkpt lat="44.69390656086425" lon="9.778337038702043"><ele>850.8000000000001</ele><time>2026-04-19T12:24:32.999Z</time></trkpt><trkpt lat="44.69396247605336" lon="9.778229195365311"><ele>851.4000000000001</ele><time>2026-04-19T12:24:34.999Z</time></trkpt><trkpt lat="44.694062000807016" lon="9.778163582154946"><ele>852.0</ele><time>2026-04-19T12:24:36.999Z</time></trkpt><trkpt lat="44.694172915874084" lon="9.778130426000162"><ele>852.0</ele><time>2026-04-19T12:24:38.999Z</time></trkpt><trkpt lat="44.69423854660179" lon="9.778142708959722"><ele>852.0</ele><time>2026-04-19T12:24:39.999Z</time></trkpt><trkpt lat="44.694308746305246" lon="9.778156181234923"><ele>852.0</ele><time>2026-04-19T12:24:40.999Z</time></trkpt><trkpt lat="44.69439425898586" lon="9.778161894683585"><ele>852.0</ele><time>2026-04-19T12:24:41.999Z</time></trkpt><trkpt lat="44.69445875691613" lon="9.778135963548236"><ele>852.0</ele><time>2026-04-19T12:24:42.999Z</time></trkpt><trkpt lat="44.694556862610156" lon="9.778046125831338"><ele>852.0</ele><time>2026-04-19T12:24:44.999Z</time></trkpt><trkpt lat="44.694623438345715" lon="9.777968114664676"><ele>851.3333333333334</ele><time>2026-04-19T12:24:45.999Z</time></trkpt><trkpt lat="44.694712563929684" lon="9.777861245678361"><ele>850.6666666666667</ele><time>2026-04-19T12:24:46.999Z</time></trkpt><trkpt lat="44.69476746142034" lon="9.77781161084731"><ele>850.0</ele><time>2026-04-19T12:24:47.999Z</time></trkpt><trkpt lat="44.69482460244656" lon="9.777751934531347"><ele>849.3333333333334</ele><time>2026-04-19T12:24:50.999Z</time></trkpt><trkpt lat="44.694900404755444" lon="9.777668105170461"><ele>848.6666666666667</ele><time>2026-04-19T12:24:53.999Z</time></trkpt><trkpt lat="44.694956748438784" lon="9.777618331090688"><ele>848.0</ele><time>2026-04-19T12:24:54.999Z</time></trkpt><trkpt lat="44.69501139403538" lon="9.777564193369967"><ele>848.5999999999999</ele><time>2026-04-19T12:24:55.999Z</time></trkpt><trkpt lat="44.69510443718967" lon="9.777514743121309"><ele>849.1999999999999</ele><time>2026-04-19T12:24:57.999Z</time></trkpt><trkpt lat="44.6952028529248" lon="9.777509542169156"><ele>849.8</ele><time>2026-04-19T12:24:59.999Z</time></trkpt><trkpt lat="44.695284676577515" lon="9.77759073113456"><ele>850.4</ele><time>2026-04-19T12:25:02Z</time></trkpt><trkpt lat="44.695377314985" lon="9.77766914370195"><ele>851.0</ele><time>2026-04-19T12:25:04Z</time></trkpt><trkpt lat="44.695479452003525" lon="9.77779777413124"><ele>851.0</ele><time>2026-04-19T12:25:06Z</time></trkpt><trkpt lat="44.69552293644411" lon="9.777864514276457"><ele>851.0</ele><time>2026-04-19T12:25:07Z</time></trkpt><trkpt lat="44.695585849178904" lon="9.777951916638699"><ele>851.0</ele><time>2026-04-19T12:25:09Z</time></trkpt><trkpt lat="44.69571717290218" lon="9.778043767665109"><ele>851.0</ele><time>2026-04-19T12:25:11Z</time></trkpt><trkpt lat="44.695767069291946" lon="9.778106416133012"><ele>851.0</ele><time>2026-04-19T12:25:12Z</time></trkpt><trkpt lat="44.69591773271597" lon="9.778197672898704"><ele>851.0000000000001</ele><time>2026-04-19T12:25:13Z</time></trkpt><trkpt lat="44.69598557545116" lon="9.778275323761278"><ele>851.0</ele><time>2026-04-19T12:25:14Z</time></trkpt><trkpt lat="44.696059708965144" lon="9.778366894942879"><ele>851.0</ele><time>2026-04-19T12:25:15Z</time></trkpt><trkpt lat="44.696116315257655" lon="9.778415660098801"><ele>851.0</ele><time>2026-04-19T12:25:16Z</time></trkpt><trkpt lat="44.69617981565924" lon="9.778468561954805"><ele>851.0000000000001</ele><time>2026-04-19T12:25:18Z</time></trkpt><trkpt lat="44.69623603219815" lon="9.778522337096"><ele>851.0</ele><time>2026-04-19T12:25:20Z</time></trkpt><trkpt lat="44.69631509429349" lon="9.778567019236247"><ele>848.1999999999999</ele><time>2026-04-19T12:25:22Z</time></trkpt><trkpt lat="44.696410314679085" lon="9.778622920081876"><ele>845.4</ele><time>2026-04-19T12:25:24Z</time></trkpt><trkpt lat="44.69653356791313" lon="9.778665939746118"><ele>842.6</ele><time>2026-04-19T12:25:26Z</time></trkpt><trkpt lat="44.69660725274377" lon="9.778681111442957"><ele>839.8</ele><time>2026-04-19T12:25:27Z</time></trkpt><trkpt lat="44.69667085781786" lon="9.778690754842764"><ele>837.0</ele><time>2026-04-19T12:25:28Z</time></trkpt><trkpt lat="44.69679053215978" lon="9.778693365686276"><ele>837.0</ele><time>2026-04-19T12:25:30Z</time></trkpt><trkpt lat="44.69685412497365" lon="9.778685218895015"><ele>837.0</ele><time>2026-04-19T12:25:31Z</time></trkpt><trkpt lat="44.696941636536074" lon="9.77866200191194"><ele>837.0</ele><time>2026-04-19T12:25:34Z</time></trkpt><trkpt lat="44.69704485429344" lon="9.778646080791775"><ele>837.0</ele><time>2026-04-19T12:25:36Z</time></trkpt><trkpt lat="44.697114494280356" lon="9.778633399862443"><ele>837.0</ele><time>2026-04-19T12:25:41.999Z</time></trkpt><trkpt lat="44.69721973661842" lon="9.778578453680616"><ele>837.0</ele><time>2026-04-19T12:25:43.999Z</time></trkpt><trkpt lat="44.697313286161204" lon="9.778568927012024"><ele>837.4000000000001</ele><time>2026-04-19T12:25:44.999Z</time></trkpt><trkpt lat="44.69737679613389" lon="9.778544318892202"><ele>837.8000000000001</ele><time>2026-04-19T12:25:45.999Z</time></trkpt><trkpt lat="44.697471774172975" lon="9.778473766916138"><ele>838.2</ele><time>2026-04-19T12:25:47.999Z</time></trkpt><trkpt lat="44.697578255932804" lon="9.778388946078989"><ele>838.6</ele><time>2026-04-19T12:25:49.999Z</time></trkpt><trkpt lat="44.69762944370395" lon="9.778336714949306"><ele>839.0</ele><time>2026-04-19T12:25:50.999Z</time></trkpt><trkpt lat="44.697720677450114" lon="9.778247444615243"><ele>834.6</ele><time>2026-04-19T12:25:52.999Z</time></trkpt><trkpt lat="44.6978532039455" lon="9.778279673918897"><ele>830.2</ele><time>2026-04-19T12:25:54.999Z</time></trkpt><trkpt lat="44.69792843635453" lon="9.778294725855892"><ele>825.8000000000001</ele><time>2026-04-19T12:25:55.999Z</time></trkpt><trkpt lat="44.69800668394214" lon="9.778283885928714"><ele>821.4000000000001</ele><time>2026-04-19T12:25:56.999Z</time></trkpt><trkpt lat="44.69810523770297" lon="9.778231235441647"><ele>817.0</ele><time>2026-04-19T12:25:58.999Z</time></trkpt><trkpt lat="44.69820468949078" lon="9.778147443676756"><ele>816.9999999999999</ele><time>2026-04-19T12:26:00.999Z</time></trkpt><trkpt lat="44.69826275181361" lon="9.77810884960658"><ele>817.0</ele><time>2026-04-19T12:26:01.999Z</time></trkpt><trkpt lat="44.69836614426625" lon="9.778052225490248"><ele>817.0</ele><time>2026-04-19T12:26:03.999Z</time></trkpt><trkpt lat="44.6984690487972" lon="9.778011228913494"><ele>817.0</ele><time>2026-04-19T12:26:05.999Z</time></trkpt><trkpt lat="44.698528410158495" lon="9.777977723598044"><ele>816.9999999999999</ele><time>2026-04-19T12:26:06.999Z</time></trkpt><trkpt lat="44.69861041041789" lon="9.77798854979964"><ele>817.0</ele><time>2026-04-19T12:26:10.999Z</time></trkpt><trkpt lat="44.69870752720338" lon="9.778018083018376"><ele>814.9999999999999</ele><time>2026-04-19T12:26:12.999Z</time></trkpt><trkpt lat="44.69880333729909" lon="9.778035934481181"><ele>813.0</ele><time>2026-04-19T12:26:14.999Z</time></trkpt><trkpt lat="44.69889262352333" lon="9.778115119258938"><ele>811.0</ele><time>2026-04-19T12:26:16.999Z</time></trkpt><trkpt lat="44.69897005824199" lon="9.778101045539275"><ele>809.0</ele><time>2026-04-19T12:26:17.999Z</time></trkpt><trkpt lat="44.69900899599138" lon="9.778174784561546"><ele>806.9999999999999</ele><time>2026-04-19T12:26:20.999Z</time></trkpt><trkpt lat="44.69907981471956" lon="9.778263838608337"><ele>805.0</ele><time>2026-04-19T12:26:23.999Z</time></trkpt><trkpt lat="44.69912674618254" lon="9.778324629647699"><ele>805.0</ele><time>2026-04-19T12:26:27.999Z</time></trkpt><trkpt lat="44.6991704045947" lon="9.778404268848435"><ele>805.0</ele><time>2026-04-19T12:26:36.999Z</time></trkpt><trkpt lat="44.69920278691602" lon="9.778486823531875"><ele>805.0</ele><time>2026-04-19T12:26:38.999Z</time></trkpt><trkpt lat="44.69925390036871" lon="9.778545604799968"><ele>805.0</ele><time>2026-04-19T12:26:43.999Z</time></trkpt><trkpt lat="44.69931640430236" lon="9.778622995839275"><ele>805.0</ele><time>2026-04-19T12:26:45.999Z</time></trkpt><trkpt lat="44.69938364740922" lon="9.778700883606124"><ele>805.0</ele><time>2026-04-19T12:26:49.999Z</time></trkpt><trkpt lat="44.6993770074049" lon="9.778802325216743"><ele>805.0</ele><time>2026-04-19T12:26:52.999Z</time></trkpt><trkpt lat="44.699428185634815" lon="9.779035185013889"><ele>801.9999999999999</ele><time>2026-04-19T12:26:54.999Z</time></trkpt><trkpt lat="44.69947720678295" lon="9.779120402358215"><ele>799.0</ele><time>2026-04-19T12:26:56.999Z</time></trkpt><trkpt lat="44.699541392812165" lon="9.779202747202142"><ele>796.0</ele><time>2026-04-19T12:26:58.999Z</time></trkpt><trkpt lat="44.69958519922684" lon="9.779309149062723"><ele>793.0</ele><time>2026-04-19T12:27:01.999Z</time></trkpt><trkpt lat="44.69958705825935" lon="9.779429041253225"><ele>789.9999999999999</ele><time>2026-04-19T12:27:04.999Z</time></trkpt><trkpt lat="44.69964678581986" lon="9.779525787357118"><ele>787.0</ele><time>2026-04-19T12:27:06.999Z</time></trkpt><trkpt lat="44.69973477811103" lon="9.779558275450881"><ele>786.9999999999999</ele><time>2026-04-19T12:27:09Z</time></trkpt><trkpt lat="44.69981465937224" lon="9.779551829210021"><ele>787.0</ele><time>2026-04-19T12:27:10Z</time></trkpt><trkpt lat="44.699883757016565" lon="9.779567754837087"><ele>787.0</ele><time>2026-04-19T12:27:12Z</time></trkpt><trkpt lat="44.69994891359148" lon="9.779463911481887"><ele>787.0</ele><time>2026-04-19T12:27:17Z</time></trkpt><trkpt lat="44.700004405750114" lon="9.779411721258919"><ele>786.9999999999999</ele><time>2026-04-19T12:27:19Z</time></trkpt><trkpt lat="44.700066088218364" lon="9.779253328800479"><ele>787.0</ele><time>2026-04-19T12:27:21Z</time></trkpt><trkpt lat="44.700102957673835" lon="9.779136562121375"><ele>786.9999999999999</ele><time>2026-04-19T12:27:22Z</time></trkpt><trkpt lat="44.700126955477955" lon="9.779041075791913"><ele>787.0</ele><time>2026-04-19T12:27:23Z</time></trkpt><trkpt lat="44.70012737230562" lon="9.778944912091989"><ele>787.0</ele><time>2026-04-19T12:27:24Z</time></trkpt><trkpt lat="44.70016593045621" lon="9.778871351074674"><ele>787.0</ele><time>2026-04-19T12:27:26Z</time></trkpt><trkpt lat="44.700231497732126" lon="9.778764654610768"><ele>786.9999999999999</ele><time>2026-04-19T12:27:29Z</time></trkpt><trkpt lat="44.700300410432206" lon="9.778707940544065"><ele>787.0</ele><time>2026-04-19T12:27:33Z</time></trkpt><trkpt lat="44.70039311679232" lon="9.778749570360244"><ele>786.4000000000001</ele><time>2026-04-19T12:27:36Z</time></trkpt><trkpt lat="44.70047337903624" lon="9.778914730623978"><ele>785.8000000000001</ele><time>2026-04-19T12:27:38Z</time></trkpt><trkpt lat="44.70054797696299" lon="9.779012386338735"><ele>785.2</ele><time>2026-04-19T12:27:39Z</time></trkpt><trkpt lat="44.700590428149745" lon="9.779095513574822"><ele>784.6</ele><time>2026-04-19T12:27:40Z</time></trkpt><trkpt lat="44.70062538049157" lon="9.779170470483212"><ele>784.0</ele><time>2026-04-19T12:27:41Z</time></trkpt><trkpt lat="44.700699288789004" lon="9.77924318469735"><ele>784.0</ele><time>2026-04-19T12:27:42.999Z</time></trkpt><trkpt lat="44.70081861564875" lon="9.779291415425485"><ele>784.0</ele><time>2026-04-19T12:27:44.999Z</time></trkpt><trkpt lat="44.700894911921395" lon="9.779351005727612"><ele>784.0</ele><time>2026-04-19T12:27:45.999Z</time></trkpt><trkpt lat="44.70098317214105" lon="9.779483972208222"><ele>784.0</ele><time>2026-04-19T12:27:47.999Z</time></trkpt><trkpt lat="44.70104363514115" lon="9.779567630152256"><ele>784.0</ele><time>2026-04-19T12:27:48.999Z</time></trkpt><trkpt lat="44.701093216520476" lon="9.779673159572015"><ele>784.8333333333333</ele><time>2026-04-19T12:27:49.999Z</time></trkpt><trkpt lat="44.70113918950285" lon="9.77978845118427"><ele>785.6666666666666</ele><time>2026-04-19T12:27:50.999Z</time></trkpt><trkpt lat="44.7011858630427" lon="9.779892727805832"><ele>786.5</ele><time>2026-04-19T12:27:51.999Z</time></trkpt><trkpt lat="44.70128951543475" lon="9.779954312885032"><ele>787.3333333333333</ele><time>2026-04-19T12:27:53.999Z</time></trkpt><trkpt lat="44.701357950575265" lon="9.779942207460222"><ele>788.1666666666666</ele><time>2026-04-19T12:27:54.999Z</time></trkpt><trkpt lat="44.701442167395115" lon="9.779958878061482"><ele>789.0</ele><time>2026-04-19T12:27:55.999Z</time></trkpt><trkpt lat="44.70152626638603" lon="9.779949977979033"><ele>789.0</ele><time>2026-04-19T12:27:56.999Z</time></trkpt><trkpt lat="44.70161052763614" lon="9.779926193660113"><ele>789.0</ele><time>2026-04-19T12:27:57.999Z</time></trkpt><trkpt lat="44.70170344658318" lon="9.779908806420293"><ele>789.0</ele><time>2026-04-19T12:27:58.999Z</time></trkpt><trkpt lat="44.70178002620602" lon="9.779906819900408"><ele>789.0</ele><time>2026-04-19T12:27:59.999Z</time></trkpt><trkpt lat="44.701891621371594" lon="9.779899100137547"><ele>789.0</ele><time>2026-04-19T12:28:01.999Z</time></trkpt><trkpt lat="44.70199043563702" lon="9.779908306313365"><ele>788.8000000000001</ele><time>2026-04-19T12:28:03.999Z</time></trkpt><trkpt lat="44.70213299410662" lon="9.779935158149522"><ele>788.6</ele><time>2026-04-19T12:28:05.999Z</time></trkpt><trkpt lat="44.70221498987559" lon="9.779946269842979"><ele>788.4</ele><time>2026-04-19T12:28:06.999Z</time></trkpt><trkpt lat="44.70230058669965" lon="9.779965362770586"><ele>788.2</ele><time>2026-04-19T12:28:08.999Z</time></trkpt><trkpt lat="44.70235002215314" lon="9.77985353943838"><ele>788.0</ele><time>2026-04-19T12:28:12.999Z</time></trkpt><trkpt lat="44.702298801566954" lon="9.77972493648322"><ele>788.0000000000001</ele><time>2026-04-19T12:28:14.999Z</time></trkpt><trkpt lat="44.702267897494636" lon="9.779638003664802"><ele>788.0</ele><time>2026-04-19T12:28:15.999Z</time></trkpt><trkpt lat="44.7022389176454" lon="9.77953911210965"><ele>788.0</ele><time>2026-04-19T12:28:16.999Z</time></trkpt><trkpt lat="44.70222537129765" lon="9.779394489874164"><ele>788.0</ele><time>2026-04-19T12:28:18.999Z</time></trkpt><trkpt lat="44.70221957133737" lon="9.779295460217163"><ele>788.0000000000001</ele><time>2026-04-19T12:28:19.999Z</time></trkpt><trkpt lat="44.702207479266775" lon="9.779198557729261"><ele>788.0</ele><time>2026-04-19T12:28:20.999Z</time></trkpt><trkpt lat="44.7022040305663" lon="9.779096095068931"><ele>789.1666666666667</ele><time>2026-04-19T12:28:21.999Z</time></trkpt><trkpt lat="44.70216666331863" lon="9.778973286500694"><ele>790.3333333333334</ele><time>2026-04-19T12:28:23.999Z</time></trkpt><trkpt lat="44.702065225034524" lon="9.778874362668821"><ele>791.5</ele><time>2026-04-19T12:28:25.999Z</time></trkpt><trkpt lat="44.70201396135351" lon="9.778797861053697"><ele>792.6666666666667</ele><time>2026-04-19T12:28:26.999Z</time></trkpt><trkpt lat="44.7019576514108" lon="9.778718497475827"><ele>793.8333333333334</ele><time>2026-04-19T12:28:27.999Z</time></trkpt><trkpt lat="44.70190460715343" lon="9.77865053363149"><ele>795.0</ele><time>2026-04-19T12:28:28.999Z</time></trkpt><trkpt lat="44.70186024912552" lon="9.778585463837292"><ele>797.1666666666666</ele><time>2026-04-19T12:28:29.999Z</time></trkpt><trkpt lat="44.701826795689904" lon="9.778504782213457"><ele>799.3333333333333</ele><time>2026-04-19T12:28:30.999Z</time></trkpt><trkpt lat="44.701802037861334" lon="9.778391887703894"><ele>801.5</ele><time>2026-04-19T12:28:31.999Z</time></trkpt><trkpt lat="44.70176452405505" lon="9.778255279587393"><ele>803.6666666666666</ele><time>2026-04-19T12:28:32.999Z</time></trkpt><trkpt lat="44.701728823425064" lon="9.778151214446108"><ele>805.8333333333333</ele><time>2026-04-19T12:28:33.999Z</time></trkpt><trkpt lat="44.701688412733034" lon="9.778056087100094"><ele>808.0</ele><time>2026-04-19T12:28:34.999Z</time></trkpt><trkpt lat="44.70164917297234" lon="9.777982588948152"><ele>807.9999999999999</ele><time>2026-04-19T12:28:35.999Z</time></trkpt><trkpt lat="44.70159769429605" lon="9.777896949075918"><ele>808.0</ele><time>2026-04-19T12:28:36.999Z</time></trkpt><trkpt lat="44.70154751014077" lon="9.777807331873708"><ele>808.0</ele><time>2026-04-19T12:28:37.999Z</time></trkpt><trkpt lat="44.70149795753945" lon="9.777731106385174"><ele>808.0</ele><time>2026-04-19T12:28:38.999Z</time></trkpt><trkpt lat="44.70143611412723" lon="9.777562296197"><ele>807.9999999999999</ele><time>2026-04-19T12:28:40.999Z</time></trkpt><trkpt lat="44.701437220140626" lon="9.777458751664154"><ele>808.0</ele><time>2026-04-19T12:28:41.999Z</time></trkpt><trkpt lat="44.701483934120134" lon="9.777379786563298"><ele>811.4</ele><time>2026-04-19T12:28:43.999Z</time></trkpt><trkpt lat="44.701576535357496" lon="9.777334674854123"><ele>814.8</ele><time>2026-04-19T12:28:45.999Z</time></trkpt><trkpt lat="44.701706388691726" lon="9.777312779525252"><ele>818.2</ele><time>2026-04-19T12:28:47.999Z</time></trkpt><trkpt lat="44.701762502279436" lon="9.777270922082748"><ele>821.6</ele><time>2026-04-19T12:28:48.999Z</time></trkpt><trkpt lat="44.701841830272265" lon="9.777199757112593"><ele>825.0</ele><time>2026-04-19T12:28:49.999Z</time></trkpt><trkpt lat="44.70189308514234" lon="9.777145044969503"><ele>824.5</ele><time>2026-04-19T12:28:50.999Z</time></trkpt><trkpt lat="44.70193968653448" lon="9.777049265948373"><ele>824.0</ele><time>2026-04-19T12:28:52.999Z</time></trkpt><trkpt lat="44.7019733979306" lon="9.776894311561446"><ele>823.5</ele><time>2026-04-19T12:28:54.999Z</time></trkpt><trkpt lat="44.7019852946124" lon="9.776774552883433"><ele>823.0</ele><time>2026-04-19T12:28:55.999Z</time></trkpt><trkpt lat="44.70198502867046" lon="9.776660758890893"><ele>822.5</ele><time>2026-04-19T12:28:56.999Z</time></trkpt><trkpt lat="44.701969904486845" lon="9.776557913191946"><ele>822.0</ele><time>2026-04-19T12:28:57.999Z</time></trkpt><trkpt lat="44.70194078295438" lon="9.776436849608823"><ele>825.4000000000001</ele><time>2026-04-19T12:28:58.999Z</time></trkpt><trkpt lat="44.70189896810764" lon="9.776307332679899"><ele>828.8000000000001</ele><time>2026-04-19T12:28:59.999Z</time></trkpt><trkpt lat="44.70187432612061" lon="9.776209588986575"><ele>832.2</ele><time>2026-04-19T12:29:00.999Z</time></trkpt><trkpt lat="44.701843538501166" lon="9.776114076585987"><ele>835.6</ele><time>2026-04-19T12:29:01.999Z</time></trkpt><trkpt lat="44.701803619754486" lon="9.77597473048064"><ele>839.0</ele><time>2026-04-19T12:29:02.999Z</time></trkpt><trkpt lat="44.701768767819836" lon="9.77584671504278"><ele>840.2857142857142</ele><time>2026-04-19T12:29:03.999Z</time></trkpt><trkpt lat="44.70175415561646" lon="9.775752543094224"><ele>841.5714285714287</ele><time>2026-04-19T12:29:04.999Z</time></trkpt><trkpt lat="44.701736232618266" lon="9.775667099663737"><ele>842.8571428571429</ele><time>2026-04-19T12:29:05.999Z</time></trkpt><trkpt lat="44.701733661430964" lon="9.775557914921178"><ele>844.1428571428571</ele><time>2026-04-19T12:29:06.999Z</time></trkpt><trkpt lat="44.70173104209651" lon="9.775443872922542"><ele>845.4285714285713</ele><time>2026-04-19T12:29:07.999Z</time></trkpt><trkpt lat="44.70173193493967" lon="9.775339582683428"><ele>846.7142857142858</ele><time>2026-04-19T12:29:08.999Z</time></trkpt><trkpt lat="44.701733779500834" lon="9.775247318502126"><ele>848.0</ele><time>2026-04-19T12:29:09.999Z</time></trkpt><trkpt lat="44.70174330718273" lon="9.775130976905759"><ele>850.0</ele><time>2026-04-19T12:29:11.999Z</time></trkpt><trkpt lat="44.70176890721376" lon="9.774979207638351"><ele>852.0</ele><time>2026-04-19T12:29:34Z</time></trkpt><trkpt lat="44.70178389298351" lon="9.774871555838097"><ele>854.0</ele><time>2026-04-19T12:29:35Z</time></trkpt><trkpt lat="44.70177879499087" lon="9.774757293981237"><ele>856.0</ele><time>2026-04-19T12:29:36Z</time></trkpt><trkpt lat="44.701767191911614" lon="9.774611039248331"><ele>858.0</ele><time>2026-04-19T12:29:38Z</time></trkpt><trkpt lat="44.70174312207206" lon="9.774509461695802"><ele>858.0</ele><time>2026-04-19T12:29:39Z</time></trkpt><trkpt lat="44.70172648117674" lon="9.774416379294355"><ele>858.0</ele><time>2026-04-19T12:29:40Z</time></trkpt><trkpt lat="44.7017273567303" lon="9.774297695399031"><ele>858.0</ele><time>2026-04-19T12:29:43Z</time></trkpt><trkpt lat="44.701799562425016" lon="9.774194587109442"><ele>858.0</ele><time>2026-04-19T12:29:44.999Z</time></trkpt><trkpt lat="44.70187715651863" lon="9.77416279452882"><ele>858.0</ele><time>2026-04-19T12:29:45.999Z</time></trkpt><trkpt lat="44.70196651954727" lon="9.774137729375132"><ele>858.0</ele><time>2026-04-19T12:29:46.999Z</time></trkpt><trkpt lat="44.702042883029506" lon="9.774103380102636"><ele>858.5714285714286</ele><time>2026-04-19T12:29:47.999Z</time></trkpt><trkpt lat="44.70210240296422" lon="9.774073867380208"><ele>859.1428571428571</ele><time>2026-04-19T12:29:48.999Z</time></trkpt><trkpt lat="44.70216811572779" lon="9.774058699021579"><ele>859.7142857142858</ele><time>2026-04-19T12:29:49.999Z</time></trkpt><trkpt lat="44.70224987229426" lon="9.774052927634783"><ele>860.2857142857142</ele><time>2026-04-19T12:29:50.999Z</time></trkpt><trkpt lat="44.70232413613623" lon="9.774062132725348"><ele>860.8571428571428</ele><time>2026-04-19T12:29:51.999Z</time></trkpt><trkpt lat="44.70239711996127" lon="9.77407185483564"><ele>861.4285714285714</ele><time>2026-04-19T12:29:52.999Z</time></trkpt><trkpt lat="44.70246593364424" lon="9.774115133552773"><ele>862.0</ele><time>2026-04-19T12:29:53.999Z</time></trkpt><trkpt lat="44.70255463233924" lon="9.774233144712962"><ele>862.0</ele><time>2026-04-19T12:29:55.999Z</time></trkpt><trkpt lat="44.70266749045388" lon="9.774291579339948"><ele>862.0</ele><time>2026-04-19T12:29:57.999Z</time></trkpt><trkpt lat="44.70274287897721" lon="9.774242428504271"><ele>862.0</ele><time>2026-04-19T12:29:59.999Z</time></trkpt><trkpt lat="44.702793168775436" lon="9.774156777879975"><ele>862.0</ele><time>2026-04-19T12:30:00.999Z</time></trkpt><trkpt lat="44.70283669790968" lon="9.774063427626944"><ele>862.0</ele><time>2026-04-19T12:30:01.999Z</time></trkpt><trkpt lat="44.7028848352894" lon="9.773863177976676"><ele>861.0</ele><time>2026-04-19T12:30:03.999Z</time></trkpt><trkpt lat="44.70289723390429" lon="9.77373188848548"><ele>860.0</ele><time>2026-04-19T12:30:04.999Z</time></trkpt><trkpt lat="44.702925014758655" lon="9.77359100781354"><ele>859.0</ele><time>2026-04-19T12:30:06.999Z</time></trkpt><trkpt lat="44.70300973471438" lon="9.773463595387692"><ele>858.0</ele><time>2026-04-19T12:30:08.999Z</time></trkpt><trkpt lat="44.70312504902995" lon="9.77340715613867"><ele>857.0</ele><time>2026-04-19T12:30:10.999Z</time></trkpt><trkpt lat="44.70319000685621" lon="9.773369138831084"><ele>857.0</ele><time>2026-04-19T12:30:11.999Z</time></trkpt><trkpt lat="44.7032659309603" lon="9.773311199272316"><ele>857.0</ele><time>2026-04-19T12:30:12.999Z</time></trkpt><trkpt lat="44.7033300900285" lon="9.773232767807736"><ele>857.0</ele><time>2026-04-19T12:30:13.999Z</time></trkpt><trkpt lat="44.70339107594576" lon="9.77313069235445"><ele>857.0</ele><time>2026-04-19T12:30:14.999Z</time></trkpt><trkpt lat="44.70343208152629" lon="9.773000391008134"><ele>857.0</ele><time>2026-04-19T12:30:15.999Z</time></trkpt><trkpt lat="44.70346741068994" lon="9.772879846603155"><ele>857.0</ele><time>2026-04-19T12:30:16.999Z</time></trkpt><trkpt lat="44.70350069349686" lon="9.772786316012443"><ele>857.0</ele><time>2026-04-19T12:30:17.999Z</time></trkpt><trkpt lat="44.703540764640294" lon="9.772710725578774"><ele>857.0</ele><time>2026-04-19T12:30:18.999Z</time></trkpt><trkpt lat="44.70366336227156" lon="9.772648184931507"><ele>857.0</ele><time>2026-04-19T12:30:20.999Z</time></trkpt><trkpt lat="44.70375118277984" lon="9.772640061073536"><ele>857.0</ele><time>2026-04-19T12:30:21.999Z</time></trkpt><trkpt lat="44.70385314153718" lon="9.772643249230294"><ele>858.6</ele><time>2026-04-19T12:30:22.999Z</time></trkpt><trkpt lat="44.703963146574" lon="9.77263057681262"><ele>860.2</ele><time>2026-04-19T12:30:23.999Z</time></trkpt><trkpt lat="44.704063255472136" lon="9.772604196667697"><ele>861.8</ele><time>2026-04-19T12:30:24.999Z</time></trkpt><trkpt lat="44.70416072092204" lon="9.772569993731558"><ele>863.4</ele><time>2026-04-19T12:30:25.999Z</time></trkpt><trkpt lat="44.70425129761225" lon="9.772572054810077"><ele>865.0</ele><time>2026-04-19T12:30:26.999Z</time></trkpt><trkpt lat="44.70431995240312" lon="9.772574905198601"><ele>864.9999999999999</ele><time>2026-04-19T12:30:27.999Z</time></trkpt><trkpt lat="44.70437914745236" lon="9.772607887186199"><ele>865.0</ele><time>2026-04-19T12:30:28.999Z</time></trkpt><trkpt lat="44.70444144752764" lon="9.772646513853996"><ele>865.0</ele><time>2026-04-19T12:30:29.999Z</time></trkpt><trkpt lat="44.70453726653604" lon="9.772691189388865"><ele>865.0</ele><time>2026-04-19T12:30:30.999Z</time></trkpt><trkpt lat="44.70462353863895" lon="9.772687597237093"><ele>864.9999999999999</ele><time>2026-04-19T12:30:31.999Z</time></trkpt><trkpt lat="44.70469409163708" lon="9.77269081765486"><ele>865.0</ele><time>2026-04-19T12:30:32.999Z</time></trkpt><trkpt lat="44.70481576221927" lon="9.772730315539803"><ele>861.6</ele><time>2026-04-19T12:30:34.999Z</time></trkpt><trkpt lat="44.70488504359725" lon="9.772786211065648"><ele>858.2</ele><time>2026-04-19T12:30:35.999Z</time></trkpt><trkpt lat="44.70494907543529" lon="9.772832217300127"><ele>854.8</ele><time>2026-04-19T12:30:36.999Z</time></trkpt><trkpt lat="44.705055826925" lon="9.7729212673597"><ele>851.4</ele><time>2026-04-19T12:30:38.999Z</time></trkpt><trkpt lat="44.70511971075347" lon="9.772951550883592"><ele>848.0</ele><time>2026-04-19T12:30:39.999Z</time></trkpt><trkpt lat="44.705249719663634" lon="9.77295390586658"><ele>846.6666666666667</ele><time>2026-04-19T12:30:41.999Z</time></trkpt><trkpt lat="44.705359132038495" lon="9.772936172831423"><ele>845.3333333333334</ele><time>2026-04-19T12:30:43.999Z</time></trkpt><trkpt lat="44.70542870181623" lon="9.772904817261933"><ele>844.0</ele><time>2026-04-19T12:30:44.999Z</time></trkpt><trkpt lat="44.70549789300411" lon="9.77283982989863"><ele>842.6666666666667</ele><time>2026-04-19T12:30:45.999Z</time></trkpt><trkpt lat="44.705546148221266" lon="9.772779461965145"><ele>841.3333333333334</ele><time>2026-04-19T12:30:46.999Z</time></trkpt><trkpt lat="44.70560494814563" lon="9.77273752370359"><ele>840.0</ele><time>2026-04-19T12:30:47.999Z</time></trkpt><trkpt lat="44.705677097533396" lon="9.772696834194951"><ele>839.6666666666666</ele><time>2026-04-19T12:30:48.999Z</time></trkpt><trkpt lat="44.70576330610848" lon="9.77266860926386"><ele>839.3333333333333</ele><time>2026-04-19T12:30:49.999Z</time></trkpt><trkpt lat="44.70585128311191" lon="9.772658928590644"><ele>839.0</ele><time>2026-04-19T12:30:50.999Z</time></trkpt><trkpt lat="44.705923508693445" lon="9.77265478961198"><ele>838.6666666666666</ele><time>2026-04-19T12:30:51.999Z</time></trkpt><trkpt lat="44.70601696142016" lon="9.772683363937743"><ele>838.3333333333333</ele><time>2026-04-19T12:30:52.999Z</time></trkpt><trkpt lat="44.70609783518155" lon="9.772705843667215"><ele>838.0</ele><time>2026-04-19T12:30:53.999Z</time></trkpt><trkpt lat="44.70616520471371" lon="9.772708326740014"><ele>837.9999999999999</ele><time>2026-04-19T12:30:54.999Z</time></trkpt><trkpt lat="44.70623097416117" lon="9.772709772426195"><ele>838.0</ele><time>2026-04-19T12:30:55.999Z</time></trkpt><trkpt lat="44.70630235677191" lon="9.772691376283769"><ele>838.0</ele><time>2026-04-19T12:30:56.999Z</time></trkpt><trkpt lat="44.706429947418755" lon="9.77267787185503"><ele>838.0</ele><time>2026-04-19T12:30:58.999Z</time></trkpt><trkpt lat="44.706499613560474" lon="9.772684571473697"><ele>837.9999999999999</ele><time>2026-04-19T12:30:59.999Z</time></trkpt><trkpt lat="44.70656634790616" lon="9.772694879576894"><ele>838.0</ele><time>2026-04-19T12:31:00.999Z</time></trkpt><trkpt lat="44.706630766708244" lon="9.772681243676956"><ele>839.4</ele><time>2026-04-19T12:31:01.999Z</time></trkpt><trkpt lat="44.70671506673527" lon="9.772645225864727"><ele>840.8</ele><time>2026-04-19T12:31:02.999Z</time></trkpt><trkpt lat="44.706808939321405" lon="9.772564261702906"><ele>842.2</ele><time>2026-04-19T12:31:03.999Z</time></trkpt><trkpt lat="44.70687723168462" lon="9.772499594277217"><ele>843.6</ele><time>2026-04-19T12:31:04.999Z</time></trkpt><trkpt lat="44.706990786406436" lon="9.772425521272057"><ele>845.0</ele><time>2026-04-19T12:31:06.999Z</time></trkpt><trkpt lat="44.707101506193176" lon="9.77238268372764"><ele>845.0</ele><time>2026-04-19T12:31:08.999Z</time></trkpt><trkpt lat="44.70719569600466" lon="9.772390173163947"><ele>845.0</ele><time>2026-04-19T12:31:10.999Z</time></trkpt><trkpt lat="44.707276365701155" lon="9.772409875196226"><ele>845.0</ele><time>2026-04-19T12:31:12.999Z</time></trkpt><trkpt lat="44.70737273443145" lon="9.772451589627186"><ele>845.0</ele><time>2026-04-19T12:31:14.999Z</time></trkpt><trkpt lat="44.707461340466836" lon="9.772546226927371"><ele>845.0</ele><time>2026-04-19T12:31:17.999Z</time></trkpt><trkpt lat="44.7076254899172" lon="9.77265722966589"><ele>845.8</ele><time>2026-04-19T12:31:20Z</time></trkpt><trkpt lat="44.70769472493831" lon="9.772718964533738"><ele>846.6</ele><time>2026-04-19T12:31:21Z</time></trkpt><trkpt lat="44.70778880749604" lon="9.772787284371278"><ele>847.4000000000001</ele><time>2026-04-19T12:31:22Z</time></trkpt><trkpt lat="44.70788165324154" lon="9.77286038935594"><ele>848.2</ele><time>2026-04-19T12:31:23Z</time></trkpt><trkpt lat="44.707961381628046" lon="9.772926869063669"><ele>849.0</ele><time>2026-04-19T12:31:24Z</time></trkpt><trkpt lat="44.70801963092362" lon="9.772972094996325"><ele>849.0</ele><time>2026-04-19T12:31:25Z</time></trkpt><trkpt lat="44.70806912232161" lon="9.773101381657403"><ele>849.0</ele><time>2026-04-19T12:31:27Z</time></trkpt><trkpt lat="44.70809271066698" lon="9.773272445624196"><ele>849.0</ele><time>2026-04-19T12:31:29Z</time></trkpt><trkpt lat="44.708115242730095" lon="9.77337577509966"><ele>849.0</ele><time>2026-04-19T12:31:30Z</time></trkpt><trkpt lat="44.70813696139587" lon="9.773510770087269"><ele>849.0</ele><time>2026-04-19T12:31:32Z</time></trkpt><trkpt lat="44.7081512635694" lon="9.773619987462698"><ele>848.6666666666666</ele><time>2026-04-19T12:31:35Z</time></trkpt><trkpt lat="44.70816132725268" lon="9.773749245846743"><ele>848.3333333333333</ele><time>2026-04-19T12:31:37Z</time></trkpt><trkpt lat="44.708154992709446" lon="9.773851154576235"><ele>848.0</ele><time>2026-04-19T12:31:38Z</time></trkpt><trkpt lat="44.708145696031195" lon="9.773941009328249"><ele>847.6666666666666</ele><time>2026-04-19T12:31:39Z</time></trkpt><trkpt lat="44.708151978490754" lon="9.774047527599047"><ele>847.3333333333333</ele><time>2026-04-19T12:31:40Z</time></trkpt><trkpt lat="44.70817920041806" lon="9.774152088140204"><ele>847.0</ele><time>2026-04-19T12:31:41Z</time></trkpt><trkpt lat="44.70819749221772" lon="9.77425405985189"><ele>846.9999999999999</ele><time>2026-04-19T12:31:42Z</time></trkpt><trkpt lat="44.708201479210615" lon="9.774343131379624"><ele>847.0</ele><time>2026-04-19T12:31:43Z</time></trkpt><trkpt lat="44.70821332850022" lon="9.774453205296444"><ele>847.0</ele><time>2026-04-19T12:31:44Z</time></trkpt><trkpt lat="44.70824030807156" lon="9.774549864748169"><ele>847.0</ele><time>2026-04-19T12:31:45Z</time></trkpt><trkpt lat="44.708291748402644" lon="9.774648892226894"><ele>846.9999999999999</ele><time>2026-04-19T12:31:46Z</time></trkpt><trkpt lat="44.70836806372053" lon="9.774751541960443"><ele>847.0</ele><time>2026-04-19T12:31:47Z</time></trkpt><trkpt lat="44.70844085866127" lon="9.774807463474023"><ele>846.8</ele><time>2026-04-19T12:31:48Z</time></trkpt><trkpt lat="44.7085095093177" lon="9.774864588372184"><ele>846.6</ele><time>2026-04-19T12:31:49Z</time></trkpt><trkpt lat="44.708568392729205" lon="9.774902596365513"><ele>846.4</ele><time>2026-04-19T12:31:49.999Z</time></trkpt><trkpt lat="44.70869551295126" lon="9.77504217868208"><ele>846.1999999999999</ele><time>2026-04-19T12:31:51.999Z</time></trkpt><trkpt lat="44.708779387633506" lon="9.775146714593195"><ele>846.0</ele><time>2026-04-19T12:31:52.999Z</time></trkpt><trkpt lat="44.70883737890719" lon="9.775210639890675"><ele>847.5999999999999</ele><time>2026-04-19T12:31:53.999Z</time></trkpt><trkpt lat="44.70891162571157" lon="9.775244965311815"><ele>849.2</ele><time>2026-04-19T12:31:54.999Z</time></trkpt><trkpt lat="44.70903347471955" lon="9.775249542246929"><ele>850.8000000000001</ele><time>2026-04-19T12:31:56.999Z</time></trkpt><trkpt lat="44.70910360402439" lon="9.775223370331437"><ele>852.4000000000001</ele><time>2026-04-19T12:31:57.999Z</time></trkpt><trkpt lat="44.709190826777665" lon="9.775206384234167"><ele>854.0</ele><time>2026-04-19T12:31:59.999Z</time></trkpt><trkpt lat="44.70928032350314" lon="9.775232736983488"><ele>854.0000000000001</ele><time>2026-04-19T12:32:01.999Z</time></trkpt><trkpt lat="44.70934699372562" lon="9.775266388869445"><ele>854.0</ele><time>2026-04-19T12:32:02.999Z</time></trkpt><trkpt lat="44.70941819662008" lon="9.775324915008147"><ele>854.0</ele><time>2026-04-19T12:32:04.999Z</time></trkpt><trkpt lat="44.70946958525901" lon="9.775406994765135"><ele>854.0</ele><time>2026-04-19T12:32:06.999Z</time></trkpt><trkpt lat="44.70951620703112" lon="9.775486755053091"><ele>854.0000000000001</ele><time>2026-04-19T12:32:07.999Z</time></trkpt><trkpt lat="44.70957267524255" lon="9.775591468332479"><ele>854.0</ele><time>2026-04-19T12:32:08.999Z</time></trkpt><trkpt lat="44.7096293234844" lon="9.775690395121993"><ele>853.6666666666667</ele><time>2026-04-19T12:32:09.999Z</time></trkpt><trkpt lat="44.709698698460116" lon="9.775767339520637"><ele>853.3333333333334</ele><time>2026-04-19T12:32:10.999Z</time></trkpt><trkpt lat="44.7097686612498" lon="9.775809443063968"><ele>853.0</ele><time>2026-04-19T12:32:12.999Z</time></trkpt><trkpt lat="44.709815149202484" lon="9.775926028654412"><ele>852.6666666666667</ele><time>2026-04-19T12:32:14.999Z</time></trkpt><trkpt lat="44.70983603031267" lon="9.776021194346411"><ele>852.3333333333334</ele><time>2026-04-19T12:32:15.999Z</time></trkpt><trkpt lat="44.709870618732964" lon="9.77610805292068"><ele>852.0</ele><time>2026-04-19T12:32:16.999Z</time></trkpt><trkpt lat="44.70991744382819" lon="9.776211858669056"><ele>852.0</ele><time>2026-04-19T12:32:17.999Z</time></trkpt><trkpt lat="44.709961451912406" lon="9.776313151723501"><ele>852.0</ele><time>2026-04-19T12:32:18.999Z</time></trkpt><trkpt lat="44.71000475454407" lon="9.776387850988185"><ele>852.0</ele><time>2026-04-19T12:32:19.999Z</time></trkpt><trkpt lat="44.710100626518106" lon="9.776492047041039"><ele>852.0</ele><time>2026-04-19T12:32:21.999Z</time></trkpt><trkpt lat="44.71016122131182" lon="9.7765369662081"><ele>852.0</ele><time>2026-04-19T12:32:22.999Z</time></trkpt><trkpt lat="44.710269023103535" lon="9.776627110896758"><ele>853.0</ele><time>2026-04-19T12:32:24.999Z</time></trkpt><trkpt lat="44.710344190747016" lon="9.776657351719342"><ele>854.0</ele><time>2026-04-19T12:32:25.999Z</time></trkpt><trkpt lat="44.71042957685928" lon="9.776681144721513"><ele>855.0</ele><time>2026-04-19T12:32:26.999Z</time></trkpt><trkpt lat="44.71052741310172" lon="9.776712697382537"><ele>856.0</ele><time>2026-04-19T12:32:27.999Z</time></trkpt><trkpt lat="44.71061014832134" lon="9.776731785794206"><ele>857.0</ele><time>2026-04-19T12:32:28.999Z</time></trkpt><trkpt lat="44.71068695626987" lon="9.776744249905633"><ele>858.0</ele><time>2026-04-19T12:32:29.999Z</time></trkpt><trkpt lat="44.710810853942434" lon="9.776749331606041"><ele>858.0</ele><time>2026-04-19T12:32:31.999Z</time></trkpt><trkpt lat="44.71090292544079" lon="9.776701267872898"><ele>858.0</ele><time>2026-04-19T12:32:33.999Z</time></trkpt><trkpt lat="44.71100576767932" lon="9.77665536600296"><ele>858.0</ele><time>2026-04-19T12:32:35.999Z</time></trkpt><trkpt lat="44.71106619265666" lon="9.776771670499205"><ele>858.0</ele><time>2026-04-19T12:32:39.999Z</time></trkpt><trkpt lat="44.711108362386376" lon="9.776936418050067"><ele>858.0</ele><time>2026-04-19T12:32:41.999Z</time></trkpt><trkpt lat="44.711168672620644" lon="9.777079901196743"><ele>856.2</ele><time>2026-04-19T12:32:43.999Z</time></trkpt><trkpt lat="44.711236937337326" lon="9.777201271083477"><ele>854.4</ele><time>2026-04-19T12:32:45.999Z</time></trkpt><trkpt lat="44.71132053521401" lon="9.777291372031153"><ele>852.6</ele><time>2026-04-19T12:32:47.999Z</time></trkpt><trkpt lat="44.7113658141507" lon="9.777355809913178"><ele>850.8000000000001</ele><time>2026-04-19T12:32:48.999Z</time></trkpt><trkpt lat="44.71143789653861" lon="9.777480976829402"><ele>849.0</ele><time>2026-04-19T12:32:50.999Z</time></trkpt><trkpt lat="44.711478082830176" lon="9.777640695620212"><ele>847.0</ele><time>2026-04-19T12:32:52.999Z</time></trkpt><trkpt lat="44.71150580655481" lon="9.777722889008084"><ele>845.0</ele><time>2026-04-19T12:32:53.999Z</time></trkpt><trkpt lat="44.71160912782507" lon="9.777808689537771"><ele>843.0</ele><time>2026-04-19T12:32:55.999Z</time></trkpt><trkpt lat="44.71167645752985" lon="9.777820827463417"><ele>841.0</ele><time>2026-04-19T12:32:56.999Z</time></trkpt><trkpt lat="44.71175688464925" lon="9.777928247677554"><ele>839.0</ele><time>2026-04-19T12:32:58.999Z</time></trkpt><trkpt lat="44.71178666430996" lon="9.778042687159612"><ele>839.0</ele><time>2026-04-19T12:32:59.999Z</time></trkpt><trkpt lat="44.71182004122255" lon="9.778142204963272"><ele>839.0</ele><time>2026-04-19T12:33:00.999Z</time></trkpt><trkpt lat="44.71186244946729" lon="9.778238189314816"><ele>839.0</ele><time>2026-04-19T12:33:01.999Z</time></trkpt><trkpt lat="44.711905139750684" lon="9.7783405520602"><ele>839.0</ele><time>2026-04-19T12:33:02.999Z</time></trkpt><trkpt lat="44.71196674123572" lon="9.778477924519978"><ele>839.0</ele><time>2026-04-19T12:33:04.999Z</time></trkpt><trkpt lat="44.712057402530355" lon="9.778583295979312"><ele>837.0000000000001</ele><time>2026-04-19T12:33:06.999Z</time></trkpt><trkpt lat="44.71215416627307" lon="9.77862832462383"><ele>835.0</ele><time>2026-04-19T12:33:08.999Z</time></trkpt><trkpt lat="44.712259652105956" lon="9.778667109920335"><ele>833.0</ele><time>2026-04-19T12:33:10.999Z</time></trkpt><trkpt lat="44.71234822499114" lon="9.778708102516399"><ele>831.0</ele><time>2026-04-19T12:33:11.999Z</time></trkpt><trkpt lat="44.71242312130678" lon="9.778721052308097"><ele>829.0000000000001</ele><time>2026-04-19T12:33:12.999Z</time></trkpt><trkpt lat="44.71249065681056" lon="9.778729307719594"><ele>827.0</ele><time>2026-04-19T12:33:13.999Z</time></trkpt><trkpt lat="44.71255273136633" lon="9.778773464563058"><ele>827.0</ele><time>2026-04-19T12:33:14.999Z</time></trkpt><trkpt lat="44.71264007089605" lon="9.77886622076183"><ele>827.0</ele><time>2026-04-19T12:33:16.999Z</time></trkpt><trkpt lat="44.71273073834346" lon="9.77894873930804"><ele>827.0</ele><time>2026-04-19T12:33:18.999Z</time></trkpt><trkpt lat="44.712760634195" lon="9.779132018402514"><ele>827.0</ele><time>2026-04-19T12:33:20.999Z</time></trkpt><trkpt lat="44.71276675022988" lon="9.779234536181074"><ele>827.0</ele><time>2026-04-19T12:33:21.999Z</time></trkpt><trkpt lat="44.71278303090231" lon="9.779340906282021"><ele>824.6</ele><time>2026-04-19T12:33:22.999Z</time></trkpt><trkpt lat="44.71281412482279" lon="9.779497472948183"><ele>822.2</ele><time>2026-04-19T12:33:25Z</time></trkpt><trkpt lat="44.712853168842045" lon="9.779642578112298"><ele>819.8</ele><time>2026-04-19T12:33:27Z</time></trkpt><trkpt lat="44.71290431149892" lon="9.77975562597894"><ele>817.4</ele><time>2026-04-19T12:33:29Z</time></trkpt><trkpt lat="44.71295368073908" lon="9.779838888381036"><ele>815.0</ele><time>2026-04-19T12:33:30Z</time></trkpt><trkpt lat="44.71301440076203" lon="9.779930673925916"><ele>815.0000000000001</ele><time>2026-04-19T12:33:31Z</time></trkpt><trkpt lat="44.713073650961825" lon="9.780033458222794"><ele>815.0</ele><time>2026-04-19T12:33:32Z</time></trkpt><trkpt lat="44.713121875041104" lon="9.78013159430373"><ele>815.0</ele><time>2026-04-19T12:33:33Z</time></trkpt><trkpt lat="44.71316165918628" lon="9.780236431063729"><ele>815.0</ele><time>2026-04-19T12:33:34Z</time></trkpt><trkpt lat="44.71319006248202" lon="9.780344040016566"><ele>815.0000000000001</ele><time>2026-04-19T12:33:35Z</time></trkpt><trkpt lat="44.713203026624605" lon="9.780456239557314"><ele>815.0</ele><time>2026-04-19T12:33:36Z</time></trkpt><trkpt lat="44.71320645780239" lon="9.780568028495967"><ele>814.5000000000001</ele><time>2026-04-19T12:33:37Z</time></trkpt><trkpt lat="44.71321593368268" lon="9.780659788785448"><ele>814.0</ele><time>2026-04-19T12:33:38Z</time></trkpt><trkpt lat="44.71327246585655" lon="9.780824772803243"><ele>813.5</ele><time>2026-04-19T12:33:40Z</time></trkpt><trkpt lat="44.71333379233494" lon="9.780910991251353"><ele>813.0</ele><time>2026-04-19T12:33:41Z</time></trkpt><trkpt lat="44.71340265531208" lon="9.780961281622082"><ele>812.5000000000001</ele><time>2026-04-19T12:33:42Z</time></trkpt><trkpt lat="44.713474036636335" lon="9.780998695325215"><ele>812.0</ele><time>2026-04-19T12:33:43Z</time></trkpt><trkpt lat="44.71355598631101" lon="9.781037188203225"><ele>812.1666666666667</ele><time>2026-04-19T12:33:44Z</time></trkpt><trkpt lat="44.71364375566936" lon="9.781082801084109"><ele>812.3333333333334</ele><time>2026-04-19T12:33:45Z</time></trkpt><trkpt lat="44.7137185296857" lon="9.781132062227721"><ele>812.5</ele><time>2026-04-19T12:33:46Z</time></trkpt><trkpt lat="44.713782905412465" lon="9.781195869780882"><ele>812.6666666666667</ele><time>2026-04-19T12:33:47Z</time></trkpt><trkpt lat="44.71384242665964" lon="9.781288622371298"><ele>812.8333333333334</ele><time>2026-04-19T12:33:48Z</time></trkpt><trkpt lat="44.71389031156352" lon="9.781414252553501"><ele>813.0</ele><time>2026-04-19T12:33:49Z</time></trkpt><trkpt lat="44.713912678706535" lon="9.78156201676826"><ele>813.0</ele><time>2026-04-19T12:33:50Z</time></trkpt><trkpt lat="44.713919540364834" lon="9.781711733128693"><ele>813.0</ele><time>2026-04-19T12:33:51Z</time></trkpt><trkpt lat="44.71392399684985" lon="9.781859954041701"><ele>813.0</ele><time>2026-04-19T12:33:52Z</time></trkpt><trkpt lat="44.71395292954249" lon="9.78198557249499"><ele>813.0</ele><time>2026-04-19T12:33:53Z</time></trkpt><trkpt lat="44.71401346074966" lon="9.782077890325827"><ele>813.0</ele><time>2026-04-19T12:33:54Z</time></trkpt><trkpt lat="44.71408987312253" lon="9.782137491611627"><ele>811.8</ele><time>2026-04-19T12:33:55Z</time></trkpt><trkpt lat="44.714175242104986" lon="9.782175649127687"><ele>810.5999999999999</ele><time>2026-04-19T12:33:56Z</time></trkpt><trkpt lat="44.714269215431045" lon="9.782228944417852"><ele>809.4000000000001</ele><time>2026-04-19T12:33:56.999Z</time></trkpt><trkpt lat="44.71435831281556" lon="9.782307729142364"><ele>808.2</ele><time>2026-04-19T12:33:57.999Z</time></trkpt><trkpt lat="44.714426550762624" lon="9.782425682416008"><ele>807.0</ele><time>2026-04-19T12:33:58.999Z</time></trkpt><trkpt lat="44.714471502120375" lon="9.782541410344562"><ele>809.8</ele><time>2026-04-19T12:33:59.999Z</time></trkpt><trkpt lat="44.714511145618246" lon="9.78266206048091"><ele>812.6</ele><time>2026-04-19T12:34:00.999Z</time></trkpt><trkpt lat="44.71455046092681" lon="9.782799311797817"><ele>815.4</ele><time>2026-04-19T12:34:01.999Z</time></trkpt><trkpt lat="44.7145803367831" lon="9.782946753239296"><ele>818.1999999999999</ele><time>2026-04-19T12:34:02.999Z</time></trkpt><trkpt lat="44.71460563830705" lon="9.783100375606478"><ele>821.0</ele><time>2026-04-19T12:34:03.999Z</time></trkpt><trkpt lat="44.714624176893416" lon="9.78326482842727"><ele>821.4</ele><time>2026-04-19T12:34:04.999Z</time></trkpt><trkpt lat="44.71463995472485" lon="9.78343055491243"><ele>821.8</ele><time>2026-04-19T12:34:05.999Z</time></trkpt><trkpt lat="44.71465037033573" lon="9.78358694526223"><ele>822.1999999999999</ele><time>2026-04-19T12:34:06.999Z</time></trkpt><trkpt lat="44.71465999893727" lon="9.783742742395072"><ele>822.5999999999999</ele><time>2026-04-19T12:34:07.999Z</time></trkpt><trkpt lat="44.714666245292605" lon="9.783887776351186"><ele>823.0</ele><time>2026-04-19T12:34:08.999Z</time></trkpt><trkpt lat="44.71466455742214" lon="9.784022919650212"><ele>821.5999999999999</ele><time>2026-04-19T12:34:09.999Z</time></trkpt><trkpt lat="44.71465472479315" lon="9.784160286801402"><ele>820.1999999999999</ele><time>2026-04-19T12:34:10.999Z</time></trkpt><trkpt lat="44.71465286347803" lon="9.784315213621262"><ele>818.8</ele><time>2026-04-19T12:34:11.999Z</time></trkpt><trkpt lat="44.714674308264854" lon="9.784472475662183"><ele>817.4</ele><time>2026-04-19T12:34:12.999Z</time></trkpt><trkpt lat="44.714716297006795" lon="9.784625556640497"><ele>816.0</ele><time>2026-04-19T12:34:13.999Z</time></trkpt><trkpt lat="44.71477087555555" lon="9.78475865855952"><ele>816.5999999999999</ele><time>2026-04-19T12:34:14.999Z</time></trkpt><trkpt lat="44.71482455374894" lon="9.784877527098944"><ele>817.2</ele><time>2026-04-19T12:34:15.999Z</time></trkpt><trkpt lat="44.714871744940766" lon="9.785002886283825"><ele>817.8</ele><time>2026-04-19T12:34:16.999Z</time></trkpt><trkpt lat="44.714898363475385" lon="9.785152064669532"><ele>818.4000000000001</ele><time>2026-04-19T12:34:17.999Z</time></trkpt><trkpt lat="44.71490045980241" lon="9.785303280502838"><ele>819.0</ele><time>2026-04-19T12:34:18.999Z</time></trkpt><trkpt lat="44.71487699086202" lon="9.785461828948602"><ele>819.0</ele><time>2026-04-19T12:34:19.999Z</time></trkpt><trkpt lat="44.71483663619837" lon="9.785595338430598"><ele>819.0</ele><time>2026-04-19T12:34:20.999Z</time></trkpt><trkpt lat="44.714783533486184" lon="9.785726009346506"><ele>819.0</ele><time>2026-04-19T12:34:21.999Z</time></trkpt><trkpt lat="44.714726866441715" lon="9.785838535973914"><ele>819.0</ele><time>2026-04-19T12:34:22.999Z</time></trkpt><trkpt lat="44.71465892902965" lon="9.785935522297853"><ele>819.0</ele><time>2026-04-19T12:34:23.999Z</time></trkpt><trkpt lat="44.714573009361274" lon="9.78600515977821"><ele>821.6666666666666</ele><time>2026-04-19T12:34:24.999Z</time></trkpt><trkpt lat="44.714494510225805" lon="9.78606248271251"><ele>824.3333333333333</ele><time>2026-04-19T12:34:25.999Z</time></trkpt><trkpt lat="44.71443617029609" lon="9.786150967599342"><ele>827.0</ele><time>2026-04-19T12:34:26.999Z</time></trkpt><trkpt lat="44.71441525201196" lon="9.786267923160368"><ele>829.6666666666666</ele><time>2026-04-19T12:34:27.999Z</time></trkpt><trkpt lat="44.71442028650255" lon="9.786389457488688"><ele>832.3333333333333</ele><time>2026-04-19T12:34:28.999Z</time></trkpt><trkpt lat="44.71444087087729" lon="9.786514334983549"><ele>835.0</ele><time>2026-04-19T12:34:29.999Z</time></trkpt><trkpt lat="44.71446077568006" lon="9.786645047940379"><ele>835.0</ele><time>2026-04-19T12:34:30.999Z</time></trkpt><trkpt lat="44.71447983913765" lon="9.786787772691795"><ele>835.0</ele><time>2026-04-19T12:34:31.999Z</time></trkpt><trkpt lat="44.714509430158266" lon="9.78693674722775"><ele>835.0</ele><time>2026-04-19T12:34:32.999Z</time></trkpt><trkpt lat="44.714540762305965" lon="9.787088284909078"><ele>835.0</ele><time>2026-04-19T12:34:33.999Z</time></trkpt><trkpt lat="44.71455531297044" lon="9.787224875454152"><ele>835.0</ele><time>2026-04-19T12:34:34.999Z</time></trkpt><trkpt lat="44.71456449200442" lon="9.787363143891866"><ele>835.8</ele><time>2026-04-19T12:34:35.999Z</time></trkpt><trkpt lat="44.71456659970051" lon="9.78750271974955"><ele>836.6</ele><time>2026-04-19T12:34:36.999Z</time></trkpt><trkpt lat="44.714557765708165" lon="9.787639762684915"><ele>837.4000000000001</ele><time>2026-04-19T12:34:37.999Z</time></trkpt><trkpt lat="44.71453795856378" lon="9.787781980228738"><ele>838.2</ele><time>2026-04-19T12:34:38.999Z</time></trkpt><trkpt lat="44.71450279702829" lon="9.787910591454215"><ele>839.0</ele><time>2026-04-19T12:34:39.999Z</time></trkpt><trkpt lat="44.714456768634925" lon="9.788011815223587"><ele>837.2</ele><time>2026-04-19T12:34:40.999Z</time></trkpt><trkpt lat="44.714427365911824" lon="9.788119688989381"><ele>835.4000000000001</ele><time>2026-04-19T12:34:41.999Z</time></trkpt><trkpt lat="44.71443080372742" lon="9.788246648825403"><ele>833.6</ele><time>2026-04-19T12:34:42.999Z</time></trkpt><trkpt lat="44.71447124818011" lon="9.788357888109061"><ele>831.8</ele><time>2026-04-19T12:34:43.999Z</time></trkpt><trkpt lat="44.714539220255574" lon="9.788458779730556"><ele>830.0</ele><time>2026-04-19T12:34:44.999Z</time></trkpt><trkpt lat="44.71463097817628" lon="9.788541476907305"><ele>827.25</ele><time>2026-04-19T12:34:45.999Z</time></trkpt><trkpt lat="44.71472931198028" lon="9.788614815263834"><ele>824.5</ele><time>2026-04-19T12:34:46.999Z</time></trkpt><trkpt lat="44.714826281020336" lon="9.78870477857079"><ele>821.75</ele><time>2026-04-19T12:34:47.999Z</time></trkpt><trkpt lat="44.714901408010114" lon="9.788829455751264"><ele>819.0</ele><time>2026-04-19T12:34:48.999Z</time></trkpt><trkpt lat="44.71496006906978" lon="9.788970714327663"><ele>819.0</ele><time>2026-04-19T12:34:49.999Z</time></trkpt><trkpt lat="44.715002204855686" lon="9.78911979333232"><ele>819.0</ele><time>2026-04-19T12:34:50.999Z</time></trkpt><trkpt lat="44.715022301156885" lon="9.789280234907283"><ele>819.0</ele><time>2026-04-19T12:34:51.999Z</time></trkpt><trkpt lat="44.715019903087224" lon="9.789439205320594"><ele>819.0</ele><time>2026-04-19T12:34:52.999Z</time></trkpt><trkpt lat="44.71499315582627" lon="9.789591108159591"><ele>819.25</ele><time>2026-04-19T12:34:53.999Z</time></trkpt><trkpt lat="44.71495236855004" lon="9.789739992586833"><ele>819.5</ele><time>2026-04-19T12:34:54.999Z</time></trkpt><trkpt lat="44.714910475884245" lon="9.789886077519903"><ele>819.75</ele><time>2026-04-19T12:34:55.999Z</time></trkpt><trkpt lat="44.71486859963971" lon="9.790032598183023"><ele>820.0</ele><time>2026-04-19T12:34:56.999Z</time></trkpt><trkpt lat="44.714828693749084" lon="9.790180294508295"><ele>820.0</ele><time>2026-04-19T12:34:57.999Z</time></trkpt><trkpt lat="44.71479314332833" lon="9.790331351003694"><ele>820.0</ele><time>2026-04-19T12:34:58.999Z</time></trkpt><trkpt lat="44.714753140665614" lon="9.790480850670058"><ele>820.0</ele><time>2026-04-19T12:34:59.999Z</time></trkpt><trkpt lat="44.714717512278355" lon="9.790627585249892"><ele>820.0</ele><time>2026-04-19T12:35:00.999Z</time></trkpt><trkpt lat="44.71470431888683" lon="9.790776420196677"><ele>820.0</ele><time>2026-04-19T12:35:01.999Z</time></trkpt><trkpt lat="44.71472177408992" lon="9.790923193146028"><ele>817.2</ele><time>2026-04-19T12:35:02.999Z</time></trkpt><trkpt lat="44.71476624827409" lon="9.791049531366127"><ele>814.4</ele><time>2026-04-19T12:35:03.999Z</time></trkpt><trkpt lat="44.71482450983574" lon="9.791177197529258"><ele>811.5999999999999</ele><time>2026-04-19T12:35:04.999Z</time></trkpt><trkpt lat="44.71490356712489" lon="9.791292094948025"><ele>808.8</ele><time>2026-04-19T12:35:05.999Z</time></trkpt><trkpt lat="44.7149955177147" lon="9.791390771484657"><ele>806.0</ele><time>2026-04-19T12:35:06.999Z</time></trkpt><trkpt lat="44.71509229974987" lon="9.79147689285322"><ele>806.0</ele><time>2026-04-19T12:35:07.999Z</time></trkpt><trkpt lat="44.7151883428772" lon="9.79156063234955"><ele>806.0</ele><time>2026-04-19T12:35:08.999Z</time></trkpt><trkpt lat="44.71528210096747" lon="9.79163836279562"><ele>806.0</ele><time>2026-04-19T12:35:09.999Z</time></trkpt><trkpt lat="44.71537314830722" lon="9.791709777731795"><ele>806.0</ele><time>2026-04-19T12:35:10.999Z</time></trkpt><trkpt lat="44.715468358334775" lon="9.791773970107219"><ele>806.0</ele><time>2026-04-19T12:35:11.999Z</time></trkpt><trkpt lat="44.71556595496001" lon="9.791824819397453"><ele>808.0</ele><time>2026-04-19T12:35:12.999Z</time></trkpt><trkpt lat="44.71566698009148" lon="9.791862772443805"><ele>810.0</ele><time>2026-04-19T12:35:13.999Z</time></trkpt><trkpt lat="44.715773220442784" lon="9.791877454773342"><ele>812.0</ele><time>2026-04-19T12:35:14.999Z</time></trkpt><trkpt lat="44.71587942574701" lon="9.791887031682402"><ele>814.0</ele><time>2026-04-19T12:35:15.999Z</time></trkpt><trkpt lat="44.715978498458725" lon="9.791892451450664"><ele>816.0</ele><time>2026-04-19T12:35:16.999Z</time></trkpt><trkpt lat="44.71608082543147" lon="9.791890769379812"><ele>817.5999999999999</ele><time>2026-04-19T12:35:17.999Z</time></trkpt><trkpt lat="44.71618068711604" lon="9.791872134709024"><ele>819.2</ele><time>2026-04-19T12:35:18.999Z</time></trkpt><trkpt lat="44.71626386960065" lon="9.791832793295145"><ele>820.8</ele><time>2026-04-19T12:35:19.999Z</time></trkpt><trkpt lat="44.716356298280644" lon="9.791803610011426"><ele>822.4000000000001</ele><time>2026-04-19T12:35:20.999Z</time></trkpt><trkpt lat="44.716450718110785" lon="9.7917787537893"><ele>824.0</ele><time>2026-04-19T12:35:21.999Z</time></trkpt><trkpt lat="44.71654558379833" lon="9.791740701308454"><ele>825.6</ele><time>2026-04-19T12:35:22.999Z</time></trkpt><trkpt lat="44.716640926437805" lon="9.791693578728955"><ele>827.2</ele><time>2026-04-19T12:35:23.999Z</time></trkpt><trkpt lat="44.716731665201614" lon="9.791614611590076"><ele>828.8000000000001</ele><time>2026-04-19T12:35:24.999Z</time></trkpt><trkpt lat="44.71679882577155" lon="9.791511757785607"><ele>830.4000000000001</ele><time>2026-04-19T12:35:25.999Z</time></trkpt><trkpt lat="44.716855288253576" lon="9.791422899469438"><ele>832.0</ele><time>2026-04-19T12:35:26.999Z</time></trkpt><trkpt lat="44.71692541597912" lon="9.791388081482655"><ele>833.2</ele><time>2026-04-19T12:35:27.999Z</time></trkpt><trkpt lat="44.71701762124749" lon="9.791394299854185"><ele>834.4000000000001</ele><time>2026-04-19T12:35:28.999Z</time></trkpt><trkpt lat="44.717107890027506" lon="9.791434001607758"><ele>835.5999999999999</ele><time>2026-04-19T12:35:29.999Z</time></trkpt><trkpt lat="44.717193014194265" lon="9.791485699877759"><ele>836.8</ele><time>2026-04-19T12:35:31Z</time></trkpt><trkpt lat="44.71727109916455" lon="9.791537539608271"><ele>838.0</ele><time>2026-04-19T12:35:32Z</time></trkpt><trkpt lat="44.71735092318116" lon="9.791576555006833"><ele>838.0</ele><time>2026-04-19T12:35:33Z</time></trkpt><trkpt lat="44.71743329510587" lon="9.79161202379018"><ele>838.0</ele><time>2026-04-19T12:35:34Z</time></trkpt><trkpt lat="44.71751574864165" lon="9.791662054433067"><ele>838.0</ele><time>2026-04-19T12:35:35Z</time></trkpt><trkpt lat="44.71760421290397" lon="9.791721899843914"><ele>838.0</ele><time>2026-04-19T12:35:36Z</time></trkpt><trkpt lat="44.71769855553162" lon="9.791793031512727"><ele>838.0</ele><time>2026-04-19T12:35:37Z</time></trkpt><trkpt lat="44.717780466075936" lon="9.791870688511887"><ele>839.4</ele><time>2026-04-19T12:35:38Z</time></trkpt><trkpt lat="44.717850376330546" lon="9.7919672928011"><ele>840.8</ele><time>2026-04-19T12:35:39Z</time></trkpt><trkpt lat="44.71791697651275" lon="9.79207346920084"><ele>842.2</ele><time>2026-04-19T12:35:40Z</time></trkpt><trkpt lat="44.717977469812176" lon="9.792193727971819"><ele>843.6</ele><time>2026-04-19T12:35:41Z</time></trkpt><trkpt lat="44.718041334122404" lon="9.792319697531683"><ele>845.0</ele><time>2026-04-19T12:35:42Z</time></trkpt><trkpt lat="44.718115489407474" lon="9.792447135778106"><ele>845.0</ele><time>2026-04-19T12:35:43Z</time></trkpt><trkpt lat="44.71820663281221" lon="9.792559666570035"><ele>845.0</ele><time>2026-04-19T12:35:44Z</time></trkpt><trkpt lat="44.71831568768023" lon="9.792657382928152"><ele>845.0</ele><time>2026-04-19T12:35:45Z</time></trkpt><trkpt lat="44.7184282716725" lon="9.792748490511514"><ele>845.0</ele><time>2026-04-19T12:35:46Z</time></trkpt><trkpt lat="44.71852550848851" lon="9.792851518594386"><ele>847.4</ele><time>2026-04-19T12:35:47Z</time></trkpt><trkpt lat="44.718603250004065" lon="9.792953031217403"><ele>849.8</ele><time>2026-04-19T12:35:48Z</time></trkpt><trkpt lat="44.718679914053986" lon="9.793049414243633"><ele>852.2</ele><time>2026-04-19T12:35:49Z</time></trkpt><trkpt lat="44.71875591814399" lon="9.79315310947542"><ele>854.6</ele><time>2026-04-19T12:35:50Z</time></trkpt><trkpt lat="44.71882511895912" lon="9.793263517612205"><ele>857.0</ele><time>2026-04-19T12:35:51Z</time></trkpt><trkpt lat="44.71888720041492" lon="9.79338567372155"><ele>855.5000000000001</ele><time>2026-04-19T12:35:52Z</time></trkpt><trkpt lat="44.71893914310045" lon="9.793513133039543"><ele>854.0</ele><time>2026-04-19T12:35:53Z</time></trkpt><trkpt lat="44.718974568090566" lon="9.793628522632199"><ele>852.5</ele><time>2026-04-19T12:35:54Z</time></trkpt><trkpt lat="44.71900071282306" lon="9.79373369521593"><ele>851.0</ele><time>2026-04-19T12:35:55Z</time></trkpt><trkpt lat="44.7190210635893" lon="9.793831950354337"><ele>849.5000000000001</ele><time>2026-04-19T12:35:56Z</time></trkpt><trkpt lat="44.71904330497648" lon="9.793921641088547"><ele>848.0</ele><time>2026-04-19T12:35:57Z</time></trkpt><trkpt lat="44.719077275706816" lon="9.794060874224401"><ele>848.0</ele><time>2026-04-19T12:35:59Z</time></trkpt><trkpt lat="44.7190657699285" lon="9.794162455343438"><ele>848.0</ele><time>2026-04-19T12:36:27.999Z</time></trkpt><trkpt lat="44.71898200359072" lon="9.794223423977115"><ele>848.0</ele><time>2026-04-19T12:36:29.999Z</time></trkpt><trkpt lat="44.718881064145414" lon="9.794272118031719"><ele>848.0</ele><time>2026-04-19T12:36:31.999Z</time></trkpt><trkpt lat="44.71880498967913" lon="9.794318732068202"><ele>848.0</ele><time>2026-04-19T12:36:33.999Z</time></trkpt><trkpt lat="44.7187094899061" lon="9.794373218072103"><ele>846.5999999999999</ele><time>2026-04-19T12:36:35.999Z</time></trkpt><trkpt lat="44.71864479313029" lon="9.794467039807923"><ele>845.1999999999999</ele><time>2026-04-19T12:36:37.999Z</time></trkpt><trkpt lat="44.71864045388983" lon="9.794589601970031"><ele>843.8</ele><time>2026-04-19T12:36:39.999Z</time></trkpt><trkpt lat="44.7186619210779" lon="9.794751103422357"><ele>842.4</ele><time>2026-04-19T12:36:41.999Z</time></trkpt><trkpt lat="44.71867975913733" lon="9.794868368990942"><ele>841.0</ele><time>2026-04-19T12:36:42.999Z</time></trkpt><trkpt lat="44.718692691982945" lon="9.794988484521545"><ele>840.9999999999999</ele><time>2026-04-19T12:36:43.999Z</time></trkpt><trkpt lat="44.71869667254221" lon="9.795104546475992"><ele>841.0</ele><time>2026-04-19T12:36:44.999Z</time></trkpt><trkpt lat="44.71869972905996" lon="9.795228906429962"><ele>841.0</ele><time>2026-04-19T12:36:45.999Z</time></trkpt><trkpt lat="44.71870893317935" lon="9.795343096012566"><ele>841.0</ele><time>2026-04-19T12:36:46.999Z</time></trkpt><trkpt lat="44.71870558030451" lon="9.795436378345588"><ele>840.9999999999999</ele><time>2026-04-19T12:36:47.999Z</time></trkpt><trkpt lat="44.71868874504422" lon="9.795532425171833"><ele>841.0</ele><time>2026-04-19T12:36:48.999Z</time></trkpt><trkpt lat="44.71865622976927" lon="9.795620580978454"><ele>839.6666666666666</ele><time>2026-04-19T12:36:49.999Z</time></trkpt><trkpt lat="44.718614371087355" lon="9.795696161714645"><ele>838.3333333333333</ele><time>2026-04-19T12:36:50.999Z</time></trkpt><trkpt lat="44.71856102369245" lon="9.795772125872535"><ele>837.0</ele><time>2026-04-19T12:36:51.999Z</time></trkpt><trkpt lat="44.718501944260225" lon="9.795841405219237"><ele>835.6666666666667</ele><time>2026-04-19T12:36:52.999Z</time></trkpt><trkpt lat="44.718399624668" lon="9.79600654509126"><ele>834.3333333333334</ele><time>2026-04-19T12:36:54.999Z</time></trkpt><trkpt lat="44.71835972436632" lon="9.796091760017662"><ele>833.0</ele><time>2026-04-19T12:36:55.999Z</time></trkpt><trkpt lat="44.71831413728373" lon="9.796177992781704"><ele>827.0000000000001</ele><time>2026-04-19T12:36:57.999Z</time></trkpt><trkpt lat="44.718277209224446" lon="9.796288102217245"><ele>821.0</ele><time>2026-04-19T12:36:59.999Z</time></trkpt><trkpt lat="44.71830482591775" lon="9.796398564138604"><ele>815.0</ele><time>2026-04-19T12:37:01.999Z</time></trkpt><trkpt lat="44.718348048807165" lon="9.796474757205173"><ele>809.0</ele><time>2026-04-19T12:37:03.999Z</time></trkpt><trkpt lat="44.71837466028326" lon="9.796577750639695"><ele>803.0000000000001</ele><time>2026-04-19T12:37:05.999Z</time></trkpt><trkpt lat="44.71846512672233" lon="9.796669552912302"><ele>797.0</ele><time>2026-04-19T12:37:07.999Z</time></trkpt><trkpt lat="44.71854844812869" lon="9.79673170298749"><ele>794.2</ele><time>2026-04-19T12:37:09.999Z</time></trkpt><trkpt lat="44.718619499195256" lon="9.796831431188137"><ele>791.4000000000001</ele><time>2026-04-19T12:37:12.999Z</time></trkpt><trkpt lat="44.718698710163956" lon="9.796946211220627"><ele>788.5999999999999</ele><time>2026-04-19T12:37:14.999Z</time></trkpt><trkpt lat="44.71874506511031" lon="9.797008293433304"><ele>785.8</ele><time>2026-04-19T12:37:15.999Z</time></trkpt><trkpt lat="44.718821856825066" lon="9.797085952566308"><ele>783.0</ele><time>2026-04-19T12:37:17.999Z</time></trkpt><trkpt lat="44.71890323987517" lon="9.797179427072367"><ele>783.0</ele><time>2026-04-19T12:37:19.999Z</time></trkpt><trkpt lat="44.71898050892978" lon="9.797288887017588"><ele>783.0</ele><time>2026-04-19T12:37:21.999Z</time></trkpt><trkpt lat="44.718990435921484" lon="9.797435803956501"><ele>783.0</ele><time>2026-04-19T12:37:23.999Z</time></trkpt><trkpt lat="44.718990556782515" lon="9.797526801391301"><ele>783.0</ele><time>2026-04-19T12:37:24.999Z</time></trkpt><trkpt lat="44.71900732220931" lon="9.797697509387298"><ele>783.0</ele><time>2026-04-19T12:37:26.999Z</time></trkpt><trkpt lat="44.71905184882389" lon="9.797793157550945"><ele>782.3333333333334</ele><time>2026-04-19T12:37:27.999Z</time></trkpt><trkpt lat="44.71909377587662" lon="9.797867512564569"><ele>781.6666666666667</ele><time>2026-04-19T12:37:28.999Z</time></trkpt><trkpt lat="44.719150074455186" lon="9.797912096902657"><ele>781.0</ele><time>2026-04-19T12:37:30.999Z</time></trkpt><trkpt lat="44.71922493043844" lon="9.79790506688731"><ele>780.3333333333334</ele><time>2026-04-19T12:37:41Z</time></trkpt><trkpt lat="44.71931206682615" lon="9.797885129243495"><ele>779.6666666666667</ele><time>2026-04-19T12:37:43Z</time></trkpt><trkpt lat="44.71943630871224" lon="9.797961033616993"><ele>779.0</ele><time>2026-04-19T12:37:45Z</time></trkpt><trkpt lat="44.7195212700148" lon="9.798008255748995"><ele>779.0</ele><time>2026-04-19T12:37:46Z</time></trkpt><trkpt lat="44.71960239390872" lon="9.797977151284814"><ele>779.0</ele><time>2026-04-19T12:37:48Z</time></trkpt><trkpt lat="44.71964965447736" lon="9.797867703873905"><ele>779.0</ele><time>2026-04-19T12:37:50Z</time></trkpt><trkpt lat="44.71973804567455" lon="9.79790658390979"><ele>779.0</ele><time>2026-04-19T12:37:52Z</time></trkpt><trkpt lat="44.71981813467573" lon="9.797886950034188"><ele>779.0</ele><time>2026-04-19T12:37:54Z</time></trkpt><trkpt lat="44.71992539467362" lon="9.79790618782706"><ele>779.0</ele><time>2026-04-19T12:37:56.999Z</time></trkpt><trkpt lat="44.72002090999778" lon="9.797997476130446"><ele>779.0</ele><time>2026-04-19T12:37:58.999Z</time></trkpt><trkpt lat="44.72012971372631" lon="9.797930653479968"><ele>779.0</ele><time>2026-04-19T12:37:59.999Z</time></trkpt><trkpt lat="44.72026594557895" lon="9.798046199821908"><ele>779.0</ele><time>2026-04-19T12:38:02.999Z</time></trkpt><trkpt lat="44.720339596133726" lon="9.798076602313332"><ele>783.2</ele><time>2026-04-19T12:38:03.999Z</time></trkpt><trkpt lat="44.72043617579429" lon="9.798113662226791"><ele>787.4000000000001</ele><time>2026-04-19T12:38:04.999Z</time></trkpt><trkpt lat="44.7205160481539" lon="9.798144673772896"><ele>791.6</ele><time>2026-04-19T12:38:05.999Z</time></trkpt><trkpt lat="44.72061176462531" lon="9.798184986886747"><ele>795.8</ele><time>2026-04-19T12:38:06.999Z</time></trkpt><trkpt lat="44.72068891176095" lon="9.798224865961624"><ele>800.0</ele><time>2026-04-19T12:38:07.999Z</time></trkpt><trkpt lat="44.72080725823142" lon="9.79830630379563"><ele>800.0</ele><time>2026-04-19T12:38:09.999Z</time></trkpt><trkpt lat="44.72088421934561" lon="9.798399802320933"><ele>800.0</ele><time>2026-04-19T12:38:10.999Z</time></trkpt><trkpt lat="44.720957762472736" lon="9.79844476705444"><ele>800.0</ele><time>2026-04-19T12:38:11.999Z</time></trkpt><trkpt lat="44.72104947789376" lon="9.7984798127774"><ele>800.0</ele><time>2026-04-19T12:38:12.999Z</time></trkpt><trkpt lat="44.72113517354978" lon="9.798519027902595"><ele>800.0</ele><time>2026-04-19T12:38:13.999Z</time></trkpt><trkpt lat="44.721240058905565" lon="9.798569154083962"><ele>799.4</ele><time>2026-04-19T12:38:14.999Z</time></trkpt><trkpt lat="44.721351745809514" lon="9.798619295294614"><ele>798.8</ele><time>2026-04-19T12:38:15.999Z</time></trkpt><trkpt lat="44.72142251501622" lon="9.798665494957673"><ele>798.2</ele><time>2026-04-19T12:38:16.999Z</time></trkpt><trkpt lat="44.72152203006333" lon="9.798713637302543"><ele>797.6</ele><time>2026-04-19T12:38:17.999Z</time></trkpt><trkpt lat="44.721629770682284" lon="9.798713502947551"><ele>797.0</ele><time>2026-04-19T12:38:18.999Z</time></trkpt><trkpt lat="44.721716880522465" lon="9.798697086516722"><ele>797.0000000000001</ele><time>2026-04-19T12:38:19.999Z</time></trkpt><trkpt lat="44.72180014880467" lon="9.79867565973804"><ele>797.0</ele><time>2026-04-19T12:38:20.999Z</time></trkpt><trkpt lat="44.72185995929277" lon="9.79864697243893"><ele>797.0</ele><time>2026-04-19T12:38:21.999Z</time></trkpt><trkpt lat="44.7219085126054" lon="9.798563413406962"><ele>797.0</ele><time>2026-04-19T12:38:24.999Z</time></trkpt><trkpt lat="44.72199960135938" lon="9.79846182780991"><ele>797.0000000000001</ele><time>2026-04-19T12:38:26.999Z</time></trkpt><trkpt lat="44.722071931711945" lon="9.798396035060245"><ele>797.0</ele><time>2026-04-19T12:38:27.999Z</time></trkpt><trkpt lat="44.722141601658485" lon="9.798373407156607"><ele>799.8</ele><time>2026-04-19T12:38:28.999Z</time></trkpt><trkpt lat="44.722205037311745" lon="9.798406822468047"><ele>802.6</ele><time>2026-04-19T12:38:30.999Z</time></trkpt><trkpt lat="44.722277907524884" lon="9.798391850153127"><ele>805.4</ele><time>2026-04-19T12:38:32.999Z</time></trkpt><trkpt lat="44.72236100929554" lon="9.79837970113375"><ele>808.1999999999999</ele><time>2026-04-19T12:38:34.999Z</time></trkpt><trkpt lat="44.722438359050585" lon="9.79831930305355"><ele>811.0</ele><time>2026-04-19T12:38:36.999Z</time></trkpt><trkpt lat="44.722683006911204" lon="9.798275144579637"><ele>810.9999999999999</ele><time>2026-04-19T12:38:42.999Z</time></trkpt><trkpt lat="44.72271430236587" lon="9.798395235613237"><ele>811.0</ele><time>2026-04-19T12:38:44.999Z</time></trkpt><trkpt lat="44.722730342452394" lon="9.798481552676028"><ele>811.0</ele><time>2026-04-19T12:38:45.999Z</time></trkpt><trkpt lat="44.72277272774937" lon="9.798595064305015"><ele>811.0</ele><time>2026-04-19T12:38:47.999Z</time></trkpt><trkpt lat="44.72281107660334" lon="9.79867201281615"><ele>810.9999999999999</ele><time>2026-04-19T12:38:48.999Z</time></trkpt><trkpt lat="44.722917583674736" lon="9.798676909440326"><ele>811.0</ele><time>2026-04-19T12:38:52.999Z</time></trkpt><trkpt lat="44.723012618062086" lon="9.798761962979654"><ele>810.4</ele><time>2026-04-19T12:38:54.999Z</time></trkpt><trkpt lat="44.72307605296223" lon="9.798829585544832"><ele>809.8</ele><time>2026-04-19T12:38:55.999Z</time></trkpt><trkpt lat="44.72308432783042" lon="9.798982790214163"><ele>809.1999999999999</ele><time>2026-04-19T12:39:03.999Z</time></trkpt><trkpt lat="44.723071308392896" lon="9.79907341950387"><ele>808.5999999999999</ele><time>2026-04-19T12:39:04.999Z</time></trkpt><trkpt lat="44.72304742000614" lon="9.799247592407404"><ele>808.0</ele><time>2026-04-19T12:39:06.999Z</time></trkpt><trkpt lat="44.72300390597544" lon="9.799341762253198"><ele>805.8333333333333</ele><time>2026-04-19T12:39:08.999Z</time></trkpt><trkpt lat="44.722914629196154" lon="9.79944653386919"><ele>803.6666666666666</ele><time>2026-04-19T12:39:10.999Z</time></trkpt><trkpt lat="44.722908256055455" lon="9.79955105280127"><ele>801.5</ele><time>2026-04-19T12:39:12.999Z</time></trkpt><trkpt lat="44.72287157189316" lon="9.799678752510578"><ele>799.3333333333333</ele><time>2026-04-19T12:39:14.999Z</time></trkpt><trkpt lat="44.72285069802472" lon="9.7997712600151"><ele>797.1666666666666</ele><time>2026-04-19T12:39:16.999Z</time></trkpt><trkpt lat="44.722828462598535" lon="9.799878147447343"><ele>795.0</ele><time>2026-04-19T12:39:18.999Z</time></trkpt><trkpt lat="44.72284546988931" lon="9.799964674674552"><ele>795.0</ele><time>2026-04-19T12:39:21.999Z</time></trkpt><trkpt lat="44.72284754887705" lon="9.800118560652937"><ele>795.0</ele><time>2026-04-19T12:39:24.999Z</time></trkpt><trkpt lat="44.722820491703615" lon="9.800239445259445"><ele>795.0</ele><time>2026-04-19T12:39:26.999Z</time></trkpt><trkpt lat="44.72275545426951" lon="9.800409380541248"><ele>795.0</ele><time>2026-04-19T12:39:28.999Z</time></trkpt><trkpt lat="44.72272048498321" lon="9.800497808989327"><ele>795.0</ele><time>2026-04-19T12:39:29.999Z</time></trkpt><trkpt lat="44.72267487086301" lon="9.800656229864307"><ele>792.1666666666666</ele><time>2026-04-19T12:39:31.999Z</time></trkpt><trkpt lat="44.72264773570726" lon="9.80073683582644"><ele>789.3333333333333</ele><time>2026-04-19T12:39:32.999Z</time></trkpt><trkpt lat="44.72259575292513" lon="9.800792601809867"><ele>786.5</ele><time>2026-04-19T12:39:33.999Z</time></trkpt><trkpt lat="44.72253825458629" lon="9.800844065779962"><ele>783.6666666666666</ele><time>2026-04-19T12:39:34.999Z</time></trkpt><trkpt lat="44.722487882958795" lon="9.800904842926474"><ele>780.8333333333333</ele><time>2026-04-19T12:39:35.999Z</time></trkpt><trkpt lat="44.722435142206386" lon="9.80105801585882"><ele>778.0</ele><time>2026-04-19T12:39:37.999Z</time></trkpt><trkpt lat="44.722409992027366" lon="9.801158959891515"><ele>776.4999999999999</ele><time>2026-04-19T12:39:38.999Z</time></trkpt><trkpt lat="44.722397854884676" lon="9.801264458322652"><ele>775.0</ele><time>2026-04-19T12:39:39.999Z</time></trkpt><trkpt lat="44.72239631713196" lon="9.80137010205758"><ele>773.5</ele><time>2026-04-19T12:39:40.999Z</time></trkpt><trkpt lat="44.72238804423971" lon="9.80149631590209"><ele>772.0</ele><time>2026-04-19T12:39:42.999Z</time></trkpt><trkpt lat="44.72241210841085" lon="9.801613278880346"><ele>770.4999999999999</ele><time>2026-04-19T12:39:44.999Z</time></trkpt><trkpt lat="44.72251042299254" lon="9.801662794938206"><ele>769.0</ele><time>2026-04-19T12:39:46.999Z</time></trkpt><trkpt lat="44.72259964609254" lon="9.801727706537859"><ele>768.6666666666666</ele><time>2026-04-19T12:39:48.999Z</time></trkpt><trkpt lat="44.72263551370866" lon="9.801847683704066"><ele>768.3333333333333</ele><time>2026-04-19T12:39:50.999Z</time></trkpt><trkpt lat="44.72263890187035" lon="9.801946738733482"><ele>768.0</ele><time>2026-04-19T12:39:51.999Z</time></trkpt><trkpt lat="44.722651240054105" lon="9.802050881739586"><ele>767.6666666666666</ele><time>2026-04-19T12:39:52.999Z</time></trkpt><trkpt lat="44.72268334310806" lon="9.802155764313692"><ele>767.3333333333333</ele><time>2026-04-19T12:39:54.999Z</time></trkpt><trkpt lat="44.72269286094872" lon="9.80228007761082"><ele>767.0</ele><time>2026-04-19T12:39:55.999Z</time></trkpt><trkpt lat="44.72274723294212" lon="9.80239295235822"><ele>767.0</ele><time>2026-04-19T12:39:57.999Z</time></trkpt><trkpt lat="44.72281173120342" lon="9.8024614839209"><ele>767.0</ele><time>2026-04-19T12:39:58.999Z</time></trkpt><trkpt lat="44.72288055183058" lon="9.802506466149962"><ele>767.0</ele><time>2026-04-19T12:39:59.999Z</time></trkpt><trkpt lat="44.722978582122174" lon="9.802620889385182"><ele>767.0</ele><time>2026-04-19T12:40:01.999Z</time></trkpt><trkpt lat="44.7230736491354" lon="9.80274462994786"><ele>767.0</ele><time>2026-04-19T12:40:03.999Z</time></trkpt><trkpt lat="44.72316620702193" lon="9.802801742727103"><ele>766.3333333333333</ele><time>2026-04-19T12:40:05.999Z</time></trkpt><trkpt lat="44.72328085587231" lon="9.802832109964054"><ele>765.6666666666666</ele><time>2026-04-19T12:40:08.999Z</time></trkpt><trkpt lat="44.723367266592014" lon="9.802844720098808"><ele>765.0</ele><time>2026-04-19T12:40:10.999Z</time></trkpt><trkpt lat="44.72343491277057" lon="9.802872850389514"><ele>764.3333333333334</ele><time>2026-04-19T12:40:12.999Z</time></trkpt><trkpt lat="44.72351312996277" lon="9.802955529235723"><ele>763.6666666666667</ele><time>2026-04-19T12:40:14.999Z</time></trkpt><trkpt lat="44.72356196225809" lon="9.8030321798976"><ele>763.0</ele><time>2026-04-19T12:40:15.999Z</time></trkpt><trkpt lat="44.723625768455214" lon="9.803084107428111"><ele>763.0</ele><time>2026-04-19T12:40:18.999Z</time></trkpt><trkpt lat="44.723679423148845" lon="9.803153640966631"><ele>763.0</ele><time>2026-04-19T12:40:23.999Z</time></trkpt><trkpt lat="44.72372014191517" lon="9.803288631191718"><ele>763.0</ele><time>2026-04-19T12:40:28.999Z</time></trkpt><trkpt lat="44.723805524300076" lon="9.80335893789127"><ele>763.0</ele><time>2026-04-19T12:40:44.999Z</time></trkpt><trkpt lat="44.723856404906904" lon="9.803469994044244"><ele>763.0</ele><time>2026-04-19T12:40:47.999Z</time></trkpt><trkpt lat="44.723890301202466" lon="9.803558271354802"><ele>763.0</ele><time>2026-04-19T12:40:51.999Z</time></trkpt><trkpt lat="44.72394446174527" lon="9.803615694961454"><ele>763.0</ele><time>2026-04-19T12:41:17.999Z</time></trkpt><trkpt lat="44.72401035018304" lon="9.803554706992106"><ele>763.0</ele><time>2026-04-19T12:41:20.999Z</time></trkpt><trkpt lat="44.72416034088397" lon="9.803466421133686"><ele>763.0</ele><time>2026-04-19T12:41:22.999Z</time></trkpt><trkpt lat="44.72423225538924" lon="9.80338778907888"><ele>763.0</ele><time>2026-04-19T12:41:25.999Z</time></trkpt><trkpt lat="44.72429877897242" lon="9.803252127816801"><ele>763.0</ele><time>2026-04-19T12:41:27.999Z</time></trkpt><trkpt lat="44.72436616352069" lon="9.803173930756431"><ele>763.0</ele><time>2026-04-19T12:41:29.999Z</time></trkpt><trkpt lat="44.72443179303612" lon="9.803139213881137"><ele>763.0</ele><time>2026-04-19T12:41:30.999Z</time></trkpt><trkpt lat="44.724525462079725" lon="9.80305733369785"><ele>763.0</ele><time>2026-04-19T12:41:32.999Z</time></trkpt><trkpt lat="44.72458558925656" lon="9.803027290556876"><ele>763.0</ele><time>2026-04-19T12:41:33.999Z</time></trkpt><trkpt lat="44.724671275391586" lon="9.802976672403169"><ele>763.0</ele><time>2026-04-19T12:41:34.999Z</time></trkpt><trkpt lat="44.72477369585445" lon="9.802883437319908"><ele>762.0</ele><time>2026-04-19T12:41:36.999Z</time></trkpt><trkpt lat="44.72485300038491" lon="9.802790505552752"><ele>761.0</ele><time>2026-04-19T12:41:38.999Z</time></trkpt><trkpt lat="44.724852208635674" lon="9.802696135999012"><ele>760.0</ele><time>2026-04-19T12:41:40.999Z</time></trkpt><trkpt lat="44.72486097027812" lon="9.802596352524825"><ele>759.0</ele><time>2026-04-19T12:41:41.999Z</time></trkpt><trkpt lat="44.724881364831646" lon="9.802474113885781"><ele>758.0</ele><time>2026-04-19T12:41:43.999Z</time></trkpt><trkpt lat="44.72492150261095" lon="9.802374403791394"><ele>757.0</ele><time>2026-04-19T12:41:46.999Z</time></trkpt><trkpt lat="44.72499054824381" lon="9.802289439969217"><ele>759.8</ele><time>2026-04-19T12:41:49.999Z</time></trkpt><trkpt lat="44.72508901231897" lon="9.802284866570329"><ele>762.6</ele><time>2026-04-19T12:41:51.999Z</time></trkpt><trkpt lat="44.72515890579713" lon="9.802318867902816"><ele>765.4</ele><time>2026-04-19T12:41:52.999Z</time></trkpt><trkpt lat="44.725243858382704" lon="9.802351448213088"><ele>768.1999999999999</ele><time>2026-04-19T12:41:53.999Z</time></trkpt><trkpt lat="44.725339983580746" lon="9.80230980521575"><ele>771.0</ele><time>2026-04-19T12:41:54.999Z</time></trkpt><trkpt lat="44.725431133032245" lon="9.802337262999304"><ele>773.5999999999999</ele><time>2026-04-19T12:41:55.999Z</time></trkpt><trkpt lat="44.725500034556475" lon="9.802359277225289"><ele>776.2</ele><time>2026-04-19T12:41:56.999Z</time></trkpt><trkpt lat="44.72558137922451" lon="9.802413008933454"><ele>778.8</ele><time>2026-04-19T12:41:57.999Z</time></trkpt><trkpt lat="44.725653142619954" lon="9.802442433719992"><ele>781.4000000000001</ele><time>2026-04-19T12:41:58.999Z</time></trkpt><trkpt lat="44.72574890835601" lon="9.802483727333541"><ele>784.0</ele><time>2026-04-19T12:42:00.999Z</time></trkpt><trkpt lat="44.7258739369909" lon="9.802572860123647"><ele>783.9999999999999</ele><time>2026-04-19T12:42:02.999Z</time></trkpt><trkpt lat="44.72597868055731" lon="9.802648109219364"><ele>784.0</ele><time>2026-04-19T12:42:03.999Z</time></trkpt><trkpt lat="44.726055121677106" lon="9.802688433658188"><ele>784.0</ele><time>2026-04-19T12:42:04.999Z</time></trkpt><trkpt lat="44.7261247663767" lon="9.802704800799916"><ele>784.0</ele><time>2026-04-19T12:42:05.999Z</time></trkpt><trkpt lat="44.72620869004873" lon="9.802709021906594"><ele>783.9999999999999</ele><time>2026-04-19T12:42:06.999Z</time></trkpt><trkpt lat="44.726295429350586" lon="9.802721509391702"><ele>784.0</ele><time>2026-04-19T12:42:07.999Z</time></trkpt><trkpt lat="44.72637048821183" lon="9.802748997652804"><ele>784.3333333333333</ele><time>2026-04-19T12:42:08.999Z</time></trkpt><trkpt lat="44.72645721603867" lon="9.802797137812995"><ele>784.6666666666666</ele><time>2026-04-19T12:42:10.999Z</time></trkpt><trkpt lat="44.726516889988474" lon="9.802828537760057"><ele>785.0</ele><time>2026-04-19T12:42:11.999Z</time></trkpt><trkpt lat="44.72658354297821" lon="9.802848538102966"><ele>785.3333333333333</ele><time>2026-04-19T12:42:12.999Z</time></trkpt><trkpt lat="44.72666638441788" lon="9.802861452162103"><ele>785.6666666666666</ele><time>2026-04-19T12:42:13.999Z</time></trkpt><trkpt lat="44.72671929386244" lon="9.80293226965122"><ele>786.0</ele><time>2026-04-19T12:42:14.999Z</time></trkpt><trkpt lat="44.72681053034196" lon="9.802928308479032"><ele>788.75</ele><time>2026-04-19T12:42:15.999Z</time></trkpt><trkpt lat="44.72690582197137" lon="9.802927716387574"><ele>791.5</ele><time>2026-04-19T12:42:16.999Z</time></trkpt><trkpt lat="44.727020155767576" lon="9.802933499062569"><ele>794.25</ele><time>2026-04-19T12:42:17.999Z</time></trkpt><trkpt lat="44.727125844850924" lon="9.80293701180141"><ele>797.0</ele><time>2026-04-19T12:42:18.999Z</time></trkpt><trkpt lat="44.72729567063374" lon="9.802935173333776"><ele>797.0</ele><time>2026-04-19T12:42:20.999Z</time></trkpt><trkpt lat="44.72737980861553" lon="9.802943314303745"><ele>797.0</ele><time>2026-04-19T12:42:21.999Z</time></trkpt><trkpt lat="44.727470236429994" lon="9.802974513248692"><ele>797.0</ele><time>2026-04-19T12:42:22.999Z</time></trkpt><trkpt lat="44.727569394638586" lon="9.802986153042962"><ele>797.0</ele><time>2026-04-19T12:42:23.999Z</time></trkpt><trkpt lat="44.72766210487769" lon="9.803004736511053"><ele>797.0</ele><time>2026-04-19T12:42:24.999Z</time></trkpt><trkpt lat="44.727749597050135" lon="9.80300758922329"><ele>798.6666666666667</ele><time>2026-04-19T12:42:25.999Z</time></trkpt><trkpt lat="44.72783991869764" lon="9.802994530986293"><ele>800.3333333333334</ele><time>2026-04-19T12:42:26.999Z</time></trkpt><trkpt lat="44.72792770490441" lon="9.802964492113505"><ele>802.0</ele><time>2026-04-19T12:42:27.999Z</time></trkpt><trkpt lat="44.72800699915011" lon="9.802941687338437"><ele>803.6666666666667</ele><time>2026-04-19T12:42:28.999Z</time></trkpt><trkpt lat="44.72809115017519" lon="9.802918695278331"><ele>805.3333333333334</ele><time>2026-04-19T12:42:29.999Z</time></trkpt><trkpt lat="44.72816913987647" lon="9.802902353719743"><ele>807.0</ele><time>2026-04-19T12:42:30.999Z</time></trkpt><trkpt lat="44.72826800088282" lon="9.802916994380972"><ele>807.0</ele><time>2026-04-19T12:42:32.999Z</time></trkpt><trkpt lat="44.7283398360467" lon="9.802932751927791"><ele>807.0</ele><time>2026-04-19T12:42:35.999Z</time></trkpt><trkpt lat="44.728419877001244" lon="9.802916641845293"><ele>807.0</ele><time>2026-04-19T12:42:39.999Z</time></trkpt><trkpt lat="44.72849924686032" lon="9.802908819692076"><ele>807.0</ele><time>2026-04-19T12:42:44.999Z</time></trkpt><trkpt lat="44.72856827050353" lon="9.802881913486502"><ele>807.0</ele><time>2026-04-19T12:42:46.999Z</time></trkpt><trkpt lat="44.72866353130589" lon="9.802876997597535"><ele>807.0</ele><time>2026-04-19T12:42:48.999Z</time></trkpt><trkpt lat="44.72876821063657" lon="9.80284797454224"><ele>808.8</ele><time>2026-04-19T12:42:50.999Z</time></trkpt><trkpt lat="44.72885632032807" lon="9.802752858022627"><ele>810.6</ele><time>2026-04-19T12:42:52.999Z</time></trkpt><trkpt lat="44.72891468321983" lon="9.802715726930975"><ele>812.4</ele><time>2026-04-19T12:42:53.999Z</time></trkpt><trkpt lat="44.72898624905547" lon="9.802681156497682"><ele>814.1999999999999</ele><time>2026-04-19T12:42:54.999Z</time></trkpt><trkpt lat="44.72906757522414" lon="9.802722318630092"><ele>816.0</ele><time>2026-04-19T12:42:57.999Z</time></trkpt><trkpt lat="44.729211293771534" lon="9.802897145970336"><ele>816.0</ele><time>2026-04-19T12:42:59.999Z</time></trkpt><trkpt lat="44.72927973930575" lon="9.803028583286794"><ele>816.0</ele><time>2026-04-19T12:43:01.999Z</time></trkpt><trkpt lat="44.72930880836825" lon="9.803112037234763"><ele>816.0</ele><time>2026-04-19T12:43:02.999Z</time></trkpt><trkpt lat="44.72934328760624" lon="9.80321371956602"><ele>816.0</ele><time>2026-04-19T12:43:04.999Z</time></trkpt><trkpt lat="44.729453255663415" lon="9.80330454245613"><ele>816.0</ele><time>2026-04-19T12:43:06.999Z</time></trkpt><trkpt lat="44.72951548825237" lon="9.803382281708775"><ele>816.1666666666666</ele><time>2026-04-19T12:43:07.999Z</time></trkpt><trkpt lat="44.72960192979722" lon="9.803460006507027"><ele>816.3333333333333</ele><time>2026-04-19T12:43:08.999Z</time></trkpt><trkpt lat="44.72966606580468" lon="9.803513760897859"><ele>816.5</ele><time>2026-04-19T12:43:09.999Z</time></trkpt><trkpt lat="44.72974854530641" lon="9.803571894768268"><ele>816.6666666666666</ele><time>2026-04-19T12:43:11.999Z</time></trkpt><trkpt lat="44.72982136551534" lon="9.803628687081298"><ele>816.8333333333333</ele><time>2026-04-19T12:43:16.999Z</time></trkpt><trkpt lat="44.72990298329935" lon="9.803694546950618"><ele>817.0</ele><time>2026-04-19T12:43:18.999Z</time></trkpt><trkpt lat="44.729965170347256" lon="9.80365749533523"><ele>817.0</ele><time>2026-04-19T12:43:21.999Z</time></trkpt><trkpt lat="44.73003963319264" lon="9.80361322981621"><ele>817.0</ele><time>2026-04-19T12:43:23.999Z</time></trkpt><trkpt lat="44.73013494990203" lon="9.803516554525052"><ele>817.0</ele><time>2026-04-19T12:43:25.999Z</time></trkpt><trkpt lat="44.730201670663945" lon="9.803461698867116"><ele>817.0</ele><time>2026-04-19T12:43:26.999Z</time></trkpt><trkpt lat="44.73027836371246" lon="9.803418730468241"><ele>817.0</ele><time>2026-04-19T12:43:27.999Z</time></trkpt><trkpt lat="44.730399782278894" lon="9.803345204747256"><ele>817.75</ele><time>2026-04-19T12:43:29.999Z</time></trkpt><trkpt lat="44.73049827415701" lon="9.80331697476291"><ele>818.5</ele><time>2026-04-19T12:43:30.999Z</time></trkpt><trkpt lat="44.730598660846425" lon="9.803314647726546"><ele>819.25</ele><time>2026-04-19T12:43:31.999Z</time></trkpt><trkpt lat="44.73071921285774" lon="9.803332404933542"><ele>820.0</ele><time>2026-04-19T12:43:32.999Z</time></trkpt><trkpt lat="44.73084766223234" lon="9.803371780037905"><ele>819.9999999999999</ele><time>2026-04-19T12:43:33.999Z</time></trkpt><trkpt lat="44.730939716756545" lon="9.803404799853052"><ele>820.0</ele><time>2026-04-19T12:43:34.999Z</time></trkpt><trkpt lat="44.7310393089259" lon="9.803433976267156"><ele>820.0</ele><time>2026-04-19T12:43:35.999Z</time></trkpt><trkpt lat="44.731119688319126" lon="9.803456275187788"><ele>820.0</ele><time>2026-04-19T12:43:36.999Z</time></trkpt><trkpt lat="44.731188569050275" lon="9.803479553197302"><ele>819.9999999999999</ele><time>2026-04-19T12:43:37.999Z</time></trkpt><trkpt lat="44.73127055467103" lon="9.803515293158453"><ele>820.0</ele><time>2026-04-19T12:43:38.999Z</time></trkpt><trkpt lat="44.73135554433276" lon="9.803564818398632"><ele>820.3333333333333</ele><time>2026-04-19T12:43:39.999Z</time></trkpt><trkpt lat="44.7314139898467" lon="9.803630318117735"><ele>820.6666666666666</ele><time>2026-04-19T12:43:40.999Z</time></trkpt><trkpt lat="44.731413940005474" lon="9.803754207669856"><ele>821.0</ele><time>2026-04-19T12:43:41.999Z</time></trkpt><trkpt lat="44.731435203557005" lon="9.803881942384008"><ele>821.3333333333333</ele><time>2026-04-19T12:43:42.999Z</time></trkpt><trkpt lat="44.731436732851364" lon="9.80401338919291"><ele>821.6666666666666</ele><time>2026-04-19T12:43:43.999Z</time></trkpt><trkpt lat="44.73143434536995" lon="9.804152158978836"><ele>822.0</ele><time>2026-04-19T12:43:44.999Z</time></trkpt><trkpt lat="44.73144406957422" lon="9.804263346949126"><ele>823.1428571428571</ele><time>2026-04-19T12:43:45.999Z</time></trkpt><trkpt lat="44.73146857773986" lon="9.804345058321312"><ele>824.2857142857142</ele><time>2026-04-19T12:43:46.999Z</time></trkpt><trkpt lat="44.731494223431106" lon="9.804467553131454"><ele>825.4285714285714</ele><time>2026-04-19T12:43:48.999Z</time></trkpt><trkpt lat="44.731490988199816" lon="9.804569982201182"><ele>826.5714285714286</ele><time>2026-04-19T12:43:51.999Z</time></trkpt><trkpt lat="44.7315336487667" lon="9.804658397750531"><ele>827.7142857142858</ele><time>2026-04-19T12:43:53.999Z</time></trkpt><trkpt lat="44.73153719733005" lon="9.804754326249702"><ele>828.8571428571429</ele><time>2026-04-19T12:43:57.999Z</time></trkpt><trkpt lat="44.73150548115177" lon="9.804832339191409"><ele>830.0</ele><time>2026-04-19T12:44:02.999Z</time></trkpt><trkpt lat="44.73148557487585" lon="9.80494562797876"><ele>830.0</ele><time>2026-04-19T12:44:05.999Z</time></trkpt><trkpt lat="44.731481092459596" lon="9.805099411906466"><ele>830.0</ele><time>2026-04-19T12:44:07.999Z</time></trkpt><trkpt lat="44.73147623909584" lon="9.805189510334944"><ele>830.0</ele><time>2026-04-19T12:44:08.999Z</time></trkpt><trkpt lat="44.73148544713756" lon="9.805411819661858"><ele>830.0</ele><time>2026-04-19T12:44:10.999Z</time></trkpt><trkpt lat="44.731494399961406" lon="9.80552593594627"><ele>830.0</ele><time>2026-04-19T12:44:11.999Z</time></trkpt><trkpt lat="44.73151661192979" lon="9.80566961094812"><ele>830.2</ele><time>2026-04-19T12:44:13.999Z</time></trkpt><trkpt lat="44.73155361113298" lon="9.805797058173574"><ele>830.4</ele><time>2026-04-19T12:44:15.999Z</time></trkpt><trkpt lat="44.731600508143835" lon="9.80590929759355"><ele>830.5999999999999</ele><time>2026-04-19T12:44:17.999Z</time></trkpt><trkpt lat="44.73164593017983" lon="9.80599217683982"><ele>830.8</ele><time>2026-04-19T12:44:22.999Z</time></trkpt><trkpt lat="44.73172021535118" lon="9.80607361224367"><ele>831.0</ele><time>2026-04-19T12:44:23.999Z</time></trkpt><trkpt lat="44.73181455461234" lon="9.806125857620728"><ele>834.0</ele><time>2026-04-19T12:44:25.999Z</time></trkpt><trkpt lat="44.731918866775594" lon="9.80619494564527"><ele>837.0</ele><time>2026-04-19T12:44:27.999Z</time></trkpt><trkpt lat="44.731988173885576" lon="9.806265259595811"><ele>840.0</ele><time>2026-04-19T12:44:28.999Z</time></trkpt><trkpt lat="44.732083919979026" lon="9.806344019166772"><ele>843.0</ele><time>2026-04-19T12:44:30.999Z</time></trkpt><trkpt lat="44.73218576988249" lon="9.806419741011538"><ele>846.0</ele><time>2026-04-19T12:44:32.999Z</time></trkpt><trkpt lat="44.732265088818245" lon="9.806434491037267"><ele>846.0</ele><time>2026-04-19T12:44:34.999Z</time></trkpt><trkpt lat="44.73236078946817" lon="9.806424001401108"><ele>846.0</ele><time>2026-04-19T12:44:36.999Z</time></trkpt><trkpt lat="44.73244328889632" lon="9.806368481078634"><ele>846.0</ele><time>2026-04-19T12:44:39.999Z</time></trkpt><trkpt lat="44.73250494041634" lon="9.806337477792441"><ele>846.0</ele><time>2026-04-19T12:44:41.999Z</time></trkpt><trkpt lat="44.7325973572792" lon="9.806312310924493"><ele>846.0</ele><time>2026-04-19T12:44:43.999Z</time></trkpt><trkpt lat="44.73265988246756" lon="9.806295049850599"><ele>846.0</ele><time>2026-04-19T12:44:44.999Z</time></trkpt><trkpt lat="44.732794306911295" lon="9.806278120380492"><ele>848.0</ele><time>2026-04-19T12:44:46.999Z</time></trkpt><trkpt lat="44.73287358071478" lon="9.806271666272348"><ele>850.0</ele><time>2026-04-19T12:44:47.999Z</time></trkpt><trkpt lat="44.73294937037531" lon="9.80627022105908"><ele>852.0</ele><time>2026-04-19T12:44:48.999Z</time></trkpt><trkpt lat="44.73302049774289" lon="9.80627468310711"><ele>854.0</ele><time>2026-04-19T12:44:49.999Z</time></trkpt><trkpt lat="44.7331290167921" lon="9.806339929172571"><ele>856.0</ele><time>2026-04-19T12:44:51.999Z</time></trkpt><trkpt lat="44.73318892647304" lon="9.806391118233586"><ele>858.0</ele><time>2026-04-19T12:44:52.999Z</time></trkpt><trkpt lat="44.7332558794529" lon="9.806429852153203"><ele>858.0</ele><time>2026-04-19T12:44:53.999Z</time></trkpt><trkpt lat="44.73332344724405" lon="9.806453834057328"><ele>858.0</ele><time>2026-04-19T12:44:54.999Z</time></trkpt><trkpt lat="44.733415254287706" lon="9.806488915460834"><ele>858.0</ele><time>2026-04-19T12:44:56.999Z</time></trkpt><trkpt lat="44.7334877166291" lon="9.806521282144958"><ele>858.0</ele><time>2026-04-19T12:44:57.999Z</time></trkpt><trkpt lat="44.73356661365932" lon="9.80655046221956"><ele>858.0</ele><time>2026-04-19T12:44:58.999Z</time></trkpt><trkpt lat="44.7336686417982" lon="9.806483041255468"><ele>858.0</ele><time>2026-04-19T12:45:00.999Z</time></trkpt><trkpt lat="44.733711862959574" lon="9.806416642459684"><ele>858.5</ele><time>2026-04-19T12:45:01.999Z</time></trkpt><trkpt lat="44.73373996759297" lon="9.806335101978373"><ele>859.0</ele><time>2026-04-19T12:45:02.999Z</time></trkpt><trkpt lat="44.73382106935823" lon="9.80632385201747"><ele>859.5</ele><time>2026-04-19T12:45:04.999Z</time></trkpt><trkpt lat="44.733907089257656" lon="9.806400358126647"><ele>860.0</ele><time>2026-04-19T12:45:06.999Z</time></trkpt><trkpt lat="44.733961774688986" lon="9.80649229065942"><ele>860.5</ele><time>2026-04-19T12:45:08.999Z</time></trkpt><trkpt lat="44.734035093450004" lon="9.806561093868588"><ele>861.0</ele><time>2026-04-19T12:45:09.999Z</time></trkpt><trkpt lat="44.734120760262165" lon="9.806620168170902"><ele>861.0</ele><time>2026-04-19T12:45:10.999Z</time></trkpt><trkpt lat="44.73420959113648" lon="9.80666628049473"><ele>861.0</ele><time>2026-04-19T12:45:11.999Z</time></trkpt><trkpt lat="44.73428117498735" lon="9.806694317205954"><ele>861.0</ele><time>2026-04-19T12:45:12.999Z</time></trkpt><trkpt lat="44.73435651863604" lon="9.80671692024292"><ele>861.0</ele><time>2026-04-19T12:45:13.999Z</time></trkpt><trkpt lat="44.73444119424638" lon="9.806744538894021"><ele>861.0</ele><time>2026-04-19T12:45:14.999Z</time></trkpt><trkpt lat="44.73452292863065" lon="9.806764753047998"><ele>861.0</ele><time>2026-04-19T12:45:15.999Z</time></trkpt><trkpt lat="44.73461111479646" lon="9.806786835100603"><ele>860.6666666666666</ele><time>2026-04-19T12:45:16.999Z</time></trkpt><trkpt lat="44.73470872468291" lon="9.806810943405301"><ele>860.3333333333333</ele><time>2026-04-19T12:45:17.999Z</time></trkpt><trkpt lat="44.73480223831651" lon="9.806832701319777"><ele>860.0</ele><time>2026-04-19T12:45:18.999Z</time></trkpt><trkpt lat="44.734885587095135" lon="9.806851322165105"><ele>859.6666666666666</ele><time>2026-04-19T12:45:19.999Z</time></trkpt><trkpt lat="44.73496024015674" lon="9.806866278635466"><ele>859.3333333333333</ele><time>2026-04-19T12:45:20.999Z</time></trkpt><trkpt lat="44.73503311370708" lon="9.80687261351027"><ele>859.0</ele><time>2026-04-19T12:45:21.999Z</time></trkpt><trkpt lat="44.735100754470665" lon="9.806874781085352"><ele>858.8333333333333</ele><time>2026-04-19T12:45:22.999Z</time></trkpt><trkpt lat="44.735199133116325" lon="9.806899154053124"><ele>858.6666666666666</ele><time>2026-04-19T12:45:24.999Z</time></trkpt><trkpt lat="44.73520822525872" lon="9.807040725087123"><ele>858.5</ele><time>2026-04-19T12:45:27.999Z</time></trkpt><trkpt lat="44.73518209837014" lon="9.807137025203584"><ele>858.3333333333333</ele><time>2026-04-19T12:45:28.999Z</time></trkpt><trkpt lat="44.73513291311191" lon="9.80723357924131"><ele>858.1666666666666</ele><time>2026-04-19T12:45:29.999Z</time></trkpt><trkpt lat="44.735078843267665" lon="9.807326578807965"><ele>858.0</ele><time>2026-04-19T12:45:30.999Z</time></trkpt><trkpt lat="44.735034252653996" lon="9.8074081206059"><ele>858.0</ele><time>2026-04-19T12:45:31.999Z</time></trkpt><trkpt lat="44.735050130898216" lon="9.807514376290207"><ele>858.0</ele><time>2026-04-19T12:45:34.999Z</time></trkpt><trkpt lat="44.73509476293681" lon="9.807590576933022"><ele>858.0</ele><time>2026-04-19T12:45:35.999Z</time></trkpt><trkpt lat="44.73513585227388" lon="9.8076752217566"><ele>858.0</ele><time>2026-04-19T12:45:36.999Z</time></trkpt><trkpt lat="44.735163335129414" lon="9.807813135832443"><ele>858.0</ele><time>2026-04-19T12:45:38.999Z</time></trkpt><trkpt lat="44.735168817209214" lon="9.80790442103694"><ele>858.0</ele><time>2026-04-19T12:45:39.999Z</time></trkpt><trkpt lat="44.735180141503974" lon="9.808003131794019"><ele>859.3333333333334</ele><time>2026-04-19T12:45:40.999Z</time></trkpt><trkpt lat="44.73516355881998" lon="9.808099547267641"><ele>860.6666666666667</ele><time>2026-04-19T12:45:43.999Z</time></trkpt><trkpt lat="44.73517929661762" lon="9.80828050423379"><ele>862.0</ele><time>2026-04-19T12:45:45.999Z</time></trkpt><trkpt lat="44.73519328508034" lon="9.808370327075194"><ele>863.3333333333334</ele><time>2026-04-19T12:45:46.999Z</time></trkpt><trkpt lat="44.73520873706752" lon="9.808468722541878"><ele>864.6666666666667</ele><time>2026-04-19T12:45:48.999Z</time></trkpt><trkpt lat="44.73524278812033" lon="9.808603374305436"><ele>866.0</ele><time>2026-04-19T12:45:49.999Z</time></trkpt><trkpt lat="44.735271710269615" lon="9.808684413507352"><ele>866.6666666666667</ele><time>2026-04-19T12:45:50.999Z</time></trkpt><trkpt lat="44.73531457757581" lon="9.808763738988832"><ele>867.3333333333334</ele><time>2026-04-19T12:45:51.999Z</time></trkpt><trkpt lat="44.73540293110917" lon="9.808877940056512"><ele>868.0</ele><time>2026-04-19T12:45:53.999Z</time></trkpt><trkpt lat="44.73546304539272" lon="9.808955289620938"><ele>868.6666666666667</ele><time>2026-04-19T12:45:55.999Z</time></trkpt><trkpt lat="44.73549610148155" lon="9.809038517644801"><ele>869.3333333333334</ele><time>2026-04-19T12:45:57.999Z</time></trkpt><trkpt lat="44.7355089933827" lon="9.809154590174314"><ele>870.0</ele><time>2026-04-19T12:46:00Z</time></trkpt><trkpt lat="44.735556674498085" lon="9.809235949840835"><ele>870.0</ele><time>2026-04-19T12:46:02Z</time></trkpt><trkpt lat="44.73565243916822" lon="9.809352209755883"><ele>870.0</ele><time>2026-04-19T12:46:04Z</time></trkpt><trkpt lat="44.73576236299851" lon="9.809424690076991"><ele>870.0</ele><time>2026-04-19T12:46:06Z</time></trkpt><trkpt lat="44.73581577820037" lon="9.80947159517725"><ele>870.0</ele><time>2026-04-19T12:46:07Z</time></trkpt><trkpt lat="44.73587117022501" lon="9.809560109500524"><ele>870.0</ele><time>2026-04-19T12:46:09Z</time></trkpt><trkpt lat="44.73588150984271" lon="9.80967859158663"><ele>870.0</ele><time>2026-04-19T12:46:12Z</time></trkpt><trkpt lat="44.7358576896419" lon="9.809812794415933"><ele>870.0</ele><time>2026-04-19T12:46:14Z</time></trkpt><trkpt lat="44.73585211299618" lon="9.809906111432518"><ele>870.0</ele><time>2026-04-19T12:46:15Z</time></trkpt><trkpt lat="44.735842457779114" lon="9.81001558663763"><ele>870.0</ele><time>2026-04-19T12:46:17Z</time></trkpt><trkpt lat="44.73583727246433" lon="9.810158165074078"><ele>870.0</ele><time>2026-04-19T12:46:19Z</time></trkpt><trkpt lat="44.73596783447455" lon="9.81057894565903"><ele>869.1666666666666</ele><time>2026-04-19T12:46:20.999Z</time></trkpt><trkpt lat="44.73596099723223" lon="9.810698649777398"><ele>868.3333333333333</ele><time>2026-04-19T12:46:21.999Z</time></trkpt><trkpt lat="44.73594343732032" lon="9.810804430238875"><ele>867.5</ele><time>2026-04-19T12:46:22.999Z</time></trkpt><trkpt lat="44.735927355586725" lon="9.810894699324109"><ele>866.6666666666666</ele><time>2026-04-19T12:46:23.999Z</time></trkpt><trkpt lat="44.73590337528232" lon="9.81099019670643"><ele>865.8333333333333</ele><time>2026-04-19T12:46:24.999Z</time></trkpt><trkpt lat="44.73587168946488" lon="9.81115065252723"><ele>865.0</ele><time>2026-04-19T12:46:26.999Z</time></trkpt><trkpt lat="44.735850766338366" lon="9.811237065116119"><ele>864.3333333333333</ele><time>2026-04-19T12:46:27.999Z</time></trkpt><trkpt lat="44.735837684352674" lon="9.811343989580275"><ele>863.6666666666666</ele><time>2026-04-19T12:46:28.999Z</time></trkpt><trkpt lat="44.73582190465622" lon="9.81143503524191"><ele>863.0</ele><time>2026-04-19T12:46:29.999Z</time></trkpt><trkpt lat="44.73581548320592" lon="9.811583085018091"><ele>862.3333333333333</ele><time>2026-04-19T12:46:31.999Z</time></trkpt><trkpt lat="44.735793070287485" lon="9.811758771136796"><ele>861.6666666666666</ele><time>2026-04-19T12:46:33.999Z</time></trkpt><trkpt lat="44.735769988053626" lon="9.811845070408017"><ele>861.0</ele><time>2026-04-19T12:46:34.999Z</time></trkpt><trkpt lat="44.735709653471396" lon="9.8120179794726"><ele>857.1999999999999</ele><time>2026-04-19T12:46:36.999Z</time></trkpt><trkpt lat="44.73566672671656" lon="9.812110292684658"><ele>853.3999999999999</ele><time>2026-04-19T12:46:37.999Z</time></trkpt><trkpt lat="44.73559041933229" lon="9.812224406292632"><ele>849.6</ele><time>2026-04-19T12:46:39.999Z</time></trkpt><trkpt lat="44.73549488913502" lon="9.812321421648969"><ele>845.8</ele><time>2026-04-19T12:46:41.999Z</time></trkpt><trkpt lat="44.7353656931856" lon="9.812337767013084"><ele>842.0</ele><time>2026-04-19T12:46:43.999Z</time></trkpt><trkpt lat="44.73529667258944" lon="9.812355387851342"><ele>841.8</ele><time>2026-04-19T12:46:44.999Z</time></trkpt><trkpt lat="44.735181911018245" lon="9.812395539166085"><ele>841.6</ele><time>2026-04-19T12:46:46.999Z</time></trkpt><trkpt lat="44.73509182454949" lon="9.812370531398416"><ele>841.4</ele><time>2026-04-19T12:46:48.999Z</time></trkpt><trkpt lat="44.73505089786456" lon="9.81244209438278"><ele>841.1999999999999</ele><time>2026-04-19T12:46:50.999Z</time></trkpt><trkpt lat="44.73499894912405" lon="9.812565771825327"><ele>841.0</ele><time>2026-04-19T12:46:52.999Z</time></trkpt><trkpt lat="44.73490412822825" lon="9.81265508674063"><ele>836.4</ele><time>2026-04-19T12:46:54.999Z</time></trkpt><trkpt lat="44.73480442424496" lon="9.812745495067363"><ele>831.8</ele><time>2026-04-19T12:46:56.999Z</time></trkpt><trkpt lat="44.734737405600654" lon="9.812806653902726"><ele>827.1999999999999</ele><time>2026-04-19T12:46:57.999Z</time></trkpt><trkpt lat="44.734676354878594" lon="9.812883315576848"><ele>822.5999999999999</ele><time>2026-04-19T12:46:58.999Z</time></trkpt><trkpt lat="44.73459969075798" lon="9.812948606314466"><ele>818.0</ele><time>2026-04-19T12:46:59.999Z</time></trkpt><trkpt lat="44.73454927222034" lon="9.813035903881538"><ele>818.0</ele><time>2026-04-19T12:47:01.999Z</time></trkpt><trkpt lat="44.73449915326123" lon="9.813101978088884"><ele>818.0</ele><time>2026-04-19T12:47:02.999Z</time></trkpt><trkpt lat="44.73440175487155" lon="9.81314977668259"><ele>818.0</ele><time>2026-04-19T12:47:04.999Z</time></trkpt><trkpt lat="44.73428295705468" lon="9.81322748772141"><ele>818.0</ele><time>2026-04-19T12:47:06.999Z</time></trkpt><trkpt lat="44.73422175076055" lon="9.813327011557996"><ele>818.0</ele><time>2026-04-19T12:47:07.999Z</time></trkpt><trkpt lat="44.73415251465158" lon="9.813437164988027"><ele>815.5000000000001</ele><time>2026-04-19T12:47:08.999Z</time></trkpt><trkpt lat="44.734087395665746" lon="9.813550554721646"><ele>813.0</ele><time>2026-04-19T12:47:09.999Z</time></trkpt><trkpt lat="44.73403601834657" lon="9.813648799465467"><ele>810.5</ele><time>2026-04-19T12:47:10.999Z</time></trkpt><trkpt lat="44.73399943137606" lon="9.81372146372045"><ele>808.0</ele><time>2026-04-19T12:47:11.999Z</time></trkpt><trkpt lat="44.73391930162496" lon="9.81382867776353"><ele>805.5000000000001</ele><time>2026-04-19T12:47:13.999Z</time></trkpt><trkpt lat="44.733846299240426" lon="9.813881056814331"><ele>803.0</ele><time>2026-04-19T12:47:14.999Z</time></trkpt><trkpt lat="44.73376997649689" lon="9.813978166169584"><ele>803.0</ele><time>2026-04-19T12:47:16.999Z</time></trkpt><trkpt lat="44.73369222727076" lon="9.814059109351355"><ele>803.0</ele><time>2026-04-19T12:47:18.999Z</time></trkpt><trkpt lat="44.73360034283293" lon="9.814146653983288"><ele>803.0</ele><time>2026-04-19T12:47:20.999Z</time></trkpt><trkpt lat="44.73352443111012" lon="9.814220631612402"><ele>803.0</ele><time>2026-04-19T12:47:22.999Z</time></trkpt><trkpt lat="44.733462309567244" lon="9.814287723924165"><ele>803.0</ele><time>2026-04-19T12:47:24.999Z</time></trkpt><trkpt lat="44.73341422698516" lon="9.814365934522607"><ele>801.1666666666667</ele><time>2026-04-19T12:47:26.999Z</time></trkpt><trkpt lat="44.73335223218431" lon="9.81443847779381"><ele>799.3333333333334</ele><time>2026-04-19T12:47:28.999Z</time></trkpt><trkpt lat="44.733287172963" lon="9.814527774216044"><ele>797.5</ele><time>2026-04-19T12:47:30.999Z</time></trkpt><trkpt lat="44.733311124796906" lon="9.814638965148957"><ele>795.6666666666667</ele><time>2026-04-19T12:47:34.999Z</time></trkpt><trkpt lat="44.733410062752775" lon="9.814699780889917"><ele>793.8333333333334</ele><time>2026-04-19T12:47:36.999Z</time></trkpt><trkpt lat="44.7334397203495" lon="9.814804252184008"><ele>792.0</ele><time>2026-04-19T12:47:39.999Z</time></trkpt><trkpt lat="44.733454653176906" lon="9.814957112950069"><ele>792.0</ele><time>2026-04-19T12:47:41.999Z</time></trkpt><trkpt lat="44.733486598200855" lon="9.81503647153936"><ele>792.0</ele><time>2026-04-19T12:47:42.999Z</time></trkpt><trkpt lat="44.73347347025408" lon="9.815140284291678"><ele>792.0</ele><time>2026-04-19T12:47:44.999Z</time></trkpt><trkpt lat="44.733401904156736" lon="9.81518662307376"><ele>792.0</ele><time>2026-04-19T12:47:46.999Z</time></trkpt><trkpt lat="44.73332422376947" lon="9.815198327213425"><ele>792.0</ele><time>2026-04-19T12:47:49.999Z</time></trkpt><trkpt lat="44.733315090265705" lon="9.81530639033209"><ele>792.0</ele><time>2026-04-19T12:47:53.999Z</time></trkpt><trkpt lat="44.73339077062313" lon="9.815381977400774"><ele>787.8</ele><time>2026-04-19T12:47:55.999Z</time></trkpt><trkpt lat="44.73348104621406" lon="9.815507113533512"><ele>783.6</ele><time>2026-04-19T12:47:57.999Z</time></trkpt><trkpt lat="44.733527022242164" lon="9.81569257404994"><ele>779.4</ele><time>2026-04-19T12:47:59.999Z</time></trkpt><trkpt lat="44.73355890875448" lon="9.815783883058389"><ele>775.1999999999999</ele><time>2026-04-19T12:48:00.999Z</time></trkpt><trkpt lat="44.73360466005609" lon="9.81585893206468"><ele>771.0</ele><time>2026-04-19T12:48:01.999Z</time></trkpt><trkpt lat="44.73364654923698" lon="9.815942959450172"><ele>767.6666666666666</ele><time>2026-04-19T12:48:02.999Z</time></trkpt><trkpt lat="44.733671270015755" lon="9.816028765690794"><ele>764.3333333333334</ele><time>2026-04-19T12:48:03.999Z</time></trkpt><trkpt lat="44.73368968956155" lon="9.816126254428015"><ele>761.0</ele><time>2026-04-19T12:48:04.999Z</time></trkpt><trkpt lat="44.733706264729435" lon="9.81621254560569"><ele>757.6666666666667</ele><time>2026-04-19T12:48:05.999Z</time></trkpt><trkpt lat="44.73374976011048" lon="9.816341265160672"><ele>754.3333333333334</ele><time>2026-04-19T12:48:07.999Z</time></trkpt><trkpt lat="44.73381926883855" lon="9.816478958605671"><ele>751.0</ele><time>2026-04-19T12:48:09.999Z</time></trkpt><trkpt lat="44.73385344565458" lon="9.81666677712909"><ele>751.0</ele><time>2026-04-19T12:48:11.999Z</time></trkpt><trkpt lat="44.733859199026504" lon="9.816770733660375"><ele>751.0</ele><time>2026-04-19T12:48:12.999Z</time></trkpt><trkpt lat="44.73385006508746" lon="9.816874318530948"><ele>751.0</ele><time>2026-04-19T12:48:13.999Z</time></trkpt><trkpt lat="44.73386452492637" lon="9.816983518486897"><ele>751.0</ele><time>2026-04-19T12:48:14.999Z</time></trkpt><trkpt lat="44.73388647100101" lon="9.817076167342991"><ele>751.0</ele><time>2026-04-19T12:48:15.999Z</time></trkpt><trkpt lat="44.73395183271973" lon="9.8171981700499"><ele>751.0</ele><time>2026-04-19T12:48:17.999Z</time></trkpt><trkpt lat="44.73399648943059" lon="9.817262428309395"><ele>749.5999999999999</ele><time>2026-04-19T12:48:18.999Z</time></trkpt><trkpt lat="44.73404888314648" lon="9.817314456611726"><ele>748.2</ele><time>2026-04-19T12:48:19.999Z</time></trkpt><trkpt lat="44.734136661349396" lon="9.817403889559921"><ele>746.8</ele><time>2026-04-19T12:48:21.999Z</time></trkpt><trkpt lat="44.73417742880624" lon="9.817569944686408"><ele>745.4000000000001</ele><time>2026-04-19T12:48:23.999Z</time></trkpt><trkpt lat="44.73417088490936" lon="9.817685827849234"><ele>744.0</ele><time>2026-04-19T12:48:25.999Z</time></trkpt><trkpt lat="44.73416480960213" lon="9.817848864247367"><ele>742.3333333333334</ele><time>2026-04-19T12:48:27.999Z</time></trkpt><trkpt lat="44.73416988314178" lon="9.818015431867721"><ele>740.6666666666666</ele><time>2026-04-19T12:48:29.999Z</time></trkpt><trkpt lat="44.73419057365059" lon="9.818102840989495"><ele>739.0</ele><time>2026-04-19T12:48:30.999Z</time></trkpt><trkpt lat="44.73421655754849" lon="9.818190824079165"><ele>737.3333333333333</ele><time>2026-04-19T12:48:31.999Z</time></trkpt><trkpt lat="44.73424049152343" lon="9.81828622606637"><ele>735.6666666666666</ele><time>2026-04-19T12:48:32.999Z</time></trkpt><trkpt lat="44.734248960177574" lon="9.81839311427259"><ele>734.0</ele><time>2026-04-19T12:48:33.999Z</time></trkpt><trkpt lat="44.734238118018965" lon="9.818499923471656"><ele>732.3333333333333</ele><time>2026-04-19T12:48:34.999Z</time></trkpt><trkpt lat="44.73422402961648" lon="9.818598862364244"><ele>730.6666666666666</ele><time>2026-04-19T12:48:35.999Z</time></trkpt><trkpt lat="44.73420251893614" lon="9.818693866790632"><ele>729.0</ele><time>2026-04-19T12:48:36.999Z</time></trkpt><trkpt lat="44.734183437893535" lon="9.818781857152086"><ele>727.3333333333334</ele><time>2026-04-19T12:48:37.999Z</time></trkpt><trkpt lat="44.73415112592888" lon="9.818870514058311"><ele>725.6666666666667</ele><time>2026-04-19T12:48:39.999Z</time></trkpt><trkpt lat="44.734150897129595" lon="9.818993947643284"><ele>724.0</ele><time>2026-04-19T12:48:43.999Z</time></trkpt><trkpt lat="44.73415171223394" lon="9.819153930344863"><ele>724.0</ele><time>2026-04-19T12:48:45.999Z</time></trkpt><trkpt lat="44.734150978689115" lon="9.81931371396702"><ele>724.0</ele><time>2026-04-19T12:48:47.999Z</time></trkpt><trkpt lat="44.734154802529986" lon="9.819413912041979"><ele>724.0</ele><time>2026-04-19T12:48:48.999Z</time></trkpt><trkpt lat="44.73418067522917" lon="9.819579481132756"><ele>724.0</ele><time>2026-04-19T12:48:50.999Z</time></trkpt><trkpt lat="44.73418198624843" lon="9.81967247930471"><ele>724.0</ele><time>2026-04-19T12:48:51.999Z</time></trkpt><trkpt lat="44.7341818957472" lon="9.819783792219281"><ele>722.3333333333334</ele><time>2026-04-19T12:48:52.999Z</time></trkpt><trkpt lat="44.73417612299569" lon="9.819883089338097"><ele>720.6666666666667</ele><time>2026-04-19T12:48:53.999Z</time></trkpt><trkpt lat="44.73417183752232" lon="9.819984779095602"><ele>719.0</ele><time>2026-04-19T12:48:54.999Z</time></trkpt><trkpt lat="44.73417720356614" lon="9.820166431752755"><ele>717.3333333333334</ele><time>2026-04-19T12:48:56.999Z</time></trkpt><trkpt lat="44.73416938174728" lon="9.820256771165406"><ele>715.6666666666666</ele><time>2026-04-19T12:48:57.999Z</time></trkpt><trkpt lat="44.73415267252636" lon="9.820362692791925"><ele>714.0</ele><time>2026-04-19T12:48:58.999Z</time></trkpt><trkpt lat="44.7341299056767" lon="9.82045857966537"><ele>711.8333333333334</ele><time>2026-04-19T12:48:59.999Z</time></trkpt><trkpt lat="44.73410119222174" lon="9.82054157721693"><ele>709.6666666666666</ele><time>2026-04-19T12:49:00.999Z</time></trkpt><trkpt lat="44.73406907431642" lon="9.820625361454312"><ele>707.5</ele><time>2026-04-19T12:49:01.999Z</time></trkpt><trkpt lat="44.73403498402376" lon="9.820701389648287"><ele>705.3333333333333</ele><time>2026-04-19T12:49:02.999Z</time></trkpt><trkpt lat="44.73398542697755" lon="9.820870789219493"><ele>703.1666666666666</ele><time>2026-04-19T12:49:04.999Z</time></trkpt><trkpt lat="44.73397583543652" lon="9.820961416706242"><ele>701.0</ele><time>2026-04-19T12:49:05.999Z</time></trkpt><trkpt lat="44.7339895117397" lon="9.821061275147892"><ele>699.4</ele><time>2026-04-19T12:49:06.999Z</time></trkpt><trkpt lat="44.73400425209574" lon="9.82115748489235"><ele>697.8</ele><time>2026-04-19T12:49:07.999Z</time></trkpt><trkpt lat="44.734010439603345" lon="9.82131880780954"><ele>696.1999999999999</ele><time>2026-04-19T12:49:09.999Z</time></trkpt><trkpt lat="44.734020594245756" lon="9.82142420173122"><ele>694.5999999999999</ele><time>2026-04-19T12:49:11.999Z</time></trkpt><trkpt lat="44.73402911191601" lon="9.82154643157588"><ele>693.0</ele><time>2026-04-19T12:49:13.999Z</time></trkpt><trkpt lat="44.73408047737188" lon="9.821691390323316"><ele>692.4</ele><time>2026-04-19T12:49:15.999Z</time></trkpt><trkpt lat="44.7340986327951" lon="9.821862168870247"><ele>691.8</ele><time>2026-04-19T12:49:17.999Z</time></trkpt><trkpt lat="44.73410421536268" lon="9.821958936326078"><ele>691.2</ele><time>2026-04-19T12:49:18.999Z</time></trkpt><trkpt lat="44.73407482962051" lon="9.822141245564813"><ele>690.6</ele><time>2026-04-19T12:49:20.999Z</time></trkpt><trkpt lat="44.73406387198879" lon="9.822237894532103"><ele>690.0</ele><time>2026-04-19T12:49:21.999Z</time></trkpt><trkpt lat="44.73405387169953" lon="9.822332486081123"><ele>690.0</ele><time>2026-04-19T12:49:22.999Z</time></trkpt><trkpt lat="44.73400822075356" lon="9.822486805708722"><ele>690.0</ele><time>2026-04-19T12:49:24.999Z</time></trkpt><trkpt lat="44.73390128988243" lon="9.822582006815907"><ele>690.0</ele><time>2026-04-19T12:49:26.999Z</time></trkpt><trkpt lat="44.73380656554241" lon="9.822713846078575"><ele>690.0</ele><time>2026-04-19T12:49:28.999Z</time></trkpt><trkpt lat="44.73377600704365" lon="9.822793397636957"><ele>690.0</ele><time>2026-04-19T12:49:29.999Z</time></trkpt><trkpt lat="44.73372474236756" lon="9.82292357588902"><ele>687.6</ele><time>2026-04-19T12:49:31.999Z</time></trkpt><trkpt lat="44.7336611824035" lon="9.823047524698735"><ele>685.2</ele><time>2026-04-19T12:49:33.999Z</time></trkpt><trkpt lat="44.73357563388471" lon="9.8231715407554"><ele>682.8</ele><time>2026-04-19T12:49:35.999Z</time></trkpt><trkpt lat="44.7335475426652" lon="9.823263184365137"><ele>680.4</ele><time>2026-04-19T12:49:36.999Z</time></trkpt><trkpt lat="44.7335303220299" lon="9.823376617818836"><ele>678.0</ele><time>2026-04-19T12:49:37.999Z</time></trkpt><trkpt lat="44.733493902505614" lon="9.823519974887876"><ele>675.5</ele><time>2026-04-19T12:49:39.999Z</time></trkpt><trkpt lat="44.73345204434151" lon="9.823600807789347"><ele>673.0</ele><time>2026-04-19T12:49:41.999Z</time></trkpt><trkpt lat="44.733395851168005" lon="9.823653773140983"><ele>670.5</ele><time>2026-04-19T12:49:43.999Z</time></trkpt><trkpt lat="44.73330818796136" lon="9.823727576388537"><ele>668.0</ele><time>2026-04-19T12:49:45.999Z</time></trkpt><trkpt lat="44.73322671052113" lon="9.823814645341931"><ele>665.5</ele><time>2026-04-19T12:49:47.999Z</time></trkpt><trkpt lat="44.73316991940862" lon="9.82392199565988"><ele>663.0</ele><time>2026-04-19T12:49:49.999Z</time></trkpt><trkpt lat="44.733152226298934" lon="9.82401535634153"><ele>663.0</ele><time>2026-04-19T12:49:50.999Z</time></trkpt><trkpt lat="44.733126259600766" lon="9.82418710570278"><ele>663.0</ele><time>2026-04-19T12:49:52.999Z</time></trkpt><trkpt lat="44.73307483795084" lon="9.824296903716098"><ele>663.0</ele><time>2026-04-19T12:49:54.999Z</time></trkpt><trkpt lat="44.73303522859927" lon="9.82436677408082"><ele>663.0</ele><time>2026-04-19T12:49:55.999Z</time></trkpt><trkpt lat="44.732983754031046" lon="9.824492654777607"><ele>663.0</ele><time>2026-04-19T12:49:57.999Z</time></trkpt><trkpt lat="44.73297269122857" lon="9.824611873472858"><ele>660.6666666666666</ele><time>2026-04-19T12:49:59.999Z</time></trkpt><trkpt lat="44.73297352229125" lon="9.824709250877401"><ele>658.3333333333334</ele><time>2026-04-19T12:50:01.999Z</time></trkpt><trkpt lat="44.73293848939198" lon="9.824810907477504"><ele>656.0</ele><time>2026-04-19T12:50:04.999Z</time></trkpt><trkpt lat="44.73285581868314" lon="9.824782389422714"><ele>653.6666666666667</ele><time>2026-04-19T12:50:08.999Z</time></trkpt><trkpt lat="44.73282443257776" lon="9.824688576018952"><ele>651.3333333333334</ele><time>2026-04-19T12:50:09.999Z</time></trkpt><trkpt lat="44.73278787312329" lon="9.824583599483889"><ele>649.0</ele><time>2026-04-19T12:50:11Z</time></trkpt><trkpt lat="44.73275415061124" lon="9.824466849056197"><ele>649.0</ele><time>2026-04-19T12:50:12Z</time></trkpt><trkpt lat="44.73273544437444" lon="9.824348747305908"><ele>649.0</ele><time>2026-04-19T12:50:13Z</time></trkpt><trkpt lat="44.73273110841911" lon="9.824241309564211"><ele>649.0</ele><time>2026-04-19T12:50:14Z</time></trkpt><trkpt lat="44.73272124057666" lon="9.824142675019788"><ele>649.0</ele><time>2026-04-19T12:50:15Z</time></trkpt><trkpt lat="44.73269844061086" lon="9.82405923749224"><ele>649.0</ele><time>2026-04-19T12:50:16Z</time></trkpt><trkpt lat="44.732636953514934" lon="9.823925026729487"><ele>649.0</ele><time>2026-04-19T12:50:18Z</time></trkpt><trkpt lat="44.73256221551447" lon="9.823898065016117"><ele>648.8000000000001</ele><time>2026-04-19T12:50:19Z</time></trkpt><trkpt lat="44.73247847747568" lon="9.82391928741841"><ele>648.6</ele><time>2026-04-19T12:50:20Z</time></trkpt><trkpt lat="44.732425891588214" lon="9.82401634321203"><ele>648.4</ele><time>2026-04-19T12:50:21Z</time></trkpt><trkpt lat="44.73241177532986" lon="9.824155171641701"><ele>648.2</ele><time>2026-04-19T12:50:22Z</time></trkpt><trkpt lat="44.73242891047363" lon="9.824286202796339"><ele>648.0</ele><time>2026-04-19T12:50:23Z</time></trkpt><trkpt lat="44.73246478560131" lon="9.824419662518755"><ele>646.1666666666666</ele><time>2026-04-19T12:50:24Z</time></trkpt><trkpt lat="44.732503248057" lon="9.824530749825959"><ele>644.3333333333334</ele><time>2026-04-19T12:50:25Z</time></trkpt><trkpt lat="44.732530963002326" lon="9.824653640463952"><ele>642.5</ele><time>2026-04-19T12:50:26Z</time></trkpt><trkpt lat="44.732561288906034" lon="9.824764484423993"><ele>640.6666666666667</ele><time>2026-04-19T12:50:27Z</time></trkpt><trkpt lat="44.73258519377279" lon="9.824863250242087"><ele>638.8333333333334</ele><time>2026-04-19T12:50:28Z</time></trkpt><trkpt lat="44.73259726666334" lon="9.824955260430215"><ele>637.0</ele><time>2026-04-19T12:50:29Z</time></trkpt><trkpt lat="44.732621917531446" lon="9.825118365319774"><ele>635.2</ele><time>2026-04-19T12:50:30.999Z</time></trkpt><trkpt lat="44.732641408033636" lon="9.82530770169953"><ele>633.4000000000001</ele><time>2026-04-19T12:50:32.999Z</time></trkpt><trkpt lat="44.73263246686076" lon="9.825416531542857"><ele>631.5999999999999</ele><time>2026-04-19T12:50:33.999Z</time></trkpt><trkpt lat="44.73260358421708" lon="9.825522843520394"><ele>629.8</ele><time>2026-04-19T12:50:34.999Z</time></trkpt><trkpt lat="44.73256830386439" lon="9.825635846498153"><ele>628.0</ele><time>2026-04-19T12:50:35.999Z</time></trkpt><trkpt lat="44.73255147166646" lon="9.825759644056301"><ele>628.0</ele><time>2026-04-19T12:50:36.999Z</time></trkpt><trkpt lat="44.73255579468316" lon="9.825873942705398"><ele>628.0</ele><time>2026-04-19T12:50:37.999Z</time></trkpt><trkpt lat="44.732575412450814" lon="9.825983975940806"><ele>628.0</ele><time>2026-04-19T12:50:38.999Z</time></trkpt><trkpt lat="44.73261346937163" lon="9.826089709748679"><ele>628.0</ele><time>2026-04-19T12:50:39.999Z</time></trkpt><trkpt lat="44.73264861797808" lon="9.826193315347105"><ele>628.0</ele><time>2026-04-19T12:50:40.999Z</time></trkpt><trkpt lat="44.73266824887417" lon="9.826298987152146"><ele>628.0</ele><time>2026-04-19T12:50:41.999Z</time></trkpt><trkpt lat="44.73266936514065" lon="9.826404888995382"><ele>626.6666666666667</ele><time>2026-04-19T12:50:42.999Z</time></trkpt><trkpt lat="44.73265801987617" lon="9.826507931571705"><ele>625.3333333333334</ele><time>2026-04-19T12:50:43.999Z</time></trkpt><trkpt lat="44.73262770931377" lon="9.826604965501991"><ele>624.0</ele><time>2026-04-19T12:50:44.999Z</time></trkpt><trkpt lat="44.73258562756143" lon="9.826693957097845"><ele>622.6666666666666</ele><time>2026-04-19T12:50:45.999Z</time></trkpt><trkpt lat="44.73255500733103" lon="9.826792381347412"><ele>621.3333333333333</ele><time>2026-04-19T12:50:46.999Z</time></trkpt><trkpt lat="44.732528742826844" lon="9.826888036334687"><ele>620.0</ele><time>2026-04-19T12:50:47.999Z</time></trkpt><trkpt lat="44.73250124881381" lon="9.82698702973869"><ele>620.0</ele><time>2026-04-19T12:50:49.999Z</time></trkpt><trkpt lat="44.73240746421719" lon="9.827002673223646"><ele>620.0</ele><time>2026-04-19T12:50:53.999Z</time></trkpt><trkpt lat="44.73231798534625" lon="9.826889957064719"><ele>620.0</ele><time>2026-04-19T12:50:55.999Z</time></trkpt><trkpt lat="44.73222174552436" lon="9.826774954207519"><ele>620.0</ele><time>2026-04-19T12:50:57.999Z</time></trkpt><trkpt lat="44.732127458426305" lon="9.826693254958188"><ele>620.0</ele><time>2026-04-19T12:50:59.999Z</time></trkpt><trkpt lat="44.7320189605996" lon="9.826635570430264"><ele>620.0</ele><time>2026-04-19T12:51:01.999Z</time></trkpt><trkpt lat="44.731955422026765" lon="9.826618890089128"><ele>620.0</ele><time>2026-04-19T12:51:02.999Z</time></trkpt><trkpt lat="44.73188928036241" lon="9.826589313330214"><ele>620.0</ele><time>2026-04-19T12:51:03.999Z</time></trkpt><trkpt lat="44.7317860593532" lon="9.826512312472328"><ele>620.0</ele><time>2026-04-19T12:51:05.999Z</time></trkpt><trkpt lat="44.73174375964266" lon="9.826408142280268"><ele>617.8333333333333</ele><time>2026-04-19T12:51:06.999Z</time></trkpt><trkpt lat="44.73170994664466" lon="9.826292797895576"><ele>615.6666666666666</ele><time>2026-04-19T12:51:07.999Z</time></trkpt><trkpt lat="44.731671348189046" lon="9.826210172352122"><ele>613.5</ele><time>2026-04-19T12:51:08.999Z</time></trkpt><trkpt lat="44.731573966327176" lon="9.826137417890541"><ele>611.3333333333334</ele><time>2026-04-19T12:51:10.999Z</time></trkpt><trkpt lat="44.731510747831486" lon="9.826128219530865"><ele>609.1666666666667</ele><time>2026-04-19T12:51:11.999Z</time></trkpt><trkpt lat="44.73144087530534" lon="9.82614035170002"><ele>607.0</ele><time>2026-04-19T12:51:12.999Z</time></trkpt><trkpt lat="44.73136613187568" lon="9.826136332120665"><ele>607.0</ele><time>2026-04-19T12:51:13.999Z</time></trkpt><trkpt lat="44.731297614732824" lon="9.826108870897066"><ele>607.0</ele><time>2026-04-19T12:51:14.999Z</time></trkpt><trkpt lat="44.73123335447769" lon="9.826055191379876"><ele>607.0</ele><time>2026-04-19T12:51:15.999Z</time></trkpt><trkpt lat="44.73115785964229" lon="9.8259855041473"><ele>607.0</ele><time>2026-04-19T12:51:16.999Z</time></trkpt><trkpt lat="44.7310929090605" lon="9.825921026652619"><ele>607.0</ele><time>2026-04-19T12:51:17.999Z</time></trkpt><trkpt lat="44.73105505247462" lon="9.825844717885515"><ele>607.0</ele><time>2026-04-19T12:51:18.999Z</time></trkpt><trkpt lat="44.73102641191551" lon="9.8257580170988"><ele>605.1666666666667</ele><time>2026-04-19T12:51:19.999Z</time></trkpt><trkpt lat="44.730984458122016" lon="9.825684645706499"><ele>603.3333333333334</ele><time>2026-04-19T12:51:20.999Z</time></trkpt><trkpt lat="44.73091545700835" lon="9.825568821160251"><ele>601.5</ele><time>2026-04-19T12:51:22.999Z</time></trkpt><trkpt lat="44.73080410786012" lon="9.825488710052504"><ele>599.6666666666666</ele><time>2026-04-19T12:51:24.999Z</time></trkpt><trkpt lat="44.730740465827" lon="9.825456188872314"><ele>597.8333333333333</ele><time>2026-04-19T12:51:25.999Z</time></trkpt><trkpt lat="44.73068071507892" lon="9.825424429272024"><ele>596.0</ele><time>2026-04-19T12:51:26.999Z</time></trkpt><trkpt lat="44.73056867589146" lon="9.82536064552856"><ele>596.0</ele><time>2026-04-19T12:51:28.999Z</time></trkpt><trkpt lat="44.730506137401385" lon="9.825321156002417"><ele>596.0</ele><time>2026-04-19T12:51:29.999Z</time></trkpt><trkpt lat="44.73044397245043" lon="9.825277396582564"><ele>596.0</ele><time>2026-04-19T12:51:30.999Z</time></trkpt><trkpt lat="44.73038990722416" lon="9.82522810928839"><ele>596.0</ele><time>2026-04-19T12:51:31.999Z</time></trkpt><trkpt lat="44.730328375939344" lon="9.825099403398312"><ele>596.0</ele><time>2026-04-19T12:51:33.999Z</time></trkpt><trkpt lat="44.73026896961874" lon="9.824997248330247"><ele>596.0</ele><time>2026-04-19T12:51:35.999Z</time></trkpt><trkpt lat="44.73015003911182" lon="9.82499742381866"><ele>596.3333333333333</ele><time>2026-04-19T12:51:37.999Z</time></trkpt><trkpt lat="44.730082953136574" lon="9.825018277513205"><ele>596.6666666666666</ele><time>2026-04-19T12:51:38.999Z</time></trkpt><trkpt lat="44.72999576808961" lon="9.825075378519506"><ele>597.0</ele><time>2026-04-19T12:51:40.999Z</time></trkpt><trkpt lat="44.729923043533006" lon="9.825146687813746"><ele>597.3333333333334</ele><time>2026-04-19T12:51:42.999Z</time></trkpt><trkpt lat="44.72987900458534" lon="9.825265803283026"><ele>597.6666666666667</ele><time>2026-04-19T12:51:44.999Z</time></trkpt><trkpt lat="44.72985705830672" lon="9.825394488980388"><ele>598.0</ele><time>2026-04-19T12:51:46.999Z</time></trkpt><trkpt lat="44.72976032023845" lon="9.825489835064682"><ele>598.0</ele><time>2026-04-19T12:51:48.999Z</time></trkpt><trkpt lat="44.72970728486837" lon="9.825540700517346"><ele>598.0</ele><time>2026-04-19T12:51:49.999Z</time></trkpt><trkpt lat="44.729649793413095" lon="9.825629965876049"><ele>598.0</ele><time>2026-04-19T12:51:51.999Z</time></trkpt><trkpt lat="44.729577936321654" lon="9.825778555662199"><ele>598.0</ele><time>2026-04-19T12:51:53.999Z</time></trkpt><trkpt lat="44.729500317986975" lon="9.825886672458068"><ele>598.0</ele><time>2026-04-19T12:51:55.999Z</time></trkpt><trkpt lat="44.72944878858803" lon="9.825963180454762"><ele>597.6</ele><time>2026-04-19T12:51:57.999Z</time></trkpt><trkpt lat="44.72941609856269" lon="9.826105745867965"><ele>597.1999999999999</ele><time>2026-04-19T12:51:59.999Z</time></trkpt><trkpt lat="44.729401723805346" lon="9.82621980087295"><ele>596.8</ele><time>2026-04-19T12:52:01.999Z</time></trkpt><trkpt lat="44.729428916589654" lon="9.82636998532226"><ele>596.4</ele><time>2026-04-19T12:52:03.999Z</time></trkpt><trkpt lat="44.72943786635988" lon="9.826463295686327"><ele>596.0</ele><time>2026-04-19T12:52:05.999Z</time></trkpt><trkpt lat="44.729464899603414" lon="9.826602119655648"><ele>596.0</ele><time>2026-04-19T12:52:07.999Z</time></trkpt><trkpt lat="44.72947628815999" lon="9.826785512428913"><ele>596.0</ele><time>2026-04-19T12:52:09.999Z</time></trkpt><trkpt lat="44.729458280840376" lon="9.826940612243986"><ele>596.0</ele><time>2026-04-19T12:52:11.999Z</time></trkpt><trkpt lat="44.72945975456708" lon="9.827059208710049"><ele>596.0</ele><time>2026-04-19T12:52:13.999Z</time></trkpt><trkpt lat="44.729451149181095" lon="9.827176726866629"><ele>596.0</ele><time>2026-04-19T12:52:16Z</time></trkpt><trkpt lat="44.72939016209963" lon="9.827278136174067"><ele>599.1666666666666</ele><time>2026-04-19T12:52:19Z</time></trkpt><trkpt lat="44.72932888455865" lon="9.827365234205772"><ele>602.3333333333333</ele><time>2026-04-19T12:52:21Z</time></trkpt><trkpt lat="44.72926708622417" lon="9.827448221821948"><ele>605.5</ele><time>2026-04-19T12:52:23Z</time></trkpt><trkpt lat="44.72920578922694" lon="9.827562650812494"><ele>608.6666666666666</ele><time>2026-04-19T12:52:26Z</time></trkpt><trkpt lat="44.72916231429836" lon="9.827627014724484"><ele>611.8333333333334</ele><time>2026-04-19T12:52:27Z</time></trkpt><trkpt lat="44.72911538192459" lon="9.82773419381045"><ele>615.0</ele><time>2026-04-19T12:52:29Z</time></trkpt><trkpt lat="44.72907133904242" lon="9.827842948671734"><ele>615.0</ele><time>2026-04-19T12:52:37.999Z</time></trkpt><trkpt lat="44.72904459225135" lon="9.827939276140606"><ele>615.0</ele><time>2026-04-19T12:52:54.999Z</time></trkpt><trkpt lat="44.72903556439989" lon="9.828047227003308"><ele>615.0</ele><time>2026-04-19T12:53:02.999Z</time></trkpt><trkpt lat="44.729085105403485" lon="9.82814113427497"><ele>615.0</ele><time>2026-04-19T12:53:43.999Z</time></trkpt><trkpt lat="44.72905475027163" lon="9.828272459379633"><ele>615.0</ele><time>2026-04-19T12:53:44.999Z</time></trkpt><trkpt lat="44.729042067188225" lon="9.828408645598671"><ele>615.0</ele><time>2026-04-19T12:53:46.999Z</time></trkpt><trkpt lat="44.72902629297068" lon="9.82852571584901"><ele>616.4</ele><time>2026-04-19T12:53:49Z</time></trkpt><trkpt lat="44.72905178538508" lon="9.828631127501016"><ele>617.8</ele><time>2026-04-19T12:53:50Z</time></trkpt><trkpt lat="44.72906114989662" lon="9.828821902016141"><ele>619.2</ele><time>2026-04-19T12:53:52Z</time></trkpt><trkpt lat="44.729058214718535" lon="9.828943187230783"><ele>620.6</ele><time>2026-04-19T12:53:53Z</time></trkpt><trkpt lat="44.729043430284904" lon="9.829054823343451"><ele>622.0</ele><time>2026-04-19T12:53:54Z</time></trkpt><trkpt lat="44.729018839724084" lon="9.829170355389413"><ele>622.0</ele><time>2026-04-19T12:53:55Z</time></trkpt><trkpt lat="44.72898985003813" lon="9.82930236045941"><ele>622.0</ele><time>2026-04-19T12:53:56Z</time></trkpt><trkpt lat="44.728967492733936" lon="9.829444368271815"><ele>622.0</ele><time>2026-04-19T12:53:58Z</time></trkpt><trkpt lat="44.72893223862523" lon="9.829522400107018"><ele>622.0</ele><time>2026-04-19T12:53:59Z</time></trkpt><trkpt lat="44.728859133070415" lon="9.829606768421366"><ele>622.0</ele><time>2026-04-19T12:54:01Z</time></trkpt><trkpt lat="44.72880961372389" lon="9.829674488549317"><ele>622.0</ele><time>2026-04-19T12:54:03Z</time></trkpt><trkpt lat="44.72881462749346" lon="9.8298253075556"><ele>623.0</ele><time>2026-04-19T12:54:06Z</time></trkpt><trkpt lat="44.728839308276484" lon="9.829939355752673"><ele>624.0</ele><time>2026-04-19T12:54:08Z</time></trkpt><trkpt lat="44.72884658570163" lon="9.830099786619108"><ele>625.0</ele><time>2026-04-19T12:54:10Z</time></trkpt><trkpt lat="44.7288654208621" lon="9.830317308241321"><ele>626.0</ele><time>2026-04-19T12:54:12Z</time></trkpt><trkpt lat="44.72888774249886" lon="9.830440910794664"><ele>627.0</ele><time>2026-04-19T12:54:13Z</time></trkpt><trkpt lat="44.72888894906601" lon="9.83061458527698"><ele>627.3333333333334</ele><time>2026-04-19T12:54:15Z</time></trkpt><trkpt lat="44.728879117445814" lon="9.830703626601457"><ele>627.6666666666666</ele><time>2026-04-19T12:54:16Z</time></trkpt><trkpt lat="44.72882574086899" lon="9.830832359165887"><ele>628.0</ele><time>2026-04-19T12:54:18Z</time></trkpt><trkpt lat="44.728786415217705" lon="9.830904891628228"><ele>628.3333333333333</ele><time>2026-04-19T12:54:20Z</time></trkpt><trkpt lat="44.72872588969513" lon="9.830966983072251"><ele>628.6666666666666</ele><time>2026-04-19T12:54:22.001Z</time></trkpt><trkpt lat="44.72862585513746" lon="9.831017064803348"><ele>629.0</ele><time>2026-04-19T12:54:24.001Z</time></trkpt><trkpt lat="44.72854818654461" lon="9.831101584087069"><ele>633.0</ele><time>2026-04-19T12:54:26.001Z</time></trkpt><trkpt lat="44.7285282964754" lon="9.831225691172842"><ele>637.0</ele><time>2026-04-19T12:54:29.001Z</time></trkpt><trkpt lat="44.728505368727404" lon="9.83131439632352"><ele>641.0</ele><time>2026-04-19T12:54:31.001Z</time></trkpt><trkpt lat="44.72841411000946" lon="9.83141115687932"><ele>645.0</ele><time>2026-04-19T12:54:34.001Z</time></trkpt><trkpt lat="44.72833552493442" lon="9.831454111943446"><ele>649.0</ele><time>2026-04-19T12:54:35.001Z</time></trkpt><trkpt lat="44.72829312312074" lon="9.831522137303452"><ele>653.0</ele><time>2026-04-19T12:54:37.001Z</time></trkpt><trkpt lat="44.728291831816854" lon="9.831615533540717"><ele>652.25</ele><time>2026-04-19T12:54:39Z</time></trkpt><trkpt lat="44.72820626977485" lon="9.83181978879129"><ele>651.5</ele><time>2026-04-19T12:54:41Z</time></trkpt><trkpt lat="44.72814495981849" lon="9.831966764242058"><ele>650.75</ele><time>2026-04-19T12:54:43Z</time></trkpt><trkpt lat="44.72810310233206" lon="9.832045686698777"><ele>650.0</ele><time>2026-04-19T12:54:44Z</time></trkpt><trkpt lat="44.72807423185822" lon="9.83218436571235"><ele>650.0</ele><time>2026-04-19T12:54:46Z</time></trkpt><trkpt lat="44.728033670205086" lon="9.832256616026433"><ele>650.0</ele><time>2026-04-19T12:54:48Z</time></trkpt><trkpt lat="44.727995784041504" lon="9.832342121735794"><ele>650.0</ele><time>2026-04-19T12:54:50Z</time></trkpt><trkpt lat="44.727957300545825" lon="9.832462745158605"><ele>650.0</ele><time>2026-04-19T12:54:52Z</time></trkpt><trkpt lat="44.7279534912681" lon="9.832635701170096"><ele>650.0</ele><time>2026-04-19T12:54:54Z</time></trkpt><trkpt lat="44.72794309923066" lon="9.832746629203868"><ele>650.0</ele><time>2026-04-19T12:54:55Z</time></trkpt><trkpt lat="44.72791274804286" lon="9.832836898400162"><ele>649.0</ele><time>2026-04-19T12:54:56Z</time></trkpt><trkpt lat="44.72789044359546" lon="9.832954840718468"><ele>648.0</ele><time>2026-04-19T12:54:57Z</time></trkpt><trkpt lat="44.727846451589386" lon="9.833074817635817"><ele>647.0</ele><time>2026-04-19T12:54:58Z</time></trkpt><trkpt lat="44.72780525872316" lon="9.833187539344644"><ele>646.0</ele><time>2026-04-19T12:54:59Z</time></trkpt><trkpt lat="44.72775676263626" lon="9.833291249249799"><ele>645.0</ele><time>2026-04-19T12:55:00Z</time></trkpt><trkpt lat="44.72771833902014" lon="9.833363603126958"><ele>644.0</ele><time>2026-04-19T12:55:01Z</time></trkpt><trkpt lat="44.727643717998426" lon="9.833491913538476"><ele>643.3333333333333</ele><time>2026-04-19T12:55:03Z</time></trkpt><trkpt lat="44.72760169943819" lon="9.833590345401277"><ele>642.6666666666666</ele><time>2026-04-19T12:55:07Z</time></trkpt><trkpt lat="44.72757704112731" lon="9.833708905723212"><ele>642.0</ele><time>2026-04-19T12:55:09Z</time></trkpt><trkpt lat="44.727621388386424" lon="9.83377398529681"><ele>641.3333333333334</ele><time>2026-04-19T12:55:10Z</time></trkpt><trkpt lat="44.72770373112866" lon="9.833855897735715"><ele>640.6666666666667</ele><time>2026-04-19T12:55:12Z</time></trkpt><trkpt lat="44.72772872602804" lon="9.833960196522446"><ele>640.0</ele><time>2026-04-19T12:55:14Z</time></trkpt><trkpt lat="44.72776993708232" lon="9.834087714323298"><ele>640.0</ele><time>2026-04-19T12:55:17Z</time></trkpt><trkpt lat="44.7277685486774" lon="9.834182474387871"><ele>640.0</ele><time>2026-04-19T12:55:21Z</time></trkpt><trkpt lat="44.72777037552502" lon="9.834323191726803"><ele>640.0</ele><time>2026-04-19T12:55:23Z</time></trkpt><trkpt lat="44.72777500627415" lon="9.834440271244901"><ele>640.0</ele><time>2026-04-19T12:55:24Z</time></trkpt><trkpt lat="44.727771022912194" lon="9.83457968223109"><ele>640.0</ele><time>2026-04-19T12:55:25Z</time></trkpt><trkpt lat="44.72776608866498" lon="9.83471002443768"><ele>640.0</ele><time>2026-04-19T12:55:26Z</time></trkpt><trkpt lat="44.727758179485434" lon="9.834841098396067"><ele>639.5</ele><time>2026-04-19T12:55:27Z</time></trkpt><trkpt lat="44.72774672530536" lon="9.834962740862183"><ele>639.0</ele><time>2026-04-19T12:55:28Z</time></trkpt><trkpt lat="44.72774291481402" lon="9.835064436265146"><ele>638.5</ele><time>2026-04-19T12:55:29Z</time></trkpt><trkpt lat="44.72773549793604" lon="9.83517453640832"><ele>638.0</ele><time>2026-04-19T12:55:30Z</time></trkpt><trkpt lat="44.727729478458016" lon="9.835278637207235"><ele>637.5</ele><time>2026-04-19T12:55:31Z</time></trkpt><trkpt lat="44.72767686096273" lon="9.835430059763294"><ele>637.0</ele><time>2026-04-19T12:55:33Z</time></trkpt><trkpt lat="44.727644679749226" lon="9.835521817662698"><ele>641.8</ele><time>2026-04-19T12:55:34Z</time></trkpt><trkpt lat="44.727602341173196" lon="9.835613348217507"><ele>646.6</ele><time>2026-04-19T12:55:35Z</time></trkpt><trkpt lat="44.72754588302455" lon="9.835716606682773"><ele>651.4</ele><time>2026-04-19T12:55:36Z</time></trkpt><trkpt lat="44.72748850059582" lon="9.835821139482972"><ele>656.1999999999999</ele><time>2026-04-19T12:55:37Z</time></trkpt><trkpt lat="44.727431227811906" lon="9.83595904586858"><ele>661.0</ele><time>2026-04-19T12:55:39Z</time></trkpt><trkpt lat="44.727439702614156" lon="9.836084205266024"><ele>662.0</ele><time>2026-04-19T12:55:41Z</time></trkpt><trkpt lat="44.72749130917384" lon="9.836149713739102"><ele>663.0</ele><time>2026-04-19T12:55:44Z</time></trkpt><trkpt lat="44.72760157586742" lon="9.836189341929778"><ele>664.0</ele><time>2026-04-19T12:55:46Z</time></trkpt><trkpt lat="44.72768886747835" lon="9.836301598707957"><ele>665.0</ele><time>2026-04-19T12:55:48Z</time></trkpt><trkpt lat="44.72770138782197" lon="9.836396446091166"><ele>666.0</ele><time>2026-04-19T12:55:49Z</time></trkpt><trkpt lat="44.727698560312454" lon="9.836512007066139"><ele>666.0</ele><time>2026-04-19T12:55:50Z</time></trkpt><trkpt lat="44.72770889015588" lon="9.83664142132102"><ele>666.0</ele><time>2026-04-19T12:55:51Z</time></trkpt><trkpt lat="44.727710132802585" lon="9.836779660956507"><ele>666.0</ele><time>2026-04-19T12:55:52Z</time></trkpt><trkpt lat="44.727705701950654" lon="9.836907819104235"><ele>666.0</ele><time>2026-04-19T12:55:53Z</time></trkpt><trkpt lat="44.72771401818372" lon="9.837030762911942"><ele>666.0</ele><time>2026-04-19T12:55:54Z</time></trkpt><trkpt lat="44.727752920450925" lon="9.83713910439711"><ele>663.4</ele><time>2026-04-19T12:55:55Z</time></trkpt><trkpt lat="44.72780241064993" lon="9.837239107440228"><ele>660.8</ele><time>2026-04-19T12:55:56Z</time></trkpt><trkpt lat="44.72785240961389" lon="9.837337072361622"><ele>658.1999999999999</ele><time>2026-04-19T12:55:57Z</time></trkpt><trkpt lat="44.727907599078996" lon="9.837445900324516"><ele>655.5999999999999</ele><time>2026-04-19T12:55:58Z</time></trkpt><trkpt lat="44.72795965119906" lon="9.837554517000733"><ele>653.0</ele><time>2026-04-19T12:55:59Z</time></trkpt><trkpt lat="44.7280122874137" lon="9.837656707415439"><ele>653.0</ele><time>2026-04-19T12:56:00Z</time></trkpt><trkpt lat="44.72806219434709" lon="9.837783457918048"><ele>653.0</ele><time>2026-04-19T12:56:01Z</time></trkpt><trkpt lat="44.72810687172082" lon="9.83791861144707"><ele>653.0</ele><time>2026-04-19T12:56:02Z</time></trkpt><trkpt lat="44.72815525555827" lon="9.838043050756157"><ele>653.0</ele><time>2026-04-19T12:56:03Z</time></trkpt><trkpt lat="44.72820689615768" lon="9.838167201839896"><ele>653.0</ele><time>2026-04-19T12:56:04Z</time></trkpt><trkpt lat="44.72826741918193" lon="9.838278908667684"><ele>653.0</ele><time>2026-04-19T12:56:05Z</time></trkpt><trkpt lat="44.728327099028604" lon="9.838383398115726"><ele>653.0</ele><time>2026-04-19T12:56:06Z</time></trkpt><trkpt lat="44.72838981171829" lon="9.83848228675692"><ele>653.0</ele><time>2026-04-19T12:56:07Z</time></trkpt><trkpt lat="44.72845109558188" lon="9.8385926500885"><ele>653.0</ele><time>2026-04-19T12:56:08Z</time></trkpt><trkpt lat="44.72851961955869" lon="9.838713429569095"><ele>653.0</ele><time>2026-04-19T12:56:09Z</time></trkpt><trkpt lat="44.728605131377506" lon="9.83880849126351"><ele>650.8333333333333</ele><time>2026-04-19T12:56:10Z</time></trkpt><trkpt lat="44.72869234446366" lon="9.838856984193649"><ele>648.6666666666666</ele><time>2026-04-19T12:56:11Z</time></trkpt><trkpt lat="44.728773638971425" lon="9.83889777891959"><ele>646.5</ele><time>2026-04-19T12:56:12Z</time></trkpt><trkpt lat="44.72884969136758" lon="9.838959921551593"><ele>644.3333333333334</ele><time>2026-04-19T12:56:13Z</time></trkpt><trkpt lat="44.728927080907766" lon="9.839026743309926"><ele>642.1666666666667</ele><time>2026-04-19T12:56:14Z</time></trkpt><trkpt lat="44.728996063826166" lon="9.83910088893031"><ele>640.0</ele><time>2026-04-19T12:56:15Z</time></trkpt><trkpt lat="44.72904780817266" lon="9.839178579095964"><ele>640.0</ele><time>2026-04-19T12:56:16Z</time></trkpt><trkpt lat="44.72909420123613" lon="9.839264989849756"><ele>640.0</ele><time>2026-04-19T12:56:17Z</time></trkpt><trkpt lat="44.72914302272846" lon="9.839390734508006"><ele>640.0</ele><time>2026-04-19T12:56:19Z</time></trkpt><trkpt lat="44.72917350886086" lon="9.839471089544244"><ele>640.0</ele><time>2026-04-19T12:56:21Z</time></trkpt><trkpt lat="44.729147942166556" lon="9.839603303435547"><ele>640.0</ele><time>2026-04-19T12:56:24Z</time></trkpt><trkpt lat="44.72909853144045" lon="9.839702482315369"><ele>640.0</ele><time>2026-04-19T12:56:26Z</time></trkpt><trkpt lat="44.72921139825984" lon="9.839780765719272"><ele>639.0</ele><time>2026-04-19T12:56:31.001Z</time></trkpt><trkpt lat="44.72928775425301" lon="9.839850730715133"><ele>638.0</ele><time>2026-04-19T12:56:32.001Z</time></trkpt><trkpt lat="44.72934563515748" lon="9.839923275466603"><ele>637.0</ele><time>2026-04-19T12:56:33.001Z</time></trkpt><trkpt lat="44.72943280697156" lon="9.840034358851584"><ele>636.0</ele><time>2026-04-19T12:56:35.001Z</time></trkpt><trkpt lat="44.7294946470628" lon="9.84013455318145"><ele>635.0</ele><time>2026-04-19T12:56:37.001Z</time></trkpt><trkpt lat="44.72956438085637" lon="9.840301417062825"><ele>637.0</ele><time>2026-04-19T12:56:39.001Z</time></trkpt><trkpt lat="44.729606844413695" lon="9.840408746988665"><ele>639.0</ele><time>2026-04-19T12:56:40.001Z</time></trkpt><trkpt lat="44.72966795572622" lon="9.840524306037514"><ele>641.0</ele><time>2026-04-19T12:56:41.001Z</time></trkpt><trkpt lat="44.72972815178263" lon="9.840604826604217"><ele>643.0</ele><time>2026-04-19T12:56:42.001Z</time></trkpt><trkpt lat="44.72978105771338" lon="9.840723500937216"><ele>645.0</ele><time>2026-04-19T12:56:44.001Z</time></trkpt><trkpt lat="44.72980878116939" lon="9.840815711158324"><ele>647.0</ele><time>2026-04-19T12:57:00Z</time></trkpt><trkpt lat="44.72979567844343" lon="9.840941234152863"><ele>648.3333333333333</ele><time>2026-04-19T12:57:44Z</time></trkpt><trkpt lat="44.729774031102394" lon="9.841040354668117"><ele>649.6666666666666</ele><time>2026-04-19T12:57:46Z</time></trkpt><trkpt lat="44.72978753987874" lon="9.84113915003706"><ele>651.0</ele><time>2026-04-19T12:57:48Z</time></trkpt><trkpt lat="44.729787030273904" lon="9.841294738398682"><ele>652.3333333333334</ele><time>2026-04-19T12:57:50Z</time></trkpt><trkpt lat="44.72972296111282" lon="9.84135190130962"><ele>653.6666666666667</ele><time>2026-04-19T12:57:55Z</time></trkpt><trkpt lat="44.72963362870196" lon="9.841266891585757"><ele>655.0</ele><time>2026-04-19T12:57:58Z</time></trkpt><trkpt lat="44.72956834249942" lon="9.841297015677421"><ele>655.0</ele><time>2026-04-19T12:58:02Z</time></trkpt><trkpt lat="44.72946541155176" lon="9.841331370671167"><ele>655.0</ele><time>2026-04-19T12:58:05Z</time></trkpt><trkpt lat="44.72935998242979" lon="9.841362945648807"><ele>655.0</ele><time>2026-04-19T12:58:07Z</time></trkpt><trkpt lat="44.729302246423096" lon="9.841416972470464"><ele>655.0</ele><time>2026-04-19T12:58:09Z</time></trkpt><trkpt lat="44.729229048310714" lon="9.841533303479014"><ele>655.0</ele><time>2026-04-19T12:58:11Z</time></trkpt><trkpt lat="44.729161079250765" lon="9.841557272750387"><ele>659.2</ele><time>2026-04-19T12:58:14Z</time></trkpt><trkpt lat="44.72908906674725" lon="9.841611288150037"><ele>663.4</ele><time>2026-04-19T12:59:22Z</time></trkpt><trkpt lat="44.72903979705881" lon="9.841670888081714"><ele>667.5999999999999</ele><time>2026-04-19T12:59:24Z</time></trkpt><trkpt lat="44.72896411715225" lon="9.84181060423655"><ele>671.8</ele><time>2026-04-19T12:59:26Z</time></trkpt><trkpt lat="44.72886511724537" lon="9.841917572807203"><ele>676.0</ele><time>2026-04-19T12:59:28Z</time></trkpt><trkpt lat="44.72881416598373" lon="9.841977232722696"><ele>676.8333333333334</ele><time>2026-04-19T12:59:29Z</time></trkpt><trkpt lat="44.72875411740607" lon="9.842043871385803"><ele>677.6666666666667</ele><time>2026-04-19T12:59:31Z</time></trkpt><trkpt lat="44.72868810417924" lon="9.842146425352436"><ele>678.5</ele><time>2026-04-19T12:59:33Z</time></trkpt><trkpt lat="44.728625770183314" lon="9.84224157715454"><ele>679.3333333333334</ele><time>2026-04-19T12:59:35Z</time></trkpt><trkpt lat="44.728550442513324" lon="9.842336735752276"><ele>680.1666666666666</ele><time>2026-04-19T12:59:39Z</time></trkpt><trkpt lat="44.728504110491116" lon="9.842410052243608"><ele>681.0</ele><time>2026-04-19T12:59:41Z</time></trkpt><trkpt lat="44.72843957065688" lon="9.842455783819664"><ele>683.5999999999999</ele><time>2026-04-19T12:59:44Z</time></trkpt><trkpt lat="44.72836360793326" lon="9.842525418946634"><ele>686.2</ele><time>2026-04-19T12:59:46Z</time></trkpt><trkpt lat="44.7282891400062" lon="9.84264918821469"><ele>688.8</ele><time>2026-04-19T12:59:48Z</time></trkpt><trkpt lat="44.728235973460194" lon="9.842728290704054"><ele>691.4000000000001</ele><time>2026-04-19T12:59:50Z</time></trkpt><trkpt lat="44.72822136116247" lon="9.842825612891566"><ele>694.0</ele><time>2026-04-19T12:59:52Z</time></trkpt><trkpt lat="44.72814584966526" lon="9.842909864881378"><ele>695.6</ele><time>2026-04-19T12:59:54Z</time></trkpt><trkpt lat="44.72807459638418" lon="9.842937329171967"><ele>697.2</ele><time>2026-04-19T12:59:56Z</time></trkpt><trkpt lat="44.72803286635716" lon="9.84301142307068"><ele>698.8000000000001</ele><time>2026-04-19T12:59:58Z</time></trkpt><trkpt lat="44.727994213787795" lon="9.843134326227673"><ele>700.4000000000001</ele><time>2026-04-19T13:00:00Z</time></trkpt><trkpt lat="44.7279389064405" lon="9.843250175867432"><ele>702.0</ele><time>2026-04-19T13:00:02Z</time></trkpt><trkpt lat="44.727894144795414" lon="9.843419823101321"><ele>702.5</ele><time>2026-04-19T13:00:04Z</time></trkpt><trkpt lat="44.727874779105335" lon="9.843523599524104"><ele>703.0</ele><time>2026-04-19T13:00:05Z</time></trkpt><trkpt lat="44.72784338765325" lon="9.843619401400879"><ele>703.5</ele><time>2026-04-19T13:00:07Z</time></trkpt><trkpt lat="44.727780698492204" lon="9.843698445537067"><ele>704.0</ele><time>2026-04-19T13:00:10Z</time></trkpt><trkpt lat="44.7277052426416" lon="9.843755795877188"><ele>704.5</ele><time>2026-04-19T13:00:13Z</time></trkpt><trkpt lat="44.72760969301915" lon="9.84378689973465"><ele>705.0</ele><time>2026-04-19T13:00:15Z</time></trkpt><trkpt lat="44.727477733579605" lon="9.84382194465019"><ele>706.8</ele><time>2026-04-19T13:00:17Z</time></trkpt><trkpt lat="44.72737335166871" lon="9.84385711936151"><ele>708.6</ele><time>2026-04-19T13:00:19Z</time></trkpt><trkpt lat="44.72729258428434" lon="9.843910305364043"><ele>710.4000000000001</ele><time>2026-04-19T13:00:22Z</time></trkpt><trkpt lat="44.727183166444895" lon="9.843968232480476"><ele>712.2</ele><time>2026-04-19T13:00:24Z</time></trkpt><trkpt lat="44.727099308583114" lon="9.843998542589377"><ele>714.0</ele><time>2026-04-19T13:00:26Z</time></trkpt><trkpt lat="44.72700233252476" lon="9.844012791506577"><ele>714.0</ele><time>2026-04-19T13:00:28Z</time></trkpt><trkpt lat="44.72693232299941" lon="9.844089343109296"><ele>714.0</ele><time>2026-04-19T13:00:29Z</time></trkpt><trkpt lat="44.72682254199169" lon="9.844144747719016"><ele>714.0</ele><time>2026-04-19T13:00:31Z</time></trkpt><trkpt lat="44.72672304655775" lon="9.844198969155944"><ele>714.0</ele><time>2026-04-19T13:00:33Z</time></trkpt><trkpt lat="44.72658357678625" lon="9.84424081772023"><ele>715.8333333333334</ele><time>2026-04-19T13:00:35Z</time></trkpt><trkpt lat="44.72649264685475" lon="9.844250835314538"><ele>717.6666666666666</ele><time>2026-04-19T13:00:36Z</time></trkpt><trkpt lat="44.72642180957624" lon="9.844249421005388"><ele>719.5</ele><time>2026-04-19T13:00:37Z</time></trkpt><trkpt lat="44.726349557613425" lon="9.844281665978816"><ele>721.3333333333333</ele><time>2026-04-19T13:00:39Z</time></trkpt><trkpt lat="44.726304136338406" lon="9.844413200643938"><ele>723.1666666666666</ele><time>2026-04-19T13:00:41Z</time></trkpt><trkpt lat="44.72630030133282" lon="9.844515289741055"><ele>725.0</ele><time>2026-04-19T13:00:42Z</time></trkpt><trkpt lat="44.72627342189256" lon="9.844606210014158"><ele>725.0</ele><time>2026-04-19T13:00:43Z</time></trkpt><trkpt lat="44.726238713103115" lon="9.844684553986532"><ele>725.0</ele><time>2026-04-19T13:00:44Z</time></trkpt><trkpt lat="44.72621295205193" lon="9.844834019463839"><ele>725.0</ele><time>2026-04-19T13:00:46Z</time></trkpt><trkpt lat="44.72618741403717" lon="9.844993312851473"><ele>725.0</ele><time>2026-04-19T13:00:48Z</time></trkpt><trkpt lat="44.726172402310475" lon="9.845131438450077"><ele>725.0</ele><time>2026-04-19T13:00:50Z</time></trkpt><trkpt lat="44.72616422874294" lon="9.845232360249039"><ele>724.3333333333333</ele><time>2026-04-19T13:00:52Z</time></trkpt><trkpt lat="44.72615016510904" lon="9.845324094056489"><ele>723.6666666666666</ele><time>2026-04-19T13:00:54Z</time></trkpt><trkpt lat="44.7261511994935" lon="9.84542247037287"><ele>723.0</ele><time>2026-04-19T13:00:55Z</time></trkpt><trkpt lat="44.72614237189637" lon="9.84554206743349"><ele>722.3333333333334</ele><time>2026-04-19T13:00:56Z</time></trkpt><trkpt lat="44.72614234544061" lon="9.845653818128577"><ele>721.6666666666667</ele><time>2026-04-19T13:00:57Z</time></trkpt><trkpt lat="44.726146505683886" lon="9.845754978127184"><ele>721.0</ele><time>2026-04-19T13:00:58Z</time></trkpt><trkpt lat="44.7261625163729" lon="9.845870184219374"><ele>721.0</ele><time>2026-04-19T13:00:59Z</time></trkpt><trkpt lat="44.72617147861023" lon="9.845959442623776"><ele>721.0</ele><time>2026-04-19T13:01:00Z</time></trkpt><trkpt lat="44.726149305554" lon="9.846063639686502"><ele>721.0</ele><time>2026-04-19T13:01:02Z</time></trkpt><trkpt lat="44.72610106636348" lon="9.846137178197914"><ele>721.0</ele><time>2026-04-19T13:01:04Z</time></trkpt><trkpt lat="44.7260615949504" lon="9.846273420067524"><ele>721.0</ele><time>2026-04-19T13:01:06Z</time></trkpt><trkpt lat="44.7260632644242" lon="9.846400701919753"><ele>721.0</ele><time>2026-04-19T13:01:07Z</time></trkpt><trkpt lat="44.726062924361244" lon="9.846538135071954"><ele>721.8</ele><time>2026-04-19T13:01:08Z</time></trkpt><trkpt lat="44.72604541301696" lon="9.846680818157404"><ele>722.5999999999999</ele><time>2026-04-19T13:01:09Z</time></trkpt><trkpt lat="44.72601764660727" lon="9.846822293960924"><ele>723.4</ele><time>2026-04-19T13:01:10Z</time></trkpt><trkpt lat="44.72597973889185" lon="9.846961115200605"><ele>724.2</ele><time>2026-04-19T13:01:11Z</time></trkpt><trkpt lat="44.72593657663339" lon="9.84710790626792"><ele>725.0</ele><time>2026-04-19T13:01:12Z</time></trkpt><trkpt lat="44.725894755323374" lon="9.84726547323286"><ele>725.0</ele><time>2026-04-19T13:01:13Z</time></trkpt><trkpt lat="44.725856773116774" lon="9.847425435812356"><ele>725.0</ele><time>2026-04-19T13:01:14Z</time></trkpt><trkpt lat="44.72582137344829" lon="9.847561633327286"><ele>725.0</ele><time>2026-04-19T13:01:15Z</time></trkpt><trkpt lat="44.72577975564157" lon="9.847697104622965"><ele>725.0</ele><time>2026-04-19T13:01:16Z</time></trkpt><trkpt lat="44.725743233273946" lon="9.847839898346077"><ele>725.0</ele><time>2026-04-19T13:01:17Z</time></trkpt><trkpt lat="44.725711001370115" lon="9.847980831380442"><ele>726.0</ele><time>2026-04-19T13:01:18Z</time></trkpt><trkpt lat="44.72567713998653" lon="9.848124352900834"><ele>727.0</ele><time>2026-04-19T13:01:19Z</time></trkpt><trkpt lat="44.72564509565671" lon="9.848271571802806"><ele>728.0</ele><time>2026-04-19T13:01:20Z</time></trkpt><trkpt lat="44.72561951179342" lon="9.848429212281811"><ele>729.0</ele><time>2026-04-19T13:01:21Z</time></trkpt><trkpt lat="44.72560269845659" lon="9.848588118998459"><ele>730.0</ele><time>2026-04-19T13:01:22Z</time></trkpt><trkpt lat="44.72558721584467" lon="9.848752661577931"><ele>730.6</ele><time>2026-04-19T13:01:23Z</time></trkpt><trkpt lat="44.72557985482488" lon="9.848899517696259"><ele>731.2</ele><time>2026-04-19T13:01:24Z</time></trkpt><trkpt lat="44.72557256673709" lon="9.849029731657243"><ele>731.8</ele><time>2026-04-19T13:01:25Z</time></trkpt><trkpt lat="44.725559709339066" lon="9.84914198242927"><ele>732.4</ele><time>2026-04-19T13:01:26Z</time></trkpt><trkpt lat="44.72554789356078" lon="9.849248797324652"><ele>733.0</ele><time>2026-04-19T13:01:27Z</time></trkpt><trkpt lat="44.72553675984028" lon="9.84938372946709"><ele>734.25</ele><time>2026-04-19T13:01:28Z</time></trkpt><trkpt lat="44.72552591615633" lon="9.849537622589684"><ele>735.5</ele><time>2026-04-19T13:01:29Z</time></trkpt><trkpt lat="44.725514482989254" lon="9.849709710438818"><ele>736.75</ele><time>2026-04-19T13:01:30Z</time></trkpt><trkpt lat="44.72549927658727" lon="9.849895409348418"><ele>738.0</ele><time>2026-04-19T13:01:31Z</time></trkpt><trkpt lat="44.72547247111729" lon="9.850078477756238"><ele>739.5999999999999</ele><time>2026-04-19T13:01:32Z</time></trkpt><trkpt lat="44.72543530227152" lon="9.85024579570553"><ele>741.1999999999999</ele><time>2026-04-19T13:01:33Z</time></trkpt><trkpt lat="44.72539642453622" lon="9.85038419900085"><ele>742.8</ele><time>2026-04-19T13:01:34Z</time></trkpt><trkpt lat="44.72535411885446" lon="9.850513934150696"><ele>744.4</ele><time>2026-04-19T13:01:35Z</time></trkpt><trkpt lat="44.7253061511006" lon="9.850643743819028"><ele>746.0</ele><time>2026-04-19T13:01:36Z</time></trkpt><trkpt lat="44.72525049195385" lon="9.850769412138865"><ele>746.0</ele><time>2026-04-19T13:01:37Z</time></trkpt><trkpt lat="44.725194116257015" lon="9.850897575155617"><ele>746.0</ele><time>2026-04-19T13:01:38Z</time></trkpt><trkpt lat="44.72513468387255" lon="9.851024968855192"><ele>746.0</ele><time>2026-04-19T13:01:39Z</time></trkpt><trkpt lat="44.72507477462505" lon="9.851155386760249"><ele>746.0</ele><time>2026-04-19T13:01:40Z</time></trkpt><trkpt lat="44.725012381031135" lon="9.851290842008808"><ele>746.0</ele><time>2026-04-19T13:01:41Z</time></trkpt><trkpt lat="44.724946859527805" lon="9.851432461177843"><ele>746.0</ele><time>2026-04-19T13:01:42Z</time></trkpt><trkpt lat="44.72488573598204" lon="9.851560321280967"><ele>746.0</ele><time>2026-04-19T13:01:43Z</time></trkpt><trkpt lat="44.72483155058518" lon="9.851684591410402"><ele>746.0</ele><time>2026-04-19T13:01:44Z</time></trkpt><trkpt lat="44.72478393629542" lon="9.8518039121792"><ele>746.0</ele><time>2026-04-19T13:01:45Z</time></trkpt><trkpt lat="44.72474444665469" lon="9.85192141128006"><ele>746.0</ele><time>2026-04-19T13:01:46Z</time></trkpt><trkpt lat="44.72471050696372" lon="9.852033647605442"><ele>746.25</ele><time>2026-04-19T13:01:47Z</time></trkpt><trkpt lat="44.72467328824485" lon="9.852153033401015"><ele>746.5</ele><time>2026-04-19T13:01:48Z</time></trkpt><trkpt lat="44.724629005835354" lon="9.852303394346746"><ele>746.75</ele><time>2026-04-19T13:01:49Z</time></trkpt><trkpt lat="44.72458093586129" lon="9.852471460584946"><ele>747.0</ele><time>2026-04-19T13:01:50Z</time></trkpt><trkpt lat="44.724527221588595" lon="9.852632978278866"><ele>747.75</ele><time>2026-04-19T13:01:51Z</time></trkpt><trkpt lat="44.72446758490374" lon="9.852809060682482"><ele>748.5</ele><time>2026-04-19T13:01:52Z</time></trkpt><trkpt lat="44.724403605549114" lon="9.852996479004757"><ele>749.25</ele><time>2026-04-19T13:01:53Z</time></trkpt><trkpt lat="44.72434194263411" lon="9.853173587521539"><ele>750.0</ele><time>2026-04-19T13:01:54Z</time></trkpt><trkpt lat="44.724290027885694" lon="9.853336363744832"><ele>747.0</ele><time>2026-04-19T13:01:55Z</time></trkpt><trkpt lat="44.72424676525809" lon="9.853483787070017"><ele>744.0</ele><time>2026-04-19T13:01:56Z</time></trkpt><trkpt lat="44.72420792072381" lon="9.85362503156547"><ele>741.0</ele><time>2026-04-19T13:01:57Z</time></trkpt><trkpt lat="44.72416354880089" lon="9.853779000517244"><ele>738.0</ele><time>2026-04-19T13:01:58Z</time></trkpt><trkpt lat="44.72410954884473" lon="9.853936643479287"><ele>738.0</ele><time>2026-04-19T13:01:59Z</time></trkpt><trkpt lat="44.724058061108174" lon="9.854074638724676"><ele>738.0</ele><time>2026-04-19T13:02:00Z</time></trkpt><trkpt lat="44.72400064148356" lon="9.854212787328224"><ele>738.0</ele><time>2026-04-19T13:02:01Z</time></trkpt><trkpt lat="44.72393824074893" lon="9.854361768424374"><ele>738.0</ele><time>2026-04-19T13:02:02Z</time></trkpt><trkpt lat="44.72387233779168" lon="9.85450381211784"><ele>737.0</ele><time>2026-04-19T13:02:03Z</time></trkpt><trkpt lat="44.723807904703364" lon="9.854636288045041"><ele>736.0</ele><time>2026-04-19T13:02:04Z</time></trkpt><trkpt lat="44.72374330678104" lon="9.85476132341459"><ele>735.0</ele><time>2026-04-19T13:02:05Z</time></trkpt><trkpt lat="44.72368003395369" lon="9.854882122223176"><ele>734.0</ele><time>2026-04-19T13:02:06Z</time></trkpt><trkpt lat="44.72361920942326" lon="9.854998594175113"><ele>733.0</ele><time>2026-04-19T13:02:07Z</time></trkpt><trkpt lat="44.72355449630468" lon="9.855117869309979"><ele>731.4</ele><time>2026-04-19T13:02:08Z</time></trkpt><trkpt lat="44.72348663516942" lon="9.855241743305106"><ele>729.8</ele><time>2026-04-19T13:02:09Z</time></trkpt><trkpt lat="44.72342224430207" lon="9.855357116895577"><ele>728.2</ele><time>2026-04-19T13:02:10Z</time></trkpt><trkpt lat="44.723361466985416" lon="9.855472552379334"><ele>726.6</ele><time>2026-04-19T13:02:11Z</time></trkpt><trkpt lat="44.72329595588469" lon="9.855595574838915"><ele>725.0</ele><time>2026-04-19T13:02:12Z</time></trkpt><trkpt lat="44.72322895470489" lon="9.855728458244606"><ele>725.0</ele><time>2026-04-19T13:02:13Z</time></trkpt><trkpt lat="44.7231665292728" lon="9.855857539513803"><ele>725.0</ele><time>2026-04-19T13:02:14Z</time></trkpt><trkpt lat="44.72309609623894" lon="9.855996226770843"><ele>725.0</ele><time>2026-04-19T13:02:15Z</time></trkpt><trkpt lat="44.72302118987308" lon="9.85614046915133"><ele>725.0</ele><time>2026-04-19T13:02:16Z</time></trkpt><trkpt lat="44.722950199295" lon="9.856282224297686"><ele>723.25</ele><time>2026-04-19T13:02:17Z</time></trkpt><trkpt lat="44.72288042114214" lon="9.856418699257766"><ele>721.5</ele><time>2026-04-19T13:02:18Z</time></trkpt><trkpt lat="44.7228166268615" lon="9.85654695464693"><ele>719.75</ele><time>2026-04-19T13:02:19Z</time></trkpt><trkpt lat="44.722758240358374" lon="9.856674172211111"><ele>718.0</ele><time>2026-04-19T13:02:20Z</time></trkpt><trkpt lat="44.722703762486276" lon="9.856813695199063"><ele>716.5</ele><time>2026-04-19T13:02:21Z</time></trkpt><trkpt lat="44.7226489705349" lon="9.856965161715294"><ele>715.0</ele><time>2026-04-19T13:02:22Z</time></trkpt><trkpt lat="44.72260206717944" lon="9.85711073149942"><ele>713.5</ele><time>2026-04-19T13:02:23Z</time></trkpt><trkpt lat="44.72256088957811" lon="9.857247660950756"><ele>712.0</ele><time>2026-04-19T13:02:24Z</time></trkpt><trkpt lat="44.722521124054985" lon="9.857391555064583"><ele>712.0</ele><time>2026-04-19T13:02:25Z</time></trkpt><trkpt lat="44.7224850195896" lon="9.857536074970703"><ele>712.0</ele><time>2026-04-19T13:02:26Z</time></trkpt><trkpt lat="44.72245304015091" lon="9.857675487786326"><ele>712.0</ele><time>2026-04-19T13:02:27Z</time></trkpt><trkpt lat="44.72242861293984" lon="9.85779947905622"><ele>712.0</ele><time>2026-04-19T13:02:28Z</time></trkpt><trkpt lat="44.72240117085026" lon="9.857939195883775"><ele>712.0</ele><time>2026-04-19T13:02:29Z</time></trkpt><trkpt lat="44.722388692933855" lon="9.858089044393605"><ele>711.8</ele><time>2026-04-19T13:02:30Z</time></trkpt><trkpt lat="44.72239698293585" lon="9.85824292962356"><ele>711.6</ele><time>2026-04-19T13:02:31Z</time></trkpt><trkpt lat="44.72240869294869" lon="9.858394801846943"><ele>711.4</ele><time>2026-04-19T13:02:32Z</time></trkpt><trkpt lat="44.722416162927594" lon="9.858534928045543"><ele>711.1999999999999</ele><time>2026-04-19T13:02:33Z</time></trkpt><trkpt lat="44.72241899817571" lon="9.858668466236045"><ele>711.0</ele><time>2026-04-19T13:02:34Z</time></trkpt><trkpt lat="44.722403695395556" lon="9.858810789793342"><ele>710.1999999999999</ele><time>2026-04-19T13:02:35Z</time></trkpt><trkpt lat="44.722354779961336" lon="9.85894989005891"><ele>709.4</ele><time>2026-04-19T13:02:36Z</time></trkpt><trkpt lat="44.722283049712466" lon="9.859071661746478"><ele>708.6</ele><time>2026-04-19T13:02:37Z</time></trkpt><trkpt lat="44.72222145059823" lon="9.859180857384873"><ele>707.8</ele><time>2026-04-19T13:02:38Z</time></trkpt><trkpt lat="44.7221796692536" lon="9.859301203248618"><ele>707.0</ele><time>2026-04-19T13:02:39Z</time></trkpt><trkpt lat="44.722144028346996" lon="9.859442309205372"><ele>706.2</ele><time>2026-04-19T13:02:40Z</time></trkpt><trkpt lat="44.7221074133262" lon="9.859592220049105"><ele>705.4000000000001</ele><time>2026-04-19T13:02:41Z</time></trkpt><trkpt lat="44.722069669987825" lon="9.85974100445125"><ele>704.5999999999999</ele><time>2026-04-19T13:02:42Z</time></trkpt><trkpt lat="44.722025511252326" lon="9.859869656395878"><ele>703.8</ele><time>2026-04-19T13:02:43Z</time></trkpt><trkpt lat="44.7219658344283" lon="9.859980485934402"><ele>703.0</ele><time>2026-04-19T13:02:44Z</time></trkpt><trkpt lat="44.72189627014921" lon="9.860065391545211"><ele>703.3333333333334</ele><time>2026-04-19T13:02:45.001Z</time></trkpt><trkpt lat="44.72182927062458" lon="9.86012769920652"><ele>703.6666666666667</ele><time>2026-04-19T13:02:46.001Z</time></trkpt><trkpt lat="44.721734381664966" lon="9.86020217470173"><ele>704.0</ele><time>2026-04-19T13:02:48.001Z</time></trkpt><trkpt lat="44.721666318976574" lon="9.860214221271555"><ele>704.3333333333334</ele><time>2026-04-19T13:03:20Z</time></trkpt><trkpt lat="44.72160509936864" lon="9.8602706654005"><ele>704.6666666666666</ele><time>2026-04-19T13:04:27Z</time></trkpt><trkpt lat="44.72154352987483" lon="9.860317145230185"><ele>705.0</ele><time>2026-04-19T13:04:28Z</time></trkpt><trkpt lat="44.72146741470221" lon="9.86037788929451"><ele>705.0</ele><time>2026-04-19T13:04:29Z</time></trkpt><trkpt lat="44.721380073804546" lon="9.860460775103016"><ele>705.0</ele><time>2026-04-19T13:04:30Z</time></trkpt><trkpt lat="44.721292327127294" lon="9.860565072440519"><ele>705.0</ele><time>2026-04-19T13:04:31Z</time></trkpt><trkpt lat="44.72121011737187" lon="9.8606976497773"><ele>705.0</ele><time>2026-04-19T13:04:32Z</time></trkpt><trkpt lat="44.72112795065532" lon="9.860833952243652"><ele>703.0</ele><time>2026-04-19T13:04:33Z</time></trkpt><trkpt lat="44.72104586657543" lon="9.860966947345883"><ele>701.0</ele><time>2026-04-19T13:04:34Z</time></trkpt><trkpt lat="44.72096465983487" lon="9.861104544508297"><ele>699.0</ele><time>2026-04-19T13:04:35Z</time></trkpt><trkpt lat="44.72087487477831" lon="9.86125141116461"><ele>697.0</ele><time>2026-04-19T13:04:36Z</time></trkpt><trkpt lat="44.72077856978918" lon="9.861402385637014"><ele>697.0</ele><time>2026-04-19T13:04:37Z</time></trkpt><trkpt lat="44.72068528614788" lon="9.861555916649957"><ele>697.0</ele><time>2026-04-19T13:04:38Z</time></trkpt><trkpt lat="44.720601987672424" lon="9.86169648138457"><ele>697.0</ele><time>2026-04-19T13:04:39Z</time></trkpt><trkpt lat="44.72052083341181" lon="9.861835347409022"><ele>697.0</ele><time>2026-04-19T13:04:40Z</time></trkpt><trkpt lat="44.720440669156204" lon="9.861960779186202"><ele>695.75</ele><time>2026-04-19T13:04:41Z</time></trkpt><trkpt lat="44.72036232786933" lon="9.862084957700697"><ele>694.5</ele><time>2026-04-19T13:04:42Z</time></trkpt><trkpt lat="44.72028418184523" lon="9.862220908478196"><ele>693.25</ele><time>2026-04-19T13:04:43Z</time></trkpt><trkpt lat="44.72020330808239" lon="9.862360076695156"><ele>692.0</ele><time>2026-04-19T13:04:44Z</time></trkpt><trkpt lat="44.72011847858601" lon="9.86250063667802"><ele>692.0</ele><time>2026-04-19T13:04:45Z</time></trkpt><trkpt lat="44.72002848123548" lon="9.862639916083827"><ele>692.0</ele><time>2026-04-19T13:04:46Z</time></trkpt><trkpt lat="44.71994740121689" lon="9.862765355280478"><ele>692.0</ele><time>2026-04-19T13:04:47Z</time></trkpt><trkpt lat="44.7198772514042" lon="9.862891008512872"><ele>692.0</ele><time>2026-04-19T13:04:48Z</time></trkpt><trkpt lat="44.71981241184963" lon="9.863030057909377"><ele>692.0</ele><time>2026-04-19T13:04:49Z</time></trkpt><trkpt lat="44.71975356089135" lon="9.863180516932896"><ele>692.0</ele><time>2026-04-19T13:04:50Z</time></trkpt><trkpt lat="44.71970696053456" lon="9.863342452299863"><ele>692.0</ele><time>2026-04-19T13:04:51Z</time></trkpt><trkpt lat="44.719676596535386" lon="9.863517706307245"><ele>692.0</ele><time>2026-04-19T13:04:52Z</time></trkpt><trkpt lat="44.719648306907956" lon="9.863693615402854"><ele>692.25</ele><time>2026-04-19T13:04:53Z</time></trkpt><trkpt lat="44.719616389278" lon="9.863874275394618"><ele>692.5</ele><time>2026-04-19T13:04:54Z</time></trkpt><trkpt lat="44.71958075823888" lon="9.864059414415527"><ele>692.75</ele><time>2026-04-19T13:04:55Z</time></trkpt><trkpt lat="44.719547634697626" lon="9.864247811319665"><ele>693.0</ele><time>2026-04-19T13:04:56Z</time></trkpt><trkpt lat="44.71951155019125" lon="9.864440704090626"><ele>693.0</ele><time>2026-04-19T13:04:57Z</time></trkpt><trkpt lat="44.71947113969621" lon="9.864636396064839"><ele>693.0</ele><time>2026-04-19T13:04:58Z</time></trkpt><trkpt lat="44.71943121525288" lon="9.864819820192682"><ele>693.0</ele><time>2026-04-19T13:04:59Z</time></trkpt><trkpt lat="44.719394324243794" lon="9.864994108557214"><ele>693.0</ele><time>2026-04-19T13:05:00Z</time></trkpt><trkpt lat="44.719364534241485" lon="9.865164758755967"><ele>688.25</ele><time>2026-04-19T13:05:01Z</time></trkpt><trkpt lat="44.71933388348517" lon="9.865344647562024"><ele>683.5</ele><time>2026-04-19T13:05:02Z</time></trkpt><trkpt lat="44.71931818628243" lon="9.865532601370512"><ele>678.75</ele><time>2026-04-19T13:05:03Z</time></trkpt><trkpt lat="44.719324928971815" lon="9.86571897247268"><ele>674.0</ele><time>2026-04-19T13:05:04Z</time></trkpt><trkpt lat="44.71935203245879" lon="9.865893204857274"><ele>679.5</ele><time>2026-04-19T13:05:05Z</time></trkpt><trkpt lat="44.71940895837767" lon="9.866048038094453"><ele>685.0</ele><time>2026-04-19T13:05:06Z</time></trkpt><trkpt lat="44.71948244510556" lon="9.866199491194818"><ele>690.5</ele><time>2026-04-19T13:05:07Z</time></trkpt><trkpt lat="44.71954757303681" lon="9.866360573059348"><ele>696.0</ele><time>2026-04-19T13:05:08Z</time></trkpt><trkpt lat="44.71959437194963" lon="9.866545627635356"><ele>696.0</ele><time>2026-04-19T13:05:09Z</time></trkpt><trkpt lat="44.71962602450416" lon="9.866746784842745"><ele>696.0</ele><time>2026-04-19T13:05:10Z</time></trkpt><trkpt lat="44.71966204778021" lon="9.86694467918408"><ele>696.0</ele><time>2026-04-19T13:05:11Z</time></trkpt><trkpt lat="44.71971089780308" lon="9.867126791133588"><ele>696.0</ele><time>2026-04-19T13:05:12Z</time></trkpt><trkpt lat="44.71975552702932" lon="9.867318743671458"><ele>695.0</ele><time>2026-04-19T13:05:13Z</time></trkpt><trkpt lat="44.71978959171151" lon="9.867516900965825"><ele>694.0</ele><time>2026-04-19T13:05:14Z</time></trkpt><trkpt lat="44.71981261964003" lon="9.867718980083952"><ele>693.0</ele><time>2026-04-19T13:05:15Z</time></trkpt><trkpt lat="44.719825506075814" lon="9.867913085514486"><ele>692.0</ele><time>2026-04-19T13:05:16Z</time></trkpt><trkpt lat="44.7198436819011" lon="9.86809410306538"><ele>689.75</ele><time>2026-04-19T13:05:17Z</time></trkpt><trkpt lat="44.71987224123744" lon="9.868274346822924"><ele>687.5</ele><time>2026-04-19T13:05:18Z</time></trkpt><trkpt lat="44.71991326095232" lon="9.86846321214684"><ele>685.25</ele><time>2026-04-19T13:05:19Z</time></trkpt><trkpt lat="44.71997036342452" lon="9.868650059853275"><ele>683.0</ele><time>2026-04-19T13:05:20Z</time></trkpt><trkpt lat="44.72003746026144" lon="9.868838758211501"><ele>680.75</ele><time>2026-04-19T13:05:21Z</time></trkpt><trkpt lat="44.72009923789882" lon="9.869017784363217"><ele>678.5</ele><time>2026-04-19T13:05:22Z</time></trkpt><trkpt lat="44.72014187364248" lon="9.869190478738652"><ele>676.25</ele><time>2026-04-19T13:05:23Z</time></trkpt><trkpt lat="44.720173075705304" lon="9.869358274160609"><ele>674.0</ele><time>2026-04-19T13:05:24Z</time></trkpt><trkpt lat="44.72021436876617" lon="9.869513137882725"><ele>676.5</ele><time>2026-04-19T13:05:25Z</time></trkpt><trkpt lat="44.720282604957625" lon="9.869662394826443"><ele>679.0</ele><time>2026-04-19T13:05:26Z</time></trkpt><trkpt lat="44.72036455312324" lon="9.86980585253242"><ele>681.5</ele><time>2026-04-19T13:05:27Z</time></trkpt><trkpt lat="44.72044830438757" lon="9.86992789267965"><ele>684.0</ele><time>2026-04-19T13:05:28Z</time></trkpt><trkpt lat="44.72051490469222" lon="9.870061157187207"><ele>681.75</ele><time>2026-04-19T13:05:29Z</time></trkpt><trkpt lat="44.720550848737815" lon="9.870207446700116"><ele>679.5</ele><time>2026-04-19T13:05:30Z</time></trkpt><trkpt lat="44.72054961254349" lon="9.870362884443345"><ele>677.25</ele><time>2026-04-19T13:05:31Z</time></trkpt><trkpt lat="44.72052633199578" lon="9.870528396175796"><ele>675.0</ele><time>2026-04-19T13:05:32Z</time></trkpt><trkpt lat="44.7204997427263" lon="9.870702026735485"><ele>675.0</ele><time>2026-04-19T13:05:33Z</time></trkpt><trkpt lat="44.72046417671164" lon="9.870880089520812"><ele>675.0</ele><time>2026-04-19T13:05:34Z</time></trkpt><trkpt lat="44.720442364324924" lon="9.871067666844999"><ele>675.0</ele><time>2026-04-19T13:05:35Z</time></trkpt><trkpt lat="44.720451335066" lon="9.871267079371759"><ele>675.0</ele><time>2026-04-19T13:05:36Z</time></trkpt><trkpt lat="44.72047431164768" lon="9.8714715364646"><ele>673.75</ele><time>2026-04-19T13:05:37Z</time></trkpt><trkpt lat="44.7204958814906" lon="9.87165825551812"><ele>672.5</ele><time>2026-04-19T13:05:38Z</time></trkpt><trkpt lat="44.720533040674724" lon="9.871831342705608"><ele>671.25</ele><time>2026-04-19T13:05:39Z</time></trkpt><trkpt lat="44.720593795165435" lon="9.871984133553006"><ele>670.0</ele><time>2026-04-19T13:05:40Z</time></trkpt><trkpt lat="44.7206599183892" lon="9.872121073425676"><ele>668.5</ele><time>2026-04-19T13:05:41Z</time></trkpt><trkpt lat="44.72071706875248" lon="9.872254968472499"><ele>667.0</ele><time>2026-04-19T13:05:42Z</time></trkpt><trkpt lat="44.72077356251915" lon="9.87240786761045"><ele>665.5</ele><time>2026-04-19T13:05:43Z</time></trkpt><trkpt lat="44.72081685475058" lon="9.872576821441653"><ele>664.0</ele><time>2026-04-19T13:05:44Z</time></trkpt><trkpt lat="44.720833727740846" lon="9.87275872469692"><ele>663.5</ele><time>2026-04-19T13:05:45Z</time></trkpt><trkpt lat="44.72083740395176" lon="9.872948308574683"><ele>663.0</ele><time>2026-04-19T13:05:46Z</time></trkpt><trkpt lat="44.720831474261075" lon="9.873141128617783"><ele>662.5</ele><time>2026-04-19T13:05:47Z</time></trkpt><trkpt lat="44.72081126077179" lon="9.87333816769688"><ele>662.0</ele><time>2026-04-19T13:05:48Z</time></trkpt><trkpt lat="44.72078427790128" lon="9.8735384939951"><ele>661.75</ele><time>2026-04-19T13:05:49Z</time></trkpt><trkpt lat="44.72074986876549" lon="9.873739026664591"><ele>661.5</ele><time>2026-04-19T13:05:50Z</time></trkpt><trkpt lat="44.720702579827616" lon="9.873937706461996"><ele>661.25</ele><time>2026-04-19T13:05:51Z</time></trkpt><trkpt lat="44.72062706763837" lon="9.874117842834131"><ele>661.0</ele><time>2026-04-19T13:05:52Z</time></trkpt><trkpt lat="44.72052177303841" lon="9.874262834303556"><ele>661.25</ele><time>2026-04-19T13:05:53Z</time></trkpt><trkpt lat="44.72040247178345" lon="9.874382223217102"><ele>661.5</ele><time>2026-04-19T13:05:54Z</time></trkpt><trkpt lat="44.72028144301108" lon="9.874492522266246"><ele>661.75</ele><time>2026-04-19T13:05:55Z</time></trkpt><trkpt lat="44.720166698367265" lon="9.874602966807105"><ele>662.0</ele><time>2026-04-19T13:05:56Z</time></trkpt><trkpt lat="44.7200701620085" lon="9.87470896088174"><ele>662.25</ele><time>2026-04-19T13:05:57Z</time></trkpt><trkpt lat="44.71998644166913" lon="9.87484020211954"><ele>662.5</ele><time>2026-04-19T13:05:58Z</time></trkpt><trkpt lat="44.719942263286526" lon="9.875015900587407"><ele>662.75</ele><time>2026-04-19T13:05:59Z</time></trkpt><trkpt lat="44.71992535445859" lon="9.875215691183444"><ele>663.0</ele><time>2026-04-19T13:06:00Z</time></trkpt><trkpt lat="44.71990628765308" lon="9.875416234972947"><ele>663.5</ele><time>2026-04-19T13:06:01Z</time></trkpt><trkpt lat="44.71986719596837" lon="9.875586874545212"><ele>664.0</ele><time>2026-04-19T13:06:02Z</time></trkpt><trkpt lat="44.719812238514606" lon="9.87574134228676"><ele>664.5</ele><time>2026-04-19T13:06:03Z</time></trkpt><trkpt lat="44.71974079744664" lon="9.875888826946808"><ele>665.0</ele><time>2026-04-19T13:06:04Z</time></trkpt><trkpt lat="44.71965922570698" lon="9.876004823612917"><ele>665.0</ele><time>2026-04-19T13:06:05Z</time></trkpt><trkpt lat="44.71958035262181" lon="9.876103171706598"><ele>665.0</ele><time>2026-04-19T13:06:06Z</time></trkpt><trkpt lat="44.719503939773524" lon="9.876199691527711"><ele>665.0</ele><time>2026-04-19T13:06:07Z</time></trkpt><trkpt lat="44.71942707632578" lon="9.876286809819579"><ele>665.0</ele><time>2026-04-19T13:06:08Z</time></trkpt><trkpt lat="44.71934141128275" lon="9.876371825456015"><ele>665.0</ele><time>2026-04-19T13:06:09Z</time></trkpt><trkpt lat="44.719254031746665" lon="9.876462398084401"><ele>665.0</ele><time>2026-04-19T13:06:10Z</time></trkpt><trkpt lat="44.71917792755415" lon="9.876578983079469"><ele>665.0</ele><time>2026-04-19T13:06:11Z</time></trkpt><trkpt lat="44.719118723777804" lon="9.876722709116873"><ele>665.0</ele><time>2026-04-19T13:06:12Z</time></trkpt><trkpt lat="44.71908008419012" lon="9.876870783248492"><ele>665.0</ele><time>2026-04-19T13:06:13Z</time></trkpt><trkpt lat="44.71905357330743" lon="9.877004687398856"><ele>665.0</ele><time>2026-04-19T13:06:14Z</time></trkpt><trkpt lat="44.71903011008343" lon="9.877142580839047"><ele>665.0</ele><time>2026-04-19T13:06:15Z</time></trkpt><trkpt lat="44.71900547958689" lon="9.877285087908307"><ele>665.0</ele><time>2026-04-19T13:06:16Z</time></trkpt><trkpt lat="44.71898410410434" lon="9.877432913710654"><ele>665.0</ele><time>2026-04-19T13:06:17Z</time></trkpt><trkpt lat="44.718961207184556" lon="9.87758349928391"><ele>665.0</ele><time>2026-04-19T13:06:18Z</time></trkpt><trkpt lat="44.718934295195375" lon="9.877736860049618"><ele>665.0</ele><time>2026-04-19T13:06:19Z</time></trkpt><trkpt lat="44.71890818040379" lon="9.877895429817436"><ele>665.4</ele><time>2026-04-19T13:06:20Z</time></trkpt><trkpt lat="44.718879812483586" lon="9.878057456503354"><ele>665.8</ele><time>2026-04-19T13:06:21Z</time></trkpt><trkpt lat="44.7188570693135" lon="9.878202276870413"><ele>666.2</ele><time>2026-04-19T13:06:22Z</time></trkpt><trkpt lat="44.7188460324344" lon="9.878343094753804"><ele>666.6</ele><time>2026-04-19T13:06:23Z</time></trkpt><trkpt lat="44.71885023699802" lon="9.878483775113976"><ele>667.0</ele><time>2026-04-19T13:06:24Z</time></trkpt><trkpt lat="44.71888482874767" lon="9.878611388204874"><ele>667.0</ele><time>2026-04-19T13:06:25Z</time></trkpt><trkpt lat="44.71894141407823" lon="9.878715875434965"><ele>667.0</ele><time>2026-04-19T13:06:26Z</time></trkpt><trkpt lat="44.719005447468454" lon="9.878818657469047"><ele>667.0</ele><time>2026-04-19T13:06:27Z</time></trkpt><trkpt lat="44.719061878032825" lon="9.878912266789461"><ele>667.0</ele><time>2026-04-19T13:06:28Z</time></trkpt><trkpt lat="44.719116598049" lon="9.87901429922157"><ele>667.0</ele><time>2026-04-19T13:06:29Z</time></trkpt><trkpt lat="44.71917366017548" lon="9.879124471677132"><ele>667.0</ele><time>2026-04-19T13:06:30Z</time></trkpt><trkpt lat="44.71922587854544" lon="9.879247955001947"><ele>667.0</ele><time>2026-04-19T13:06:31Z</time></trkpt><trkpt lat="44.719257281256695" lon="9.879397892946074"><ele>667.0</ele><time>2026-04-19T13:06:32Z</time></trkpt><trkpt lat="44.71926800024929" lon="9.879563182341197"><ele>667.0</ele><time>2026-04-19T13:06:33Z</time></trkpt><trkpt lat="44.71925068631181" lon="9.879734922191348"><ele>667.2</ele><time>2026-04-19T13:06:34Z</time></trkpt><trkpt lat="44.71922356450662" lon="9.879901233279782"><ele>667.4000000000001</ele><time>2026-04-19T13:06:35Z</time></trkpt><trkpt lat="44.71919231730611" lon="9.88006800882628"><ele>667.5999999999999</ele><time>2026-04-19T13:06:36Z</time></trkpt><trkpt lat="44.71916597603848" lon="9.880217924448091"><ele>667.8</ele><time>2026-04-19T13:06:37Z</time></trkpt><trkpt lat="44.719148335823064" lon="9.880346739381142"><ele>668.0</ele><time>2026-04-19T13:06:38Z</time></trkpt><trkpt lat="44.719133862777966" lon="9.880498319159816"><ele>668.3333333333333</ele><time>2026-04-19T13:06:40Z</time></trkpt><trkpt lat="44.71913973937304" lon="9.880603319033906"><ele>668.6666666666666</ele><time>2026-04-19T13:06:42Z</time></trkpt><trkpt lat="44.71914211939892" lon="9.88071479021936"><ele>669.0</ele><time>2026-04-19T13:09:42Z</time></trkpt><trkpt lat="44.71909161968126" lon="9.8807922944945"><ele>669.3333333333334</ele><time>2026-04-19T13:09:44Z</time></trkpt><trkpt lat="44.71904911056916" lon="9.880872953370591"><ele>669.6666666666667</ele><time>2026-04-19T13:09:45Z</time></trkpt><trkpt lat="44.719021330571515" lon="9.880980794366309"><ele>670.0</ele><time>2026-04-19T13:09:46Z</time></trkpt><trkpt lat="44.71899302609442" lon="9.881105963245288"><ele>670.0</ele><time>2026-04-19T13:09:47Z</time></trkpt><trkpt lat="44.71892433507675" lon="9.881214543302436"><ele>670.0</ele><time>2026-04-19T13:09:48Z</time></trkpt><trkpt lat="44.71889113793478" lon="9.88135220170088"><ele>670.0</ele><time>2026-04-19T13:09:49Z</time></trkpt><trkpt lat="44.71882050682529" lon="9.881471454241874"><ele>670.0</ele><time>2026-04-19T13:09:50Z</time></trkpt><trkpt lat="44.71874199800788" lon="9.881591207300772"><ele>670.0</ele><time>2026-04-19T13:09:51Z</time></trkpt><trkpt lat="44.71865462606787" lon="9.881700514608918"><ele>672.5</ele><time>2026-04-19T13:09:52Z</time></trkpt><trkpt lat="44.7185631660138" lon="9.881792816191055"><ele>675.0</ele><time>2026-04-19T13:09:53Z</time></trkpt><trkpt lat="44.7184742762431" lon="9.881887933809624"><ele>677.5</ele><time>2026-04-19T13:09:54Z</time></trkpt><trkpt lat="44.718389362517975" lon="9.881998696306221"><ele>680.0</ele><time>2026-04-19T13:09:55Z</time></trkpt><trkpt lat="44.71831731795624" lon="9.882139308027664"><ele>680.0</ele><time>2026-04-19T13:09:56Z</time></trkpt><trkpt lat="44.718263215293604" lon="9.882310588461584"><ele>680.0</ele><time>2026-04-19T13:09:57Z</time></trkpt><trkpt lat="44.71821920578195" lon="9.882494980755716"><ele>680.0</ele><time>2026-04-19T13:09:58Z</time></trkpt><trkpt lat="44.71817330826853" lon="9.882680056426752"><ele>680.0</ele><time>2026-04-19T13:09:59Z</time></trkpt><trkpt lat="44.718122880296036" lon="9.882820458626744"><ele>680.0</ele><time>2026-04-19T13:10:00Z</time></trkpt><trkpt lat="44.718089942993224" lon="9.882958153593327"><ele>680.0</ele><time>2026-04-19T13:10:01Z</time></trkpt><trkpt lat="44.71805976774371" lon="9.883083423510845"><ele>680.0</ele><time>2026-04-19T13:10:02Z</time></trkpt><trkpt lat="44.7180287283177" lon="9.883182190114116"><ele>680.0</ele><time>2026-04-19T13:10:03Z</time></trkpt><trkpt lat="44.71797724780402" lon="9.883319860898535"><ele>680.0</ele><time>2026-04-19T13:10:05Z</time></trkpt><trkpt lat="44.71792403213009" lon="9.883489731740932"><ele>678.4</ele><time>2026-04-19T13:10:07Z</time></trkpt><trkpt lat="44.717897967223045" lon="9.883601663724189"><ele>676.8</ele><time>2026-04-19T13:10:08Z</time></trkpt><trkpt lat="44.71786471487093" lon="9.883725438429783"><ele>675.2</ele><time>2026-04-19T13:10:09Z</time></trkpt><trkpt lat="44.717835171351396" lon="9.883861976160993"><ele>673.6</ele><time>2026-04-19T13:10:10Z</time></trkpt><trkpt lat="44.71781793078863" lon="9.884012924789587"><ele>672.0</ele><time>2026-04-19T13:10:11Z</time></trkpt><trkpt lat="44.717811458840714" lon="9.884179392523896"><ele>672.0</ele><time>2026-04-19T13:10:12Z</time></trkpt><trkpt lat="44.71781199343999" lon="9.884356287377607"><ele>672.0</ele><time>2026-04-19T13:10:13Z</time></trkpt><trkpt lat="44.71782266465733" lon="9.884542431735566"><ele>672.0</ele><time>2026-04-19T13:10:14Z</time></trkpt><trkpt lat="44.71784264054443" lon="9.884729766341252"><ele>672.0</ele><time>2026-04-19T13:10:15Z</time></trkpt><trkpt lat="44.71785861816602" lon="9.88490398201787"><ele>672.0</ele><time>2026-04-19T13:10:16Z</time></trkpt><trkpt lat="44.717866231917164" lon="9.885067925424478"><ele>672.0</ele><time>2026-04-19T13:10:17Z</time></trkpt><trkpt lat="44.71787810840152" lon="9.885232219770204"><ele>672.0</ele><time>2026-04-19T13:10:18Z</time></trkpt><trkpt lat="44.71789548973275" lon="9.885408770845606"><ele>672.0</ele><time>2026-04-19T13:10:19Z</time></trkpt><trkpt lat="44.71788973318452" lon="9.885592530992298"><ele>670.5</ele><time>2026-04-19T13:10:20Z</time></trkpt><trkpt lat="44.717852488025564" lon="9.885775086294705"><ele>669.0</ele><time>2026-04-19T13:10:21Z</time></trkpt><trkpt lat="44.71777980619404" lon="9.885934747217714"><ele>667.5</ele><time>2026-04-19T13:10:22Z</time></trkpt><trkpt lat="44.717754577013636" lon="9.886106709856765"><ele>666.0</ele><time>2026-04-19T13:10:23Z</time></trkpt><trkpt lat="44.71774374729479" lon="9.886260116739253"><ele>665.75</ele><time>2026-04-19T13:10:24Z</time></trkpt><trkpt lat="44.71775434896395" lon="9.88642405676456"><ele>665.5</ele><time>2026-04-19T13:10:25Z</time></trkpt><trkpt lat="44.71775611866034" lon="9.886593534701108"><ele>665.25</ele><time>2026-04-19T13:10:26Z</time></trkpt><trkpt lat="44.717772849308766" lon="9.886751803651375"><ele>665.0</ele><time>2026-04-19T13:10:27Z</time></trkpt><trkpt lat="44.71778829480553" lon="9.886901151300714"><ele>667.4</ele><time>2026-04-19T13:10:28Z</time></trkpt><trkpt lat="44.71781938593263" lon="9.887058120526744"><ele>669.8</ele><time>2026-04-19T13:10:29Z</time></trkpt><trkpt lat="44.71783425672132" lon="9.887214053838903"><ele>672.2</ele><time>2026-04-19T13:10:30Z</time></trkpt><trkpt lat="44.717849199322785" lon="9.887371959567222"><ele>674.6</ele><time>2026-04-19T13:10:31Z</time></trkpt><trkpt lat="44.71786958096285" lon="9.88752018147111"><ele>677.0</ele><time>2026-04-19T13:10:32Z</time></trkpt><trkpt lat="44.717907965545656" lon="9.887647167914063"><ele>681.25</ele><time>2026-04-19T13:10:33Z</time></trkpt><trkpt lat="44.71798016935927" lon="9.887752407608408"><ele>685.5</ele><time>2026-04-19T13:10:34Z</time></trkpt><trkpt lat="44.71808911756936" lon="9.887810537469544"><ele>689.75</ele><time>2026-04-19T13:10:35Z</time></trkpt><trkpt lat="44.718216169499826" lon="9.887820771605584"><ele>694.0</ele><time>2026-04-19T13:10:36Z</time></trkpt><trkpt lat="44.71835106995614" lon="9.88781122546832"><ele>694.0</ele><time>2026-04-19T13:10:37Z</time></trkpt><trkpt lat="44.718491844937134" lon="9.887812446792962"><ele>694.0</ele><time>2026-04-19T13:10:38Z</time></trkpt><trkpt lat="44.71860687309653" lon="9.887811419288575"><ele>694.0</ele><time>2026-04-19T13:10:39Z</time></trkpt><trkpt lat="44.71869731883725" lon="9.887804697378915"><ele>694.0</ele><time>2026-04-19T13:10:40Z</time></trkpt><trkpt lat="44.71877811412861" lon="9.887829699831173"><ele>694.0</ele><time>2026-04-19T13:10:41Z</time></trkpt><trkpt lat="44.71888185625114" lon="9.887843457064516"><ele>692.8333333333334</ele><time>2026-04-19T13:10:43Z</time></trkpt><trkpt lat="44.71895440432152" lon="9.887864044673092"><ele>691.6666666666667</ele><time>2026-04-19T13:10:45Z</time></trkpt><trkpt lat="44.719024579030076" lon="9.887893979362964"><ele>690.5</ele><time>2026-04-19T13:10:47Z</time></trkpt><trkpt lat="44.71914107656336" lon="9.88789108126241"><ele>689.3333333333334</ele><time>2026-04-19T13:10:49Z</time></trkpt><trkpt lat="44.719225815371644" lon="9.887912366140506"><ele>688.1666666666666</ele><time>2026-04-19T13:10:51Z</time></trkpt><trkpt lat="44.71931962301333" lon="9.88794054677732"><ele>687.0</ele><time>2026-04-19T13:10:53Z</time></trkpt><trkpt lat="44.719397447622384" lon="9.887967106941888"><ele>685.4000000000001</ele><time>2026-04-19T13:10:54Z</time></trkpt><trkpt lat="44.71946401055828" lon="9.887994954521181"><ele>683.8000000000001</ele><time>2026-04-19T13:10:55Z</time></trkpt><trkpt lat="44.71954274419825" lon="9.888027893894742"><ele>682.2</ele><time>2026-04-19T13:10:56Z</time></trkpt><trkpt lat="44.71961303179703" lon="9.888057299741067"><ele>680.6</ele><time>2026-04-19T13:10:57Z</time></trkpt><trkpt lat="44.7197216381466" lon="9.888102736811604"><ele>679.0</ele><time>2026-04-19T13:10:59Z</time></trkpt><trkpt lat="44.71969075964748" lon="9.888667561985926"><ele>683.6</ele><time>2026-04-19T13:11:01Z</time></trkpt><trkpt lat="44.719772559854846" lon="9.888715879041728"><ele>688.2</ele><time>2026-04-19T13:11:03Z</time></trkpt><trkpt lat="44.719851676550704" lon="9.888755250792512"><ele>692.8000000000001</ele><time>2026-04-19T13:11:04Z</time></trkpt><trkpt lat="44.7199146863278" lon="9.888830981244494"><ele>697.4000000000001</ele><time>2026-04-19T13:11:05Z</time></trkpt><trkpt lat="44.719959300841325" lon="9.88889972527754"><ele>702.0</ele><time>2026-04-19T13:11:06Z</time></trkpt><trkpt lat="44.720067833697904" lon="9.88900716357269"><ele>702.0</ele><time>2026-04-19T13:11:08Z</time></trkpt><trkpt lat="44.720164401142696" lon="9.889140564503238"><ele>702.0</ele><time>2026-04-19T13:11:10Z</time></trkpt><trkpt lat="44.720222527906344" lon="9.889190856547973"><ele>702.0</ele><time>2026-04-19T13:11:11Z</time></trkpt><trkpt lat="44.720276258681814" lon="9.88924121412515"><ele>702.0</ele><time>2026-04-19T13:11:12Z</time></trkpt><trkpt lat="44.720327046148434" lon="9.889307190292776"><ele>702.0</ele><time>2026-04-19T13:11:13Z</time></trkpt><trkpt lat="44.720426686398184" lon="9.889423030886666"><ele>700.5</ele><time>2026-04-19T13:11:15Z</time></trkpt><trkpt lat="44.72049085875081" lon="9.889472366402432"><ele>699.0</ele><time>2026-04-19T13:11:16Z</time></trkpt><trkpt lat="44.72055838791954" lon="9.889501486759904"><ele>697.5</ele><time>2026-04-19T13:11:17Z</time></trkpt><trkpt lat="44.72061183236962" lon="9.88955205687611"><ele>696.0</ele><time>2026-04-19T13:11:18Z</time></trkpt><trkpt lat="44.720665622685395" lon="9.88963103403705"><ele>694.5</ele><time>2026-04-19T13:11:19Z</time></trkpt><trkpt lat="44.72071782002501" lon="9.889702425427643"><ele>693.0</ele><time>2026-04-19T13:11:20Z</time></trkpt><trkpt lat="44.720812881077606" lon="9.889735281240188"><ele>693.0</ele><time>2026-04-19T13:11:22Z</time></trkpt><trkpt lat="44.720915836749896" lon="9.889797646900874"><ele>693.0</ele><time>2026-04-19T13:11:24Z</time></trkpt><trkpt lat="44.720979909483596" lon="9.889920097189435"><ele>693.0</ele><time>2026-04-19T13:11:26Z</time></trkpt><trkpt lat="44.720984785320134" lon="9.890076846737516"><ele>693.0</ele><time>2026-04-19T13:11:29Z</time></trkpt><trkpt lat="44.72106591211357" lon="9.890229929150294"><ele>693.6666666666666</ele><time>2026-04-19T13:11:30Z</time></trkpt><trkpt lat="44.72107032857152" lon="9.890330361527983"><ele>694.3333333333334</ele><time>2026-04-19T13:11:31Z</time></trkpt><trkpt lat="44.72107528684927" lon="9.890511745016825"><ele>695.0</ele><time>2026-04-19T13:11:33Z</time></trkpt><trkpt lat="44.721063482481135" lon="9.890602311851165"><ele>695.6666666666667</ele><time>2026-04-19T13:11:34Z</time></trkpt><trkpt lat="44.72102969383364" lon="9.890734463210881"><ele>696.3333333333334</ele><time>2026-04-19T13:11:36Z</time></trkpt><trkpt lat="44.72100878045413" lon="9.890832499518531"><ele>697.0</ele><time>2026-04-19T13:11:38Z</time></trkpt><trkpt lat="44.72101134849032" lon="9.89093356916883"><ele>695.3333333333334</ele><time>2026-04-19T13:11:40Z</time></trkpt><trkpt lat="44.72107375089364" lon="9.890970281332157"><ele>693.6666666666667</ele><time>2026-04-19T13:11:42Z</time></trkpt><trkpt lat="44.7211392815386" lon="9.89095172199844"><ele>692.0</ele><time>2026-04-19T13:11:44Z</time></trkpt><trkpt lat="44.721209583188326" lon="9.890939198689319"><ele>690.3333333333334</ele><time>2026-04-19T13:11:46Z</time></trkpt><trkpt lat="44.72133668235248" lon="9.890929309753307"><ele>688.6666666666666</ele><time>2026-04-19T13:11:48Z</time></trkpt><trkpt lat="44.72142886130899" lon="9.890876667869513"><ele>687.0</ele><time>2026-04-19T13:11:49Z</time></trkpt><trkpt lat="44.72153429139261" lon="9.89087848733146"><ele>687.0</ele><time>2026-04-19T13:11:51Z</time></trkpt><trkpt lat="44.72160290129157" lon="9.890853533359191"><ele>687.0</ele><time>2026-04-19T13:11:52Z</time></trkpt><trkpt lat="44.721707138871786" lon="9.890816151360482"><ele>687.0</ele><time>2026-04-19T13:11:55Z</time></trkpt><trkpt lat="44.72177115301374" lon="9.890813465123854"><ele>687.0</ele><time>2026-04-19T13:11:59Z</time></trkpt><trkpt lat="44.72183714336463" lon="9.890745843893834"><ele>687.0</ele><time>2026-04-19T13:12:02Z</time></trkpt><trkpt lat="44.721903704625035" lon="9.890683439666567"><ele>687.0</ele><time>2026-04-19T13:12:05Z</time></trkpt><trkpt lat="44.72197366955936" lon="9.890601017644302"><ele>691.3333333333334</ele><time>2026-04-19T13:12:08Z</time></trkpt><trkpt lat="44.72205784687235" lon="9.890580901028509"><ele>695.6666666666667</ele><time>2026-04-19T13:12:11Z</time></trkpt><trkpt lat="44.722022527388866" lon="9.890314381452084"><ele>700.0</ele><time>2026-04-19T13:12:12Z</time></trkpt><trkpt lat="44.72210759970509" lon="9.890534432646177"><ele>700.0</ele><time>2026-04-19T13:12:13Z</time></trkpt><trkpt lat="44.72217816989684" lon="9.890468973984905"><ele>700.0</ele><time>2026-04-19T13:12:16Z</time></trkpt><trkpt lat="44.72225936935474" lon="9.890427645939393"><ele>700.0</ele><time>2026-04-19T13:12:19Z</time></trkpt><trkpt lat="44.722324363243644" lon="9.890368740869595"><ele>700.0</ele><time>2026-04-19T13:12:22Z</time></trkpt><trkpt lat="44.72239186168182" lon="9.890349916203807"><ele>700.0</ele><time>2026-04-19T13:12:24Z</time></trkpt><trkpt lat="44.722469497580185" lon="9.890347141500259"><ele>700.0</ele><time>2026-04-19T13:12:28Z</time></trkpt><trkpt lat="44.722556221859534" lon="9.89035374529037"><ele>700.0</ele><time>2026-04-19T13:12:30Z</time></trkpt><trkpt lat="44.72262331260878" lon="9.890380405337098"><ele>700.0</ele><time>2026-04-19T13:12:31Z</time></trkpt><trkpt lat="44.722683955219026" lon="9.890412916889348"><ele>700.0</ele><time>2026-04-19T13:12:32Z</time></trkpt><trkpt lat="44.72275242639313" lon="9.890465086854649"><ele>700.0</ele><time>2026-04-19T13:12:35Z</time></trkpt><trkpt lat="44.72281403078802" lon="9.890496668671346"><ele>700.0</ele><time>2026-04-19T13:12:38Z</time></trkpt><trkpt lat="44.72288622834903" lon="9.890564246162391"><ele>700.0</ele><time>2026-04-19T13:12:41Z</time></trkpt><trkpt lat="44.722955060689394" lon="9.890636041835887"><ele>702.0</ele><time>2026-04-19T13:12:44Z</time></trkpt><trkpt lat="44.72302608715686" lon="9.890745025634649"><ele>704.0</ele><time>2026-04-19T13:12:46Z</time></trkpt><trkpt lat="44.72307857475299" lon="9.89085708683166"><ele>706.0</ele><time>2026-04-19T13:12:48Z</time></trkpt><trkpt lat="44.724305192418164" lon="9.890998045128221"><ele>700.6666666666667</ele><time>2026-04-19T13:12:49Z</time></trkpt><trkpt lat="44.7243523046882" lon="9.891144046992823"><ele>695.3333333333334</ele><time>2026-04-19T13:12:51Z</time></trkpt><trkpt lat="44.72432121009027" lon="9.89124527659988"><ele>690.0</ele><time>2026-04-19T13:12:53Z</time></trkpt><trkpt lat="44.72428662775115" lon="9.891343634285493"><ele>684.6666666666666</ele><time>2026-04-19T13:12:55Z</time></trkpt><trkpt lat="44.72426546931152" lon="9.891459537938573"><ele>679.3333333333333</ele><time>2026-04-19T13:12:57Z</time></trkpt><trkpt lat="44.724224951263594" lon="9.891554651215738"><ele>674.0</ele><time>2026-04-19T13:12:59Z</time></trkpt><trkpt lat="44.724212455786756" lon="9.891656572752119"><ele>674.0</ele><time>2026-04-19T13:13:01Z</time></trkpt><trkpt lat="44.72419680656795" lon="9.891750287219315"><ele>674.0</ele><time>2026-04-19T13:13:03Z</time></trkpt><trkpt lat="44.72417433851721" lon="9.891834842016921"><ele>674.0</ele><time>2026-04-19T13:13:04Z</time></trkpt><trkpt lat="44.72413086471857" lon="9.891992968446976"><ele>674.0</ele><time>2026-04-19T13:13:06Z</time></trkpt><trkpt lat="44.72410734265623" lon="9.892098558442674"><ele>674.0</ele><time>2026-04-19T13:13:07Z</time></trkpt><trkpt lat="44.72410311067813" lon="9.892193327939994"><ele>674.0</ele><time>2026-04-19T13:13:09Z</time></trkpt><trkpt lat="44.72385882646118" lon="9.892027643990042"><ele>674.3333333333333</ele><time>2026-04-19T13:13:16Z</time></trkpt><trkpt lat="44.72397564818946" lon="9.892125194614602"><ele>674.6666666666666</ele><time>2026-04-19T13:13:20Z</time></trkpt><trkpt lat="44.72404035388516" lon="9.892236345518873"><ele>675.0</ele><time>2026-04-19T13:13:23Z</time></trkpt><trkpt lat="44.72380453761296" lon="9.892065113189304"><ele>675.0</ele><time>2026-04-19T13:13:25Z</time></trkpt><trkpt lat="44.7238631506268" lon="9.892097690554627"><ele>675.0</ele><time>2026-04-19T13:13:28Z</time></trkpt><trkpt lat="44.72393793675362" lon="9.8921402723994"><ele>675.0</ele><time>2026-04-19T13:13:31Z</time></trkpt><trkpt lat="44.72400202342591" lon="9.892180064562423"><ele>675.0</ele><time>2026-04-19T13:13:35Z</time></trkpt><trkpt lat="44.72406062575307" lon="9.892233824967944"><ele>675.0</ele><time>2026-04-19T13:13:40Z</time></trkpt><trkpt lat="44.7241533275508" lon="9.892283103486072"><ele>675.0</ele><time>2026-04-19T13:13:52Z</time></trkpt><trkpt lat="44.72420508273852" lon="9.89221133140008"><ele>675.0</ele><time>2026-04-19T13:13:57Z</time></trkpt><trkpt lat="44.72425490407325" lon="9.892150545390152"><ele>675.0</ele><time>2026-04-19T13:14:00Z</time></trkpt><trkpt lat="44.7243306552586" lon="9.892091590161582"><ele>675.0</ele><time>2026-04-19T13:14:04Z</time></trkpt><trkpt lat="44.724394623388264" lon="9.892044998583224"><ele>675.0</ele><time>2026-04-19T13:14:07Z</time></trkpt><trkpt lat="44.724441187098904" lon="9.891968232173745"><ele>675.0</ele><time>2026-04-19T13:14:10Z</time></trkpt><trkpt lat="44.72450159954864" lon="9.891921313625636"><ele>675.0</ele><time>2026-04-19T13:14:13Z</time></trkpt><trkpt lat="44.724565967300784" lon="9.891874335745394"><ele>675.0</ele><time>2026-04-19T13:14:16Z</time></trkpt><trkpt lat="44.724636165595946" lon="9.89187714202684"><ele>672.1666666666666</ele><time>2026-04-19T13:14:19Z</time></trkpt><trkpt lat="44.72470884150601" lon="9.891899982397199"><ele>669.3333333333334</ele><time>2026-04-19T13:14:22Z</time></trkpt><trkpt lat="44.724782803675126" lon="9.891877318133037"><ele>666.5</ele><time>2026-04-19T13:14:25Z</time></trkpt><trkpt lat="44.724862266601775" lon="9.891879788711504"><ele>663.6666666666667</ele><time>2026-04-19T13:14:29Z</time></trkpt><trkpt lat="44.72493303828141" lon="9.891881412759313"><ele>660.8333333333334</ele><time>2026-04-19T13:14:32Z</time></trkpt><trkpt lat="44.72502708029103" lon="9.891871032646721"><ele>658.0</ele><time>2026-04-19T13:14:35Z</time></trkpt><trkpt lat="44.72510102100977" lon="9.891850011783422"><ele>658.0</ele><time>2026-04-19T13:14:37Z</time></trkpt><trkpt lat="44.72517958379546" lon="9.8918519941997"><ele>658.0</ele><time>2026-04-19T13:14:41Z</time></trkpt><trkpt lat="44.72525466452595" lon="9.891822872228365"><ele>658.0</ele><time>2026-04-19T13:14:43Z</time></trkpt><trkpt lat="44.725331887511686" lon="9.891789873917794"><ele>658.0</ele><time>2026-04-19T13:14:45Z</time></trkpt><trkpt lat="44.7254114686114" lon="9.891746859010022"><ele>658.0</ele><time>2026-04-19T13:14:48Z</time></trkpt><trkpt lat="44.72547268857223" lon="9.891713049918039"><ele>658.0</ele><time>2026-04-19T13:14:50Z</time></trkpt><trkpt lat="44.72554812593619" lon="9.891687616371208"><ele>648.6666666666667</ele><time>2026-04-19T13:14:52Z</time></trkpt><trkpt lat="44.72580464827109" lon="9.891582953442596"><ele>639.3333333333334</ele><time>2026-04-19T13:14:53Z</time></trkpt><trkpt lat="44.725904922208784" lon="9.891541098710015"><ele>630.0</ele><time>2026-04-19T13:14:54Z</time></trkpt><trkpt lat="44.726011192797955" lon="9.891500996991304"><ele>630.75</ele><time>2026-04-19T13:14:55Z</time></trkpt><trkpt lat="44.72612904681536" lon="9.891448651485055"><ele>631.5</ele><time>2026-04-19T13:14:56Z</time></trkpt><trkpt lat="44.72625506296572" lon="9.891396866963126"><ele>632.25</ele><time>2026-04-19T13:14:57Z</time></trkpt><trkpt lat="44.72637910133655" lon="9.891341524839097"><ele>633.0</ele><time>2026-04-19T13:14:58Z</time></trkpt><trkpt lat="44.72650266137709" lon="9.891286457227128"><ele>633.0</ele><time>2026-04-19T13:14:59Z</time></trkpt><trkpt lat="44.72662406234947" lon="9.891232991007756"><ele>633.0</ele><time>2026-04-19T13:15:00Z</time></trkpt><trkpt lat="44.7267448659872" lon="9.891183912355343"><ele>633.0</ele><time>2026-04-19T13:15:01Z</time></trkpt><trkpt lat="44.72685802301511" lon="9.89113718464329"><ele>633.0</ele><time>2026-04-19T13:15:02Z</time></trkpt><trkpt lat="44.726963227302505" lon="9.891092961391813"><ele>633.0</ele><time>2026-04-19T13:15:03Z</time></trkpt><trkpt lat="44.72705248815623" lon="9.89107303143039"><ele>633.0</ele><time>2026-04-19T13:15:04Z</time></trkpt><trkpt lat="44.72714091759083" lon="9.89106545349964"><ele>633.0</ele><time>2026-04-19T13:15:06Z</time></trkpt><trkpt lat="44.72704086414655" lon="9.890975178197252"><ele>633.0</ele><time>2026-04-19T13:15:10Z</time></trkpt><trkpt lat="44.72692383364579" lon="9.8910126680802"><ele>633.0</ele><time>2026-04-19T13:15:12Z</time></trkpt><trkpt lat="44.72681704792891" lon="9.89107619341123"><ele>633.0</ele><time>2026-04-19T13:15:14Z</time></trkpt><trkpt lat="44.726725387285654" lon="9.891119636483124"><ele>633.0</ele><time>2026-04-19T13:15:16Z</time></trkpt><trkpt lat="44.72664658600038" lon="9.891156126508344"><ele>633.0</ele><time>2026-04-19T13:15:17Z</time></trkpt><trkpt lat="44.72657570924372" lon="9.891189175308009"><ele>633.0</ele><time>2026-04-19T13:15:18Z</time></trkpt><trkpt lat="44.726495548006724" lon="9.891226552979901"><ele>633.0</ele><time>2026-04-19T13:15:20Z</time></trkpt><trkpt lat="44.72642998032407" lon="9.891218895545931"><ele>633.0</ele><time>2026-04-19T13:15:22Z</time></trkpt><trkpt lat="44.726232914142486" lon="9.890795707501818"><ele>629.6666666666666</ele><time>2026-04-19T13:15:24Z</time></trkpt><trkpt lat="44.72615614476876" lon="9.890757756564524"><ele>626.3333333333334</ele><time>2026-04-19T13:15:25Z</time></trkpt><trkpt lat="44.726093587380014" lon="9.890735069262847"><ele>623.0</ele><time>2026-04-19T13:15:26Z</time></trkpt><trkpt lat="44.726011897255376" lon="9.890684319506184"><ele>619.6666666666667</ele><time>2026-04-19T13:15:28Z</time></trkpt><trkpt lat="44.72592616615082" lon="9.890620106725576"><ele>616.3333333333334</ele><time>2026-04-19T13:15:30Z</time></trkpt><trkpt lat="44.72586094004338" lon="9.890619755641833"><ele>613.0</ele><time>2026-04-19T13:15:33Z</time></trkpt><trkpt lat="44.7258008851985" lon="9.890532917433527"><ele>613.0</ele><time>2026-04-19T13:15:36Z</time></trkpt><trkpt lat="44.7257915553761" lon="9.89042834374046"><ele>613.0</ele><time>2026-04-19T13:15:38Z</time></trkpt><trkpt lat="44.72575396779559" lon="9.890345670469111"><ele>613.0</ele><time>2026-04-19T13:15:40Z</time></trkpt><trkpt lat="44.72567020673251" lon="9.890307559712326"><ele>613.0</ele><time>2026-04-19T13:15:45Z</time></trkpt><trkpt lat="44.72561347370634" lon="9.890260914047024"><ele>613.0</ele><time>2026-04-19T13:15:49Z</time></trkpt><trkpt lat="44.72558873674669" lon="9.890163672930456"><ele>613.0</ele><time>2026-04-19T13:15:51Z</time></trkpt><trkpt lat="44.72556595574364" lon="9.890060836555856"><ele>613.0</ele><time>2026-04-19T13:15:53Z</time></trkpt><trkpt lat="44.72551984236301" lon="9.889921377658574"><ele>610.6666666666667</ele><time>2026-04-19T13:15:55Z</time></trkpt><trkpt lat="44.72548398432037" lon="9.889811307295734"><ele>608.3333333333334</ele><time>2026-04-19T13:15:56Z</time></trkpt><trkpt lat="44.72546493182567" lon="9.88971415565985"><ele>606.0</ele><time>2026-04-19T13:15:57Z</time></trkpt><trkpt lat="44.72543199413591" lon="9.889593481085464"><ele>603.6666666666666</ele><time>2026-04-19T13:15:58Z</time></trkpt><trkpt lat="44.72541386259246" lon="9.8894828497305"><ele>601.3333333333333</ele><time>2026-04-19T13:15:59Z</time></trkpt><trkpt lat="44.7253805740593" lon="9.889388470415316"><ele>599.0</ele><time>2026-04-19T13:16:00Z</time></trkpt><trkpt lat="44.7252999913782" lon="9.889248469855795"><ele>602.75</ele><time>2026-04-19T13:16:02Z</time></trkpt><trkpt lat="44.72519949270936" lon="9.888934159101746"><ele>606.5</ele><time>2026-04-19T13:16:04Z</time></trkpt><trkpt lat="44.72515987486125" lon="9.888853619316514"><ele>610.25</ele><time>2026-04-19T13:16:05Z</time></trkpt><trkpt lat="44.72508089205724" lon="9.888702544002575"><ele>614.0</ele><time>2026-04-19T13:16:07Z</time></trkpt><trkpt lat="44.72493613210737" lon="9.888640872361922"><ele>614.0</ele><time>2026-04-19T13:16:09Z</time></trkpt><trkpt lat="44.72486284301383" lon="9.888617107680382"><ele>614.0</ele><time>2026-04-19T13:16:10Z</time></trkpt><trkpt lat="44.72478809969776" lon="9.888603675477736"><ele>614.0</ele><time>2026-04-19T13:16:11Z</time></trkpt><trkpt lat="44.72469571986863" lon="9.888581756275729"><ele>614.0</ele><time>2026-04-19T13:16:13Z</time></trkpt><trkpt lat="44.72459160735537" lon="9.888515739518223"><ele>614.0</ele><time>2026-04-19T13:16:15Z</time></trkpt><trkpt lat="44.724510675561255" lon="9.88845043411138"><ele>610.8571428571428</ele><time>2026-04-19T13:16:17Z</time></trkpt><trkpt lat="44.724560913834075" lon="9.88837397915952"><ele>607.7142857142857</ele><time>2026-04-19T13:16:21Z</time></trkpt><trkpt lat="44.724611146815185" lon="9.888315836312321"><ele>604.5714285714286</ele><time>2026-04-19T13:16:28Z</time></trkpt><trkpt lat="44.72468439966565" lon="9.888294098513526"><ele>601.4285714285713</ele><time>2026-04-19T13:16:34Z</time></trkpt><trkpt lat="44.724760381187785" lon="9.888269338320221"><ele>598.2857142857142</ele><time>2026-04-19T13:16:37Z</time></trkpt><trkpt lat="44.724838073760004" lon="9.888234509532325"><ele>595.1428571428571</ele><time>2026-04-19T13:16:40Z</time></trkpt><trkpt lat="44.72490768092417" lon="9.888219685079596"><ele>592.0</ele><time>2026-04-19T13:16:43Z</time></trkpt><trkpt lat="44.72496729137697" lon="9.888175895547848"><ele>592.0</ele><time>2026-04-19T13:16:45Z</time></trkpt><trkpt lat="44.72503496598883" lon="9.888166703552326"><ele>592.0</ele><time>2026-04-19T13:16:51Z</time></trkpt><trkpt lat="44.725108040231746" lon="9.888106764398108"><ele>592.0</ele><time>2026-04-19T13:16:56Z</time></trkpt><trkpt lat="44.725164303317705" lon="9.888014074644918"><ele>592.0</ele><time>2026-04-19T13:17:01Z</time></trkpt><trkpt lat="44.725184811574415" lon="9.887927279981264"><ele>592.0</ele><time>2026-04-19T13:17:03Z</time></trkpt><trkpt lat="44.72522242401656" lon="9.887821766287626"><ele>592.0</ele><time>2026-04-19T13:17:07Z</time></trkpt><trkpt lat="44.725267131320265" lon="9.887739138009891"><ele>589.5714285714286</ele><time>2026-04-19T13:17:11Z</time></trkpt><trkpt lat="44.7253055389251" lon="9.887665555158508"><ele>587.1428571428571</ele><time>2026-04-19T13:17:16Z</time></trkpt><trkpt lat="44.725349395856746" lon="9.887591336310772"><ele>584.7142857142857</ele><time>2026-04-19T13:17:21Z</time></trkpt><trkpt lat="44.725389002681254" lon="9.887509913784696"><ele>582.2857142857142</ele><time>2026-04-19T13:17:25Z</time></trkpt><trkpt lat="44.725423667589084" lon="9.887433960627515"><ele>579.8571428571428</ele><time>2026-04-19T13:17:28Z</time></trkpt><trkpt lat="44.72550089407224" lon="9.887396799652342"><ele>577.4285714285714</ele><time>2026-04-19T13:17:32Z</time></trkpt><trkpt lat="44.7255714244576" lon="9.88739744687381"><ele>575.0</ele><time>2026-04-19T13:17:35Z</time></trkpt><trkpt lat="44.725646499566636" lon="9.887372007903071"><ele>575.0</ele><time>2026-04-19T13:17:38Z</time></trkpt><trkpt lat="44.72574156740737" lon="9.88733882413418"><ele>575.0</ele><time>2026-04-19T13:17:41Z</time></trkpt><trkpt lat="44.7258238430575" lon="9.887353918633181"><ele>575.0</ele><time>2026-04-19T13:17:44Z</time></trkpt><trkpt lat="44.725902642943666" lon="9.887405263968844"><ele>575.0</ele><time>2026-04-19T13:17:47Z</time></trkpt><trkpt lat="44.72593287829208" lon="9.88752588089539"><ele>575.0</ele><time>2026-04-19T13:17:49Z</time></trkpt><trkpt lat="44.72597954438169" lon="9.887626606042028"><ele>575.0</ele><time>2026-04-19T13:17:52Z</time></trkpt><trkpt lat="44.72604593779451" lon="9.887648716033013"><ele>567.0</ele><time>2026-04-19T13:17:54Z</time></trkpt><trkpt lat="44.72610017238321" lon="9.887574752608034"><ele>559.0</ele><time>2026-04-19T13:17:57Z</time></trkpt><trkpt lat="44.726169410182074" lon="9.887536541463271"><ele>551.0</ele><time>2026-04-19T13:18:00Z</time></trkpt><trkpt lat="44.72641705205438" lon="9.88755783275324"><ele>543.0</ele><time>2026-04-19T13:18:01Z</time></trkpt><trkpt lat="44.726488114752115" lon="9.88746980727688"><ele>543.0</ele><time>2026-04-19T13:18:03Z</time></trkpt><trkpt lat="44.72654911416917" lon="9.887402438355714"><ele>543.0</ele><time>2026-04-19T13:18:05Z</time></trkpt><trkpt lat="44.72661324207769" lon="9.887354663456705"><ele>543.0</ele><time>2026-04-19T13:18:07Z</time></trkpt><trkpt lat="44.726717267184306" lon="9.887337328874343"><ele>543.0</ele><time>2026-04-19T13:18:09Z</time></trkpt><trkpt lat="44.72679287102084" lon="9.887313545065822"><ele>543.0</ele><time>2026-04-19T13:18:12Z</time></trkpt><trkpt lat="44.72685524514003" lon="9.887291217756523"><ele>543.0</ele><time>2026-04-19T13:18:15Z</time></trkpt><trkpt lat="44.726909284061534" lon="9.887223234666632"><ele>543.5</ele><time>2026-04-19T13:18:22Z</time></trkpt><trkpt lat="44.72697499640742" lon="9.887149569736184"><ele>544.0</ele><time>2026-04-19T13:18:27Z</time></trkpt><trkpt lat="44.7270342544618" lon="9.88709198956647"><ele>544.5</ele><time>2026-04-19T13:18:30Z</time></trkpt><trkpt lat="44.72709524753999" lon="9.887045203326954"><ele>545.0</ele><time>2026-04-19T13:18:33Z</time></trkpt><trkpt lat="44.72717071865874" lon="9.88700533984637"><ele>545.5</ele><time>2026-04-19T13:18:36Z</time></trkpt><trkpt lat="44.7272359656275" lon="9.886940662597732"><ele>546.0</ele><time>2026-04-19T13:18:39Z</time></trkpt><trkpt lat="44.72729512953818" lon="9.886885856974187"><ele>546.0</ele><time>2026-04-19T13:18:41Z</time></trkpt><trkpt lat="44.72737176711184" lon="9.886833832823779"><ele>546.0</ele><time>2026-04-19T13:18:43Z</time></trkpt><trkpt lat="44.72746610918808" lon="9.886781740132081"><ele>546.0</ele><time>2026-04-19T13:18:45Z</time></trkpt><trkpt lat="44.727526313048266" lon="9.886734378421062"><ele>546.0</ele><time>2026-04-19T13:18:46Z</time></trkpt><trkpt lat="44.72759363414704" lon="9.886702548581876"><ele>546.0</ele><time>2026-04-19T13:18:47Z</time></trkpt><trkpt lat="44.727654691044094" lon="9.886667657461821"><ele>546.0</ele><time>2026-04-19T13:18:48Z</time></trkpt><trkpt lat="44.72776119501972" lon="9.88661326344309"><ele>542.0</ele><time>2026-04-19T13:18:50Z</time></trkpt><trkpt lat="44.72782132779767" lon="9.886580328853332"><ele>538.0</ele><time>2026-04-19T13:18:51Z</time></trkpt><trkpt lat="44.727889296219395" lon="9.886529061406867"><ele>534.0</ele><time>2026-04-19T13:18:52Z</time></trkpt><trkpt lat="44.72795761239138" lon="9.886473746607804"><ele>530.0</ele><time>2026-04-19T13:18:53Z</time></trkpt><trkpt lat="44.728030963049065" lon="9.88642933921592"><ele>526.0</ele><time>2026-04-19T13:18:54Z</time></trkpt><trkpt lat="44.72809494874379" lon="9.886392246244919"><ele>522.0</ele><time>2026-04-19T13:18:55Z</time></trkpt><trkpt lat="44.72816405404594" lon="9.886359118407466"><ele>518.0</ele><time>2026-04-19T13:18:56Z</time></trkpt><trkpt lat="44.72821556611898" lon="9.886298196843523"><ele>518.0</ele><time>2026-04-19T13:18:57Z</time></trkpt><trkpt lat="44.72830199449023" lon="9.886202473316756"><ele>518.0</ele><time>2026-04-19T13:18:59Z</time></trkpt><trkpt lat="44.72836291542931" lon="9.886149079706163"><ele>518.0</ele><time>2026-04-19T13:19:01Z</time></trkpt><trkpt lat="44.728436246428764" lon="9.886035765800411"><ele>518.0</ele><time>2026-04-19T13:19:03Z</time></trkpt><trkpt lat="44.72852441810664" lon="9.886046762643893"><ele>518.0</ele><time>2026-04-19T13:19:05Z</time></trkpt><trkpt lat="44.728868027518686" lon="9.886179152071534"><ele>516.6</ele><time>2026-04-19T13:19:07Z</time></trkpt><trkpt lat="44.72897870870231" lon="9.88620432142791"><ele>515.1999999999999</ele><time>2026-04-19T13:19:08Z</time></trkpt><trkpt lat="44.72908684233099" lon="9.886238845901053"><ele>513.8</ele><time>2026-04-19T13:19:09Z</time></trkpt><trkpt lat="44.729187059915105" lon="9.88627315078413"><ele>512.4</ele><time>2026-04-19T13:19:10Z</time></trkpt><trkpt lat="44.72928826826569" lon="9.886312110011014"><ele>511.0</ele><time>2026-04-19T13:19:11Z</time></trkpt><trkpt lat="44.72937077164151" lon="9.886345571237932"><ele>509.83333333333337</ele><time>2026-04-19T13:19:12Z</time></trkpt><trkpt lat="44.729446567916185" lon="9.88637503320396"><ele>508.6666666666667</ele><time>2026-04-19T13:19:13Z</time></trkpt><trkpt lat="44.72952874309429" lon="9.886409318156607"><ele>507.5</ele><time>2026-04-19T13:19:14Z</time></trkpt><trkpt lat="44.72961264313831" lon="9.886457705955848"><ele>506.33333333333337</ele><time>2026-04-19T13:19:15Z</time></trkpt><trkpt lat="44.729699714906126" lon="9.886515501229043"><ele>505.1666666666667</ele><time>2026-04-19T13:19:16Z</time></trkpt><trkpt lat="44.729783050877664" lon="9.88656980633703"><ele>504.0</ele><time>2026-04-19T13:19:17Z</time></trkpt><trkpt lat="44.72986636415077" lon="9.88662640781281"><ele>504.0</ele><time>2026-04-19T13:19:18Z</time></trkpt><trkpt lat="44.729937173453926" lon="9.886681049029706"><ele>504.0</ele><time>2026-04-19T13:19:19Z</time></trkpt><trkpt lat="44.7300064004453" lon="9.886728062152631"><ele>504.0</ele><time>2026-04-19T13:19:20Z</time></trkpt><trkpt lat="44.73007226033155" lon="9.886778486638258"><ele>504.0</ele><time>2026-04-19T13:19:21Z</time></trkpt><trkpt lat="44.73013501094411" lon="9.88683618067357"><ele>504.0</ele><time>2026-04-19T13:19:22Z</time></trkpt><trkpt lat="44.730189878135405" lon="9.886894869621534"><ele>504.0</ele><time>2026-04-19T13:19:23Z</time></trkpt><trkpt lat="44.73023780490737" lon="9.886961749427556"><ele>504.0</ele><time>2026-04-19T13:19:24Z</time></trkpt><trkpt lat="44.73031266273821" lon="9.887073077709756"><ele>504.4</ele><time>2026-04-19T13:19:26Z</time></trkpt><trkpt lat="44.7303665472683" lon="9.887145931387092"><ele>504.79999999999995</ele><time>2026-04-19T13:19:27Z</time></trkpt><trkpt lat="44.73043793052193" lon="9.887225618124944"><ele>505.20000000000005</ele><time>2026-04-19T13:19:28Z</time></trkpt><trkpt lat="44.73053731886438" lon="9.887315764330115"><ele>505.6</ele><time>2026-04-19T13:19:29Z</time></trkpt><trkpt lat="44.73062600342246" lon="9.887382567427899"><ele>506.0</ele><time>2026-04-19T13:19:30Z</time></trkpt><trkpt lat="44.73070187626174" lon="9.887447216492964"><ele>505.99999999999994</ele><time>2026-04-19T13:19:31Z</time></trkpt><trkpt lat="44.730767078230535" lon="9.887514327593584"><ele>506.0</ele><time>2026-04-19T13:19:32Z</time></trkpt><trkpt lat="44.73082704693157" lon="9.887576062723989"><ele>506.0</ele><time>2026-04-19T13:19:33Z</time></trkpt><trkpt lat="44.730880922116285" lon="9.887631512346523"><ele>506.0</ele><time>2026-04-19T13:19:34Z</time></trkpt><trkpt lat="44.73096402834709" lon="9.887741615865453"><ele>505.99999999999994</ele><time>2026-04-19T13:19:36Z</time></trkpt><trkpt lat="44.73102462973375" lon="9.887810974459054"><ele>506.0</ele><time>2026-04-19T13:19:38Z</time></trkpt><trkpt lat="44.73109501341429" lon="9.887758509536457"><ele>504.99999999999994</ele><time>2026-04-19T13:19:39Z</time></trkpt><trkpt lat="44.73113739660957" lon="9.887636105973533"><ele>504.0</ele><time>2026-04-19T13:19:41Z</time></trkpt><trkpt lat="44.73119693774876" lon="9.887558815834426"><ele>503.0</ele><time>2026-04-19T13:19:49Z</time></trkpt><trkpt lat="44.731205478528786" lon="9.887459160098178"><ele>502.0</ele><time>2026-04-19T13:19:51Z</time></trkpt><trkpt lat="44.731223127043464" lon="9.88732476085397"><ele>500.99999999999994</ele><time>2026-04-19T13:19:54Z</time></trkpt><trkpt lat="44.73122926892757" lon="9.887235752681626"><ele>500.0</ele><time>2026-04-19T13:19:56Z</time></trkpt><trkpt lat="44.73110667300601" lon="9.88728266581527"><ele>500.0</ele><time>2026-04-19T13:20:03Z</time></trkpt><trkpt lat="44.73107063032512" lon="9.887369084597639"><ele>500.0</ele><time>2026-04-19T13:20:15Z</time></trkpt><trkpt lat="44.731071713244745" lon="9.887463365904965"><ele>500.0</ele><time>2026-04-19T13:25:44Z</time></trkpt></trkseg></trk></gpx>